<?xml version='1.0' encoding='UTF-8'?><gpx version="1.1" creator="JPX - https://github.com/jenetics/jpx" xmlns="http://www.topografix.com/GPX/1/1"><trk><trkseg><trkpt lat="45.6099752" lon="9.4270925"><ele>202.0</ele><time>2026-04-04T09:18:30.328Z</time></trkpt><trkpt lat="45.6099828" lon="9.4269975"><ele>202.0</ele><time>2026-04-04T09:18:33.329Z</time></trkpt><trkpt lat="45.6099794" lon="9.4268912"><ele>202.0</ele><time>2026-04-04T09:18:35.328Z</time></trkpt><trkpt lat="45.6099766" lon="9.4267869"><ele>202.0</ele><time>2026-04-04T09:18:37.329Z</time></trkpt><trkpt lat="45.6099356" lon="9.4267158"><ele>202.0</ele><time>2026-04-04T09:18:39.329Z</time></trkpt><trkpt lat="45.6098587" lon="9.4266715"><ele>202.0</ele><time>2026-04-04T09:18:42.328Z</time></trkpt><trkpt lat="45.6098006" lon="9.4266206"><ele>202.0</ele><time>2026-04-04T09:18:44.329Z</time></trkpt><trkpt lat="45.6098384" lon="9.4265284"><ele>201.99999999999997</ele><time>2026-04-04T09:18:48.329Z</time></trkpt><trkpt lat="45.6097572" lon="9.4263796"><ele>202.0</ele><time>2026-04-04T09:18:49.329Z</time></trkpt><trkpt lat="45.609757" lon="9.4262763"><ele>202.0</ele><time>2026-04-04T09:18:51.328Z</time></trkpt><trkpt lat="45.6097484" lon="9.4261687"><ele>202.0</ele><time>2026-04-04T09:18:53.329Z</time></trkpt><trkpt lat="45.6097145" lon="9.4260889"><ele>201.99999999999997</ele><time>2026-04-04T09:18:55.329Z</time></trkpt><trkpt lat="45.609641" lon="9.4260414"><ele>202.0</ele><time>2026-04-04T09:19:07.329Z</time></trkpt><trkpt lat="45.6095663" lon="9.4260427"><ele>201.49999999999997</ele><time>2026-04-04T09:19:09.329Z</time></trkpt><trkpt lat="45.6094836" lon="9.4260407"><ele>201.0</ele><time>2026-04-04T09:19:11.329Z</time></trkpt><trkpt lat="45.6093974" lon="9.426039"><ele>200.5</ele><time>2026-04-04T09:19:13.329Z</time></trkpt><trkpt lat="45.6093107" lon="9.4260387"><ele>200.0</ele><time>2026-04-04T09:19:15.329Z</time></trkpt><trkpt lat="45.6092296" lon="9.4260373"><ele>199.49999999999997</ele><time>2026-04-04T09:19:17.328Z</time></trkpt><trkpt lat="45.6091311" lon="9.4260298"><ele>199.0</ele><time>2026-04-04T09:19:19.328Z</time></trkpt><trkpt lat="45.6090383" lon="9.4260313"><ele>199.0</ele><time>2026-04-04T09:19:21.329Z</time></trkpt><trkpt lat="45.6089431" lon="9.426037"><ele>199.0</ele><time>2026-04-04T09:19:23.329Z</time></trkpt><trkpt lat="45.6088454" lon="9.4260339"><ele>199.0</ele><time>2026-04-04T09:19:25.328Z</time></trkpt><trkpt lat="45.6087463" lon="9.4260363"><ele>199.0</ele><time>2026-04-04T09:19:27.329Z</time></trkpt><trkpt lat="45.6086452" lon="9.4260356"><ele>199.0</ele><time>2026-04-04T09:19:29.329Z</time></trkpt><trkpt lat="45.6085602" lon="9.4260401"><ele>198.39999999999998</ele><time>2026-04-04T09:19:31.328Z</time></trkpt><trkpt lat="45.6084675" lon="9.4260285"><ele>197.8</ele><time>2026-04-04T09:19:33.329Z</time></trkpt><trkpt lat="45.6083617" lon="9.4260284"><ele>197.2</ele><time>2026-04-04T09:19:35.329Z</time></trkpt><trkpt lat="45.6082616" lon="9.4260121"><ele>196.60000000000002</ele><time>2026-04-04T09:19:37.329Z</time></trkpt><trkpt lat="45.6081786" lon="9.4260048"><ele>196.0</ele><time>2026-04-04T09:19:39.329Z</time></trkpt><trkpt lat="45.6080916" lon="9.4260075"><ele>196.0</ele><time>2026-04-04T09:19:41.329Z</time></trkpt><trkpt lat="45.6079855" lon="9.4260075"><ele>196.0</ele><time>2026-04-04T09:19:43.329Z</time></trkpt><trkpt lat="45.6078818" lon="9.4260008"><ele>196.0</ele><time>2026-04-04T09:19:45.329Z</time></trkpt><trkpt lat="45.6077788" lon="9.4259986"><ele>196.0</ele><time>2026-04-04T09:19:47.329Z</time></trkpt><trkpt lat="45.6076605" lon="9.4259887"><ele>196.0</ele><time>2026-04-04T09:19:49.328Z</time></trkpt><trkpt lat="45.6075676" lon="9.4259785"><ele>195.83333333333331</ele><time>2026-04-04T09:19:51.329Z</time></trkpt><trkpt lat="45.6074834" lon="9.4260286"><ele>195.66666666666666</ele><time>2026-04-04T09:19:53.328Z</time></trkpt><trkpt lat="45.607437" lon="9.4261157"><ele>195.5</ele><time>2026-04-04T09:19:55.328Z</time></trkpt><trkpt lat="45.6074314" lon="9.4262202"><ele>195.33333333333331</ele><time>2026-04-04T09:19:57.328Z</time></trkpt><trkpt lat="45.6074227" lon="9.426344"><ele>195.16666666666666</ele><time>2026-04-04T09:19:59.329Z</time></trkpt><trkpt lat="45.6074145" lon="9.4264644"><ele>195.0</ele><time>2026-04-04T09:20:01.329Z</time></trkpt><trkpt lat="45.6074053" lon="9.4265834"><ele>195.0</ele><time>2026-04-04T09:20:03.329Z</time></trkpt><trkpt lat="45.6073985" lon="9.4266905"><ele>195.0</ele><time>2026-04-04T09:20:05.329Z</time></trkpt><trkpt lat="45.6074022" lon="9.4268013"><ele>195.0</ele><time>2026-04-04T09:20:07.328Z</time></trkpt><trkpt lat="45.6074038" lon="9.4269136"><ele>195.0</ele><time>2026-04-04T09:20:09.329Z</time></trkpt><trkpt lat="45.6073982" lon="9.4270312"><ele>195.0</ele><time>2026-04-04T09:20:11.329Z</time></trkpt><trkpt lat="45.6073933" lon="9.427152"><ele>195.0</ele><time>2026-04-04T09:20:13.329Z</time></trkpt><trkpt lat="45.6073684" lon="9.4272841"><ele>195.0</ele><time>2026-04-04T09:20:15.329Z</time></trkpt><trkpt lat="45.6073582" lon="9.427436"><ele>195.0</ele><time>2026-04-04T09:20:17.329Z</time></trkpt><trkpt lat="45.6073422" lon="9.4275748"><ele>195.0</ele><time>2026-04-04T09:20:19.328Z</time></trkpt><trkpt lat="45.6073283" lon="9.4277257"><ele>195.0</ele><time>2026-04-04T09:20:21.329Z</time></trkpt><trkpt lat="45.6073225" lon="9.427849"><ele>195.0</ele><time>2026-04-04T09:20:23.329Z</time></trkpt><trkpt lat="45.6073178" lon="9.4279796"><ele>195.0</ele><time>2026-04-04T09:20:25.329Z</time></trkpt><trkpt lat="45.6073063" lon="9.4281187"><ele>195.0</ele><time>2026-04-04T09:20:27.328Z</time></trkpt><trkpt lat="45.6073071" lon="9.4282567"><ele>195.0</ele><time>2026-04-04T09:20:29.329Z</time></trkpt><trkpt lat="45.6072971" lon="9.428385"><ele>195.0</ele><time>2026-04-04T09:20:31.328Z</time></trkpt><trkpt lat="45.6072937" lon="9.4285215"><ele>195.0</ele><time>2026-04-04T09:20:33.328Z</time></trkpt><trkpt lat="45.6072949" lon="9.4286675"><ele>195.0</ele><time>2026-04-04T09:20:35.328Z</time></trkpt><trkpt lat="45.6072984" lon="9.4287825"><ele>195.0</ele><time>2026-04-04T09:20:37.328Z</time></trkpt><trkpt lat="45.6072935" lon="9.4289199"><ele>195.0</ele><time>2026-04-04T09:20:39.329Z</time></trkpt><trkpt lat="45.6072915" lon="9.4290775"><ele>195.0</ele><time>2026-04-04T09:20:41.329Z</time></trkpt><trkpt lat="45.6072913" lon="9.429217"><ele>195.0</ele><time>2026-04-04T09:20:43.328Z</time></trkpt><trkpt lat="45.6072982" lon="9.4293562"><ele>195.0</ele><time>2026-04-04T09:20:45.329Z</time></trkpt><trkpt lat="45.6072968" lon="9.4294934"><ele>195.0</ele><time>2026-04-04T09:20:47.329Z</time></trkpt><trkpt lat="45.6072903" lon="9.4296667"><ele>195.0</ele><time>2026-04-04T09:20:49.329Z</time></trkpt><trkpt lat="45.6072909" lon="9.4297699"><ele>195.0</ele><time>2026-04-04T09:20:50.328Z</time></trkpt><trkpt lat="45.6072563" lon="9.4299029"><ele>195.0</ele><time>2026-04-04T09:20:52.329Z</time></trkpt><trkpt lat="45.6072048" lon="9.4300218"><ele>195.2</ele><time>2026-04-04T09:20:54.329Z</time></trkpt><trkpt lat="45.6071541" lon="9.4301298"><ele>195.4</ele><time>2026-04-04T09:20:56.329Z</time></trkpt><trkpt lat="45.6070736" lon="9.4302303"><ele>195.60000000000002</ele><time>2026-04-04T09:20:59.328Z</time></trkpt><trkpt lat="45.6070541" lon="9.4303607"><ele>195.8</ele><time>2026-04-04T09:21:01.329Z</time></trkpt><trkpt lat="45.6070426" lon="9.4304506"><ele>196.0</ele><time>2026-04-04T09:21:02.329Z</time></trkpt><trkpt lat="45.607014" lon="9.4306297"><ele>196.16666666666666</ele><time>2026-04-04T09:21:04.329Z</time></trkpt><trkpt lat="45.6069957" lon="9.4307261"><ele>196.33333333333331</ele><time>2026-04-04T09:21:05.329Z</time></trkpt><trkpt lat="45.6069688" lon="9.4308766"><ele>196.5</ele><time>2026-04-04T09:21:07.328Z</time></trkpt><trkpt lat="45.6069406" lon="9.4309999"><ele>196.66666666666669</ele><time>2026-04-04T09:21:09.329Z</time></trkpt><trkpt lat="45.6069613" lon="9.431102"><ele>196.83333333333334</ele><time>2026-04-04T09:21:11.329Z</time></trkpt><trkpt lat="45.6070148" lon="9.4311876"><ele>197.0</ele><time>2026-04-04T09:21:13.329Z</time></trkpt><trkpt lat="45.6071085" lon="9.4312495"><ele>197.00000000000003</ele><time>2026-04-04T09:21:15.329Z</time></trkpt><trkpt lat="45.6071878" lon="9.4312836"><ele>197.0</ele><time>2026-04-04T09:21:17.329Z</time></trkpt><trkpt lat="45.6072749" lon="9.4313319"><ele>197.0</ele><time>2026-04-04T09:21:19.329Z</time></trkpt><trkpt lat="45.6073219" lon="9.4314347"><ele>197.0</ele><time>2026-04-04T09:21:21.328Z</time></trkpt><trkpt lat="45.6073272" lon="9.431563"><ele>197.00000000000003</ele><time>2026-04-04T09:21:23.329Z</time></trkpt><trkpt lat="45.6073315" lon="9.4316864"><ele>197.0</ele><time>2026-04-04T09:21:26.328Z</time></trkpt><trkpt lat="45.6074208" lon="9.4317559"><ele>197.0</ele><time>2026-04-04T09:21:29.329Z</time></trkpt><trkpt lat="45.6074808" lon="9.4317832"><ele>197.0</ele><time>2026-04-04T09:21:30.329Z</time></trkpt><trkpt lat="45.6075844" lon="9.4318296"><ele>197.0</ele><time>2026-04-04T09:21:32.328Z</time></trkpt><trkpt lat="45.6076886" lon="9.4318702"><ele>197.0</ele><time>2026-04-04T09:21:34.329Z</time></trkpt><trkpt lat="45.6077817" lon="9.4318936"><ele>197.0</ele><time>2026-04-04T09:21:36.328Z</time></trkpt><trkpt lat="45.6078852" lon="9.431925"><ele>197.2</ele><time>2026-04-04T09:21:38.329Z</time></trkpt><trkpt lat="45.607985" lon="9.4319366"><ele>197.39999999999998</ele><time>2026-04-04T09:21:40.329Z</time></trkpt><trkpt lat="45.6080723" lon="9.4319336"><ele>197.60000000000002</ele><time>2026-04-04T09:21:42.329Z</time></trkpt><trkpt lat="45.6081737" lon="9.4318708"><ele>197.8</ele><time>2026-04-04T09:21:44.329Z</time></trkpt><trkpt lat="45.6082311" lon="9.4318308"><ele>198.0</ele><time>2026-04-04T09:21:45.329Z</time></trkpt><trkpt lat="45.6083496" lon="9.4317938"><ele>198.0</ele><time>2026-04-04T09:21:47.329Z</time></trkpt><trkpt lat="45.6084152" lon="9.4317902"><ele>198.0</ele><time>2026-04-04T09:21:48.329Z</time></trkpt><trkpt lat="45.6085258" lon="9.4317916"><ele>198.0</ele><time>2026-04-04T09:21:50.328Z</time></trkpt><trkpt lat="45.6086206" lon="9.431816"><ele>198.0</ele><time>2026-04-04T09:21:52.329Z</time></trkpt><trkpt lat="45.6087043" lon="9.4318446"><ele>198.0</ele><time>2026-04-04T09:21:54.329Z</time></trkpt><trkpt lat="45.6088058" lon="9.4318861"><ele>197.4</ele><time>2026-04-04T09:21:56.329Z</time></trkpt><trkpt lat="45.6089071" lon="9.4319336"><ele>196.8</ele><time>2026-04-04T09:21:58.329Z</time></trkpt><trkpt lat="45.6090131" lon="9.4319851"><ele>196.2</ele><time>2026-04-04T09:22:00.329Z</time></trkpt><trkpt lat="45.6091118" lon="9.4320285"><ele>195.6</ele><time>2026-04-04T09:22:02.329Z</time></trkpt><trkpt lat="45.6092197" lon="9.4320779"><ele>195.0</ele><time>2026-04-04T09:22:04.329Z</time></trkpt><trkpt lat="45.6092809" lon="9.4321008"><ele>195.0</ele><time>2026-04-04T09:22:05.329Z</time></trkpt><trkpt lat="45.6093425" lon="9.4321266"><ele>195.0</ele><time>2026-04-04T09:22:06.328Z</time></trkpt><trkpt lat="45.6094542" lon="9.4321641"><ele>195.0</ele><time>2026-04-04T09:22:08.329Z</time></trkpt><trkpt lat="45.6095581" lon="9.4321935"><ele>195.0</ele><time>2026-04-04T09:22:10.329Z</time></trkpt><trkpt lat="45.6096713" lon="9.4322288"><ele>195.0</ele><time>2026-04-04T09:22:12.329Z</time></trkpt><trkpt lat="45.6097742" lon="9.4322591"><ele>195.2</ele><time>2026-04-04T09:22:14.328Z</time></trkpt><trkpt lat="45.6098749" lon="9.4322563"><ele>195.4</ele><time>2026-04-04T09:22:16.329Z</time></trkpt><trkpt lat="45.6099868" lon="9.4322076"><ele>195.60000000000002</ele><time>2026-04-04T09:22:18.329Z</time></trkpt><trkpt lat="45.6101046" lon="9.4322156"><ele>195.8</ele><time>2026-04-04T09:22:20.329Z</time></trkpt><trkpt lat="45.6102071" lon="9.4322323"><ele>196.0</ele><time>2026-04-04T09:22:22.329Z</time></trkpt><trkpt lat="45.6103119" lon="9.4322033"><ele>196.60000000000002</ele><time>2026-04-04T09:22:24.329Z</time></trkpt><trkpt lat="45.6104104" lon="9.4321286"><ele>197.2</ele><time>2026-04-04T09:22:26.328Z</time></trkpt><trkpt lat="45.6104947" lon="9.4320463"><ele>197.8</ele><time>2026-04-04T09:22:28.329Z</time></trkpt><trkpt lat="45.6105884" lon="9.4319638"><ele>198.39999999999998</ele><time>2026-04-04T09:22:30.329Z</time></trkpt><trkpt lat="45.6106864" lon="9.4319157"><ele>199.0</ele><time>2026-04-04T09:22:32.329Z</time></trkpt><trkpt lat="45.6107873" lon="9.4319025"><ele>199.0</ele><time>2026-04-04T09:22:34.329Z</time></trkpt><trkpt lat="45.610894" lon="9.4319167"><ele>199.0</ele><time>2026-04-04T09:22:36.328Z</time></trkpt><trkpt lat="45.6109977" lon="9.4319376"><ele>199.0</ele><time>2026-04-04T09:22:38.329Z</time></trkpt><trkpt lat="45.6110918" lon="9.4319415"><ele>199.0</ele><time>2026-04-04T09:22:40.329Z</time></trkpt><trkpt lat="45.6111863" lon="9.4319359"><ele>199.0</ele><time>2026-04-04T09:22:42.328Z</time></trkpt><trkpt lat="45.6112888" lon="9.4319386"><ele>199.6</ele><time>2026-04-04T09:22:44.329Z</time></trkpt><trkpt lat="45.6113859" lon="9.4319321"><ele>200.2</ele><time>2026-04-04T09:22:46.328Z</time></trkpt><trkpt lat="45.6114857" lon="9.4319424"><ele>200.79999999999998</ele><time>2026-04-04T09:22:48.329Z</time></trkpt><trkpt lat="45.611581" lon="9.4319822"><ele>201.39999999999998</ele><time>2026-04-04T09:22:50.329Z</time></trkpt><trkpt lat="45.6116641" lon="9.4320478"><ele>202.0</ele><time>2026-04-04T09:22:52.329Z</time></trkpt><trkpt lat="45.6117198" lon="9.4321693"><ele>202.0</ele><time>2026-04-04T09:22:54.329Z</time></trkpt><trkpt lat="45.6118102" lon="9.4322296"><ele>202.0</ele><time>2026-04-04T09:22:56.329Z</time></trkpt><trkpt lat="45.611923" lon="9.4322395"><ele>202.0</ele><time>2026-04-04T09:22:58.328Z</time></trkpt><trkpt lat="45.612032" lon="9.4322608"><ele>202.0</ele><time>2026-04-04T09:23:00.329Z</time></trkpt><trkpt lat="45.6121446" lon="9.4322725"><ele>202.0</ele><time>2026-04-04T09:23:02.329Z</time></trkpt><trkpt lat="45.6122596" lon="9.4322885"><ele>202.25</ele><time>2026-04-04T09:23:04.328Z</time></trkpt><trkpt lat="45.6123736" lon="9.4323153"><ele>202.5</ele><time>2026-04-04T09:23:06.329Z</time></trkpt><trkpt lat="45.6124883" lon="9.432324"><ele>202.75</ele><time>2026-04-04T09:23:08.329Z</time></trkpt><trkpt lat="45.6126064" lon="9.43235"><ele>203.0</ele><time>2026-04-04T09:23:10.329Z</time></trkpt><trkpt lat="45.6127169" lon="9.4323677"><ele>203.0</ele><time>2026-04-04T09:23:12.329Z</time></trkpt><trkpt lat="45.6128262" lon="9.4324206"><ele>203.0</ele><time>2026-04-04T09:23:14.329Z</time></trkpt><trkpt lat="45.6129368" lon="9.4324741"><ele>203.0</ele><time>2026-04-04T09:23:16.329Z</time></trkpt><trkpt lat="45.6130389" lon="9.4325209"><ele>203.0</ele><time>2026-04-04T09:23:18.328Z</time></trkpt><trkpt lat="45.613137" lon="9.4325651"><ele>203.0</ele><time>2026-04-04T09:23:20.329Z</time></trkpt><trkpt lat="45.6132403" lon="9.4326267"><ele>203.0</ele><time>2026-04-04T09:23:22.329Z</time></trkpt><trkpt lat="45.6133535" lon="9.4326813"><ele>203.0</ele><time>2026-04-04T09:23:24.328Z</time></trkpt><trkpt lat="45.6134624" lon="9.4327363"><ele>203.0</ele><time>2026-04-04T09:23:26.329Z</time></trkpt><trkpt lat="45.6135704" lon="9.4327922"><ele>203.0</ele><time>2026-04-04T09:23:28.329Z</time></trkpt><trkpt lat="45.6136718" lon="9.4328329"><ele>203.0</ele><time>2026-04-04T09:23:30.329Z</time></trkpt><trkpt lat="45.6137767" lon="9.432835"><ele>203.0</ele><time>2026-04-04T09:23:32.329Z</time></trkpt><trkpt lat="45.6138583" lon="9.4327768"><ele>203.0</ele><time>2026-04-04T09:23:34.329Z</time></trkpt><trkpt lat="45.6139385" lon="9.4327292"><ele>203.0</ele><time>2026-04-04T09:23:36.329Z</time></trkpt><trkpt lat="45.6140395" lon="9.4327628"><ele>203.0</ele><time>2026-04-04T09:23:38.329Z</time></trkpt><trkpt lat="45.6141372" lon="9.4328166"><ele>203.0</ele><time>2026-04-04T09:23:40.329Z</time></trkpt><trkpt lat="45.6142384" lon="9.4328679"><ele>203.0</ele><time>2026-04-04T09:23:42.328Z</time></trkpt><trkpt lat="45.6143394" lon="9.4329249"><ele>203.0</ele><time>2026-04-04T09:23:44.329Z</time></trkpt><trkpt lat="45.6144379" lon="9.4329652"><ele>203.0</ele><time>2026-04-04T09:23:46.329Z</time></trkpt><trkpt lat="45.61453" lon="9.4330105"><ele>203.0</ele><time>2026-04-04T09:23:48.329Z</time></trkpt><trkpt lat="45.6146288" lon="9.4330527"><ele>203.4</ele><time>2026-04-04T09:23:50.329Z</time></trkpt><trkpt lat="45.6147238" lon="9.4331029"><ele>203.8</ele><time>2026-04-04T09:23:52.329Z</time></trkpt><trkpt lat="45.6148197" lon="9.4331552"><ele>204.2</ele><time>2026-04-04T09:23:54.328Z</time></trkpt><trkpt lat="45.6149164" lon="9.4331933"><ele>204.6</ele><time>2026-04-04T09:23:56.329Z</time></trkpt><trkpt lat="45.6149993" lon="9.4332386"><ele>205.0</ele><time>2026-04-04T09:23:58.328Z</time></trkpt><trkpt lat="45.6150926" lon="9.4332911"><ele>205.0</ele><time>2026-04-04T09:24:00.329Z</time></trkpt><trkpt lat="45.6151891" lon="9.4333438"><ele>205.0</ele><time>2026-04-04T09:24:02.328Z</time></trkpt><trkpt lat="45.6152845" lon="9.4333906"><ele>205.0</ele><time>2026-04-04T09:24:04.329Z</time></trkpt><trkpt lat="45.6153821" lon="9.4334394"><ele>205.0</ele><time>2026-04-04T09:24:06.329Z</time></trkpt><trkpt lat="45.6154777" lon="9.4334868"><ele>205.0</ele><time>2026-04-04T09:24:08.329Z</time></trkpt><trkpt lat="45.6155591" lon="9.4335151"><ele>204.83333333333331</ele><time>2026-04-04T09:24:10.329Z</time></trkpt><trkpt lat="45.6156114" lon="9.4334197"><ele>204.66666666666666</ele><time>2026-04-04T09:24:13.329Z</time></trkpt><trkpt lat="45.6156131" lon="9.4333011"><ele>204.5</ele><time>2026-04-04T09:24:15.328Z</time></trkpt><trkpt lat="45.6156091" lon="9.4331535"><ele>204.33333333333331</ele><time>2026-04-04T09:24:17.328Z</time></trkpt><trkpt lat="45.6156234" lon="9.4330448"><ele>204.16666666666666</ele><time>2026-04-04T09:24:19.329Z</time></trkpt><trkpt lat="45.6156745" lon="9.432981"><ele>204.0</ele><time>2026-04-04T09:24:21.329Z</time></trkpt><trkpt lat="45.6157273" lon="9.4329314"><ele>204.0</ele><time>2026-04-04T09:24:23.329Z</time></trkpt><trkpt lat="45.6158555" lon="9.4325998"><ele>204.0</ele><time>2026-04-04T09:24:31.332Z</time></trkpt><trkpt lat="45.615884" lon="9.432517"><ele>204.0</ele><time>2026-04-04T09:24:32.33Z</time></trkpt><trkpt lat="45.6159215" lon="9.4323634"><ele>204.0</ele><time>2026-04-04T09:24:34.329Z</time></trkpt><trkpt lat="45.6159423" lon="9.4322371"><ele>204.0</ele><time>2026-04-04T09:24:36.334Z</time></trkpt><trkpt lat="45.6159608" lon="9.4321115"><ele>204.0</ele><time>2026-04-04T09:24:38.334Z</time></trkpt><trkpt lat="45.6159944" lon="9.4320235"><ele>204.0</ele><time>2026-04-04T09:24:40.335Z</time></trkpt><trkpt lat="45.6160711" lon="9.4319949"><ele>204.0</ele><time>2026-04-04T09:24:42.335Z</time></trkpt><trkpt lat="45.6161359" lon="9.4320223"><ele>204.0</ele><time>2026-04-04T09:24:44.334Z</time></trkpt><trkpt lat="45.6161575" lon="9.4321283"><ele>204.0</ele><time>2026-04-04T09:24:46.335Z</time></trkpt><trkpt lat="45.6161432" lon="9.4322564"><ele>204.2</ele><time>2026-04-04T09:24:48.335Z</time></trkpt><trkpt lat="45.6161542" lon="9.4323756"><ele>204.39999999999998</ele><time>2026-04-04T09:24:50.335Z</time></trkpt><trkpt lat="45.6161656" lon="9.4325003"><ele>204.6</ele><time>2026-04-04T09:24:52.335Z</time></trkpt><trkpt lat="45.6161829" lon="9.4326318"><ele>204.8</ele><time>2026-04-04T09:24:54.334Z</time></trkpt><trkpt lat="45.6162008" lon="9.4327624"><ele>205.0</ele><time>2026-04-04T09:24:56.335Z</time></trkpt><trkpt lat="45.6162147" lon="9.432894"><ele>205.0</ele><time>2026-04-04T09:24:58.335Z</time></trkpt><trkpt lat="45.6162353" lon="9.4330225"><ele>205.0</ele><time>2026-04-04T09:25:00.335Z</time></trkpt><trkpt lat="45.6162535" lon="9.4331664"><ele>205.0</ele><time>2026-04-04T09:25:02.335Z</time></trkpt><trkpt lat="45.6162691" lon="9.4333057"><ele>205.0</ele><time>2026-04-04T09:25:04.335Z</time></trkpt><trkpt lat="45.6163037" lon="9.4334231"><ele>205.0</ele><time>2026-04-04T09:25:06.335Z</time></trkpt><trkpt lat="45.6163401" lon="9.4335336"><ele>205.0</ele><time>2026-04-04T09:25:08.335Z</time></trkpt><trkpt lat="45.6163706" lon="9.4336472"><ele>205.0</ele><time>2026-04-04T09:25:10.334Z</time></trkpt><trkpt lat="45.6164061" lon="9.4337243"><ele>205.0</ele><time>2026-04-04T09:25:13.335Z</time></trkpt><trkpt lat="45.6163755" lon="9.4336345"><ele>205.0</ele><time>2026-04-04T09:25:17.334Z</time></trkpt><trkpt lat="45.6163307" lon="9.4335666"><ele>205.0</ele><time>2026-04-04T09:25:19.335Z</time></trkpt><trkpt lat="45.6162953" lon="9.4334816"><ele>205.0</ele><time>2026-04-04T09:25:21.334Z</time></trkpt><trkpt lat="45.6162672" lon="9.4333757"><ele>205.0</ele><time>2026-04-04T09:25:23.335Z</time></trkpt><trkpt lat="45.6162449" lon="9.4332511"><ele>205.0</ele><time>2026-04-04T09:25:25.335Z</time></trkpt><trkpt lat="45.6162476" lon="9.4331153"><ele>205.0</ele><time>2026-04-04T09:25:27.335Z</time></trkpt><trkpt lat="45.6162353" lon="9.4329751"><ele>205.0</ele><time>2026-04-04T09:25:29.334Z</time></trkpt><trkpt lat="45.6162183" lon="9.4328386"><ele>205.0</ele><time>2026-04-04T09:25:31.335Z</time></trkpt><trkpt lat="45.616202" lon="9.4327227"><ele>205.0</ele><time>2026-04-04T09:25:33.335Z</time></trkpt><trkpt lat="45.6161937" lon="9.4325759"><ele>205.0</ele><time>2026-04-04T09:25:35.335Z</time></trkpt><trkpt lat="45.6161861" lon="9.4324103"><ele>205.0</ele><time>2026-04-04T09:25:37.335Z</time></trkpt><trkpt lat="45.616182" lon="9.4322639"><ele>205.0</ele><time>2026-04-04T09:25:39.334Z</time></trkpt><trkpt lat="45.6161715" lon="9.4321274"><ele>205.0</ele><time>2026-04-04T09:25:41.335Z</time></trkpt><trkpt lat="45.6161222" lon="9.4320551"><ele>205.0</ele><time>2026-04-04T09:25:43.335Z</time></trkpt><trkpt lat="45.6160504" lon="9.4320529"><ele>204.83333333333331</ele><time>2026-04-04T09:25:45.334Z</time></trkpt><trkpt lat="45.6160075" lon="9.4321607"><ele>204.66666666666666</ele><time>2026-04-04T09:25:48.335Z</time></trkpt><trkpt lat="45.6159958" lon="9.4322719"><ele>204.5</ele><time>2026-04-04T09:25:50.335Z</time></trkpt><trkpt lat="45.6159562" lon="9.4323983"><ele>204.33333333333331</ele><time>2026-04-04T09:25:52.335Z</time></trkpt><trkpt lat="45.6159469" lon="9.4324893"><ele>204.16666666666666</ele><time>2026-04-04T09:25:53.335Z</time></trkpt><trkpt lat="45.6159173" lon="9.4326361"><ele>204.0</ele><time>2026-04-04T09:25:55.335Z</time></trkpt><trkpt lat="45.6158874" lon="9.4327602"><ele>204.0</ele><time>2026-04-04T09:25:58.334Z</time></trkpt><trkpt lat="45.6157964" lon="9.4330115"><ele>204.0</ele><time>2026-04-04T09:26:06.326Z</time></trkpt><trkpt lat="45.6157747" lon="9.4331005"><ele>204.0</ele><time>2026-04-04T09:26:07.326Z</time></trkpt><trkpt lat="45.6157308" lon="9.433181"><ele>204.0</ele><time>2026-04-04T09:26:08.329Z</time></trkpt><trkpt lat="45.6156081" lon="9.4333158"><ele>204.0</ele><time>2026-04-04T09:26:09.334Z</time></trkpt><trkpt lat="45.6156329" lon="9.4334465"><ele>204.0</ele><time>2026-04-04T09:26:11.331Z</time></trkpt><trkpt lat="45.6155659" lon="9.4335256"><ele>204.0</ele><time>2026-04-04T09:26:14.331Z</time></trkpt><trkpt lat="45.6154901" lon="9.4334973"><ele>204.0</ele><time>2026-04-04T09:26:16.331Z</time></trkpt><trkpt lat="45.6154029" lon="9.4334493"><ele>204.0</ele><time>2026-04-04T09:26:18.331Z</time></trkpt><trkpt lat="45.6153044" lon="9.4334119"><ele>204.2</ele><time>2026-04-04T09:26:20.331Z</time></trkpt><trkpt lat="45.615206" lon="9.4333659"><ele>204.39999999999998</ele><time>2026-04-04T09:26:22.331Z</time></trkpt><trkpt lat="45.6151026" lon="9.4333125"><ele>204.6</ele><time>2026-04-04T09:26:24.331Z</time></trkpt><trkpt lat="45.6149937" lon="9.4332617"><ele>204.8</ele><time>2026-04-04T09:26:26.331Z</time></trkpt><trkpt lat="45.6148871" lon="9.4332036"><ele>205.0</ele><time>2026-04-04T09:26:28.331Z</time></trkpt><trkpt lat="45.6147781" lon="9.4331558"><ele>205.0</ele><time>2026-04-04T09:26:30.331Z</time></trkpt><trkpt lat="45.6147156" lon="9.4331197"><ele>205.0</ele><time>2026-04-04T09:26:31.33Z</time></trkpt><trkpt lat="45.6146016" lon="9.4330643"><ele>205.0</ele><time>2026-04-04T09:26:33.331Z</time></trkpt><trkpt lat="45.614493" lon="9.4330049"><ele>205.0</ele><time>2026-04-04T09:26:35.331Z</time></trkpt><trkpt lat="45.6143765" lon="9.4329417"><ele>205.0</ele><time>2026-04-04T09:26:37.331Z</time></trkpt><trkpt lat="45.6142641" lon="9.4328993"><ele>204.6</ele><time>2026-04-04T09:26:39.331Z</time></trkpt><trkpt lat="45.6141443" lon="9.432854"><ele>204.2</ele><time>2026-04-04T09:26:41.331Z</time></trkpt><trkpt lat="45.6140441" lon="9.4328067"><ele>203.8</ele><time>2026-04-04T09:26:43.331Z</time></trkpt><trkpt lat="45.6139466" lon="9.4328252"><ele>203.4</ele><time>2026-04-04T09:26:45.331Z</time></trkpt><trkpt lat="45.6138361" lon="9.4328813"><ele>203.0</ele><time>2026-04-04T09:26:47.331Z</time></trkpt><trkpt lat="45.6137254" lon="9.4328786"><ele>203.0</ele><time>2026-04-04T09:26:49.331Z</time></trkpt><trkpt lat="45.613655" lon="9.432857"><ele>203.0</ele><time>2026-04-04T09:26:50.331Z</time></trkpt><trkpt lat="45.6135426" lon="9.4327975"><ele>203.0</ele><time>2026-04-04T09:26:52.331Z</time></trkpt><trkpt lat="45.6134786" lon="9.4327707"><ele>203.0</ele><time>2026-04-04T09:26:53.331Z</time></trkpt><trkpt lat="45.6133718" lon="9.4327137"><ele>203.0</ele><time>2026-04-04T09:26:55.331Z</time></trkpt><trkpt lat="45.6132706" lon="9.4326579"><ele>203.0</ele><time>2026-04-04T09:26:57.331Z</time></trkpt><trkpt lat="45.6131598" lon="9.4326054"><ele>203.0</ele><time>2026-04-04T09:26:59.331Z</time></trkpt><trkpt lat="45.6130463" lon="9.4325507"><ele>203.0</ele><time>2026-04-04T09:27:01.331Z</time></trkpt><trkpt lat="45.6129273" lon="9.432506"><ele>203.0</ele><time>2026-04-04T09:27:03.331Z</time></trkpt><trkpt lat="45.6128173" lon="9.4324507"><ele>203.0</ele><time>2026-04-04T09:27:05.331Z</time></trkpt><trkpt lat="45.6127613" lon="9.4323453"><ele>203.0</ele><time>2026-04-04T09:27:07.331Z</time></trkpt><trkpt lat="45.6127679" lon="9.4321928"><ele>203.0</ele><time>2026-04-04T09:27:09.33Z</time></trkpt><trkpt lat="45.6127884" lon="9.432042"><ele>203.0</ele><time>2026-04-04T09:27:11.331Z</time></trkpt><trkpt lat="45.6128186" lon="9.4318832"><ele>203.0</ele><time>2026-04-04T09:27:13.331Z</time></trkpt><trkpt lat="45.6128444" lon="9.431715"><ele>203.0</ele><time>2026-04-04T09:27:15.331Z</time></trkpt><trkpt lat="45.6128651" lon="9.4315424"><ele>203.0</ele><time>2026-04-04T09:27:17.331Z</time></trkpt><trkpt lat="45.6128773" lon="9.4314518"><ele>203.0</ele><time>2026-04-04T09:27:18.33Z</time></trkpt><trkpt lat="45.612899" lon="9.4312717"><ele>203.0</ele><time>2026-04-04T09:27:20.331Z</time></trkpt><trkpt lat="45.6129111" lon="9.431176"><ele>203.0</ele><time>2026-04-04T09:27:21.33Z</time></trkpt><trkpt lat="45.6129174" lon="9.4310778"><ele>203.0</ele><time>2026-04-04T09:27:22.331Z</time></trkpt><trkpt lat="45.6129283" lon="9.4309879"><ele>203.0</ele><time>2026-04-04T09:27:23.331Z</time></trkpt><trkpt lat="45.6129439" lon="9.4308182"><ele>203.0</ele><time>2026-04-04T09:27:25.331Z</time></trkpt><trkpt lat="45.6129619" lon="9.430643"><ele>203.0</ele><time>2026-04-04T09:27:27.331Z</time></trkpt><trkpt lat="45.612973" lon="9.430478"><ele>203.0</ele><time>2026-04-04T09:27:29.331Z</time></trkpt><trkpt lat="45.612983" lon="9.430302"><ele>202.83333333333334</ele><time>2026-04-04T09:27:31.331Z</time></trkpt><trkpt lat="45.6129839" lon="9.4302103"><ele>202.66666666666669</ele><time>2026-04-04T09:27:32.331Z</time></trkpt><trkpt lat="45.6129914" lon="9.4300609"><ele>202.5</ele><time>2026-04-04T09:27:34.331Z</time></trkpt><trkpt lat="45.6129968" lon="9.4299603"><ele>202.33333333333331</ele><time>2026-04-04T09:27:35.331Z</time></trkpt><trkpt lat="45.612988" lon="9.4298651"><ele>202.16666666666666</ele><time>2026-04-04T09:27:36.33Z</time></trkpt><trkpt lat="45.6129486" lon="9.429707"><ele>202.0</ele><time>2026-04-04T09:27:38.331Z</time></trkpt><trkpt lat="45.6128643" lon="9.4295865"><ele>202.0</ele><time>2026-04-04T09:27:40.331Z</time></trkpt><trkpt lat="45.612783" lon="9.429458"><ele>202.0</ele><time>2026-04-04T09:27:42.331Z</time></trkpt><trkpt lat="45.6127511" lon="9.4293746"><ele>202.0</ele><time>2026-04-04T09:27:43.331Z</time></trkpt><trkpt lat="45.6127387" lon="9.4292086"><ele>202.0</ele><time>2026-04-04T09:27:45.33Z</time></trkpt><trkpt lat="45.6127731" lon="9.4290466"><ele>202.0</ele><time>2026-04-04T09:27:47.331Z</time></trkpt><trkpt lat="45.6127973" lon="9.4288703"><ele>201.8</ele><time>2026-04-04T09:27:49.33Z</time></trkpt><trkpt lat="45.6128127" lon="9.4287824"><ele>201.6</ele><time>2026-04-04T09:27:50.331Z</time></trkpt><trkpt lat="45.6128495" lon="9.4286063"><ele>201.4</ele><time>2026-04-04T09:27:52.33Z</time></trkpt><trkpt lat="45.6128849" lon="9.4284364"><ele>201.20000000000002</ele><time>2026-04-04T09:27:54.331Z</time></trkpt><trkpt lat="45.612921" lon="9.4282635"><ele>201.0</ele><time>2026-04-04T09:27:56.331Z</time></trkpt><trkpt lat="45.6129367" lon="9.4281753"><ele>201.0</ele><time>2026-04-04T09:27:57.331Z</time></trkpt><trkpt lat="45.6129522" lon="9.4280849"><ele>201.0</ele><time>2026-04-04T09:27:58.331Z</time></trkpt><trkpt lat="45.6129667" lon="9.4279961"><ele>201.0</ele><time>2026-04-04T09:27:59.331Z</time></trkpt><trkpt lat="45.6129821" lon="9.427906"><ele>201.0</ele><time>2026-04-04T09:28:00.331Z</time></trkpt><trkpt lat="45.612998" lon="9.4278177"><ele>201.0</ele><time>2026-04-04T09:28:01.331Z</time></trkpt><trkpt lat="45.613031" lon="9.427647"><ele>201.0</ele><time>2026-04-04T09:28:03.331Z</time></trkpt><trkpt lat="45.6130718" lon="9.4274747"><ele>201.20000000000002</ele><time>2026-04-04T09:28:05.33Z</time></trkpt><trkpt lat="45.6130984" lon="9.427299"><ele>201.4</ele><time>2026-04-04T09:28:07.331Z</time></trkpt><trkpt lat="45.6131185" lon="9.4271178"><ele>201.6</ele><time>2026-04-04T09:28:09.331Z</time></trkpt><trkpt lat="45.6131156" lon="9.4269464"><ele>201.8</ele><time>2026-04-04T09:28:11.331Z</time></trkpt><trkpt lat="45.6131084" lon="9.4268529"><ele>202.0</ele><time>2026-04-04T09:28:12.33Z</time></trkpt><trkpt lat="45.613044" lon="9.4267276"><ele>202.0</ele><time>2026-04-04T09:28:14.331Z</time></trkpt><trkpt lat="45.6129373" lon="9.4266779"><ele>202.0</ele><time>2026-04-04T09:28:16.331Z</time></trkpt><trkpt lat="45.6128243" lon="9.4266666"><ele>202.0</ele><time>2026-04-04T09:28:18.331Z</time></trkpt><trkpt lat="45.6127073" lon="9.4266443"><ele>202.0</ele><time>2026-04-04T09:28:20.331Z</time></trkpt><trkpt lat="45.6125913" lon="9.4265878"><ele>202.0</ele><time>2026-04-04T09:28:22.33Z</time></trkpt><trkpt lat="45.6124817" lon="9.4265014"><ele>202.0</ele><time>2026-04-04T09:28:24.331Z</time></trkpt><trkpt lat="45.6124237" lon="9.4264437"><ele>202.0</ele><time>2026-04-04T09:28:25.331Z</time></trkpt><trkpt lat="45.6122982" lon="9.4263686"><ele>202.0</ele><time>2026-04-04T09:28:27.331Z</time></trkpt><trkpt lat="45.6122332" lon="9.4263395"><ele>202.0</ele><time>2026-04-04T09:28:28.33Z</time></trkpt><trkpt lat="45.6121706" lon="9.4262953"><ele>201.42857142857142</ele><time>2026-04-04T09:28:29.331Z</time></trkpt><trkpt lat="45.6120618" lon="9.426205"><ele>200.85714285714283</ele><time>2026-04-04T09:28:31.331Z</time></trkpt><trkpt lat="45.6120068" lon="9.426153"><ele>200.28571428571428</ele><time>2026-04-04T09:28:32.331Z</time></trkpt><trkpt lat="45.6119455" lon="9.4261298"><ele>199.71428571428572</ele><time>2026-04-04T09:28:33.331Z</time></trkpt><trkpt lat="45.611882" lon="9.426116"><ele>199.14285714285714</ele><time>2026-04-04T09:28:34.331Z</time></trkpt><trkpt lat="45.6118156" lon="9.4261058"><ele>198.57142857142858</ele><time>2026-04-04T09:28:35.331Z</time></trkpt><trkpt lat="45.6117525" lon="9.4261018"><ele>198.0</ele><time>2026-04-04T09:28:36.33Z</time></trkpt><trkpt lat="45.6116806" lon="9.426087"><ele>198.0</ele><time>2026-04-04T09:28:37.331Z</time></trkpt><trkpt lat="45.6115578" lon="9.4260923"><ele>198.0</ele><time>2026-04-04T09:28:39.33Z</time></trkpt><trkpt lat="45.6114915" lon="9.4260814"><ele>198.0</ele><time>2026-04-04T09:28:40.331Z</time></trkpt><trkpt lat="45.6113709" lon="9.4260521"><ele>198.0</ele><time>2026-04-04T09:28:42.331Z</time></trkpt><trkpt lat="45.6112587" lon="9.426032"><ele>198.0</ele><time>2026-04-04T09:28:44.331Z</time></trkpt><trkpt lat="45.6111607" lon="9.426002"><ele>198.66666666666666</ele><time>2026-04-04T09:28:46.33Z</time></trkpt><trkpt lat="45.611047" lon="9.4259667"><ele>199.33333333333331</ele><time>2026-04-04T09:28:48.331Z</time></trkpt><trkpt lat="45.6109583" lon="9.4259106"><ele>200.0</ele><time>2026-04-04T09:28:50.331Z</time></trkpt><trkpt lat="45.6108948" lon="9.4258881"><ele>200.66666666666666</ele><time>2026-04-04T09:28:54.331Z</time></trkpt><trkpt lat="45.6108313" lon="9.4258239"><ele>201.33333333333331</ele><time>2026-04-04T09:28:57.331Z</time></trkpt><trkpt lat="45.6107863" lon="9.4257374"><ele>202.0</ele><time>2026-04-04T09:28:59.33Z</time></trkpt><trkpt lat="45.6107563" lon="9.4256518"><ele>201.99999999999997</ele><time>2026-04-04T09:29:01.331Z</time></trkpt><trkpt lat="45.6107058" lon="9.4255948"><ele>202.0</ele><time>2026-04-04T09:29:03.331Z</time></trkpt><trkpt lat="45.6106427" lon="9.4255884"><ele>202.0</ele><time>2026-04-04T09:29:05.331Z</time></trkpt><trkpt lat="45.6105668" lon="9.4255699"><ele>202.0</ele><time>2026-04-04T09:29:07.331Z</time></trkpt><trkpt lat="45.6104689" lon="9.4255038"><ele>201.99999999999997</ele><time>2026-04-04T09:29:09.33Z</time></trkpt><trkpt lat="45.6103705" lon="9.4254685"><ele>202.0</ele><time>2026-04-04T09:29:11.331Z</time></trkpt><trkpt lat="45.6102732" lon="9.4254387"><ele>201.0</ele><time>2026-04-04T09:29:13.331Z</time></trkpt><trkpt lat="45.6102101" lon="9.4254037"><ele>200.0</ele><time>2026-04-04T09:29:14.331Z</time></trkpt><trkpt lat="45.6101151" lon="9.4253569"><ele>199.0</ele><time>2026-04-04T09:29:16.33Z</time></trkpt><trkpt lat="45.6100275" lon="9.4253007"><ele>198.0</ele><time>2026-04-04T09:29:18.331Z</time></trkpt><trkpt lat="45.6099316" lon="9.4252624"><ele>197.0</ele><time>2026-04-04T09:29:20.331Z</time></trkpt><trkpt lat="45.6098344" lon="9.4252235"><ele>197.00000000000003</ele><time>2026-04-04T09:29:22.331Z</time></trkpt><trkpt lat="45.6097508" lon="9.4252273"><ele>197.0</ele><time>2026-04-04T09:29:24.331Z</time></trkpt><trkpt lat="45.6096689" lon="9.4252733"><ele>197.0</ele><time>2026-04-04T09:29:26.331Z</time></trkpt><trkpt lat="45.6096185" lon="9.4253641"><ele>197.0</ele><time>2026-04-04T09:29:28.331Z</time></trkpt><trkpt lat="45.6095703" lon="9.425459"><ele>197.00000000000003</ele><time>2026-04-04T09:29:30.331Z</time></trkpt><trkpt lat="45.6095374" lon="9.4255747"><ele>197.0</ele><time>2026-04-04T09:29:32.331Z</time></trkpt><trkpt lat="45.6095203" lon="9.4256917"><ele>197.83333333333334</ele><time>2026-04-04T09:29:34.331Z</time></trkpt><trkpt lat="45.6095109" lon="9.425806"><ele>198.66666666666669</ele><time>2026-04-04T09:29:36.331Z</time></trkpt><trkpt lat="45.6095238" lon="9.4259208"><ele>199.5</ele><time>2026-04-04T09:29:38.331Z</time></trkpt><trkpt lat="45.609593" lon="9.4259666"><ele>200.33333333333331</ele><time>2026-04-04T09:29:40.33Z</time></trkpt><trkpt lat="45.6096555" lon="9.4259794"><ele>201.16666666666666</ele><time>2026-04-04T09:29:42.331Z</time></trkpt><trkpt lat="45.6097055" lon="9.426087"><ele>202.0</ele><time>2026-04-04T09:29:57.331Z</time></trkpt><trkpt lat="45.6097182" lon="9.42619"><ele>201.99999999999997</ele><time>2026-04-04T09:29:59.331Z</time></trkpt><trkpt lat="45.6097141" lon="9.4263067"><ele>202.0</ele><time>2026-04-04T09:30:01.33Z</time></trkpt><trkpt lat="45.6097044" lon="9.4264311"><ele>202.0</ele><time>2026-04-04T09:30:03.33Z</time></trkpt><trkpt lat="45.6097326" lon="9.4265455"><ele>202.0</ele><time>2026-04-04T09:30:05.331Z</time></trkpt><trkpt lat="45.6098053" lon="9.426579"><ele>201.99999999999997</ele><time>2026-04-04T09:30:07.331Z</time></trkpt><trkpt lat="45.6098907" lon="9.4266057"><ele>202.0</ele><time>2026-04-04T09:30:09.33Z</time></trkpt><trkpt lat="45.6099245" lon="9.4267131"><ele>202.0</ele><time>2026-04-04T09:30:13.331Z</time></trkpt><trkpt lat="45.6099143" lon="9.4268033"><ele>202.0</ele><time>2026-04-04T09:30:15.331Z</time></trkpt><trkpt lat="45.6099056" lon="9.4269286"><ele>202.0</ele><time>2026-04-04T09:30:17.331Z</time></trkpt><trkpt lat="45.6098958" lon="9.4270411"><ele>202.0</ele><time>2026-04-04T09:30:19.331Z</time></trkpt><trkpt lat="45.609913" lon="9.4271311"><ele>202.0</ele><time>2026-04-04T09:30:21.331Z</time></trkpt><trkpt lat="45.6099822" lon="9.4271373"><ele>202.0</ele><time>2026-04-04T09:30:24.331Z</time></trkpt><trkpt lat="45.6100272" lon="9.4270696"><ele>202.0</ele><time>2026-04-04T09:31:33.33Z</time></trkpt><trkpt lat="45.6100283" lon="9.4269669"><ele>201.99999999999997</ele><time>2026-04-04T09:31:38.331Z</time></trkpt><trkpt lat="45.610014" lon="9.4270719"><ele>202.0</ele><time>2026-04-04T09:31:44.331Z</time></trkpt><trkpt lat="45.609983" lon="9.426936"><ele>202.0</ele><time>2026-04-04T09:34:51.327Z</time></trkpt><trkpt lat="45.6099827" lon="9.4268292"><ele>202.0</ele><time>2026-04-04T09:34:53.327Z</time></trkpt><trkpt lat="45.60998" lon="9.4267157"><ele>201.99999999999997</ele><time>2026-04-04T09:34:55.327Z</time></trkpt><trkpt lat="45.609919" lon="9.4266835"><ele>202.0</ele><time>2026-04-04T09:34:57.327Z</time></trkpt><trkpt lat="45.6098494" lon="9.4266789"><ele>201.99999999999997</ele><time>2026-04-04T09:34:59.327Z</time></trkpt><trkpt lat="45.6097846" lon="9.4266439"><ele>202.0</ele><time>2026-04-04T09:35:01.327Z</time></trkpt><trkpt lat="45.6097456" lon="9.4265385"><ele>202.0</ele><time>2026-04-04T09:35:03.327Z</time></trkpt><trkpt lat="45.6097351" lon="9.4264112"><ele>202.0</ele><time>2026-04-04T09:35:05.327Z</time></trkpt><trkpt lat="45.6097282" lon="9.4262831"><ele>201.99999999999997</ele><time>2026-04-04T09:35:07.327Z</time></trkpt><trkpt lat="45.6097126" lon="9.42616"><ele>202.0</ele><time>2026-04-04T09:35:09.326Z</time></trkpt><trkpt lat="45.609672" lon="9.4260798"><ele>202.0</ele><time>2026-04-04T09:35:11.327Z</time></trkpt><trkpt lat="45.6095163" lon="9.4260622"><ele>202.0</ele><time>2026-04-04T09:35:24.327Z</time></trkpt><trkpt lat="45.6094358" lon="9.426069"><ele>202.0</ele><time>2026-04-04T09:35:26.326Z</time></trkpt><trkpt lat="45.6093523" lon="9.4260713"><ele>202.0</ele><time>2026-04-04T09:35:28.327Z</time></trkpt><trkpt lat="45.6092621" lon="9.4260401"><ele>202.0</ele><time>2026-04-04T09:35:30.327Z</time></trkpt><trkpt lat="45.6091825" lon="9.4260261"><ele>201.39999999999998</ele><time>2026-04-04T09:35:32.327Z</time></trkpt><trkpt lat="45.6090893" lon="9.4260178"><ele>200.79999999999998</ele><time>2026-04-04T09:35:34.326Z</time></trkpt><trkpt lat="45.6089846" lon="9.4260156"><ele>200.2</ele><time>2026-04-04T09:35:36.327Z</time></trkpt><trkpt lat="45.6088816" lon="9.4260275"><ele>199.6</ele><time>2026-04-04T09:35:38.327Z</time></trkpt><trkpt lat="45.6087747" lon="9.4260231"><ele>199.0</ele><time>2026-04-04T09:35:40.327Z</time></trkpt><trkpt lat="45.6086626" lon="9.4260163"><ele>198.39999999999998</ele><time>2026-04-04T09:35:42.327Z</time></trkpt><trkpt lat="45.6085558" lon="9.4260151"><ele>197.8</ele><time>2026-04-04T09:35:44.327Z</time></trkpt><trkpt lat="45.6084515" lon="9.4260115"><ele>197.2</ele><time>2026-04-04T09:35:46.326Z</time></trkpt><trkpt lat="45.6083322" lon="9.4260068"><ele>196.60000000000002</ele><time>2026-04-04T09:35:48.327Z</time></trkpt><trkpt lat="45.6082263" lon="9.425999"><ele>196.0</ele><time>2026-04-04T09:35:50.327Z</time></trkpt><trkpt lat="45.6081237" lon="9.4259891"><ele>196.0</ele><time>2026-04-04T09:35:52.327Z</time></trkpt><trkpt lat="45.6080175" lon="9.4259935"><ele>196.0</ele><time>2026-04-04T09:35:54.327Z</time></trkpt><trkpt lat="45.6078901" lon="9.4259918"><ele>196.0</ele><time>2026-04-04T09:35:56.327Z</time></trkpt><trkpt lat="45.6077813" lon="9.4259869"><ele>196.0</ele><time>2026-04-04T09:35:58.327Z</time></trkpt><trkpt lat="45.6076743" lon="9.4259742"><ele>195.83333333333331</ele><time>2026-04-04T09:36:00.327Z</time></trkpt><trkpt lat="45.6075765" lon="9.4259716"><ele>195.66666666666666</ele><time>2026-04-04T09:36:02.327Z</time></trkpt><trkpt lat="45.6075053" lon="9.4260158"><ele>195.5</ele><time>2026-04-04T09:36:04.327Z</time></trkpt><trkpt lat="45.6074707" lon="9.4261221"><ele>195.33333333333331</ele><time>2026-04-04T09:36:06.327Z</time></trkpt><trkpt lat="45.6074583" lon="9.4262476"><ele>195.16666666666666</ele><time>2026-04-04T09:36:08.327Z</time></trkpt><trkpt lat="45.6074336" lon="9.4263845"><ele>195.0</ele><time>2026-04-04T09:36:10.327Z</time></trkpt><trkpt lat="45.6074251" lon="9.4265277"><ele>195.0</ele><time>2026-04-04T09:36:12.327Z</time></trkpt><trkpt lat="45.6074139" lon="9.4266788"><ele>195.0</ele><time>2026-04-04T09:36:14.327Z</time></trkpt><trkpt lat="45.6074103" lon="9.4268214"><ele>195.0</ele><time>2026-04-04T09:36:16.327Z</time></trkpt><trkpt lat="45.607403" lon="9.4269726"><ele>195.0</ele><time>2026-04-04T09:36:18.327Z</time></trkpt><trkpt lat="45.6073979" lon="9.4271171"><ele>195.0</ele><time>2026-04-04T09:36:20.326Z</time></trkpt><trkpt lat="45.6073842" lon="9.4272607"><ele>195.0</ele><time>2026-04-04T09:36:22.327Z</time></trkpt><trkpt lat="45.6073609" lon="9.4274157"><ele>195.0</ele><time>2026-04-04T09:36:24.327Z</time></trkpt><trkpt lat="45.6073415" lon="9.4275502"><ele>195.0</ele><time>2026-04-04T09:36:26.326Z</time></trkpt><trkpt lat="45.6073373" lon="9.4276958"><ele>195.0</ele><time>2026-04-04T09:36:28.327Z</time></trkpt><trkpt lat="45.6073302" lon="9.4278282"><ele>195.0</ele><time>2026-04-04T09:36:30.327Z</time></trkpt><trkpt lat="45.6073085" lon="9.4279705"><ele>195.0</ele><time>2026-04-04T09:36:32.327Z</time></trkpt><trkpt lat="45.6072934" lon="9.4281159"><ele>195.0</ele><time>2026-04-04T09:36:34.327Z</time></trkpt><trkpt lat="45.6072907" lon="9.4282805"><ele>195.0</ele><time>2026-04-04T09:36:36.326Z</time></trkpt><trkpt lat="45.6072879" lon="9.4284394"><ele>195.0</ele><time>2026-04-04T09:36:38.327Z</time></trkpt><trkpt lat="45.6072778" lon="9.4285899"><ele>195.0</ele><time>2026-04-04T09:36:40.326Z</time></trkpt><trkpt lat="45.6072863" lon="9.4287485"><ele>195.0</ele><time>2026-04-04T09:36:42.327Z</time></trkpt><trkpt lat="45.6072908" lon="9.4288845"><ele>195.0</ele><time>2026-04-04T09:36:44.327Z</time></trkpt><trkpt lat="45.6072923" lon="9.4290322"><ele>195.0</ele><time>2026-04-04T09:36:46.327Z</time></trkpt><trkpt lat="45.6073004" lon="9.4291874"><ele>195.0</ele><time>2026-04-04T09:36:48.327Z</time></trkpt><trkpt lat="45.6072986" lon="9.4293355"><ele>195.0</ele><time>2026-04-04T09:36:50.327Z</time></trkpt><trkpt lat="45.6072979" lon="9.4295044"><ele>195.2</ele><time>2026-04-04T09:36:52.326Z</time></trkpt><trkpt lat="45.6072849" lon="9.4296467"><ele>195.4</ele><time>2026-04-04T09:36:54.326Z</time></trkpt><trkpt lat="45.6072683" lon="9.4297881"><ele>195.60000000000002</ele><time>2026-04-04T09:36:56.327Z</time></trkpt><trkpt lat="45.6072295" lon="9.429905"><ele>195.8</ele><time>2026-04-04T09:36:58.327Z</time></trkpt><trkpt lat="45.6071993" lon="9.4299851"><ele>196.0</ele><time>2026-04-04T09:36:59.327Z</time></trkpt><trkpt lat="45.6071556" lon="9.4301264"><ele>196.0</ele><time>2026-04-04T09:37:01.327Z</time></trkpt><trkpt lat="45.607092" lon="9.4301592"><ele>196.0</ele><time>2026-04-04T09:37:03.327Z</time></trkpt><trkpt lat="45.6070222" lon="9.430298"><ele>196.0</ele><time>2026-04-04T09:37:05.327Z</time></trkpt><trkpt lat="45.6070318" lon="9.430417"><ele>196.0</ele><time>2026-04-04T09:37:06.327Z</time></trkpt><trkpt lat="45.6070334" lon="9.4306154"><ele>196.0</ele><time>2026-04-04T09:37:08.327Z</time></trkpt><trkpt lat="45.6070095" lon="9.4307001"><ele>196.20000000000002</ele><time>2026-04-04T09:37:09.327Z</time></trkpt><trkpt lat="45.6069939" lon="9.4308673"><ele>196.4</ele><time>2026-04-04T09:37:11.326Z</time></trkpt><trkpt lat="45.606967" lon="9.4309963"><ele>196.6</ele><time>2026-04-04T09:37:13.327Z</time></trkpt><trkpt lat="45.6069906" lon="9.4311347"><ele>196.8</ele><time>2026-04-04T09:37:15.326Z</time></trkpt><trkpt lat="45.6070949" lon="9.4312198"><ele>197.0</ele><time>2026-04-04T09:37:17.327Z</time></trkpt><trkpt lat="45.6071875" lon="9.4312758"><ele>197.0</ele><time>2026-04-04T09:37:19.327Z</time></trkpt><trkpt lat="45.6072763" lon="9.4313546"><ele>197.0</ele><time>2026-04-04T09:37:21.327Z</time></trkpt><trkpt lat="45.6073275" lon="9.4314866"><ele>197.0</ele><time>2026-04-04T09:37:23.327Z</time></trkpt><trkpt lat="45.6073216" lon="9.431588"><ele>197.0</ele><time>2026-04-04T09:37:25.327Z</time></trkpt><trkpt lat="45.6073408" lon="9.4317041"><ele>197.0</ele><time>2026-04-04T09:37:27.327Z</time></trkpt><trkpt lat="45.6074264" lon="9.4317965"><ele>197.0</ele><time>2026-04-04T09:37:29.327Z</time></trkpt><trkpt lat="45.607484" lon="9.4318424"><ele>197.0</ele><time>2026-04-04T09:37:30.327Z</time></trkpt><trkpt lat="45.6075475" lon="9.4318833"><ele>197.0</ele><time>2026-04-04T09:37:31.327Z</time></trkpt><trkpt lat="45.6076646" lon="9.4319102"><ele>197.0</ele><time>2026-04-04T09:37:33.327Z</time></trkpt><trkpt lat="45.607775" lon="9.431965"><ele>197.0</ele><time>2026-04-04T09:37:35.327Z</time></trkpt><trkpt lat="45.6078868" lon="9.4320004"><ele>197.2</ele><time>2026-04-04T09:37:37.327Z</time></trkpt><trkpt lat="45.6079928" lon="9.431992"><ele>197.39999999999998</ele><time>2026-04-04T09:37:39.327Z</time></trkpt><trkpt lat="45.6080996" lon="9.4319435"><ele>197.60000000000002</ele><time>2026-04-04T09:37:41.326Z</time></trkpt><trkpt lat="45.6081979" lon="9.4318854"><ele>197.8</ele><time>2026-04-04T09:37:43.327Z</time></trkpt><trkpt lat="45.6083081" lon="9.4318381"><ele>198.0</ele><time>2026-04-04T09:37:45.327Z</time></trkpt><trkpt lat="45.608413" lon="9.4318198"><ele>198.0</ele><time>2026-04-04T09:37:47.327Z</time></trkpt><trkpt lat="45.6085243" lon="9.4318171"><ele>198.0</ele><time>2026-04-04T09:37:49.327Z</time></trkpt><trkpt lat="45.6086212" lon="9.4318454"><ele>198.0</ele><time>2026-04-04T09:37:51.326Z</time></trkpt><trkpt lat="45.6087153" lon="9.4318746"><ele>198.0</ele><time>2026-04-04T09:37:53.327Z</time></trkpt><trkpt lat="45.6088249" lon="9.431902"><ele>198.0</ele><time>2026-04-04T09:37:55.326Z</time></trkpt><trkpt lat="45.608931" lon="9.4319405"><ele>197.60000000000002</ele><time>2026-04-04T09:37:57.326Z</time></trkpt><trkpt lat="45.6090399" lon="9.432005"><ele>197.20000000000002</ele><time>2026-04-04T09:37:59.327Z</time></trkpt><trkpt lat="45.609145" lon="9.4320634"><ele>196.8</ele><time>2026-04-04T09:38:01.326Z</time></trkpt><trkpt lat="45.6092642" lon="9.4321111"><ele>196.4</ele><time>2026-04-04T09:38:03.326Z</time></trkpt><trkpt lat="45.6093261" lon="9.4321394"><ele>196.0</ele><time>2026-04-04T09:38:04.327Z</time></trkpt><trkpt lat="45.6094391" lon="9.4321889"><ele>195.99999999999997</ele><time>2026-04-04T09:38:06.326Z</time></trkpt><trkpt lat="45.609558" lon="9.4322378"><ele>196.0</ele><time>2026-04-04T09:38:08.327Z</time></trkpt><trkpt lat="45.6096243" lon="9.4322675"><ele>196.0</ele><time>2026-04-04T09:38:09.326Z</time></trkpt><trkpt lat="45.6096873" lon="9.4322993"><ele>196.0</ele><time>2026-04-04T09:38:10.326Z</time></trkpt><trkpt lat="45.6097527" lon="9.4323214"><ele>195.99999999999997</ele><time>2026-04-04T09:38:11.327Z</time></trkpt><trkpt lat="45.6098729" lon="9.4323314"><ele>196.0</ele><time>2026-04-04T09:38:13.327Z</time></trkpt><trkpt lat="45.6099897" lon="9.4322854"><ele>196.0</ele><time>2026-04-04T09:38:15.327Z</time></trkpt><trkpt lat="45.6101035" lon="9.4322661"><ele>196.0</ele><time>2026-04-04T09:38:17.327Z</time></trkpt><trkpt lat="45.6102189" lon="9.4322836"><ele>196.0</ele><time>2026-04-04T09:38:19.327Z</time></trkpt><trkpt lat="45.6103206" lon="9.4322432"><ele>196.0</ele><time>2026-04-04T09:38:21.327Z</time></trkpt><trkpt lat="45.6104187" lon="9.4321619"><ele>196.60000000000002</ele><time>2026-04-04T09:38:23.327Z</time></trkpt><trkpt lat="45.6105107" lon="9.4320658"><ele>197.2</ele><time>2026-04-04T09:38:25.327Z</time></trkpt><trkpt lat="45.6105728" lon="9.4320225"><ele>197.8</ele><time>2026-04-04T09:38:26.327Z</time></trkpt><trkpt lat="45.6106778" lon="9.4319804"><ele>198.39999999999998</ele><time>2026-04-04T09:38:28.327Z</time></trkpt><trkpt lat="45.6107879" lon="9.431973"><ele>199.0</ele><time>2026-04-04T09:38:30.326Z</time></trkpt><trkpt lat="45.6109073" lon="9.4319904"><ele>199.0</ele><time>2026-04-04T09:38:32.327Z</time></trkpt><trkpt lat="45.6110222" lon="9.4320015"><ele>199.0</ele><time>2026-04-04T09:38:34.326Z</time></trkpt><trkpt lat="45.611128" lon="9.4319918"><ele>199.0</ele><time>2026-04-04T09:38:36.327Z</time></trkpt><trkpt lat="45.6112388" lon="9.4319833"><ele>199.0</ele><time>2026-04-04T09:38:38.327Z</time></trkpt><trkpt lat="45.6113562" lon="9.43198"><ele>199.6</ele><time>2026-04-04T09:38:40.327Z</time></trkpt><trkpt lat="45.6114642" lon="9.4319914"><ele>200.2</ele><time>2026-04-04T09:38:42.327Z</time></trkpt><trkpt lat="45.6115657" lon="9.4320194"><ele>200.79999999999998</ele><time>2026-04-04T09:38:44.327Z</time></trkpt><trkpt lat="45.6116573" lon="9.4320871"><ele>201.39999999999998</ele><time>2026-04-04T09:38:46.327Z</time></trkpt><trkpt lat="45.6117392" lon="9.4322064"><ele>202.0</ele><time>2026-04-04T09:38:48.326Z</time></trkpt><trkpt lat="45.611848" lon="9.4322797"><ele>202.0</ele><time>2026-04-04T09:38:50.326Z</time></trkpt><trkpt lat="45.6119101" lon="9.432298"><ele>202.0</ele><time>2026-04-04T09:38:51.327Z</time></trkpt><trkpt lat="45.6119729" lon="9.4323086"><ele>202.0</ele><time>2026-04-04T09:38:52.327Z</time></trkpt><trkpt lat="45.6120941" lon="9.4323323"><ele>202.0</ele><time>2026-04-04T09:38:54.327Z</time></trkpt><trkpt lat="45.612216" lon="9.4323405"><ele>202.0</ele><time>2026-04-04T09:38:56.326Z</time></trkpt><trkpt lat="45.6123384" lon="9.4323593"><ele>202.25</ele><time>2026-04-04T09:38:58.327Z</time></trkpt><trkpt lat="45.6124623" lon="9.432383"><ele>202.5</ele><time>2026-04-04T09:39:00.327Z</time></trkpt><trkpt lat="45.6125794" lon="9.432395"><ele>202.75</ele><time>2026-04-04T09:39:02.327Z</time></trkpt><trkpt lat="45.6126959" lon="9.4324144"><ele>203.0</ele><time>2026-04-04T09:39:04.327Z</time></trkpt><trkpt lat="45.612814" lon="9.4324525"><ele>203.0</ele><time>2026-04-04T09:39:06.327Z</time></trkpt><trkpt lat="45.6129288" lon="9.4325103"><ele>203.0</ele><time>2026-04-04T09:39:08.327Z</time></trkpt><trkpt lat="45.613035" lon="9.4325888"><ele>203.0</ele><time>2026-04-04T09:39:10.327Z</time></trkpt><trkpt lat="45.6131377" lon="9.4326467"><ele>203.0</ele><time>2026-04-04T09:39:12.326Z</time></trkpt><trkpt lat="45.6132478" lon="9.4326887"><ele>203.0</ele><time>2026-04-04T09:39:14.327Z</time></trkpt><trkpt lat="45.6133604" lon="9.4327371"><ele>203.0</ele><time>2026-04-04T09:39:16.327Z</time></trkpt><trkpt lat="45.613476" lon="9.4328022"><ele>203.0</ele><time>2026-04-04T09:39:18.327Z</time></trkpt><trkpt lat="45.6135925" lon="9.4328577"><ele>203.0</ele><time>2026-04-04T09:39:20.327Z</time></trkpt><trkpt lat="45.6136547" lon="9.4328744"><ele>203.0</ele><time>2026-04-04T09:39:21.327Z</time></trkpt><trkpt lat="45.6137757" lon="9.4328667"><ele>203.0</ele><time>2026-04-04T09:39:23.326Z</time></trkpt><trkpt lat="45.6138697" lon="9.4327931"><ele>203.0</ele><time>2026-04-04T09:39:25.327Z</time></trkpt><trkpt lat="45.6139834" lon="9.4327988"><ele>203.0</ele><time>2026-04-04T09:39:27.327Z</time></trkpt><trkpt lat="45.6140925" lon="9.4328456"><ele>203.0</ele><time>2026-04-04T09:39:29.327Z</time></trkpt><trkpt lat="45.614199" lon="9.4329014"><ele>203.0</ele><time>2026-04-04T09:39:31.327Z</time></trkpt><trkpt lat="45.6143126" lon="9.4329641"><ele>203.25</ele><time>2026-04-04T09:39:33.327Z</time></trkpt><trkpt lat="45.6144288" lon="9.4330175"><ele>203.5</ele><time>2026-04-04T09:39:35.326Z</time></trkpt><trkpt lat="45.6145441" lon="9.4330634"><ele>203.75</ele><time>2026-04-04T09:39:37.327Z</time></trkpt><trkpt lat="45.6146558" lon="9.4331121"><ele>204.0</ele><time>2026-04-04T09:39:39.327Z</time></trkpt><trkpt lat="45.6147566" lon="9.4331741"><ele>204.25</ele><time>2026-04-04T09:39:41.327Z</time></trkpt><trkpt lat="45.6148631" lon="9.4332239"><ele>204.5</ele><time>2026-04-04T09:39:43.327Z</time></trkpt><trkpt lat="45.6149656" lon="9.4332788"><ele>204.75</ele><time>2026-04-04T09:39:45.327Z</time></trkpt><trkpt lat="45.6150713" lon="9.4333385"><ele>205.0</ele><time>2026-04-04T09:39:47.327Z</time></trkpt><trkpt lat="45.6151818" lon="9.4333814"><ele>205.0</ele><time>2026-04-04T09:39:49.327Z</time></trkpt><trkpt lat="45.615294" lon="9.4334279"><ele>205.0</ele><time>2026-04-04T09:39:51.326Z</time></trkpt><trkpt lat="45.6154046" lon="9.433477"><ele>205.0</ele><time>2026-04-04T09:39:53.327Z</time></trkpt><trkpt lat="45.6155095" lon="9.4335241"><ele>205.0</ele><time>2026-04-04T09:39:55.327Z</time></trkpt><trkpt lat="45.6155942" lon="9.4335235"><ele>205.0</ele><time>2026-04-04T09:39:57.327Z</time></trkpt><trkpt lat="45.6155874" lon="9.4333692"><ele>204.75</ele><time>2026-04-04T09:40:00.327Z</time></trkpt><trkpt lat="45.6155949" lon="9.4332176"><ele>204.5</ele><time>2026-04-04T09:40:02.327Z</time></trkpt><trkpt lat="45.6156008" lon="9.4330909"><ele>204.25</ele><time>2026-04-04T09:40:04.327Z</time></trkpt><trkpt lat="45.6156422" lon="9.4330123"><ele>204.0</ele><time>2026-04-04T09:40:07.326Z</time></trkpt><trkpt lat="45.6158704" lon="9.4325323"><ele>204.0</ele><time>2026-04-04T09:40:17.332Z</time></trkpt><trkpt lat="45.6158822" lon="9.4324059"><ele>204.0</ele><time>2026-04-04T09:40:19.333Z</time></trkpt><trkpt lat="45.6159182" lon="9.4322911"><ele>204.0</ele><time>2026-04-04T09:40:21.327Z</time></trkpt><trkpt lat="45.6159196" lon="9.4321476"><ele>204.0</ele><time>2026-04-04T09:40:23.324Z</time></trkpt><trkpt lat="45.6159526" lon="9.4320363"><ele>204.0</ele><time>2026-04-04T09:40:25.325Z</time></trkpt><trkpt lat="45.6160178" lon="9.4320165"><ele>204.0</ele><time>2026-04-04T09:40:27.324Z</time></trkpt><trkpt lat="45.6160833" lon="9.4320451"><ele>204.0</ele><time>2026-04-04T09:40:29.325Z</time></trkpt><trkpt lat="45.6161109" lon="9.4321476"><ele>204.0</ele><time>2026-04-04T09:40:31.325Z</time></trkpt><trkpt lat="45.6161253" lon="9.4322705"><ele>204.0</ele><time>2026-04-04T09:40:33.324Z</time></trkpt><trkpt lat="45.6161431" lon="9.4324127"><ele>204.0</ele><time>2026-04-04T09:40:35.325Z</time></trkpt><trkpt lat="45.616159" lon="9.4325511"><ele>204.0</ele><time>2026-04-04T09:40:37.324Z</time></trkpt><trkpt lat="45.6161751" lon="9.4326991"><ele>204.2</ele><time>2026-04-04T09:40:39.325Z</time></trkpt><trkpt lat="45.6161951" lon="9.4328469"><ele>204.39999999999998</ele><time>2026-04-04T09:40:41.325Z</time></trkpt><trkpt lat="45.6162119" lon="9.4329965"><ele>204.6</ele><time>2026-04-04T09:40:43.325Z</time></trkpt><trkpt lat="45.6162408" lon="9.4331591"><ele>204.8</ele><time>2026-04-04T09:40:45.324Z</time></trkpt><trkpt lat="45.6162687" lon="9.4333269"><ele>205.0</ele><time>2026-04-04T09:40:47.325Z</time></trkpt><trkpt lat="45.61629" lon="9.4334173"><ele>205.0</ele><time>2026-04-04T09:40:48.325Z</time></trkpt><trkpt lat="45.6163361" lon="9.4335794"><ele>205.0</ele><time>2026-04-04T09:40:50.325Z</time></trkpt><trkpt lat="45.6163912" lon="9.4337346"><ele>205.0</ele><time>2026-04-04T09:40:52.325Z</time></trkpt><trkpt lat="45.6164714" lon="9.4338539"><ele>205.0</ele><time>2026-04-04T09:40:54.325Z</time></trkpt><trkpt lat="45.6165709" lon="9.4339126"><ele>205.0</ele><time>2026-04-04T09:40:56.325Z</time></trkpt><trkpt lat="45.616682" lon="9.4338934"><ele>205.0</ele><time>2026-04-04T09:40:58.325Z</time></trkpt><trkpt lat="45.616772" lon="9.4337987"><ele>205.0</ele><time>2026-04-04T09:41:00.324Z</time></trkpt><trkpt lat="45.6168433" lon="9.4336746"><ele>205.0</ele><time>2026-04-04T09:41:02.324Z</time></trkpt><trkpt lat="45.6169273" lon="9.4335375"><ele>205.0</ele><time>2026-04-04T09:41:04.324Z</time></trkpt><trkpt lat="45.6169719" lon="9.4334662"><ele>205.0</ele><time>2026-04-04T09:41:05.325Z</time></trkpt><trkpt lat="45.6170596" lon="9.4333349"><ele>205.0</ele><time>2026-04-04T09:41:07.325Z</time></trkpt><trkpt lat="45.6171415" lon="9.4332044"><ele>205.0</ele><time>2026-04-04T09:41:09.325Z</time></trkpt><trkpt lat="45.6172305" lon="9.433072"><ele>205.0</ele><time>2026-04-04T09:41:11.325Z</time></trkpt><trkpt lat="45.6172758" lon="9.4330071"><ele>205.16666666666666</ele><time>2026-04-04T09:41:12.325Z</time></trkpt><trkpt lat="45.6173545" lon="9.4328711"><ele>205.33333333333331</ele><time>2026-04-04T09:41:14.325Z</time></trkpt><trkpt lat="45.6174011" lon="9.4328026"><ele>205.5</ele><time>2026-04-04T09:41:15.325Z</time></trkpt><trkpt lat="45.6174516" lon="9.4327309"><ele>205.66666666666669</ele><time>2026-04-04T09:41:16.325Z</time></trkpt><trkpt lat="45.6174946" lon="9.4326575"><ele>205.83333333333334</ele><time>2026-04-04T09:41:17.325Z</time></trkpt><trkpt lat="45.6175296" lon="9.4325783"><ele>206.0</ele><time>2026-04-04T09:41:18.325Z</time></trkpt><trkpt lat="45.617565" lon="9.4324948"><ele>206.0</ele><time>2026-04-04T09:41:19.324Z</time></trkpt><trkpt lat="45.6176022" lon="9.432416"><ele>206.0</ele><time>2026-04-04T09:41:20.325Z</time></trkpt><trkpt lat="45.6176588" lon="9.4322558"><ele>206.0</ele><time>2026-04-04T09:41:22.325Z</time></trkpt><trkpt lat="45.6177101" lon="9.4320908"><ele>206.0</ele><time>2026-04-04T09:41:24.325Z</time></trkpt><trkpt lat="45.6177728" lon="9.4319351"><ele>206.0</ele><time>2026-04-04T09:41:26.325Z</time></trkpt><trkpt lat="45.6177985" lon="9.4318469"><ele>206.14285714285714</ele><time>2026-04-04T09:41:27.324Z</time></trkpt><trkpt lat="45.6178275" lon="9.4317643"><ele>206.28571428571428</ele><time>2026-04-04T09:41:28.325Z</time></trkpt><trkpt lat="45.6178506" lon="9.4316793"><ele>206.42857142857144</ele><time>2026-04-04T09:41:29.324Z</time></trkpt><trkpt lat="45.6178802" lon="9.4315932"><ele>206.57142857142856</ele><time>2026-04-04T09:41:30.325Z</time></trkpt><trkpt lat="45.617908" lon="9.4315056"><ele>206.71428571428572</ele><time>2026-04-04T09:41:31.325Z</time></trkpt><trkpt lat="45.6179464" lon="9.4314125"><ele>206.85714285714286</ele><time>2026-04-04T09:41:32.324Z</time></trkpt><trkpt lat="45.6179784" lon="9.431321"><ele>207.0</ele><time>2026-04-04T09:41:33.325Z</time></trkpt><trkpt lat="45.6180098" lon="9.4312264"><ele>207.14285714285717</ele><time>2026-04-04T09:41:34.325Z</time></trkpt><trkpt lat="45.6180451" lon="9.4311438"><ele>207.28571428571428</ele><time>2026-04-04T09:41:35.324Z</time></trkpt><trkpt lat="45.6180826" lon="9.4310592"><ele>207.42857142857144</ele><time>2026-04-04T09:41:36.324Z</time></trkpt><trkpt lat="45.6181196" lon="9.4309829"><ele>207.57142857142858</ele><time>2026-04-04T09:41:37.325Z</time></trkpt><trkpt lat="45.6181685" lon="9.4309041"><ele>207.71428571428572</ele><time>2026-04-04T09:41:38.325Z</time></trkpt><trkpt lat="45.6182152" lon="9.4308323"><ele>207.85714285714286</ele><time>2026-04-04T09:41:39.325Z</time></trkpt><trkpt lat="45.6182644" lon="9.4307694"><ele>208.0</ele><time>2026-04-04T09:41:40.325Z</time></trkpt><trkpt lat="45.6183223" lon="9.4307037"><ele>208.0</ele><time>2026-04-04T09:41:41.324Z</time></trkpt><trkpt lat="45.6183828" lon="9.430659"><ele>208.0</ele><time>2026-04-04T09:41:42.325Z</time></trkpt><trkpt lat="45.618446" lon="9.4306405"><ele>208.0</ele><time>2026-04-04T09:41:43.325Z</time></trkpt><trkpt lat="45.618507" lon="9.4306099"><ele>208.0</ele><time>2026-04-04T09:41:44.325Z</time></trkpt><trkpt lat="45.6186254" lon="9.4305644"><ele>208.0</ele><time>2026-04-04T09:41:46.324Z</time></trkpt><trkpt lat="45.6187525" lon="9.4305065"><ele>208.0</ele><time>2026-04-04T09:41:48.325Z</time></trkpt><trkpt lat="45.6188167" lon="9.4304797"><ele>208.0</ele><time>2026-04-04T09:41:49.325Z</time></trkpt><trkpt lat="45.6188778" lon="9.4304524"><ele>208.0</ele><time>2026-04-04T09:41:50.325Z</time></trkpt><trkpt lat="45.6190007" lon="9.4304094"><ele>208.0</ele><time>2026-04-04T09:41:52.324Z</time></trkpt><trkpt lat="45.6191238" lon="9.4303601"><ele>208.0</ele><time>2026-04-04T09:41:54.325Z</time></trkpt><trkpt lat="45.6192327" lon="9.4302953"><ele>208.0</ele><time>2026-04-04T09:41:56.324Z</time></trkpt><trkpt lat="45.6192893" lon="9.4302484"><ele>208.0</ele><time>2026-04-04T09:41:57.325Z</time></trkpt><trkpt lat="45.619397" lon="9.4301576"><ele>208.0</ele><time>2026-04-04T09:41:59.325Z</time></trkpt><trkpt lat="45.6195028" lon="9.430066"><ele>208.0</ele><time>2026-04-04T09:42:01.325Z</time></trkpt><trkpt lat="45.6195968" lon="9.4299593"><ele>208.0</ele><time>2026-04-04T09:42:03.324Z</time></trkpt><trkpt lat="45.6196373" lon="9.429886"><ele>208.0</ele><time>2026-04-04T09:42:04.325Z</time></trkpt><trkpt lat="45.6196622" lon="9.4298015"><ele>208.0</ele><time>2026-04-04T09:42:05.325Z</time></trkpt><trkpt lat="45.6196893" lon="9.4297173"><ele>208.0</ele><time>2026-04-04T09:42:06.325Z</time></trkpt><trkpt lat="45.6197164" lon="9.4296246"><ele>208.0</ele><time>2026-04-04T09:42:07.325Z</time></trkpt><trkpt lat="45.6197306" lon="9.4295366"><ele>208.0</ele><time>2026-04-04T09:42:08.325Z</time></trkpt><trkpt lat="45.6197528" lon="9.4294469"><ele>208.0</ele><time>2026-04-04T09:42:09.324Z</time></trkpt><trkpt lat="45.6197687" lon="9.4293592"><ele>208.0</ele><time>2026-04-04T09:42:10.325Z</time></trkpt><trkpt lat="45.6197866" lon="9.4292683"><ele>208.0</ele><time>2026-04-04T09:42:11.325Z</time></trkpt><trkpt lat="45.6198118" lon="9.4291686"><ele>208.0</ele><time>2026-04-04T09:42:12.325Z</time></trkpt><trkpt lat="45.6198508" lon="9.4289998"><ele>208.0</ele><time>2026-04-04T09:42:14.325Z</time></trkpt><trkpt lat="45.6198903" lon="9.4288336"><ele>208.0</ele><time>2026-04-04T09:42:16.325Z</time></trkpt><trkpt lat="45.6199088" lon="9.4287372"><ele>208.0</ele><time>2026-04-04T09:42:17.325Z</time></trkpt><trkpt lat="45.6199232" lon="9.4286376"><ele>208.0</ele><time>2026-04-04T09:42:18.325Z</time></trkpt><trkpt lat="45.6199194" lon="9.4284503"><ele>208.0</ele><time>2026-04-04T09:42:20.325Z</time></trkpt><trkpt lat="45.6198783" lon="9.4282813"><ele>208.0</ele><time>2026-04-04T09:42:22.325Z</time></trkpt><trkpt lat="45.6198443" lon="9.4282019"><ele>208.0</ele><time>2026-04-04T09:42:23.324Z</time></trkpt><trkpt lat="45.6197981" lon="9.4281321"><ele>208.0</ele><time>2026-04-04T09:42:24.325Z</time></trkpt><trkpt lat="45.619754" lon="9.4280552"><ele>208.0</ele><time>2026-04-04T09:42:25.325Z</time></trkpt><trkpt lat="45.6197068" lon="9.4279691"><ele>208.0</ele><time>2026-04-04T09:42:26.325Z</time></trkpt><trkpt lat="45.6196253" lon="9.4278397"><ele>208.0</ele><time>2026-04-04T09:42:28.324Z</time></trkpt><trkpt lat="45.6195462" lon="9.4277106"><ele>208.0</ele><time>2026-04-04T09:42:30.325Z</time></trkpt><trkpt lat="45.6194656" lon="9.4275865"><ele>208.0</ele><time>2026-04-04T09:42:32.325Z</time></trkpt><trkpt lat="45.6194176" lon="9.427436"><ele>208.16666666666666</ele><time>2026-04-04T09:42:34.325Z</time></trkpt><trkpt lat="45.6194021" lon="9.4273401"><ele>208.33333333333331</ele><time>2026-04-04T09:42:35.325Z</time></trkpt><trkpt lat="45.6193963" lon="9.4272485"><ele>208.5</ele><time>2026-04-04T09:42:36.325Z</time></trkpt><trkpt lat="45.6194007" lon="9.4271548"><ele>208.66666666666669</ele><time>2026-04-04T09:42:37.325Z</time></trkpt><trkpt lat="45.6194074" lon="9.4270571"><ele>208.83333333333334</ele><time>2026-04-04T09:42:38.325Z</time></trkpt><trkpt lat="45.6194123" lon="9.4269643"><ele>209.0</ele><time>2026-04-04T09:42:39.325Z</time></trkpt><trkpt lat="45.6194099" lon="9.4267796"><ele>209.00000000000003</ele><time>2026-04-04T09:42:41.325Z</time></trkpt><trkpt lat="45.6194091" lon="9.4266848"><ele>209.0</ele><time>2026-04-04T09:42:42.325Z</time></trkpt><trkpt lat="45.619411" lon="9.4265927"><ele>209.0</ele><time>2026-04-04T09:42:43.324Z</time></trkpt><trkpt lat="45.6194156" lon="9.4264911"><ele>209.0</ele><time>2026-04-04T09:42:44.325Z</time></trkpt><trkpt lat="45.6194157" lon="9.4263946"><ele>209.00000000000003</ele><time>2026-04-04T09:42:45.325Z</time></trkpt><trkpt lat="45.6194141" lon="9.4262236"><ele>209.0</ele><time>2026-04-04T09:42:47.325Z</time></trkpt><trkpt lat="45.6194186" lon="9.4261272"><ele>209.0</ele><time>2026-04-04T09:42:48.325Z</time></trkpt><trkpt lat="45.6194175" lon="9.4259512"><ele>209.0</ele><time>2026-04-04T09:42:50.325Z</time></trkpt><trkpt lat="45.6194294" lon="9.42586"><ele>209.0</ele><time>2026-04-04T09:42:51.325Z</time></trkpt><trkpt lat="45.619444" lon="9.4257102"><ele>209.0</ele><time>2026-04-04T09:42:53.325Z</time></trkpt><trkpt lat="45.6194485" lon="9.4255258"><ele>209.0</ele><time>2026-04-04T09:42:55.325Z</time></trkpt><trkpt lat="45.6194717" lon="9.425349"><ele>209.0</ele><time>2026-04-04T09:42:57.325Z</time></trkpt><trkpt lat="45.6194817" lon="9.4251767"><ele>209.0</ele><time>2026-04-04T09:42:59.325Z</time></trkpt><trkpt lat="45.6194865" lon="9.4250843"><ele>209.0</ele><time>2026-04-04T09:43:00.325Z</time></trkpt><trkpt lat="45.6194944" lon="9.4249325"><ele>209.0</ele><time>2026-04-04T09:43:02.324Z</time></trkpt><trkpt lat="45.6194965" lon="9.4247856"><ele>209.0</ele><time>2026-04-04T09:43:04.325Z</time></trkpt><trkpt lat="45.6195012" lon="9.4246186"><ele>209.00000000000003</ele><time>2026-04-04T09:43:06.324Z</time></trkpt><trkpt lat="45.619498" lon="9.4244341"><ele>209.0</ele><time>2026-04-04T09:43:08.325Z</time></trkpt><trkpt lat="45.6194753" lon="9.4243481"><ele>209.0</ele><time>2026-04-04T09:43:09.325Z</time></trkpt><trkpt lat="45.6194703" lon="9.4242547"><ele>209.0</ele><time>2026-04-04T09:43:10.325Z</time></trkpt><trkpt lat="45.6194865" lon="9.4241603"><ele>209.00000000000003</ele><time>2026-04-04T09:43:11.325Z</time></trkpt><trkpt lat="45.6194907" lon="9.4240623"><ele>209.0</ele><time>2026-04-04T09:43:12.325Z</time></trkpt><trkpt lat="45.6195003" lon="9.4239576"><ele>209.00000000000003</ele><time>2026-04-04T09:43:13.325Z</time></trkpt><trkpt lat="45.6195046" lon="9.4238572"><ele>209.0</ele><time>2026-04-04T09:43:14.325Z</time></trkpt><trkpt lat="45.619508" lon="9.4237591"><ele>209.0</ele><time>2026-04-04T09:43:15.325Z</time></trkpt><trkpt lat="45.6195117" lon="9.4236678"><ele>209.0</ele><time>2026-04-04T09:43:16.324Z</time></trkpt><trkpt lat="45.6195326" lon="9.4235471"><ele>209.00000000000003</ele><time>2026-04-04T09:43:18.325Z</time></trkpt><trkpt lat="45.6195709" lon="9.4234598"><ele>209.0</ele><time>2026-04-04T09:43:20.325Z</time></trkpt><trkpt lat="45.6196518" lon="9.4233916"><ele>209.2</ele><time>2026-04-04T09:43:23.324Z</time></trkpt><trkpt lat="45.6197295" lon="9.4233718"><ele>209.39999999999998</ele><time>2026-04-04T09:43:25.325Z</time></trkpt><trkpt lat="45.6198176" lon="9.4233515"><ele>209.6</ele><time>2026-04-04T09:43:27.325Z</time></trkpt><trkpt lat="45.6199145" lon="9.4233285"><ele>209.8</ele><time>2026-04-04T09:43:29.324Z</time></trkpt><trkpt lat="45.6200262" lon="9.423313"><ele>210.0</ele><time>2026-04-04T09:43:31.324Z</time></trkpt><trkpt lat="45.620128" lon="9.4232778"><ele>210.0</ele><time>2026-04-04T09:43:33.325Z</time></trkpt><trkpt lat="45.6202312" lon="9.4232392"><ele>210.0</ele><time>2026-04-04T09:43:35.325Z</time></trkpt><trkpt lat="45.6203431" lon="9.423203"><ele>210.0</ele><time>2026-04-04T09:43:37.325Z</time></trkpt><trkpt lat="45.620405" lon="9.4231803"><ele>210.0</ele><time>2026-04-04T09:43:38.325Z</time></trkpt><trkpt lat="45.6205236" lon="9.4231436"><ele>210.0</ele><time>2026-04-04T09:43:40.325Z</time></trkpt><trkpt lat="45.6206374" lon="9.423099"><ele>210.2</ele><time>2026-04-04T09:43:42.325Z</time></trkpt><trkpt lat="45.6207484" lon="9.4230391"><ele>210.4</ele><time>2026-04-04T09:43:44.325Z</time></trkpt><trkpt lat="45.6208104" lon="9.4230125"><ele>210.60000000000002</ele><time>2026-04-04T09:43:45.325Z</time></trkpt><trkpt lat="45.6209195" lon="9.4229348"><ele>210.8</ele><time>2026-04-04T09:43:47.325Z</time></trkpt><trkpt lat="45.6209775" lon="9.4228979"><ele>211.0</ele><time>2026-04-04T09:43:48.325Z</time></trkpt><trkpt lat="45.6210908" lon="9.4228225"><ele>211.0</ele><time>2026-04-04T09:43:50.325Z</time></trkpt><trkpt lat="45.6212009" lon="9.4227523"><ele>211.0</ele><time>2026-04-04T09:43:52.324Z</time></trkpt><trkpt lat="45.621311" lon="9.4226605"><ele>211.0</ele><time>2026-04-04T09:43:54.325Z</time></trkpt><trkpt lat="45.6214032" lon="9.4225908"><ele>211.0</ele><time>2026-04-04T09:43:56.325Z</time></trkpt><trkpt lat="45.6214646" lon="9.4225488"><ele>211.0</ele><time>2026-04-04T09:43:57.325Z</time></trkpt><trkpt lat="45.6215237" lon="9.4224959"><ele>210.99999999999997</ele><time>2026-04-04T09:43:58.325Z</time></trkpt><trkpt lat="45.6215797" lon="9.422447"><ele>211.0</ele><time>2026-04-04T09:43:59.325Z</time></trkpt><trkpt lat="45.621637" lon="9.4223927"><ele>211.0</ele><time>2026-04-04T09:44:00.325Z</time></trkpt><trkpt lat="45.6216906" lon="9.4223384"><ele>211.0</ele><time>2026-04-04T09:44:01.325Z</time></trkpt><trkpt lat="45.6217472" lon="9.4222901"><ele>210.99999999999997</ele><time>2026-04-04T09:44:02.324Z</time></trkpt><trkpt lat="45.6218041" lon="9.422237"><ele>211.0</ele><time>2026-04-04T09:44:03.325Z</time></trkpt><trkpt lat="45.6219126" lon="9.4221379"><ele>210.99999999999997</ele><time>2026-04-04T09:44:05.324Z</time></trkpt><trkpt lat="45.6219743" lon="9.4220779"><ele>211.0</ele><time>2026-04-04T09:44:06.325Z</time></trkpt><trkpt lat="45.6220284" lon="9.4220233"><ele>211.0</ele><time>2026-04-04T09:44:07.324Z</time></trkpt><trkpt lat="45.6220834" lon="9.4219699"><ele>211.0</ele><time>2026-04-04T09:44:08.324Z</time></trkpt><trkpt lat="45.6221324" lon="9.4219096"><ele>210.99999999999997</ele><time>2026-04-04T09:44:09.324Z</time></trkpt><trkpt lat="45.6222243" lon="9.4217868"><ele>211.0</ele><time>2026-04-04T09:44:11.325Z</time></trkpt><trkpt lat="45.6222754" lon="9.4217157"><ele>211.0</ele><time>2026-04-04T09:44:12.325Z</time></trkpt><trkpt lat="45.6223356" lon="9.421647"><ele>211.0</ele><time>2026-04-04T09:44:13.325Z</time></trkpt><trkpt lat="45.622422" lon="9.4215107"><ele>211.0</ele><time>2026-04-04T09:44:15.325Z</time></trkpt><trkpt lat="45.6225044" lon="9.4213811"><ele>211.0</ele><time>2026-04-04T09:44:17.324Z</time></trkpt><trkpt lat="45.6225541" lon="9.4213023"><ele>211.0</ele><time>2026-04-04T09:44:18.325Z</time></trkpt><trkpt lat="45.6226019" lon="9.4212345"><ele>211.14285714285714</ele><time>2026-04-04T09:44:19.325Z</time></trkpt><trkpt lat="45.6226567" lon="9.4211684"><ele>211.28571428571428</ele><time>2026-04-04T09:44:20.324Z</time></trkpt><trkpt lat="45.6226979" lon="9.4210957"><ele>211.42857142857144</ele><time>2026-04-04T09:44:21.325Z</time></trkpt><trkpt lat="45.6227425" lon="9.4210219"><ele>211.57142857142856</ele><time>2026-04-04T09:44:22.325Z</time></trkpt><trkpt lat="45.6227875" lon="9.4209522"><ele>211.7142857142857</ele><time>2026-04-04T09:44:23.325Z</time></trkpt><trkpt lat="45.6228316" lon="9.4208834"><ele>211.85714285714286</ele><time>2026-04-04T09:44:24.325Z</time></trkpt><trkpt lat="45.6228805" lon="9.4208164"><ele>212.0</ele><time>2026-04-04T09:44:25.325Z</time></trkpt><trkpt lat="45.6229335" lon="9.4207496"><ele>212.14285714285714</ele><time>2026-04-04T09:44:26.325Z</time></trkpt><trkpt lat="45.622977" lon="9.4206796"><ele>212.28571428571428</ele><time>2026-04-04T09:44:27.325Z</time></trkpt><trkpt lat="45.6230309" lon="9.4206031"><ele>212.42857142857142</ele><time>2026-04-04T09:44:28.325Z</time></trkpt><trkpt lat="45.6230779" lon="9.4205313"><ele>212.57142857142856</ele><time>2026-04-04T09:44:29.325Z</time></trkpt><trkpt lat="45.6231242" lon="9.4204636"><ele>212.71428571428572</ele><time>2026-04-04T09:44:30.325Z</time></trkpt><trkpt lat="45.6231715" lon="9.4203855"><ele>212.85714285714283</ele><time>2026-04-04T09:44:31.325Z</time></trkpt><trkpt lat="45.6232186" lon="9.4203062"><ele>213.0</ele><time>2026-04-04T09:44:32.325Z</time></trkpt><trkpt lat="45.6233103" lon="9.420184"><ele>212.99999999999997</ele><time>2026-04-04T09:44:34.325Z</time></trkpt><trkpt lat="45.6233617" lon="9.4201107"><ele>213.0</ele><time>2026-04-04T09:44:35.325Z</time></trkpt><trkpt lat="45.6234133" lon="9.4200287"><ele>213.0</ele><time>2026-04-04T09:44:36.325Z</time></trkpt><trkpt lat="45.6234657" lon="9.4199533"><ele>213.0</ele><time>2026-04-04T09:44:37.325Z</time></trkpt><trkpt lat="45.6235127" lon="9.4198857"><ele>213.0</ele><time>2026-04-04T09:44:38.325Z</time></trkpt><trkpt lat="45.6235578" lon="9.4198066"><ele>212.99999999999997</ele><time>2026-04-04T09:44:39.325Z</time></trkpt><trkpt lat="45.6236018" lon="9.4197337"><ele>213.0</ele><time>2026-04-04T09:44:40.325Z</time></trkpt><trkpt lat="45.6236501" lon="9.4196655"><ele>214.0</ele><time>2026-04-04T09:44:41.324Z</time></trkpt><trkpt lat="45.6236959" lon="9.4195898"><ele>215.0</ele><time>2026-04-04T09:44:42.325Z</time></trkpt><trkpt lat="45.6237814" lon="9.4194557"><ele>216.0</ele><time>2026-04-04T09:44:44.325Z</time></trkpt><trkpt lat="45.6238279" lon="9.419381"><ele>217.0</ele><time>2026-04-04T09:44:45.325Z</time></trkpt><trkpt lat="45.6238747" lon="9.4193069"><ele>218.0</ele><time>2026-04-04T09:44:46.324Z</time></trkpt><trkpt lat="45.6239208" lon="9.4192353"><ele>219.0</ele><time>2026-04-04T09:44:47.325Z</time></trkpt><trkpt lat="45.6239692" lon="9.4191724"><ele>219.0</ele><time>2026-04-04T09:44:48.324Z</time></trkpt><trkpt lat="45.6240186" lon="9.4191058"><ele>219.0</ele><time>2026-04-04T09:44:49.325Z</time></trkpt><trkpt lat="45.624061" lon="9.4190386"><ele>219.0</ele><time>2026-04-04T09:44:50.325Z</time></trkpt><trkpt lat="45.6241097" lon="9.4189713"><ele>219.0</ele><time>2026-04-04T09:44:51.325Z</time></trkpt><trkpt lat="45.6241624" lon="9.4188983"><ele>219.0</ele><time>2026-04-04T09:44:52.325Z</time></trkpt><trkpt lat="45.6242071" lon="9.4188269"><ele>219.0</ele><time>2026-04-04T09:44:53.324Z</time></trkpt><trkpt lat="45.6242875" lon="9.4187071"><ele>218.83333333333334</ele><time>2026-04-04T09:44:55.325Z</time></trkpt><trkpt lat="45.6243371" lon="9.4186441"><ele>218.66666666666669</ele><time>2026-04-04T09:44:56.325Z</time></trkpt><trkpt lat="45.6243901" lon="9.4185865"><ele>218.5</ele><time>2026-04-04T09:44:57.324Z</time></trkpt><trkpt lat="45.6244878" lon="9.418464"><ele>218.33333333333334</ele><time>2026-04-04T09:44:59.325Z</time></trkpt><trkpt lat="45.6245443" lon="9.418402"><ele>218.16666666666669</ele><time>2026-04-04T09:45:00.325Z</time></trkpt><trkpt lat="45.6245875" lon="9.4183361"><ele>218.0</ele><time>2026-04-04T09:45:01.325Z</time></trkpt><trkpt lat="45.6246289" lon="9.418265"><ele>217.66666666666669</ele><time>2026-04-04T09:45:02.325Z</time></trkpt><trkpt lat="45.6246722" lon="9.418188"><ele>217.33333333333334</ele><time>2026-04-04T09:45:03.325Z</time></trkpt><trkpt lat="45.6247194" lon="9.4181163"><ele>217.0</ele><time>2026-04-04T09:45:04.324Z</time></trkpt><trkpt lat="45.6247715" lon="9.4180518"><ele>216.66666666666669</ele><time>2026-04-04T09:45:05.325Z</time></trkpt><trkpt lat="45.6248293" lon="9.4180085"><ele>216.33333333333334</ele><time>2026-04-04T09:45:06.324Z</time></trkpt><trkpt lat="45.6249492" lon="9.4179696"><ele>216.0</ele><time>2026-04-04T09:45:08.325Z</time></trkpt><trkpt lat="45.6250126" lon="9.4179709"><ele>216.0</ele><time>2026-04-04T09:45:09.325Z</time></trkpt><trkpt lat="45.6250767" lon="9.4179914"><ele>216.0</ele><time>2026-04-04T09:45:10.325Z</time></trkpt><trkpt lat="45.6251381" lon="9.4180223"><ele>216.0</ele><time>2026-04-04T09:45:11.325Z</time></trkpt><trkpt lat="45.6252018" lon="9.418072"><ele>216.0</ele><time>2026-04-04T09:45:12.325Z</time></trkpt><trkpt lat="45.6252676" lon="9.4181072"><ele>216.0</ele><time>2026-04-04T09:45:13.325Z</time></trkpt><trkpt lat="45.6253929" lon="9.4181581"><ele>216.0</ele><time>2026-04-04T09:45:15.325Z</time></trkpt><trkpt lat="45.6255092" lon="9.4181776"><ele>215.60000000000002</ele><time>2026-04-04T09:45:17.325Z</time></trkpt><trkpt lat="45.625629" lon="9.4181944"><ele>215.20000000000002</ele><time>2026-04-04T09:45:19.325Z</time></trkpt><trkpt lat="45.6257546" lon="9.418226"><ele>214.79999999999998</ele><time>2026-04-04T09:45:21.325Z</time></trkpt><trkpt lat="45.6258178" lon="9.418232"><ele>214.39999999999998</ele><time>2026-04-04T09:45:22.325Z</time></trkpt><trkpt lat="45.6258849" lon="9.418245"><ele>214.0</ele><time>2026-04-04T09:45:23.325Z</time></trkpt><trkpt lat="45.625999" lon="9.4182746"><ele>213.99999999999997</ele><time>2026-04-04T09:45:25.325Z</time></trkpt><trkpt lat="45.6261161" lon="9.4182958"><ele>214.0</ele><time>2026-04-04T09:45:27.325Z</time></trkpt><trkpt lat="45.6262314" lon="9.4183039"><ele>214.0</ele><time>2026-04-04T09:45:29.325Z</time></trkpt><trkpt lat="45.6262944" lon="9.4183142"><ele>214.0</ele><time>2026-04-04T09:45:30.324Z</time></trkpt><trkpt lat="45.6263575" lon="9.4183342"><ele>213.99999999999997</ele><time>2026-04-04T09:45:31.324Z</time></trkpt><trkpt lat="45.6264267" lon="9.4183496"><ele>214.0</ele><time>2026-04-04T09:45:32.324Z</time></trkpt><trkpt lat="45.6265438" lon="9.418379"><ele>214.2</ele><time>2026-04-04T09:45:34.324Z</time></trkpt><trkpt lat="45.626667" lon="9.41839"><ele>214.39999999999998</ele><time>2026-04-04T09:45:36.325Z</time></trkpt><trkpt lat="45.6267342" lon="9.4184046"><ele>214.6</ele><time>2026-04-04T09:45:37.324Z</time></trkpt><trkpt lat="45.626797" lon="9.4184139"><ele>214.8</ele><time>2026-04-04T09:45:38.324Z</time></trkpt><trkpt lat="45.6269123" lon="9.4184256"><ele>215.0</ele><time>2026-04-04T09:45:40.325Z</time></trkpt><trkpt lat="45.6270212" lon="9.4184215"><ele>215.0</ele><time>2026-04-04T09:45:42.325Z</time></trkpt><trkpt lat="45.6271414" lon="9.4184238"><ele>215.0</ele><time>2026-04-04T09:45:44.325Z</time></trkpt><trkpt lat="45.6272704" lon="9.4184257"><ele>215.0</ele><time>2026-04-04T09:45:46.324Z</time></trkpt><trkpt lat="45.6273987" lon="9.4184273"><ele>215.0</ele><time>2026-04-04T09:45:48.324Z</time></trkpt><trkpt lat="45.6274624" lon="9.4184269"><ele>215.0</ele><time>2026-04-04T09:45:49.324Z</time></trkpt><trkpt lat="45.6275254" lon="9.4184276"><ele>215.0</ele><time>2026-04-04T09:45:50.325Z</time></trkpt><trkpt lat="45.6275898" lon="9.4184297"><ele>215.0</ele><time>2026-04-04T09:45:51.325Z</time></trkpt><trkpt lat="45.6277143" lon="9.4184412"><ele>215.0</ele><time>2026-04-04T09:45:53.325Z</time></trkpt><trkpt lat="45.6277786" lon="9.4184421"><ele>215.0</ele><time>2026-04-04T09:45:54.325Z</time></trkpt><trkpt lat="45.6278434" lon="9.4184493"><ele>215.0</ele><time>2026-04-04T09:45:55.325Z</time></trkpt><trkpt lat="45.6279069" lon="9.4184457"><ele>215.0</ele><time>2026-04-04T09:45:56.325Z</time></trkpt><trkpt lat="45.6279739" lon="9.41845"><ele>215.0</ele><time>2026-04-04T09:45:57.325Z</time></trkpt><trkpt lat="45.6280488" lon="9.4184695"><ele>215.0</ele><time>2026-04-04T09:45:58.324Z</time></trkpt><trkpt lat="45.6281708" lon="9.4184707"><ele>215.0</ele><time>2026-04-04T09:46:00.325Z</time></trkpt><trkpt lat="45.6282389" lon="9.4184874"><ele>215.0</ele><time>2026-04-04T09:46:01.325Z</time></trkpt><trkpt lat="45.6283017" lon="9.4185019"><ele>215.0</ele><time>2026-04-04T09:46:02.325Z</time></trkpt><trkpt lat="45.62843" lon="9.4184877"><ele>215.0</ele><time>2026-04-04T09:46:04.325Z</time></trkpt><trkpt lat="45.6284982" lon="9.4184881"><ele>215.0</ele><time>2026-04-04T09:46:05.325Z</time></trkpt><trkpt lat="45.6286172" lon="9.4184895"><ele>215.0</ele><time>2026-04-04T09:46:07.325Z</time></trkpt><trkpt lat="45.6287465" lon="9.4184697"><ele>215.0</ele><time>2026-04-04T09:46:09.325Z</time></trkpt><trkpt lat="45.6288774" lon="9.4184541"><ele>215.0</ele><time>2026-04-04T09:46:11.325Z</time></trkpt><trkpt lat="45.6290016" lon="9.4184268"><ele>215.8</ele><time>2026-04-04T09:46:13.324Z</time></trkpt><trkpt lat="45.6291261" lon="9.4184103"><ele>216.6</ele><time>2026-04-04T09:46:15.324Z</time></trkpt><trkpt lat="45.6292486" lon="9.4183817"><ele>217.39999999999998</ele><time>2026-04-04T09:46:17.325Z</time></trkpt><trkpt lat="45.6293115" lon="9.4183703"><ele>218.2</ele><time>2026-04-04T09:46:18.324Z</time></trkpt><trkpt lat="45.6293736" lon="9.4183533"><ele>219.0</ele><time>2026-04-04T09:46:19.325Z</time></trkpt><trkpt lat="45.6294939" lon="9.4183476"><ele>219.39999999999998</ele><time>2026-04-04T09:46:21.325Z</time></trkpt><trkpt lat="45.6296209" lon="9.4183687"><ele>219.79999999999998</ele><time>2026-04-04T09:46:23.325Z</time></trkpt><trkpt lat="45.6296913" lon="9.4183815"><ele>220.20000000000002</ele><time>2026-04-04T09:46:24.325Z</time></trkpt><trkpt lat="45.629817" lon="9.4183599"><ele>220.60000000000002</ele><time>2026-04-04T09:46:26.325Z</time></trkpt><trkpt lat="45.6298761" lon="9.4183244"><ele>221.0</ele><time>2026-04-04T09:46:27.325Z</time></trkpt><trkpt lat="45.6299373" lon="9.4182827"><ele>221.00000000000003</ele><time>2026-04-04T09:46:28.325Z</time></trkpt><trkpt lat="45.6299981" lon="9.418251"><ele>221.0</ele><time>2026-04-04T09:46:29.325Z</time></trkpt><trkpt lat="45.6300603" lon="9.4182285"><ele>221.0</ele><time>2026-04-04T09:46:30.325Z</time></trkpt><trkpt lat="45.6301853" lon="9.4182053"><ele>221.0</ele><time>2026-04-04T09:46:32.325Z</time></trkpt><trkpt lat="45.6302493" lon="9.4181971"><ele>221.00000000000003</ele><time>2026-04-04T09:46:33.325Z</time></trkpt><trkpt lat="45.6303161" lon="9.4181812"><ele>221.0</ele><time>2026-04-04T09:46:34.325Z</time></trkpt><trkpt lat="45.6303802" lon="9.418168"><ele>221.57142857142858</ele><time>2026-04-04T09:46:35.325Z</time></trkpt><trkpt lat="45.6304474" lon="9.4181609"><ele>222.14285714285717</ele><time>2026-04-04T09:46:36.325Z</time></trkpt><trkpt lat="45.6305121" lon="9.4181441"><ele>222.71428571428572</ele><time>2026-04-04T09:46:37.325Z</time></trkpt><trkpt lat="45.6305757" lon="9.4181245"><ele>223.2857142857143</ele><time>2026-04-04T09:46:38.325Z</time></trkpt><trkpt lat="45.6306396" lon="9.4181001"><ele>223.85714285714286</ele><time>2026-04-04T09:46:39.325Z</time></trkpt><trkpt lat="45.6307037" lon="9.4180867"><ele>224.42857142857147</ele><time>2026-04-04T09:46:40.324Z</time></trkpt><trkpt lat="45.6307662" lon="9.4180666"><ele>225.00000000000003</ele><time>2026-04-04T09:46:41.325Z</time></trkpt><trkpt lat="45.6308404" lon="9.4180681"><ele>225.0</ele><time>2026-04-04T09:46:42.325Z</time></trkpt><trkpt lat="45.63092" lon="9.4180764"><ele>225.0</ele><time>2026-04-04T09:46:43.325Z</time></trkpt><trkpt lat="45.6309929" lon="9.4180937"><ele>225.0</ele><time>2026-04-04T09:46:44.325Z</time></trkpt><trkpt lat="45.6310567" lon="9.4181065"><ele>225.0</ele><time>2026-04-04T09:46:45.325Z</time></trkpt><trkpt lat="45.6311272" lon="9.4181146"><ele>225.0</ele><time>2026-04-04T09:46:46.325Z</time></trkpt><trkpt lat="45.6311909" lon="9.4181149"><ele>225.0</ele><time>2026-04-04T09:46:47.325Z</time></trkpt><trkpt lat="45.6313125" lon="9.4181395"><ele>224.66666666666666</ele><time>2026-04-04T09:46:49.325Z</time></trkpt><trkpt lat="45.6313869" lon="9.4181371"><ele>224.33333333333331</ele><time>2026-04-04T09:46:50.325Z</time></trkpt><trkpt lat="45.6314557" lon="9.4181423"><ele>224.0</ele><time>2026-04-04T09:46:51.325Z</time></trkpt><trkpt lat="45.6315777" lon="9.4181633"><ele>223.66666666666666</ele><time>2026-04-04T09:46:53.325Z</time></trkpt><trkpt lat="45.6316432" lon="9.418175"><ele>223.33333333333331</ele><time>2026-04-04T09:46:54.325Z</time></trkpt><trkpt lat="45.6317091" lon="9.418185"><ele>223.0</ele><time>2026-04-04T09:46:55.325Z</time></trkpt><trkpt lat="45.6317791" lon="9.4181952"><ele>222.99999999999997</ele><time>2026-04-04T09:46:56.325Z</time></trkpt><trkpt lat="45.631853" lon="9.4182059"><ele>223.0</ele><time>2026-04-04T09:46:57.324Z</time></trkpt><trkpt lat="45.6319733" lon="9.4182322"><ele>223.0</ele><time>2026-04-04T09:46:59.325Z</time></trkpt><trkpt lat="45.6320364" lon="9.4182513"><ele>223.0</ele><time>2026-04-04T09:47:00.325Z</time></trkpt><trkpt lat="45.6321016" lon="9.4182654"><ele>222.99999999999997</ele><time>2026-04-04T09:47:01.325Z</time></trkpt><trkpt lat="45.6321713" lon="9.4182929"><ele>223.0</ele><time>2026-04-04T09:47:02.325Z</time></trkpt><trkpt lat="45.6322343" lon="9.4183051"><ele>223.2</ele><time>2026-04-04T09:47:03.325Z</time></trkpt><trkpt lat="45.632297" lon="9.4183153"><ele>223.4</ele><time>2026-04-04T09:47:04.324Z</time></trkpt><trkpt lat="45.6323645" lon="9.4183229"><ele>223.59999999999997</ele><time>2026-04-04T09:47:05.325Z</time></trkpt><trkpt lat="45.6324899" lon="9.4183389"><ele>223.79999999999998</ele><time>2026-04-04T09:47:07.324Z</time></trkpt><trkpt lat="45.6326021" lon="9.4183611"><ele>224.0</ele><time>2026-04-04T09:47:09.325Z</time></trkpt><trkpt lat="45.6327226" lon="9.4183746"><ele>223.75</ele><time>2026-04-04T09:47:11.325Z</time></trkpt><trkpt lat="45.6328472" lon="9.4184024"><ele>223.5</ele><time>2026-04-04T09:47:13.325Z</time></trkpt><trkpt lat="45.6329604" lon="9.4184322"><ele>223.25</ele><time>2026-04-04T09:47:15.325Z</time></trkpt><trkpt lat="45.6330582" lon="9.4184479"><ele>223.0</ele><time>2026-04-04T09:47:17.324Z</time></trkpt><trkpt lat="45.6331676" lon="9.4184886"><ele>223.0</ele><time>2026-04-04T09:47:19.324Z</time></trkpt><trkpt lat="45.6332734" lon="9.4184845"><ele>223.0</ele><time>2026-04-04T09:47:21.325Z</time></trkpt><trkpt lat="45.6333811" lon="9.4184809"><ele>223.0</ele><time>2026-04-04T09:47:23.325Z</time></trkpt><trkpt lat="45.6334845" lon="9.4185022"><ele>223.0</ele><time>2026-04-04T09:47:25.325Z</time></trkpt><trkpt lat="45.6335908" lon="9.4185428"><ele>223.0</ele><time>2026-04-04T09:47:27.325Z</time></trkpt><trkpt lat="45.6336841" lon="9.4185836"><ele>223.2</ele><time>2026-04-04T09:47:29.324Z</time></trkpt><trkpt lat="45.6338027" lon="9.4186146"><ele>223.4</ele><time>2026-04-04T09:47:31.324Z</time></trkpt><trkpt lat="45.633905" lon="9.4186578"><ele>223.59999999999997</ele><time>2026-04-04T09:47:33.325Z</time></trkpt><trkpt lat="45.6340124" lon="9.4186926"><ele>223.79999999999998</ele><time>2026-04-04T09:47:35.325Z</time></trkpt><trkpt lat="45.6341195" lon="9.4187223"><ele>224.0</ele><time>2026-04-04T09:47:37.324Z</time></trkpt><trkpt lat="45.6342179" lon="9.418743"><ele>224.0</ele><time>2026-04-04T09:47:39.325Z</time></trkpt><trkpt lat="45.6342841" lon="9.418763"><ele>223.99999999999997</ele><time>2026-04-04T09:47:40.325Z</time></trkpt><trkpt lat="45.6343947" lon="9.4187956"><ele>223.99999999999997</ele><time>2026-04-04T09:47:42.325Z</time></trkpt><trkpt lat="45.634497" lon="9.4188518"><ele>224.0</ele><time>2026-04-04T09:47:44.325Z</time></trkpt><trkpt lat="45.6346009" lon="9.4189071"><ele>224.0</ele><time>2026-04-04T09:47:46.325Z</time></trkpt><trkpt lat="45.6347039" lon="9.4189747"><ele>225.0</ele><time>2026-04-04T09:47:48.325Z</time></trkpt><trkpt lat="45.6348149" lon="9.4190394"><ele>225.99999999999997</ele><time>2026-04-04T09:47:50.325Z</time></trkpt><trkpt lat="45.6349226" lon="9.4191141"><ele>226.99999999999997</ele><time>2026-04-04T09:47:52.324Z</time></trkpt><trkpt lat="45.6349805" lon="9.4191535"><ele>228.0</ele><time>2026-04-04T09:47:53.325Z</time></trkpt><trkpt lat="45.6350818" lon="9.4192235"><ele>229.0</ele><time>2026-04-04T09:47:55.325Z</time></trkpt><trkpt lat="45.635185" lon="9.4192978"><ele>228.99999999999997</ele><time>2026-04-04T09:47:57.325Z</time></trkpt><trkpt lat="45.6352754" lon="9.4193533"><ele>229.0</ele><time>2026-04-04T09:47:59.325Z</time></trkpt><trkpt lat="45.6353617" lon="9.4194228"><ele>229.0</ele><time>2026-04-04T09:48:01.324Z</time></trkpt><trkpt lat="45.635432" lon="9.4194585"><ele>229.0</ele><time>2026-04-04T09:48:03.324Z</time></trkpt><trkpt lat="45.6354839" lon="9.4193828"><ele>228.99999999999997</ele><time>2026-04-04T09:48:06.325Z</time></trkpt><trkpt lat="45.6355156" lon="9.4192768"><ele>229.0</ele><time>2026-04-04T09:48:08.324Z</time></trkpt><trkpt lat="45.6355727" lon="9.4191584"><ele>228.66666666666666</ele><time>2026-04-04T09:48:10.325Z</time></trkpt><trkpt lat="45.6356272" lon="9.4190777"><ele>228.33333333333331</ele><time>2026-04-04T09:48:12.325Z</time></trkpt><trkpt lat="45.6356671" lon="9.4189226"><ele>228.0</ele><time>2026-04-04T09:48:14.325Z</time></trkpt><trkpt lat="45.6356967" lon="9.418831"><ele>227.66666666666669</ele><time>2026-04-04T09:48:16.325Z</time></trkpt><trkpt lat="45.6357377" lon="9.4187614"><ele>227.33333333333334</ele><time>2026-04-04T09:48:17.325Z</time></trkpt><trkpt lat="45.6357988" lon="9.4186384"><ele>227.0</ele><time>2026-04-04T09:48:19.324Z</time></trkpt><trkpt lat="45.6358419" lon="9.4185552"><ele>226.6</ele><time>2026-04-04T09:48:20.325Z</time></trkpt><trkpt lat="45.6358804" lon="9.418466"><ele>226.2</ele><time>2026-04-04T09:48:21.325Z</time></trkpt><trkpt lat="45.6359223" lon="9.418306"><ele>225.8</ele><time>2026-04-04T09:48:23.325Z</time></trkpt><trkpt lat="45.6359932" lon="9.4181638"><ele>225.4</ele><time>2026-04-04T09:48:25.325Z</time></trkpt><trkpt lat="45.6360545" lon="9.418025"><ele>225.0</ele><time>2026-04-04T09:48:27.325Z</time></trkpt><trkpt lat="45.6361062" lon="9.4178731"><ele>224.6</ele><time>2026-04-04T09:48:29.324Z</time></trkpt><trkpt lat="45.6361755" lon="9.4177301"><ele>224.2</ele><time>2026-04-04T09:48:31.325Z</time></trkpt><trkpt lat="45.6362399" lon="9.4175981"><ele>223.8</ele><time>2026-04-04T09:48:33.325Z</time></trkpt><trkpt lat="45.6363138" lon="9.4175152"><ele>223.4</ele><time>2026-04-04T09:48:35.325Z</time></trkpt><trkpt lat="45.6364047" lon="9.4175343"><ele>223.0</ele><time>2026-04-04T09:48:37.325Z</time></trkpt><trkpt lat="45.6365053" lon="9.4175931"><ele>223.0</ele><time>2026-04-04T09:48:39.325Z</time></trkpt><trkpt lat="45.636614" lon="9.4176615"><ele>223.0</ele><time>2026-04-04T09:48:41.325Z</time></trkpt><trkpt lat="45.6367183" lon="9.4177226"><ele>223.0</ele><time>2026-04-04T09:48:43.324Z</time></trkpt><trkpt lat="45.6368248" lon="9.4177878"><ele>223.0</ele><time>2026-04-04T09:48:45.325Z</time></trkpt><trkpt lat="45.6369251" lon="9.417845"><ele>223.2</ele><time>2026-04-04T09:48:47.324Z</time></trkpt><trkpt lat="45.6370318" lon="9.4178839"><ele>223.4</ele><time>2026-04-04T09:48:49.325Z</time></trkpt><trkpt lat="45.637136" lon="9.41792"><ele>223.59999999999997</ele><time>2026-04-04T09:48:51.325Z</time></trkpt><trkpt lat="45.6372405" lon="9.4179449"><ele>223.79999999999998</ele><time>2026-04-04T09:48:53.324Z</time></trkpt><trkpt lat="45.6373416" lon="9.4179609"><ele>224.0</ele><time>2026-04-04T09:48:55.325Z</time></trkpt><trkpt lat="45.6374584" lon="9.4179926"><ele>224.0</ele><time>2026-04-04T09:48:57.325Z</time></trkpt><trkpt lat="45.6375682" lon="9.4180292"><ele>223.99999999999997</ele><time>2026-04-04T09:48:59.324Z</time></trkpt><trkpt lat="45.6376773" lon="9.4180651"><ele>223.99999999999997</ele><time>2026-04-04T09:49:01.325Z</time></trkpt><trkpt lat="45.6377795" lon="9.4180995"><ele>224.0</ele><time>2026-04-04T09:49:03.325Z</time></trkpt><trkpt lat="45.6378904" lon="9.4181323"><ele>224.0</ele><time>2026-04-04T09:49:05.325Z</time></trkpt><trkpt lat="45.6380102" lon="9.4181652"><ele>223.79999999999998</ele><time>2026-04-04T09:49:07.325Z</time></trkpt><trkpt lat="45.6381316" lon="9.4181679"><ele>223.59999999999997</ele><time>2026-04-04T09:49:09.325Z</time></trkpt><trkpt lat="45.6381946" lon="9.4181895"><ele>223.4</ele><time>2026-04-04T09:49:10.324Z</time></trkpt><trkpt lat="45.6383043" lon="9.4182077"><ele>223.2</ele><time>2026-04-04T09:49:12.325Z</time></trkpt><trkpt lat="45.6384089" lon="9.4182052"><ele>223.0</ele><time>2026-04-04T09:49:14.324Z</time></trkpt><trkpt lat="45.6384927" lon="9.4180998"><ele>223.0</ele><time>2026-04-04T09:49:17.325Z</time></trkpt><trkpt lat="45.6386032" lon="9.4180046"><ele>223.0</ele><time>2026-04-04T09:49:19.324Z</time></trkpt><trkpt lat="45.6387103" lon="9.4180152"><ele>223.0</ele><time>2026-04-04T09:49:21.325Z</time></trkpt><trkpt lat="45.6388301" lon="9.4180438"><ele>223.0</ele><time>2026-04-04T09:49:23.325Z</time></trkpt><trkpt lat="45.6389361" lon="9.4180555"><ele>223.66666666666666</ele><time>2026-04-04T09:49:25.325Z</time></trkpt><trkpt lat="45.6390024" lon="9.4180735"><ele>224.33333333333331</ele><time>2026-04-04T09:49:26.325Z</time></trkpt><trkpt lat="45.6390704" lon="9.4180932"><ele>225.0</ele><time>2026-04-04T09:49:27.325Z</time></trkpt><trkpt lat="45.6391689" lon="9.4181155"><ele>225.66666666666669</ele><time>2026-04-04T09:49:29.325Z</time></trkpt><trkpt lat="45.6392368" lon="9.4181239"><ele>226.33333333333334</ele><time>2026-04-04T09:49:30.325Z</time></trkpt><trkpt lat="45.6393437" lon="9.4181361"><ele>227.0</ele><time>2026-04-04T09:49:32.325Z</time></trkpt><trkpt lat="45.6394076" lon="9.4181474"><ele>227.5</ele><time>2026-04-04T09:49:33.324Z</time></trkpt><trkpt lat="45.6395247" lon="9.4181739"><ele>228.0</ele><time>2026-04-04T09:49:35.325Z</time></trkpt><trkpt lat="45.6396338" lon="9.4181922"><ele>228.5</ele><time>2026-04-04T09:49:37.325Z</time></trkpt><trkpt lat="45.6397485" lon="9.4182033"><ele>229.0</ele><time>2026-04-04T09:49:39.325Z</time></trkpt><trkpt lat="45.6398663" lon="9.4182365"><ele>229.0</ele><time>2026-04-04T09:49:41.325Z</time></trkpt><trkpt lat="45.6399761" lon="9.4182485"><ele>228.99999999999997</ele><time>2026-04-04T09:49:43.325Z</time></trkpt><trkpt lat="45.6400942" lon="9.4182456"><ele>228.99999999999997</ele><time>2026-04-04T09:49:45.325Z</time></trkpt><trkpt lat="45.640159" lon="9.4182441"><ele>229.0</ele><time>2026-04-04T09:49:46.324Z</time></trkpt><trkpt lat="45.6402687" lon="9.4182274"><ele>229.0</ele><time>2026-04-04T09:49:48.324Z</time></trkpt><trkpt lat="45.6403788" lon="9.4181808"><ele>229.0</ele><time>2026-04-04T09:49:50.325Z</time></trkpt><trkpt lat="45.6404798" lon="9.4180961"><ele>229.0</ele><time>2026-04-04T09:49:52.325Z</time></trkpt><trkpt lat="45.6405836" lon="9.4180072"><ele>229.0</ele><time>2026-04-04T09:49:54.325Z</time></trkpt><trkpt lat="45.6406708" lon="9.417889"><ele>229.0</ele><time>2026-04-04T09:49:56.325Z</time></trkpt><trkpt lat="45.6407352" lon="9.417759"><ele>228.99999999999997</ele><time>2026-04-04T09:49:58.325Z</time></trkpt><trkpt lat="45.6407727" lon="9.4176832"><ele>229.0</ele><time>2026-04-04T09:49:59.325Z</time></trkpt><trkpt lat="45.6408312" lon="9.4175382"><ele>229.0</ele><time>2026-04-04T09:50:01.325Z</time></trkpt><trkpt lat="45.6408869" lon="9.4173789"><ele>229.0</ele><time>2026-04-04T09:50:03.325Z</time></trkpt><trkpt lat="45.6409135" lon="9.417286"><ele>228.99999999999997</ele><time>2026-04-04T09:50:04.325Z</time></trkpt><trkpt lat="45.6409532" lon="9.4172141"><ele>229.0</ele><time>2026-04-04T09:50:05.325Z</time></trkpt><trkpt lat="45.6409955" lon="9.4170365"><ele>229.0</ele><time>2026-04-04T09:50:07.325Z</time></trkpt><trkpt lat="45.6410314" lon="9.4169591"><ele>229.0</ele><time>2026-04-04T09:50:08.325Z</time></trkpt><trkpt lat="45.6410621" lon="9.4168755"><ele>229.0</ele><time>2026-04-04T09:50:09.325Z</time></trkpt><trkpt lat="45.6410963" lon="9.4167872"><ele>229.0</ele><time>2026-04-04T09:50:10.325Z</time></trkpt><trkpt lat="45.6411344" lon="9.4166995"><ele>229.0</ele><time>2026-04-04T09:50:11.325Z</time></trkpt><trkpt lat="45.6411583" lon="9.4166148"><ele>229.0</ele><time>2026-04-04T09:50:12.325Z</time></trkpt><trkpt lat="45.6411796" lon="9.4165173"><ele>229.0</ele><time>2026-04-04T09:50:13.325Z</time></trkpt><trkpt lat="45.6412077" lon="9.4164263"><ele>229.0</ele><time>2026-04-04T09:50:14.325Z</time></trkpt><trkpt lat="45.6412742" lon="9.4163196"><ele>228.99999999999997</ele><time>2026-04-04T09:50:16.324Z</time></trkpt><trkpt lat="45.6413766" lon="9.4163328"><ele>228.99999999999997</ele><time>2026-04-04T09:50:18.325Z</time></trkpt><trkpt lat="45.641441" lon="9.4163685"><ele>229.0</ele><time>2026-04-04T09:50:19.325Z</time></trkpt><trkpt lat="45.6415508" lon="9.4164418"><ele>229.0</ele><time>2026-04-04T09:50:21.324Z</time></trkpt><trkpt lat="45.6416093" lon="9.4164776"><ele>228.99999999999997</ele><time>2026-04-04T09:50:22.324Z</time></trkpt><trkpt lat="45.6417164" lon="9.416543"><ele>229.0</ele><time>2026-04-04T09:50:24.325Z</time></trkpt><trkpt lat="45.6418201" lon="9.4166202"><ele>229.0</ele><time>2026-04-04T09:50:26.325Z</time></trkpt><trkpt lat="45.6418833" lon="9.4166525"><ele>229.0</ele><time>2026-04-04T09:50:27.324Z</time></trkpt><trkpt lat="45.6419428" lon="9.4166877"><ele>228.99999999999997</ele><time>2026-04-04T09:50:28.325Z</time></trkpt><trkpt lat="45.6419995" lon="9.4167327"><ele>229.0</ele><time>2026-04-04T09:50:29.325Z</time></trkpt><trkpt lat="45.64206" lon="9.4167689"><ele>229.0</ele><time>2026-04-04T09:50:30.325Z</time></trkpt><trkpt lat="45.6421697" lon="9.4168411"><ele>229.0</ele><time>2026-04-04T09:50:32.325Z</time></trkpt><trkpt lat="45.6422813" lon="9.4169187"><ele>229.0</ele><time>2026-04-04T09:50:34.324Z</time></trkpt><trkpt lat="45.6423913" lon="9.4169954"><ele>229.0</ele><time>2026-04-04T09:50:36.324Z</time></trkpt><trkpt lat="45.642505" lon="9.4170773"><ele>228.99999999999997</ele><time>2026-04-04T09:50:38.325Z</time></trkpt><trkpt lat="45.642567" lon="9.4171127"><ele>229.0</ele><time>2026-04-04T09:50:39.325Z</time></trkpt><trkpt lat="45.6426261" lon="9.4171505"><ele>229.0</ele><time>2026-04-04T09:50:40.325Z</time></trkpt><trkpt lat="45.6427366" lon="9.4172235"><ele>229.0</ele><time>2026-04-04T09:50:42.325Z</time></trkpt><trkpt lat="45.6427959" lon="9.4172628"><ele>228.99999999999997</ele><time>2026-04-04T09:50:43.325Z</time></trkpt><trkpt lat="45.6428529" lon="9.4173063"><ele>229.0</ele><time>2026-04-04T09:50:44.325Z</time></trkpt><trkpt lat="45.6429611" lon="9.4173838"><ele>228.99999999999997</ele><time>2026-04-04T09:50:46.325Z</time></trkpt><trkpt lat="45.643073" lon="9.4174481"><ele>229.0</ele><time>2026-04-04T09:50:48.325Z</time></trkpt><trkpt lat="45.6431305" lon="9.4174867"><ele>229.0</ele><time>2026-04-04T09:50:49.325Z</time></trkpt><trkpt lat="45.643189" lon="9.4175277"><ele>229.0</ele><time>2026-04-04T09:50:50.325Z</time></trkpt><trkpt lat="45.6432454" lon="9.4175686"><ele>228.99999999999997</ele><time>2026-04-04T09:50:51.325Z</time></trkpt><trkpt lat="45.6433565" lon="9.4176469"><ele>229.0</ele><time>2026-04-04T09:50:53.325Z</time></trkpt><trkpt lat="45.6434129" lon="9.4176877"><ele>229.0</ele><time>2026-04-04T09:50:54.325Z</time></trkpt><trkpt lat="45.643523" lon="9.4177617"><ele>228.99999999999997</ele><time>2026-04-04T09:50:56.325Z</time></trkpt><trkpt lat="45.6435839" lon="9.4177942"><ele>228.99999999999997</ele><time>2026-04-04T09:50:57.325Z</time></trkpt><trkpt lat="45.6436952" lon="9.4178726"><ele>229.0</ele><time>2026-04-04T09:50:59.325Z</time></trkpt><trkpt lat="45.6437566" lon="9.4179039"><ele>229.0</ele><time>2026-04-04T09:51:00.325Z</time></trkpt><trkpt lat="45.6438662" lon="9.4179802"><ele>228.79999999999998</ele><time>2026-04-04T09:51:02.324Z</time></trkpt><trkpt lat="45.6439247" lon="9.4180158"><ele>228.59999999999997</ele><time>2026-04-04T09:51:03.325Z</time></trkpt><trkpt lat="45.6440319" lon="9.4181022"><ele>228.4</ele><time>2026-04-04T09:51:05.324Z</time></trkpt><trkpt lat="45.6441028" lon="9.4182253"><ele>228.2</ele><time>2026-04-04T09:51:07.324Z</time></trkpt><trkpt lat="45.6441704" lon="9.4183791"><ele>228.0</ele><time>2026-04-04T09:51:09.325Z</time></trkpt><trkpt lat="45.6442247" lon="9.4185309"><ele>228.0</ele><time>2026-04-04T09:51:11.324Z</time></trkpt><trkpt lat="45.6442991" lon="9.4186984"><ele>228.0</ele><time>2026-04-04T09:51:13.325Z</time></trkpt><trkpt lat="45.644335" lon="9.4187797"><ele>228.0</ele><time>2026-04-04T09:51:14.324Z</time></trkpt><trkpt lat="45.6443655" lon="9.4188596"><ele>228.0</ele><time>2026-04-04T09:51:15.324Z</time></trkpt><trkpt lat="45.6444215" lon="9.4190124"><ele>228.0</ele><time>2026-04-04T09:51:17.325Z</time></trkpt><trkpt lat="45.6444481" lon="9.4190966"><ele>227.8</ele><time>2026-04-04T09:51:18.325Z</time></trkpt><trkpt lat="45.6445032" lon="9.4192522"><ele>227.60000000000002</ele><time>2026-04-04T09:51:20.324Z</time></trkpt><trkpt lat="45.64456" lon="9.4194211"><ele>227.39999999999998</ele><time>2026-04-04T09:51:22.325Z</time></trkpt><trkpt lat="45.6445911" lon="9.4195026"><ele>227.2</ele><time>2026-04-04T09:51:23.324Z</time></trkpt><trkpt lat="45.6446476" lon="9.4196583"><ele>227.0</ele><time>2026-04-04T09:51:25.325Z</time></trkpt><trkpt lat="45.6446975" lon="9.4198059"><ele>228.2</ele><time>2026-04-04T09:51:27.325Z</time></trkpt><trkpt lat="45.6447482" lon="9.4199524"><ele>229.39999999999998</ele><time>2026-04-04T09:51:29.325Z</time></trkpt><trkpt lat="45.6447943" lon="9.420079"><ele>230.60000000000002</ele><time>2026-04-04T09:51:31.324Z</time></trkpt><trkpt lat="45.6448367" lon="9.4202061"><ele>231.8</ele><time>2026-04-04T09:51:33.325Z</time></trkpt><trkpt lat="45.6448694" lon="9.4203115"><ele>233.0</ele><time>2026-04-04T09:51:35.325Z</time></trkpt><trkpt lat="45.6449189" lon="9.4204255"><ele>233.66666666666669</ele><time>2026-04-04T09:51:37.325Z</time></trkpt><trkpt lat="45.6449477" lon="9.4205231"><ele>234.33333333333334</ele><time>2026-04-04T09:51:39.325Z</time></trkpt><trkpt lat="45.6449876" lon="9.4206284"><ele>235.0</ele><time>2026-04-04T09:51:41.325Z</time></trkpt><trkpt lat="45.6450332" lon="9.4207388"><ele>235.66666666666669</ele><time>2026-04-04T09:51:43.325Z</time></trkpt><trkpt lat="45.6450779" lon="9.4208519"><ele>236.33333333333334</ele><time>2026-04-04T09:51:45.325Z</time></trkpt><trkpt lat="45.6451161" lon="9.4209576"><ele>237.0</ele><time>2026-04-04T09:51:47.325Z</time></trkpt><trkpt lat="45.6451528" lon="9.4210566"><ele>237.0</ele><time>2026-04-04T09:51:49.325Z</time></trkpt><trkpt lat="45.645202" lon="9.4211796"><ele>237.0</ele><time>2026-04-04T09:51:51.325Z</time></trkpt><trkpt lat="45.6452484" lon="9.4212871"><ele>237.0</ele><time>2026-04-04T09:51:54.791Z</time></trkpt><trkpt lat="45.6452748" lon="9.4213982"><ele>237.0</ele><time>2026-04-04T09:51:56.335Z</time></trkpt><trkpt lat="45.6453038" lon="9.4214935"><ele>237.0</ele><time>2026-04-04T09:51:58.348Z</time></trkpt><trkpt lat="45.6453445" lon="9.4216305"><ele>237.0</ele><time>2026-04-04T09:52:00.371Z</time></trkpt><trkpt lat="45.6453715" lon="9.4217645"><ele>236.6</ele><time>2026-04-04T09:52:02.372Z</time></trkpt><trkpt lat="45.6454142" lon="9.4218788"><ele>236.2</ele><time>2026-04-04T09:52:04.348Z</time></trkpt><trkpt lat="45.6454639" lon="9.4219791"><ele>235.8</ele><time>2026-04-04T09:52:06.268Z</time></trkpt><trkpt lat="45.6455214" lon="9.4220728"><ele>235.4</ele><time>2026-04-04T09:52:08.334Z</time></trkpt><trkpt lat="45.6455915" lon="9.4221739"><ele>235.0</ele><time>2026-04-04T09:52:10.334Z</time></trkpt><trkpt lat="45.6456738" lon="9.4222603"><ele>235.0</ele><time>2026-04-04T09:52:12.334Z</time></trkpt><trkpt lat="45.6457595" lon="9.422332"><ele>235.0</ele><time>2026-04-04T09:52:14.334Z</time></trkpt><trkpt lat="45.6458508" lon="9.4224072"><ele>235.0</ele><time>2026-04-04T09:52:16.334Z</time></trkpt><trkpt lat="45.6459448" lon="9.422494"><ele>235.0</ele><time>2026-04-04T09:52:18.334Z</time></trkpt><trkpt lat="45.6460426" lon="9.4225735"><ele>235.0</ele><time>2026-04-04T09:52:20.334Z</time></trkpt><trkpt lat="45.6461376" lon="9.4226556"><ele>235.0</ele><time>2026-04-04T09:52:22.334Z</time></trkpt><trkpt lat="45.6461906" lon="9.4227188"><ele>235.0</ele><time>2026-04-04T09:52:23.334Z</time></trkpt><trkpt lat="45.6462942" lon="9.4227968"><ele>235.0</ele><time>2026-04-04T09:52:25.334Z</time></trkpt><trkpt lat="45.6463905" lon="9.4228791"><ele>235.0</ele><time>2026-04-04T09:52:27.334Z</time></trkpt><trkpt lat="45.6464785" lon="9.4229511"><ele>235.0</ele><time>2026-04-04T09:52:29.334Z</time></trkpt><trkpt lat="45.6465321" lon="9.4230015"><ele>235.6</ele><time>2026-04-04T09:52:30.334Z</time></trkpt><trkpt lat="45.6466356" lon="9.4230878"><ele>236.2</ele><time>2026-04-04T09:52:32.334Z</time></trkpt><trkpt lat="45.6467455" lon="9.4231667"><ele>236.8</ele><time>2026-04-04T09:52:34.334Z</time></trkpt><trkpt lat="45.646799" lon="9.4232154"><ele>237.4</ele><time>2026-04-04T09:52:35.334Z</time></trkpt><trkpt lat="45.6468542" lon="9.4232627"><ele>238.0</ele><time>2026-04-04T09:52:36.333Z</time></trkpt><trkpt lat="45.6469655" lon="9.4233528"><ele>238.0</ele><time>2026-04-04T09:52:38.334Z</time></trkpt><trkpt lat="45.6470667" lon="9.423434"><ele>238.0</ele><time>2026-04-04T09:52:40.334Z</time></trkpt><trkpt lat="45.647179" lon="9.423488"><ele>238.0</ele><time>2026-04-04T09:52:42.333Z</time></trkpt><trkpt lat="45.6473041" lon="9.4235125"><ele>238.0</ele><time>2026-04-04T09:52:44.333Z</time></trkpt><trkpt lat="45.6474321" lon="9.4235057"><ele>238.0</ele><time>2026-04-04T09:52:46.333Z</time></trkpt><trkpt lat="45.6474995" lon="9.4234977"><ele>238.0</ele><time>2026-04-04T09:52:47.334Z</time></trkpt><trkpt lat="45.6475678" lon="9.4234907"><ele>238.0</ele><time>2026-04-04T09:52:48.334Z</time></trkpt><trkpt lat="45.6476399" lon="9.4234806"><ele>238.0</ele><time>2026-04-04T09:52:49.334Z</time></trkpt><trkpt lat="45.6477131" lon="9.4234721"><ele>238.0</ele><time>2026-04-04T09:52:50.333Z</time></trkpt><trkpt lat="45.6477876" lon="9.4234744"><ele>238.0</ele><time>2026-04-04T09:52:51.334Z</time></trkpt><trkpt lat="45.6478698" lon="9.4234916"><ele>238.0</ele><time>2026-04-04T09:52:52.334Z</time></trkpt><trkpt lat="45.6479427" lon="9.4234849"><ele>237.85714285714286</ele><time>2026-04-04T09:52:53.333Z</time></trkpt><trkpt lat="45.648015" lon="9.423483"><ele>237.71428571428572</ele><time>2026-04-04T09:52:54.334Z</time></trkpt><trkpt lat="45.6480906" lon="9.4234735"><ele>237.57142857142856</ele><time>2026-04-04T09:52:55.334Z</time></trkpt><trkpt lat="45.6481629" lon="9.4234709"><ele>237.42857142857142</ele><time>2026-04-04T09:52:56.334Z</time></trkpt><trkpt lat="45.6482326" lon="9.42347"><ele>237.28571428571428</ele><time>2026-04-04T09:52:57.334Z</time></trkpt><trkpt lat="45.6483051" lon="9.4234702"><ele>237.1428571428571</ele><time>2026-04-04T09:52:58.334Z</time></trkpt><trkpt lat="45.6483793" lon="9.4234683"><ele>236.99999999999997</ele><time>2026-04-04T09:52:59.334Z</time></trkpt><trkpt lat="45.6484497" lon="9.4234588"><ele>237.0</ele><time>2026-04-04T09:53:00.334Z</time></trkpt><trkpt lat="45.6485167" lon="9.4234522"><ele>237.0</ele><time>2026-04-04T09:53:01.333Z</time></trkpt><trkpt lat="45.6485921" lon="9.4234532"><ele>237.0</ele><time>2026-04-04T09:53:02.334Z</time></trkpt><trkpt lat="45.6486615" lon="9.4234542"><ele>237.0</ele><time>2026-04-04T09:53:03.334Z</time></trkpt><trkpt lat="45.6487289" lon="9.4234612"><ele>237.0</ele><time>2026-04-04T09:53:04.333Z</time></trkpt><trkpt lat="45.6487927" lon="9.4234639"><ele>237.0</ele><time>2026-04-04T09:53:05.333Z</time></trkpt><trkpt lat="45.648895" lon="9.4234157"><ele>237.0</ele><time>2026-04-04T09:53:07.334Z</time></trkpt><trkpt lat="45.6489253" lon="9.4232681"><ele>237.0</ele><time>2026-04-04T09:53:09.334Z</time></trkpt><trkpt lat="45.6489231" lon="9.4231692"><ele>237.0</ele><time>2026-04-04T09:53:10.334Z</time></trkpt><trkpt lat="45.6489114" lon="9.4229866"><ele>237.0</ele><time>2026-04-04T09:53:12.334Z</time></trkpt><trkpt lat="45.6489122" lon="9.422896"><ele>237.0</ele><time>2026-04-04T09:53:13.334Z</time></trkpt><trkpt lat="45.6489072" lon="9.4228017"><ele>237.0</ele><time>2026-04-04T09:53:14.334Z</time></trkpt><trkpt lat="45.6489036" lon="9.422705"><ele>236.16666666666666</ele><time>2026-04-04T09:53:15.334Z</time></trkpt><trkpt lat="45.6488968" lon="9.4226027"><ele>235.33333333333331</ele><time>2026-04-04T09:53:16.333Z</time></trkpt><trkpt lat="45.6489031" lon="9.4225115"><ele>234.5</ele><time>2026-04-04T09:53:17.334Z</time></trkpt><trkpt lat="45.6489182" lon="9.4223511"><ele>233.66666666666666</ele><time>2026-04-04T09:53:19.334Z</time></trkpt><trkpt lat="45.6489721" lon="9.4222622"><ele>232.83333333333331</ele><time>2026-04-04T09:53:21.334Z</time></trkpt><trkpt lat="45.6490666" lon="9.4222499"><ele>232.0</ele><time>2026-04-04T09:53:23.334Z</time></trkpt><trkpt lat="45.6491673" lon="9.4222539"><ele>232.0</ele><time>2026-04-04T09:53:25.334Z</time></trkpt><trkpt lat="45.6492719" lon="9.422263"><ele>232.0</ele><time>2026-04-04T09:53:27.334Z</time></trkpt><trkpt lat="45.6493898" lon="9.4222784"><ele>232.0</ele><time>2026-04-04T09:53:29.333Z</time></trkpt><trkpt lat="45.6495049" lon="9.4222859"><ele>232.0</ele><time>2026-04-04T09:53:31.334Z</time></trkpt><trkpt lat="45.6496198" lon="9.422299"><ele>232.39999999999998</ele><time>2026-04-04T09:53:33.333Z</time></trkpt><trkpt lat="45.6497336" lon="9.4223383"><ele>232.79999999999998</ele><time>2026-04-04T09:53:35.333Z</time></trkpt><trkpt lat="45.6498368" lon="9.422371"><ele>233.2</ele><time>2026-04-04T09:53:37.334Z</time></trkpt><trkpt lat="45.6499416" lon="9.4223952"><ele>233.6</ele><time>2026-04-04T09:53:39.334Z</time></trkpt><trkpt lat="45.6500376" lon="9.4224239"><ele>234.0</ele><time>2026-04-04T09:53:41.334Z</time></trkpt><trkpt lat="45.6501332" lon="9.4224452"><ele>234.0</ele><time>2026-04-04T09:53:43.334Z</time></trkpt><trkpt lat="45.6502316" lon="9.4224093"><ele>233.99999999999997</ele><time>2026-04-04T09:53:45.334Z</time></trkpt><trkpt lat="45.6503464" lon="9.4223663"><ele>233.99999999999997</ele><time>2026-04-04T09:53:47.334Z</time></trkpt><trkpt lat="45.6504308" lon="9.4223683"><ele>234.0</ele><time>2026-04-04T09:53:48.333Z</time></trkpt><trkpt lat="45.6504997" lon="9.4223832"><ele>234.0</ele><time>2026-04-04T09:53:49.334Z</time></trkpt><trkpt lat="45.6506211" lon="9.422407"><ele>233.79999999999998</ele><time>2026-04-04T09:53:51.334Z</time></trkpt><trkpt lat="45.6506853" lon="9.422429"><ele>233.59999999999997</ele><time>2026-04-04T09:53:52.334Z</time></trkpt><trkpt lat="45.6507475" lon="9.4224467"><ele>233.4</ele><time>2026-04-04T09:53:53.334Z</time></trkpt><trkpt lat="45.6508626" lon="9.4224637"><ele>233.2</ele><time>2026-04-04T09:53:55.333Z</time></trkpt><trkpt lat="45.6509837" lon="9.422489"><ele>233.0</ele><time>2026-04-04T09:53:57.334Z</time></trkpt><trkpt lat="45.6511002" lon="9.4224996"><ele>232.8</ele><time>2026-04-04T09:53:59.334Z</time></trkpt><trkpt lat="45.651204" lon="9.4225241"><ele>232.60000000000002</ele><time>2026-04-04T09:54:01.334Z</time></trkpt><trkpt lat="45.6513168" lon="9.422567"><ele>232.39999999999998</ele><time>2026-04-04T09:54:03.334Z</time></trkpt><trkpt lat="45.6514075" lon="9.4225134"><ele>232.2</ele><time>2026-04-04T09:54:05.334Z</time></trkpt><trkpt lat="45.6514283" lon="9.422417"><ele>232.0</ele><time>2026-04-04T09:54:07.333Z</time></trkpt><trkpt lat="45.6514661" lon="9.4222788"><ele>232.8</ele><time>2026-04-04T09:54:09.334Z</time></trkpt><trkpt lat="45.6515189" lon="9.4221309"><ele>233.6</ele><time>2026-04-04T09:54:11.334Z</time></trkpt><trkpt lat="45.6515459" lon="9.422028"><ele>234.40000000000003</ele><time>2026-04-04T09:54:12.334Z</time></trkpt><trkpt lat="45.6515643" lon="9.42187"><ele>235.20000000000002</ele><time>2026-04-04T09:54:14.334Z</time></trkpt><trkpt lat="45.6515722" lon="9.4217791"><ele>236.0</ele><time>2026-04-04T09:54:15.334Z</time></trkpt><trkpt lat="45.6515978" lon="9.4216576"><ele>236.00000000000003</ele><time>2026-04-04T09:54:17.334Z</time></trkpt><trkpt lat="45.6516396" lon="9.4215393"><ele>236.0</ele><time>2026-04-04T09:54:20.334Z</time></trkpt><trkpt lat="45.6517208" lon="9.4215421"><ele>236.0</ele><time>2026-04-04T09:54:22.334Z</time></trkpt><trkpt lat="45.6517837" lon="9.4215807"><ele>236.0</ele><time>2026-04-04T09:54:25.334Z</time></trkpt><trkpt lat="45.6518594" lon="9.4216022"><ele>236.00000000000003</ele><time>2026-04-04T09:54:27.334Z</time></trkpt><trkpt lat="45.6519474" lon="9.4216251"><ele>236.0</ele><time>2026-04-04T09:54:29.333Z</time></trkpt><trkpt lat="45.6520278" lon="9.4216731"><ele>236.33333333333334</ele><time>2026-04-04T09:54:31.334Z</time></trkpt><trkpt lat="45.6521355" lon="9.4217282"><ele>236.66666666666669</ele><time>2026-04-04T09:54:33.334Z</time></trkpt><trkpt lat="45.652223" lon="9.4217437"><ele>237.0</ele><time>2026-04-04T09:54:35.334Z</time></trkpt><trkpt lat="45.6522848" lon="9.4217753"><ele>237.33333333333331</ele><time>2026-04-04T09:54:37.334Z</time></trkpt><trkpt lat="45.6523515" lon="9.4218001"><ele>237.66666666666666</ele><time>2026-04-04T09:54:39.334Z</time></trkpt><trkpt lat="45.6524226" lon="9.4218149"><ele>238.0</ele><time>2026-04-04T09:54:41.334Z</time></trkpt><trkpt lat="45.6524882" lon="9.4218269"><ele>238.0</ele><time>2026-04-04T09:54:43.333Z</time></trkpt><trkpt lat="45.652595" lon="9.4218679"><ele>238.0</ele><time>2026-04-04T09:54:45.334Z</time></trkpt><trkpt lat="45.6527153" lon="9.4218574"><ele>238.0</ele><time>2026-04-04T09:54:47.334Z</time></trkpt><trkpt lat="45.6528213" lon="9.4218591"><ele>238.0</ele><time>2026-04-04T09:54:49.334Z</time></trkpt><trkpt lat="45.6529115" lon="9.4218657"><ele>238.0</ele><time>2026-04-04T09:54:51.334Z</time></trkpt><trkpt lat="45.6530281" lon="9.4218597"><ele>237.8</ele><time>2026-04-04T09:54:53.333Z</time></trkpt><trkpt lat="45.6530913" lon="9.4218583"><ele>237.60000000000002</ele><time>2026-04-04T09:54:54.333Z</time></trkpt><trkpt lat="45.6531554" lon="9.4218456"><ele>237.39999999999998</ele><time>2026-04-04T09:54:55.334Z</time></trkpt><trkpt lat="45.6532574" lon="9.421803"><ele>237.2</ele><time>2026-04-04T09:54:57.334Z</time></trkpt><trkpt lat="45.6533824" lon="9.4218037"><ele>237.0</ele><time>2026-04-04T09:54:59.334Z</time></trkpt><trkpt lat="45.6534753" lon="9.4218172"><ele>237.0</ele><time>2026-04-04T09:55:01.333Z</time></trkpt><trkpt lat="45.6535699" lon="9.4218231"><ele>237.0</ele><time>2026-04-04T09:55:03.334Z</time></trkpt><trkpt lat="45.6536401" lon="9.4218195"><ele>237.0</ele><time>2026-04-04T09:55:04.334Z</time></trkpt><trkpt lat="45.6537176" lon="9.421819"><ele>237.0</ele><time>2026-04-04T09:55:05.334Z</time></trkpt><trkpt lat="45.6538031" lon="9.4217924"><ele>237.0</ele><time>2026-04-04T09:55:07.333Z</time></trkpt><trkpt lat="45.6539074" lon="9.421754"><ele>237.0</ele><time>2026-04-04T09:55:09.334Z</time></trkpt><trkpt lat="45.6539943" lon="9.4217251"><ele>236.83333333333334</ele><time>2026-04-04T09:55:11.333Z</time></trkpt><trkpt lat="45.6540564" lon="9.421708"><ele>236.66666666666669</ele><time>2026-04-04T09:55:13.334Z</time></trkpt><trkpt lat="45.6541404" lon="9.4216901"><ele>236.5</ele><time>2026-04-04T09:55:15.334Z</time></trkpt><trkpt lat="45.6542017" lon="9.4216653"><ele>236.33333333333334</ele><time>2026-04-04T09:55:16.334Z</time></trkpt><trkpt lat="45.6542909" lon="9.421634"><ele>236.16666666666669</ele><time>2026-04-04T09:55:18.334Z</time></trkpt><trkpt lat="45.6544007" lon="9.4216174"><ele>236.0</ele><time>2026-04-04T09:55:20.333Z</time></trkpt><trkpt lat="45.6545035" lon="9.4216019"><ele>236.00000000000003</ele><time>2026-04-04T09:55:22.334Z</time></trkpt><trkpt lat="45.6545753" lon="9.4216013"><ele>236.0</ele><time>2026-04-04T09:55:23.334Z</time></trkpt><trkpt lat="45.6546527" lon="9.4216175"><ele>236.0</ele><time>2026-04-04T09:55:24.334Z</time></trkpt><trkpt lat="45.6547376" lon="9.421637"><ele>236.0</ele><time>2026-04-04T09:55:25.334Z</time></trkpt><trkpt lat="45.6548477" lon="9.4216799"><ele>236.00000000000003</ele><time>2026-04-04T09:55:27.334Z</time></trkpt><trkpt lat="45.6549337" lon="9.4217134"><ele>236.0</ele><time>2026-04-04T09:55:29.334Z</time></trkpt><trkpt lat="45.6550326" lon="9.421753"><ele>236.00000000000003</ele><time>2026-04-04T09:55:31.334Z</time></trkpt><trkpt lat="45.6550884" lon="9.4217989"><ele>236.0</ele><time>2026-04-04T09:55:32.334Z</time></trkpt><trkpt lat="45.6551472" lon="9.421845"><ele>236.0</ele><time>2026-04-04T09:55:33.334Z</time></trkpt><trkpt lat="45.6552066" lon="9.4218804"><ele>236.0</ele><time>2026-04-04T09:55:34.334Z</time></trkpt><trkpt lat="45.655281" lon="9.4219082"><ele>236.00000000000003</ele><time>2026-04-04T09:55:35.334Z</time></trkpt><trkpt lat="45.6553965" lon="9.4219521"><ele>236.0</ele><time>2026-04-04T09:55:37.334Z</time></trkpt><trkpt lat="45.6554717" lon="9.4219936"><ele>235.85714285714283</ele><time>2026-04-04T09:55:38.334Z</time></trkpt><trkpt lat="45.6555302" lon="9.422035"><ele>235.71428571428572</ele><time>2026-04-04T09:55:39.334Z</time></trkpt><trkpt lat="45.6555818" lon="9.4220926"><ele>235.57142857142856</ele><time>2026-04-04T09:55:40.333Z</time></trkpt><trkpt lat="45.6556429" lon="9.422133"><ele>235.42857142857142</ele><time>2026-04-04T09:55:41.334Z</time></trkpt><trkpt lat="45.6557471" lon="9.422207"><ele>235.28571428571428</ele><time>2026-04-04T09:55:43.333Z</time></trkpt><trkpt lat="45.6558119" lon="9.4222445"><ele>235.14285714285714</ele><time>2026-04-04T09:55:44.334Z</time></trkpt><trkpt lat="45.6558719" lon="9.4222764"><ele>235.0</ele><time>2026-04-04T09:55:45.334Z</time></trkpt><trkpt lat="45.6559955" lon="9.4223435"><ele>234.99999999999997</ele><time>2026-04-04T09:55:47.333Z</time></trkpt><trkpt lat="45.6560582" lon="9.4223664"><ele>235.0</ele><time>2026-04-04T09:55:48.334Z</time></trkpt><trkpt lat="45.656116" lon="9.4224053"><ele>235.0</ele><time>2026-04-04T09:55:49.334Z</time></trkpt><trkpt lat="45.6562353" lon="9.4224486"><ele>235.0</ele><time>2026-04-04T09:55:51.334Z</time></trkpt><trkpt lat="45.6562986" lon="9.4224707"><ele>234.99999999999997</ele><time>2026-04-04T09:55:52.334Z</time></trkpt><trkpt lat="45.6564109" lon="9.4225283"><ele>235.0</ele><time>2026-04-04T09:55:54.334Z</time></trkpt><trkpt lat="45.6565361" lon="9.4225958"><ele>235.16666666666666</ele><time>2026-04-04T09:55:56.334Z</time></trkpt><trkpt lat="45.6566515" lon="9.4226702"><ele>235.33333333333331</ele><time>2026-04-04T09:55:58.334Z</time></trkpt><trkpt lat="45.656712" lon="9.422697"><ele>235.5</ele><time>2026-04-04T09:55:59.334Z</time></trkpt><trkpt lat="45.6568071" lon="9.4227542"><ele>235.66666666666669</ele><time>2026-04-04T09:56:01.333Z</time></trkpt><trkpt lat="45.6568683" lon="9.4227841"><ele>235.83333333333334</ele><time>2026-04-04T09:56:02.334Z</time></trkpt><trkpt lat="45.6569322" lon="9.4227994"><ele>236.0</ele><time>2026-04-04T09:56:03.334Z</time></trkpt><trkpt lat="45.6569985" lon="9.4228189"><ele>236.20000000000002</ele><time>2026-04-04T09:56:04.334Z</time></trkpt><trkpt lat="45.6571132" lon="9.4228691"><ele>236.40000000000003</ele><time>2026-04-04T09:56:06.334Z</time></trkpt><trkpt lat="45.6572317" lon="9.4229063"><ele>236.6</ele><time>2026-04-04T09:56:08.333Z</time></trkpt><trkpt lat="45.6572934" lon="9.4229254"><ele>236.8</ele><time>2026-04-04T09:56:09.334Z</time></trkpt><trkpt lat="45.6574201" lon="9.4229536"><ele>237.0</ele><time>2026-04-04T09:56:11.334Z</time></trkpt><trkpt lat="45.6575401" lon="9.4229637"><ele>237.0</ele><time>2026-04-04T09:56:13.334Z</time></trkpt><trkpt lat="45.657658" lon="9.4229674"><ele>237.0</ele><time>2026-04-04T09:56:15.334Z</time></trkpt><trkpt lat="45.6577689" lon="9.4229651"><ele>237.0</ele><time>2026-04-04T09:56:17.334Z</time></trkpt><trkpt lat="45.6578872" lon="9.422996"><ele>237.0</ele><time>2026-04-04T09:56:19.334Z</time></trkpt><trkpt lat="45.6579981" lon="9.4230374"><ele>236.66666666666666</ele><time>2026-04-04T09:56:21.334Z</time></trkpt><trkpt lat="45.6581066" lon="9.4231009"><ele>236.33333333333331</ele><time>2026-04-04T09:56:23.334Z</time></trkpt><trkpt lat="45.6582168" lon="9.4231877"><ele>236.0</ele><time>2026-04-04T09:56:25.334Z</time></trkpt><trkpt lat="45.6582703" lon="9.423238"><ele>235.66666666666666</ele><time>2026-04-04T09:56:26.334Z</time></trkpt><trkpt lat="45.658331" lon="9.4232994"><ele>235.33333333333331</ele><time>2026-04-04T09:56:27.334Z</time></trkpt><trkpt lat="45.6583849" lon="9.4233509"><ele>235.0</ele><time>2026-04-04T09:56:28.334Z</time></trkpt><trkpt lat="45.6584389" lon="9.4234025"><ele>235.0</ele><time>2026-04-04T09:56:29.334Z</time></trkpt><trkpt lat="45.6584966" lon="9.4234457"><ele>235.0</ele><time>2026-04-04T09:56:30.334Z</time></trkpt><trkpt lat="45.6585516" lon="9.4234976"><ele>235.0</ele><time>2026-04-04T09:56:31.334Z</time></trkpt><trkpt lat="45.6586476" lon="9.4235857"><ele>235.0</ele><time>2026-04-04T09:56:33.334Z</time></trkpt><trkpt lat="45.6587504" lon="9.423687"><ele>235.0</ele><time>2026-04-04T09:56:35.334Z</time></trkpt><trkpt lat="45.6588444" lon="9.4237705"><ele>235.0</ele><time>2026-04-04T09:56:37.333Z</time></trkpt><trkpt lat="45.658939" lon="9.4238731"><ele>235.0</ele><time>2026-04-04T09:56:39.334Z</time></trkpt><trkpt lat="45.6590195" lon="9.4239632"><ele>235.0</ele><time>2026-04-04T09:56:41.334Z</time></trkpt><trkpt lat="45.6590746" lon="9.4240694"><ele>235.0</ele><time>2026-04-04T09:56:43.334Z</time></trkpt><trkpt lat="45.6590769" lon="9.4241802"><ele>235.0</ele><time>2026-04-04T09:56:45.334Z</time></trkpt><trkpt lat="45.6590339" lon="9.4242925"><ele>235.0</ele><time>2026-04-04T09:56:47.333Z</time></trkpt><trkpt lat="45.6590138" lon="9.424393"><ele>235.0</ele><time>2026-04-04T09:56:49.334Z</time></trkpt><trkpt lat="45.6590668" lon="9.4245232"><ele>235.0</ele><time>2026-04-04T09:56:51.334Z</time></trkpt><trkpt lat="45.6591436" lon="9.4246144"><ele>235.0</ele><time>2026-04-04T09:56:53.334Z</time></trkpt><trkpt lat="45.659228" lon="9.4247029"><ele>235.0</ele><time>2026-04-04T09:56:55.333Z</time></trkpt><trkpt lat="45.6593059" lon="9.4248049"><ele>234.8</ele><time>2026-04-04T09:56:57.334Z</time></trkpt><trkpt lat="45.6593867" lon="9.4249242"><ele>234.6</ele><time>2026-04-04T09:56:59.333Z</time></trkpt><trkpt lat="45.6594801" lon="9.4250179"><ele>234.39999999999998</ele><time>2026-04-04T09:57:01.333Z</time></trkpt><trkpt lat="45.6595355" lon="9.4250692"><ele>234.2</ele><time>2026-04-04T09:57:02.333Z</time></trkpt><trkpt lat="45.659641" lon="9.4251499"><ele>234.0</ele><time>2026-04-04T09:57:04.334Z</time></trkpt><trkpt lat="45.6597411" lon="9.425227"><ele>234.5</ele><time>2026-04-04T09:57:06.334Z</time></trkpt><trkpt lat="45.6598378" lon="9.425314"><ele>235.0</ele><time>2026-04-04T09:57:08.334Z</time></trkpt><trkpt lat="45.6599308" lon="9.4254157"><ele>235.5</ele><time>2026-04-04T09:57:10.334Z</time></trkpt><trkpt lat="45.6600328" lon="9.4254998"><ele>236.0</ele><time>2026-04-04T09:57:12.333Z</time></trkpt><trkpt lat="45.6601358" lon="9.4255814"><ele>236.0</ele><time>2026-04-04T09:57:14.334Z</time></trkpt><trkpt lat="45.6602381" lon="9.4256706"><ele>236.0</ele><time>2026-04-04T09:57:16.334Z</time></trkpt><trkpt lat="45.6603323" lon="9.4257689"><ele>236.0</ele><time>2026-04-04T09:57:18.334Z</time></trkpt><trkpt lat="45.6604324" lon="9.4258671"><ele>236.0</ele><time>2026-04-04T09:57:20.333Z</time></trkpt><trkpt lat="45.6605298" lon="9.425965"><ele>236.0</ele><time>2026-04-04T09:57:22.333Z</time></trkpt><trkpt lat="45.6606241" lon="9.4260603"><ele>236.00000000000003</ele><time>2026-04-04T09:57:24.334Z</time></trkpt><trkpt lat="45.660719" lon="9.4261538"><ele>236.00000000000003</ele><time>2026-04-04T09:57:26.334Z</time></trkpt><trkpt lat="45.6608153" lon="9.4262557"><ele>236.0</ele><time>2026-04-04T09:57:28.334Z</time></trkpt><trkpt lat="45.6608623" lon="9.4263176"><ele>236.0</ele><time>2026-04-04T09:57:29.333Z</time></trkpt><trkpt lat="45.6609517" lon="9.4264114"><ele>236.0</ele><time>2026-04-04T09:57:31.333Z</time></trkpt><trkpt lat="45.6610474" lon="9.4265137"><ele>236.0</ele><time>2026-04-04T09:57:33.334Z</time></trkpt><trkpt lat="45.6611385" lon="9.4266043"><ele>236.0</ele><time>2026-04-04T09:57:35.333Z</time></trkpt><trkpt lat="45.6612366" lon="9.4267027"><ele>236.0</ele><time>2026-04-04T09:57:37.334Z</time></trkpt><trkpt lat="45.6613336" lon="9.4267848"><ele>236.20000000000002</ele><time>2026-04-04T09:57:39.333Z</time></trkpt><trkpt lat="45.6614358" lon="9.4268477"><ele>236.40000000000003</ele><time>2026-04-04T09:57:41.334Z</time></trkpt><trkpt lat="45.6614894" lon="9.4268968"><ele>236.6</ele><time>2026-04-04T09:57:42.334Z</time></trkpt><trkpt lat="45.6615906" lon="9.4269869"><ele>236.8</ele><time>2026-04-04T09:57:44.333Z</time></trkpt><trkpt lat="45.6616962" lon="9.4270815"><ele>237.0</ele><time>2026-04-04T09:57:46.334Z</time></trkpt><trkpt lat="45.6617958" lon="9.4271775"><ele>237.0</ele><time>2026-04-04T09:57:48.334Z</time></trkpt><trkpt lat="45.6618502" lon="9.4272303"><ele>237.0</ele><time>2026-04-04T09:57:49.334Z</time></trkpt><trkpt lat="45.6619526" lon="9.4273247"><ele>237.0</ele><time>2026-04-04T09:57:51.333Z</time></trkpt><trkpt lat="45.6620412" lon="9.4274169"><ele>237.0</ele><time>2026-04-04T09:57:53.334Z</time></trkpt><trkpt lat="45.6621217" lon="9.4275306"><ele>237.0</ele><time>2026-04-04T09:57:55.334Z</time></trkpt><trkpt lat="45.6622053" lon="9.4276306"><ele>237.0</ele><time>2026-04-04T09:57:57.333Z</time></trkpt><trkpt lat="45.6622935" lon="9.4277264"><ele>237.0</ele><time>2026-04-04T09:57:59.334Z</time></trkpt><trkpt lat="45.6623879" lon="9.4278282"><ele>237.0</ele><time>2026-04-04T09:58:01.334Z</time></trkpt><trkpt lat="45.6624915" lon="9.4279235"><ele>237.0</ele><time>2026-04-04T09:58:03.334Z</time></trkpt><trkpt lat="45.6625836" lon="9.4280051"><ele>237.5</ele><time>2026-04-04T09:58:05.334Z</time></trkpt><trkpt lat="45.6626837" lon="9.4280858"><ele>238.0</ele><time>2026-04-04T09:58:07.334Z</time></trkpt><trkpt lat="45.6627817" lon="9.4281685"><ele>238.5</ele><time>2026-04-04T09:58:09.334Z</time></trkpt><trkpt lat="45.6628837" lon="9.4282483"><ele>239.0</ele><time>2026-04-04T09:58:11.334Z</time></trkpt><trkpt lat="45.6629694" lon="9.4283435"><ele>239.0</ele><time>2026-04-04T09:58:13.333Z</time></trkpt><trkpt lat="45.6630132" lon="9.4284877"><ele>238.99999999999997</ele><time>2026-04-04T09:58:15.333Z</time></trkpt><trkpt lat="45.6630634" lon="9.428629"><ele>238.99999999999997</ele><time>2026-04-04T09:58:17.334Z</time></trkpt><trkpt lat="45.6631643" lon="9.4286839"><ele>239.0</ele><time>2026-04-04T09:58:19.333Z</time></trkpt><trkpt lat="45.6632788" lon="9.4287304"><ele>239.0</ele><time>2026-04-04T09:58:21.334Z</time></trkpt><trkpt lat="45.6633916" lon="9.4287991"><ele>239.2</ele><time>2026-04-04T09:58:23.334Z</time></trkpt><trkpt lat="45.6634951" lon="9.4288825"><ele>239.39999999999998</ele><time>2026-04-04T09:58:25.334Z</time></trkpt><trkpt lat="45.6636004" lon="9.4289672"><ele>239.6</ele><time>2026-04-04T09:58:27.334Z</time></trkpt><trkpt lat="45.6636565" lon="9.4290085"><ele>239.8</ele><time>2026-04-04T09:58:28.334Z</time></trkpt><trkpt lat="45.6637558" lon="9.4291102"><ele>240.0</ele><time>2026-04-04T09:58:30.334Z</time></trkpt><trkpt lat="45.6638585" lon="9.4292104"><ele>239.6</ele><time>2026-04-04T09:58:32.334Z</time></trkpt><trkpt lat="45.66396" lon="9.4293001"><ele>239.2</ele><time>2026-04-04T09:58:34.334Z</time></trkpt><trkpt lat="45.6640607" lon="9.4294029"><ele>238.8</ele><time>2026-04-04T09:58:36.334Z</time></trkpt><trkpt lat="45.6641625" lon="9.4295025"><ele>238.4</ele><time>2026-04-04T09:58:38.333Z</time></trkpt><trkpt lat="45.6642151" lon="9.4295529"><ele>238.0</ele><time>2026-04-04T09:58:39.334Z</time></trkpt><trkpt lat="45.6642697" lon="9.4296087"><ele>238.49999999999997</ele><time>2026-04-04T09:58:40.334Z</time></trkpt><trkpt lat="45.664323" lon="9.4296621"><ele>239.0</ele><time>2026-04-04T09:58:41.334Z</time></trkpt><trkpt lat="45.664422" lon="9.4297612"><ele>239.5</ele><time>2026-04-04T09:58:43.334Z</time></trkpt><trkpt lat="45.6645208" lon="9.4298595"><ele>240.0</ele><time>2026-04-04T09:58:45.334Z</time></trkpt><trkpt lat="45.6645751" lon="9.4299103"><ele>240.49999999999997</ele><time>2026-04-04T09:58:46.334Z</time></trkpt><trkpt lat="45.664629" lon="9.4299569"><ele>241.0</ele><time>2026-04-04T09:58:47.334Z</time></trkpt><trkpt lat="45.6647295" lon="9.4300538"><ele>240.99999999999997</ele><time>2026-04-04T09:58:49.334Z</time></trkpt><trkpt lat="45.664783" lon="9.4301023"><ele>241.0</ele><time>2026-04-04T09:58:50.333Z</time></trkpt><trkpt lat="45.6648871" lon="9.4301994"><ele>241.0</ele><time>2026-04-04T09:58:52.334Z</time></trkpt><trkpt lat="45.6649377" lon="9.4302535"><ele>241.0</ele><time>2026-04-04T09:58:53.334Z</time></trkpt><trkpt lat="45.6649918" lon="9.4303023"><ele>240.99999999999997</ele><time>2026-04-04T09:58:54.334Z</time></trkpt><trkpt lat="45.6650917" lon="9.4303979"><ele>241.0</ele><time>2026-04-04T09:58:56.334Z</time></trkpt><trkpt lat="45.6651974" lon="9.4305053"><ele>241.20000000000002</ele><time>2026-04-04T09:58:58.334Z</time></trkpt><trkpt lat="45.6652969" lon="9.4306062"><ele>241.40000000000003</ele><time>2026-04-04T09:59:00.334Z</time></trkpt><trkpt lat="45.665395" lon="9.4307043"><ele>241.6</ele><time>2026-04-04T09:59:02.334Z</time></trkpt><trkpt lat="45.6654935" lon="9.430803"><ele>241.8</ele><time>2026-04-04T09:59:04.334Z</time></trkpt><trkpt lat="45.6655489" lon="9.4308532"><ele>242.0</ele><time>2026-04-04T09:59:05.334Z</time></trkpt><trkpt lat="45.6656037" lon="9.430908"><ele>242.00000000000003</ele><time>2026-04-04T09:59:06.334Z</time></trkpt><trkpt lat="45.6656606" lon="9.4309575"><ele>242.0</ele><time>2026-04-04T09:59:07.333Z</time></trkpt><trkpt lat="45.665763" lon="9.4310571"><ele>242.0</ele><time>2026-04-04T09:59:09.333Z</time></trkpt><trkpt lat="45.6658193" lon="9.4311101"><ele>242.0</ele><time>2026-04-04T09:59:10.334Z</time></trkpt><trkpt lat="45.6658726" lon="9.4311683"><ele>242.00000000000003</ele><time>2026-04-04T09:59:11.334Z</time></trkpt><trkpt lat="45.6659292" lon="9.4312274"><ele>242.0</ele><time>2026-04-04T09:59:12.334Z</time></trkpt><trkpt lat="45.6659764" lon="9.4312927"><ele>241.75</ele><time>2026-04-04T09:59:13.334Z</time></trkpt><trkpt lat="45.6660693" lon="9.4313972"><ele>241.5</ele><time>2026-04-04T09:59:15.334Z</time></trkpt><trkpt lat="45.6661765" lon="9.4314817"><ele>241.25</ele><time>2026-04-04T09:59:17.334Z</time></trkpt><trkpt lat="45.6662779" lon="9.4315843"><ele>241.0</ele><time>2026-04-04T09:59:19.334Z</time></trkpt><trkpt lat="45.6663809" lon="9.4316852"><ele>241.0</ele><time>2026-04-04T09:59:21.334Z</time></trkpt><trkpt lat="45.6664792" lon="9.431783"><ele>241.00000000000003</ele><time>2026-04-04T09:59:23.334Z</time></trkpt><trkpt lat="45.6665798" lon="9.4318812"><ele>241.00000000000003</ele><time>2026-04-04T09:59:25.334Z</time></trkpt><trkpt lat="45.6666538" lon="9.4319733"><ele>241.0</ele><time>2026-04-04T09:59:27.549Z</time></trkpt><trkpt lat="45.6667113" lon="9.432045"><ele>241.0</ele><time>2026-04-04T09:59:28.724Z</time></trkpt><trkpt lat="45.6668287" lon="9.4321458"><ele>241.4</ele><time>2026-04-04T09:59:30.329Z</time></trkpt><trkpt lat="45.6669347" lon="9.4322516"><ele>241.8</ele><time>2026-04-04T09:59:32.331Z</time></trkpt><trkpt lat="45.6669892" lon="9.4323106"><ele>242.20000000000002</ele><time>2026-04-04T09:59:33.331Z</time></trkpt><trkpt lat="45.6670731" lon="9.4323976"><ele>242.60000000000002</ele><time>2026-04-04T09:59:35.328Z</time></trkpt><trkpt lat="45.6671737" lon="9.4324948"><ele>243.0</ele><time>2026-04-04T09:59:37.329Z</time></trkpt><trkpt lat="45.6672275" lon="9.4325479"><ele>243.0</ele><time>2026-04-04T09:59:38.329Z</time></trkpt><trkpt lat="45.667279" lon="9.432616"><ele>243.0</ele><time>2026-04-04T09:59:39.328Z</time></trkpt><trkpt lat="45.6673839" lon="9.4327125"><ele>243.0</ele><time>2026-04-04T09:59:41.329Z</time></trkpt><trkpt lat="45.6674846" lon="9.4328102"><ele>243.0</ele><time>2026-04-04T09:59:43.328Z</time></trkpt><trkpt lat="45.6675841" lon="9.4329105"><ele>243.0</ele><time>2026-04-04T09:59:45.328Z</time></trkpt><trkpt lat="45.6676359" lon="9.4329631"><ele>243.4</ele><time>2026-04-04T09:59:46.329Z</time></trkpt><trkpt lat="45.6677346" lon="9.4330552"><ele>243.8</ele><time>2026-04-04T09:59:48.329Z</time></trkpt><trkpt lat="45.667833" lon="9.4331512"><ele>244.2</ele><time>2026-04-04T09:59:50.329Z</time></trkpt><trkpt lat="45.6678905" lon="9.4332019"><ele>244.6</ele><time>2026-04-04T09:59:51.329Z</time></trkpt><trkpt lat="45.667992" lon="9.4333162"><ele>245.0</ele><time>2026-04-04T09:59:53.328Z</time></trkpt><trkpt lat="45.6680953" lon="9.4334213"><ele>245.2</ele><time>2026-04-04T09:59:55.328Z</time></trkpt><trkpt lat="45.6681471" lon="9.4334765"><ele>245.4</ele><time>2026-04-04T09:59:56.329Z</time></trkpt><trkpt lat="45.6682517" lon="9.4335799"><ele>245.60000000000002</ele><time>2026-04-04T09:59:58.329Z</time></trkpt><trkpt lat="45.6683555" lon="9.4336727"><ele>245.8</ele><time>2026-04-04T10:00:00.329Z</time></trkpt><trkpt lat="45.6684569" lon="9.4337677"><ele>246.0</ele><time>2026-04-04T10:00:02.329Z</time></trkpt><trkpt lat="45.668561" lon="9.4338621"><ele>245.5</ele><time>2026-04-04T10:00:04.328Z</time></trkpt><trkpt lat="45.6686695" lon="9.4339659"><ele>245.0</ele><time>2026-04-04T10:00:06.329Z</time></trkpt><trkpt lat="45.6687207" lon="9.4340246"><ele>244.5</ele><time>2026-04-04T10:00:07.328Z</time></trkpt><trkpt lat="45.6688262" lon="9.4341238"><ele>244.0</ele><time>2026-04-04T10:00:09.329Z</time></trkpt><trkpt lat="45.6689375" lon="9.4342222"><ele>244.0</ele><time>2026-04-04T10:00:11.329Z</time></trkpt><trkpt lat="45.669042" lon="9.4343188"><ele>243.99999999999997</ele><time>2026-04-04T10:00:13.329Z</time></trkpt><trkpt lat="45.6690969" lon="9.4343709"><ele>243.99999999999997</ele><time>2026-04-04T10:00:14.329Z</time></trkpt><trkpt lat="45.6691938" lon="9.4344731"><ele>244.0</ele><time>2026-04-04T10:00:16.329Z</time></trkpt><trkpt lat="45.6692955" lon="9.4345755"><ele>244.0</ele><time>2026-04-04T10:00:18.329Z</time></trkpt><trkpt lat="45.669352" lon="9.434633"><ele>244.39999999999998</ele><time>2026-04-04T10:00:19.329Z</time></trkpt><trkpt lat="45.6694443" lon="9.4347388"><ele>244.79999999999998</ele><time>2026-04-04T10:00:21.329Z</time></trkpt><trkpt lat="45.6694945" lon="9.4347975"><ele>245.20000000000002</ele><time>2026-04-04T10:00:22.329Z</time></trkpt><trkpt lat="45.6695897" lon="9.4349016"><ele>245.60000000000002</ele><time>2026-04-04T10:00:24.329Z</time></trkpt><trkpt lat="45.6696866" lon="9.4350182"><ele>246.0</ele><time>2026-04-04T10:00:26.329Z</time></trkpt><trkpt lat="45.6697794" lon="9.4351169"><ele>246.0</ele><time>2026-04-04T10:00:28.329Z</time></trkpt><trkpt lat="45.6698736" lon="9.4352258"><ele>246.0</ele><time>2026-04-04T10:00:30.329Z</time></trkpt><trkpt lat="45.6699651" lon="9.435328"><ele>246.0</ele><time>2026-04-04T10:00:32.329Z</time></trkpt><trkpt lat="45.670062" lon="9.4354304"><ele>246.0</ele><time>2026-04-04T10:00:34.329Z</time></trkpt><trkpt lat="45.670158" lon="9.435535"><ele>246.20000000000002</ele><time>2026-04-04T10:00:36.328Z</time></trkpt><trkpt lat="45.6702502" lon="9.4356442"><ele>246.40000000000003</ele><time>2026-04-04T10:00:38.329Z</time></trkpt><trkpt lat="45.6703415" lon="9.4357496"><ele>246.6</ele><time>2026-04-04T10:00:40.329Z</time></trkpt><trkpt lat="45.6704189" lon="9.4358698"><ele>246.8</ele><time>2026-04-04T10:00:42.328Z</time></trkpt><trkpt lat="45.6704782" lon="9.43596"><ele>247.0</ele><time>2026-04-04T10:00:44.329Z</time></trkpt><trkpt lat="45.670456" lon="9.4360992"><ele>247.2</ele><time>2026-04-04T10:00:47.329Z</time></trkpt><trkpt lat="45.6704093" lon="9.4362073"><ele>247.39999999999998</ele><time>2026-04-04T10:00:49.329Z</time></trkpt><trkpt lat="45.6703425" lon="9.4363179"><ele>247.60000000000002</ele><time>2026-04-04T10:00:51.329Z</time></trkpt><trkpt lat="45.6702917" lon="9.4364542"><ele>247.8</ele><time>2026-04-04T10:00:53.329Z</time></trkpt><trkpt lat="45.6702306" lon="9.4365898"><ele>248.0</ele><time>2026-04-04T10:00:55.329Z</time></trkpt><trkpt lat="45.6701791" lon="9.4367326"><ele>248.0</ele><time>2026-04-04T10:00:57.329Z</time></trkpt><trkpt lat="45.6700965" lon="9.4368628"><ele>248.0</ele><time>2026-04-04T10:00:59.329Z</time></trkpt><trkpt lat="45.6700563" lon="9.4370019"><ele>248.0</ele><time>2026-04-04T10:01:01.329Z</time></trkpt><trkpt lat="45.6700258" lon="9.4370861"><ele>248.0</ele><time>2026-04-04T10:01:02.329Z</time></trkpt><trkpt lat="45.6699543" lon="9.4371958"><ele>248.0</ele><time>2026-04-04T10:01:04.329Z</time></trkpt><trkpt lat="45.6699047" lon="9.4373243"><ele>248.0</ele><time>2026-04-04T10:01:06.329Z</time></trkpt><trkpt lat="45.6698589" lon="9.4374652"><ele>248.0</ele><time>2026-04-04T10:01:08.329Z</time></trkpt><trkpt lat="45.6697963" lon="9.4375831"><ele>248.0</ele><time>2026-04-04T10:01:10.329Z</time></trkpt><trkpt lat="45.6697412" lon="9.4376655"><ele>248.0</ele><time>2026-04-04T10:01:12.328Z</time></trkpt><trkpt lat="45.6696908" lon="9.4377735"><ele>248.0</ele><time>2026-04-04T10:01:14.329Z</time></trkpt><trkpt lat="45.669648" lon="9.4378651"><ele>248.4</ele><time>2026-04-04T10:01:16.329Z</time></trkpt><trkpt lat="45.6696333" lon="9.4379895"><ele>248.8</ele><time>2026-04-04T10:01:18.329Z</time></trkpt><trkpt lat="45.6696857" lon="9.4380872"><ele>249.2</ele><time>2026-04-04T10:01:21.328Z</time></trkpt><trkpt lat="45.6697673" lon="9.4382111"><ele>249.6</ele><time>2026-04-04T10:01:23.329Z</time></trkpt><trkpt lat="45.6698552" lon="9.4383273"><ele>250.0</ele><time>2026-04-04T10:01:25.328Z</time></trkpt><trkpt lat="45.6699435" lon="9.438426"><ele>249.99999999999997</ele><time>2026-04-04T10:01:27.329Z</time></trkpt><trkpt lat="45.6699944" lon="9.4384886"><ele>250.0</ele><time>2026-04-04T10:01:28.328Z</time></trkpt><trkpt lat="45.6700464" lon="9.4385454"><ele>250.0</ele><time>2026-04-04T10:01:29.329Z</time></trkpt><trkpt lat="45.6701547" lon="9.438637"><ele>250.0</ele><time>2026-04-04T10:01:31.329Z</time></trkpt><trkpt lat="45.6702053" lon="9.4386941"><ele>249.99999999999997</ele><time>2026-04-04T10:01:32.328Z</time></trkpt><trkpt lat="45.6702584" lon="9.4387467"><ele>250.0</ele><time>2026-04-04T10:01:33.329Z</time></trkpt><trkpt lat="45.6703705" lon="9.4388597"><ele>250.6</ele><time>2026-04-04T10:01:35.329Z</time></trkpt><trkpt lat="45.6704323" lon="9.4389316"><ele>251.2</ele><time>2026-04-04T10:01:36.329Z</time></trkpt><trkpt lat="45.6705388" lon="9.4390172"><ele>251.8</ele><time>2026-04-04T10:01:38.329Z</time></trkpt><trkpt lat="45.6706163" lon="9.4390751"><ele>252.4</ele><time>2026-04-04T10:01:40.329Z</time></trkpt><trkpt lat="45.6707053" lon="9.4391556"><ele>253.0</ele><time>2026-04-04T10:01:42.328Z</time></trkpt><trkpt lat="45.6707984" lon="9.4392527"><ele>253.0</ele><time>2026-04-04T10:01:44.328Z</time></trkpt><trkpt lat="45.6708873" lon="9.4393405"><ele>253.0</ele><time>2026-04-04T10:01:46.329Z</time></trkpt><trkpt lat="45.6709959" lon="9.439422"><ele>253.0</ele><time>2026-04-04T10:01:48.329Z</time></trkpt><trkpt lat="45.671048" lon="9.4394764"><ele>253.0</ele><time>2026-04-04T10:01:49.328Z</time></trkpt><trkpt lat="45.6711416" lon="9.4395794"><ele>253.0</ele><time>2026-04-04T10:01:51.329Z</time></trkpt><trkpt lat="45.6711917" lon="9.4396477"><ele>253.33333333333331</ele><time>2026-04-04T10:01:52.329Z</time></trkpt><trkpt lat="45.6712574" lon="9.4396877"><ele>253.66666666666666</ele><time>2026-04-04T10:01:53.329Z</time></trkpt><trkpt lat="45.6713185" lon="9.4397485"><ele>254.0</ele><time>2026-04-04T10:01:54.329Z</time></trkpt><trkpt lat="45.6713785" lon="9.4397987"><ele>254.33333333333331</ele><time>2026-04-04T10:01:55.329Z</time></trkpt><trkpt lat="45.6714361" lon="9.4398651"><ele>254.66666666666666</ele><time>2026-04-04T10:01:56.329Z</time></trkpt><trkpt lat="45.6715023" lon="9.4399219"><ele>255.0</ele><time>2026-04-04T10:01:57.329Z</time></trkpt><trkpt lat="45.6715924" lon="9.4400031"><ele>255.0</ele><time>2026-04-04T10:01:59.328Z</time></trkpt><trkpt lat="45.6716864" lon="9.4400937"><ele>255.0</ele><time>2026-04-04T10:02:01.329Z</time></trkpt><trkpt lat="45.671743" lon="9.4401386"><ele>255.0</ele><time>2026-04-04T10:02:02.329Z</time></trkpt><trkpt lat="45.6718363" lon="9.4402241"><ele>255.0</ele><time>2026-04-04T10:02:04.328Z</time></trkpt><trkpt lat="45.6719211" lon="9.440314"><ele>255.0</ele><time>2026-04-04T10:02:06.329Z</time></trkpt><trkpt lat="45.6719766" lon="9.4403584"><ele>255.33333333333334</ele><time>2026-04-04T10:02:07.328Z</time></trkpt><trkpt lat="45.6720354" lon="9.4404067"><ele>255.66666666666669</ele><time>2026-04-04T10:02:08.328Z</time></trkpt><trkpt lat="45.6721413" lon="9.4404631"><ele>256.0</ele><time>2026-04-04T10:02:10.329Z</time></trkpt><trkpt lat="45.6722016" lon="9.4405112"><ele>256.33333333333337</ele><time>2026-04-04T10:02:11.329Z</time></trkpt><trkpt lat="45.6722555" lon="9.4405676"><ele>256.6666666666667</ele><time>2026-04-04T10:02:12.329Z</time></trkpt><trkpt lat="45.6723583" lon="9.4406551"><ele>257.0</ele><time>2026-04-04T10:02:14.329Z</time></trkpt><trkpt lat="45.6724614" lon="9.4407516"><ele>257.0</ele><time>2026-04-04T10:02:16.329Z</time></trkpt><trkpt lat="45.6725644" lon="9.4408527"><ele>257.0</ele><time>2026-04-04T10:02:18.329Z</time></trkpt><trkpt lat="45.6726128" lon="9.440927"><ele>257.0</ele><time>2026-04-04T10:02:19.329Z</time></trkpt><trkpt lat="45.6727071" lon="9.4410373"><ele>257.0</ele><time>2026-04-04T10:02:21.329Z</time></trkpt><trkpt lat="45.672763" lon="9.4411069"><ele>257.0</ele><time>2026-04-04T10:02:22.329Z</time></trkpt><trkpt lat="45.6728392" lon="9.4412218"><ele>257.6</ele><time>2026-04-04T10:02:24.329Z</time></trkpt><trkpt lat="45.6729081" lon="9.4413351"><ele>258.2</ele><time>2026-04-04T10:02:26.328Z</time></trkpt><trkpt lat="45.6729885" lon="9.441467"><ele>258.8</ele><time>2026-04-04T10:02:28.329Z</time></trkpt><trkpt lat="45.6730489" lon="9.4416128"><ele>259.4</ele><time>2026-04-04T10:02:30.328Z</time></trkpt><trkpt lat="45.6730864" lon="9.4416865"><ele>260.0</ele><time>2026-04-04T10:02:31.329Z</time></trkpt><trkpt lat="45.6731382" lon="9.4417901"><ele>260.0</ele><time>2026-04-04T10:02:34.328Z</time></trkpt><trkpt lat="45.6732029" lon="9.4418735"><ele>260.0</ele><time>2026-04-04T10:02:36.329Z</time></trkpt><trkpt lat="45.673265" lon="9.4419568"><ele>260.0</ele><time>2026-04-04T10:02:38.329Z</time></trkpt><trkpt lat="45.6733316" lon="9.4420459"><ele>260.0</ele><time>2026-04-04T10:02:40.328Z</time></trkpt><trkpt lat="45.6733949" lon="9.4421314"><ele>260.0</ele><time>2026-04-04T10:02:42.329Z</time></trkpt><trkpt lat="45.673468" lon="9.442214"><ele>260.0</ele><time>2026-04-04T10:02:44.329Z</time></trkpt><trkpt lat="45.6735489" lon="9.4423122"><ele>260.1666666666667</ele><time>2026-04-04T10:02:46.329Z</time></trkpt><trkpt lat="45.6736105" lon="9.4424064"><ele>260.33333333333337</ele><time>2026-04-04T10:02:48.329Z</time></trkpt><trkpt lat="45.6736607" lon="9.4424817"><ele>260.5</ele><time>2026-04-04T10:02:50.329Z</time></trkpt><trkpt lat="45.6737312" lon="9.4425628"><ele>260.6666666666667</ele><time>2026-04-04T10:02:52.328Z</time></trkpt><trkpt lat="45.6738033" lon="9.4426316"><ele>260.8333333333333</ele><time>2026-04-04T10:02:54.328Z</time></trkpt><trkpt lat="45.6738707" lon="9.4427541"><ele>261.0</ele><time>2026-04-04T10:02:56.329Z</time></trkpt><trkpt lat="45.6739174" lon="9.4428951"><ele>261.0</ele><time>2026-04-04T10:02:58.328Z</time></trkpt><trkpt lat="45.6739779" lon="9.4430266"><ele>261.0</ele><time>2026-04-04T10:03:00.328Z</time></trkpt><trkpt lat="45.6740515" lon="9.4431438"><ele>261.0</ele><time>2026-04-04T10:03:02.329Z</time></trkpt><trkpt lat="45.6741223" lon="9.4432798"><ele>261.0</ele><time>2026-04-04T10:03:04.329Z</time></trkpt><trkpt lat="45.6741804" lon="9.4434185"><ele>261.0</ele><time>2026-04-04T10:03:06.329Z</time></trkpt><trkpt lat="45.6742182" lon="9.4434961"><ele>261.0</ele><time>2026-04-04T10:03:07.328Z</time></trkpt><trkpt lat="45.6742693" lon="9.4436163"><ele>261.0</ele><time>2026-04-04T10:03:09.329Z</time></trkpt><trkpt lat="45.674321" lon="9.4437392"><ele>261.0</ele><time>2026-04-04T10:03:11.329Z</time></trkpt><trkpt lat="45.6743911" lon="9.4438693"><ele>261.0</ele><time>2026-04-04T10:03:13.329Z</time></trkpt><trkpt lat="45.6744676" lon="9.4439863"><ele>261.75</ele><time>2026-04-04T10:03:15.329Z</time></trkpt><trkpt lat="45.6745305" lon="9.4441216"><ele>262.5</ele><time>2026-04-04T10:03:17.329Z</time></trkpt><trkpt lat="45.674593" lon="9.4442439"><ele>263.25</ele><time>2026-04-04T10:03:19.329Z</time></trkpt><trkpt lat="45.6746617" lon="9.4443824"><ele>264.0</ele><time>2026-04-04T10:03:21.328Z</time></trkpt><trkpt lat="45.6747268" lon="9.4445325"><ele>263.5</ele><time>2026-04-04T10:03:23.329Z</time></trkpt><trkpt lat="45.6747929" lon="9.4446634"><ele>263.0</ele><time>2026-04-04T10:03:25.329Z</time></trkpt><trkpt lat="45.6748575" lon="9.4448051"><ele>262.5</ele><time>2026-04-04T10:03:27.329Z</time></trkpt><trkpt lat="45.6749218" lon="9.4449289"><ele>262.0</ele><time>2026-04-04T10:03:29.329Z</time></trkpt><trkpt lat="45.6749895" lon="9.4450624"><ele>262.0</ele><time>2026-04-04T10:03:31.329Z</time></trkpt><trkpt lat="45.6750572" lon="9.4451963"><ele>262.0</ele><time>2026-04-04T10:03:33.329Z</time></trkpt><trkpt lat="45.6751263" lon="9.445325"><ele>262.0</ele><time>2026-04-04T10:03:35.328Z</time></trkpt><trkpt lat="45.6751922" lon="9.4454508"><ele>262.0</ele><time>2026-04-04T10:03:37.329Z</time></trkpt><trkpt lat="45.6752597" lon="9.4455865"><ele>262.0</ele><time>2026-04-04T10:03:39.329Z</time></trkpt><trkpt lat="45.6753321" lon="9.4457254"><ele>262.0</ele><time>2026-04-04T10:03:41.329Z</time></trkpt><trkpt lat="45.6754069" lon="9.4458834"><ele>262.0</ele><time>2026-04-04T10:03:43.329Z</time></trkpt><trkpt lat="45.6754714" lon="9.4460292"><ele>262.0</ele><time>2026-04-04T10:03:45.329Z</time></trkpt><trkpt lat="45.6755403" lon="9.4461709"><ele>262.3333333333333</ele><time>2026-04-04T10:03:47.329Z</time></trkpt><trkpt lat="45.6756135" lon="9.4463108"><ele>262.66666666666663</ele><time>2026-04-04T10:03:49.328Z</time></trkpt><trkpt lat="45.6756462" lon="9.4463905"><ele>263.0</ele><time>2026-04-04T10:03:50.328Z</time></trkpt><trkpt lat="45.6756839" lon="9.4464731"><ele>263.3333333333333</ele><time>2026-04-04T10:03:51.328Z</time></trkpt><trkpt lat="45.6757216" lon="9.4465516"><ele>263.6666666666667</ele><time>2026-04-04T10:03:52.329Z</time></trkpt><trkpt lat="45.675763" lon="9.4466209"><ele>264.0</ele><time>2026-04-04T10:03:53.329Z</time></trkpt><trkpt lat="45.6758292" lon="9.4467667"><ele>264.0</ele><time>2026-04-04T10:03:55.329Z</time></trkpt><trkpt lat="45.6758608" lon="9.44685"><ele>264.0</ele><time>2026-04-04T10:03:56.329Z</time></trkpt><trkpt lat="45.6759248" lon="9.4469879"><ele>264.0</ele><time>2026-04-04T10:03:58.329Z</time></trkpt><trkpt lat="45.6759525" lon="9.4470957"><ele>264.0</ele><time>2026-04-04T10:03:59.328Z</time></trkpt><trkpt lat="45.6760234" lon="9.4472047"><ele>264.0</ele><time>2026-04-04T10:04:01.328Z</time></trkpt><trkpt lat="45.6761104" lon="9.4473221"><ele>264.0</ele><time>2026-04-04T10:04:03.328Z</time></trkpt><trkpt lat="45.6761804" lon="9.4474512"><ele>264.0</ele><time>2026-04-04T10:04:05.329Z</time></trkpt><trkpt lat="45.6762207" lon="9.4475266"><ele>264.0</ele><time>2026-04-04T10:04:06.329Z</time></trkpt><trkpt lat="45.6762535" lon="9.4476105"><ele>264.0</ele><time>2026-04-04T10:04:07.328Z</time></trkpt><trkpt lat="45.6762967" lon="9.4477082"><ele>264.0</ele><time>2026-04-04T10:04:08.328Z</time></trkpt><trkpt lat="45.6763666" lon="9.4478454"><ele>264.0</ele><time>2026-04-04T10:04:10.329Z</time></trkpt><trkpt lat="45.6764391" lon="9.4480045"><ele>264.1666666666667</ele><time>2026-04-04T10:04:12.329Z</time></trkpt><trkpt lat="45.6764778" lon="9.4480883"><ele>264.3333333333333</ele><time>2026-04-04T10:04:13.328Z</time></trkpt><trkpt lat="45.6765481" lon="9.4482107"><ele>264.5</ele><time>2026-04-04T10:04:15.328Z</time></trkpt><trkpt lat="45.676587" lon="9.4483025"><ele>264.66666666666663</ele><time>2026-04-04T10:04:16.329Z</time></trkpt><trkpt lat="45.6766244" lon="9.4483849"><ele>264.8333333333333</ele><time>2026-04-04T10:04:17.329Z</time></trkpt><trkpt lat="45.6766662" lon="9.4484729"><ele>265.0</ele><time>2026-04-04T10:04:18.329Z</time></trkpt><trkpt lat="45.6767254" lon="9.4485712"><ele>265.0</ele><time>2026-04-04T10:04:19.329Z</time></trkpt><trkpt lat="45.6767997" lon="9.4486787"><ele>265.0</ele><time>2026-04-04T10:04:21.329Z</time></trkpt><trkpt lat="45.6768454" lon="9.4487642"><ele>265.0</ele><time>2026-04-04T10:04:22.329Z</time></trkpt><trkpt lat="45.6768792" lon="9.4488459"><ele>265.0</ele><time>2026-04-04T10:04:23.329Z</time></trkpt><trkpt lat="45.6769162" lon="9.4489207"><ele>265.0</ele><time>2026-04-04T10:04:24.328Z</time></trkpt><trkpt lat="45.676958" lon="9.4489953"><ele>265.0</ele><time>2026-04-04T10:04:25.328Z</time></trkpt><trkpt lat="45.6769951" lon="9.4490887"><ele>264.3333333333333</ele><time>2026-04-04T10:04:26.329Z</time></trkpt><trkpt lat="45.6770484" lon="9.4491521"><ele>263.66666666666663</ele><time>2026-04-04T10:04:27.328Z</time></trkpt><trkpt lat="45.6771194" lon="9.4492602"><ele>263.0</ele><time>2026-04-04T10:04:29.329Z</time></trkpt><trkpt lat="45.6771736" lon="9.4493629"><ele>262.3333333333333</ele><time>2026-04-04T10:04:31.329Z</time></trkpt><trkpt lat="45.6772258" lon="9.4494518"><ele>261.6666666666667</ele><time>2026-04-04T10:04:34.328Z</time></trkpt><trkpt lat="45.6772862" lon="9.4495603"><ele>261.0</ele><time>2026-04-04T10:04:37.329Z</time></trkpt><trkpt lat="45.6773275" lon="9.4496494"><ele>260.8</ele><time>2026-04-04T10:04:39.329Z</time></trkpt><trkpt lat="45.67739" lon="9.4497959"><ele>260.6</ele><time>2026-04-04T10:04:41.329Z</time></trkpt><trkpt lat="45.6774579" lon="9.4499161"><ele>260.4</ele><time>2026-04-04T10:04:43.329Z</time></trkpt><trkpt lat="45.6775054" lon="9.4500605"><ele>260.2</ele><time>2026-04-04T10:04:45.328Z</time></trkpt><trkpt lat="45.6775443" lon="9.4501493"><ele>260.0</ele><time>2026-04-04T10:04:46.329Z</time></trkpt><trkpt lat="45.6775793" lon="9.4502338"><ele>260.00000000000006</ele><time>2026-04-04T10:04:47.329Z</time></trkpt><trkpt lat="45.6776136" lon="9.4503383"><ele>260.0</ele><time>2026-04-04T10:04:48.329Z</time></trkpt><trkpt lat="45.6776361" lon="9.450433"><ele>260.0</ele><time>2026-04-04T10:04:49.328Z</time></trkpt><trkpt lat="45.6776971" lon="9.4504911"><ele>260.0</ele><time>2026-04-04T10:04:50.328Z</time></trkpt><trkpt lat="45.6777378" lon="9.4505724"><ele>260.0</ele><time>2026-04-04T10:04:51.328Z</time></trkpt><trkpt lat="45.6777796" lon="9.4506459"><ele>260.00000000000006</ele><time>2026-04-04T10:04:52.329Z</time></trkpt><trkpt lat="45.6778327" lon="9.4507091"><ele>260.0</ele><time>2026-04-04T10:04:53.329Z</time></trkpt><trkpt lat="45.6779285" lon="9.4508248"><ele>260.0</ele><time>2026-04-04T10:04:55.329Z</time></trkpt><trkpt lat="45.6779823" lon="9.4508874"><ele>260.0</ele><time>2026-04-04T10:04:56.329Z</time></trkpt><trkpt lat="45.6780686" lon="9.4509867"><ele>260.0</ele><time>2026-04-04T10:04:58.329Z</time></trkpt><trkpt lat="45.6781267" lon="9.4510399"><ele>260.0</ele><time>2026-04-04T10:04:59.329Z</time></trkpt><trkpt lat="45.6781767" lon="9.4510951"><ele>260.0</ele><time>2026-04-04T10:05:00.329Z</time></trkpt><trkpt lat="45.6782747" lon="9.4511827"><ele>260.0</ele><time>2026-04-04T10:05:02.329Z</time></trkpt><trkpt lat="45.6783323" lon="9.4512236"><ele>260.0</ele><time>2026-04-04T10:05:03.329Z</time></trkpt><trkpt lat="45.678393" lon="9.451263"><ele>260.0</ele><time>2026-04-04T10:05:04.329Z</time></trkpt><trkpt lat="45.6785094" lon="9.4513444"><ele>260.0</ele><time>2026-04-04T10:05:06.328Z</time></trkpt><trkpt lat="45.67857" lon="9.4513717"><ele>260.0</ele><time>2026-04-04T10:05:07.329Z</time></trkpt><trkpt lat="45.6786377" lon="9.4514051"><ele>260.0</ele><time>2026-04-04T10:05:08.329Z</time></trkpt><trkpt lat="45.6787633" lon="9.4514554"><ele>259.6</ele><time>2026-04-04T10:05:10.328Z</time></trkpt><trkpt lat="45.678883" lon="9.4514825"><ele>259.2</ele><time>2026-04-04T10:05:12.329Z</time></trkpt><trkpt lat="45.6790111" lon="9.4515038"><ele>258.8</ele><time>2026-04-04T10:05:14.329Z</time></trkpt><trkpt lat="45.6791283" lon="9.4514833"><ele>258.4</ele><time>2026-04-04T10:05:16.329Z</time></trkpt><trkpt lat="45.6791956" lon="9.4514844"><ele>258.0</ele><time>2026-04-04T10:05:17.329Z</time></trkpt><trkpt lat="45.6792596" lon="9.4514847"><ele>258.0</ele><time>2026-04-04T10:05:18.329Z</time></trkpt><trkpt lat="45.6793333" lon="9.4514729"><ele>258.0</ele><time>2026-04-04T10:05:19.329Z</time></trkpt><trkpt lat="45.6793962" lon="9.4514629"><ele>258.0</ele><time>2026-04-04T10:05:20.329Z</time></trkpt><trkpt lat="45.6794882" lon="9.4514702"><ele>258.0</ele><time>2026-04-04T10:05:21.329Z</time></trkpt><trkpt lat="45.6795797" lon="9.451458"><ele>258.0</ele><time>2026-04-04T10:05:22.329Z</time></trkpt><trkpt lat="45.6796716" lon="9.4514786"><ele>258.0</ele><time>2026-04-04T10:05:24.329Z</time></trkpt><trkpt lat="45.679756" lon="9.4514811"><ele>258.5</ele><time>2026-04-04T10:05:25.329Z</time></trkpt><trkpt lat="45.6798511" lon="9.451463"><ele>259.0</ele><time>2026-04-04T10:05:26.328Z</time></trkpt><trkpt lat="45.6799161" lon="9.4514777"><ele>259.5</ele><time>2026-04-04T10:05:27.328Z</time></trkpt><trkpt lat="45.6799875" lon="9.4514957"><ele>260.0</ele><time>2026-04-04T10:05:28.329Z</time></trkpt><trkpt lat="45.680052" lon="9.4515123"><ele>260.5</ele><time>2026-04-04T10:05:29.329Z</time></trkpt><trkpt lat="45.6801253" lon="9.4515184"><ele>261.0</ele><time>2026-04-04T10:05:30.329Z</time></trkpt><trkpt lat="45.6802252" lon="9.45151"><ele>261.40000000000003</ele><time>2026-04-04T10:05:32.329Z</time></trkpt><trkpt lat="45.6803413" lon="9.4515005"><ele>261.8</ele><time>2026-04-04T10:05:34.329Z</time></trkpt><trkpt lat="45.6804125" lon="9.4514942"><ele>262.20000000000005</ele><time>2026-04-04T10:05:35.329Z</time></trkpt><trkpt lat="45.6805286" lon="9.4514825"><ele>262.6</ele><time>2026-04-04T10:05:37.329Z</time></trkpt><trkpt lat="45.6806608" lon="9.4515022"><ele>263.0</ele><time>2026-04-04T10:05:39.329Z</time></trkpt><trkpt lat="45.6807258" lon="9.4515176"><ele>263.0</ele><time>2026-04-04T10:05:40.329Z</time></trkpt><trkpt lat="45.6808556" lon="9.4515124"><ele>263.0</ele><time>2026-04-04T10:05:42.328Z</time></trkpt><trkpt lat="45.6809666" lon="9.4515092"><ele>263.0</ele><time>2026-04-04T10:05:44.329Z</time></trkpt><trkpt lat="45.6810297" lon="9.4515256"><ele>263.0</ele><time>2026-04-04T10:05:45.329Z</time></trkpt><trkpt lat="45.6811374" lon="9.4515319"><ele>263.0</ele><time>2026-04-04T10:05:47.328Z</time></trkpt><trkpt lat="45.6812283" lon="9.45151"><ele>262.1666666666667</ele><time>2026-04-04T10:05:49.328Z</time></trkpt><trkpt lat="45.6813322" lon="9.451504"><ele>261.33333333333337</ele><time>2026-04-04T10:05:51.329Z</time></trkpt><trkpt lat="45.6813987" lon="9.4514893"><ele>260.5</ele><time>2026-04-04T10:05:52.328Z</time></trkpt><trkpt lat="45.6814812" lon="9.4513955"><ele>259.6666666666667</ele><time>2026-04-04T10:05:54.329Z</time></trkpt><trkpt lat="45.6815192" lon="9.4512895"><ele>258.8333333333333</ele><time>2026-04-04T10:05:56.329Z</time></trkpt><trkpt lat="45.6815821" lon="9.4512111"><ele>258.0</ele><time>2026-04-04T10:05:57.329Z</time></trkpt><trkpt lat="45.6816507" lon="9.4510565"><ele>258.0</ele><time>2026-04-04T10:05:59.329Z</time></trkpt><trkpt lat="45.6817012" lon="9.4509798"><ele>258.0</ele><time>2026-04-04T10:06:00.329Z</time></trkpt><trkpt lat="45.6817467" lon="9.4509002"><ele>258.0</ele><time>2026-04-04T10:06:01.328Z</time></trkpt><trkpt lat="45.6818014" lon="9.4508156"><ele>258.0</ele><time>2026-04-04T10:06:02.329Z</time></trkpt><trkpt lat="45.6818584" lon="9.4507351"><ele>258.0</ele><time>2026-04-04T10:06:03.329Z</time></trkpt><trkpt lat="45.6819352" lon="9.4505901"><ele>258.0</ele><time>2026-04-04T10:06:05.328Z</time></trkpt><trkpt lat="45.6819691" lon="9.4505097"><ele>257.0</ele><time>2026-04-04T10:06:06.329Z</time></trkpt><trkpt lat="45.6820023" lon="9.4504267"><ele>256.0</ele><time>2026-04-04T10:06:07.329Z</time></trkpt><trkpt lat="45.6820332" lon="9.4503475"><ele>255.0</ele><time>2026-04-04T10:06:08.329Z</time></trkpt><trkpt lat="45.6821169" lon="9.4502257"><ele>254.0</ele><time>2026-04-04T10:06:10.329Z</time></trkpt><trkpt lat="45.6822242" lon="9.45017"><ele>253.0</ele><time>2026-04-04T10:06:12.328Z</time></trkpt><trkpt lat="45.6822846" lon="9.4501293"><ele>252.0</ele><time>2026-04-04T10:06:13.329Z</time></trkpt><trkpt lat="45.6823987" lon="9.4500511"><ele>252.0</ele><time>2026-04-04T10:06:15.329Z</time></trkpt><trkpt lat="45.682498" lon="9.4499723"><ele>252.0</ele><time>2026-04-04T10:06:17.328Z</time></trkpt><trkpt lat="45.6825579" lon="9.4499385"><ele>252.0</ele><time>2026-04-04T10:06:18.329Z</time></trkpt><trkpt lat="45.6826796" lon="9.4498835"><ele>252.0</ele><time>2026-04-04T10:06:20.329Z</time></trkpt><trkpt lat="45.6827446" lon="9.4498559"><ele>252.0</ele><time>2026-04-04T10:06:21.329Z</time></trkpt><trkpt lat="45.6828745" lon="9.4497927"><ele>246.0</ele><time>2026-04-04T10:06:23.329Z</time></trkpt><trkpt lat="45.6829724" lon="9.4497659"><ele>240.0</ele><time>2026-04-04T10:06:25.328Z</time></trkpt><trkpt lat="45.6830357" lon="9.4497496"><ele>234.0</ele><time>2026-04-04T10:06:26.329Z</time></trkpt><trkpt lat="45.6831097" lon="9.4497206"><ele>228.0</ele><time>2026-04-04T10:06:27.328Z</time></trkpt><trkpt lat="45.6831852" lon="9.4497011"><ele>222.0</ele><time>2026-04-04T10:06:28.329Z</time></trkpt><trkpt lat="45.6833183" lon="9.4496424"><ele>226.33333333333334</ele><time>2026-04-04T10:06:30.328Z</time></trkpt><trkpt lat="45.6833858" lon="9.4496041"><ele>230.66666666666669</ele><time>2026-04-04T10:06:31.329Z</time></trkpt><trkpt lat="45.6834581" lon="9.4495714"><ele>235.0</ele><time>2026-04-04T10:06:32.328Z</time></trkpt><trkpt lat="45.6835348" lon="9.449547"><ele>239.33333333333334</ele><time>2026-04-04T10:06:33.329Z</time></trkpt><trkpt lat="45.6836732" lon="9.4495115"><ele>243.66666666666669</ele><time>2026-04-04T10:06:35.329Z</time></trkpt><trkpt lat="45.6837473" lon="9.4495074"><ele>248.0</ele><time>2026-04-04T10:06:36.328Z</time></trkpt><trkpt lat="45.6838183" lon="9.4495144"><ele>248.0</ele><time>2026-04-04T10:06:37.329Z</time></trkpt><trkpt lat="45.6838822" lon="9.4495317"><ele>248.0</ele><time>2026-04-04T10:06:38.329Z</time></trkpt><trkpt lat="45.683954" lon="9.4495484"><ele>248.0</ele><time>2026-04-04T10:06:39.329Z</time></trkpt><trkpt lat="45.6840838" lon="9.4495903"><ele>248.0</ele><time>2026-04-04T10:06:41.328Z</time></trkpt><trkpt lat="45.6841976" lon="9.4496375"><ele>248.0</ele><time>2026-04-04T10:06:43.329Z</time></trkpt><trkpt lat="45.6842637" lon="9.4496499"><ele>247.66666666666669</ele><time>2026-04-04T10:06:44.329Z</time></trkpt><trkpt lat="45.6843675" lon="9.4496606"><ele>247.33333333333334</ele><time>2026-04-04T10:06:45.329Z</time></trkpt><trkpt lat="45.6844429" lon="9.4496321"><ele>247.0</ele><time>2026-04-04T10:06:46.329Z</time></trkpt><trkpt lat="45.6845226" lon="9.4496124"><ele>246.66666666666669</ele><time>2026-04-04T10:06:47.329Z</time></trkpt><trkpt lat="45.6845988" lon="9.4496026"><ele>246.33333333333334</ele><time>2026-04-04T10:06:48.329Z</time></trkpt><trkpt lat="45.6846717" lon="9.449587"><ele>246.0</ele><time>2026-04-04T10:06:49.329Z</time></trkpt><trkpt lat="45.6847396" lon="9.4495852"><ele>246.0</ele><time>2026-04-04T10:06:50.329Z</time></trkpt><trkpt lat="45.6848067" lon="9.4495897"><ele>246.0</ele><time>2026-04-04T10:06:51.329Z</time></trkpt><trkpt lat="45.6848683" lon="9.4496139"><ele>246.0</ele><time>2026-04-04T10:06:52.329Z</time></trkpt><trkpt lat="45.684932" lon="9.4496466"><ele>246.0</ele><time>2026-04-04T10:06:53.329Z</time></trkpt><trkpt lat="45.6850392" lon="9.4497054"><ele>246.0</ele><time>2026-04-04T10:06:55.328Z</time></trkpt><trkpt lat="45.6851" lon="9.4497524"><ele>246.0</ele><time>2026-04-04T10:06:56.329Z</time></trkpt><trkpt lat="45.6851633" lon="9.4497888"><ele>240.16666666666666</ele><time>2026-04-04T10:06:57.329Z</time></trkpt><trkpt lat="45.6852262" lon="9.4498226"><ele>234.33333333333331</ele><time>2026-04-04T10:06:58.329Z</time></trkpt><trkpt lat="45.685296" lon="9.4498484"><ele>228.5</ele><time>2026-04-04T10:06:59.329Z</time></trkpt><trkpt lat="45.6853729" lon="9.4498659"><ele>222.66666666666666</ele><time>2026-04-04T10:07:00.329Z</time></trkpt><trkpt lat="45.6854461" lon="9.4498888"><ele>216.83333333333331</ele><time>2026-04-04T10:07:01.329Z</time></trkpt><trkpt lat="45.685528" lon="9.44991"><ele>211.0</ele><time>2026-04-04T10:07:02.329Z</time></trkpt><trkpt lat="45.6856128" lon="9.449931"><ele>210.99999999999997</ele><time>2026-04-04T10:07:03.329Z</time></trkpt><trkpt lat="45.6856974" lon="9.4499465"><ele>211.0</ele><time>2026-04-04T10:07:04.329Z</time></trkpt><trkpt lat="45.6857772" lon="9.4499775"><ele>211.0</ele><time>2026-04-04T10:07:05.328Z</time></trkpt><trkpt lat="45.685848" lon="9.4500207"><ele>211.0</ele><time>2026-04-04T10:07:06.329Z</time></trkpt><trkpt lat="45.6859245" lon="9.4500773"><ele>210.99999999999997</ele><time>2026-04-04T10:07:07.329Z</time></trkpt><trkpt lat="45.6859907" lon="9.4501236"><ele>211.0</ele><time>2026-04-04T10:07:08.329Z</time></trkpt><trkpt lat="45.6860578" lon="9.45018"><ele>212.83333333333331</ele><time>2026-04-04T10:07:09.329Z</time></trkpt><trkpt lat="45.6861327" lon="9.4502551"><ele>214.66666666666666</ele><time>2026-04-04T10:07:10.329Z</time></trkpt><trkpt lat="45.6861955" lon="9.4503158"><ele>216.5</ele><time>2026-04-04T10:07:11.328Z</time></trkpt><trkpt lat="45.686261" lon="9.4503729"><ele>218.33333333333331</ele><time>2026-04-04T10:07:12.329Z</time></trkpt><trkpt lat="45.6863239" lon="9.4504294"><ele>220.16666666666666</ele><time>2026-04-04T10:07:13.329Z</time></trkpt><trkpt lat="45.6863907" lon="9.4504947"><ele>222.0</ele><time>2026-04-04T10:07:14.329Z</time></trkpt><trkpt lat="45.6864592" lon="9.4505693"><ele>217.5</ele><time>2026-04-04T10:07:15.329Z</time></trkpt><trkpt lat="45.6865218" lon="9.4506211"><ele>213.0</ele><time>2026-04-04T10:07:16.329Z</time></trkpt><trkpt lat="45.686597" lon="9.4506864"><ele>208.5</ele><time>2026-04-04T10:07:17.329Z</time></trkpt><trkpt lat="45.6866674" lon="9.4507355"><ele>204.0</ele><time>2026-04-04T10:07:18.329Z</time></trkpt><trkpt lat="45.6867408" lon="9.4507966"><ele>199.5</ele><time>2026-04-04T10:07:19.329Z</time></trkpt><trkpt lat="45.6868122" lon="9.4508427"><ele>195.0</ele><time>2026-04-04T10:07:20.329Z</time></trkpt><trkpt lat="45.686877" lon="9.4508866"><ele>197.0</ele><time>2026-04-04T10:07:21.329Z</time></trkpt><trkpt lat="45.6869401" lon="9.4509208"><ele>199.0</ele><time>2026-04-04T10:07:22.329Z</time></trkpt><trkpt lat="45.6870131" lon="9.450972"><ele>201.0</ele><time>2026-04-04T10:07:23.329Z</time></trkpt><trkpt lat="45.6870813" lon="9.4509798"><ele>203.0</ele><time>2026-04-04T10:07:24.329Z</time></trkpt><trkpt lat="45.6871532" lon="9.4510046"><ele>205.0</ele><time>2026-04-04T10:07:25.329Z</time></trkpt><trkpt lat="45.6872185" lon="9.4510237"><ele>207.0</ele><time>2026-04-04T10:07:26.329Z</time></trkpt><trkpt lat="45.6872805" lon="9.4510441"><ele>209.0</ele><time>2026-04-04T10:07:27.329Z</time></trkpt><trkpt lat="45.6873447" lon="9.4510567"><ele>209.0</ele><time>2026-04-04T10:07:28.328Z</time></trkpt><trkpt lat="45.6874216" lon="9.4510787"><ele>209.0</ele><time>2026-04-04T10:07:29.328Z</time></trkpt><trkpt lat="45.6875434" lon="9.4510575"><ele>209.0</ele><time>2026-04-04T10:07:31.329Z</time></trkpt><trkpt lat="45.6876065" lon="9.4510457"><ele>209.0</ele><time>2026-04-04T10:07:32.329Z</time></trkpt><trkpt lat="45.6877299" lon="9.4510398"><ele>209.0</ele><time>2026-04-04T10:07:34.329Z</time></trkpt><trkpt lat="45.6878647" lon="9.4510233"><ele>210.00000000000003</ele><time>2026-04-04T10:07:36.329Z</time></trkpt><trkpt lat="45.6879288" lon="9.4510101"><ele>211.0</ele><time>2026-04-04T10:07:37.329Z</time></trkpt><trkpt lat="45.6880096" lon="9.4509963"><ele>212.0</ele><time>2026-04-04T10:07:38.329Z</time></trkpt><trkpt lat="45.6881286" lon="9.4509723"><ele>213.0</ele><time>2026-04-04T10:07:40.328Z</time></trkpt><trkpt lat="45.6881952" lon="9.450947"><ele>214.00000000000003</ele><time>2026-04-04T10:07:41.329Z</time></trkpt><trkpt lat="45.6882597" lon="9.4509244"><ele>215.0</ele><time>2026-04-04T10:07:42.329Z</time></trkpt><trkpt lat="45.6883723" lon="9.4509027"><ele>215.0</ele><time>2026-04-04T10:07:44.329Z</time></trkpt><trkpt lat="45.688435" lon="9.4508879"><ele>215.0</ele><time>2026-04-04T10:07:45.329Z</time></trkpt><trkpt lat="45.6885513" lon="9.4508645"><ele>215.0</ele><time>2026-04-04T10:07:47.328Z</time></trkpt><trkpt lat="45.6886177" lon="9.4508295"><ele>215.0</ele><time>2026-04-04T10:07:48.329Z</time></trkpt><trkpt lat="45.685296" lon="9.4498484"><ele>214.33333333333334</ele><time>2026-04-04T10:06:59.329Z</time></trkpt><trkpt lat="45.6853729" lon="9.4498659"><ele>213.66666666666669</ele><time>2026-04-04T10:07:00.329Z</time></trkpt><trkpt lat="45.6854461" lon="9.4498888"><ele>213.0</ele><time>2026-04-04T10:07:01.329Z</time></trkpt><trkpt lat="45.685528" lon="9.44991"><ele>212.33333333333331</ele><time>2026-04-04T10:07:02.329Z</time></trkpt><trkpt lat="45.6856128" lon="9.449931"><ele>211.66666666666666</ele><time>2026-04-04T10:07:03.329Z</time></trkpt><trkpt lat="45.6856974" lon="9.4499465"><ele>211.0</ele><time>2026-04-04T10:07:04.329Z</time></trkpt><trkpt lat="45.6857772" lon="9.4499775"><ele>210.99999999999997</ele><time>2026-04-04T10:07:05.328Z</time></trkpt><trkpt lat="45.685848" lon="9.4500207"><ele>211.0</ele><time>2026-04-04T10:07:06.329Z</time></trkpt><trkpt lat="45.6859245" lon="9.4500773"><ele>211.0</ele><time>2026-04-04T10:07:07.329Z</time></trkpt><trkpt lat="45.6859907" lon="9.4501236"><ele>211.0</ele><time>2026-04-04T10:07:08.329Z</time></trkpt><trkpt lat="45.6860578" lon="9.45018"><ele>210.99999999999997</ele><time>2026-04-04T10:07:09.329Z</time></trkpt><trkpt lat="45.6861327" lon="9.4502551"><ele>211.0</ele><time>2026-04-04T10:07:10.329Z</time></trkpt><trkpt lat="45.6861955" lon="9.4503158"><ele>212.83333333333331</ele><time>2026-04-04T10:07:11.328Z</time></trkpt><trkpt lat="45.686261" lon="9.4503729"><ele>214.66666666666666</ele><time>2026-04-04T10:07:12.329Z</time></trkpt><trkpt lat="45.6863239" lon="9.4504294"><ele>216.5</ele><time>2026-04-04T10:07:13.329Z</time></trkpt><trkpt lat="45.6863907" lon="9.4504947"><ele>218.33333333333331</ele><time>2026-04-04T10:07:14.329Z</time></trkpt><trkpt lat="45.6864592" lon="9.4505693"><ele>220.16666666666666</ele><time>2026-04-04T10:07:15.329Z</time></trkpt><trkpt lat="45.6865218" lon="9.4506211"><ele>222.0</ele><time>2026-04-04T10:07:16.329Z</time></trkpt><trkpt lat="45.686597" lon="9.4506864"><ele>219.83333333333334</ele><time>2026-04-04T10:07:17.329Z</time></trkpt><trkpt lat="45.6866674" lon="9.4507355"><ele>217.66666666666669</ele><time>2026-04-04T10:07:18.329Z</time></trkpt><trkpt lat="45.6867408" lon="9.4507966"><ele>215.5</ele><time>2026-04-04T10:07:19.329Z</time></trkpt><trkpt lat="45.6868122" lon="9.4508427"><ele>213.33333333333334</ele><time>2026-04-04T10:07:20.329Z</time></trkpt><trkpt lat="45.686877" lon="9.4508866"><ele>211.16666666666669</ele><time>2026-04-04T10:07:21.329Z</time></trkpt><trkpt lat="45.6869401" lon="9.4509208"><ele>209.0</ele><time>2026-04-04T10:07:22.329Z</time></trkpt><trkpt lat="45.6870131" lon="9.450972"><ele>209.0</ele><time>2026-04-04T10:07:23.329Z</time></trkpt><trkpt lat="45.6870813" lon="9.4509798"><ele>209.0</ele><time>2026-04-04T10:07:24.329Z</time></trkpt><trkpt lat="45.6871532" lon="9.4510046"><ele>209.0</ele><time>2026-04-04T10:07:25.329Z</time></trkpt><trkpt lat="45.6872185" lon="9.4510237"><ele>209.0</ele><time>2026-04-04T10:07:26.329Z</time></trkpt><trkpt lat="45.6872805" lon="9.4510441"><ele>209.0</ele><time>2026-04-04T10:07:27.329Z</time></trkpt><trkpt lat="45.6873447" lon="9.4510567"><ele>209.0</ele><time>2026-04-04T10:07:28.328Z</time></trkpt><trkpt lat="45.6874216" lon="9.4510787"><ele>209.0</ele><time>2026-04-04T10:07:29.328Z</time></trkpt><trkpt lat="45.6875434" lon="9.4510575"><ele>209.0</ele><time>2026-04-04T10:07:31.329Z</time></trkpt><trkpt lat="45.6876065" lon="9.4510457"><ele>209.0</ele><time>2026-04-04T10:07:32.329Z</time></trkpt><trkpt lat="45.6877299" lon="9.4510398"><ele>209.0</ele><time>2026-04-04T10:07:34.329Z</time></trkpt><trkpt lat="45.6878647" lon="9.4510233"><ele>209.0</ele><time>2026-04-04T10:07:36.329Z</time></trkpt><trkpt lat="45.6879288" lon="9.4510101"><ele>209.0</ele><time>2026-04-04T10:07:37.329Z</time></trkpt><trkpt lat="45.6880096" lon="9.4509963"><ele>210.00000000000003</ele><time>2026-04-04T10:07:38.329Z</time></trkpt><trkpt lat="45.6881286" lon="9.4509723"><ele>211.0</ele><time>2026-04-04T10:07:40.328Z</time></trkpt><trkpt lat="45.6881952" lon="9.450947"><ele>212.0</ele><time>2026-04-04T10:07:41.329Z</time></trkpt><trkpt lat="45.6882597" lon="9.4509244"><ele>213.0</ele><time>2026-04-04T10:07:42.329Z</time></trkpt><trkpt lat="45.6883723" lon="9.4509027"><ele>214.00000000000003</ele><time>2026-04-04T10:07:44.329Z</time></trkpt><trkpt lat="45.688435" lon="9.4508879"><ele>215.0</ele><time>2026-04-04T10:07:45.329Z</time></trkpt><trkpt lat="45.6885513" lon="9.4508645"><ele>214.8</ele><time>2026-04-04T10:07:47.328Z</time></trkpt><trkpt lat="45.6886177" lon="9.4508295"><ele>214.6</ele><time>2026-04-04T10:07:48.329Z</time></trkpt><trkpt lat="45.6887122" lon="9.4508265"><ele>214.39999999999998</ele><time>2026-04-04T10:07:50.329Z</time></trkpt><trkpt lat="45.6887995" lon="9.45081"><ele>214.2</ele><time>2026-04-04T10:07:52.328Z</time></trkpt><trkpt lat="45.6889" lon="9.4507912"><ele>214.0</ele><time>2026-04-04T10:07:54.329Z</time></trkpt><trkpt lat="45.6889977" lon="9.4508062"><ele>214.0</ele><time>2026-04-04T10:07:56.328Z</time></trkpt><trkpt lat="45.6891134" lon="9.4508069"><ele>213.99999999999997</ele><time>2026-04-04T10:07:58.329Z</time></trkpt><trkpt lat="45.6892309" lon="9.4508532"><ele>213.99999999999997</ele><time>2026-04-04T10:08:00.328Z</time></trkpt><trkpt lat="45.6893544" lon="9.4509301"><ele>214.0</ele><time>2026-04-04T10:08:02.329Z</time></trkpt><trkpt lat="45.6894105" lon="9.4509756"><ele>214.0</ele><time>2026-04-04T10:08:03.329Z</time></trkpt><trkpt lat="45.6894695" lon="9.4510246"><ele>213.2857142857143</ele><time>2026-04-04T10:08:04.329Z</time></trkpt><trkpt lat="45.6895283" lon="9.45109"><ele>212.57142857142858</ele><time>2026-04-04T10:08:05.329Z</time></trkpt><trkpt lat="45.6895873" lon="9.451148"><ele>211.85714285714286</ele><time>2026-04-04T10:08:06.329Z</time></trkpt><trkpt lat="45.6896491" lon="9.4511916"><ele>211.14285714285717</ele><time>2026-04-04T10:08:07.328Z</time></trkpt><trkpt lat="45.689706" lon="9.4512605"><ele>210.42857142857142</ele><time>2026-04-04T10:08:08.329Z</time></trkpt><trkpt lat="45.6897616" lon="9.4513358"><ele>209.71428571428572</ele><time>2026-04-04T10:08:09.329Z</time></trkpt><trkpt lat="45.6898085" lon="9.4514018"><ele>209.0</ele><time>2026-04-04T10:08:10.329Z</time></trkpt><trkpt lat="45.6898525" lon="9.4514858"><ele>209.0</ele><time>2026-04-04T10:08:11.329Z</time></trkpt><trkpt lat="45.689929" lon="9.4516141"><ele>209.0</ele><time>2026-04-04T10:08:13.328Z</time></trkpt><trkpt lat="45.6900232" lon="9.4517352"><ele>209.0</ele><time>2026-04-04T10:08:15.329Z</time></trkpt><trkpt lat="45.6901055" lon="9.4518221"><ele>209.0</ele><time>2026-04-04T10:08:17.328Z</time></trkpt><trkpt lat="45.6901816" lon="9.451931"><ele>208.6</ele><time>2026-04-04T10:08:19.328Z</time></trkpt><trkpt lat="45.6902614" lon="9.451969"><ele>208.2</ele><time>2026-04-04T10:08:21.328Z</time></trkpt><trkpt lat="45.6903132" lon="9.4520802"><ele>207.79999999999998</ele><time>2026-04-04T10:08:23.329Z</time></trkpt><trkpt lat="45.6904393" lon="9.4521154"><ele>207.39999999999998</ele><time>2026-04-04T10:08:25.328Z</time></trkpt><trkpt lat="45.6905535" lon="9.4521173"><ele>207.0</ele><time>2026-04-04T10:08:27.328Z</time></trkpt><trkpt lat="45.6907807" lon="9.4522161"><ele>207.0</ele><time>2026-04-04T10:08:32.329Z</time></trkpt><trkpt lat="45.6908406" lon="9.452256"><ele>207.0</ele><time>2026-04-04T10:08:33.329Z</time></trkpt><trkpt lat="45.6909512" lon="9.4523117"><ele>207.0</ele><time>2026-04-04T10:08:35.329Z</time></trkpt><trkpt lat="45.6910154" lon="9.4523227"><ele>207.0</ele><time>2026-04-04T10:08:36.329Z</time></trkpt><trkpt lat="45.691078" lon="9.4523415"><ele>207.0</ele><time>2026-04-04T10:08:37.329Z</time></trkpt><trkpt lat="45.6911612" lon="9.4523481"><ele>207.0</ele><time>2026-04-04T10:08:38.328Z</time></trkpt><trkpt lat="45.6912312" lon="9.4523872"><ele>208.5</ele><time>2026-04-04T10:08:39.329Z</time></trkpt><trkpt lat="45.6913505" lon="9.4524639"><ele>210.0</ele><time>2026-04-04T10:08:41.329Z</time></trkpt><trkpt lat="45.6914126" lon="9.4524821"><ele>211.5</ele><time>2026-04-04T10:08:42.329Z</time></trkpt><trkpt lat="45.6914794" lon="9.45254"><ele>213.0</ele><time>2026-04-04T10:08:43.329Z</time></trkpt><trkpt lat="45.6915459" lon="9.4525947"><ele>214.5</ele><time>2026-04-04T10:08:44.329Z</time></trkpt><trkpt lat="45.6916106" lon="9.4526349"><ele>216.0</ele><time>2026-04-04T10:08:45.328Z</time></trkpt><trkpt lat="45.6916785" lon="9.4526782"><ele>216.0</ele><time>2026-04-04T10:08:46.329Z</time></trkpt><trkpt lat="45.691747" lon="9.4527008"><ele>216.0</ele><time>2026-04-04T10:08:47.329Z</time></trkpt><trkpt lat="45.6918063" lon="9.4527321"><ele>216.0</ele><time>2026-04-04T10:08:48.329Z</time></trkpt><trkpt lat="45.6919041" lon="9.4527696"><ele>216.0</ele><time>2026-04-04T10:08:50.329Z</time></trkpt><trkpt lat="45.6919698" lon="9.4527968"><ele>216.0</ele><time>2026-04-04T10:08:51.329Z</time></trkpt><trkpt lat="45.6920423" lon="9.4528331"><ele>216.0</ele><time>2026-04-04T10:08:52.329Z</time></trkpt><trkpt lat="45.6920916" lon="9.4528895"><ele>216.0</ele><time>2026-04-04T10:08:53.329Z</time></trkpt><trkpt lat="45.6921549" lon="9.4529253"><ele>213.5</ele><time>2026-04-04T10:08:54.329Z</time></trkpt><trkpt lat="45.6922209" lon="9.4529798"><ele>211.0</ele><time>2026-04-04T10:08:55.329Z</time></trkpt><trkpt lat="45.6923447" lon="9.4530651"><ele>208.5</ele><time>2026-04-04T10:08:57.329Z</time></trkpt><trkpt lat="45.6924747" lon="9.4531381"><ele>206.0</ele><time>2026-04-04T10:08:59.329Z</time></trkpt><trkpt lat="45.6925657" lon="9.4532086"><ele>206.0</ele><time>2026-04-04T10:09:01.329Z</time></trkpt><trkpt lat="45.6926737" lon="9.4533023"><ele>206.0</ele><time>2026-04-04T10:09:03.329Z</time></trkpt><trkpt lat="45.6927917" lon="9.4533714"><ele>206.0</ele><time>2026-04-04T10:09:05.329Z</time></trkpt><trkpt lat="45.6928805" lon="9.4534693"><ele>206.0</ele><time>2026-04-04T10:09:07.329Z</time></trkpt><trkpt lat="45.6929672" lon="9.4535366"><ele>206.8</ele><time>2026-04-04T10:09:09.329Z</time></trkpt><trkpt lat="45.6930248" lon="9.4535925"><ele>207.60000000000002</ele><time>2026-04-04T10:09:10.329Z</time></trkpt><trkpt lat="45.6931156" lon="9.4536989"><ele>208.4</ele><time>2026-04-04T10:09:12.329Z</time></trkpt><trkpt lat="45.6931955" lon="9.4537671"><ele>209.2</ele><time>2026-04-04T10:09:14.329Z</time></trkpt><trkpt lat="45.6933019" lon="9.4538396"><ele>210.0</ele><time>2026-04-04T10:09:16.329Z</time></trkpt><trkpt lat="45.6933688" lon="9.4538627"><ele>210.0</ele><time>2026-04-04T10:09:17.329Z</time></trkpt><trkpt lat="45.6934634" lon="9.4539536"><ele>210.0</ele><time>2026-04-04T10:09:19.329Z</time></trkpt><trkpt lat="45.6935253" lon="9.453995"><ele>210.0</ele><time>2026-04-04T10:09:20.329Z</time></trkpt><trkpt lat="45.6936087" lon="9.4539949"><ele>210.0</ele><time>2026-04-04T10:09:21.329Z</time></trkpt><trkpt lat="45.6936743" lon="9.4540357"><ele>210.0</ele><time>2026-04-04T10:09:22.329Z</time></trkpt><trkpt lat="45.6937512" lon="9.4540434"><ele>210.0</ele><time>2026-04-04T10:09:23.329Z</time></trkpt><trkpt lat="45.6938788" lon="9.4541289"><ele>212.0</ele><time>2026-04-04T10:09:25.329Z</time></trkpt><trkpt lat="45.6939332" lon="9.4541799"><ele>214.0</ele><time>2026-04-04T10:09:26.329Z</time></trkpt><trkpt lat="45.6939963" lon="9.4542305"><ele>216.0</ele><time>2026-04-04T10:09:27.329Z</time></trkpt><trkpt lat="45.6940615" lon="9.4542696"><ele>218.0</ele><time>2026-04-04T10:09:28.328Z</time></trkpt><trkpt lat="45.6941267" lon="9.4543153"><ele>220.0</ele><time>2026-04-04T10:09:29.329Z</time></trkpt><trkpt lat="45.6942136" lon="9.4544179"><ele>222.0</ele><time>2026-04-04T10:09:31.329Z</time></trkpt><trkpt lat="45.6942963" lon="9.454451"><ele>222.0</ele><time>2026-04-04T10:09:32.329Z</time></trkpt><trkpt lat="45.694412" lon="9.4545284"><ele>222.0</ele><time>2026-04-04T10:09:34.329Z</time></trkpt><trkpt lat="45.6944872" lon="9.4545508"><ele>222.0</ele><time>2026-04-04T10:09:35.328Z</time></trkpt><trkpt lat="45.6945567" lon="9.4546157"><ele>222.0</ele><time>2026-04-04T10:09:36.329Z</time></trkpt><trkpt lat="45.6946184" lon="9.454643"><ele>222.0</ele><time>2026-04-04T10:09:37.329Z</time></trkpt><trkpt lat="45.6947311" lon="9.4546727"><ele>220.0</ele><time>2026-04-04T10:09:39.329Z</time></trkpt><trkpt lat="45.694803" lon="9.4547254"><ele>218.0</ele><time>2026-04-04T10:09:40.329Z</time></trkpt><trkpt lat="45.6949393" lon="9.4547597"><ele>216.0</ele><time>2026-04-04T10:09:42.329Z</time></trkpt><trkpt lat="45.6950225" lon="9.4547724"><ele>214.0</ele><time>2026-04-04T10:09:43.328Z</time></trkpt><trkpt lat="45.6951433" lon="9.4548167"><ele>212.0</ele><time>2026-04-04T10:09:45.329Z</time></trkpt><trkpt lat="45.6952889" lon="9.4548241"><ele>212.00000000000003</ele><time>2026-04-04T10:09:47.329Z</time></trkpt><trkpt lat="45.695393" lon="9.4548318"><ele>212.0</ele><time>2026-04-04T10:09:48.329Z</time></trkpt><trkpt lat="45.6954772" lon="9.4548348"><ele>212.0</ele><time>2026-04-04T10:09:50.329Z</time></trkpt><trkpt lat="45.6955474" lon="9.4548546"><ele>212.0</ele><time>2026-04-04T10:09:51.329Z</time></trkpt><trkpt lat="45.695631" lon="9.4549012"><ele>212.00000000000003</ele><time>2026-04-04T10:09:54.328Z</time></trkpt><trkpt lat="45.6957078" lon="9.45496"><ele>212.0</ele><time>2026-04-04T10:09:58.328Z</time></trkpt><trkpt lat="45.6957807" lon="9.4549878"><ele>212.0</ele><time>2026-04-04T10:10:00.328Z</time></trkpt><trkpt lat="45.6958737" lon="9.4550282"><ele>212.0</ele><time>2026-04-04T10:10:01.328Z</time></trkpt><trkpt lat="45.6959395" lon="9.4550744"><ele>212.0</ele><time>2026-04-04T10:10:03.329Z</time></trkpt><trkpt lat="45.6960388" lon="9.4551087"><ele>212.0</ele><time>2026-04-04T10:10:05.329Z</time></trkpt><trkpt lat="45.6961544" lon="9.4551402"><ele>212.0</ele><time>2026-04-04T10:10:07.328Z</time></trkpt><trkpt lat="45.6962239" lon="9.4551563"><ele>212.0</ele><time>2026-04-04T10:10:08.329Z</time></trkpt><trkpt lat="45.6965253" lon="9.4551657"><ele>212.0</ele><time>2026-04-04T10:10:13.329Z</time></trkpt><trkpt lat="45.6966476" lon="9.4551673"><ele>212.0</ele><time>2026-04-04T10:10:15.329Z</time></trkpt><trkpt lat="45.6967105" lon="9.4551529"><ele>212.0</ele><time>2026-04-04T10:10:16.329Z</time></trkpt><trkpt lat="45.6968678" lon="9.4551247"><ele>212.0</ele><time>2026-04-04T10:10:19.329Z</time></trkpt><trkpt lat="45.6969411" lon="9.4551143"><ele>212.0</ele><time>2026-04-04T10:10:20.328Z</time></trkpt><trkpt lat="45.6970673" lon="9.4550886"><ele>212.0</ele><time>2026-04-04T10:10:22.329Z</time></trkpt><trkpt lat="45.6971797" lon="9.455071"><ele>212.00000000000003</ele><time>2026-04-04T10:10:24.329Z</time></trkpt><trkpt lat="45.6972439" lon="9.4550356"><ele>212.0</ele><time>2026-04-04T10:10:25.329Z</time></trkpt><trkpt lat="45.6973368" lon="9.4550487"><ele>212.0</ele><time>2026-04-04T10:10:27.328Z</time></trkpt><trkpt lat="45.6974007" lon="9.4550492"><ele>212.0</ele><time>2026-04-04T10:10:28.329Z</time></trkpt><trkpt lat="45.6975198" lon="9.4549956"><ele>212.00000000000003</ele><time>2026-04-04T10:10:30.328Z</time></trkpt><trkpt lat="45.6976015" lon="9.4549677"><ele>212.0</ele><time>2026-04-04T10:10:31.329Z</time></trkpt><trkpt lat="45.6976815" lon="9.4549506"><ele>211.0</ele><time>2026-04-04T10:10:32.329Z</time></trkpt><trkpt lat="45.6977571" lon="9.4549341"><ele>210.0</ele><time>2026-04-04T10:10:33.328Z</time></trkpt><trkpt lat="45.6978327" lon="9.4549352"><ele>209.0</ele><time>2026-04-04T10:10:34.328Z</time></trkpt><trkpt lat="45.697897" lon="9.4549329"><ele>208.0</ele><time>2026-04-04T10:10:35.328Z</time></trkpt><trkpt lat="45.6980805" lon="9.4549564"><ele>207.0</ele><time>2026-04-04T10:10:38.329Z</time></trkpt><trkpt lat="45.6981814" lon="9.4549736"><ele>207.0</ele><time>2026-04-04T10:10:40.329Z</time></trkpt><trkpt lat="45.6982939" lon="9.4550115"><ele>207.0</ele><time>2026-04-04T10:10:42.329Z</time></trkpt><trkpt lat="45.6983995" lon="9.4550618"><ele>207.0</ele><time>2026-04-04T10:10:44.329Z</time></trkpt><trkpt lat="45.6985242" lon="9.4550909"><ele>207.0</ele><time>2026-04-04T10:10:46.329Z</time></trkpt><trkpt lat="45.6986033" lon="9.4550991"><ele>207.0</ele><time>2026-04-04T10:10:47.328Z</time></trkpt><trkpt lat="45.698721" lon="9.4551299"><ele>205.8</ele><time>2026-04-04T10:10:49.329Z</time></trkpt><trkpt lat="45.6988335" lon="9.4551501"><ele>204.6</ele><time>2026-04-04T10:10:51.329Z</time></trkpt><trkpt lat="45.6989598" lon="9.4551822"><ele>203.4</ele><time>2026-04-04T10:10:53.328Z</time></trkpt><trkpt lat="45.6990385" lon="9.4552089"><ele>202.20000000000002</ele><time>2026-04-04T10:10:54.329Z</time></trkpt><trkpt lat="45.6991087" lon="9.4552265"><ele>201.0</ele><time>2026-04-04T10:10:55.329Z</time></trkpt><trkpt lat="45.6991781" lon="9.4552494"><ele>201.0</ele><time>2026-04-04T10:10:56.329Z</time></trkpt><trkpt lat="45.6992405" lon="9.4552667"><ele>201.0</ele><time>2026-04-04T10:10:57.328Z</time></trkpt><trkpt lat="45.6993282" lon="9.4552795"><ele>201.0</ele><time>2026-04-04T10:10:58.329Z</time></trkpt><trkpt lat="45.6993933" lon="9.4552761"><ele>201.0</ele><time>2026-04-04T10:10:59.329Z</time></trkpt><trkpt lat="45.6994562" lon="9.4552862"><ele>201.0</ele><time>2026-04-04T10:11:00.329Z</time></trkpt><trkpt lat="45.6995371" lon="9.455309"><ele>201.0</ele><time>2026-04-04T10:11:01.329Z</time></trkpt><trkpt lat="45.6996076" lon="9.4553332"><ele>201.0</ele><time>2026-04-04T10:11:02.329Z</time></trkpt><trkpt lat="45.6996662" lon="9.4553666"><ele>200.8</ele><time>2026-04-04T10:11:03.329Z</time></trkpt><trkpt lat="45.6997691" lon="9.4554335"><ele>200.60000000000002</ele><time>2026-04-04T10:11:05.329Z</time></trkpt><trkpt lat="45.6998588" lon="9.4555259"><ele>200.4</ele><time>2026-04-04T10:11:07.328Z</time></trkpt><trkpt lat="45.699908" lon="9.4555916"><ele>200.2</ele><time>2026-04-04T10:11:08.329Z</time></trkpt><trkpt lat="45.7000149" lon="9.4557059"><ele>200.0</ele><time>2026-04-04T10:11:10.329Z</time></trkpt><trkpt lat="45.7000703" lon="9.455787"><ele>200.0</ele><time>2026-04-04T10:11:11.329Z</time></trkpt><trkpt lat="45.7001734" lon="9.4558912"><ele>200.0</ele><time>2026-04-04T10:11:13.329Z</time></trkpt><trkpt lat="45.7002567" lon="9.4560284"><ele>200.0</ele><time>2026-04-04T10:11:15.328Z</time></trkpt><trkpt lat="45.7003428" lon="9.4561428"><ele>200.0</ele><time>2026-04-04T10:11:17.328Z</time></trkpt><trkpt lat="45.7003946" lon="9.4562138"><ele>200.0</ele><time>2026-04-04T10:11:18.329Z</time></trkpt><trkpt lat="45.7004463" lon="9.456287"><ele>199.16666666666669</ele><time>2026-04-04T10:11:19.329Z</time></trkpt><trkpt lat="45.7005285" lon="9.4564089"><ele>198.33333333333334</ele><time>2026-04-04T10:11:21.329Z</time></trkpt><trkpt lat="45.7005804" lon="9.4564878"><ele>197.5</ele><time>2026-04-04T10:11:22.329Z</time></trkpt><trkpt lat="45.7006299" lon="9.4565479"><ele>196.66666666666669</ele><time>2026-04-04T10:11:23.329Z</time></trkpt><trkpt lat="45.7006849" lon="9.4566312"><ele>195.83333333333334</ele><time>2026-04-04T10:11:24.329Z</time></trkpt><trkpt lat="45.7007491" lon="9.456699"><ele>195.0</ele><time>2026-04-04T10:11:25.329Z</time></trkpt><trkpt lat="45.7008265" lon="9.4568203"><ele>195.0</ele><time>2026-04-04T10:11:27.329Z</time></trkpt><trkpt lat="45.7009132" lon="9.4569397"><ele>195.0</ele><time>2026-04-04T10:11:29.328Z</time></trkpt><trkpt lat="45.7009873" lon="9.4570002"><ele>195.0</ele><time>2026-04-04T10:11:30.329Z</time></trkpt><trkpt lat="45.7010343" lon="9.4570608"><ele>195.0</ele><time>2026-04-04T10:11:31.328Z</time></trkpt><trkpt lat="45.7011023" lon="9.4571319"><ele>195.0</ele><time>2026-04-04T10:11:32.329Z</time></trkpt><trkpt lat="45.7011611" lon="9.4571916"><ele>195.0</ele><time>2026-04-04T10:11:33.329Z</time></trkpt><trkpt lat="45.7012291" lon="9.4572454"><ele>195.8</ele><time>2026-04-04T10:11:34.328Z</time></trkpt><trkpt lat="45.701294" lon="9.457301"><ele>196.6</ele><time>2026-04-04T10:11:35.329Z</time></trkpt><trkpt lat="45.701408" lon="9.4573886"><ele>197.39999999999998</ele><time>2026-04-04T10:11:37.328Z</time></trkpt><trkpt lat="45.7014981" lon="9.4574943"><ele>198.2</ele><time>2026-04-04T10:11:39.328Z</time></trkpt><trkpt lat="45.7015718" lon="9.4575387"><ele>199.0</ele><time>2026-04-04T10:11:40.329Z</time></trkpt><trkpt lat="45.7016671" lon="9.4576139"><ele>199.0</ele><time>2026-04-04T10:11:42.329Z</time></trkpt><trkpt lat="45.7017654" lon="9.4576864"><ele>199.0</ele><time>2026-04-04T10:11:44.329Z</time></trkpt><trkpt lat="45.7018436" lon="9.4577278"><ele>199.0</ele><time>2026-04-04T10:11:46.329Z</time></trkpt><trkpt lat="45.7019023" lon="9.4577609"><ele>199.0</ele><time>2026-04-04T10:11:47.328Z</time></trkpt><trkpt lat="45.7020179" lon="9.4577845"><ele>199.0</ele><time>2026-04-04T10:11:49.329Z</time></trkpt><trkpt lat="45.7021272" lon="9.4578436"><ele>199.66666666666666</ele><time>2026-04-04T10:11:51.328Z</time></trkpt><trkpt lat="45.702266" lon="9.4578983"><ele>200.33333333333331</ele><time>2026-04-04T10:11:53.328Z</time></trkpt><trkpt lat="45.7023598" lon="9.4579396"><ele>201.0</ele><time>2026-04-04T10:11:55.329Z</time></trkpt><trkpt lat="45.7026113" lon="9.4579589"><ele>201.0</ele><time>2026-04-04T10:11:59.329Z</time></trkpt><trkpt lat="45.7027114" lon="9.4579772"><ele>201.0</ele><time>2026-04-04T10:12:01.329Z</time></trkpt><trkpt lat="45.7027854" lon="9.4579868"><ele>201.0</ele><time>2026-04-04T10:12:02.329Z</time></trkpt><trkpt lat="45.7029237" lon="9.4579483"><ele>201.0</ele><time>2026-04-04T10:12:04.328Z</time></trkpt><trkpt lat="45.7030135" lon="9.457933"><ele>201.0</ele><time>2026-04-04T10:12:05.329Z</time></trkpt><trkpt lat="45.7030787" lon="9.4579087"><ele>202.0</ele><time>2026-04-04T10:12:06.328Z</time></trkpt><trkpt lat="45.7031488" lon="9.457895"><ele>203.0</ele><time>2026-04-04T10:12:07.329Z</time></trkpt><trkpt lat="45.7032176" lon="9.457892"><ele>204.0</ele><time>2026-04-04T10:12:08.329Z</time></trkpt><trkpt lat="45.7033136" lon="9.4577928"><ele>205.0</ele><time>2026-04-04T10:12:10.328Z</time></trkpt><trkpt lat="45.7034072" lon="9.4577678"><ele>206.0</ele><time>2026-04-04T10:12:11.329Z</time></trkpt><trkpt lat="45.7034715" lon="9.4577761"><ele>207.0</ele><time>2026-04-04T10:12:12.329Z</time></trkpt><trkpt lat="45.7035405" lon="9.4577662"><ele>207.0</ele><time>2026-04-04T10:12:13.329Z</time></trkpt><trkpt lat="45.7036353" lon="9.4577609"><ele>207.0</ele><time>2026-04-04T10:12:14.329Z</time></trkpt><trkpt lat="45.7037234" lon="9.4576469"><ele>207.0</ele><time>2026-04-04T10:12:16.329Z</time></trkpt><trkpt lat="45.7038209" lon="9.4575467"><ele>207.0</ele><time>2026-04-04T10:12:18.328Z</time></trkpt><trkpt lat="45.7038742" lon="9.457481"><ele>207.0</ele><time>2026-04-04T10:12:19.328Z</time></trkpt><trkpt lat="45.7039315" lon="9.4574052"><ele>207.0</ele><time>2026-04-04T10:12:20.329Z</time></trkpt><trkpt lat="45.7039857" lon="9.4573254"><ele>207.0</ele><time>2026-04-04T10:12:21.329Z</time></trkpt><trkpt lat="45.7040507" lon="9.4572763"><ele>207.0</ele><time>2026-04-04T10:12:22.328Z</time></trkpt><trkpt lat="45.7041489" lon="9.4571875"><ele>207.0</ele><time>2026-04-04T10:12:24.329Z</time></trkpt><trkpt lat="45.7042323" lon="9.4571203"><ele>207.0</ele><time>2026-04-04T10:12:26.329Z</time></trkpt><trkpt lat="45.7042807" lon="9.4570603"><ele>207.0</ele><time>2026-04-04T10:12:27.329Z</time></trkpt><trkpt lat="45.7043424" lon="9.4569772"><ele>206.8</ele><time>2026-04-04T10:12:29.329Z</time></trkpt><trkpt lat="45.7044339" lon="9.4568784"><ele>206.6</ele><time>2026-04-04T10:12:31.329Z</time></trkpt><trkpt lat="45.7045584" lon="9.4567857"><ele>206.4</ele><time>2026-04-04T10:12:33.328Z</time></trkpt><trkpt lat="45.7046304" lon="9.45679"><ele>206.20000000000002</ele><time>2026-04-04T10:12:34.328Z</time></trkpt><trkpt lat="45.704696" lon="9.4567644"><ele>206.0</ele><time>2026-04-04T10:12:35.329Z</time></trkpt><trkpt lat="45.7048706" lon="9.4568114"><ele>206.0</ele><time>2026-04-04T10:12:39.328Z</time></trkpt><trkpt lat="45.7049723" lon="9.4568772"><ele>206.0</ele><time>2026-04-04T10:12:41.329Z</time></trkpt><trkpt lat="45.7051" lon="9.4569193"><ele>206.0</ele><time>2026-04-04T10:12:43.329Z</time></trkpt><trkpt lat="45.7052575" lon="9.4568849"><ele>206.0</ele><time>2026-04-04T10:12:46.328Z</time></trkpt><trkpt lat="45.7053659" lon="9.4568722"><ele>205.83333333333334</ele><time>2026-04-04T10:12:47.328Z</time></trkpt><trkpt lat="45.7054344" lon="9.4568754"><ele>205.66666666666669</ele><time>2026-04-04T10:12:48.328Z</time></trkpt><trkpt lat="45.7055092" lon="9.4568416"><ele>205.5</ele><time>2026-04-04T10:12:49.329Z</time></trkpt><trkpt lat="45.7055796" lon="9.4568086"><ele>205.33333333333331</ele><time>2026-04-04T10:12:50.329Z</time></trkpt><trkpt lat="45.7057292" lon="9.4567506"><ele>205.16666666666666</ele><time>2026-04-04T10:12:52.328Z</time></trkpt><trkpt lat="45.7057979" lon="9.4567514"><ele>205.0</ele><time>2026-04-04T10:12:53.325Z</time></trkpt><trkpt lat="45.705912" lon="9.4567904"><ele>205.0</ele><time>2026-04-04T10:12:55.329Z</time></trkpt><trkpt lat="45.7060029" lon="9.4568083"><ele>205.0</ele><time>2026-04-04T10:12:57.32Z</time></trkpt><trkpt lat="45.7060836" lon="9.4568364"><ele>205.0</ele><time>2026-04-04T10:12:58.32Z</time></trkpt><trkpt lat="45.7061824" lon="9.4568814"><ele>205.0</ele><time>2026-04-04T10:13:00.32Z</time></trkpt><trkpt lat="45.7062753" lon="9.4568966"><ele>205.0</ele><time>2026-04-04T10:13:02.32Z</time></trkpt><trkpt lat="45.7063489" lon="9.4568589"><ele>204.33333333333331</ele><time>2026-04-04T10:13:05.32Z</time></trkpt><trkpt lat="45.7064133" lon="9.4568666"><ele>203.66666666666666</ele><time>2026-04-04T10:13:07.32Z</time></trkpt><trkpt lat="45.7064973" lon="9.4568477"><ele>203.0</ele><time>2026-04-04T10:13:09.319Z</time></trkpt><trkpt lat="45.7065967" lon="9.4568357"><ele>202.33333333333331</ele><time>2026-04-04T10:13:11.32Z</time></trkpt><trkpt lat="45.7066821" lon="9.4568221"><ele>201.66666666666666</ele><time>2026-04-04T10:13:13.32Z</time></trkpt><trkpt lat="45.7067661" lon="9.4567968"><ele>201.0</ele><time>2026-04-04T10:13:15.32Z</time></trkpt><trkpt lat="45.7068568" lon="9.4567608"><ele>199.75</ele><time>2026-04-04T10:13:17.32Z</time></trkpt><trkpt lat="45.7069694" lon="9.4567333"><ele>198.5</ele><time>2026-04-04T10:13:19.32Z</time></trkpt><trkpt lat="45.707043" lon="9.4566795"><ele>197.25</ele><time>2026-04-04T10:13:21.32Z</time></trkpt><trkpt lat="45.7072218" lon="9.4566094"><ele>196.0</ele><time>2026-04-04T10:13:28.319Z</time></trkpt><trkpt lat="45.7072976" lon="9.4565579"><ele>195.99999999999997</ele><time>2026-04-04T10:13:30.32Z</time></trkpt><trkpt lat="45.7073762" lon="9.4565089"><ele>196.0</ele><time>2026-04-04T10:13:32.32Z</time></trkpt><trkpt lat="45.7074491" lon="9.4564249"><ele>196.0</ele><time>2026-04-04T10:13:34.319Z</time></trkpt><trkpt lat="45.707494" lon="9.4563331"><ele>196.0</ele><time>2026-04-04T10:13:36.32Z</time></trkpt><trkpt lat="45.7075212" lon="9.4562144"><ele>195.99999999999997</ele><time>2026-04-04T10:13:38.32Z</time></trkpt><trkpt lat="45.7075174" lon="9.4560938"><ele>196.0</ele><time>2026-04-04T10:13:40.32Z</time></trkpt><trkpt lat="45.7074989" lon="9.455988"><ele>196.85714285714286</ele><time>2026-04-04T10:13:42.32Z</time></trkpt><trkpt lat="45.7074634" lon="9.4559082"><ele>197.71428571428572</ele><time>2026-04-04T10:13:45.319Z</time></trkpt><trkpt lat="45.7074229" lon="9.4558352"><ele>198.57142857142856</ele><time>2026-04-04T10:13:48.32Z</time></trkpt><trkpt lat="45.7073834" lon="9.4557555"><ele>199.42857142857144</ele><time>2026-04-04T10:13:51.319Z</time></trkpt><trkpt lat="45.7073459" lon="9.4556741"><ele>200.28571428571428</ele><time>2026-04-04T10:13:54.32Z</time></trkpt><trkpt lat="45.707315" lon="9.4555944"><ele>201.14285714285714</ele><time>2026-04-04T10:13:57.32Z</time></trkpt><trkpt lat="45.707279" lon="9.4554898"><ele>202.0</ele><time>2026-04-04T10:14:01.32Z</time></trkpt><trkpt lat="45.7072506" lon="9.455401"><ele>203.14285714285714</ele><time>2026-04-04T10:14:04.32Z</time></trkpt><trkpt lat="45.7072261" lon="9.4553159"><ele>204.28571428571428</ele><time>2026-04-04T10:14:07.32Z</time></trkpt><trkpt lat="45.7071903" lon="9.4552088"><ele>205.42857142857144</ele><time>2026-04-04T10:14:11.319Z</time></trkpt><trkpt lat="45.7071643" lon="9.4551233"><ele>206.57142857142856</ele><time>2026-04-04T10:14:14.32Z</time></trkpt><trkpt lat="45.707139" lon="9.4550283"><ele>207.71428571428572</ele><time>2026-04-04T10:14:17.319Z</time></trkpt><trkpt lat="45.7071146" lon="9.4549257"><ele>208.85714285714286</ele><time>2026-04-04T10:14:20.32Z</time></trkpt><trkpt lat="45.7070857" lon="9.454828"><ele>210.0</ele><time>2026-04-04T10:14:23.319Z</time></trkpt><trkpt lat="45.7070438" lon="9.4547482"><ele>210.0</ele><time>2026-04-04T10:14:26.319Z</time></trkpt><trkpt lat="45.7069875" lon="9.4546564"><ele>210.0</ele><time>2026-04-04T10:14:30.32Z</time></trkpt><trkpt lat="45.7069482" lon="9.454575"><ele>210.0</ele><time>2026-04-04T10:14:33.32Z</time></trkpt><trkpt lat="45.7069037" lon="9.4544775"><ele>210.0</ele><time>2026-04-04T10:14:37.32Z</time></trkpt><trkpt lat="45.7068819" lon="9.454391"><ele>210.0</ele><time>2026-04-04T10:14:40.32Z</time></trkpt><trkpt lat="45.7068564" lon="9.454281"><ele>210.0</ele><time>2026-04-04T10:14:44.32Z</time></trkpt><trkpt lat="45.706833" lon="9.454194"><ele>210.0</ele><time>2026-04-04T10:14:47.32Z</time></trkpt><trkpt lat="45.7067996" lon="9.4540896"><ele>212.28571428571428</ele><time>2026-04-04T10:14:52.32Z</time></trkpt><trkpt lat="45.7067765" lon="9.4539867"><ele>214.57142857142856</ele><time>2026-04-04T10:14:56.32Z</time></trkpt><trkpt lat="45.7067493" lon="9.453877"><ele>216.85714285714286</ele><time>2026-04-04T10:15:00.32Z</time></trkpt><trkpt lat="45.7067313" lon="9.453785"><ele>219.14285714285714</ele><time>2026-04-04T10:15:04.319Z</time></trkpt><trkpt lat="45.7067073" lon="9.4536845"><ele>221.42857142857142</ele><time>2026-04-04T10:15:09.319Z</time></trkpt><trkpt lat="45.7067102" lon="9.4535788"><ele>223.71428571428572</ele><time>2026-04-04T10:15:13.32Z</time></trkpt><trkpt lat="45.7067218" lon="9.4534779"><ele>226.0</ele><time>2026-04-04T10:15:17.32Z</time></trkpt><trkpt lat="45.7067351" lon="9.4533771"><ele>227.0</ele><time>2026-04-04T10:15:20.32Z</time></trkpt><trkpt lat="45.706728" lon="9.4532616"><ele>228.0</ele><time>2026-04-04T10:15:24.32Z</time></trkpt><trkpt lat="45.7067461" lon="9.4531493"><ele>229.0</ele><time>2026-04-04T10:15:28.32Z</time></trkpt><trkpt lat="45.7067608" lon="9.453037"><ele>230.0</ele><time>2026-04-04T10:15:32.32Z</time></trkpt><trkpt lat="45.7067751" lon="9.4529428"><ele>231.0</ele><time>2026-04-04T10:15:36.32Z</time></trkpt><trkpt lat="45.7067762" lon="9.452844"><ele>232.0</ele><time>2026-04-04T10:15:40.32Z</time></trkpt><trkpt lat="45.7067962" lon="9.4527483"><ele>233.0</ele><time>2026-04-04T10:15:45.32Z</time></trkpt><trkpt lat="45.7068255" lon="9.452649"><ele>233.28571428571428</ele><time>2026-04-04T10:15:49.32Z</time></trkpt><trkpt lat="45.7068555" lon="9.4525575"><ele>233.57142857142856</ele><time>2026-04-04T10:15:53.32Z</time></trkpt><trkpt lat="45.7068754" lon="9.4524669"><ele>233.85714285714283</ele><time>2026-04-04T10:15:57.32Z</time></trkpt><trkpt lat="45.7068704" lon="9.4523728"><ele>234.14285714285714</ele><time>2026-04-04T10:16:00.32Z</time></trkpt><trkpt lat="45.7068784" lon="9.4522822"><ele>234.4285714285714</ele><time>2026-04-04T10:16:03.32Z</time></trkpt><trkpt lat="45.7068983" lon="9.4521655"><ele>234.7142857142857</ele><time>2026-04-04T10:16:07.319Z</time></trkpt><trkpt lat="45.7069152" lon="9.452053"><ele>235.0</ele><time>2026-04-04T10:16:10.32Z</time></trkpt><trkpt lat="45.7069189" lon="9.4519395"><ele>234.99999999999997</ele><time>2026-04-04T10:16:13.319Z</time></trkpt><trkpt lat="45.7069162" lon="9.4518074"><ele>235.0</ele><time>2026-04-04T10:16:16.32Z</time></trkpt><trkpt lat="45.7069075" lon="9.4516828"><ele>235.0</ele><time>2026-04-04T10:16:19.319Z</time></trkpt><trkpt lat="45.7068976" lon="9.4515701"><ele>235.0</ele><time>2026-04-04T10:16:22.319Z</time></trkpt><trkpt lat="45.7068833" lon="9.4514441"><ele>234.99999999999997</ele><time>2026-04-04T10:16:25.32Z</time></trkpt><trkpt lat="45.7068718" lon="9.451325"><ele>235.0</ele><time>2026-04-04T10:16:28.319Z</time></trkpt><trkpt lat="45.7068565" lon="9.4512129"><ele>235.7142857142857</ele><time>2026-04-04T10:16:31.32Z</time></trkpt><trkpt lat="45.7068381" lon="9.4510895"><ele>236.4285714285714</ele><time>2026-04-04T10:16:34.32Z</time></trkpt><trkpt lat="45.7068256" lon="9.4509548"><ele>237.14285714285714</ele><time>2026-04-04T10:16:37.32Z</time></trkpt><trkpt lat="45.7068164" lon="9.4508587"><ele>237.85714285714283</ele><time>2026-04-04T10:16:39.32Z</time></trkpt><trkpt lat="45.7068023" lon="9.4507702"><ele>238.57142857142856</ele><time>2026-04-04T10:16:41.32Z</time></trkpt><trkpt lat="45.7067892" lon="9.4506805"><ele>239.28571428571428</ele><time>2026-04-04T10:16:43.319Z</time></trkpt><trkpt lat="45.706778" lon="9.4505864"><ele>240.0</ele><time>2026-04-04T10:16:45.32Z</time></trkpt><trkpt lat="45.7067688" lon="9.4504896"><ele>240.5</ele><time>2026-04-04T10:16:47.32Z</time></trkpt><trkpt lat="45.7067562" lon="9.4503977"><ele>241.0</ele><time>2026-04-04T10:16:49.32Z</time></trkpt><trkpt lat="45.7067467" lon="9.4503034"><ele>241.5</ele><time>2026-04-04T10:16:51.319Z</time></trkpt><trkpt lat="45.7067416" lon="9.4501607"><ele>242.0</ele><time>2026-04-04T10:16:54.32Z</time></trkpt><trkpt lat="45.7067402" lon="9.4500586"><ele>242.5</ele><time>2026-04-04T10:16:56.32Z</time></trkpt><trkpt lat="45.7067365" lon="9.4499558"><ele>243.0</ele><time>2026-04-04T10:16:58.32Z</time></trkpt><trkpt lat="45.7067411" lon="9.4498485"><ele>243.0</ele><time>2026-04-04T10:17:00.32Z</time></trkpt><trkpt lat="45.7067536" lon="9.4497362"><ele>243.0</ele><time>2026-04-04T10:17:02.319Z</time></trkpt><trkpt lat="45.7067812" lon="9.4496151"><ele>243.0</ele><time>2026-04-04T10:17:04.319Z</time></trkpt><trkpt lat="45.7068317" lon="9.4495429"><ele>243.0</ele><time>2026-04-04T10:17:06.319Z</time></trkpt><trkpt lat="45.7068991" lon="9.4495017"><ele>243.0</ele><time>2026-04-04T10:17:09.319Z</time></trkpt><trkpt lat="45.7069853" lon="9.4494755"><ele>243.0</ele><time>2026-04-04T10:17:11.32Z</time></trkpt><trkpt lat="45.7070869" lon="9.4494366"><ele>243.4</ele><time>2026-04-04T10:17:13.319Z</time></trkpt><trkpt lat="45.7071831" lon="9.449418"><ele>243.8</ele><time>2026-04-04T10:17:15.32Z</time></trkpt><trkpt lat="45.7072758" lon="9.4493882"><ele>244.2</ele><time>2026-04-04T10:17:17.32Z</time></trkpt><trkpt lat="45.7073678" lon="9.4493665"><ele>244.6</ele><time>2026-04-04T10:17:19.32Z</time></trkpt><trkpt lat="45.7074702" lon="9.449344"><ele>245.0</ele><time>2026-04-04T10:17:21.32Z</time></trkpt><trkpt lat="45.7075663" lon="9.4493079"><ele>245.0</ele><time>2026-04-04T10:17:23.319Z</time></trkpt><trkpt lat="45.7076581" lon="9.4492922"><ele>245.0</ele><time>2026-04-04T10:17:25.32Z</time></trkpt><trkpt lat="45.7078905" lon="9.449276"><ele>245.0</ele><time>2026-04-04T10:17:26.32Z</time></trkpt><trkpt lat="45.7079542" lon="9.4492568"><ele>245.0</ele><time>2026-04-04T10:17:27.32Z</time></trkpt><trkpt lat="45.7080756" lon="9.4492162"><ele>244.8</ele><time>2026-04-04T10:17:29.319Z</time></trkpt><trkpt lat="45.7081411" lon="9.4492032"><ele>244.6</ele><time>2026-04-04T10:17:30.319Z</time></trkpt><trkpt lat="45.708268" lon="9.4491773"><ele>244.39999999999998</ele><time>2026-04-04T10:17:32.32Z</time></trkpt><trkpt lat="45.7083818" lon="9.4491426"><ele>244.2</ele><time>2026-04-04T10:17:34.319Z</time></trkpt><trkpt lat="45.7084447" lon="9.4491253"><ele>244.0</ele><time>2026-04-04T10:17:35.319Z</time></trkpt><trkpt lat="45.7085669" lon="9.4490884"><ele>243.79999999999998</ele><time>2026-04-04T10:17:37.319Z</time></trkpt><trkpt lat="45.7087007" lon="9.4490591"><ele>243.59999999999997</ele><time>2026-04-04T10:17:39.32Z</time></trkpt><trkpt lat="45.7088231" lon="9.4490204"><ele>243.4</ele><time>2026-04-04T10:17:41.319Z</time></trkpt><trkpt lat="45.708886" lon="9.4490114"><ele>243.2</ele><time>2026-04-04T10:17:42.32Z</time></trkpt><trkpt lat="45.7090012" lon="9.4489993"><ele>243.0</ele><time>2026-04-04T10:17:44.32Z</time></trkpt><trkpt lat="45.7090751" lon="9.4489971"><ele>243.0</ele><time>2026-04-04T10:17:45.319Z</time></trkpt><trkpt lat="45.70914" lon="9.448977"><ele>243.0</ele><time>2026-04-04T10:17:46.32Z</time></trkpt><trkpt lat="45.7092095" lon="9.4489671"><ele>243.0</ele><time>2026-04-04T10:17:47.32Z</time></trkpt><trkpt lat="45.7093277" lon="9.4489508"><ele>243.0</ele><time>2026-04-04T10:17:49.32Z</time></trkpt><trkpt lat="45.7093982" lon="9.4489315"><ele>243.0</ele><time>2026-04-04T10:17:50.32Z</time></trkpt><trkpt lat="45.7094795" lon="9.4489117"><ele>243.0</ele><time>2026-04-04T10:17:51.32Z</time></trkpt><trkpt lat="45.7096008" lon="9.4489028"><ele>243.28571428571428</ele><time>2026-04-04T10:17:53.32Z</time></trkpt><trkpt lat="45.7096681" lon="9.4488856"><ele>243.57142857142858</ele><time>2026-04-04T10:17:54.319Z</time></trkpt><trkpt lat="45.7097444" lon="9.4488769"><ele>243.85714285714286</ele><time>2026-04-04T10:17:55.32Z</time></trkpt><trkpt lat="45.7098111" lon="9.4488538"><ele>244.14285714285714</ele><time>2026-04-04T10:17:56.32Z</time></trkpt><trkpt lat="45.7098934" lon="9.4488443"><ele>244.42857142857144</ele><time>2026-04-04T10:17:57.32Z</time></trkpt><trkpt lat="45.7099613" lon="9.4488295"><ele>244.71428571428572</ele><time>2026-04-04T10:17:58.32Z</time></trkpt><trkpt lat="45.7100435" lon="9.4488076"><ele>245.0</ele><time>2026-04-04T10:17:59.32Z</time></trkpt><trkpt lat="45.7101106" lon="9.4487809"><ele>245.33333333333334</ele><time>2026-04-04T10:18:00.32Z</time></trkpt><trkpt lat="45.7102325" lon="9.4487161"><ele>245.66666666666669</ele><time>2026-04-04T10:18:02.32Z</time></trkpt><trkpt lat="45.7102951" lon="9.4486745"><ele>246.0</ele><time>2026-04-04T10:18:03.32Z</time></trkpt><trkpt lat="45.7103549" lon="9.4486307"><ele>246.33333333333331</ele><time>2026-04-04T10:18:04.32Z</time></trkpt><trkpt lat="45.710418" lon="9.4485782"><ele>246.66666666666666</ele><time>2026-04-04T10:18:05.32Z</time></trkpt><trkpt lat="45.710477" lon="9.4485227"><ele>247.0</ele><time>2026-04-04T10:18:06.32Z</time></trkpt><trkpt lat="45.7105294" lon="9.4484638"><ele>247.0</ele><time>2026-04-04T10:18:07.32Z</time></trkpt><trkpt lat="45.7105865" lon="9.4484157"><ele>247.0</ele><time>2026-04-04T10:18:08.32Z</time></trkpt><trkpt lat="45.7106409" lon="9.4483674"><ele>247.0</ele><time>2026-04-04T10:18:09.32Z</time></trkpt><trkpt lat="45.7106958" lon="9.448317"><ele>247.0</ele><time>2026-04-04T10:18:10.32Z</time></trkpt><trkpt lat="45.7107559" lon="9.448281"><ele>247.0</ele><time>2026-04-04T10:18:11.32Z</time></trkpt><trkpt lat="45.7108079" lon="9.4482279"><ele>247.0</ele><time>2026-04-04T10:18:12.319Z</time></trkpt><trkpt lat="45.7108493" lon="9.4481237"><ele>247.0</ele><time>2026-04-04T10:18:14.32Z</time></trkpt><trkpt lat="45.7108037" lon="9.4479877"><ele>248.85714285714286</ele><time>2026-04-04T10:18:16.32Z</time></trkpt><trkpt lat="45.7107924" lon="9.4478821"><ele>250.71428571428572</ele><time>2026-04-04T10:18:18.32Z</time></trkpt><trkpt lat="45.710804" lon="9.4477853"><ele>252.57142857142858</ele><time>2026-04-04T10:18:20.319Z</time></trkpt><trkpt lat="45.7108349" lon="9.4476975"><ele>254.42857142857144</ele><time>2026-04-04T10:18:23.319Z</time></trkpt><trkpt lat="45.7108678" lon="9.4475957"><ele>256.2857142857143</ele><time>2026-04-04T10:18:27.319Z</time></trkpt><trkpt lat="45.710899" lon="9.4475164"><ele>258.14285714285717</ele><time>2026-04-04T10:18:30.32Z</time></trkpt><trkpt lat="45.7109355" lon="9.4474344"><ele>260.0</ele><time>2026-04-04T10:18:34.32Z</time></trkpt><trkpt lat="45.7109676" lon="9.4473378"><ele>260.0</ele><time>2026-04-04T10:18:38.32Z</time></trkpt><trkpt lat="45.7109954" lon="9.4472456"><ele>260.0</ele><time>2026-04-04T10:18:42.32Z</time></trkpt><trkpt lat="45.7110643" lon="9.4471781"><ele>260.0</ele><time>2026-04-04T10:18:46.319Z</time></trkpt><trkpt lat="45.7111199" lon="9.4471015"><ele>260.0</ele><time>2026-04-04T10:18:49.32Z</time></trkpt><trkpt lat="45.7111866" lon="9.4470494"><ele>260.0</ele><time>2026-04-04T10:18:52.32Z</time></trkpt><trkpt lat="45.711248" lon="9.4469932"><ele>260.0</ele><time>2026-04-04T10:18:55.32Z</time></trkpt><trkpt lat="45.7113067" lon="9.4469312"><ele>260.8571428571429</ele><time>2026-04-04T10:18:59.32Z</time></trkpt><trkpt lat="45.711344" lon="9.4468387"><ele>261.7142857142857</ele><time>2026-04-04T10:19:02.32Z</time></trkpt><trkpt lat="45.7113961" lon="9.4467729"><ele>262.57142857142856</ele><time>2026-04-04T10:19:05.32Z</time></trkpt><trkpt lat="45.7114536" lon="9.4467151"><ele>263.42857142857144</ele><time>2026-04-04T10:19:08.32Z</time></trkpt><trkpt lat="45.711506" lon="9.4466434"><ele>264.2857142857143</ele><time>2026-04-04T10:19:12.32Z</time></trkpt><trkpt lat="45.7115554" lon="9.4465629"><ele>265.14285714285717</ele><time>2026-04-04T10:19:15.32Z</time></trkpt><trkpt lat="45.711609" lon="9.4464993"><ele>266.0</ele><time>2026-04-04T10:19:19.32Z</time></trkpt><trkpt lat="45.7116671" lon="9.4464385"><ele>266.0</ele><time>2026-04-04T10:19:23.319Z</time></trkpt><trkpt lat="45.711726" lon="9.4463684"><ele>266.0</ele><time>2026-04-04T10:19:27.32Z</time></trkpt><trkpt lat="45.711772" lon="9.4463037"><ele>266.0</ele><time>2026-04-04T10:19:30.32Z</time></trkpt><trkpt lat="45.7118233" lon="9.4462476"><ele>266.0</ele><time>2026-04-04T10:19:33.319Z</time></trkpt><trkpt lat="45.711874" lon="9.4461769"><ele>266.0</ele><time>2026-04-04T10:19:36.32Z</time></trkpt><trkpt lat="45.7119374" lon="9.4460995"><ele>266.0</ele><time>2026-04-04T10:19:40.32Z</time></trkpt><trkpt lat="45.711989" lon="9.4460242"><ele>266.0</ele><time>2026-04-04T10:19:44.319Z</time></trkpt><trkpt lat="45.7120407" lon="9.4459557"><ele>266.5</ele><time>2026-04-04T10:19:48.32Z</time></trkpt><trkpt lat="45.7120894" lon="9.445897"><ele>267.0</ele><time>2026-04-04T10:19:51.32Z</time></trkpt><trkpt lat="45.712145" lon="9.445816"><ele>267.5</ele><time>2026-04-04T10:19:55.319Z</time></trkpt><trkpt lat="45.7122041" lon="9.4457417"><ele>268.0</ele><time>2026-04-04T10:19:59.319Z</time></trkpt><trkpt lat="45.7122617" lon="9.4456807"><ele>268.5</ele><time>2026-04-04T10:20:02.32Z</time></trkpt><trkpt lat="45.7123291" lon="9.4456136"><ele>269.0</ele><time>2026-04-04T10:20:06.32Z</time></trkpt><trkpt lat="45.7123884" lon="9.4455331"><ele>269.0</ele><time>2026-04-04T10:20:10.32Z</time></trkpt><trkpt lat="45.7124425" lon="9.4454759"><ele>269.0</ele><time>2026-04-04T10:20:13.32Z</time></trkpt><trkpt lat="45.712502" lon="9.4454059"><ele>269.0</ele><time>2026-04-04T10:20:17.32Z</time></trkpt><trkpt lat="45.7125522" lon="9.44534"><ele>269.0</ele><time>2026-04-04T10:20:20.32Z</time></trkpt><trkpt lat="45.7126057" lon="9.4452747"><ele>269.0</ele><time>2026-04-04T10:20:23.319Z</time></trkpt><trkpt lat="45.7126589" lon="9.4452006"><ele>269.0</ele><time>2026-04-04T10:20:26.32Z</time></trkpt><trkpt lat="45.7127069" lon="9.4451306"><ele>269.0</ele><time>2026-04-04T10:20:29.32Z</time></trkpt><trkpt lat="45.7127538" lon="9.4450698"><ele>268.7142857142857</ele><time>2026-04-04T10:20:32.32Z</time></trkpt><trkpt lat="45.7128076" lon="9.4450029"><ele>268.42857142857144</ele><time>2026-04-04T10:20:35.319Z</time></trkpt><trkpt lat="45.7128652" lon="9.4449305"><ele>268.14285714285717</ele><time>2026-04-04T10:20:38.32Z</time></trkpt><trkpt lat="45.7129255" lon="9.4448704"><ele>267.8571428571429</ele><time>2026-04-04T10:20:41.319Z</time></trkpt><trkpt lat="45.7129799" lon="9.4447924"><ele>267.57142857142856</ele><time>2026-04-04T10:20:45.32Z</time></trkpt><trkpt lat="45.7130356" lon="9.4447052"><ele>267.28571428571433</ele><time>2026-04-04T10:20:49.319Z</time></trkpt><trkpt lat="45.7130641" lon="9.4446225"><ele>267.0</ele><time>2026-04-04T10:20:52.32Z</time></trkpt><trkpt lat="45.7131026" lon="9.444548"><ele>271.5714285714286</ele><time>2026-04-04T10:20:55.319Z</time></trkpt><trkpt lat="45.7131338" lon="9.444459"><ele>276.14285714285717</ele><time>2026-04-04T10:20:58.32Z</time></trkpt><trkpt lat="45.7131586" lon="9.4443657"><ele>280.7142857142857</ele><time>2026-04-04T10:21:01.319Z</time></trkpt><trkpt lat="45.7131828" lon="9.4442758"><ele>285.28571428571433</ele><time>2026-04-04T10:21:04.319Z</time></trkpt><trkpt lat="45.713214" lon="9.4441884"><ele>289.8571428571429</ele><time>2026-04-04T10:21:07.32Z</time></trkpt><trkpt lat="45.713253" lon="9.444114"><ele>294.42857142857144</ele><time>2026-04-04T10:21:10.319Z</time></trkpt><trkpt lat="45.7132875" lon="9.444036"><ele>299.0</ele><time>2026-04-04T10:21:13.319Z</time></trkpt><trkpt lat="45.7133404" lon="9.4439361"><ele>299.0</ele><time>2026-04-04T10:21:16.319Z</time></trkpt><trkpt lat="45.7133846" lon="9.4438478"><ele>299.0</ele><time>2026-04-04T10:21:19.32Z</time></trkpt><trkpt lat="45.7134284" lon="9.4437737"><ele>299.0</ele><time>2026-04-04T10:21:22.319Z</time></trkpt><trkpt lat="45.7134774" lon="9.4436918"><ele>299.0</ele><time>2026-04-04T10:21:25.32Z</time></trkpt><trkpt lat="45.7135168" lon="9.4436191"><ele>299.0</ele><time>2026-04-04T10:21:28.319Z</time></trkpt><trkpt lat="45.7135643" lon="9.4435431"><ele>299.0</ele><time>2026-04-04T10:21:31.32Z</time></trkpt><trkpt lat="45.7136151" lon="9.4434757"><ele>299.0</ele><time>2026-04-04T10:21:34.32Z</time></trkpt><trkpt lat="45.7136637" lon="9.4434024"><ele>297.5</ele><time>2026-04-04T10:21:37.32Z</time></trkpt><trkpt lat="45.7137093" lon="9.4433204"><ele>296.0</ele><time>2026-04-04T10:21:40.32Z</time></trkpt><trkpt lat="45.713763" lon="9.4432425"><ele>294.5</ele><time>2026-04-04T10:21:43.319Z</time></trkpt><trkpt lat="45.7138054" lon="9.443145"><ele>293.0</ele><time>2026-04-04T10:21:46.32Z</time></trkpt><trkpt lat="45.7138306" lon="9.4430374"><ele>291.5</ele><time>2026-04-04T10:21:49.32Z</time></trkpt><trkpt lat="45.7138418" lon="9.442929"><ele>290.0</ele><time>2026-04-04T10:21:52.32Z</time></trkpt><trkpt lat="45.7138602" lon="9.4428214"><ele>293.0</ele><time>2026-04-04T10:21:55.32Z</time></trkpt><trkpt lat="45.7138967" lon="9.4427107"><ele>296.0</ele><time>2026-04-04T10:21:58.32Z</time></trkpt><trkpt lat="45.7139804" lon="9.4426508"><ele>299.0</ele><time>2026-04-04T10:22:01.32Z</time></trkpt><trkpt lat="45.7140446" lon="9.4426523"><ele>302.0</ele><time>2026-04-04T10:22:03.32Z</time></trkpt><trkpt lat="45.7141071" lon="9.442665"><ele>305.0</ele><time>2026-04-04T10:22:05.319Z</time></trkpt><trkpt lat="45.7141804" lon="9.4426335"><ele>308.0</ele><time>2026-04-04T10:22:07.32Z</time></trkpt><trkpt lat="45.7142507" lon="9.4425912"><ele>308.0</ele><time>2026-04-04T10:22:09.32Z</time></trkpt><trkpt lat="45.714307" lon="9.4425424"><ele>308.0</ele><time>2026-04-04T10:22:11.32Z</time></trkpt><trkpt lat="45.7143624" lon="9.4424768"><ele>308.0</ele><time>2026-04-04T10:22:13.319Z</time></trkpt><trkpt lat="45.7144169" lon="9.442417"><ele>308.0</ele><time>2026-04-04T10:22:15.32Z</time></trkpt><trkpt lat="45.7144826" lon="9.4423516"><ele>308.0</ele><time>2026-04-04T10:22:18.32Z</time></trkpt><trkpt lat="45.7145462" lon="9.4423013"><ele>308.0</ele><time>2026-04-04T10:22:20.319Z</time></trkpt><trkpt lat="45.71461" lon="9.4422467"><ele>308.0</ele><time>2026-04-04T10:22:22.32Z</time></trkpt><trkpt lat="45.7146755" lon="9.442129"><ele>308.6666666666667</ele><time>2026-04-04T10:22:23.32Z</time></trkpt><trkpt lat="45.7147567" lon="9.4420698"><ele>309.33333333333337</ele><time>2026-04-04T10:22:26.319Z</time></trkpt><trkpt lat="45.7148151" lon="9.4420223"><ele>310.0</ele><time>2026-04-04T10:22:28.32Z</time></trkpt><trkpt lat="45.7148734" lon="9.4419505"><ele>310.6666666666667</ele><time>2026-04-04T10:22:30.319Z</time></trkpt><trkpt lat="45.7149513" lon="9.4419324"><ele>311.3333333333333</ele><time>2026-04-04T10:22:32.32Z</time></trkpt><trkpt lat="45.71499" lon="9.4418609"><ele>312.0</ele><time>2026-04-04T10:22:34.319Z</time></trkpt><trkpt lat="45.7150645" lon="9.441814"><ele>312.0</ele><time>2026-04-04T10:22:36.32Z</time></trkpt><trkpt lat="45.7151371" lon="9.4417624"><ele>312.0</ele><time>2026-04-04T10:22:38.319Z</time></trkpt><trkpt lat="45.715198" lon="9.4417106"><ele>312.0</ele><time>2026-04-04T10:22:40.32Z</time></trkpt><trkpt lat="45.7152603" lon="9.4416605"><ele>312.0</ele><time>2026-04-04T10:22:42.32Z</time></trkpt><trkpt lat="45.7153234" lon="9.4416106"><ele>312.0</ele><time>2026-04-04T10:22:44.319Z</time></trkpt><trkpt lat="45.7153967" lon="9.4415361"><ele>312.0</ele><time>2026-04-04T10:22:47.32Z</time></trkpt><trkpt lat="45.7154734" lon="9.4414699"><ele>311.1666666666667</ele><time>2026-04-04T10:22:50.32Z</time></trkpt><trkpt lat="45.7155336" lon="9.4414221"><ele>310.3333333333333</ele><time>2026-04-04T10:22:52.32Z</time></trkpt><trkpt lat="45.7156088" lon="9.4413535"><ele>309.5</ele><time>2026-04-04T10:22:55.32Z</time></trkpt><trkpt lat="45.7156693" lon="9.4413023"><ele>308.66666666666663</ele><time>2026-04-04T10:22:57.32Z</time></trkpt><trkpt lat="45.7157357" lon="9.4412513"><ele>307.8333333333333</ele><time>2026-04-04T10:22:59.32Z</time></trkpt><trkpt lat="45.7157993" lon="9.4412051"><ele>307.0</ele><time>2026-04-04T10:23:01.319Z</time></trkpt><trkpt lat="45.7158773" lon="9.4411447"><ele>308.16666666666663</ele><time>2026-04-04T10:23:04.319Z</time></trkpt><trkpt lat="45.7159582" lon="9.4410763"><ele>309.3333333333333</ele><time>2026-04-04T10:23:07.32Z</time></trkpt><trkpt lat="45.7160149" lon="9.4410243"><ele>310.5</ele><time>2026-04-04T10:23:09.32Z</time></trkpt><trkpt lat="45.7160718" lon="9.4409763"><ele>311.6666666666667</ele><time>2026-04-04T10:23:11.319Z</time></trkpt><trkpt lat="45.7161237" lon="9.4409176"><ele>312.83333333333337</ele><time>2026-04-04T10:23:13.32Z</time></trkpt><trkpt lat="45.7162026" lon="9.4408572"><ele>314.0</ele><time>2026-04-04T10:23:16.32Z</time></trkpt><trkpt lat="45.7162656" lon="9.4407935"><ele>314.0</ele><time>2026-04-04T10:23:19.32Z</time></trkpt><trkpt lat="45.7163351" lon="9.4407242"><ele>314.0</ele><time>2026-04-04T10:23:22.32Z</time></trkpt><trkpt lat="45.7164088" lon="9.4406537"><ele>314.0</ele><time>2026-04-04T10:23:25.32Z</time></trkpt><trkpt lat="45.7164699" lon="9.4406125"><ele>314.0</ele><time>2026-04-04T10:23:27.319Z</time></trkpt><trkpt lat="45.716556" lon="9.4405468"><ele>314.0</ele><time>2026-04-04T10:23:30.32Z</time></trkpt><trkpt lat="45.716636" lon="9.4405023"><ele>314.0</ele><time>2026-04-04T10:23:32.32Z</time></trkpt><trkpt lat="45.7167025" lon="9.4404437"><ele>314.71428571428567</ele><time>2026-04-04T10:23:34.319Z</time></trkpt><trkpt lat="45.7167551" lon="9.4403864"><ele>315.42857142857144</ele><time>2026-04-04T10:23:37.32Z</time></trkpt><trkpt lat="45.7168209" lon="9.4403237"><ele>316.1428571428571</ele><time>2026-04-04T10:23:40.32Z</time></trkpt><trkpt lat="45.7168662" lon="9.4402604"><ele>316.85714285714283</ele><time>2026-04-04T10:23:43.32Z</time></trkpt><trkpt lat="45.7169189" lon="9.4401691"><ele>317.57142857142856</ele><time>2026-04-04T10:23:46.32Z</time></trkpt><trkpt lat="45.7169547" lon="9.4400943"><ele>318.2857142857143</ele><time>2026-04-04T10:23:51.336Z</time></trkpt><trkpt lat="45.7169996" lon="9.440023"><ele>319.0</ele><time>2026-04-04T10:23:54.32Z</time></trkpt><trkpt lat="45.7170453" lon="9.439959"><ele>319.0</ele><time>2026-04-04T10:23:57.324Z</time></trkpt><trkpt lat="45.7171082" lon="9.4398901"><ele>319.0</ele><time>2026-04-04T10:24:00.32Z</time></trkpt><trkpt lat="45.7171691" lon="9.4398038"><ele>319.0</ele><time>2026-04-04T10:24:04.27Z</time></trkpt><trkpt lat="45.7172317" lon="9.4397375"><ele>319.0</ele><time>2026-04-04T10:24:07.104Z</time></trkpt><trkpt lat="45.7172875" lon="9.4396773"><ele>319.0</ele><time>2026-04-04T10:24:09.884Z</time></trkpt><trkpt lat="45.7173329" lon="9.4396024"><ele>319.0</ele><time>2026-04-04T10:24:12.707Z</time></trkpt><trkpt lat="45.717389" lon="9.4395062"><ele>322.2</ele><time>2026-04-04T10:24:16.346Z</time></trkpt><trkpt lat="45.7174412" lon="9.4394077"><ele>325.4</ele><time>2026-04-04T10:24:19.32Z</time></trkpt><trkpt lat="45.717485" lon="9.4393299"><ele>328.6</ele><time>2026-04-04T10:24:21.319Z</time></trkpt><trkpt lat="45.7175262" lon="9.4392383"><ele>331.8</ele><time>2026-04-04T10:24:23.32Z</time></trkpt><trkpt lat="45.7176534" lon="9.4390946"><ele>335.0</ele><time>2026-04-04T10:24:25.32Z</time></trkpt><trkpt lat="45.7176976" lon="9.4390189"><ele>333.85714285714283</ele><time>2026-04-04T10:24:27.319Z</time></trkpt><trkpt lat="45.7177373" lon="9.43894"><ele>332.7142857142857</ele><time>2026-04-04T10:24:29.318Z</time></trkpt><trkpt lat="45.7177876" lon="9.4388612"><ele>331.57142857142856</ele><time>2026-04-04T10:24:31.32Z</time></trkpt><trkpt lat="45.7178369" lon="9.4387827"><ele>330.42857142857144</ele><time>2026-04-04T10:24:33.32Z</time></trkpt><trkpt lat="45.7178901" lon="9.4387044"><ele>329.2857142857143</ele><time>2026-04-04T10:24:35.32Z</time></trkpt><trkpt lat="45.7179188" lon="9.4386092"><ele>328.1428571428571</ele><time>2026-04-04T10:24:37.32Z</time></trkpt><trkpt lat="45.7179285" lon="9.4385042"><ele>327.0</ele><time>2026-04-04T10:24:39.319Z</time></trkpt><trkpt lat="45.7179272" lon="9.4383998"><ele>327.0</ele><time>2026-04-04T10:24:41.32Z</time></trkpt><trkpt lat="45.7179321" lon="9.4382977"><ele>327.0</ele><time>2026-04-04T10:24:43.32Z</time></trkpt><trkpt lat="45.7179356" lon="9.4381967"><ele>327.0</ele><time>2026-04-04T10:24:45.32Z</time></trkpt><trkpt lat="45.7179328" lon="9.4380941"><ele>327.0</ele><time>2026-04-04T10:24:47.32Z</time></trkpt><trkpt lat="45.717942" lon="9.4379839"><ele>327.0</ele><time>2026-04-04T10:24:49.32Z</time></trkpt><trkpt lat="45.7179695" lon="9.437858"><ele>327.0</ele><time>2026-04-04T10:24:51.32Z</time></trkpt><trkpt lat="45.7179913" lon="9.4377041"><ele>327.25</ele><time>2026-04-04T10:24:53.32Z</time></trkpt><trkpt lat="45.7180013" lon="9.4375676"><ele>327.5</ele><time>2026-04-04T10:24:55.32Z</time></trkpt><trkpt lat="45.7180122" lon="9.4374456"><ele>327.75</ele><time>2026-04-04T10:24:57.32Z</time></trkpt><trkpt lat="45.7180235" lon="9.437282"><ele>328.0</ele><time>2026-04-04T10:25:00.32Z</time></trkpt><trkpt lat="45.7180102" lon="9.4369041"><ele>327.66666666666663</ele><time>2026-04-04T10:25:04.32Z</time></trkpt><trkpt lat="45.7179896" lon="9.4368173"><ele>327.3333333333333</ele><time>2026-04-04T10:25:05.32Z</time></trkpt><trkpt lat="45.7179138" lon="9.4368048"><ele>327.0</ele><time>2026-04-04T10:25:06.319Z</time></trkpt><trkpt lat="45.7178615" lon="9.436644"><ele>326.6666666666667</ele><time>2026-04-04T10:25:08.319Z</time></trkpt><trkpt lat="45.7177775" lon="9.436527"><ele>326.33333333333337</ele><time>2026-04-04T10:25:10.32Z</time></trkpt><trkpt lat="45.7177282" lon="9.4364705"><ele>326.0</ele><time>2026-04-04T10:25:11.32Z</time></trkpt><trkpt lat="45.7176838" lon="9.436398"><ele>327.20000000000005</ele><time>2026-04-04T10:25:12.32Z</time></trkpt><trkpt lat="45.7176401" lon="9.436333"><ele>328.40000000000003</ele><time>2026-04-04T10:25:13.32Z</time></trkpt><trkpt lat="45.7175918" lon="9.4362674"><ele>329.6</ele><time>2026-04-04T10:25:14.32Z</time></trkpt><trkpt lat="45.7174993" lon="9.4361549"><ele>330.8</ele><time>2026-04-04T10:25:16.319Z</time></trkpt><trkpt lat="45.7174272" lon="9.4360364"><ele>332.0</ele><time>2026-04-04T10:25:18.319Z</time></trkpt><trkpt lat="45.7173865" lon="9.4358731"><ele>332.0</ele><time>2026-04-04T10:25:20.319Z</time></trkpt><trkpt lat="45.7173684" lon="9.43573"><ele>332.0</ele><time>2026-04-04T10:25:22.32Z</time></trkpt><trkpt lat="45.7173476" lon="9.4356301"><ele>332.0</ele><time>2026-04-04T10:25:24.32Z</time></trkpt><trkpt lat="45.7173562" lon="9.435446"><ele>332.0</ele><time>2026-04-04T10:25:26.32Z</time></trkpt><trkpt lat="45.7173821" lon="9.4352709"><ele>332.0</ele><time>2026-04-04T10:25:28.319Z</time></trkpt><trkpt lat="45.7174071" lon="9.4351049"><ele>331.83333333333337</ele><time>2026-04-04T10:25:30.32Z</time></trkpt><trkpt lat="45.7173972" lon="9.4349346"><ele>331.6666666666667</ele><time>2026-04-04T10:25:32.32Z</time></trkpt><trkpt lat="45.7173731" lon="9.4348007"><ele>331.5</ele><time>2026-04-04T10:25:34.32Z</time></trkpt><trkpt lat="45.7173167" lon="9.4347602"><ele>331.3333333333333</ele><time>2026-04-04T10:25:41.32Z</time></trkpt><trkpt lat="45.7172591" lon="9.4348057"><ele>331.16666666666663</ele><time>2026-04-04T10:25:49.32Z</time></trkpt><trkpt lat="45.7172265" lon="9.4348834"><ele>331.0</ele><time>2026-04-04T10:25:52.32Z</time></trkpt><trkpt lat="45.7171755" lon="9.4349366"><ele>331.0</ele><time>2026-04-04T10:25:56.32Z</time></trkpt><trkpt lat="45.7171107" lon="9.4350001"><ele>331.0</ele><time>2026-04-04T10:26:00.32Z</time></trkpt><trkpt lat="45.717048" lon="9.4350382"><ele>331.0</ele><time>2026-04-04T10:26:02.319Z</time></trkpt><trkpt lat="45.7169928" lon="9.4351306"><ele>331.0</ele><time>2026-04-04T10:26:06.32Z</time></trkpt><trkpt lat="45.7169492" lon="9.4352343"><ele>331.0</ele><time>2026-04-04T10:26:09.32Z</time></trkpt><trkpt lat="45.7169334" lon="9.4353559"><ele>331.0</ele><time>2026-04-04T10:26:15.319Z</time></trkpt><trkpt lat="45.7169075" lon="9.4354786"><ele>333.42857142857144</ele><time>2026-04-04T10:26:18.32Z</time></trkpt><trkpt lat="45.7168916" lon="9.4355767"><ele>335.85714285714283</ele><time>2026-04-04T10:26:21.32Z</time></trkpt><trkpt lat="45.7168546" lon="9.4356578"><ele>338.2857142857143</ele><time>2026-04-04T10:26:23.32Z</time></trkpt><trkpt lat="45.7168207" lon="9.4357352"><ele>340.7142857142857</ele><time>2026-04-04T10:26:27.319Z</time></trkpt><trkpt lat="45.7168208" lon="9.4358394"><ele>343.14285714285717</ele><time>2026-04-04T10:26:31.32Z</time></trkpt><trkpt lat="45.716798" lon="9.4359379"><ele>345.57142857142856</ele><time>2026-04-04T10:26:35.319Z</time></trkpt><trkpt lat="45.716769" lon="9.4360215"><ele>348.0</ele><time>2026-04-04T10:26:41.319Z</time></trkpt><trkpt lat="45.716765" lon="9.4361279"><ele>348.0</ele><time>2026-04-04T10:26:46.32Z</time></trkpt><trkpt lat="45.7167423" lon="9.4362402"><ele>348.0</ele><time>2026-04-04T10:26:51.32Z</time></trkpt><trkpt lat="45.7167399" lon="9.4363357"><ele>348.0</ele><time>2026-04-04T10:26:54.32Z</time></trkpt><trkpt lat="45.7167106" lon="9.4364364"><ele>348.0</ele><time>2026-04-04T10:26:58.32Z</time></trkpt><trkpt lat="45.7166924" lon="9.4365351"><ele>348.0</ele><time>2026-04-04T10:27:02.32Z</time></trkpt><trkpt lat="45.7166955" lon="9.4366381"><ele>348.0</ele><time>2026-04-04T10:27:05.32Z</time></trkpt><trkpt lat="45.7166765" lon="9.4367531"><ele>348.5</ele><time>2026-04-04T10:27:09.32Z</time></trkpt><trkpt lat="45.7166525" lon="9.4368621"><ele>349.0</ele><time>2026-04-04T10:27:12.319Z</time></trkpt><trkpt lat="45.7166159" lon="9.4369504"><ele>349.5</ele><time>2026-04-04T10:27:14.32Z</time></trkpt><trkpt lat="45.7165894" lon="9.4370346"><ele>350.0</ele><time>2026-04-04T10:27:16.32Z</time></trkpt><trkpt lat="45.7165814" lon="9.4371478"><ele>350.5</ele><time>2026-04-04T10:27:19.319Z</time></trkpt><trkpt lat="45.7165677" lon="9.4372419"><ele>351.0</ele><time>2026-04-04T10:27:22.32Z</time></trkpt><trkpt lat="45.7165881" lon="9.4373831"><ele>351.42857142857144</ele><time>2026-04-04T10:27:24.32Z</time></trkpt><trkpt lat="45.716625" lon="9.437474"><ele>351.8571428571429</ele><time>2026-04-04T10:27:26.319Z</time></trkpt><trkpt lat="45.7166386" lon="9.4375672"><ele>352.28571428571433</ele><time>2026-04-04T10:27:28.32Z</time></trkpt><trkpt lat="45.7166589" lon="9.4376529"><ele>352.7142857142857</ele><time>2026-04-04T10:27:30.32Z</time></trkpt><trkpt lat="45.7166589" lon="9.4377451"><ele>353.1428571428571</ele><time>2026-04-04T10:27:32.319Z</time></trkpt><trkpt lat="45.716702" lon="9.4378305"><ele>353.5714285714286</ele><time>2026-04-04T10:27:35.32Z</time></trkpt><trkpt lat="45.7167455" lon="9.4379117"><ele>354.0</ele><time>2026-04-04T10:27:38.32Z</time></trkpt><trkpt lat="45.7167739" lon="9.4379939"><ele>354.5</ele><time>2026-04-04T10:27:40.32Z</time></trkpt><trkpt lat="45.7168218" lon="9.4380828"><ele>355.0</ele><time>2026-04-04T10:27:43.32Z</time></trkpt><trkpt lat="45.7168797" lon="9.4381483"><ele>355.5</ele><time>2026-04-04T10:27:46.32Z</time></trkpt><trkpt lat="45.7169326" lon="9.4382301"><ele>356.0</ele><time>2026-04-04T10:27:50.32Z</time></trkpt><trkpt lat="45.7169062" lon="9.4383198"><ele>356.5</ele><time>2026-04-04T10:27:54.32Z</time></trkpt><trkpt lat="45.7168767" lon="9.4384504"><ele>357.0</ele><time>2026-04-04T10:27:57.32Z</time></trkpt><trkpt lat="45.7168359" lon="9.4385259"><ele>357.0</ele><time>2026-04-04T10:27:59.32Z</time></trkpt><trkpt lat="45.7168043" lon="9.4386468"><ele>357.0</ele><time>2026-04-04T10:28:03.319Z</time></trkpt><trkpt lat="45.7167352" lon="9.438734"><ele>357.0</ele><time>2026-04-04T10:28:06.32Z</time></trkpt><trkpt lat="45.7166918" lon="9.4388057"><ele>357.0</ele><time>2026-04-04T10:28:08.32Z</time></trkpt><trkpt lat="45.7166246" lon="9.438847"><ele>357.0</ele><time>2026-04-04T10:28:09.32Z</time></trkpt><trkpt lat="45.716563" lon="9.4388841"><ele>357.0</ele><time>2026-04-04T10:28:10.32Z</time></trkpt><trkpt lat="45.7164694" lon="9.438948"><ele>356.40000000000003</ele><time>2026-04-04T10:28:12.32Z</time></trkpt><trkpt lat="45.7163923" lon="9.4389958"><ele>355.8</ele><time>2026-04-04T10:28:14.32Z</time></trkpt><trkpt lat="45.7163004" lon="9.4390573"><ele>355.2</ele><time>2026-04-04T10:28:16.32Z</time></trkpt><trkpt lat="45.7162276" lon="9.4391164"><ele>354.6</ele><time>2026-04-04T10:28:17.32Z</time></trkpt><trkpt lat="45.716132" lon="9.4391902"><ele>354.0</ele><time>2026-04-04T10:28:19.32Z</time></trkpt><trkpt lat="45.7160277" lon="9.4392711"><ele>354.0</ele><time>2026-04-04T10:28:21.32Z</time></trkpt><trkpt lat="45.7159601" lon="9.4393401"><ele>354.0</ele><time>2026-04-04T10:28:23.32Z</time></trkpt><trkpt lat="45.7158829" lon="9.4394012"><ele>354.0</ele><time>2026-04-04T10:28:25.32Z</time></trkpt><trkpt lat="45.7157618" lon="9.4395145"><ele>354.0</ele><time>2026-04-04T10:28:27.32Z</time></trkpt><trkpt lat="45.7157096" lon="9.4396169"><ele>354.0</ele><time>2026-04-04T10:28:28.32Z</time></trkpt><trkpt lat="45.7156696" lon="9.439695"><ele>352.0</ele><time>2026-04-04T10:28:29.319Z</time></trkpt><trkpt lat="45.7156256" lon="9.439761"><ele>350.0</ele><time>2026-04-04T10:28:30.319Z</time></trkpt><trkpt lat="45.715563" lon="9.4399099"><ele>348.0</ele><time>2026-04-04T10:28:32.319Z</time></trkpt><trkpt lat="45.7154726" lon="9.439996"><ele>346.0</ele><time>2026-04-04T10:28:34.32Z</time></trkpt><trkpt lat="45.7154176" lon="9.4400616"><ele>344.0</ele><time>2026-04-04T10:28:35.32Z</time></trkpt><trkpt lat="45.7153216" lon="9.4400921"><ele>345.1666666666667</ele><time>2026-04-04T10:28:37.32Z</time></trkpt><trkpt lat="45.7152165" lon="9.4401778"><ele>346.33333333333337</ele><time>2026-04-04T10:28:39.32Z</time></trkpt><trkpt lat="45.7151656" lon="9.440236"><ele>347.5</ele><time>2026-04-04T10:28:40.319Z</time></trkpt><trkpt lat="45.7151051" lon="9.4402909"><ele>348.6666666666667</ele><time>2026-04-04T10:28:41.32Z</time></trkpt><trkpt lat="45.7150183" lon="9.4403644"><ele>349.8333333333333</ele><time>2026-04-04T10:28:43.32Z</time></trkpt><trkpt lat="45.7149574" lon="9.4404322"><ele>351.0</ele><time>2026-04-04T10:28:44.32Z</time></trkpt><trkpt lat="45.7148551" lon="9.4404952"><ele>350.8333333333333</ele><time>2026-04-04T10:28:46.32Z</time></trkpt><trkpt lat="45.7148013" lon="9.4405573"><ele>350.6666666666667</ele><time>2026-04-04T10:28:48.319Z</time></trkpt><trkpt lat="45.7147218" lon="9.4406144"><ele>350.5</ele><time>2026-04-04T10:28:50.32Z</time></trkpt><trkpt lat="45.7146312" lon="9.4406959"><ele>350.33333333333337</ele><time>2026-04-04T10:28:52.319Z</time></trkpt><trkpt lat="45.7145554" lon="9.4407334"><ele>350.1666666666667</ele><time>2026-04-04T10:28:54.32Z</time></trkpt><trkpt lat="45.7144681" lon="9.4407836"><ele>350.0</ele><time>2026-04-04T10:28:56.319Z</time></trkpt><trkpt lat="45.7143789" lon="9.4408516"><ele>350.0</ele><time>2026-04-04T10:28:58.32Z</time></trkpt><trkpt lat="45.7142989" lon="9.4409206"><ele>350.0</ele><time>2026-04-04T10:29:00.319Z</time></trkpt><trkpt lat="45.7142189" lon="9.4409827"><ele>350.0</ele><time>2026-04-04T10:29:02.32Z</time></trkpt><trkpt lat="45.7141524" lon="9.4410249"><ele>350.0</ele><time>2026-04-04T10:29:04.32Z</time></trkpt><trkpt lat="45.7140739" lon="9.4410471"><ele>350.0</ele><time>2026-04-04T10:29:06.32Z</time></trkpt><trkpt lat="45.7139656" lon="9.441049"><ele>350.0</ele><time>2026-04-04T10:29:08.319Z</time></trkpt><trkpt lat="45.7138284" lon="9.4410603"><ele>350.0</ele><time>2026-04-04T10:29:10.319Z</time></trkpt><trkpt lat="45.7137596" lon="9.4410505"><ele>350.0</ele><time>2026-04-04T10:29:11.32Z</time></trkpt><trkpt lat="45.7136941" lon="9.4410277"><ele>350.0</ele><time>2026-04-04T10:29:12.32Z</time></trkpt><trkpt lat="45.7135775" lon="9.4410081"><ele>350.0</ele><time>2026-04-04T10:29:15.32Z</time></trkpt><trkpt lat="45.7135064" lon="9.4410239"><ele>350.0</ele><time>2026-04-04T10:29:16.32Z</time></trkpt><trkpt lat="45.7134034" lon="9.4410667"><ele>350.0</ele><time>2026-04-04T10:29:17.319Z</time></trkpt><trkpt lat="45.7133348" lon="9.4410495"><ele>348.83333333333337</ele><time>2026-04-04T10:29:18.319Z</time></trkpt><trkpt lat="45.7132639" lon="9.4410326"><ele>347.6666666666667</ele><time>2026-04-04T10:29:19.32Z</time></trkpt><trkpt lat="45.7131671" lon="9.4410135"><ele>346.5</ele><time>2026-04-04T10:29:20.32Z</time></trkpt><trkpt lat="45.7130816" lon="9.4410082"><ele>345.3333333333333</ele><time>2026-04-04T10:29:21.32Z</time></trkpt><trkpt lat="45.7130031" lon="9.44098"><ele>344.16666666666663</ele><time>2026-04-04T10:29:22.32Z</time></trkpt><trkpt lat="45.712906" lon="9.4409593"><ele>343.0</ele><time>2026-04-04T10:29:23.32Z</time></trkpt><trkpt lat="45.7128337" lon="9.4409483"><ele>340.79999999999995</ele><time>2026-04-04T10:29:24.32Z</time></trkpt><trkpt lat="45.7127331" lon="9.4408788"><ele>338.6</ele><time>2026-04-04T10:29:26.32Z</time></trkpt><trkpt lat="45.7126401" lon="9.4408159"><ele>336.4</ele><time>2026-04-04T10:29:28.32Z</time></trkpt><trkpt lat="45.7125768" lon="9.4407445"><ele>334.20000000000005</ele><time>2026-04-04T10:29:31.32Z</time></trkpt><trkpt lat="45.712513" lon="9.4407476"><ele>332.0</ele><time>2026-04-04T10:29:33.32Z</time></trkpt><trkpt lat="45.712473" lon="9.4408701"><ele>332.0</ele><time>2026-04-04T10:29:36.32Z</time></trkpt><trkpt lat="45.712421" lon="9.4409436"><ele>332.0</ele><time>2026-04-04T10:29:37.32Z</time></trkpt><trkpt lat="45.7123775" lon="9.4410469"><ele>332.0</ele><time>2026-04-04T10:29:39.32Z</time></trkpt><trkpt lat="45.7123281" lon="9.4411107"><ele>332.0</ele><time>2026-04-04T10:29:40.32Z</time></trkpt><trkpt lat="45.7122781" lon="9.4411866"><ele>332.0</ele><time>2026-04-04T10:29:41.32Z</time></trkpt><trkpt lat="45.7122231" lon="9.4412722"><ele>332.0</ele><time>2026-04-04T10:29:42.32Z</time></trkpt><trkpt lat="45.7121802" lon="9.4413422"><ele>332.0</ele><time>2026-04-04T10:29:43.32Z</time></trkpt><trkpt lat="45.7121375" lon="9.4414139"><ele>333.1666666666667</ele><time>2026-04-04T10:29:44.319Z</time></trkpt><trkpt lat="45.7120912" lon="9.4414779"><ele>334.33333333333337</ele><time>2026-04-04T10:29:45.32Z</time></trkpt><trkpt lat="45.7120663" lon="9.4415627"><ele>335.5</ele><time>2026-04-04T10:29:46.32Z</time></trkpt><trkpt lat="45.7120063" lon="9.4416788"><ele>336.6666666666667</ele><time>2026-04-04T10:29:48.319Z</time></trkpt><trkpt lat="45.7119467" lon="9.4418055"><ele>337.8333333333333</ele><time>2026-04-04T10:29:50.32Z</time></trkpt><trkpt lat="45.7118983" lon="9.441724"><ele>339.0</ele><time>2026-04-04T10:29:52.32Z</time></trkpt><trkpt lat="45.7118701" lon="9.4416147"><ele>339.0</ele><time>2026-04-04T10:29:54.32Z</time></trkpt><trkpt lat="45.7119035" lon="9.4415331"><ele>339.0</ele><time>2026-04-04T10:29:55.32Z</time></trkpt><trkpt lat="45.7119633" lon="9.4413891"><ele>339.0</ele><time>2026-04-04T10:29:57.32Z</time></trkpt><trkpt lat="45.7120093" lon="9.4412161"><ele>339.0</ele><time>2026-04-04T10:29:59.319Z</time></trkpt><trkpt lat="45.71203" lon="9.4411222"><ele>339.0</ele><time>2026-04-04T10:30:00.32Z</time></trkpt><trkpt lat="45.7120636" lon="9.440979"><ele>337.6</ele><time>2026-04-04T10:30:02.319Z</time></trkpt><trkpt lat="45.7120346" lon="9.4408813"><ele>336.2</ele><time>2026-04-04T10:30:03.32Z</time></trkpt><trkpt lat="45.7119509" lon="9.4407546"><ele>334.8</ele><time>2026-04-04T10:30:05.32Z</time></trkpt><trkpt lat="45.7118626" lon="9.4406904"><ele>333.40000000000003</ele><time>2026-04-04T10:30:07.32Z</time></trkpt><trkpt lat="45.711782" lon="9.4406166"><ele>332.0</ele><time>2026-04-04T10:30:09.32Z</time></trkpt><trkpt lat="45.711734" lon="9.4405475"><ele>331.1666666666667</ele><time>2026-04-04T10:30:11.32Z</time></trkpt><trkpt lat="45.7116732" lon="9.4404707"><ele>330.33333333333337</ele><time>2026-04-04T10:30:13.319Z</time></trkpt><trkpt lat="45.7116108" lon="9.4404203"><ele>329.5</ele><time>2026-04-04T10:30:15.32Z</time></trkpt><trkpt lat="45.7115473" lon="9.4403524"><ele>328.6666666666667</ele><time>2026-04-04T10:30:17.32Z</time></trkpt><trkpt lat="45.7114881" lon="9.4402871"><ele>327.8333333333333</ele><time>2026-04-04T10:30:19.32Z</time></trkpt><trkpt lat="45.7114312" lon="9.4402228"><ele>327.0</ele><time>2026-04-04T10:30:21.319Z</time></trkpt><trkpt lat="45.7113746" lon="9.4401619"><ele>327.0</ele><time>2026-04-04T10:30:23.32Z</time></trkpt><trkpt lat="45.7113167" lon="9.4400903"><ele>327.0</ele><time>2026-04-04T10:30:25.32Z</time></trkpt><trkpt lat="45.7112624" lon="9.4400172"><ele>327.0</ele><time>2026-04-04T10:30:27.32Z</time></trkpt><trkpt lat="45.7112099" lon="9.4399416"><ele>327.0</ele><time>2026-04-04T10:30:29.32Z</time></trkpt><trkpt lat="45.7111523" lon="9.4398626"><ele>327.0</ele><time>2026-04-04T10:30:31.32Z</time></trkpt><trkpt lat="45.7110825" lon="9.4397736"><ele>327.0</ele><time>2026-04-04T10:30:33.32Z</time></trkpt><trkpt lat="45.7110088" lon="9.4396905"><ele>326.40000000000003</ele><time>2026-04-04T10:30:35.32Z</time></trkpt><trkpt lat="45.7109363" lon="9.4396048"><ele>325.8</ele><time>2026-04-04T10:30:37.32Z</time></trkpt><trkpt lat="45.7108624" lon="9.4395259"><ele>325.2</ele><time>2026-04-04T10:30:39.32Z</time></trkpt><trkpt lat="45.7107844" lon="9.4394414"><ele>324.6</ele><time>2026-04-04T10:30:41.32Z</time></trkpt><trkpt lat="45.710694" lon="9.4393975"><ele>324.0</ele><time>2026-04-04T10:30:43.32Z</time></trkpt><trkpt lat="45.7106012" lon="9.4393596"><ele>324.0</ele><time>2026-04-04T10:30:45.319Z</time></trkpt><trkpt lat="45.7105221" lon="9.4392666"><ele>324.0</ele><time>2026-04-04T10:30:47.319Z</time></trkpt><trkpt lat="45.7104662" lon="9.4391182"><ele>324.0</ele><time>2026-04-04T10:30:49.32Z</time></trkpt><trkpt lat="45.7104436" lon="9.4390304"><ele>324.0</ele><time>2026-04-04T10:30:50.32Z</time></trkpt><trkpt lat="45.7104245" lon="9.4389359"><ele>324.0</ele><time>2026-04-04T10:30:51.319Z</time></trkpt><trkpt lat="45.7104055" lon="9.4388447"><ele>324.0</ele><time>2026-04-04T10:30:52.32Z</time></trkpt><trkpt lat="45.7103811" lon="9.4387584"><ele>323.0</ele><time>2026-04-04T10:30:53.319Z</time></trkpt><trkpt lat="45.7103582" lon="9.4386519"><ele>322.0</ele><time>2026-04-04T10:30:54.32Z</time></trkpt><trkpt lat="45.7103236" lon="9.4384757"><ele>321.0</ele><time>2026-04-04T10:30:56.32Z</time></trkpt><trkpt lat="45.7103094" lon="9.4383853"><ele>320.0</ele><time>2026-04-04T10:30:57.32Z</time></trkpt><trkpt lat="45.7103" lon="9.438214"><ele>319.0</ele><time>2026-04-04T10:30:59.32Z</time></trkpt><trkpt lat="45.7102916" lon="9.4380368"><ele>318.66666666666663</ele><time>2026-04-04T10:31:01.32Z</time></trkpt><trkpt lat="45.7102946" lon="9.4379451"><ele>318.3333333333333</ele><time>2026-04-04T10:31:02.319Z</time></trkpt><trkpt lat="45.710279" lon="9.4377909"><ele>318.0</ele><time>2026-04-04T10:31:04.32Z</time></trkpt><trkpt lat="45.7102817" lon="9.437699"><ele>317.6666666666667</ele><time>2026-04-04T10:31:05.32Z</time></trkpt><trkpt lat="45.7103086" lon="9.4376097"><ele>317.33333333333337</ele><time>2026-04-04T10:31:06.319Z</time></trkpt><trkpt lat="45.7103169" lon="9.4374419"><ele>317.0</ele><time>2026-04-04T10:31:08.32Z</time></trkpt><trkpt lat="45.7103376" lon="9.4373469"><ele>317.0</ele><time>2026-04-04T10:31:09.32Z</time></trkpt><trkpt lat="45.7103544" lon="9.4372508"><ele>317.0</ele><time>2026-04-04T10:31:10.32Z</time></trkpt><trkpt lat="45.7103954" lon="9.4370667"><ele>317.0</ele><time>2026-04-04T10:31:12.32Z</time></trkpt><trkpt lat="45.7104169" lon="9.4369573"><ele>317.0</ele><time>2026-04-04T10:31:13.32Z</time></trkpt><trkpt lat="45.7104341" lon="9.4368579"><ele>317.0</ele><time>2026-04-04T10:31:14.32Z</time></trkpt><trkpt lat="45.7104602" lon="9.4367639"><ele>317.0</ele><time>2026-04-04T10:31:15.32Z</time></trkpt><trkpt lat="45.7104829" lon="9.4366592"><ele>317.1666666666667</ele><time>2026-04-04T10:31:16.32Z</time></trkpt><trkpt lat="45.7104999" lon="9.4365577"><ele>317.33333333333337</ele><time>2026-04-04T10:31:17.32Z</time></trkpt><trkpt lat="45.7105112" lon="9.4364539"><ele>317.5</ele><time>2026-04-04T10:31:18.319Z</time></trkpt><trkpt lat="45.7105269" lon="9.4363254"><ele>317.6666666666667</ele><time>2026-04-04T10:31:19.319Z</time></trkpt><trkpt lat="45.710531" lon="9.4362192"><ele>317.8333333333333</ele><time>2026-04-04T10:31:20.319Z</time></trkpt><trkpt lat="45.7104858" lon="9.4361304"><ele>318.0</ele><time>2026-04-04T10:31:21.32Z</time></trkpt><trkpt lat="45.7104702" lon="9.436022"><ele>317.5</ele><time>2026-04-04T10:31:22.32Z</time></trkpt><trkpt lat="45.71042" lon="9.4359294"><ele>317.0</ele><time>2026-04-04T10:31:23.32Z</time></trkpt><trkpt lat="45.7103939" lon="9.4358338"><ele>316.5</ele><time>2026-04-04T10:31:24.319Z</time></trkpt><trkpt lat="45.7103657" lon="9.435735"><ele>316.0</ele><time>2026-04-04T10:31:25.319Z</time></trkpt><trkpt lat="45.7103124" lon="9.4356536"><ele>315.5</ele><time>2026-04-04T10:31:26.32Z</time></trkpt><trkpt lat="45.7102753" lon="9.4355681"><ele>315.0</ele><time>2026-04-04T10:31:27.319Z</time></trkpt><trkpt lat="45.7102332" lon="9.4354751"><ele>315.6666666666667</ele><time>2026-04-04T10:31:28.319Z</time></trkpt><trkpt lat="45.7101996" lon="9.4353912"><ele>316.3333333333333</ele><time>2026-04-04T10:31:29.32Z</time></trkpt><trkpt lat="45.7101673" lon="9.4353035"><ele>317.0</ele><time>2026-04-04T10:31:30.32Z</time></trkpt><trkpt lat="45.71013" lon="9.4352231"><ele>317.66666666666663</ele><time>2026-04-04T10:31:31.32Z</time></trkpt><trkpt lat="45.7100408" lon="9.4350937"><ele>318.3333333333333</ele><time>2026-04-04T10:31:33.32Z</time></trkpt><trkpt lat="45.7099993" lon="9.4350249"><ele>319.0</ele><time>2026-04-04T10:31:34.319Z</time></trkpt><trkpt lat="45.7099462" lon="9.4349526"><ele>319.0</ele><time>2026-04-04T10:31:35.32Z</time></trkpt><trkpt lat="45.7098918" lon="9.4348803"><ele>319.0</ele><time>2026-04-04T10:31:36.32Z</time></trkpt><trkpt lat="45.7098424" lon="9.4348073"><ele>319.0</ele><time>2026-04-04T10:31:37.32Z</time></trkpt><trkpt lat="45.7097552" lon="9.434655"><ele>319.0</ele><time>2026-04-04T10:31:39.32Z</time></trkpt><trkpt lat="45.7097145" lon="9.4345791"><ele>319.0</ele><time>2026-04-04T10:31:40.32Z</time></trkpt><trkpt lat="45.7096568" lon="9.4345165"><ele>319.0</ele><time>2026-04-04T10:31:41.32Z</time></trkpt><trkpt lat="45.7095909" lon="9.4344673"><ele>319.16666666666663</ele><time>2026-04-04T10:31:42.32Z</time></trkpt><trkpt lat="45.7095251" lon="9.4344017"><ele>319.3333333333333</ele><time>2026-04-04T10:31:43.319Z</time></trkpt><trkpt lat="45.7094872" lon="9.4343243"><ele>319.5</ele><time>2026-04-04T10:31:44.32Z</time></trkpt><trkpt lat="45.7094439" lon="9.4342365"><ele>319.6666666666667</ele><time>2026-04-04T10:31:45.32Z</time></trkpt><trkpt lat="45.7093891" lon="9.4341463"><ele>319.83333333333337</ele><time>2026-04-04T10:31:46.319Z</time></trkpt><trkpt lat="45.7093286" lon="9.4340622"><ele>320.0</ele><time>2026-04-04T10:31:47.319Z</time></trkpt><trkpt lat="45.7092831" lon="9.4339548"><ele>320.0</ele><time>2026-04-04T10:31:48.319Z</time></trkpt><trkpt lat="45.7092442" lon="9.433854"><ele>320.0</ele><time>2026-04-04T10:31:49.32Z</time></trkpt><trkpt lat="45.7092116" lon="9.4337468"><ele>320.0</ele><time>2026-04-04T10:31:50.319Z</time></trkpt><trkpt lat="45.7091826" lon="9.4336323"><ele>320.0</ele><time>2026-04-04T10:31:51.319Z</time></trkpt><trkpt lat="45.7091713" lon="9.4334974"><ele>320.0</ele><time>2026-04-04T10:31:52.319Z</time></trkpt><trkpt lat="45.7091461" lon="9.4333826"><ele>320.0</ele><time>2026-04-04T10:31:53.32Z</time></trkpt><trkpt lat="45.7091205" lon="9.4332458"><ele>318.6666666666667</ele><time>2026-04-04T10:31:54.32Z</time></trkpt><trkpt lat="45.7091046" lon="9.4331004"><ele>317.33333333333337</ele><time>2026-04-04T10:31:55.319Z</time></trkpt><trkpt lat="45.709081" lon="9.4329801"><ele>316.0</ele><time>2026-04-04T10:31:56.319Z</time></trkpt><trkpt lat="45.7090544" lon="9.432862"><ele>314.6666666666667</ele><time>2026-04-04T10:31:57.32Z</time></trkpt><trkpt lat="45.7090151" lon="9.4327431"><ele>313.3333333333333</ele><time>2026-04-04T10:31:58.319Z</time></trkpt><trkpt lat="45.708984" lon="9.4326425"><ele>312.0</ele><time>2026-04-04T10:31:59.32Z</time></trkpt><trkpt lat="45.7089491" lon="9.4325315"><ele>311.6666666666667</ele><time>2026-04-04T10:32:00.32Z</time></trkpt><trkpt lat="45.7089345" lon="9.4324019"><ele>311.3333333333333</ele><time>2026-04-04T10:32:01.319Z</time></trkpt><trkpt lat="45.7089071" lon="9.4323076"><ele>311.0</ele><time>2026-04-04T10:32:02.319Z</time></trkpt><trkpt lat="45.7088657" lon="9.4321975"><ele>310.66666666666663</ele><time>2026-04-04T10:32:03.32Z</time></trkpt><trkpt lat="45.7088391" lon="9.4320885"><ele>310.3333333333333</ele><time>2026-04-04T10:32:04.32Z</time></trkpt><trkpt lat="45.7088066" lon="9.4320101"><ele>310.0</ele><time>2026-04-04T10:32:05.32Z</time></trkpt><trkpt lat="45.7087777" lon="9.431913"><ele>310.66666666666663</ele><time>2026-04-04T10:32:06.319Z</time></trkpt><trkpt lat="45.7087303" lon="9.431846"><ele>311.3333333333333</ele><time>2026-04-04T10:32:07.32Z</time></trkpt><trkpt lat="45.7086959" lon="9.4317676"><ele>312.0</ele><time>2026-04-04T10:32:08.32Z</time></trkpt><trkpt lat="45.7086704" lon="9.4316644"><ele>312.6666666666667</ele><time>2026-04-04T10:32:09.319Z</time></trkpt><trkpt lat="45.708604" lon="9.431558"><ele>313.33333333333337</ele><time>2026-04-04T10:32:11.32Z</time></trkpt><trkpt lat="45.7085414" lon="9.4314463"><ele>314.0</ele><time>2026-04-04T10:32:13.319Z</time></trkpt><trkpt lat="45.7084863" lon="9.4313656"><ele>315.0</ele><time>2026-04-04T10:32:15.32Z</time></trkpt><trkpt lat="45.7084385" lon="9.4312573"><ele>316.0</ele><time>2026-04-04T10:32:17.32Z</time></trkpt><trkpt lat="45.7084055" lon="9.4311616"><ele>317.0</ele><time>2026-04-04T10:32:19.32Z</time></trkpt><trkpt lat="45.7083594" lon="9.4310881"><ele>318.0</ele><time>2026-04-04T10:32:21.32Z</time></trkpt><trkpt lat="45.7083216" lon="9.4310036"><ele>319.0</ele><time>2026-04-04T10:32:23.32Z</time></trkpt><trkpt lat="45.7082884" lon="9.4309093"><ele>320.0</ele><time>2026-04-04T10:32:25.32Z</time></trkpt><trkpt lat="45.7082488" lon="9.4308145"><ele>320.0</ele><time>2026-04-04T10:32:27.32Z</time></trkpt><trkpt lat="45.7082229" lon="9.4307038"><ele>320.0</ele><time>2026-04-04T10:32:29.32Z</time></trkpt><trkpt lat="45.7082028" lon="9.4305596"><ele>320.0</ele><time>2026-04-04T10:32:31.32Z</time></trkpt><trkpt lat="45.7082018" lon="9.4304658"><ele>320.0</ele><time>2026-04-04T10:32:32.32Z</time></trkpt><trkpt lat="45.7082002" lon="9.43037"><ele>320.0</ele><time>2026-04-04T10:32:33.32Z</time></trkpt><trkpt lat="45.7081933" lon="9.4302775"><ele>320.0</ele><time>2026-04-04T10:32:34.32Z</time></trkpt><trkpt lat="45.7081233" lon="9.4301203"><ele>320.0</ele><time>2026-04-04T10:32:36.32Z</time></trkpt><trkpt lat="45.7080788" lon="9.4300428"><ele>320.0</ele><time>2026-04-04T10:32:37.32Z</time></trkpt><trkpt lat="45.7080397" lon="9.4299689"><ele>320.0</ele><time>2026-04-04T10:32:38.32Z</time></trkpt><trkpt lat="45.7079603" lon="9.4298773"><ele>320.0</ele><time>2026-04-04T10:32:40.32Z</time></trkpt><trkpt lat="45.7078803" lon="9.429783"><ele>320.0</ele><time>2026-04-04T10:32:42.32Z</time></trkpt><trkpt lat="45.707848" lon="9.4297054"><ele>320.0</ele><time>2026-04-04T10:32:43.319Z</time></trkpt><trkpt lat="45.7078111" lon="9.4296313"><ele>319.6</ele><time>2026-04-04T10:32:44.319Z</time></trkpt><trkpt lat="45.7077616" lon="9.4295026"><ele>319.2</ele><time>2026-04-04T10:32:46.319Z</time></trkpt><trkpt lat="45.7077311" lon="9.4294012"><ele>318.8</ele><time>2026-04-04T10:32:48.32Z</time></trkpt><trkpt lat="45.7077261" lon="9.4292642"><ele>318.4</ele><time>2026-04-04T10:32:50.32Z</time></trkpt><trkpt lat="45.7077317" lon="9.4291104"><ele>318.0</ele><time>2026-04-04T10:32:52.32Z</time></trkpt><trkpt lat="45.7077355" lon="9.4290073"><ele>318.5</ele><time>2026-04-04T10:32:54.32Z</time></trkpt><trkpt lat="45.7077405" lon="9.4289126"><ele>319.0</ele><time>2026-04-04T10:32:56.32Z</time></trkpt><trkpt lat="45.7077618" lon="9.4287774"><ele>319.5</ele><time>2026-04-04T10:32:59.32Z</time></trkpt><trkpt lat="45.7077856" lon="9.428681"><ele>320.0</ele><time>2026-04-04T10:33:01.32Z</time></trkpt><trkpt lat="45.7078035" lon="9.4285856"><ele>320.5</ele><time>2026-04-04T10:33:03.32Z</time></trkpt><trkpt lat="45.7078236" lon="9.4284701"><ele>321.0</ele><time>2026-04-04T10:33:06.32Z</time></trkpt><trkpt lat="45.707839" lon="9.4283627"><ele>321.0</ele><time>2026-04-04T10:33:08.32Z</time></trkpt><trkpt lat="45.7078465" lon="9.4282632"><ele>321.0</ele><time>2026-04-04T10:33:10.32Z</time></trkpt><trkpt lat="45.7077869" lon="9.4281677"><ele>321.0</ele><time>2026-04-04T10:33:13.32Z</time></trkpt><trkpt lat="45.7077314" lon="9.4281058"><ele>321.0</ele><time>2026-04-04T10:33:15.319Z</time></trkpt><trkpt lat="45.7076393" lon="9.4280742"><ele>321.0</ele><time>2026-04-04T10:33:18.32Z</time></trkpt><trkpt lat="45.7075536" lon="9.4280762"><ele>321.0</ele><time>2026-04-04T10:33:20.32Z</time></trkpt><trkpt lat="45.7074812" lon="9.4280247"><ele>322.0</ele><time>2026-04-04T10:33:23.319Z</time></trkpt><trkpt lat="45.7074209" lon="9.427991"><ele>323.0</ele><time>2026-04-04T10:33:25.32Z</time></trkpt><trkpt lat="45.7073323" lon="9.4279819"><ele>324.0</ele><time>2026-04-04T10:33:28.32Z</time></trkpt><trkpt lat="45.7073098" lon="9.4278831"><ele>325.0</ele><time>2026-04-04T10:33:29.32Z</time></trkpt><trkpt lat="45.7073839" lon="9.4278158"><ele>326.0</ele><time>2026-04-04T10:33:30.319Z</time></trkpt><trkpt lat="45.707461" lon="9.4277392"><ele>327.0</ele><time>2026-04-04T10:33:31.32Z</time></trkpt><trkpt lat="45.7075457" lon="9.4276228"><ele>327.0</ele><time>2026-04-04T10:33:33.32Z</time></trkpt><trkpt lat="45.7076066" lon="9.4275622"><ele>327.0</ele><time>2026-04-04T10:33:35.32Z</time></trkpt><trkpt lat="45.7076029" lon="9.4273978"><ele>327.0</ele><time>2026-04-04T10:33:37.32Z</time></trkpt><trkpt lat="45.7075954" lon="9.427256"><ele>327.0</ele><time>2026-04-04T10:33:39.319Z</time></trkpt><trkpt lat="45.7075732" lon="9.4271376"><ele>327.0</ele><time>2026-04-04T10:33:41.319Z</time></trkpt><trkpt lat="45.7075317" lon="9.4269862"><ele>326.6666666666667</ele><time>2026-04-04T10:33:43.32Z</time></trkpt><trkpt lat="45.7075042" lon="9.4268777"><ele>326.3333333333333</ele><time>2026-04-04T10:33:45.32Z</time></trkpt><trkpt lat="45.7074822" lon="9.4267224"><ele>326.0</ele><time>2026-04-04T10:33:47.32Z</time></trkpt><trkpt lat="45.7074742" lon="9.4266286"><ele>325.66666666666663</ele><time>2026-04-04T10:33:48.319Z</time></trkpt><trkpt lat="45.7074752" lon="9.4265271"><ele>325.3333333333333</ele><time>2026-04-04T10:33:50.319Z</time></trkpt><trkpt lat="45.7074814" lon="9.4263938"><ele>325.0</ele><time>2026-04-04T10:33:52.319Z</time></trkpt><trkpt lat="45.707526" lon="9.4263187"><ele>325.0</ele><time>2026-04-04T10:33:53.319Z</time></trkpt><trkpt lat="45.7075172" lon="9.4261823"><ele>325.0</ele><time>2026-04-04T10:33:55.32Z</time></trkpt><trkpt lat="45.7075211" lon="9.4260447"><ele>325.0</ele><time>2026-04-04T10:33:57.32Z</time></trkpt><trkpt lat="45.7074949" lon="9.425917"><ele>325.0</ele><time>2026-04-04T10:33:59.32Z</time></trkpt><trkpt lat="45.7074633" lon="9.4258234"><ele>325.0</ele><time>2026-04-04T10:34:01.32Z</time></trkpt><trkpt lat="45.7073796" lon="9.4257579"><ele>325.0</ele><time>2026-04-04T10:34:03.32Z</time></trkpt><trkpt lat="45.707296" lon="9.425693"><ele>325.0</ele><time>2026-04-04T10:34:05.32Z</time></trkpt><trkpt lat="45.7072578" lon="9.4255615"><ele>325.0</ele><time>2026-04-04T10:34:07.32Z</time></trkpt><trkpt lat="45.7072318" lon="9.4254306"><ele>325.0</ele><time>2026-04-04T10:34:10.32Z</time></trkpt><trkpt lat="45.7071977" lon="9.4253255"><ele>325.0</ele><time>2026-04-04T10:34:12.32Z</time></trkpt><trkpt lat="45.7071492" lon="9.4252049"><ele>325.0</ele><time>2026-04-04T10:34:14.32Z</time></trkpt><trkpt lat="45.7070781" lon="9.4251305"><ele>325.0</ele><time>2026-04-04T10:34:16.32Z</time></trkpt><trkpt lat="45.7070167" lon="9.42505"><ele>325.0</ele><time>2026-04-04T10:34:18.32Z</time></trkpt><trkpt lat="45.7069606" lon="9.4249615"><ele>325.0</ele><time>2026-04-04T10:34:20.32Z</time></trkpt><trkpt lat="45.7069111" lon="9.4248512"><ele>325.0</ele><time>2026-04-04T10:34:22.32Z</time></trkpt><trkpt lat="45.7069104" lon="9.4247561"><ele>325.0</ele><time>2026-04-04T10:34:24.32Z</time></trkpt><trkpt lat="45.7069327" lon="9.424656"><ele>325.6</ele><time>2026-04-04T10:34:26.32Z</time></trkpt><trkpt lat="45.7069391" lon="9.4245147"><ele>326.2</ele><time>2026-04-04T10:34:29.319Z</time></trkpt><trkpt lat="45.7069551" lon="9.4244164"><ele>326.79999999999995</ele><time>2026-04-04T10:34:30.32Z</time></trkpt><trkpt lat="45.7070005" lon="9.4242792"><ele>327.4</ele><time>2026-04-04T10:34:32.32Z</time></trkpt><trkpt lat="45.707041" lon="9.4241272"><ele>328.0</ele><time>2026-04-04T10:34:34.319Z</time></trkpt><trkpt lat="45.7070663" lon="9.4240296"><ele>328.0</ele><time>2026-04-04T10:34:36.319Z</time></trkpt><trkpt lat="45.7070885" lon="9.4239158"><ele>328.0</ele><time>2026-04-04T10:34:38.32Z</time></trkpt><trkpt lat="45.7070654" lon="9.4238089"><ele>328.0</ele><time>2026-04-04T10:34:40.32Z</time></trkpt><trkpt lat="45.7070459" lon="9.4236876"><ele>328.0</ele><time>2026-04-04T10:34:43.32Z</time></trkpt><trkpt lat="45.7069552" lon="9.4236893"><ele>328.0</ele><time>2026-04-04T10:34:46.32Z</time></trkpt><trkpt lat="45.7068763" lon="9.4236448"><ele>328.0</ele><time>2026-04-04T10:34:49.32Z</time></trkpt><trkpt lat="45.7068076" lon="9.4236007"><ele>330.5</ele><time>2026-04-04T10:34:51.32Z</time></trkpt><trkpt lat="45.7067207" lon="9.4235563"><ele>333.0</ele><time>2026-04-04T10:34:54.32Z</time></trkpt><trkpt lat="45.7066393" lon="9.4235351"><ele>335.5</ele><time>2026-04-04T10:34:57.32Z</time></trkpt><trkpt lat="45.706574" lon="9.4235501"><ele>338.0</ele><time>2026-04-04T10:35:00.32Z</time></trkpt><trkpt lat="45.7065095" lon="9.4235319"><ele>340.5</ele><time>2026-04-04T10:35:04.32Z</time></trkpt><trkpt lat="45.7064357" lon="9.4235193"><ele>343.0</ele><time>2026-04-04T10:35:07.319Z</time></trkpt><trkpt lat="45.706367" lon="9.4235105"><ele>343.0</ele><time>2026-04-04T10:35:09.32Z</time></trkpt><trkpt lat="45.7062809" lon="9.4234765"><ele>343.0</ele><time>2026-04-04T10:35:12.32Z</time></trkpt><trkpt lat="45.706191" lon="9.4234346"><ele>343.0</ele><time>2026-04-04T10:35:15.32Z</time></trkpt><trkpt lat="45.7061287" lon="9.4233942"><ele>343.0</ele><time>2026-04-04T10:35:17.319Z</time></trkpt><trkpt lat="45.7060734" lon="9.423336"><ele>343.0</ele><time>2026-04-04T10:35:19.32Z</time></trkpt><trkpt lat="45.706021" lon="9.4232819"><ele>343.0</ele><time>2026-04-04T10:35:22.32Z</time></trkpt><trkpt lat="45.7059517" lon="9.4231965"><ele>343.0</ele><time>2026-04-04T10:35:25.32Z</time></trkpt><trkpt lat="45.7058777" lon="9.4231229"><ele>343.0</ele><time>2026-04-04T10:35:28.32Z</time></trkpt><trkpt lat="45.7058189" lon="9.4230706"><ele>343.0</ele><time>2026-04-04T10:35:31.32Z</time></trkpt><trkpt lat="45.7057485" lon="9.4230294"><ele>343.0</ele><time>2026-04-04T10:35:34.32Z</time></trkpt><trkpt lat="45.7056664" lon="9.4229739"><ele>343.0</ele><time>2026-04-04T10:35:38.32Z</time></trkpt><trkpt lat="45.7055903" lon="9.4229332"><ele>343.0</ele><time>2026-04-04T10:35:40.32Z</time></trkpt><trkpt lat="45.7054988" lon="9.4229124"><ele>343.79999999999995</ele><time>2026-04-04T10:35:42.319Z</time></trkpt><trkpt lat="45.7054109" lon="9.4229047"><ele>344.6</ele><time>2026-04-04T10:35:44.32Z</time></trkpt><trkpt lat="45.7053106" lon="9.4229116"><ele>345.4</ele><time>2026-04-04T10:35:46.32Z</time></trkpt><trkpt lat="45.7052328" lon="9.4229219"><ele>346.20000000000005</ele><time>2026-04-04T10:35:47.319Z</time></trkpt><trkpt lat="45.7051624" lon="9.4229219"><ele>347.0</ele><time>2026-04-04T10:35:48.32Z</time></trkpt><trkpt lat="45.7050419" lon="9.4229052"><ele>347.40000000000003</ele><time>2026-04-04T10:35:50.32Z</time></trkpt><trkpt lat="45.704943" lon="9.4228999"><ele>347.8</ele><time>2026-04-04T10:35:52.32Z</time></trkpt><trkpt lat="45.704827" lon="9.422894"><ele>348.2</ele><time>2026-04-04T10:35:54.32Z</time></trkpt><trkpt lat="45.7047128" lon="9.4228995"><ele>348.6</ele><time>2026-04-04T10:35:56.32Z</time></trkpt><trkpt lat="45.7046047" lon="9.4229222"><ele>349.0</ele><time>2026-04-04T10:35:58.32Z</time></trkpt><trkpt lat="45.7044886" lon="9.4229192"><ele>348.2</ele><time>2026-04-04T10:36:00.32Z</time></trkpt><trkpt lat="45.7043868" lon="9.4228898"><ele>347.4</ele><time>2026-04-04T10:36:02.32Z</time></trkpt><trkpt lat="45.7042807" lon="9.4228597"><ele>346.6</ele><time>2026-04-04T10:36:04.32Z</time></trkpt><trkpt lat="45.7042079" lon="9.4228465"><ele>345.8</ele><time>2026-04-04T10:36:07.32Z</time></trkpt><trkpt lat="45.7041349" lon="9.4228123"><ele>345.0</ele><time>2026-04-04T10:36:10.32Z</time></trkpt><trkpt lat="45.7040405" lon="9.422714"><ele>345.0</ele><time>2026-04-04T10:36:12.32Z</time></trkpt><trkpt lat="45.7039196" lon="9.4226713"><ele>345.0</ele><time>2026-04-04T10:36:14.32Z</time></trkpt><trkpt lat="45.7038452" lon="9.4225991"><ele>345.0</ele><time>2026-04-04T10:36:15.32Z</time></trkpt><trkpt lat="45.7037425" lon="9.422595"><ele>345.0</ele><time>2026-04-04T10:36:16.319Z</time></trkpt><trkpt lat="45.7036206" lon="9.4225416"><ele>345.0</ele><time>2026-04-04T10:36:18.32Z</time></trkpt><trkpt lat="45.7035734" lon="9.4224654"><ele>343.2</ele><time>2026-04-04T10:36:19.319Z</time></trkpt><trkpt lat="45.7035038" lon="9.4224406"><ele>341.4</ele><time>2026-04-04T10:36:20.32Z</time></trkpt><trkpt lat="45.7034056" lon="9.4223874"><ele>339.6</ele><time>2026-04-04T10:36:22.32Z</time></trkpt><trkpt lat="45.7033041" lon="9.4222725"><ele>337.8</ele><time>2026-04-04T10:36:24.32Z</time></trkpt><trkpt lat="45.7032392" lon="9.4221786"><ele>336.0</ele><time>2026-04-04T10:36:26.32Z</time></trkpt><trkpt lat="45.703196" lon="9.4220866"><ele>335.25</ele><time>2026-04-04T10:36:30.32Z</time></trkpt><trkpt lat="45.7031236" lon="9.4220478"><ele>334.5</ele><time>2026-04-04T10:36:32.319Z</time></trkpt><trkpt lat="45.7029982" lon="9.4219188"><ele>333.75</ele><time>2026-04-04T10:36:34.32Z</time></trkpt><trkpt lat="45.7028918" lon="9.4217903"><ele>333.0</ele><time>2026-04-04T10:36:36.32Z</time></trkpt><trkpt lat="45.7027849" lon="9.4217358"><ele>331.3333333333333</ele><time>2026-04-04T10:36:38.32Z</time></trkpt><trkpt lat="45.7026796" lon="9.4217086"><ele>329.6666666666667</ele><time>2026-04-04T10:36:40.319Z</time></trkpt><trkpt lat="45.7026182" lon="9.4216856"><ele>328.0</ele><time>2026-04-04T10:36:41.32Z</time></trkpt><trkpt lat="45.7025546" lon="9.4216573"><ele>326.33333333333337</ele><time>2026-04-04T10:36:42.32Z</time></trkpt><trkpt lat="45.7024915" lon="9.4216383"><ele>324.6666666666667</ele><time>2026-04-04T10:36:43.32Z</time></trkpt><trkpt lat="45.7023898" lon="9.4216233"><ele>323.0</ele><time>2026-04-04T10:36:45.319Z</time></trkpt><trkpt lat="45.7023089" lon="9.4215501"><ele>323.0</ele><time>2026-04-04T10:36:47.32Z</time></trkpt><trkpt lat="45.7022621" lon="9.4213935"><ele>323.0</ele><time>2026-04-04T10:36:49.32Z</time></trkpt><trkpt lat="45.7022534" lon="9.4213013"><ele>323.0</ele><time>2026-04-04T10:36:50.32Z</time></trkpt><trkpt lat="45.7022384" lon="9.4212023"><ele>323.0</ele><time>2026-04-04T10:36:51.32Z</time></trkpt><trkpt lat="45.7022238" lon="9.4211015"><ele>323.0</ele><time>2026-04-04T10:36:52.32Z</time></trkpt><trkpt lat="45.7022058" lon="9.4210045"><ele>323.0</ele><time>2026-04-04T10:36:53.32Z</time></trkpt><trkpt lat="45.7021895" lon="9.4208259"><ele>322.6666666666667</ele><time>2026-04-04T10:36:55.32Z</time></trkpt><trkpt lat="45.7021982" lon="9.4207061"><ele>322.33333333333337</ele><time>2026-04-04T10:36:56.32Z</time></trkpt><trkpt lat="45.7021969" lon="9.4205828"><ele>322.0</ele><time>2026-04-04T10:36:57.32Z</time></trkpt><trkpt lat="45.7022188" lon="9.4204732"><ele>321.6666666666667</ele><time>2026-04-04T10:36:58.32Z</time></trkpt><trkpt lat="45.7022282" lon="9.4203733"><ele>321.3333333333333</ele><time>2026-04-04T10:36:59.32Z</time></trkpt><trkpt lat="45.7022151" lon="9.4202735"><ele>321.0</ele><time>2026-04-04T10:37:00.319Z</time></trkpt><trkpt lat="45.7022003" lon="9.4201693"><ele>320.4285714285714</ele><time>2026-04-04T10:37:01.32Z</time></trkpt><trkpt lat="45.7021385" lon="9.4201006"><ele>319.85714285714283</ele><time>2026-04-04T10:37:02.32Z</time></trkpt><trkpt lat="45.7020913" lon="9.4200049"><ele>319.2857142857143</ele><time>2026-04-04T10:37:03.32Z</time></trkpt><trkpt lat="45.7020426" lon="9.4199209"><ele>318.71428571428567</ele><time>2026-04-04T10:37:04.32Z</time></trkpt><trkpt lat="45.7019972" lon="9.4198436"><ele>318.1428571428571</ele><time>2026-04-04T10:37:05.32Z</time></trkpt><trkpt lat="45.7019393" lon="9.4197818"><ele>317.57142857142856</ele><time>2026-04-04T10:37:06.319Z</time></trkpt><trkpt lat="45.7019013" lon="9.4197038"><ele>317.0</ele><time>2026-04-04T10:37:07.32Z</time></trkpt><trkpt lat="45.7018702" lon="9.4196248"><ele>316.33333333333337</ele><time>2026-04-04T10:37:08.32Z</time></trkpt><trkpt lat="45.7018241" lon="9.419532"><ele>315.6666666666667</ele><time>2026-04-04T10:37:09.32Z</time></trkpt><trkpt lat="45.7017915" lon="9.4194281"><ele>315.0</ele><time>2026-04-04T10:37:10.32Z</time></trkpt><trkpt lat="45.7017464" lon="9.4193368"><ele>314.3333333333333</ele><time>2026-04-04T10:37:11.32Z</time></trkpt><trkpt lat="45.7016959" lon="9.4192229"><ele>313.66666666666663</ele><time>2026-04-04T10:37:12.32Z</time></trkpt><trkpt lat="45.7016409" lon="9.4191315"><ele>313.0</ele><time>2026-04-04T10:37:13.319Z</time></trkpt><trkpt lat="45.7015938" lon="9.4190394"><ele>313.0</ele><time>2026-04-04T10:37:14.32Z</time></trkpt><trkpt lat="45.7015455" lon="9.4189814"><ele>313.0</ele><time>2026-04-04T10:37:15.32Z</time></trkpt><trkpt lat="45.7014641" lon="9.4189187"><ele>313.0</ele><time>2026-04-04T10:37:16.32Z</time></trkpt><trkpt lat="45.7014035" lon="9.4188644"><ele>313.0</ele><time>2026-04-04T10:37:17.32Z</time></trkpt><trkpt lat="45.701357" lon="9.4187786"><ele>313.0</ele><time>2026-04-04T10:37:18.32Z</time></trkpt><trkpt lat="45.7013052" lon="9.4187195"><ele>313.0</ele><time>2026-04-04T10:37:19.32Z</time></trkpt><trkpt lat="45.7012151" lon="9.4186578"><ele>313.0</ele><time>2026-04-04T10:37:20.32Z</time></trkpt><trkpt lat="45.7011513" lon="9.4186224"><ele>313.0</ele><time>2026-04-04T10:37:21.319Z</time></trkpt><trkpt lat="45.701072" lon="9.4185277"><ele>313.0</ele><time>2026-04-04T10:37:23.32Z</time></trkpt><trkpt lat="45.7010263" lon="9.4184517"><ele>313.0</ele><time>2026-04-04T10:37:24.32Z</time></trkpt><trkpt lat="45.7009901" lon="9.4183609"><ele>313.0</ele><time>2026-04-04T10:37:25.32Z</time></trkpt><trkpt lat="45.701065" lon="9.4182413"><ele>313.0</ele><time>2026-04-04T10:37:27.32Z</time></trkpt><trkpt lat="45.7011254" lon="9.4181214"><ele>313.0</ele><time>2026-04-04T10:37:29.32Z</time></trkpt><trkpt lat="45.7012048" lon="9.4179946"><ele>313.0</ele><time>2026-04-04T10:37:31.32Z</time></trkpt><trkpt lat="45.7013031" lon="9.4178896"><ele>313.0</ele><time>2026-04-04T10:37:33.32Z</time></trkpt><trkpt lat="45.7013785" lon="9.4177347"><ele>313.0</ele><time>2026-04-04T10:37:35.319Z</time></trkpt><trkpt lat="45.7014031" lon="9.4176308"><ele>312.66666666666663</ele><time>2026-04-04T10:37:36.32Z</time></trkpt><trkpt lat="45.7014546" lon="9.4174744"><ele>312.3333333333333</ele><time>2026-04-04T10:37:38.32Z</time></trkpt><trkpt lat="45.7014955" lon="9.4173882"><ele>312.0</ele><time>2026-04-04T10:37:39.32Z</time></trkpt><trkpt lat="45.7015457" lon="9.4173077"><ele>311.6666666666667</ele><time>2026-04-04T10:37:40.32Z</time></trkpt><trkpt lat="45.7015885" lon="9.4172346"><ele>311.33333333333337</ele><time>2026-04-04T10:37:41.32Z</time></trkpt><trkpt lat="45.7016332" lon="9.4171682"><ele>311.0</ele><time>2026-04-04T10:37:42.32Z</time></trkpt><trkpt lat="45.7016693" lon="9.4170676"><ele>310.7142857142857</ele><time>2026-04-04T10:37:43.319Z</time></trkpt><trkpt lat="45.70171" lon="9.4169847"><ele>310.42857142857144</ele><time>2026-04-04T10:37:44.32Z</time></trkpt><trkpt lat="45.7017368" lon="9.4168976"><ele>310.14285714285717</ele><time>2026-04-04T10:37:45.32Z</time></trkpt><trkpt lat="45.701776" lon="9.4168109"><ele>309.8571428571429</ele><time>2026-04-04T10:37:46.32Z</time></trkpt><trkpt lat="45.701815" lon="9.4167193"><ele>309.57142857142856</ele><time>2026-04-04T10:37:47.32Z</time></trkpt><trkpt lat="45.7018327" lon="9.4166171"><ele>309.28571428571433</ele><time>2026-04-04T10:37:48.319Z</time></trkpt><trkpt lat="45.701865" lon="9.4165193"><ele>309.0</ele><time>2026-04-04T10:37:49.32Z</time></trkpt><trkpt lat="45.7018834" lon="9.4164192"><ele>309.00000000000006</ele><time>2026-04-04T10:37:50.32Z</time></trkpt><trkpt lat="45.7018982" lon="9.4163306"><ele>309.0</ele><time>2026-04-04T10:37:51.319Z</time></trkpt><trkpt lat="45.701907" lon="9.4162259"><ele>309.0</ele><time>2026-04-04T10:37:52.319Z</time></trkpt><trkpt lat="45.7019242" lon="9.4161254"><ele>309.0</ele><time>2026-04-04T10:37:53.32Z</time></trkpt><trkpt lat="45.701952" lon="9.4160077"><ele>309.0</ele><time>2026-04-04T10:37:54.32Z</time></trkpt><trkpt lat="45.7019718" lon="9.4159109"><ele>309.00000000000006</ele><time>2026-04-04T10:37:55.32Z</time></trkpt><trkpt lat="45.7020034" lon="9.4158128"><ele>309.0</ele><time>2026-04-04T10:37:56.32Z</time></trkpt><trkpt lat="45.7020319" lon="9.4157228"><ele>308.6666666666667</ele><time>2026-04-04T10:37:57.319Z</time></trkpt><trkpt lat="45.7020598" lon="9.4156316"><ele>308.3333333333333</ele><time>2026-04-04T10:37:58.32Z</time></trkpt><trkpt lat="45.7020841" lon="9.4155276"><ele>308.0</ele><time>2026-04-04T10:37:59.319Z</time></trkpt><trkpt lat="45.7021053" lon="9.4154313"><ele>307.66666666666663</ele><time>2026-04-04T10:38:00.319Z</time></trkpt><trkpt lat="45.70213" lon="9.4153463"><ele>307.3333333333333</ele><time>2026-04-04T10:38:01.32Z</time></trkpt><trkpt lat="45.7021913" lon="9.4151785"><ele>307.0</ele><time>2026-04-04T10:38:03.32Z</time></trkpt><trkpt lat="45.7022864" lon="9.4150787"><ele>306.8333333333333</ele><time>2026-04-04T10:38:05.32Z</time></trkpt><trkpt lat="45.7023399" lon="9.415012"><ele>306.66666666666663</ele><time>2026-04-04T10:38:06.32Z</time></trkpt><trkpt lat="45.7024427" lon="9.4149038"><ele>306.5</ele><time>2026-04-04T10:38:08.319Z</time></trkpt><trkpt lat="45.7024776" lon="9.4148216"><ele>306.3333333333333</ele><time>2026-04-04T10:38:09.32Z</time></trkpt><trkpt lat="45.7025265" lon="9.4147422"><ele>306.1666666666667</ele><time>2026-04-04T10:38:10.32Z</time></trkpt><trkpt lat="45.702569" lon="9.4146473"><ele>306.0</ele><time>2026-04-04T10:38:11.32Z</time></trkpt><trkpt lat="45.7026148" lon="9.4145577"><ele>305.8333333333333</ele><time>2026-04-04T10:38:12.319Z</time></trkpt><trkpt lat="45.7026488" lon="9.41447"><ele>305.6666666666667</ele><time>2026-04-04T10:38:13.32Z</time></trkpt><trkpt lat="45.7026943" lon="9.4143681"><ele>305.5</ele><time>2026-04-04T10:38:14.32Z</time></trkpt><trkpt lat="45.7027446" lon="9.4142802"><ele>305.33333333333337</ele><time>2026-04-04T10:38:15.32Z</time></trkpt><trkpt lat="45.7027961" lon="9.4142173"><ele>305.1666666666667</ele><time>2026-04-04T10:38:16.319Z</time></trkpt><trkpt lat="45.7028967" lon="9.414062"><ele>305.0</ele><time>2026-04-04T10:38:18.32Z</time></trkpt><trkpt lat="45.7029356" lon="9.4139617"><ele>304.1666666666667</ele><time>2026-04-04T10:38:19.32Z</time></trkpt><trkpt lat="45.7029877" lon="9.41388"><ele>303.33333333333337</ele><time>2026-04-04T10:38:20.32Z</time></trkpt><trkpt lat="45.7030438" lon="9.4137929"><ele>302.5</ele><time>2026-04-04T10:38:21.319Z</time></trkpt><trkpt lat="45.7031086" lon="9.4137507"><ele>301.6666666666667</ele><time>2026-04-04T10:38:22.319Z</time></trkpt><trkpt lat="45.7031829" lon="9.413695"><ele>300.8333333333333</ele><time>2026-04-04T10:38:23.319Z</time></trkpt><trkpt lat="45.7032495" lon="9.4136583"><ele>300.0</ele><time>2026-04-04T10:38:24.319Z</time></trkpt><trkpt lat="45.7033132" lon="9.4136218"><ele>299.8333333333333</ele><time>2026-04-04T10:38:25.32Z</time></trkpt><trkpt lat="45.7033744" lon="9.4135705"><ele>299.6666666666667</ele><time>2026-04-04T10:38:26.319Z</time></trkpt><trkpt lat="45.7034422" lon="9.4135329"><ele>299.5</ele><time>2026-04-04T10:38:27.32Z</time></trkpt><trkpt lat="45.703511" lon="9.4135065"><ele>299.33333333333337</ele><time>2026-04-04T10:38:28.32Z</time></trkpt><trkpt lat="45.7035727" lon="9.4134809"><ele>299.1666666666667</ele><time>2026-04-04T10:38:29.32Z</time></trkpt><trkpt lat="45.7036863" lon="9.4134357"><ele>299.0</ele><time>2026-04-04T10:38:31.32Z</time></trkpt><trkpt lat="45.7038418" lon="9.4134054"><ele>299.0</ele><time>2026-04-04T10:38:33.32Z</time></trkpt><trkpt lat="45.7039066" lon="9.413378"><ele>299.0</ele><time>2026-04-04T10:38:34.32Z</time></trkpt><trkpt lat="45.7039665" lon="9.413342"><ele>299.0</ele><time>2026-04-04T10:38:35.32Z</time></trkpt><trkpt lat="45.7040527" lon="9.4132997"><ele>299.0</ele><time>2026-04-04T10:38:36.32Z</time></trkpt><trkpt lat="45.7041678" lon="9.4132324"><ele>299.0</ele><time>2026-04-04T10:38:38.319Z</time></trkpt><trkpt lat="45.7042427" lon="9.4132002"><ele>299.0</ele><time>2026-04-04T10:38:39.32Z</time></trkpt><trkpt lat="45.7043077" lon="9.4131643"><ele>299.0</ele><time>2026-04-04T10:38:40.32Z</time></trkpt><trkpt lat="45.7043856" lon="9.4131229"><ele>299.0</ele><time>2026-04-04T10:38:41.32Z</time></trkpt><trkpt lat="45.7044538" lon="9.4130958"><ele>299.0</ele><time>2026-04-04T10:38:42.32Z</time></trkpt><trkpt lat="45.7045742" lon="9.4129971"><ele>299.0</ele><time>2026-04-04T10:38:44.32Z</time></trkpt><trkpt lat="45.7046429" lon="9.4129356"><ele>299.0</ele><time>2026-04-04T10:38:45.32Z</time></trkpt><trkpt lat="45.7046915" lon="9.4128615"><ele>299.0</ele><time>2026-04-04T10:38:46.319Z</time></trkpt><trkpt lat="45.7047412" lon="9.4127807"><ele>299.0</ele><time>2026-04-04T10:38:47.32Z</time></trkpt><trkpt lat="45.7047786" lon="9.4126753"><ele>299.0</ele><time>2026-04-04T10:38:48.32Z</time></trkpt><trkpt lat="45.7048174" lon="9.4125784"><ele>299.0</ele><time>2026-04-04T10:38:49.32Z</time></trkpt><trkpt lat="45.7048316" lon="9.4124704"><ele>299.0</ele><time>2026-04-04T10:38:50.32Z</time></trkpt><trkpt lat="45.704858" lon="9.4123821"><ele>299.0</ele><time>2026-04-04T10:38:51.32Z</time></trkpt><trkpt lat="45.7049036" lon="9.4122944"><ele>299.0</ele><time>2026-04-04T10:38:52.32Z</time></trkpt><trkpt lat="45.7049531" lon="9.4122296"><ele>299.0</ele><time>2026-04-04T10:38:53.32Z</time></trkpt><trkpt lat="45.7050161" lon="9.4121687"><ele>299.0</ele><time>2026-04-04T10:38:54.32Z</time></trkpt><trkpt lat="45.7050767" lon="9.4121302"><ele>299.0</ele><time>2026-04-04T10:38:55.319Z</time></trkpt><trkpt lat="45.7051579" lon="9.4121029"><ele>299.0</ele><time>2026-04-04T10:38:56.319Z</time></trkpt><trkpt lat="45.7052302" lon="9.4120758"><ele>299.0</ele><time>2026-04-04T10:38:57.32Z</time></trkpt><trkpt lat="45.7053469" lon="9.4120181"><ele>299.0</ele><time>2026-04-04T10:38:59.319Z</time></trkpt><trkpt lat="45.7054353" lon="9.4119698"><ele>299.0</ele><time>2026-04-04T10:39:00.32Z</time></trkpt><trkpt lat="45.7055483" lon="9.4119145"><ele>299.0</ele><time>2026-04-04T10:39:02.32Z</time></trkpt><trkpt lat="45.7056154" lon="9.4118598"><ele>299.0</ele><time>2026-04-04T10:39:03.32Z</time></trkpt><trkpt lat="45.7056784" lon="9.4118246"><ele>299.0</ele><time>2026-04-04T10:39:04.319Z</time></trkpt><trkpt lat="45.7057568" lon="9.4118192"><ele>299.0</ele><time>2026-04-04T10:39:05.32Z</time></trkpt><trkpt lat="45.7058189" lon="9.411799"><ele>299.0</ele><time>2026-04-04T10:39:06.32Z</time></trkpt><trkpt lat="45.7058901" lon="9.411744"><ele>299.0</ele><time>2026-04-04T10:39:07.319Z</time></trkpt><trkpt lat="45.7059599" lon="9.4116961"><ele>299.0</ele><time>2026-04-04T10:39:08.32Z</time></trkpt><trkpt lat="45.7060521" lon="9.4115774"><ele>299.0</ele><time>2026-04-04T10:39:10.319Z</time></trkpt><trkpt lat="45.7060693" lon="9.4114272"><ele>299.0</ele><time>2026-04-04T10:39:12.32Z</time></trkpt><trkpt lat="45.7060884" lon="9.4112373"><ele>299.0</ele><time>2026-04-04T10:39:14.32Z</time></trkpt><trkpt lat="45.7060959" lon="9.4110387"><ele>299.0</ele><time>2026-04-04T10:39:16.32Z</time></trkpt><trkpt lat="45.7060973" lon="9.4109477"><ele>299.0</ele><time>2026-04-04T10:39:17.32Z</time></trkpt><trkpt lat="45.7061161" lon="9.4108534"><ele>299.0</ele><time>2026-04-04T10:39:18.32Z</time></trkpt><trkpt lat="45.7061346" lon="9.4107458"><ele>299.0</ele><time>2026-04-04T10:39:19.319Z</time></trkpt><trkpt lat="45.7061466" lon="9.4106399"><ele>299.0</ele><time>2026-04-04T10:39:20.32Z</time></trkpt><trkpt lat="45.7061958" lon="9.410457"><ele>299.0</ele><time>2026-04-04T10:39:22.32Z</time></trkpt><trkpt lat="45.7062575" lon="9.4104309"><ele>299.0</ele><time>2026-04-04T10:39:23.32Z</time></trkpt><trkpt lat="45.7063059" lon="9.4103627"><ele>299.0</ele><time>2026-04-04T10:39:24.32Z</time></trkpt><trkpt lat="45.7063795" lon="9.4103056"><ele>299.0</ele><time>2026-04-04T10:39:26.319Z</time></trkpt><trkpt lat="45.7064411" lon="9.4101774"><ele>299.0</ele><time>2026-04-04T10:39:28.32Z</time></trkpt><trkpt lat="45.7064927" lon="9.4100475"><ele>299.0</ele><time>2026-04-04T10:39:30.32Z</time></trkpt><trkpt lat="45.706445" lon="9.4099724"><ele>299.0</ele><time>2026-04-04T10:39:31.319Z</time></trkpt><trkpt lat="45.7064084" lon="9.4098791"><ele>299.0</ele><time>2026-04-04T10:39:33.32Z</time></trkpt><trkpt lat="45.7063817" lon="9.4097829"><ele>299.0</ele><time>2026-04-04T10:39:34.32Z</time></trkpt><trkpt lat="45.7063602" lon="9.409696"><ele>298.5</ele><time>2026-04-04T10:39:35.32Z</time></trkpt><trkpt lat="45.7063448" lon="9.4096007"><ele>298.0</ele><time>2026-04-04T10:39:36.319Z</time></trkpt><trkpt lat="45.7063218" lon="9.4094936"><ele>297.5</ele><time>2026-04-04T10:39:37.32Z</time></trkpt><trkpt lat="45.706296" lon="9.4093748"><ele>297.0</ele><time>2026-04-04T10:39:38.319Z</time></trkpt><trkpt lat="45.7062876" lon="9.4092018"><ele>296.5</ele><time>2026-04-04T10:39:40.32Z</time></trkpt><trkpt lat="45.7062869" lon="9.4090991"><ele>296.0</ele><time>2026-04-04T10:39:41.32Z</time></trkpt><trkpt lat="45.7062541" lon="9.4089851"><ele>296.0</ele><time>2026-04-04T10:39:42.32Z</time></trkpt><trkpt lat="45.7062469" lon="9.4088577"><ele>296.0</ele><time>2026-04-04T10:39:43.32Z</time></trkpt><trkpt lat="45.7062607" lon="9.4086786"><ele>296.0</ele><time>2026-04-04T10:39:44.32Z</time></trkpt><trkpt lat="45.706258" lon="9.4085331"><ele>296.0</ele><time>2026-04-04T10:39:45.32Z</time></trkpt><trkpt lat="45.7062608" lon="9.4084206"><ele>296.0</ele><time>2026-04-04T10:39:46.32Z</time></trkpt><trkpt lat="45.7062466" lon="9.4082986"><ele>296.1666666666667</ele><time>2026-04-04T10:39:47.32Z</time></trkpt><trkpt lat="45.7062478" lon="9.4082014"><ele>296.33333333333337</ele><time>2026-04-04T10:39:48.32Z</time></trkpt><trkpt lat="45.7062371" lon="9.4080769"><ele>296.5</ele><time>2026-04-04T10:39:50.32Z</time></trkpt><trkpt lat="45.7062416" lon="9.407943"><ele>296.6666666666667</ele><time>2026-04-04T10:39:52.32Z</time></trkpt><trkpt lat="45.7062539" lon="9.4078104"><ele>296.8333333333333</ele><time>2026-04-04T10:39:54.32Z</time></trkpt><trkpt lat="45.7062431" lon="9.4077014"><ele>297.0</ele><time>2026-04-04T10:39:56.32Z</time></trkpt><trkpt lat="45.7062385" lon="9.4075963"><ele>297.6666666666667</ele><time>2026-04-04T10:39:58.32Z</time></trkpt><trkpt lat="45.7062231" lon="9.40748"><ele>298.3333333333333</ele><time>2026-04-04T10:40:01.32Z</time></trkpt><trkpt lat="45.706226" lon="9.4073867"><ele>299.0</ele><time>2026-04-04T10:40:03.32Z</time></trkpt><trkpt lat="45.7062263" lon="9.407263"><ele>299.66666666666663</ele><time>2026-04-04T10:40:05.32Z</time></trkpt><trkpt lat="45.7062311" lon="9.4071664"><ele>300.3333333333333</ele><time>2026-04-04T10:40:07.319Z</time></trkpt><trkpt lat="45.7062339" lon="9.4070548"><ele>301.0</ele><time>2026-04-04T10:40:09.32Z</time></trkpt><trkpt lat="45.7062602" lon="9.4069313"><ele>301.3333333333333</ele><time>2026-04-04T10:40:11.319Z</time></trkpt><trkpt lat="45.7063018" lon="9.4068243"><ele>301.66666666666663</ele><time>2026-04-04T10:40:13.32Z</time></trkpt><trkpt lat="45.706353" lon="9.4067078"><ele>302.0</ele><time>2026-04-04T10:40:15.32Z</time></trkpt><trkpt lat="45.7064001" lon="9.4065853"><ele>302.3333333333333</ele><time>2026-04-04T10:40:17.32Z</time></trkpt><trkpt lat="45.7064409" lon="9.4064709"><ele>302.6666666666667</ele><time>2026-04-04T10:40:19.319Z</time></trkpt><trkpt lat="45.7064811" lon="9.4063813"><ele>303.0</ele><time>2026-04-04T10:40:21.32Z</time></trkpt><trkpt lat="45.7065211" lon="9.4062973"><ele>303.1666666666667</ele><time>2026-04-04T10:40:23.32Z</time></trkpt><trkpt lat="45.7065426" lon="9.4062026"><ele>303.3333333333333</ele><time>2026-04-04T10:40:25.32Z</time></trkpt><trkpt lat="45.7065792" lon="9.4061106"><ele>303.5</ele><time>2026-04-04T10:40:27.32Z</time></trkpt><trkpt lat="45.7066111" lon="9.4060076"><ele>303.66666666666663</ele><time>2026-04-04T10:40:29.32Z</time></trkpt><trkpt lat="45.7066459" lon="9.4058889"><ele>303.8333333333333</ele><time>2026-04-04T10:40:31.32Z</time></trkpt><trkpt lat="45.7066884" lon="9.4057752"><ele>304.0</ele><time>2026-04-04T10:40:33.32Z</time></trkpt><trkpt lat="45.7067285" lon="9.4056647"><ele>304.0</ele><time>2026-04-04T10:40:35.32Z</time></trkpt><trkpt lat="45.7067757" lon="9.4055518"><ele>304.0</ele><time>2026-04-04T10:40:37.32Z</time></trkpt><trkpt lat="45.7068245" lon="9.4054347"><ele>304.0</ele><time>2026-04-04T10:40:39.32Z</time></trkpt><trkpt lat="45.7068686" lon="9.4053235"><ele>304.0</ele><time>2026-04-04T10:40:41.32Z</time></trkpt><trkpt lat="45.7069071" lon="9.4052005"><ele>304.0</ele><time>2026-04-04T10:40:43.32Z</time></trkpt><trkpt lat="45.7069604" lon="9.4050816"><ele>304.59999999999997</ele><time>2026-04-04T10:40:45.32Z</time></trkpt><trkpt lat="45.707006" lon="9.4049649"><ele>305.2</ele><time>2026-04-04T10:40:47.32Z</time></trkpt><trkpt lat="45.707062" lon="9.4048492"><ele>305.79999999999995</ele><time>2026-04-04T10:40:49.32Z</time></trkpt><trkpt lat="45.7071224" lon="9.4047349"><ele>306.4</ele><time>2026-04-04T10:40:51.32Z</time></trkpt><trkpt lat="45.707193" lon="9.4046322"><ele>307.0</ele><time>2026-04-04T10:40:53.32Z</time></trkpt><trkpt lat="45.7072657" lon="9.4045413"><ele>307.0</ele><time>2026-04-04T10:40:55.32Z</time></trkpt><trkpt lat="45.7073482" lon="9.4044452"><ele>307.0</ele><time>2026-04-04T10:40:57.32Z</time></trkpt><trkpt lat="45.7074415" lon="9.4043467"><ele>307.0</ele><time>2026-04-04T10:40:59.319Z</time></trkpt><trkpt lat="45.7075311" lon="9.404254"><ele>307.0</ele><time>2026-04-04T10:41:01.32Z</time></trkpt><trkpt lat="45.7076129" lon="9.404161"><ele>307.0</ele><time>2026-04-04T10:41:03.32Z</time></trkpt><trkpt lat="45.7076956" lon="9.4040635"><ele>306.75</ele><time>2026-04-04T10:41:05.32Z</time></trkpt><trkpt lat="45.7077839" lon="9.4039684"><ele>306.5</ele><time>2026-04-04T10:41:07.32Z</time></trkpt><trkpt lat="45.7078739" lon="9.4038678"><ele>306.25</ele><time>2026-04-04T10:41:09.32Z</time></trkpt><trkpt lat="45.7079633" lon="9.4037664"><ele>306.0</ele><time>2026-04-04T10:41:11.32Z</time></trkpt><trkpt lat="45.7080502" lon="9.4036583"><ele>306.0</ele><time>2026-04-04T10:41:13.32Z</time></trkpt><trkpt lat="45.7081388" lon="9.4035522"><ele>306.0</ele><time>2026-04-04T10:41:15.32Z</time></trkpt><trkpt lat="45.7082707" lon="9.4034725"><ele>306.0</ele><time>2026-04-04T10:41:16.32Z</time></trkpt><trkpt lat="45.7083215" lon="9.4034068"><ele>306.0</ele><time>2026-04-04T10:41:17.319Z</time></trkpt><trkpt lat="45.7083783" lon="9.4033302"><ele>306.0</ele><time>2026-04-04T10:41:18.319Z</time></trkpt><trkpt lat="45.7084197" lon="9.4032516"><ele>306.0</ele><time>2026-04-04T10:41:19.32Z</time></trkpt><trkpt lat="45.7084598" lon="9.403151"><ele>306.0</ele><time>2026-04-04T10:41:20.32Z</time></trkpt><trkpt lat="45.7084882" lon="9.4030508"><ele>306.0</ele><time>2026-04-04T10:41:21.319Z</time></trkpt><trkpt lat="45.7085144" lon="9.4029331"><ele>306.0</ele><time>2026-04-04T10:41:22.32Z</time></trkpt><trkpt lat="45.7085525" lon="9.4028092"><ele>306.0</ele><time>2026-04-04T10:41:23.32Z</time></trkpt><trkpt lat="45.7085833" lon="9.4026838"><ele>306.0</ele><time>2026-04-04T10:41:24.32Z</time></trkpt><trkpt lat="45.7086379" lon="9.402562"><ele>305.0</ele><time>2026-04-04T10:41:25.32Z</time></trkpt><trkpt lat="45.7086619" lon="9.4024374"><ele>304.0</ele><time>2026-04-04T10:41:26.32Z</time></trkpt><trkpt lat="45.7087003" lon="9.4022909"><ele>303.0</ele><time>2026-04-04T10:41:27.32Z</time></trkpt><trkpt lat="45.7087217" lon="9.402137"><ele>302.0</ele><time>2026-04-04T10:41:28.32Z</time></trkpt><trkpt lat="45.7087542" lon="9.4020224"><ele>301.0</ele><time>2026-04-04T10:41:29.32Z</time></trkpt><trkpt lat="45.7087976" lon="9.4018948"><ele>299.8333333333333</ele><time>2026-04-04T10:41:30.32Z</time></trkpt><trkpt lat="45.7088296" lon="9.4017439"><ele>298.66666666666663</ele><time>2026-04-04T10:41:31.32Z</time></trkpt><trkpt lat="45.7088489" lon="9.401638"><ele>297.5</ele><time>2026-04-04T10:41:32.32Z</time></trkpt><trkpt lat="45.7088915" lon="9.4015382"><ele>296.3333333333333</ele><time>2026-04-04T10:41:33.32Z</time></trkpt><trkpt lat="45.708922" lon="9.4014358"><ele>295.1666666666667</ele><time>2026-04-04T10:41:34.32Z</time></trkpt><trkpt lat="45.7089734" lon="9.4013326"><ele>294.0</ele><time>2026-04-04T10:41:36.32Z</time></trkpt><trkpt lat="45.7090453" lon="9.4012105"><ele>292.59999999999997</ele><time>2026-04-04T10:41:39.32Z</time></trkpt><trkpt lat="45.7091406" lon="9.4011434"><ele>291.2</ele><time>2026-04-04T10:41:41.32Z</time></trkpt><trkpt lat="45.7092758" lon="9.4010617"><ele>289.79999999999995</ele><time>2026-04-04T10:41:43.319Z</time></trkpt><trkpt lat="45.7093439" lon="9.4010138"><ele>288.4</ele><time>2026-04-04T10:41:44.319Z</time></trkpt><trkpt lat="45.7094131" lon="9.4009675"><ele>287.0</ele><time>2026-04-04T10:41:45.32Z</time></trkpt><trkpt lat="45.709495" lon="9.4009253"><ele>287.0</ele><time>2026-04-04T10:41:46.32Z</time></trkpt><trkpt lat="45.7095752" lon="9.400869"><ele>287.0</ele><time>2026-04-04T10:41:47.32Z</time></trkpt><trkpt lat="45.7096582" lon="9.4007901"><ele>287.0</ele><time>2026-04-04T10:41:48.32Z</time></trkpt><trkpt lat="45.7097163" lon="9.4006891"><ele>287.0</ele><time>2026-04-04T10:41:49.32Z</time></trkpt><trkpt lat="45.7097656" lon="9.4005697"><ele>287.0</ele><time>2026-04-04T10:41:50.32Z</time></trkpt><trkpt lat="45.7098118" lon="9.400461"><ele>286.5</ele><time>2026-04-04T10:41:51.32Z</time></trkpt><trkpt lat="45.7098502" lon="9.4003486"><ele>286.0</ele><time>2026-04-04T10:41:52.32Z</time></trkpt><trkpt lat="45.7099008" lon="9.4002359"><ele>285.5</ele><time>2026-04-04T10:41:53.32Z</time></trkpt><trkpt lat="45.7099462" lon="9.4001407"><ele>285.0</ele><time>2026-04-04T10:41:54.32Z</time></trkpt><trkpt lat="45.7099892" lon="9.4000496"><ele>284.5</ele><time>2026-04-04T10:41:55.32Z</time></trkpt><trkpt lat="45.7100575" lon="9.3999563"><ele>284.0</ele><time>2026-04-04T10:41:56.32Z</time></trkpt><trkpt lat="45.7101276" lon="9.3998654"><ele>284.0</ele><time>2026-04-04T10:41:57.32Z</time></trkpt><trkpt lat="45.7101945" lon="9.3997654"><ele>284.0</ele><time>2026-04-04T10:41:58.32Z</time></trkpt><trkpt lat="45.7102518" lon="9.3996628"><ele>284.0</ele><time>2026-04-04T10:41:59.319Z</time></trkpt><trkpt lat="45.7103211" lon="9.3995583"><ele>284.0</ele><time>2026-04-04T10:42:00.32Z</time></trkpt><trkpt lat="45.710381" lon="9.3994599"><ele>284.0</ele><time>2026-04-04T10:42:01.32Z</time></trkpt><trkpt lat="45.7104318" lon="9.3993657"><ele>284.25</ele><time>2026-04-04T10:42:02.32Z</time></trkpt><trkpt lat="45.7104842" lon="9.3992809"><ele>284.5</ele><time>2026-04-04T10:42:03.319Z</time></trkpt><trkpt lat="45.7105484" lon="9.3991352"><ele>284.75</ele><time>2026-04-04T10:42:05.32Z</time></trkpt><trkpt lat="45.7105223" lon="9.3989349"><ele>285.0</ele><time>2026-04-04T10:42:07.32Z</time></trkpt><trkpt lat="45.7104801" lon="9.3987891"><ele>285.0</ele><time>2026-04-04T10:42:09.32Z</time></trkpt><trkpt lat="45.710434" lon="9.3987226"><ele>285.0</ele><time>2026-04-04T10:42:10.32Z</time></trkpt><trkpt lat="45.7103723" lon="9.3986352"><ele>285.0</ele><time>2026-04-04T10:42:11.319Z</time></trkpt><trkpt lat="45.7103431" lon="9.3985484"><ele>285.0</ele><time>2026-04-04T10:42:12.32Z</time></trkpt><trkpt lat="45.7103169" lon="9.3984461"><ele>285.0</ele><time>2026-04-04T10:42:13.32Z</time></trkpt><trkpt lat="45.7103511" lon="9.3982519"><ele>285.0</ele><time>2026-04-04T10:42:15.32Z</time></trkpt><trkpt lat="45.7103928" lon="9.3981399"><ele>283.6</ele><time>2026-04-04T10:42:16.32Z</time></trkpt><trkpt lat="45.7104117" lon="9.3979909"><ele>282.2</ele><time>2026-04-04T10:42:17.32Z</time></trkpt><trkpt lat="45.7104285" lon="9.3978528"><ele>280.8</ele><time>2026-04-04T10:42:18.32Z</time></trkpt><trkpt lat="45.7104332" lon="9.3977008"><ele>279.4</ele><time>2026-04-04T10:42:19.319Z</time></trkpt><trkpt lat="45.7104295" lon="9.3975775"><ele>278.0</ele><time>2026-04-04T10:42:20.32Z</time></trkpt><trkpt lat="45.7104341" lon="9.3974444"><ele>278.0</ele><time>2026-04-04T10:42:21.319Z</time></trkpt><trkpt lat="45.7104565" lon="9.3973007"><ele>278.0</ele><time>2026-04-04T10:42:22.32Z</time></trkpt><trkpt lat="45.7104753" lon="9.3971729"><ele>278.0</ele><time>2026-04-04T10:42:23.32Z</time></trkpt><trkpt lat="45.71049" lon="9.3970585"><ele>278.0</ele><time>2026-04-04T10:42:24.32Z</time></trkpt><trkpt lat="45.7105163" lon="9.3969158"><ele>278.0</ele><time>2026-04-04T10:42:25.319Z</time></trkpt><trkpt lat="45.7105119" lon="9.3968229"><ele>278.0</ele><time>2026-04-04T10:42:26.32Z</time></trkpt><trkpt lat="45.7105141" lon="9.3967218"><ele>276.75</ele><time>2026-04-04T10:42:27.32Z</time></trkpt><trkpt lat="45.7104748" lon="9.3965532"><ele>275.5</ele><time>2026-04-04T10:42:29.319Z</time></trkpt><trkpt lat="45.7104343" lon="9.396399"><ele>274.25</ele><time>2026-04-04T10:42:31.32Z</time></trkpt><trkpt lat="45.7103745" lon="9.3962573"><ele>273.0</ele><time>2026-04-04T10:42:33.32Z</time></trkpt><trkpt lat="45.7103163" lon="9.3961253"><ele>272.6</ele><time>2026-04-04T10:42:35.319Z</time></trkpt><trkpt lat="45.7102753" lon="9.3959428"><ele>272.20000000000005</ele><time>2026-04-04T10:42:37.319Z</time></trkpt><trkpt lat="45.7102651" lon="9.3958527"><ele>271.8</ele><time>2026-04-04T10:42:38.32Z</time></trkpt><trkpt lat="45.7102484" lon="9.3957599"><ele>271.40000000000003</ele><time>2026-04-04T10:42:39.32Z</time></trkpt><trkpt lat="45.7102136" lon="9.395594"><ele>271.0</ele><time>2026-04-04T10:42:41.319Z</time></trkpt><trkpt lat="45.710191" lon="9.3954633"><ele>272.8</ele><time>2026-04-04T10:42:43.32Z</time></trkpt><trkpt lat="45.7101674" lon="9.3953123"><ele>274.6</ele><time>2026-04-04T10:42:45.32Z</time></trkpt><trkpt lat="45.7101464" lon="9.3951685"><ele>276.4</ele><time>2026-04-04T10:42:47.319Z</time></trkpt><trkpt lat="45.7101096" lon="9.3950658"><ele>278.2</ele><time>2026-04-04T10:42:49.319Z</time></trkpt><trkpt lat="45.7100699" lon="9.3949357"><ele>280.0</ele><time>2026-04-04T10:42:51.319Z</time></trkpt><trkpt lat="45.7100406" lon="9.3948467"><ele>280.0</ele><time>2026-04-04T10:42:53.32Z</time></trkpt><trkpt lat="45.7100433" lon="9.3947013"><ele>280.0</ele><time>2026-04-04T10:42:55.32Z</time></trkpt><trkpt lat="45.7100329" lon="9.3945796"><ele>280.0</ele><time>2026-04-04T10:42:57.32Z</time></trkpt><trkpt lat="45.7100103" lon="9.3944497"><ele>280.0</ele><time>2026-04-04T10:42:59.32Z</time></trkpt><trkpt lat="45.7099838" lon="9.39433"><ele>280.0</ele><time>2026-04-04T10:43:01.32Z</time></trkpt><trkpt lat="45.7099367" lon="9.3942412"><ele>280.0</ele><time>2026-04-04T10:43:03.319Z</time></trkpt><trkpt lat="45.709904" lon="9.3941083"><ele>280.0</ele><time>2026-04-04T10:43:05.32Z</time></trkpt><trkpt lat="45.7098687" lon="9.3939645"><ele>280.0</ele><time>2026-04-04T10:43:07.32Z</time></trkpt><trkpt lat="45.7098271" lon="9.3938386"><ele>280.0</ele><time>2026-04-04T10:43:09.32Z</time></trkpt><trkpt lat="45.7097946" lon="9.3937111"><ele>280.0</ele><time>2026-04-04T10:43:11.32Z</time></trkpt><trkpt lat="45.7097603" lon="9.3935788"><ele>280.0</ele><time>2026-04-04T10:43:13.319Z</time></trkpt><trkpt lat="45.7097391" lon="9.3934427"><ele>280.16666666666663</ele><time>2026-04-04T10:43:15.32Z</time></trkpt><trkpt lat="45.7097183" lon="9.3933311"><ele>280.3333333333333</ele><time>2026-04-04T10:43:17.32Z</time></trkpt><trkpt lat="45.70971" lon="9.3932025"><ele>280.5</ele><time>2026-04-04T10:43:19.32Z</time></trkpt><trkpt lat="45.7097152" lon="9.3930686"><ele>280.6666666666667</ele><time>2026-04-04T10:43:21.32Z</time></trkpt><trkpt lat="45.7097301" lon="9.3929537"><ele>280.83333333333337</ele><time>2026-04-04T10:43:23.319Z</time></trkpt><trkpt lat="45.7097486" lon="9.3928561"><ele>281.0</ele><time>2026-04-04T10:43:25.32Z</time></trkpt><trkpt lat="45.7097707" lon="9.3927428"><ele>281.83333333333337</ele><time>2026-04-04T10:43:27.32Z</time></trkpt><trkpt lat="45.7097966" lon="9.3926291"><ele>282.6666666666667</ele><time>2026-04-04T10:43:30.32Z</time></trkpt><trkpt lat="45.7098281" lon="9.3925348"><ele>283.5</ele><time>2026-04-04T10:43:33.32Z</time></trkpt><trkpt lat="45.7098369" lon="9.3924364"><ele>284.3333333333333</ele><time>2026-04-04T10:43:35.32Z</time></trkpt><trkpt lat="45.709853" lon="9.3923242"><ele>285.16666666666663</ele><time>2026-04-04T10:43:38.32Z</time></trkpt><trkpt lat="45.7098852" lon="9.3922323"><ele>286.0</ele><time>2026-04-04T10:43:40.32Z</time></trkpt><trkpt lat="45.7099229" lon="9.3921423"><ele>288.16666666666663</ele><time>2026-04-04T10:43:42.32Z</time></trkpt><trkpt lat="45.7099397" lon="9.3920231"><ele>290.3333333333333</ele><time>2026-04-04T10:43:45.32Z</time></trkpt><trkpt lat="45.7099634" lon="9.3919392"><ele>292.5</ele><time>2026-04-04T10:43:47.319Z</time></trkpt><trkpt lat="45.709997" lon="9.3918451"><ele>294.6666666666667</ele><time>2026-04-04T10:43:51.32Z</time></trkpt><trkpt lat="45.7100242" lon="9.3917473"><ele>296.83333333333337</ele><time>2026-04-04T10:43:54.319Z</time></trkpt><trkpt lat="45.7100613" lon="9.391657"><ele>299.0</ele><time>2026-04-04T10:43:57.32Z</time></trkpt><trkpt lat="45.7101193" lon="9.3915664"><ele>299.0</ele><time>2026-04-04T10:44:00.32Z</time></trkpt><trkpt lat="45.7101356" lon="9.3914756"><ele>299.0</ele><time>2026-04-04T10:44:02.32Z</time></trkpt><trkpt lat="45.7101781" lon="9.391379"><ele>299.0</ele><time>2026-04-04T10:44:05.319Z</time></trkpt><trkpt lat="45.7102091" lon="9.3912824"><ele>299.0</ele><time>2026-04-04T10:44:08.319Z</time></trkpt><trkpt lat="45.7102659" lon="9.3911888"><ele>299.0</ele><time>2026-04-04T10:44:11.319Z</time></trkpt><trkpt lat="45.7102887" lon="9.3910702"><ele>299.0</ele><time>2026-04-04T10:44:14.32Z</time></trkpt><trkpt lat="45.7103148" lon="9.3909865"><ele>300.0</ele><time>2026-04-04T10:44:18.319Z</time></trkpt><trkpt lat="45.7103508" lon="9.3908846"><ele>301.0</ele><time>2026-04-04T10:44:21.32Z</time></trkpt><trkpt lat="45.7103893" lon="9.3908023"><ele>302.0</ele><time>2026-04-04T10:44:23.32Z</time></trkpt><trkpt lat="45.7104232" lon="9.3906854"><ele>303.0</ele><time>2026-04-04T10:44:26.32Z</time></trkpt><trkpt lat="45.7104557" lon="9.3906035"><ele>304.0</ele><time>2026-04-04T10:44:29.32Z</time></trkpt><trkpt lat="45.7105001" lon="9.3904961"><ele>305.0</ele><time>2026-04-04T10:44:32.319Z</time></trkpt><trkpt lat="45.7105304" lon="9.3904101"><ele>305.6666666666667</ele><time>2026-04-04T10:44:34.319Z</time></trkpt><trkpt lat="45.7105635" lon="9.3903176"><ele>306.33333333333337</ele><time>2026-04-04T10:44:37.32Z</time></trkpt><trkpt lat="45.7106023" lon="9.3902398"><ele>307.0</ele><time>2026-04-04T10:44:39.32Z</time></trkpt><trkpt lat="45.7106426" lon="9.3901357"><ele>307.6666666666667</ele><time>2026-04-04T10:44:41.32Z</time></trkpt><trkpt lat="45.7106288" lon="9.3900265"><ele>308.3333333333333</ele><time>2026-04-04T10:44:44.32Z</time></trkpt><trkpt lat="45.7106573" lon="9.3899053"><ele>309.0</ele><time>2026-04-04T10:44:46.32Z</time></trkpt><trkpt lat="45.7106955" lon="9.3897783"><ele>309.0</ele><time>2026-04-04T10:44:48.319Z</time></trkpt><trkpt lat="45.7107546" lon="9.3896714"><ele>309.0</ele><time>2026-04-04T10:44:50.319Z</time></trkpt><trkpt lat="45.710807" lon="9.3895703"><ele>309.0</ele><time>2026-04-04T10:44:51.32Z</time></trkpt><trkpt lat="45.7108589" lon="9.3895077"><ele>309.0</ele><time>2026-04-04T10:44:52.319Z</time></trkpt><trkpt lat="45.7109289" lon="9.3894193"><ele>309.0</ele><time>2026-04-04T10:44:54.32Z</time></trkpt><trkpt lat="45.7109744" lon="9.3893104"><ele>309.0</ele><time>2026-04-04T10:44:56.32Z</time></trkpt><trkpt lat="45.7110071" lon="9.3892196"><ele>309.0</ele><time>2026-04-04T10:44:58.32Z</time></trkpt><trkpt lat="45.7110395" lon="9.3891056"><ele>309.0</ele><time>2026-04-04T10:45:00.319Z</time></trkpt><trkpt lat="45.7109758" lon="9.3889033"><ele>309.0</ele><time>2026-04-04T10:45:02.32Z</time></trkpt><trkpt lat="45.7109648" lon="9.3888063"><ele>309.0</ele><time>2026-04-04T10:45:03.32Z</time></trkpt><trkpt lat="45.7109153" lon="9.3886962"><ele>309.0</ele><time>2026-04-04T10:45:04.32Z</time></trkpt><trkpt lat="45.7108607" lon="9.3885782"><ele>308.5</ele><time>2026-04-04T10:45:05.319Z</time></trkpt><trkpt lat="45.7108156" lon="9.3884809"><ele>308.0</ele><time>2026-04-04T10:45:06.32Z</time></trkpt><trkpt lat="45.7107612" lon="9.3884075"><ele>307.5</ele><time>2026-04-04T10:45:07.32Z</time></trkpt><trkpt lat="45.7106979" lon="9.3883182"><ele>307.0</ele><time>2026-04-04T10:45:08.32Z</time></trkpt><trkpt lat="45.7106422" lon="9.3882244"><ele>306.5</ele><time>2026-04-04T10:45:09.32Z</time></trkpt><trkpt lat="45.7105974" lon="9.3881107"><ele>306.0</ele><time>2026-04-04T10:45:10.319Z</time></trkpt><trkpt lat="45.7105674" lon="9.3879827"><ele>304.8333333333333</ele><time>2026-04-04T10:45:11.32Z</time></trkpt><trkpt lat="45.7105178" lon="9.3878862"><ele>303.6666666666667</ele><time>2026-04-04T10:45:12.32Z</time></trkpt><trkpt lat="45.7104909" lon="9.3877828"><ele>302.5</ele><time>2026-04-04T10:45:13.32Z</time></trkpt><trkpt lat="45.7104784" lon="9.3876823"><ele>301.33333333333337</ele><time>2026-04-04T10:45:14.32Z</time></trkpt><trkpt lat="45.7104662" lon="9.3875832"><ele>300.1666666666667</ele><time>2026-04-04T10:45:15.32Z</time></trkpt><trkpt lat="45.7104942" lon="9.3873815"><ele>299.0</ele><time>2026-04-04T10:45:16.32Z</time></trkpt><trkpt lat="45.7105086" lon="9.3872337"><ele>298.33333333333337</ele><time>2026-04-04T10:45:17.319Z</time></trkpt><trkpt lat="45.7105463" lon="9.3870972"><ele>297.6666666666667</ele><time>2026-04-04T10:45:18.32Z</time></trkpt><trkpt lat="45.7105613" lon="9.3869786"><ele>297.0</ele><time>2026-04-04T10:45:19.32Z</time></trkpt><trkpt lat="45.7105601" lon="9.386873"><ele>296.3333333333333</ele><time>2026-04-04T10:45:20.32Z</time></trkpt><trkpt lat="45.7105522" lon="9.3867384"><ele>295.66666666666663</ele><time>2026-04-04T10:45:21.32Z</time></trkpt><trkpt lat="45.7105349" lon="9.3866287"><ele>295.0</ele><time>2026-04-04T10:45:22.319Z</time></trkpt><trkpt lat="45.7105153" lon="9.3865275"><ele>295.0</ele><time>2026-04-04T10:45:23.32Z</time></trkpt><trkpt lat="45.7104908" lon="9.3864266"><ele>295.0</ele><time>2026-04-04T10:45:24.319Z</time></trkpt><trkpt lat="45.7104569" lon="9.3863452"><ele>295.0</ele><time>2026-04-04T10:45:25.32Z</time></trkpt><trkpt lat="45.7104077" lon="9.3862097"><ele>295.0</ele><time>2026-04-04T10:45:27.32Z</time></trkpt><trkpt lat="45.7103706" lon="9.3861341"><ele>295.0</ele><time>2026-04-04T10:45:28.32Z</time></trkpt><trkpt lat="45.710309" lon="9.3860276"><ele>295.0</ele><time>2026-04-04T10:45:30.32Z</time></trkpt><trkpt lat="45.7102539" lon="9.3859464"><ele>295.0</ele><time>2026-04-04T10:45:32.32Z</time></trkpt><trkpt lat="45.7102251" lon="9.3858387"><ele>295.0</ele><time>2026-04-04T10:45:34.32Z</time></trkpt><trkpt lat="45.710201" lon="9.3857332"><ele>295.0</ele><time>2026-04-04T10:45:36.32Z</time></trkpt><trkpt lat="45.7101953" lon="9.3856322"><ele>295.0</ele><time>2026-04-04T10:45:38.319Z</time></trkpt><trkpt lat="45.7101432" lon="9.3855349"><ele>295.0</ele><time>2026-04-04T10:45:40.319Z</time></trkpt><trkpt lat="45.7101626" lon="9.3854415"><ele>295.0</ele><time>2026-04-04T10:45:42.32Z</time></trkpt><trkpt lat="45.7101848" lon="9.3853347"><ele>295.5</ele><time>2026-04-04T10:45:44.32Z</time></trkpt><trkpt lat="45.7102301" lon="9.3852255"><ele>296.0</ele><time>2026-04-04T10:45:46.32Z</time></trkpt><trkpt lat="45.7102799" lon="9.3851114"><ele>296.5</ele><time>2026-04-04T10:45:48.32Z</time></trkpt><trkpt lat="45.7103268" lon="9.3850178"><ele>297.0</ele><time>2026-04-04T10:45:50.32Z</time></trkpt><trkpt lat="45.7103797" lon="9.3849247"><ele>297.5</ele><time>2026-04-04T10:45:52.32Z</time></trkpt><trkpt lat="45.7104346" lon="9.384815"><ele>298.0</ele><time>2026-04-04T10:45:54.319Z</time></trkpt><trkpt lat="45.7104839" lon="9.3847026"><ele>298.8</ele><time>2026-04-04T10:45:56.32Z</time></trkpt><trkpt lat="45.710549" lon="9.3845782"><ele>299.6</ele><time>2026-04-04T10:45:58.32Z</time></trkpt><trkpt lat="45.7106135" lon="9.3844597"><ele>300.4</ele><time>2026-04-04T10:46:00.32Z</time></trkpt><trkpt lat="45.7106598" lon="9.3843759"><ele>301.2</ele><time>2026-04-04T10:46:02.32Z</time></trkpt><trkpt lat="45.7107098" lon="9.3842382"><ele>302.0</ele><time>2026-04-04T10:46:04.32Z</time></trkpt><trkpt lat="45.7107589" lon="9.3841177"><ele>302.0</ele><time>2026-04-04T10:46:06.32Z</time></trkpt><trkpt lat="45.710806" lon="9.3839894"><ele>302.0</ele><time>2026-04-04T10:46:08.32Z</time></trkpt><trkpt lat="45.7108759" lon="9.3838732"><ele>302.0</ele><time>2026-04-04T10:46:10.319Z</time></trkpt><trkpt lat="45.710939" lon="9.3837749"><ele>302.0</ele><time>2026-04-04T10:46:12.319Z</time></trkpt><trkpt lat="45.7109923" lon="9.3836789"><ele>302.0</ele><time>2026-04-04T10:46:14.32Z</time></trkpt><trkpt lat="45.7110517" lon="9.3835488"><ele>301.4</ele><time>2026-04-04T10:46:16.32Z</time></trkpt><trkpt lat="45.711109" lon="9.3834327"><ele>300.79999999999995</ele><time>2026-04-04T10:46:18.32Z</time></trkpt><trkpt lat="45.7111625" lon="9.3833215"><ele>300.2</ele><time>2026-04-04T10:46:20.32Z</time></trkpt><trkpt lat="45.7112052" lon="9.3831792"><ele>299.59999999999997</ele><time>2026-04-04T10:46:22.319Z</time></trkpt><trkpt lat="45.711266" lon="9.3830316"><ele>299.0</ele><time>2026-04-04T10:46:24.32Z</time></trkpt><trkpt lat="45.7113423" lon="9.3828508"><ele>299.0</ele><time>2026-04-04T10:46:26.32Z</time></trkpt><trkpt lat="45.7113908" lon="9.3827683"><ele>299.0</ele><time>2026-04-04T10:46:27.319Z</time></trkpt><trkpt lat="45.7114311" lon="9.3826869"><ele>299.0</ele><time>2026-04-04T10:46:28.32Z</time></trkpt><trkpt lat="45.7114699" lon="9.3826143"><ele>299.0</ele><time>2026-04-04T10:46:29.32Z</time></trkpt><trkpt lat="45.7114986" lon="9.3825336"><ele>299.0</ele><time>2026-04-04T10:46:30.32Z</time></trkpt><trkpt lat="45.7115252" lon="9.3824516"><ele>299.0</ele><time>2026-04-04T10:46:31.32Z</time></trkpt><trkpt lat="45.7115668" lon="9.3823712"><ele>299.0</ele><time>2026-04-04T10:46:32.32Z</time></trkpt><trkpt lat="45.7116105" lon="9.3822825"><ele>299.0</ele><time>2026-04-04T10:46:33.32Z</time></trkpt><trkpt lat="45.7116526" lon="9.3822034"><ele>299.0</ele><time>2026-04-04T10:46:34.32Z</time></trkpt><trkpt lat="45.711759" lon="9.3820096"><ele>299.0</ele><time>2026-04-04T10:46:36.319Z</time></trkpt><trkpt lat="45.7118247" lon="9.3818611"><ele>299.0</ele><time>2026-04-04T10:46:38.32Z</time></trkpt><trkpt lat="45.7118567" lon="9.3817742"><ele>299.0</ele><time>2026-04-04T10:46:39.32Z</time></trkpt><trkpt lat="45.7119295" lon="9.3816111"><ele>298.83333333333337</ele><time>2026-04-04T10:46:41.32Z</time></trkpt><trkpt lat="45.7120057" lon="9.3815485"><ele>298.6666666666667</ele><time>2026-04-04T10:46:42.32Z</time></trkpt><trkpt lat="45.7120574" lon="9.3814766"><ele>298.5</ele><time>2026-04-04T10:46:43.32Z</time></trkpt><trkpt lat="45.7121127" lon="9.3814089"><ele>298.3333333333333</ele><time>2026-04-04T10:46:44.32Z</time></trkpt><trkpt lat="45.7121708" lon="9.3813229"><ele>298.16666666666663</ele><time>2026-04-04T10:46:45.32Z</time></trkpt><trkpt lat="45.7122411" lon="9.3813006"><ele>298.0</ele><time>2026-04-04T10:46:46.319Z</time></trkpt><trkpt lat="45.7123478" lon="9.3812592"><ele>297.4</ele><time>2026-04-04T10:46:48.319Z</time></trkpt><trkpt lat="45.7124683" lon="9.3812552"><ele>296.8</ele><time>2026-04-04T10:46:50.32Z</time></trkpt><trkpt lat="45.7125858" lon="9.3812197"><ele>296.2</ele><time>2026-04-04T10:46:52.32Z</time></trkpt><trkpt lat="45.7127172" lon="9.381201"><ele>295.6</ele><time>2026-04-04T10:46:54.32Z</time></trkpt><trkpt lat="45.7127868" lon="9.3811739"><ele>295.0</ele><time>2026-04-04T10:46:55.32Z</time></trkpt><trkpt lat="45.7128772" lon="9.381134"><ele>295.0</ele><time>2026-04-04T10:46:57.319Z</time></trkpt><trkpt lat="45.7129472" lon="9.3811029"><ele>295.0</ele><time>2026-04-04T10:46:58.32Z</time></trkpt><trkpt lat="45.713052" lon="9.3810485"><ele>295.0</ele><time>2026-04-04T10:47:01.319Z</time></trkpt><trkpt lat="45.7131291" lon="9.3809891"><ele>295.0</ele><time>2026-04-04T10:47:03.32Z</time></trkpt><trkpt lat="45.713174" lon="9.3808751"><ele>295.0</ele><time>2026-04-04T10:47:07.32Z</time></trkpt><trkpt lat="45.7131662" lon="9.3807383"><ele>295.0</ele><time>2026-04-04T10:47:10.32Z</time></trkpt><trkpt lat="45.7131631" lon="9.3806479"><ele>295.0</ele><time>2026-04-04T10:47:11.32Z</time></trkpt><trkpt lat="45.7130932" lon="9.3805577"><ele>295.0</ele><time>2026-04-04T10:47:13.32Z</time></trkpt><trkpt lat="45.7130278" lon="9.3804725"><ele>295.0</ele><time>2026-04-04T10:47:15.319Z</time></trkpt><trkpt lat="45.7129485" lon="9.380434"><ele>295.0</ele><time>2026-04-04T10:47:17.32Z</time></trkpt><trkpt lat="45.7128722" lon="9.3803484"><ele>295.0</ele><time>2026-04-04T10:47:19.32Z</time></trkpt><trkpt lat="45.71278" lon="9.3802783"><ele>295.16666666666663</ele><time>2026-04-04T10:47:21.32Z</time></trkpt><trkpt lat="45.7127349" lon="9.3801818"><ele>295.3333333333333</ele><time>2026-04-04T10:47:23.319Z</time></trkpt><trkpt lat="45.7126626" lon="9.3801094"><ele>295.5</ele><time>2026-04-04T10:47:25.32Z</time></trkpt><trkpt lat="45.7125935" lon="9.3801095"><ele>295.6666666666667</ele><time>2026-04-04T10:47:27.32Z</time></trkpt><trkpt lat="45.7125154" lon="9.3800978"><ele>295.83333333333337</ele><time>2026-04-04T10:47:29.32Z</time></trkpt><trkpt lat="45.7124416" lon="9.380075"><ele>296.0</ele><time>2026-04-04T10:47:31.32Z</time></trkpt><trkpt lat="45.7123602" lon="9.3800719"><ele>296.0</ele><time>2026-04-04T10:47:33.32Z</time></trkpt><trkpt lat="45.7122961" lon="9.3800618"><ele>296.0</ele><time>2026-04-04T10:47:35.32Z</time></trkpt><trkpt lat="45.71221" lon="9.3800794"><ele>296.0</ele><time>2026-04-04T10:47:37.32Z</time></trkpt><trkpt lat="45.7121403" lon="9.3800704"><ele>296.0</ele><time>2026-04-04T10:47:39.32Z</time></trkpt><trkpt lat="45.7120672" lon="9.3800559"><ele>296.0</ele><time>2026-04-04T10:47:42.32Z</time></trkpt><trkpt lat="45.7119955" lon="9.3800426"><ele>296.0</ele><time>2026-04-04T10:47:45.319Z</time></trkpt><trkpt lat="45.7119058" lon="9.380045"><ele>296.83333333333337</ele><time>2026-04-04T10:47:48.32Z</time></trkpt><trkpt lat="45.7118179" lon="9.3800408"><ele>297.6666666666667</ele><time>2026-04-04T10:47:52.32Z</time></trkpt><trkpt lat="45.7117538" lon="9.380013"><ele>298.5</ele><time>2026-04-04T10:47:55.32Z</time></trkpt><trkpt lat="45.7116832" lon="9.3799989"><ele>299.3333333333333</ele><time>2026-04-04T10:47:58.319Z</time></trkpt><trkpt lat="45.7116119" lon="9.3799692"><ele>300.16666666666663</ele><time>2026-04-04T10:48:01.32Z</time></trkpt><trkpt lat="45.7115385" lon="9.379918"><ele>301.0</ele><time>2026-04-04T10:48:04.32Z</time></trkpt><trkpt lat="45.7114715" lon="9.3798748"><ele>301.0</ele><time>2026-04-04T10:48:06.32Z</time></trkpt><trkpt lat="45.711415" lon="9.3798099"><ele>301.0</ele><time>2026-04-04T10:48:08.32Z</time></trkpt><trkpt lat="45.7113713" lon="9.3797417"><ele>301.0</ele><time>2026-04-04T10:48:10.32Z</time></trkpt><trkpt lat="45.7113308" lon="9.3796392"><ele>301.0</ele><time>2026-04-04T10:48:13.32Z</time></trkpt><trkpt lat="45.7112631" lon="9.3795527"><ele>301.0</ele><time>2026-04-04T10:48:16.32Z</time></trkpt><trkpt lat="45.7111964" lon="9.3794443"><ele>301.0</ele><time>2026-04-04T10:48:19.319Z</time></trkpt><trkpt lat="45.711152" lon="9.3793737"><ele>301.5</ele><time>2026-04-04T10:48:21.32Z</time></trkpt><trkpt lat="45.711096" lon="9.3792652"><ele>302.0</ele><time>2026-04-04T10:48:24.32Z</time></trkpt><trkpt lat="45.7110542" lon="9.3791461"><ele>302.5</ele><time>2026-04-04T10:48:27.319Z</time></trkpt><trkpt lat="45.7110176" lon="9.3790204"><ele>303.0</ele><time>2026-04-04T10:48:30.319Z</time></trkpt><trkpt lat="45.7109986" lon="9.3789016"><ele>303.5</ele><time>2026-04-04T10:48:33.319Z</time></trkpt><trkpt lat="45.7109928" lon="9.3788054"><ele>304.0</ele><time>2026-04-04T10:48:35.32Z</time></trkpt><trkpt lat="45.7109852" lon="9.3787094"><ele>304.1428571428571</ele><time>2026-04-04T10:48:37.32Z</time></trkpt><trkpt lat="45.7109776" lon="9.3786082"><ele>304.28571428571433</ele><time>2026-04-04T10:48:39.319Z</time></trkpt><trkpt lat="45.7109748" lon="9.378514"><ele>304.42857142857144</ele><time>2026-04-04T10:48:41.32Z</time></trkpt><trkpt lat="45.7109639" lon="9.3783894"><ele>304.57142857142856</ele><time>2026-04-04T10:48:44.32Z</time></trkpt><trkpt lat="45.7109542" lon="9.3782733"><ele>304.71428571428567</ele><time>2026-04-04T10:48:47.319Z</time></trkpt><trkpt lat="45.7109434" lon="9.37818"><ele>304.8571428571429</ele><time>2026-04-04T10:48:50.319Z</time></trkpt><trkpt lat="45.7109374" lon="9.3780768"><ele>305.0</ele><time>2026-04-04T10:48:52.32Z</time></trkpt><trkpt lat="45.7109305" lon="9.377941"><ele>306.5</ele><time>2026-04-04T10:48:55.32Z</time></trkpt><trkpt lat="45.7109219" lon="9.3778308"><ele>308.0</ele><time>2026-04-04T10:48:58.32Z</time></trkpt><trkpt lat="45.7109197" lon="9.3777231"><ele>309.5</ele><time>2026-04-04T10:49:01.319Z</time></trkpt><trkpt lat="45.7109206" lon="9.3776221"><ele>311.0</ele><time>2026-04-04T10:49:04.32Z</time></trkpt><trkpt lat="45.7109101" lon="9.3775239"><ele>312.5</ele><time>2026-04-04T10:49:07.32Z</time></trkpt><trkpt lat="45.7108832" lon="9.3774222"><ele>314.0</ele><time>2026-04-04T10:49:10.319Z</time></trkpt><trkpt lat="45.7108752" lon="9.3772923"><ele>315.99999999999994</ele><time>2026-04-04T10:49:13.32Z</time></trkpt><trkpt lat="45.7108724" lon="9.3771752"><ele>318.0</ele><time>2026-04-04T10:49:16.319Z</time></trkpt><trkpt lat="45.7108793" lon="9.3770683"><ele>320.0</ele><time>2026-04-04T10:49:19.32Z</time></trkpt><trkpt lat="45.7108502" lon="9.3769801"><ele>322.0</ele><time>2026-04-04T10:49:22.32Z</time></trkpt><trkpt lat="45.7108016" lon="9.3769209"><ele>324.0</ele><time>2026-04-04T10:49:24.32Z</time></trkpt><trkpt lat="45.7107565" lon="9.3768387"><ele>325.99999999999994</ele><time>2026-04-04T10:49:26.32Z</time></trkpt><trkpt lat="45.7107223" lon="9.3767618"><ele>328.0</ele><time>2026-04-04T10:49:28.319Z</time></trkpt><trkpt lat="45.7106402" lon="9.3767847"><ele>328.0</ele><time>2026-04-04T10:49:31.32Z</time></trkpt><trkpt lat="45.710583" lon="9.3768282"><ele>328.0</ele><time>2026-04-04T10:49:33.319Z</time></trkpt><trkpt lat="45.7105329" lon="9.3769054"><ele>328.0</ele><time>2026-04-04T10:49:35.32Z</time></trkpt><trkpt lat="45.7104854" lon="9.3769781"><ele>328.0</ele><time>2026-04-04T10:49:37.32Z</time></trkpt><trkpt lat="45.7104211" lon="9.37709"><ele>328.0</ele><time>2026-04-04T10:49:40.32Z</time></trkpt><trkpt lat="45.710346" lon="9.3772072"><ele>328.0</ele><time>2026-04-04T10:49:42.32Z</time></trkpt><trkpt lat="45.7102766" lon="9.3773195"><ele>327.4</ele><time>2026-04-04T10:49:44.32Z</time></trkpt><trkpt lat="45.7101605" lon="9.3774636"><ele>326.79999999999995</ele><time>2026-04-04T10:49:45.32Z</time></trkpt><trkpt lat="45.7100936" lon="9.3775059"><ele>326.2</ele><time>2026-04-04T10:49:48.319Z</time></trkpt><trkpt lat="45.7100136" lon="9.3774922"><ele>325.6</ele><time>2026-04-04T10:49:50.319Z</time></trkpt><trkpt lat="45.7099593" lon="9.3774453"><ele>325.0</ele><time>2026-04-04T10:49:52.32Z</time></trkpt><trkpt lat="45.7098771" lon="9.3773817"><ele>325.0</ele><time>2026-04-04T10:49:55.319Z</time></trkpt><trkpt lat="45.7098219" lon="9.377321"><ele>325.0</ele><time>2026-04-04T10:49:57.32Z</time></trkpt><trkpt lat="45.709755" lon="9.377279"><ele>325.0</ele><time>2026-04-04T10:49:59.32Z</time></trkpt><trkpt lat="45.7096659" lon="9.3772532"><ele>325.0</ele><time>2026-04-04T10:50:02.32Z</time></trkpt><trkpt lat="45.7095836" lon="9.3773214"><ele>325.0</ele><time>2026-04-04T10:50:05.319Z</time></trkpt><trkpt lat="45.7095177" lon="9.3774062"><ele>325.0</ele><time>2026-04-04T10:50:08.319Z</time></trkpt><trkpt lat="45.7094788" lon="9.3774891"><ele>325.0</ele><time>2026-04-04T10:50:10.319Z</time></trkpt><trkpt lat="45.7094368" lon="9.377575"><ele>325.0</ele><time>2026-04-04T10:50:12.32Z</time></trkpt><trkpt lat="45.7094214" lon="9.3776626"><ele>325.0</ele><time>2026-04-04T10:50:14.32Z</time></trkpt><trkpt lat="45.7093708" lon="9.3777833"><ele>325.0</ele><time>2026-04-04T10:50:17.32Z</time></trkpt><trkpt lat="45.7093226" lon="9.3778696"><ele>325.0</ele><time>2026-04-04T10:50:20.32Z</time></trkpt><trkpt lat="45.7092604" lon="9.377903"><ele>325.0</ele><time>2026-04-04T10:50:23.32Z</time></trkpt><trkpt lat="45.7093287" lon="9.3779742"><ele>327.57142857142856</ele><time>2026-04-04T10:50:28.319Z</time></trkpt><trkpt lat="45.7093421" lon="9.378063"><ele>330.14285714285717</ele><time>2026-04-04T10:50:31.32Z</time></trkpt><trkpt lat="45.7093463" lon="9.3781556"><ele>332.7142857142857</ele><time>2026-04-04T10:50:34.32Z</time></trkpt><trkpt lat="45.7093716" lon="9.3782691"><ele>335.2857142857143</ele><time>2026-04-04T10:50:37.32Z</time></trkpt><trkpt lat="45.7093757" lon="9.3783755"><ele>337.8571428571429</ele><time>2026-04-04T10:50:40.32Z</time></trkpt><trkpt lat="45.7093613" lon="9.3784776"><ele>340.42857142857144</ele><time>2026-04-04T10:50:43.32Z</time></trkpt><trkpt lat="45.7093377" lon="9.3785709"><ele>343.0</ele><time>2026-04-04T10:50:46.32Z</time></trkpt><trkpt lat="45.7093153" lon="9.3786596"><ele>343.0</ele><time>2026-04-04T10:50:48.32Z</time></trkpt><trkpt lat="45.7092938" lon="9.3787655"><ele>343.0</ele><time>2026-04-04T10:50:51.319Z</time></trkpt><trkpt lat="45.7092827" lon="9.3788845"><ele>343.0</ele><time>2026-04-04T10:50:55.32Z</time></trkpt><trkpt lat="45.7092507" lon="9.3789689"><ele>343.0</ele><time>2026-04-04T10:50:58.32Z</time></trkpt><trkpt lat="45.7092794" lon="9.3790947"><ele>343.0</ele><time>2026-04-04T10:51:03.32Z</time></trkpt><trkpt lat="45.7093169" lon="9.3791784"><ele>343.0</ele><time>2026-04-04T10:51:06.32Z</time></trkpt><trkpt lat="45.7093426" lon="9.379277"><ele>344.5</ele><time>2026-04-04T10:51:09.32Z</time></trkpt><trkpt lat="45.7093912" lon="9.3793572"><ele>346.0</ele><time>2026-04-04T10:51:12.319Z</time></trkpt><trkpt lat="45.709396" lon="9.3794536"><ele>347.5</ele><time>2026-04-04T10:51:16.32Z</time></trkpt><trkpt lat="45.7094127" lon="9.3795616"><ele>349.0</ele><time>2026-04-04T10:51:22.338Z</time></trkpt><trkpt lat="45.7094438" lon="9.3796635"><ele>350.5</ele><time>2026-04-04T10:51:26.251Z</time></trkpt><trkpt lat="45.7094558" lon="9.3797787"><ele>352.0</ele><time>2026-04-04T10:51:29.32Z</time></trkpt><trkpt lat="45.7094551" lon="9.3799047"><ele>351.66666666666663</ele><time>2026-04-04T10:51:32.32Z</time></trkpt><trkpt lat="45.7094439" lon="9.3800136"><ele>351.3333333333333</ele><time>2026-04-04T10:51:34.32Z</time></trkpt><trkpt lat="45.7093886" lon="9.3801171"><ele>351.0</ele><time>2026-04-04T10:51:37.319Z</time></trkpt><trkpt lat="45.7093431" lon="9.3801918"><ele>350.6666666666667</ele><time>2026-04-04T10:51:39.32Z</time></trkpt><trkpt lat="45.7092805" lon="9.3802725"><ele>350.33333333333337</ele><time>2026-04-04T10:51:41.32Z</time></trkpt><trkpt lat="45.7092118" lon="9.3803428"><ele>350.0</ele><time>2026-04-04T10:51:43.319Z</time></trkpt><trkpt lat="45.7091479" lon="9.3804081"><ele>343.6666666666667</ele><time>2026-04-04T10:51:45.32Z</time></trkpt><trkpt lat="45.7090736" lon="9.3805539"><ele>337.3333333333333</ele><time>2026-04-04T10:51:51.32Z</time></trkpt><trkpt lat="45.7088564" lon="9.380752"><ele>331.0</ele><time>2026-04-04T10:51:52.32Z</time></trkpt><trkpt lat="45.7087877" lon="9.3808788"><ele>331.0</ele><time>2026-04-04T10:51:54.319Z</time></trkpt><trkpt lat="45.7087291" lon="9.38101"><ele>331.0</ele><time>2026-04-04T10:51:56.32Z</time></trkpt><trkpt lat="45.708653" lon="9.3811222"><ele>331.0</ele><time>2026-04-04T10:51:58.319Z</time></trkpt><trkpt lat="45.7085932" lon="9.3811857"><ele>331.0</ele><time>2026-04-04T10:52:01.319Z</time></trkpt><trkpt lat="45.7084763" lon="9.3812581"><ele>331.0</ele><time>2026-04-04T10:52:03.32Z</time></trkpt><trkpt lat="45.7083655" lon="9.3812835"><ele>332.4</ele><time>2026-04-04T10:52:05.32Z</time></trkpt><trkpt lat="45.7082722" lon="9.3813035"><ele>333.8</ele><time>2026-04-04T10:52:07.319Z</time></trkpt><trkpt lat="45.7081845" lon="9.381332"><ele>335.2</ele><time>2026-04-04T10:52:09.32Z</time></trkpt><trkpt lat="45.7080878" lon="9.38136"><ele>336.59999999999997</ele><time>2026-04-04T10:52:11.32Z</time></trkpt><trkpt lat="45.7079886" lon="9.3813754"><ele>338.0</ele><time>2026-04-04T10:52:13.32Z</time></trkpt><trkpt lat="45.7078683" lon="9.3814041"><ele>338.0</ele><time>2026-04-04T10:52:15.32Z</time></trkpt><trkpt lat="45.7077878" lon="9.3814"><ele>338.0</ele><time>2026-04-04T10:52:17.32Z</time></trkpt><trkpt lat="45.707701" lon="9.3814038"><ele>338.0</ele><time>2026-04-04T10:52:19.32Z</time></trkpt><trkpt lat="45.7076016" lon="9.3814223"><ele>338.0</ele><time>2026-04-04T10:52:21.32Z</time></trkpt><trkpt lat="45.7075383" lon="9.3814807"><ele>338.0</ele><time>2026-04-04T10:52:22.32Z</time></trkpt><trkpt lat="45.7074611" lon="9.3815307"><ele>338.0</ele><time>2026-04-04T10:52:24.32Z</time></trkpt><trkpt lat="45.7073743" lon="9.3815869"><ele>339.83333333333337</ele><time>2026-04-04T10:52:26.32Z</time></trkpt><trkpt lat="45.7073152" lon="9.3816457"><ele>341.6666666666667</ele><time>2026-04-04T10:52:28.32Z</time></trkpt><trkpt lat="45.7072571" lon="9.3816904"><ele>343.5</ele><time>2026-04-04T10:52:30.319Z</time></trkpt><trkpt lat="45.7071793" lon="9.3817429"><ele>345.3333333333333</ele><time>2026-04-04T10:52:33.32Z</time></trkpt><trkpt lat="45.7070921" lon="9.3817747"><ele>347.16666666666663</ele><time>2026-04-04T10:52:36.32Z</time></trkpt><trkpt lat="45.7070227" lon="9.3818012"><ele>349.0</ele><time>2026-04-04T10:52:38.32Z</time></trkpt><trkpt lat="45.7069457" lon="9.3818095"><ele>351.0</ele><time>2026-04-04T10:52:41.32Z</time></trkpt><trkpt lat="45.7068745" lon="9.3818186"><ele>353.0</ele><time>2026-04-04T10:52:44.319Z</time></trkpt><trkpt lat="45.7068136" lon="9.3818606"><ele>355.0</ele><time>2026-04-04T10:52:46.32Z</time></trkpt><trkpt lat="45.7067341" lon="9.3818996"><ele>357.0</ele><time>2026-04-04T10:52:49.32Z</time></trkpt><trkpt lat="45.7066642" lon="9.381942"><ele>359.0</ele><time>2026-04-04T10:52:52.319Z</time></trkpt><trkpt lat="45.7066049" lon="9.3819971"><ele>361.0</ele><time>2026-04-04T10:52:55.32Z</time></trkpt><trkpt lat="45.7065331" lon="9.3820588"><ele>361.0</ele><time>2026-04-04T10:52:58.32Z</time></trkpt><trkpt lat="45.7064873" lon="9.3821237"><ele>361.0</ele><time>2026-04-04T10:53:01.32Z</time></trkpt><trkpt lat="45.7064641" lon="9.3822139"><ele>361.0</ele><time>2026-04-04T10:53:04.32Z</time></trkpt><trkpt lat="45.706426" lon="9.3823286"><ele>361.0</ele><time>2026-04-04T10:53:08.32Z</time></trkpt><trkpt lat="45.706384" lon="9.3824255"><ele>361.0</ele><time>2026-04-04T10:53:12.32Z</time></trkpt><trkpt lat="45.7063402" lon="9.3825013"><ele>361.0</ele><time>2026-04-04T10:53:16.32Z</time></trkpt><trkpt lat="45.7062958" lon="9.3825728"><ele>361.0</ele><time>2026-04-04T10:53:20.319Z</time></trkpt><trkpt lat="45.7062443" lon="9.3826277"><ele>361.5</ele><time>2026-04-04T10:53:23.319Z</time></trkpt><trkpt lat="45.706185" lon="9.3827046"><ele>362.0</ele><time>2026-04-04T10:53:26.32Z</time></trkpt><trkpt lat="45.7061074" lon="9.3827747"><ele>362.5</ele><time>2026-04-04T10:53:29.32Z</time></trkpt><trkpt lat="45.7060234" lon="9.3828295"><ele>363.0</ele><time>2026-04-04T10:53:32.32Z</time></trkpt><trkpt lat="45.7059662" lon="9.3828873"><ele>363.5</ele><time>2026-04-04T10:53:35.32Z</time></trkpt><trkpt lat="45.7059135" lon="9.3829421"><ele>364.0</ele><time>2026-04-04T10:53:38.32Z</time></trkpt><trkpt lat="45.7058475" lon="9.3829951"><ele>364.0</ele><time>2026-04-04T10:53:42.32Z</time></trkpt><trkpt lat="45.7057729" lon="9.3830107"><ele>364.0</ele><time>2026-04-04T10:53:46.32Z</time></trkpt><trkpt lat="45.7057123" lon="9.3829567"><ele>364.0</ele><time>2026-04-04T10:53:50.32Z</time></trkpt><trkpt lat="45.7056531" lon="9.3828955"><ele>364.0</ele><time>2026-04-04T10:53:54.32Z</time></trkpt><trkpt lat="45.7055864" lon="9.3828618"><ele>364.0</ele><time>2026-04-04T10:53:58.32Z</time></trkpt><trkpt lat="45.7055219" lon="9.3828468"><ele>364.0</ele><time>2026-04-04T10:54:02.32Z</time></trkpt><trkpt lat="45.7054581" lon="9.3828364"><ele>364.0</ele><time>2026-04-04T10:54:06.319Z</time></trkpt><trkpt lat="45.7053911" lon="9.3827895"><ele>364.0</ele><time>2026-04-04T10:54:11.319Z</time></trkpt><trkpt lat="45.7053256" lon="9.3827443"><ele>364.0</ele><time>2026-04-04T10:54:16.32Z</time></trkpt><trkpt lat="45.7052606" lon="9.3827237"><ele>364.0</ele><time>2026-04-04T10:54:20.32Z</time></trkpt><trkpt lat="45.7052185" lon="9.3826352"><ele>364.0</ele><time>2026-04-04T10:54:25.319Z</time></trkpt><trkpt lat="45.7052196" lon="9.3825314"><ele>364.0</ele><time>2026-04-04T10:54:29.32Z</time></trkpt><trkpt lat="45.705234" lon="9.382434"><ele>364.0</ele><time>2026-04-04T10:54:33.32Z</time></trkpt><trkpt lat="45.7052514" lon="9.3823416"><ele>364.0</ele><time>2026-04-04T10:54:37.319Z</time></trkpt><trkpt lat="45.7052677" lon="9.3822368"><ele>365.7142857142857</ele><time>2026-04-04T10:54:42.319Z</time></trkpt><trkpt lat="45.7052802" lon="9.3821437"><ele>367.42857142857144</ele><time>2026-04-04T10:54:46.32Z</time></trkpt><trkpt lat="45.7052986" lon="9.3820542"><ele>369.1428571428571</ele><time>2026-04-04T10:54:50.32Z</time></trkpt><trkpt lat="45.7053155" lon="9.3819653"><ele>370.8571428571429</ele><time>2026-04-04T10:54:54.32Z</time></trkpt><trkpt lat="45.7053289" lon="9.3818737"><ele>372.57142857142856</ele><time>2026-04-04T10:54:58.32Z</time></trkpt><trkpt lat="45.7053537" lon="9.3817707"><ele>374.2857142857143</ele><time>2026-04-04T10:55:03.32Z</time></trkpt><trkpt lat="45.7053805" lon="9.381682"><ele>376.0</ele><time>2026-04-04T10:55:08.32Z</time></trkpt><trkpt lat="45.7053966" lon="9.3815882"><ele>376.0</ele><time>2026-04-04T10:55:12.319Z</time></trkpt><trkpt lat="45.7054118" lon="9.3814896"><ele>376.0</ele><time>2026-04-04T10:55:16.32Z</time></trkpt><trkpt lat="45.7054215" lon="9.3813955"><ele>376.0</ele><time>2026-04-04T10:55:20.32Z</time></trkpt><trkpt lat="45.705431" lon="9.381301"><ele>376.0</ele><time>2026-04-04T10:55:24.319Z</time></trkpt><trkpt lat="45.7054386" lon="9.3812096"><ele>376.0</ele><time>2026-04-04T10:55:28.32Z</time></trkpt><trkpt lat="45.7054643" lon="9.3811035"><ele>376.0</ele><time>2026-04-04T10:55:33.32Z</time></trkpt><trkpt lat="45.7055001" lon="9.3810043"><ele>376.0</ele><time>2026-04-04T10:55:38.319Z</time></trkpt><trkpt lat="45.7055231" lon="9.3809023"><ele>378.2857142857143</ele><time>2026-04-04T10:55:43.319Z</time></trkpt><trkpt lat="45.7055465" lon="9.3807992"><ele>380.57142857142856</ele><time>2026-04-04T10:55:48.319Z</time></trkpt><trkpt lat="45.7055659" lon="9.3806987"><ele>382.8571428571429</ele><time>2026-04-04T10:55:53.32Z</time></trkpt><trkpt lat="45.7055858" lon="9.3806125"><ele>385.1428571428571</ele><time>2026-04-04T10:55:57.32Z</time></trkpt><trkpt lat="45.7056095" lon="9.3805124"><ele>387.42857142857144</ele><time>2026-04-04T10:56:02.32Z</time></trkpt><trkpt lat="45.7056277" lon="9.380418"><ele>389.7142857142857</ele><time>2026-04-04T10:56:07.32Z</time></trkpt><trkpt lat="45.7056611" lon="9.3803223"><ele>392.0</ele><time>2026-04-04T10:56:12.32Z</time></trkpt><trkpt lat="45.705697" lon="9.3802411"><ele>391.85714285714283</ele><time>2026-04-04T10:56:16.319Z</time></trkpt><trkpt lat="45.7057326" lon="9.3801639"><ele>391.7142857142857</ele><time>2026-04-04T10:56:20.32Z</time></trkpt><trkpt lat="45.7057803" lon="9.3800959"><ele>391.57142857142856</ele><time>2026-04-04T10:56:24.32Z</time></trkpt><trkpt lat="45.7058416" lon="9.380023"><ele>391.42857142857144</ele><time>2026-04-04T10:56:29.32Z</time></trkpt><trkpt lat="45.7058982" lon="9.3799605"><ele>391.2857142857143</ele><time>2026-04-04T10:56:33.32Z</time></trkpt><trkpt lat="45.7059659" lon="9.3799035"><ele>391.1428571428571</ele><time>2026-04-04T10:56:37.32Z</time></trkpt><trkpt lat="45.7060315" lon="9.3798409"><ele>391.0</ele><time>2026-04-04T10:56:41.32Z</time></trkpt><trkpt lat="45.706106" lon="9.3797839"><ele>391.00000000000006</ele><time>2026-04-04T10:56:45.32Z</time></trkpt><trkpt lat="45.7061632" lon="9.3797285"><ele>391.0</ele><time>2026-04-04T10:56:48.32Z</time></trkpt><trkpt lat="45.7062179" lon="9.37965"><ele>391.0</ele><time>2026-04-04T10:56:51.319Z</time></trkpt><trkpt lat="45.706274" lon="9.3795865"><ele>391.0</ele><time>2026-04-04T10:56:54.32Z</time></trkpt><trkpt lat="45.7063405" lon="9.3795211"><ele>391.00000000000006</ele><time>2026-04-04T10:56:57.32Z</time></trkpt><trkpt lat="45.7064097" lon="9.3794485"><ele>391.0</ele><time>2026-04-04T10:57:00.32Z</time></trkpt><trkpt lat="45.7064753" lon="9.3793825"><ele>393.1428571428571</ele><time>2026-04-04T10:57:03.32Z</time></trkpt><trkpt lat="45.7065306" lon="9.3793188"><ele>395.2857142857143</ele><time>2026-04-04T10:57:06.32Z</time></trkpt><trkpt lat="45.7065868" lon="9.3792647"><ele>397.42857142857144</ele><time>2026-04-04T10:57:09.32Z</time></trkpt><trkpt lat="45.7066554" lon="9.3792101"><ele>399.57142857142856</ele><time>2026-04-04T10:57:13.32Z</time></trkpt><trkpt lat="45.7067307" lon="9.3791631"><ele>401.7142857142857</ele><time>2026-04-04T10:57:17.32Z</time></trkpt><trkpt lat="45.7067905" lon="9.3791172"><ele>403.85714285714283</ele><time>2026-04-04T10:57:20.32Z</time></trkpt><trkpt lat="45.7068568" lon="9.37907"><ele>406.0</ele><time>2026-04-04T10:57:23.32Z</time></trkpt><trkpt lat="45.7069206" lon="9.3790274"><ele>406.00000000000006</ele><time>2026-04-04T10:57:26.32Z</time></trkpt><trkpt lat="45.706982" lon="9.3789869"><ele>406.0</ele><time>2026-04-04T10:57:29.319Z</time></trkpt><trkpt lat="45.7070698" lon="9.3789416"><ele>406.0</ele><time>2026-04-04T10:57:32.32Z</time></trkpt><trkpt lat="45.7071325" lon="9.3788802"><ele>406.0</ele><time>2026-04-04T10:57:35.32Z</time></trkpt><trkpt lat="45.707177" lon="9.3788085"><ele>406.00000000000006</ele><time>2026-04-04T10:57:38.32Z</time></trkpt><trkpt lat="45.7072239" lon="9.3787343"><ele>406.0</ele><time>2026-04-04T10:57:41.319Z</time></trkpt><trkpt lat="45.7072414" lon="9.3786251"><ele>406.14285714285717</ele><time>2026-04-04T10:57:45.319Z</time></trkpt><trkpt lat="45.7072319" lon="9.3785214"><ele>406.2857142857143</ele><time>2026-04-04T10:57:49.32Z</time></trkpt><trkpt lat="45.7072063" lon="9.3784173"><ele>406.42857142857144</ele><time>2026-04-04T10:57:53.32Z</time></trkpt><trkpt lat="45.7071695" lon="9.3783296"><ele>406.57142857142856</ele><time>2026-04-04T10:57:57.32Z</time></trkpt><trkpt lat="45.7071231" lon="9.37826"><ele>406.7142857142857</ele><time>2026-04-04T10:58:01.32Z</time></trkpt><trkpt lat="45.7070871" lon="9.3781699"><ele>406.8571428571429</ele><time>2026-04-04T10:58:05.32Z</time></trkpt><trkpt lat="45.7070444" lon="9.3780768"><ele>407.0</ele><time>2026-04-04T10:58:09.32Z</time></trkpt><trkpt lat="45.7070065" lon="9.3779725"><ele>406.49999999999994</ele><time>2026-04-04T10:58:13.32Z</time></trkpt><trkpt lat="45.706968" lon="9.3778738"><ele>406.0</ele><time>2026-04-04T10:58:17.32Z</time></trkpt><trkpt lat="45.7069411" lon="9.3777681"><ele>405.5</ele><time>2026-04-04T10:58:21.32Z</time></trkpt><trkpt lat="45.7069143" lon="9.3776802"><ele>405.0</ele><time>2026-04-04T10:58:24.32Z</time></trkpt><trkpt lat="45.706891" lon="9.3775944"><ele>404.49999999999994</ele><time>2026-04-04T10:58:27.319Z</time></trkpt><trkpt lat="45.7068544" lon="9.3774916"><ele>404.0</ele><time>2026-04-04T10:58:31.32Z</time></trkpt><trkpt lat="45.7068195" lon="9.3773862"><ele>407.42857142857144</ele><time>2026-04-04T10:58:35.319Z</time></trkpt><trkpt lat="45.7067752" lon="9.3772852"><ele>410.85714285714283</ele><time>2026-04-04T10:58:39.32Z</time></trkpt><trkpt lat="45.7067455" lon="9.3772032"><ele>414.28571428571433</ele><time>2026-04-04T10:58:42.32Z</time></trkpt><trkpt lat="45.7066919" lon="9.3771149"><ele>417.7142857142857</ele><time>2026-04-04T10:58:46.32Z</time></trkpt><trkpt lat="45.706621" lon="9.3770541"><ele>421.14285714285717</ele><time>2026-04-04T10:58:50.32Z</time></trkpt><trkpt lat="45.7065652" lon="9.3770043"><ele>424.5714285714286</ele><time>2026-04-04T10:58:53.32Z</time></trkpt><trkpt lat="45.706509" lon="9.3769597"><ele>428.0</ele><time>2026-04-04T10:58:56.32Z</time></trkpt><trkpt lat="45.7064541" lon="9.3769086"><ele>428.00000000000006</ele><time>2026-04-04T10:59:00.32Z</time></trkpt><trkpt lat="45.7064021" lon="9.3768456"><ele>428.0</ele><time>2026-04-04T10:59:04.32Z</time></trkpt><trkpt lat="45.7063466" lon="9.3767645"><ele>428.0</ele><time>2026-04-04T10:59:09.32Z</time></trkpt><trkpt lat="45.7062968" lon="9.3766967"><ele>428.0</ele><time>2026-04-04T10:59:13.32Z</time></trkpt><trkpt lat="45.7062475" lon="9.3766176"><ele>428.0</ele><time>2026-04-04T10:59:17.32Z</time></trkpt><trkpt lat="45.7062046" lon="9.3765378"><ele>428.00000000000006</ele><time>2026-04-04T10:59:23.32Z</time></trkpt><trkpt lat="45.7061304" lon="9.3765172"><ele>428.0</ele><time>2026-04-04T10:59:27.32Z</time></trkpt><trkpt lat="45.7060726" lon="9.3764505"><ele>431.16666666666663</ele><time>2026-04-04T10:59:34.32Z</time></trkpt><trkpt lat="45.7060247" lon="9.3763611"><ele>434.3333333333333</ele><time>2026-04-04T10:59:38.319Z</time></trkpt><trkpt lat="45.7059758" lon="9.3762751"><ele>437.5</ele><time>2026-04-04T10:59:42.32Z</time></trkpt><trkpt lat="45.7059265" lon="9.3762049"><ele>440.66666666666663</ele><time>2026-04-04T10:59:45.32Z</time></trkpt><trkpt lat="45.7058953" lon="9.3761013"><ele>443.8333333333333</ele><time>2026-04-04T10:59:49.32Z</time></trkpt><trkpt lat="45.7058638" lon="9.3760193"><ele>447.0</ele><time>2026-04-04T10:59:53.32Z</time></trkpt><trkpt lat="45.7058036" lon="9.3759435"><ele>446.99999999999994</ele><time>2026-04-04T10:59:59.319Z</time></trkpt><trkpt lat="45.7057448" lon="9.3758787"><ele>447.0</ele><time>2026-04-04T11:00:02.32Z</time></trkpt><trkpt lat="45.7056902" lon="9.3758041"><ele>447.0</ele><time>2026-04-04T11:00:05.32Z</time></trkpt><trkpt lat="45.7056292" lon="9.3757543"><ele>447.0</ele><time>2026-04-04T11:00:35.32Z</time></trkpt><trkpt lat="45.7056708" lon="9.3756846"><ele>447.0</ele><time>2026-04-04T11:00:43.32Z</time></trkpt><trkpt lat="45.7056311" lon="9.3755985"><ele>446.99999999999994</ele><time>2026-04-04T11:00:45.32Z</time></trkpt><trkpt lat="45.7057091" lon="9.3755533"><ele>447.0</ele><time>2026-04-04T11:00:47.319Z</time></trkpt><trkpt lat="45.7057276" lon="9.3754606"><ele>447.0</ele><time>2026-04-04T11:00:50.32Z</time></trkpt><trkpt lat="45.705753" lon="9.3753737"><ele>447.0</ele><time>2026-04-04T11:00:55.319Z</time></trkpt><trkpt lat="45.7058023" lon="9.3752995"><ele>447.0</ele><time>2026-04-04T11:00:59.32Z</time></trkpt><trkpt lat="45.705791" lon="9.3752103"><ele>447.0</ele><time>2026-04-04T11:01:05.319Z</time></trkpt><trkpt lat="45.7058535" lon="9.3753275"><ele>447.0</ele><time>2026-04-04T11:02:09.319Z</time></trkpt><trkpt lat="45.705756" lon="9.3753314"><ele>447.0</ele><time>2026-04-04T11:03:04.319Z</time></trkpt><trkpt lat="45.7058214" lon="9.3751797"><ele>447.0</ele><time>2026-04-04T11:06:33.313Z</time></trkpt><trkpt lat="45.7058675" lon="9.3750965"><ele>447.0</ele><time>2026-04-04T11:07:06.313Z</time></trkpt><trkpt lat="45.7058909" lon="9.3749847"><ele>447.0</ele><time>2026-04-04T11:07:10.312Z</time></trkpt><trkpt lat="45.705909" lon="9.3748898"><ele>447.0</ele><time>2026-04-04T11:07:13.313Z</time></trkpt><trkpt lat="45.7059647" lon="9.3748026"><ele>447.0</ele><time>2026-04-04T11:07:16.313Z</time></trkpt><trkpt lat="45.706015" lon="9.3747175"><ele>447.0</ele><time>2026-04-04T11:07:19.313Z</time></trkpt><trkpt lat="45.7060714" lon="9.3746298"><ele>448.0</ele><time>2026-04-04T11:07:22.312Z</time></trkpt><trkpt lat="45.7061222" lon="9.3745449"><ele>449.0</ele><time>2026-04-04T11:07:25.312Z</time></trkpt><trkpt lat="45.7061685" lon="9.3744707"><ele>450.0</ele><time>2026-04-04T11:07:28.313Z</time></trkpt><trkpt lat="45.706195" lon="9.3743528"><ele>451.0</ele><time>2026-04-04T11:07:31.312Z</time></trkpt><trkpt lat="45.7062223" lon="9.3742662"><ele>452.00000000000006</ele><time>2026-04-04T11:07:34.313Z</time></trkpt><trkpt lat="45.7062548" lon="9.3741689"><ele>453.0</ele><time>2026-04-04T11:07:37.313Z</time></trkpt><trkpt lat="45.7062759" lon="9.3740762"><ele>454.0</ele><time>2026-04-04T11:07:40.313Z</time></trkpt><trkpt lat="45.7062984" lon="9.3739777"><ele>454.0</ele><time>2026-04-04T11:07:43.313Z</time></trkpt><trkpt lat="45.7063247" lon="9.3738773"><ele>454.00000000000006</ele><time>2026-04-04T11:07:46.313Z</time></trkpt><trkpt lat="45.7063602" lon="9.3737787"><ele>454.0</ele><time>2026-04-04T11:07:49.313Z</time></trkpt><trkpt lat="45.7063842" lon="9.3736889"><ele>454.0</ele><time>2026-04-04T11:07:52.312Z</time></trkpt><trkpt lat="45.7064147" lon="9.3735913"><ele>454.00000000000006</ele><time>2026-04-04T11:07:55.313Z</time></trkpt><trkpt lat="45.7064411" lon="9.3735081"><ele>454.0</ele><time>2026-04-04T11:07:58.313Z</time></trkpt><trkpt lat="45.7064857" lon="9.3734125"><ele>454.0</ele><time>2026-04-04T11:08:02.312Z</time></trkpt><trkpt lat="45.706519" lon="9.3732978"><ele>455.1666666666667</ele><time>2026-04-04T11:08:06.313Z</time></trkpt><trkpt lat="45.7065515" lon="9.3731685"><ele>456.33333333333337</ele><time>2026-04-04T11:08:09.312Z</time></trkpt><trkpt lat="45.7066136" lon="9.3730607"><ele>457.5</ele><time>2026-04-04T11:08:12.313Z</time></trkpt><trkpt lat="45.7066648" lon="9.3729928"><ele>458.66666666666663</ele><time>2026-04-04T11:08:14.312Z</time></trkpt><trkpt lat="45.7067469" lon="9.3729368"><ele>459.8333333333333</ele><time>2026-04-04T11:08:17.313Z</time></trkpt><trkpt lat="45.7068184" lon="9.3729037"><ele>461.0</ele><time>2026-04-04T11:08:19.313Z</time></trkpt><trkpt lat="45.7068817" lon="9.3728607"><ele>460.16666666666663</ele><time>2026-04-04T11:08:21.313Z</time></trkpt><trkpt lat="45.7069498" lon="9.3728206"><ele>459.3333333333333</ele><time>2026-04-04T11:08:23.313Z</time></trkpt><trkpt lat="45.7070253" lon="9.3727808"><ele>458.5</ele><time>2026-04-04T11:08:25.312Z</time></trkpt><trkpt lat="45.7071011" lon="9.37274"><ele>457.66666666666663</ele><time>2026-04-04T11:08:27.313Z</time></trkpt><trkpt lat="45.7071741" lon="9.3726849"><ele>456.8333333333333</ele><time>2026-04-04T11:08:29.313Z</time></trkpt><trkpt lat="45.7072589" lon="9.3726462"><ele>456.0</ele><time>2026-04-04T11:08:31.313Z</time></trkpt><trkpt lat="45.7073435" lon="9.372607"><ele>456.0</ele><time>2026-04-04T11:08:34.313Z</time></trkpt><trkpt lat="45.7074217" lon="9.3725654"><ele>456.0</ele><time>2026-04-04T11:08:37.313Z</time></trkpt><trkpt lat="45.7074541" lon="9.3724692"><ele>456.0</ele><time>2026-04-04T11:08:39.313Z</time></trkpt><trkpt lat="45.7074818" lon="9.3723532"><ele>456.0</ele><time>2026-04-04T11:08:41.313Z</time></trkpt><trkpt lat="45.7075083" lon="9.372229"><ele>456.0</ele><time>2026-04-04T11:08:43.313Z</time></trkpt><trkpt lat="45.7075248" lon="9.372114"><ele>456.0</ele><time>2026-04-04T11:08:45.313Z</time></trkpt><trkpt lat="45.7075412" lon="9.3719842"><ele>456.20000000000005</ele><time>2026-04-04T11:08:47.313Z</time></trkpt><trkpt lat="45.7075534" lon="9.3718399"><ele>456.40000000000003</ele><time>2026-04-04T11:08:49.313Z</time></trkpt><trkpt lat="45.7075531" lon="9.3716761"><ele>456.6</ele><time>2026-04-04T11:08:51.313Z</time></trkpt><trkpt lat="45.7075467" lon="9.3715214"><ele>456.8</ele><time>2026-04-04T11:08:53.313Z</time></trkpt><trkpt lat="45.7075316" lon="9.3713606"><ele>457.0</ele><time>2026-04-04T11:08:55.313Z</time></trkpt><trkpt lat="45.7075513" lon="9.3711461"><ele>456.40000000000003</ele><time>2026-04-04T11:08:57.312Z</time></trkpt><trkpt lat="45.7075772" lon="9.3710384"><ele>455.80000000000007</ele><time>2026-04-04T11:08:58.313Z</time></trkpt><trkpt lat="45.707611" lon="9.3708834"><ele>455.2</ele><time>2026-04-04T11:09:00.313Z</time></trkpt><trkpt lat="45.707661" lon="9.3707154"><ele>454.6</ele><time>2026-04-04T11:09:02.313Z</time></trkpt><trkpt lat="45.7077126" lon="9.3705692"><ele>454.0</ele><time>2026-04-04T11:09:04.312Z</time></trkpt><trkpt lat="45.7077635" lon="9.3704412"><ele>454.0</ele><time>2026-04-04T11:09:06.313Z</time></trkpt><trkpt lat="45.7078167" lon="9.3703162"><ele>454.0</ele><time>2026-04-04T11:09:08.312Z</time></trkpt><trkpt lat="45.7078627" lon="9.3701934"><ele>454.0</ele><time>2026-04-04T11:09:10.313Z</time></trkpt><trkpt lat="45.7079107" lon="9.3700784"><ele>454.0</ele><time>2026-04-04T11:09:12.312Z</time></trkpt><trkpt lat="45.7079642" lon="9.3699753"><ele>454.0</ele><time>2026-04-04T11:09:14.312Z</time></trkpt><trkpt lat="45.708001" lon="9.3698855"><ele>454.0</ele><time>2026-04-04T11:09:16.313Z</time></trkpt><trkpt lat="45.7080403" lon="9.3698085"><ele>454.00000000000006</ele><time>2026-04-04T11:09:18.312Z</time></trkpt><trkpt lat="45.7080818" lon="9.3697368"><ele>454.0</ele><time>2026-04-04T11:09:20.313Z</time></trkpt><trkpt lat="45.708146" lon="9.3696488"><ele>454.0</ele><time>2026-04-04T11:09:23.312Z</time></trkpt><trkpt lat="45.7081985" lon="9.3695438"><ele>454.00000000000006</ele><time>2026-04-04T11:09:26.313Z</time></trkpt><trkpt lat="45.7082341" lon="9.3694533"><ele>454.0</ele><time>2026-04-04T11:09:29.313Z</time></trkpt><trkpt lat="45.708263" lon="9.3693702"><ele>454.0</ele><time>2026-04-04T11:09:33.313Z</time></trkpt><trkpt lat="45.7083193" lon="9.3693226"><ele>455.50000000000006</ele><time>2026-04-04T11:09:37.313Z</time></trkpt><trkpt lat="45.708379" lon="9.3692255"><ele>457.0</ele><time>2026-04-04T11:09:40.313Z</time></trkpt><trkpt lat="45.7084066" lon="9.369144"><ele>458.5</ele><time>2026-04-04T11:09:42.312Z</time></trkpt><trkpt lat="45.7084444" lon="9.3690499"><ele>460.0</ele><time>2026-04-04T11:09:45.313Z</time></trkpt><trkpt lat="45.7084782" lon="9.3689598"><ele>461.50000000000006</ele><time>2026-04-04T11:09:48.313Z</time></trkpt><trkpt lat="45.7085109" lon="9.3688529"><ele>463.0</ele><time>2026-04-04T11:09:52.313Z</time></trkpt><trkpt lat="45.7085455" lon="9.3687485"><ele>463.2857142857143</ele><time>2026-04-04T11:09:56.313Z</time></trkpt><trkpt lat="45.7085742" lon="9.368659"><ele>463.57142857142856</ele><time>2026-04-04T11:09:59.313Z</time></trkpt><trkpt lat="45.7085916" lon="9.3685671"><ele>463.85714285714283</ele><time>2026-04-04T11:10:02.313Z</time></trkpt><trkpt lat="45.7086078" lon="9.3684764"><ele>464.1428571428571</ele><time>2026-04-04T11:10:05.313Z</time></trkpt><trkpt lat="45.7086426" lon="9.368392"><ele>464.42857142857144</ele><time>2026-04-04T11:10:09.313Z</time></trkpt><trkpt lat="45.7086596" lon="9.3682841"><ele>464.71428571428567</ele><time>2026-04-04T11:10:13.313Z</time></trkpt><trkpt lat="45.7086668" lon="9.3681716"><ele>465.0</ele><time>2026-04-04T11:10:17.313Z</time></trkpt><trkpt lat="45.708697" lon="9.3680677"><ele>466.5</ele><time>2026-04-04T11:10:21.313Z</time></trkpt><trkpt lat="45.7087616" lon="9.3679744"><ele>468.0</ele><time>2026-04-04T11:10:27.313Z</time></trkpt><trkpt lat="45.7088016" lon="9.3678561"><ele>469.5</ele><time>2026-04-04T11:10:30.312Z</time></trkpt><trkpt lat="45.7088234" lon="9.3677667"><ele>471.0</ele><time>2026-04-04T11:10:32.344Z</time></trkpt><trkpt lat="45.7088499" lon="9.3676735"><ele>472.5</ele><time>2026-04-04T11:10:34.312Z</time></trkpt><trkpt lat="45.7088953" lon="9.3675578"><ele>474.0</ele><time>2026-04-04T11:10:37.312Z</time></trkpt><trkpt lat="45.7089279" lon="9.3674372"><ele>474.0</ele><time>2026-04-04T11:10:40.313Z</time></trkpt><trkpt lat="45.7089792" lon="9.3673106"><ele>474.0</ele><time>2026-04-04T11:10:43.313Z</time></trkpt><trkpt lat="45.709017" lon="9.3671926"><ele>474.0</ele><time>2026-04-04T11:10:46.313Z</time></trkpt><trkpt lat="45.7090522" lon="9.3670563"><ele>474.0</ele><time>2026-04-04T11:10:49.313Z</time></trkpt><trkpt lat="45.7090902" lon="9.3669511"><ele>474.0</ele><time>2026-04-04T11:10:51.313Z</time></trkpt><trkpt lat="45.7091207" lon="9.3668476"><ele>473.6666666666667</ele><time>2026-04-04T11:10:53.313Z</time></trkpt><trkpt lat="45.7091361" lon="9.3667399"><ele>473.33333333333337</ele><time>2026-04-04T11:10:55.313Z</time></trkpt><trkpt lat="45.7091617" lon="9.3666223"><ele>473.0</ele><time>2026-04-04T11:10:57.312Z</time></trkpt><trkpt lat="45.7091914" lon="9.3665087"><ele>472.6666666666667</ele><time>2026-04-04T11:10:59.313Z</time></trkpt><trkpt lat="45.709219" lon="9.3664092"><ele>472.33333333333337</ele><time>2026-04-04T11:11:01.312Z</time></trkpt><trkpt lat="45.7092551" lon="9.3663185"><ele>472.0</ele><time>2026-04-04T11:11:03.313Z</time></trkpt><trkpt lat="45.7092906" lon="9.3662303"><ele>472.6666666666667</ele><time>2026-04-04T11:11:05.313Z</time></trkpt><trkpt lat="45.7093332" lon="9.366141"><ele>473.33333333333337</ele><time>2026-04-04T11:11:07.312Z</time></trkpt><trkpt lat="45.7093816" lon="9.366062"><ele>474.0</ele><time>2026-04-04T11:11:09.313Z</time></trkpt><trkpt lat="45.7094365" lon="9.3659745"><ele>474.66666666666663</ele><time>2026-04-04T11:11:11.313Z</time></trkpt><trkpt lat="45.7094908" lon="9.3658635"><ele>475.3333333333333</ele><time>2026-04-04T11:11:13.312Z</time></trkpt><trkpt lat="45.7095313" lon="9.3657444"><ele>476.0</ele><time>2026-04-04T11:11:15.313Z</time></trkpt><trkpt lat="45.7095618" lon="9.3656217"><ele>474.6</ele><time>2026-04-04T11:11:17.312Z</time></trkpt><trkpt lat="45.7095753" lon="9.3654966"><ele>473.20000000000005</ele><time>2026-04-04T11:11:19.313Z</time></trkpt><trkpt lat="45.7095788" lon="9.3653648"><ele>471.79999999999995</ele><time>2026-04-04T11:11:21.313Z</time></trkpt><trkpt lat="45.7095914" lon="9.3652209"><ele>470.4</ele><time>2026-04-04T11:11:23.313Z</time></trkpt><trkpt lat="45.7096209" lon="9.3650852"><ele>469.0</ele><time>2026-04-04T11:11:25.313Z</time></trkpt><trkpt lat="45.7096562" lon="9.3649576"><ele>469.00000000000006</ele><time>2026-04-04T11:11:27.313Z</time></trkpt><trkpt lat="45.7096937" lon="9.3648316"><ele>469.0</ele><time>2026-04-04T11:11:29.312Z</time></trkpt><trkpt lat="45.7097402" lon="9.3647318"><ele>469.0</ele><time>2026-04-04T11:11:31.312Z</time></trkpt><trkpt lat="45.7097755" lon="9.3646316"><ele>469.0</ele><time>2026-04-04T11:11:33.313Z</time></trkpt><trkpt lat="45.7098057" lon="9.3645271"><ele>469.00000000000006</ele><time>2026-04-04T11:11:35.312Z</time></trkpt><trkpt lat="45.7098318" lon="9.3644117"><ele>469.0</ele><time>2026-04-04T11:11:37.313Z</time></trkpt><trkpt lat="45.7098558" lon="9.3642971"><ele>469.79999999999995</ele><time>2026-04-04T11:11:39.313Z</time></trkpt><trkpt lat="45.7098768" lon="9.3641796"><ele>470.59999999999997</ele><time>2026-04-04T11:11:41.312Z</time></trkpt><trkpt lat="45.709891" lon="9.3640711"><ele>471.4</ele><time>2026-04-04T11:11:43.313Z</time></trkpt><trkpt lat="45.7099099" lon="9.3639569"><ele>472.2</ele><time>2026-04-04T11:11:45.313Z</time></trkpt><trkpt lat="45.7099455" lon="9.3638341"><ele>473.0</ele><time>2026-04-04T11:11:47.313Z</time></trkpt><trkpt lat="45.7099895" lon="9.3636699"><ele>473.2</ele><time>2026-04-04T11:11:49.312Z</time></trkpt><trkpt lat="45.7100172" lon="9.3635796"><ele>473.4</ele><time>2026-04-04T11:11:50.313Z</time></trkpt><trkpt lat="45.7100692" lon="9.3634279"><ele>473.59999999999997</ele><time>2026-04-04T11:11:52.313Z</time></trkpt><trkpt lat="45.7101142" lon="9.3632925"><ele>473.79999999999995</ele><time>2026-04-04T11:11:54.313Z</time></trkpt><trkpt lat="45.7101492" lon="9.3631616"><ele>474.0</ele><time>2026-04-04T11:11:56.313Z</time></trkpt><trkpt lat="45.7101964" lon="9.3630448"><ele>474.8333333333333</ele><time>2026-04-04T11:11:58.312Z</time></trkpt><trkpt lat="45.7102422" lon="9.3629524"><ele>475.66666666666663</ele><time>2026-04-04T11:12:00.312Z</time></trkpt><trkpt lat="45.7103045" lon="9.3628702"><ele>476.5</ele><time>2026-04-04T11:12:02.313Z</time></trkpt><trkpt lat="45.7103746" lon="9.3628083"><ele>477.3333333333333</ele><time>2026-04-04T11:12:04.313Z</time></trkpt><trkpt lat="45.7104494" lon="9.3627572"><ele>478.16666666666663</ele><time>2026-04-04T11:12:06.312Z</time></trkpt><trkpt lat="45.7105128" lon="9.362699"><ele>479.0</ele><time>2026-04-04T11:12:08.313Z</time></trkpt><trkpt lat="45.7105772" lon="9.3626378"><ele>479.0</ele><time>2026-04-04T11:12:10.313Z</time></trkpt><trkpt lat="45.7106365" lon="9.3625799"><ele>479.0</ele><time>2026-04-04T11:12:12.313Z</time></trkpt><trkpt lat="45.7106924" lon="9.3625127"><ele>479.0</ele><time>2026-04-04T11:12:14.313Z</time></trkpt><trkpt lat="45.7107459" lon="9.3624417"><ele>479.0</ele><time>2026-04-04T11:12:16.312Z</time></trkpt><trkpt lat="45.7107923" lon="9.3623711"><ele>479.0</ele><time>2026-04-04T11:12:18.313Z</time></trkpt><trkpt lat="45.71084" lon="9.362298"><ele>479.0</ele><time>2026-04-04T11:12:20.312Z</time></trkpt><trkpt lat="45.710896" lon="9.3622203"><ele>479.0</ele><time>2026-04-04T11:12:22.313Z</time></trkpt><trkpt lat="45.7109722" lon="9.3621476"><ele>476.5</ele><time>2026-04-04T11:12:24.313Z</time></trkpt><trkpt lat="45.7110464" lon="9.3620826"><ele>474.0</ele><time>2026-04-04T11:12:26.313Z</time></trkpt><trkpt lat="45.7101142" lon="9.3632925"><ele>474.0</ele><time>2026-04-04T11:11:54.313Z</time></trkpt><trkpt lat="45.7101492" lon="9.3631616"><ele>474.0</ele><time>2026-04-04T11:11:56.313Z</time></trkpt><trkpt lat="45.7101964" lon="9.3630448"><ele>474.0</ele><time>2026-04-04T11:11:58.312Z</time></trkpt><trkpt lat="45.7102422" lon="9.3629524"><ele>474.0</ele><time>2026-04-04T11:12:00.312Z</time></trkpt><trkpt lat="45.7103045" lon="9.3628702"><ele>474.0</ele><time>2026-04-04T11:12:02.313Z</time></trkpt><trkpt lat="45.7103746" lon="9.3628083"><ele>474.0</ele><time>2026-04-04T11:12:04.313Z</time></trkpt><trkpt lat="45.7104494" lon="9.3627572"><ele>474.71428571428567</ele><time>2026-04-04T11:12:06.312Z</time></trkpt><trkpt lat="45.7105128" lon="9.362699"><ele>475.42857142857144</ele><time>2026-04-04T11:12:08.313Z</time></trkpt><trkpt lat="45.7105772" lon="9.3626378"><ele>476.1428571428571</ele><time>2026-04-04T11:12:10.313Z</time></trkpt><trkpt lat="45.7106365" lon="9.3625799"><ele>476.85714285714283</ele><time>2026-04-04T11:12:12.313Z</time></trkpt><trkpt lat="45.7106924" lon="9.3625127"><ele>477.57142857142856</ele><time>2026-04-04T11:12:14.313Z</time></trkpt><trkpt lat="45.7107459" lon="9.3624417"><ele>478.2857142857143</ele><time>2026-04-04T11:12:16.312Z</time></trkpt><trkpt lat="45.7107923" lon="9.3623711"><ele>479.0</ele><time>2026-04-04T11:12:18.313Z</time></trkpt><trkpt lat="45.71084" lon="9.362298"><ele>478.99999999999994</ele><time>2026-04-04T11:12:20.312Z</time></trkpt><trkpt lat="45.710896" lon="9.3622203"><ele>479.0</ele><time>2026-04-04T11:12:22.313Z</time></trkpt><trkpt lat="45.7109722" lon="9.3621476"><ele>479.0</ele><time>2026-04-04T11:12:24.313Z</time></trkpt><trkpt lat="45.7110464" lon="9.3620826"><ele>479.0</ele><time>2026-04-04T11:12:26.313Z</time></trkpt><trkpt lat="45.7111129" lon="9.3620262"><ele>478.99999999999994</ele><time>2026-04-04T11:12:28.313Z</time></trkpt><trkpt lat="45.711184" lon="9.3619745"><ele>479.0</ele><time>2026-04-04T11:12:30.313Z</time></trkpt><trkpt lat="45.711259" lon="9.3619174"><ele>480.8333333333333</ele><time>2026-04-04T11:12:32.313Z</time></trkpt><trkpt lat="45.7113122" lon="9.3618656"><ele>482.66666666666663</ele><time>2026-04-04T11:12:34.313Z</time></trkpt><trkpt lat="45.7113796" lon="9.3618054"><ele>484.5</ele><time>2026-04-04T11:12:36.312Z</time></trkpt><trkpt lat="45.7114564" lon="9.3617416"><ele>486.33333333333337</ele><time>2026-04-04T11:12:38.313Z</time></trkpt><trkpt lat="45.7115346" lon="9.3616748"><ele>488.1666666666667</ele><time>2026-04-04T11:12:40.313Z</time></trkpt><trkpt lat="45.7116089" lon="9.3616091"><ele>490.0</ele><time>2026-04-04T11:12:42.313Z</time></trkpt><trkpt lat="45.7116826" lon="9.3615432"><ele>490.0</ele><time>2026-04-04T11:12:44.313Z</time></trkpt><trkpt lat="45.711764" lon="9.3614896"><ele>490.0</ele><time>2026-04-04T11:12:46.313Z</time></trkpt><trkpt lat="45.7118542" lon="9.3614323"><ele>490.0</ele><time>2026-04-04T11:12:48.312Z</time></trkpt><trkpt lat="45.7119354" lon="9.3613561"><ele>490.0</ele><time>2026-04-04T11:12:50.312Z</time></trkpt><trkpt lat="45.7120072" lon="9.3612668"><ele>490.0</ele><time>2026-04-04T11:12:52.313Z</time></trkpt><trkpt lat="45.712083" lon="9.361163"><ele>490.2</ele><time>2026-04-04T11:12:54.313Z</time></trkpt><trkpt lat="45.7121564" lon="9.3610541"><ele>490.4</ele><time>2026-04-04T11:12:56.312Z</time></trkpt><trkpt lat="45.7122221" lon="9.3609298"><ele>490.6</ele><time>2026-04-04T11:12:58.313Z</time></trkpt><trkpt lat="45.7122923" lon="9.360808"><ele>490.8</ele><time>2026-04-04T11:13:00.313Z</time></trkpt><trkpt lat="45.7123443" lon="9.3606741"><ele>491.0</ele><time>2026-04-04T11:13:02.313Z</time></trkpt><trkpt lat="45.7123738" lon="9.3605285"><ele>490.0</ele><time>2026-04-04T11:13:04.313Z</time></trkpt><trkpt lat="45.7124025" lon="9.3603764"><ele>489.0</ele><time>2026-04-04T11:13:06.313Z</time></trkpt><trkpt lat="45.7125409" lon="9.3600634"><ele>488.0</ele><time>2026-04-04T11:13:08.312Z</time></trkpt><trkpt lat="45.712576" lon="9.3599533"><ele>487.99999999999994</ele><time>2026-04-04T11:13:09.313Z</time></trkpt><trkpt lat="45.7125778" lon="9.3598381"><ele>488.0</ele><time>2026-04-04T11:13:10.313Z</time></trkpt><trkpt lat="45.7125866" lon="9.3597397"><ele>488.0</ele><time>2026-04-04T11:13:11.312Z</time></trkpt><trkpt lat="45.7125982" lon="9.3596306"><ele>488.0</ele><time>2026-04-04T11:13:12.312Z</time></trkpt><trkpt lat="45.7126092" lon="9.3595121"><ele>487.99999999999994</ele><time>2026-04-04T11:13:13.313Z</time></trkpt><trkpt lat="45.7126215" lon="9.3594004"><ele>488.0</ele><time>2026-04-04T11:13:14.312Z</time></trkpt><trkpt lat="45.7126293" lon="9.3592769"><ele>487.66666666666663</ele><time>2026-04-04T11:13:15.312Z</time></trkpt><trkpt lat="45.7126483" lon="9.3591541"><ele>487.3333333333333</ele><time>2026-04-04T11:13:16.313Z</time></trkpt><trkpt lat="45.7126571" lon="9.3590377"><ele>487.0</ele><time>2026-04-04T11:13:17.313Z</time></trkpt><trkpt lat="45.7126818" lon="9.3589236"><ele>486.66666666666663</ele><time>2026-04-04T11:13:18.313Z</time></trkpt><trkpt lat="45.7126913" lon="9.3588236"><ele>486.3333333333333</ele><time>2026-04-04T11:13:19.312Z</time></trkpt><trkpt lat="45.7127077" lon="9.3587159"><ele>486.0</ele><time>2026-04-04T11:13:20.313Z</time></trkpt><trkpt lat="45.7127168" lon="9.3586051"><ele>486.0</ele><time>2026-04-04T11:13:21.313Z</time></trkpt><trkpt lat="45.7127345" lon="9.3585058"><ele>486.0</ele><time>2026-04-04T11:13:22.312Z</time></trkpt><trkpt lat="45.7127434" lon="9.3584129"><ele>486.0</ele><time>2026-04-04T11:13:23.313Z</time></trkpt><trkpt lat="45.7127505" lon="9.3583139"><ele>486.0</ele><time>2026-04-04T11:13:24.312Z</time></trkpt><trkpt lat="45.7127725" lon="9.3581217"><ele>486.0</ele><time>2026-04-04T11:13:26.313Z</time></trkpt><trkpt lat="45.7127864" lon="9.357944"><ele>485.3333333333333</ele><time>2026-04-04T11:13:28.313Z</time></trkpt><trkpt lat="45.7127975" lon="9.3578504"><ele>484.66666666666663</ele><time>2026-04-04T11:13:29.313Z</time></trkpt><trkpt lat="45.7128082" lon="9.3576718"><ele>484.0</ele><time>2026-04-04T11:13:31.313Z</time></trkpt><trkpt lat="45.7128285" lon="9.3575762"><ele>483.3333333333333</ele><time>2026-04-04T11:13:32.312Z</time></trkpt><trkpt lat="45.7128467" lon="9.3574815"><ele>482.66666666666663</ele><time>2026-04-04T11:13:33.312Z</time></trkpt><trkpt lat="45.7128595" lon="9.3573918"><ele>482.0</ele><time>2026-04-04T11:13:34.312Z</time></trkpt><trkpt lat="45.7128886" lon="9.3571899"><ele>482.0</ele><time>2026-04-04T11:13:36.313Z</time></trkpt><trkpt lat="45.7129046" lon="9.3570274"><ele>482.00000000000006</ele><time>2026-04-04T11:13:38.313Z</time></trkpt><trkpt lat="45.7129166" lon="9.3568587"><ele>482.00000000000006</ele><time>2026-04-04T11:13:40.313Z</time></trkpt><trkpt lat="45.7129113" lon="9.3567061"><ele>482.0</ele><time>2026-04-04T11:13:42.313Z</time></trkpt><trkpt lat="45.7129196" lon="9.3565564"><ele>482.0</ele><time>2026-04-04T11:13:44.313Z</time></trkpt><trkpt lat="45.7129255" lon="9.3564064"><ele>483.5</ele><time>2026-04-04T11:13:46.313Z</time></trkpt><trkpt lat="45.7129367" lon="9.356262"><ele>485.0</ele><time>2026-04-04T11:13:48.313Z</time></trkpt><trkpt lat="45.7129532" lon="9.3560911"><ele>486.5</ele><time>2026-04-04T11:13:50.313Z</time></trkpt><trkpt lat="45.7129879" lon="9.3559533"><ele>488.0</ele><time>2026-04-04T11:13:52.313Z</time></trkpt><trkpt lat="45.7130429" lon="9.3557866"><ele>488.0</ele><time>2026-04-04T11:13:54.313Z</time></trkpt><trkpt lat="45.7130776" lon="9.3556878"><ele>487.99999999999994</ele><time>2026-04-04T11:13:55.313Z</time></trkpt><trkpt lat="45.7131466" lon="9.3555493"><ele>487.99999999999994</ele><time>2026-04-04T11:13:57.313Z</time></trkpt><trkpt lat="45.7132071" lon="9.3554254"><ele>488.0</ele><time>2026-04-04T11:13:59.313Z</time></trkpt><trkpt lat="45.7132847" lon="9.3553097"><ele>488.0</ele><time>2026-04-04T11:14:01.313Z</time></trkpt><trkpt lat="45.7133611" lon="9.3551975"><ele>488.2</ele><time>2026-04-04T11:14:03.313Z</time></trkpt><trkpt lat="45.7134321" lon="9.3550753"><ele>488.4</ele><time>2026-04-04T11:14:05.313Z</time></trkpt><trkpt lat="45.7134902" lon="9.3549655"><ele>488.59999999999997</ele><time>2026-04-04T11:14:07.312Z</time></trkpt><trkpt lat="45.7135415" lon="9.3548527"><ele>488.79999999999995</ele><time>2026-04-04T11:14:09.312Z</time></trkpt><trkpt lat="45.7135874" lon="9.3547197"><ele>489.0</ele><time>2026-04-04T11:14:11.312Z</time></trkpt><trkpt lat="45.7136205" lon="9.3545613"><ele>490.0</ele><time>2026-04-04T11:14:13.313Z</time></trkpt><trkpt lat="45.713637" lon="9.354473"><ele>491.0</ele><time>2026-04-04T11:14:14.313Z</time></trkpt><trkpt lat="45.7136412" lon="9.3543202"><ele>492.0</ele><time>2026-04-04T11:14:16.313Z</time></trkpt><trkpt lat="45.7136645" lon="9.3541695"><ele>493.0</ele><time>2026-04-04T11:14:18.313Z</time></trkpt><trkpt lat="45.7136897" lon="9.3540267"><ele>494.0</ele><time>2026-04-04T11:14:20.313Z</time></trkpt><trkpt lat="45.7137661" lon="9.3538881"><ele>494.0</ele><time>2026-04-04T11:14:22.313Z</time></trkpt><trkpt lat="45.7138633" lon="9.3537913"><ele>494.0</ele><time>2026-04-04T11:14:24.313Z</time></trkpt><trkpt lat="45.7139263" lon="9.3538035"><ele>494.0</ele><time>2026-04-04T11:14:25.313Z</time></trkpt><trkpt lat="45.7140238" lon="9.3538582"><ele>494.0</ele><time>2026-04-04T11:14:27.313Z</time></trkpt><trkpt lat="45.7141147" lon="9.3539355"><ele>494.0</ele><time>2026-04-04T11:14:29.313Z</time></trkpt><trkpt lat="45.7142089" lon="9.3540173"><ele>494.0</ele><time>2026-04-04T11:14:31.313Z</time></trkpt><trkpt lat="45.7142636" lon="9.3540712"><ele>494.0</ele><time>2026-04-04T11:14:32.313Z</time></trkpt><trkpt lat="45.7143279" lon="9.3541056"><ele>494.0</ele><time>2026-04-04T11:14:33.313Z</time></trkpt><trkpt lat="45.7143913" lon="9.3541318"><ele>494.0</ele><time>2026-04-04T11:14:34.313Z</time></trkpt><trkpt lat="45.7144499" lon="9.3541872"><ele>494.0</ele><time>2026-04-04T11:14:35.312Z</time></trkpt><trkpt lat="45.7145119" lon="9.3542131"><ele>494.0</ele><time>2026-04-04T11:14:36.313Z</time></trkpt><trkpt lat="45.7145701" lon="9.3542689"><ele>494.0</ele><time>2026-04-04T11:14:37.313Z</time></trkpt><trkpt lat="45.714664" lon="9.3543364"><ele>493.3333333333333</ele><time>2026-04-04T11:14:39.312Z</time></trkpt><trkpt lat="45.7147372" lon="9.3544151"><ele>492.66666666666663</ele><time>2026-04-04T11:14:40.313Z</time></trkpt><trkpt lat="45.7148118" lon="9.3544724"><ele>492.0</ele><time>2026-04-04T11:14:41.312Z</time></trkpt><trkpt lat="45.7148737" lon="9.3545269"><ele>491.33333333333337</ele><time>2026-04-04T11:14:42.313Z</time></trkpt><trkpt lat="45.7149532" lon="9.3546174"><ele>490.6666666666667</ele><time>2026-04-04T11:14:43.312Z</time></trkpt><trkpt lat="45.7150141" lon="9.3546688"><ele>490.0</ele><time>2026-04-04T11:14:44.313Z</time></trkpt><trkpt lat="45.7151305" lon="9.3547401"><ele>490.00000000000006</ele><time>2026-04-04T11:14:46.313Z</time></trkpt><trkpt lat="45.715207" lon="9.3547836"><ele>490.0</ele><time>2026-04-04T11:14:47.313Z</time></trkpt><trkpt lat="45.7152881" lon="9.3548336"><ele>490.0</ele><time>2026-04-04T11:14:48.313Z</time></trkpt><trkpt lat="45.7153599" lon="9.3548737"><ele>490.0</ele><time>2026-04-04T11:14:49.313Z</time></trkpt><trkpt lat="45.7154254" lon="9.3549289"><ele>490.00000000000006</ele><time>2026-04-04T11:14:50.313Z</time></trkpt><trkpt lat="45.715495" lon="9.3549605"><ele>490.0</ele><time>2026-04-04T11:14:51.313Z</time></trkpt><trkpt lat="45.715556" lon="9.3549976"><ele>487.4</ele><time>2026-04-04T11:14:52.312Z</time></trkpt><trkpt lat="45.7156197" lon="9.3550357"><ele>484.8</ele><time>2026-04-04T11:14:53.313Z</time></trkpt><trkpt lat="45.71571" lon="9.3551374"><ele>482.20000000000005</ele><time>2026-04-04T11:14:55.312Z</time></trkpt><trkpt lat="45.7157678" lon="9.3552299"><ele>479.6</ele><time>2026-04-04T11:14:57.313Z</time></trkpt><trkpt lat="45.7158493" lon="9.3552444"><ele>477.0</ele><time>2026-04-04T11:14:59.313Z</time></trkpt><trkpt lat="45.7159638" lon="9.3552829"><ele>475.5</ele><time>2026-04-04T11:15:01.313Z</time></trkpt><trkpt lat="45.7160921" lon="9.3553003"><ele>474.0</ele><time>2026-04-04T11:15:03.313Z</time></trkpt><trkpt lat="45.7161584" lon="9.355284"><ele>472.5</ele><time>2026-04-04T11:15:04.313Z</time></trkpt><trkpt lat="45.7162401" lon="9.3552931"><ele>471.0</ele><time>2026-04-04T11:15:05.313Z</time></trkpt><trkpt lat="45.7163239" lon="9.3553155"><ele>469.5</ele><time>2026-04-04T11:15:06.312Z</time></trkpt><trkpt lat="45.7163948" lon="9.3553169"><ele>468.0</ele><time>2026-04-04T11:15:07.313Z</time></trkpt><trkpt lat="45.7164606" lon="9.3553181"><ele>468.0</ele><time>2026-04-04T11:15:08.313Z</time></trkpt><trkpt lat="45.7165268" lon="9.3553305"><ele>467.99999999999994</ele><time>2026-04-04T11:15:09.312Z</time></trkpt><trkpt lat="45.7166469" lon="9.3553699"><ele>467.99999999999994</ele><time>2026-04-04T11:15:11.312Z</time></trkpt><trkpt lat="45.7167247" lon="9.3553901"><ele>468.0</ele><time>2026-04-04T11:15:12.312Z</time></trkpt><trkpt lat="45.7167942" lon="9.3554168"><ele>468.0</ele><time>2026-04-04T11:15:13.313Z</time></trkpt><trkpt lat="45.7169079" lon="9.3554607"><ele>468.8333333333333</ele><time>2026-04-04T11:15:15.313Z</time></trkpt><trkpt lat="45.7170131" lon="9.3554365"><ele>469.66666666666663</ele><time>2026-04-04T11:15:17.313Z</time></trkpt><trkpt lat="45.7171206" lon="9.3554247"><ele>470.5</ele><time>2026-04-04T11:15:19.313Z</time></trkpt><trkpt lat="45.7171812" lon="9.3553811"><ele>471.3333333333333</ele><time>2026-04-04T11:15:20.313Z</time></trkpt><trkpt lat="45.7172357" lon="9.3553295"><ele>472.16666666666663</ele><time>2026-04-04T11:15:21.312Z</time></trkpt><trkpt lat="45.7172914" lon="9.3552781"><ele>473.0</ele><time>2026-04-04T11:15:22.313Z</time></trkpt><trkpt lat="45.7173987" lon="9.3552276"><ele>473.0</ele><time>2026-04-04T11:15:24.313Z</time></trkpt><trkpt lat="45.7174841" lon="9.3551458"><ele>472.99999999999994</ele><time>2026-04-04T11:15:26.312Z</time></trkpt><trkpt lat="45.7175996" lon="9.3550716"><ele>472.99999999999994</ele><time>2026-04-04T11:15:28.312Z</time></trkpt><trkpt lat="45.7176706" lon="9.3550422"><ele>473.0</ele><time>2026-04-04T11:15:29.312Z</time></trkpt><trkpt lat="45.7177955" lon="9.3549558"><ele>473.0</ele><time>2026-04-04T11:15:31.312Z</time></trkpt><trkpt lat="45.7178882" lon="9.3549389"><ele>470.99999999999994</ele><time>2026-04-04T11:15:32.313Z</time></trkpt><trkpt lat="45.7179795" lon="9.354917"><ele>469.0</ele><time>2026-04-04T11:15:33.313Z</time></trkpt><trkpt lat="45.7180498" lon="9.3548874"><ele>467.0</ele><time>2026-04-04T11:15:34.313Z</time></trkpt><trkpt lat="45.7181145" lon="9.3548567"><ele>465.0</ele><time>2026-04-04T11:15:35.313Z</time></trkpt><trkpt lat="45.7182044" lon="9.3548492"><ele>462.99999999999994</ele><time>2026-04-04T11:15:36.312Z</time></trkpt><trkpt lat="45.7182696" lon="9.3548249"><ele>461.0</ele><time>2026-04-04T11:15:37.312Z</time></trkpt><trkpt lat="45.7183321" lon="9.3547976"><ele>461.0</ele><time>2026-04-04T11:15:38.313Z</time></trkpt><trkpt lat="45.718413" lon="9.354753"><ele>461.0</ele><time>2026-04-04T11:15:39.312Z</time></trkpt><trkpt lat="45.7185142" lon="9.3546859"><ele>461.0</ele><time>2026-04-04T11:15:41.313Z</time></trkpt><trkpt lat="45.7185843" lon="9.3546295"><ele>461.0</ele><time>2026-04-04T11:15:42.312Z</time></trkpt><trkpt lat="45.7186869" lon="9.3545241"><ele>461.0</ele><time>2026-04-04T11:15:44.313Z</time></trkpt><trkpt lat="45.7187601" lon="9.3544269"><ele>461.49999999999994</ele><time>2026-04-04T11:15:45.313Z</time></trkpt><trkpt lat="45.7188136" lon="9.3543736"><ele>462.0</ele><time>2026-04-04T11:15:46.313Z</time></trkpt><trkpt lat="45.7189207" lon="9.3542501"><ele>462.5</ele><time>2026-04-04T11:15:48.313Z</time></trkpt><trkpt lat="45.7189863" lon="9.3541873"><ele>463.0</ele><time>2026-04-04T11:15:49.313Z</time></trkpt><trkpt lat="45.719063" lon="9.3541219"><ele>463.49999999999994</ele><time>2026-04-04T11:15:50.313Z</time></trkpt><trkpt lat="45.7191256" lon="9.3540868"><ele>464.0</ele><time>2026-04-04T11:15:51.313Z</time></trkpt><trkpt lat="45.7191955" lon="9.3540381"><ele>463.99999999999994</ele><time>2026-04-04T11:15:52.313Z</time></trkpt><trkpt lat="45.7192595" lon="9.3539901"><ele>464.0</ele><time>2026-04-04T11:15:53.313Z</time></trkpt><trkpt lat="45.7193562" lon="9.3540018"><ele>464.0</ele><time>2026-04-04T11:15:54.313Z</time></trkpt><trkpt lat="45.7194556" lon="9.3539647"><ele>464.0</ele><time>2026-04-04T11:15:55.313Z</time></trkpt><trkpt lat="45.7195337" lon="9.3539245"><ele>463.99999999999994</ele><time>2026-04-04T11:15:56.313Z</time></trkpt><trkpt lat="45.7196248" lon="9.3539266"><ele>464.0</ele><time>2026-04-04T11:15:57.313Z</time></trkpt><trkpt lat="45.7196937" lon="9.3538997"><ele>463.3333333333333</ele><time>2026-04-04T11:15:58.313Z</time></trkpt><trkpt lat="45.7197738" lon="9.3538661"><ele>462.66666666666663</ele><time>2026-04-04T11:15:59.313Z</time></trkpt><trkpt lat="45.7198407" lon="9.3538723"><ele>462.0</ele><time>2026-04-04T11:16:00.313Z</time></trkpt><trkpt lat="45.7199084" lon="9.353847"><ele>461.33333333333337</ele><time>2026-04-04T11:16:01.312Z</time></trkpt><trkpt lat="45.7200087" lon="9.3538111"><ele>460.6666666666667</ele><time>2026-04-04T11:16:02.313Z</time></trkpt><trkpt lat="45.7201025" lon="9.3538297"><ele>460.0</ele><time>2026-04-04T11:16:03.313Z</time></trkpt><trkpt lat="45.720178" lon="9.3538492"><ele>457.6</ele><time>2026-04-04T11:16:04.313Z</time></trkpt><trkpt lat="45.7202593" lon="9.353851"><ele>455.2</ele><time>2026-04-04T11:16:05.313Z</time></trkpt><trkpt lat="45.7203558" lon="9.3538453"><ele>452.79999999999995</ele><time>2026-04-04T11:16:06.313Z</time></trkpt><trkpt lat="45.7204253" lon="9.3538522"><ele>450.4</ele><time>2026-04-04T11:16:07.313Z</time></trkpt><trkpt lat="45.7205408" lon="9.353733"><ele>448.0</ele><time>2026-04-04T11:16:09.313Z</time></trkpt><trkpt lat="45.7206045" lon="9.3536718"><ele>448.0</ele><time>2026-04-04T11:16:10.313Z</time></trkpt><trkpt lat="45.7207086" lon="9.3535775"><ele>448.0</ele><time>2026-04-04T11:16:11.313Z</time></trkpt><trkpt lat="45.7208105" lon="9.3534687"><ele>448.0</ele><time>2026-04-04T11:16:13.313Z</time></trkpt><trkpt lat="45.7208829" lon="9.3534025"><ele>448.0</ele><time>2026-04-04T11:16:14.313Z</time></trkpt><trkpt lat="45.7209536" lon="9.3532622"><ele>444.75</ele><time>2026-04-04T11:16:16.313Z</time></trkpt><trkpt lat="45.7210847" lon="9.3532019"><ele>441.5</ele><time>2026-04-04T11:16:35.313Z</time></trkpt><trkpt lat="45.7211399" lon="9.3531368"><ele>438.25</ele><time>2026-04-04T11:16:38.313Z</time></trkpt><trkpt lat="45.7212706" lon="9.3528538"><ele>435.0</ele><time>2026-04-04T11:16:40.313Z</time></trkpt><trkpt lat="45.7213284" lon="9.3528038"><ele>435.0</ele><time>2026-04-04T11:16:41.313Z</time></trkpt><trkpt lat="45.7213933" lon="9.3527461"><ele>435.0</ele><time>2026-04-04T11:16:43.313Z</time></trkpt><trkpt lat="45.721452" lon="9.3526742"><ele>435.0</ele><time>2026-04-04T11:16:44.313Z</time></trkpt><trkpt lat="45.7215139" lon="9.3526172"><ele>435.0</ele><time>2026-04-04T11:16:45.312Z</time></trkpt><trkpt lat="45.721576" lon="9.3525562"><ele>435.0</ele><time>2026-04-04T11:16:46.313Z</time></trkpt><trkpt lat="45.7217117" lon="9.3524449"><ele>435.0</ele><time>2026-04-04T11:16:48.313Z</time></trkpt><trkpt lat="45.7217773" lon="9.3523908"><ele>435.0</ele><time>2026-04-04T11:16:49.313Z</time></trkpt><trkpt lat="45.7218353" lon="9.3523296"><ele>435.0</ele><time>2026-04-04T11:16:51.313Z</time></trkpt><trkpt lat="45.7219395" lon="9.3522847"><ele>435.0</ele><time>2026-04-04T11:16:53.313Z</time></trkpt><trkpt lat="45.722064" lon="9.3522046"><ele>435.0</ele><time>2026-04-04T11:16:55.312Z</time></trkpt><trkpt lat="45.7221298" lon="9.3521884"><ele>434.2</ele><time>2026-04-04T11:16:56.313Z</time></trkpt><trkpt lat="45.7222008" lon="9.3521633"><ele>433.4</ele><time>2026-04-04T11:16:57.313Z</time></trkpt><trkpt lat="45.7222995" lon="9.3521256"><ele>432.6</ele><time>2026-04-04T11:16:59.313Z</time></trkpt><trkpt lat="45.7223828" lon="9.3520533"><ele>431.8</ele><time>2026-04-04T11:17:01.312Z</time></trkpt><trkpt lat="45.7224643" lon="9.3519719"><ele>431.0</ele><time>2026-04-04T11:17:03.313Z</time></trkpt><trkpt lat="45.7225308" lon="9.3518903"><ele>430.99999999999994</ele><time>2026-04-04T11:17:05.313Z</time></trkpt><trkpt lat="45.7225731" lon="9.35182"><ele>431.0</ele><time>2026-04-04T11:17:07.313Z</time></trkpt><trkpt lat="45.7226302" lon="9.3517349"><ele>431.0</ele><time>2026-04-04T11:17:09.313Z</time></trkpt><trkpt lat="45.7226952" lon="9.3516741"><ele>431.0</ele><time>2026-04-04T11:17:11.313Z</time></trkpt><trkpt lat="45.7227631" lon="9.3516428"><ele>430.99999999999994</ele><time>2026-04-04T11:17:13.313Z</time></trkpt><trkpt lat="45.7228367" lon="9.3516013"><ele>431.0</ele><time>2026-04-04T11:17:15.313Z</time></trkpt><trkpt lat="45.7229038" lon="9.3515357"><ele>431.4</ele><time>2026-04-04T11:17:17.313Z</time></trkpt><trkpt lat="45.7229584" lon="9.3514753"><ele>431.8</ele><time>2026-04-04T11:17:18.313Z</time></trkpt><trkpt lat="45.7230346" lon="9.3514256"><ele>432.19999999999993</ele><time>2026-04-04T11:17:20.312Z</time></trkpt><trkpt lat="45.7231207" lon="9.3513462"><ele>432.59999999999997</ele><time>2026-04-04T11:17:22.313Z</time></trkpt><trkpt lat="45.723226" lon="9.3512869"><ele>433.0</ele><time>2026-04-04T11:17:24.313Z</time></trkpt><trkpt lat="45.7233432" lon="9.3512154"><ele>433.0</ele><time>2026-04-04T11:17:26.313Z</time></trkpt><trkpt lat="45.7234329" lon="9.3511939"><ele>432.99999999999994</ele><time>2026-04-04T11:17:28.313Z</time></trkpt><trkpt lat="45.7235664" lon="9.3512139"><ele>432.99999999999994</ele><time>2026-04-04T11:17:30.313Z</time></trkpt><trkpt lat="45.7236367" lon="9.3512103"><ele>433.0</ele><time>2026-04-04T11:17:31.313Z</time></trkpt><trkpt lat="45.7237616" lon="9.3512223"><ele>433.0</ele><time>2026-04-04T11:17:33.313Z</time></trkpt><trkpt lat="45.7238849" lon="9.3512427"><ele>434.79999999999995</ele><time>2026-04-04T11:17:35.313Z</time></trkpt><trkpt lat="45.7239533" lon="9.3512465"><ele>436.59999999999997</ele><time>2026-04-04T11:17:36.313Z</time></trkpt><trkpt lat="45.7240949" lon="9.3512771"><ele>438.40000000000003</ele><time>2026-04-04T11:17:38.313Z</time></trkpt><trkpt lat="45.7241559" lon="9.351306"><ele>440.20000000000005</ele><time>2026-04-04T11:17:39.313Z</time></trkpt><trkpt lat="45.7242222" lon="9.3513395"><ele>442.0</ele><time>2026-04-04T11:17:40.313Z</time></trkpt><trkpt lat="45.7243651" lon="9.3513241"><ele>439.6</ele><time>2026-04-04T11:17:42.312Z</time></trkpt><trkpt lat="45.7244759" lon="9.3513068"><ele>437.20000000000005</ele><time>2026-04-04T11:17:44.313Z</time></trkpt><trkpt lat="45.7245625" lon="9.3513025"><ele>434.8</ele><time>2026-04-04T11:17:45.313Z</time></trkpt><trkpt lat="45.7246361" lon="9.3513037"><ele>432.4</ele><time>2026-04-04T11:17:46.313Z</time></trkpt><trkpt lat="45.7247695" lon="9.3513026"><ele>430.0</ele><time>2026-04-04T11:17:48.312Z</time></trkpt><trkpt lat="45.7248337" lon="9.3512794"><ele>430.0</ele><time>2026-04-04T11:17:49.313Z</time></trkpt><trkpt lat="45.7249634" lon="9.3513637"><ele>430.0</ele><time>2026-04-04T11:17:51.313Z</time></trkpt><trkpt lat="45.7250467" lon="9.3514374"><ele>430.0</ele><time>2026-04-04T11:17:52.313Z</time></trkpt><trkpt lat="45.7251178" lon="9.3514663"><ele>430.0</ele><time>2026-04-04T11:17:53.312Z</time></trkpt><trkpt lat="45.7252107" lon="9.3515008"><ele>430.0</ele><time>2026-04-04T11:17:54.313Z</time></trkpt><trkpt lat="45.7252906" lon="9.3515262"><ele>430.33333333333337</ele><time>2026-04-04T11:17:55.313Z</time></trkpt><trkpt lat="45.7253651" lon="9.3515369"><ele>430.6666666666667</ele><time>2026-04-04T11:17:56.313Z</time></trkpt><trkpt lat="45.7254339" lon="9.351546"><ele>431.0</ele><time>2026-04-04T11:17:57.312Z</time></trkpt><trkpt lat="45.7255157" lon="9.3515629"><ele>431.33333333333337</ele><time>2026-04-04T11:17:58.313Z</time></trkpt><trkpt lat="45.725599" lon="9.3515851"><ele>431.6666666666667</ele><time>2026-04-04T11:17:59.313Z</time></trkpt><trkpt lat="45.7256623" lon="9.3516054"><ele>432.0</ele><time>2026-04-04T11:18:00.313Z</time></trkpt><trkpt lat="45.7257709" lon="9.3516411"><ele>432.0</ele><time>2026-04-04T11:18:02.313Z</time></trkpt><trkpt lat="45.7258625" lon="9.3516293"><ele>432.0</ele><time>2026-04-04T11:18:04.313Z</time></trkpt><trkpt lat="45.7259437" lon="9.3516127"><ele>432.0</ele><time>2026-04-04T11:18:06.313Z</time></trkpt><trkpt lat="45.7260272" lon="9.3515631"><ele>432.0</ele><time>2026-04-04T11:18:08.313Z</time></trkpt><trkpt lat="45.7260903" lon="9.3515038"><ele>432.0</ele><time>2026-04-04T11:18:10.313Z</time></trkpt><trkpt lat="45.7261528" lon="9.3514496"><ele>432.0</ele><time>2026-04-04T11:18:12.313Z</time></trkpt><trkpt lat="45.7262206" lon="9.3513789"><ele>431.7142857142857</ele><time>2026-04-04T11:18:15.312Z</time></trkpt><trkpt lat="45.7262776" lon="9.3513166"><ele>431.42857142857144</ele><time>2026-04-04T11:18:18.313Z</time></trkpt><trkpt lat="45.7263338" lon="9.3512628"><ele>431.1428571428571</ele><time>2026-04-04T11:18:21.313Z</time></trkpt><trkpt lat="45.7264004" lon="9.3512222"><ele>430.8571428571429</ele><time>2026-04-04T11:18:24.312Z</time></trkpt><trkpt lat="45.7264775" lon="9.3511983"><ele>430.5714285714286</ele><time>2026-04-04T11:18:27.313Z</time></trkpt><trkpt lat="45.7265466" lon="9.3511652"><ele>430.2857142857143</ele><time>2026-04-04T11:18:30.313Z</time></trkpt><trkpt lat="45.7266223" lon="9.3511538"><ele>430.0</ele><time>2026-04-04T11:18:33.313Z</time></trkpt><trkpt lat="45.7268207" lon="9.3511506"><ele>430.6666666666667</ele><time>2026-04-04T11:18:41.312Z</time></trkpt><trkpt lat="45.7269094" lon="9.3511254"><ele>431.33333333333337</ele><time>2026-04-04T11:18:44.313Z</time></trkpt><trkpt lat="45.7269858" lon="9.3511312"><ele>432.0</ele><time>2026-04-04T11:18:47.313Z</time></trkpt><trkpt lat="45.7270794" lon="9.3511313"><ele>432.66666666666663</ele><time>2026-04-04T11:18:50.313Z</time></trkpt><trkpt lat="45.7271436" lon="9.3511216"><ele>433.3333333333333</ele><time>2026-04-04T11:18:52.312Z</time></trkpt><trkpt lat="45.7272185" lon="9.3511045"><ele>434.0</ele><time>2026-04-04T11:18:54.313Z</time></trkpt><trkpt lat="45.7272957" lon="9.3510795"><ele>434.0</ele><time>2026-04-04T11:18:56.313Z</time></trkpt><trkpt lat="45.7274475" lon="9.3510799"><ele>434.0</ele><time>2026-04-04T11:18:59.312Z</time></trkpt><trkpt lat="45.7275834" lon="9.3510277"><ele>434.0</ele><time>2026-04-04T11:19:02.313Z</time></trkpt><trkpt lat="45.7276811" lon="9.3510129"><ele>434.0</ele><time>2026-04-04T11:19:04.313Z</time></trkpt><trkpt lat="45.7277961" lon="9.3509998"><ele>434.85714285714283</ele><time>2026-04-04T11:19:07.313Z</time></trkpt><trkpt lat="45.7278794" lon="9.3509937"><ele>435.7142857142857</ele><time>2026-04-04T11:19:09.313Z</time></trkpt><trkpt lat="45.7279472" lon="9.3509605"><ele>436.57142857142856</ele><time>2026-04-04T11:19:11.312Z</time></trkpt><trkpt lat="45.7280263" lon="9.35093"><ele>437.42857142857144</ele><time>2026-04-04T11:19:13.313Z</time></trkpt><trkpt lat="45.7280906" lon="9.3509105"><ele>438.2857142857143</ele><time>2026-04-04T11:19:15.313Z</time></trkpt><trkpt lat="45.7281538" lon="9.3508853"><ele>439.1428571428571</ele><time>2026-04-04T11:19:18.313Z</time></trkpt><trkpt lat="45.72823" lon="9.3508582"><ele>440.0</ele><time>2026-04-04T11:19:21.313Z</time></trkpt><trkpt lat="45.7283024" lon="9.3508346"><ele>439.99999999999994</ele><time>2026-04-04T11:19:24.313Z</time></trkpt><trkpt lat="45.728378" lon="9.3508146"><ele>440.0</ele><time>2026-04-04T11:19:27.312Z</time></trkpt><trkpt lat="45.7284505" lon="9.3508041"><ele>440.0</ele><time>2026-04-04T11:19:31.313Z</time></trkpt><trkpt lat="45.7285159" lon="9.3507871"><ele>440.0</ele><time>2026-04-04T11:19:34.313Z</time></trkpt><trkpt lat="45.7285906" lon="9.3507594"><ele>440.0</ele><time>2026-04-04T11:19:38.313Z</time></trkpt><trkpt lat="45.7286725" lon="9.3507389"><ele>439.99999999999994</ele><time>2026-04-04T11:19:41.313Z</time></trkpt><trkpt lat="45.7287438" lon="9.3507599"><ele>440.0</ele><time>2026-04-04T11:19:47.313Z</time></trkpt><trkpt lat="45.7288293" lon="9.3507461"><ele>440.0</ele><time>2026-04-04T11:19:51.312Z</time></trkpt><trkpt lat="45.7288956" lon="9.3507377"><ele>440.0</ele><time>2026-04-04T11:19:54.312Z</time></trkpt><trkpt lat="45.728378" lon="9.3508146"><ele>439.99999999999994</ele><time>2026-04-04T11:19:27.312Z</time></trkpt><trkpt lat="45.7284505" lon="9.3508041"><ele>440.0</ele><time>2026-04-04T11:19:31.313Z</time></trkpt><trkpt lat="45.7285159" lon="9.3507871"><ele>440.0</ele><time>2026-04-04T11:19:34.313Z</time></trkpt><trkpt lat="45.7285906" lon="9.3507594"><ele>440.0</ele><time>2026-04-04T11:19:38.313Z</time></trkpt><trkpt lat="45.7286725" lon="9.3507389"><ele>439.99999999999994</ele><time>2026-04-04T11:19:41.313Z</time></trkpt><trkpt lat="45.7287438" lon="9.3507599"><ele>440.0</ele><time>2026-04-04T11:19:47.313Z</time></trkpt><trkpt lat="45.7288293" lon="9.3507461"><ele>442.2</ele><time>2026-04-04T11:19:51.312Z</time></trkpt><trkpt lat="45.7288956" lon="9.3507377"><ele>444.4</ele><time>2026-04-04T11:19:54.312Z</time></trkpt><trkpt lat="45.7289622" lon="9.3507258"><ele>446.6</ele><time>2026-04-04T11:19:57.397Z</time></trkpt><trkpt lat="45.7291291" lon="9.3507299"><ele>448.8</ele><time>2026-04-04T11:19:59.312Z</time></trkpt><trkpt lat="45.7292003" lon="9.3507082"><ele>451.0</ele><time>2026-04-04T11:20:03.313Z</time></trkpt><trkpt lat="45.7293062" lon="9.3506811"><ele>451.0</ele><time>2026-04-04T11:20:08.313Z</time></trkpt><trkpt lat="45.7293896" lon="9.350658"><ele>451.0</ele><time>2026-04-04T11:20:11.313Z</time></trkpt><trkpt lat="45.7294616" lon="9.3506402"><ele>451.0</ele><time>2026-04-04T11:20:15.312Z</time></trkpt><trkpt lat="45.7295246" lon="9.3506076"><ele>451.0</ele><time>2026-04-04T11:20:18.313Z</time></trkpt><trkpt lat="45.7295869" lon="9.3505756"><ele>451.0</ele><time>2026-04-04T11:20:21.313Z</time></trkpt><trkpt lat="45.7296562" lon="9.3505482"><ele>451.0</ele><time>2026-04-04T11:20:24.313Z</time></trkpt><trkpt lat="45.7297247" lon="9.3505293"><ele>451.0</ele><time>2026-04-04T11:20:27.313Z</time></trkpt><trkpt lat="45.7297883" lon="9.3505135"><ele>454.1428571428571</ele><time>2026-04-04T11:20:30.313Z</time></trkpt><trkpt lat="45.7298511" lon="9.3505012"><ele>457.28571428571433</ele><time>2026-04-04T11:20:33.312Z</time></trkpt><trkpt lat="45.7299406" lon="9.3504791"><ele>460.42857142857144</ele><time>2026-04-04T11:20:36.313Z</time></trkpt><trkpt lat="45.7300133" lon="9.3504625"><ele>463.57142857142856</ele><time>2026-04-04T11:20:39.312Z</time></trkpt><trkpt lat="45.7300942" lon="9.3504435"><ele>466.71428571428567</ele><time>2026-04-04T11:20:43.313Z</time></trkpt><trkpt lat="45.7301602" lon="9.3504321"><ele>469.8571428571429</ele><time>2026-04-04T11:20:46.313Z</time></trkpt><trkpt lat="45.7302294" lon="9.3503999"><ele>473.0</ele><time>2026-04-04T11:20:49.313Z</time></trkpt><trkpt lat="45.7303058" lon="9.350381"><ele>476.3333333333333</ele><time>2026-04-04T11:20:52.312Z</time></trkpt><trkpt lat="45.7303845" lon="9.3503716"><ele>479.66666666666663</ele><time>2026-04-04T11:20:55.313Z</time></trkpt><trkpt lat="45.7304582" lon="9.3503669"><ele>483.0</ele><time>2026-04-04T11:20:58.313Z</time></trkpt><trkpt lat="45.7305275" lon="9.3503728"><ele>486.33333333333337</ele><time>2026-04-04T11:21:01.313Z</time></trkpt><trkpt lat="45.730595" lon="9.350348"><ele>489.6666666666667</ele><time>2026-04-04T11:21:06.313Z</time></trkpt><trkpt lat="45.7307371" lon="9.3502639"><ele>493.0</ele><time>2026-04-04T11:21:17.313Z</time></trkpt><trkpt lat="45.730671" lon="9.3502423"><ele>493.0</ele><time>2026-04-04T11:21:21.312Z</time></trkpt><trkpt lat="45.7305913" lon="9.3502466"><ele>493.0</ele><time>2026-04-04T11:21:25.313Z</time></trkpt><trkpt lat="45.7305224" lon="9.3502169"><ele>493.0</ele><time>2026-04-04T11:21:29.313Z</time></trkpt><trkpt lat="45.7304539" lon="9.3501774"><ele>493.0</ele><time>2026-04-04T11:21:33.312Z</time></trkpt><trkpt lat="45.7303854" lon="9.3501496"><ele>493.0</ele><time>2026-04-04T11:21:37.313Z</time></trkpt><trkpt lat="45.730322" lon="9.3500934"><ele>493.0</ele><time>2026-04-04T11:21:41.313Z</time></trkpt><trkpt lat="45.7302734" lon="9.3500294"><ele>493.0</ele><time>2026-04-04T11:21:44.313Z</time></trkpt><trkpt lat="45.7302438" lon="9.3499493"><ele>493.00000000000006</ele><time>2026-04-04T11:21:47.313Z</time></trkpt><trkpt lat="45.7302727" lon="9.3498509"><ele>493.0</ele><time>2026-04-04T11:21:52.313Z</time></trkpt><trkpt lat="45.7303069" lon="9.349765"><ele>493.0</ele><time>2026-04-04T11:21:56.318Z</time></trkpt><trkpt lat="45.7303759" lon="9.3496459"><ele>493.0</ele><time>2026-04-04T11:21:59.312Z</time></trkpt><trkpt lat="45.7304196" lon="9.349566"><ele>493.00000000000006</ele><time>2026-04-04T11:22:03.313Z</time></trkpt><trkpt lat="45.7304405" lon="9.3494546"><ele>493.0</ele><time>2026-04-04T11:22:08.313Z</time></trkpt><trkpt lat="45.7304749" lon="9.3493667"><ele>494.0</ele><time>2026-04-04T11:22:12.312Z</time></trkpt><trkpt lat="45.7305201" lon="9.3492599"><ele>495.0</ele><time>2026-04-04T11:22:16.313Z</time></trkpt><trkpt lat="45.7305717" lon="9.349175"><ele>496.0</ele><time>2026-04-04T11:22:19.313Z</time></trkpt><trkpt lat="45.7305983" lon="9.3490901"><ele>497.0</ele><time>2026-04-04T11:22:22.313Z</time></trkpt><trkpt lat="45.730611" lon="9.3489978"><ele>498.0</ele><time>2026-04-04T11:22:25.312Z</time></trkpt><trkpt lat="45.73061" lon="9.3488987"><ele>499.0</ele><time>2026-04-04T11:22:28.313Z</time></trkpt><trkpt lat="45.7306127" lon="9.3487814"><ele>500.0</ele><time>2026-04-04T11:22:32.312Z</time></trkpt><trkpt lat="45.7306137" lon="9.3486692"><ele>500.57142857142856</ele><time>2026-04-04T11:22:35.313Z</time></trkpt><trkpt lat="45.7306138" lon="9.3485681"><ele>501.14285714285717</ele><time>2026-04-04T11:22:38.313Z</time></trkpt><trkpt lat="45.7306098" lon="9.3484726"><ele>501.7142857142857</ele><time>2026-04-04T11:22:41.312Z</time></trkpt><trkpt lat="45.7306034" lon="9.3483757"><ele>502.2857142857143</ele><time>2026-04-04T11:22:44.313Z</time></trkpt><trkpt lat="45.7305918" lon="9.3482433"><ele>502.8571428571429</ele><time>2026-04-04T11:22:48.312Z</time></trkpt><trkpt lat="45.7305747" lon="9.3481373"><ele>503.42857142857144</ele><time>2026-04-04T11:22:52.313Z</time></trkpt><trkpt lat="45.7305503" lon="9.3480357"><ele>504.0</ele><time>2026-04-04T11:22:56.313Z</time></trkpt><trkpt lat="45.7305416" lon="9.3479419"><ele>504.0</ele><time>2026-04-04T11:22:59.313Z</time></trkpt><trkpt lat="45.7305301" lon="9.3478058"><ele>504.0</ele><time>2026-04-04T11:23:04.313Z</time></trkpt><trkpt lat="45.7305409" lon="9.3477074"><ele>504.0</ele><time>2026-04-04T11:23:09.397Z</time></trkpt><trkpt lat="45.7305581" lon="9.3475988"><ele>504.0</ele><time>2026-04-04T11:23:13.396Z</time></trkpt><trkpt lat="45.7306127" lon="9.3475087"><ele>504.0</ele><time>2026-04-04T11:23:17.312Z</time></trkpt><trkpt lat="45.7306834" lon="9.347478"><ele>504.0</ele><time>2026-04-04T11:23:20.312Z</time></trkpt><trkpt lat="45.7307773" lon="9.3475036"><ele>504.0</ele><time>2026-04-04T11:23:23.313Z</time></trkpt><trkpt lat="45.7308535" lon="9.3475224"><ele>504.0</ele><time>2026-04-04T11:23:27.313Z</time></trkpt><trkpt lat="45.7309192" lon="9.3475386"><ele>504.0</ele><time>2026-04-04T11:23:30.312Z</time></trkpt><trkpt lat="45.7309939" lon="9.3475665"><ele>504.0</ele><time>2026-04-04T11:23:33.313Z</time></trkpt><trkpt lat="45.7310612" lon="9.3476048"><ele>504.0</ele><time>2026-04-04T11:23:36.313Z</time></trkpt><trkpt lat="45.7311321" lon="9.347627"><ele>504.0</ele><time>2026-04-04T11:23:39.312Z</time></trkpt><trkpt lat="45.7312056" lon="9.3476633"><ele>504.0</ele><time>2026-04-04T11:23:42.313Z</time></trkpt><trkpt lat="45.7312808" lon="9.3477018"><ele>504.3333333333333</ele><time>2026-04-04T11:23:45.313Z</time></trkpt><trkpt lat="45.7313578" lon="9.3477312"><ele>504.66666666666663</ele><time>2026-04-04T11:23:48.312Z</time></trkpt><trkpt lat="45.7314389" lon="9.3477732"><ele>505.0</ele><time>2026-04-04T11:23:51.313Z</time></trkpt><trkpt lat="45.7315147" lon="9.3478333"><ele>505.3333333333333</ele><time>2026-04-04T11:23:54.313Z</time></trkpt><trkpt lat="45.7315746" lon="9.3478616"><ele>505.66666666666663</ele><time>2026-04-04T11:23:56.312Z</time></trkpt><trkpt lat="45.7316639" lon="9.3478765"><ele>506.0</ele><time>2026-04-04T11:23:59.313Z</time></trkpt><trkpt lat="45.7317521" lon="9.3478722"><ele>506.00000000000006</ele><time>2026-04-04T11:24:02.312Z</time></trkpt><trkpt lat="45.7318422" lon="9.347877"><ele>506.0</ele><time>2026-04-04T11:24:05.313Z</time></trkpt><trkpt lat="45.7319078" lon="9.3478737"><ele>506.00000000000006</ele><time>2026-04-04T11:24:07.313Z</time></trkpt><trkpt lat="45.7319781" lon="9.3478675"><ele>506.00000000000006</ele><time>2026-04-04T11:24:09.313Z</time></trkpt><trkpt lat="45.7320532" lon="9.3478593"><ele>506.0</ele><time>2026-04-04T11:24:11.313Z</time></trkpt><trkpt lat="45.7321226" lon="9.3478112"><ele>506.00000000000006</ele><time>2026-04-04T11:24:13.313Z</time></trkpt><trkpt lat="45.7321784" lon="9.3477568"><ele>506.00000000000006</ele><time>2026-04-04T11:24:15.313Z</time></trkpt><trkpt lat="45.7322291" lon="9.3476905"><ele>506.99999999999994</ele><time>2026-04-04T11:24:17.313Z</time></trkpt><trkpt lat="45.7322808" lon="9.3476154"><ele>508.0</ele><time>2026-04-04T11:24:19.313Z</time></trkpt><trkpt lat="45.7323259" lon="9.3475372"><ele>509.0</ele><time>2026-04-04T11:24:21.313Z</time></trkpt><trkpt lat="45.7323721" lon="9.3474545"><ele>510.0</ele><time>2026-04-04T11:24:23.312Z</time></trkpt><trkpt lat="45.7324243" lon="9.3473691"><ele>510.99999999999994</ele><time>2026-04-04T11:24:25.312Z</time></trkpt><trkpt lat="45.7324924" lon="9.3472942"><ele>512.0</ele><time>2026-04-04T11:24:27.313Z</time></trkpt><trkpt lat="45.7325724" lon="9.3472103"><ele>512.2</ele><time>2026-04-04T11:24:29.313Z</time></trkpt><trkpt lat="45.7326591" lon="9.3471344"><ele>512.4000000000001</ele><time>2026-04-04T11:24:31.313Z</time></trkpt><trkpt lat="45.7327881" lon="9.3470394"><ele>512.5999999999999</ele><time>2026-04-04T11:24:34.313Z</time></trkpt><trkpt lat="45.7328667" lon="9.3469896"><ele>512.8</ele><time>2026-04-04T11:24:36.313Z</time></trkpt><trkpt lat="45.7329511" lon="9.3469499"><ele>513.0</ele><time>2026-04-04T11:24:38.313Z</time></trkpt><trkpt lat="45.7330373" lon="9.3469186"><ele>513.0</ele><time>2026-04-04T11:24:40.312Z</time></trkpt><trkpt lat="45.7331268" lon="9.3469097"><ele>513.0</ele><time>2026-04-04T11:24:42.313Z</time></trkpt><trkpt lat="45.7332105" lon="9.3469294"><ele>513.0</ele><time>2026-04-04T11:24:44.313Z</time></trkpt><trkpt lat="45.7332885" lon="9.346971"><ele>513.0</ele><time>2026-04-04T11:24:46.313Z</time></trkpt><trkpt lat="45.7333577" lon="9.3470141"><ele>513.0</ele><time>2026-04-04T11:24:48.313Z</time></trkpt><trkpt lat="45.7334395" lon="9.3470477"><ele>513.0</ele><time>2026-04-04T11:24:51.313Z</time></trkpt><trkpt lat="45.7335095" lon="9.3470944"><ele>512.8</ele><time>2026-04-04T11:24:54.313Z</time></trkpt><trkpt lat="45.7335624" lon="9.3471502"><ele>512.5999999999999</ele><time>2026-04-04T11:24:56.313Z</time></trkpt><trkpt lat="45.7335917" lon="9.3472516"><ele>512.4000000000001</ele><time>2026-04-04T11:25:03.313Z</time></trkpt><trkpt lat="45.7336376" lon="9.3473255"><ele>512.2</ele><time>2026-04-04T11:25:06.313Z</time></trkpt><trkpt lat="45.733745" lon="9.3475955"><ele>512.0</ele><time>2026-04-04T11:25:07.312Z</time></trkpt><trkpt lat="45.7337584" lon="9.3476929"><ele>512.0</ele><time>2026-04-04T11:25:10.313Z</time></trkpt><trkpt lat="45.7337709" lon="9.3477901"><ele>512.0</ele><time>2026-04-04T11:25:12.313Z</time></trkpt><trkpt lat="45.733861" lon="9.3478967"><ele>512.0</ele><time>2026-04-04T11:25:15.313Z</time></trkpt><trkpt lat="45.7339043" lon="9.348077"><ele>512.0</ele><time>2026-04-04T11:25:17.313Z</time></trkpt><trkpt lat="45.7339154" lon="9.3482255"><ele>512.0</ele><time>2026-04-04T11:25:19.313Z</time></trkpt><trkpt lat="45.7339071" lon="9.3483329"><ele>512.2</ele><time>2026-04-04T11:25:21.313Z</time></trkpt><trkpt lat="45.7339548" lon="9.3483991"><ele>512.4000000000001</ele><time>2026-04-04T11:25:22.313Z</time></trkpt><trkpt lat="45.7340162" lon="9.3485091"><ele>512.5999999999999</ele><time>2026-04-04T11:25:24.313Z</time></trkpt><trkpt lat="45.7340998" lon="9.3486454"><ele>512.8</ele><time>2026-04-04T11:25:26.312Z</time></trkpt><trkpt lat="45.7341586" lon="9.34872"><ele>513.0</ele><time>2026-04-04T11:25:27.313Z</time></trkpt><trkpt lat="45.734252" lon="9.3488424"><ele>513.25</ele><time>2026-04-04T11:25:29.313Z</time></trkpt><trkpt lat="45.73436" lon="9.3489322"><ele>513.5</ele><time>2026-04-04T11:25:31.313Z</time></trkpt><trkpt lat="45.7344858" lon="9.3490226"><ele>513.75</ele><time>2026-04-04T11:25:33.312Z</time></trkpt><trkpt lat="45.7345998" lon="9.3490768"><ele>514.0</ele><time>2026-04-04T11:25:35.313Z</time></trkpt><trkpt lat="45.7346905" lon="9.3490786"><ele>514.0</ele><time>2026-04-04T11:25:37.313Z</time></trkpt><trkpt lat="45.7347987" lon="9.3490447"><ele>514.0</ele><time>2026-04-04T11:25:39.312Z</time></trkpt><trkpt lat="45.7349141" lon="9.3490409"><ele>514.0</ele><time>2026-04-04T11:25:41.313Z</time></trkpt><trkpt lat="45.7349792" lon="9.3490677"><ele>514.0</ele><time>2026-04-04T11:25:42.313Z</time></trkpt><trkpt lat="45.7350361" lon="9.3491297"><ele>514.0</ele><time>2026-04-04T11:25:43.313Z</time></trkpt><trkpt lat="45.73508" lon="9.3491967"><ele>514.0</ele><time>2026-04-04T11:25:44.313Z</time></trkpt><trkpt lat="45.7351301" lon="9.3492625"><ele>514.0</ele><time>2026-04-04T11:25:45.312Z</time></trkpt><trkpt lat="45.7351932" lon="9.3493238"><ele>514.0</ele><time>2026-04-04T11:25:46.313Z</time></trkpt><trkpt lat="45.7352474" lon="9.3493914"><ele>514.0</ele><time>2026-04-04T11:25:47.313Z</time></trkpt><trkpt lat="45.7353132" lon="9.3495262"><ele>514.0</ele><time>2026-04-04T11:25:49.313Z</time></trkpt><trkpt lat="45.7353287" lon="9.3497075"><ele>514.0</ele><time>2026-04-04T11:25:51.313Z</time></trkpt><trkpt lat="45.7352937" lon="9.3498962"><ele>510.6666666666667</ele><time>2026-04-04T11:25:53.313Z</time></trkpt><trkpt lat="45.7352876" lon="9.3500027"><ele>507.33333333333337</ele><time>2026-04-04T11:25:54.313Z</time></trkpt><trkpt lat="45.7352834" lon="9.3501145"><ele>504.0</ele><time>2026-04-04T11:25:55.313Z</time></trkpt><trkpt lat="45.7352734" lon="9.3502196"><ele>500.66666666666663</ele><time>2026-04-04T11:25:56.313Z</time></trkpt><trkpt lat="45.7352635" lon="9.350337"><ele>497.3333333333333</ele><time>2026-04-04T11:25:57.313Z</time></trkpt><trkpt lat="45.7352469" lon="9.3504291"><ele>494.0</ele><time>2026-04-04T11:25:58.313Z</time></trkpt><trkpt lat="45.7352297" lon="9.3505543"><ele>495.99999999999994</ele><time>2026-04-04T11:25:59.313Z</time></trkpt><trkpt lat="45.7351986" lon="9.3506548"><ele>498.0</ele><time>2026-04-04T11:26:00.313Z</time></trkpt><trkpt lat="45.7351655" lon="9.3507655"><ele>500.0</ele><time>2026-04-04T11:26:01.313Z</time></trkpt><trkpt lat="45.7351295" lon="9.3508661"><ele>502.0</ele><time>2026-04-04T11:26:02.313Z</time></trkpt><trkpt lat="45.7350972" lon="9.3509727"><ele>503.99999999999994</ele><time>2026-04-04T11:26:03.313Z</time></trkpt><trkpt lat="45.735072" lon="9.3510738"><ele>506.0</ele><time>2026-04-04T11:26:04.313Z</time></trkpt><trkpt lat="45.7350427" lon="9.3512037"><ele>505.99999999999994</ele><time>2026-04-04T11:26:05.312Z</time></trkpt><trkpt lat="45.7350223" lon="9.3513083"><ele>506.0</ele><time>2026-04-04T11:26:06.313Z</time></trkpt><trkpt lat="45.7350241" lon="9.3514154"><ele>506.0</ele><time>2026-04-04T11:26:07.313Z</time></trkpt><trkpt lat="45.7350381" lon="9.3515243"><ele>506.0</ele><time>2026-04-04T11:26:08.313Z</time></trkpt><trkpt lat="45.7350462" lon="9.3516216"><ele>505.99999999999994</ele><time>2026-04-04T11:26:09.313Z</time></trkpt><trkpt lat="45.7350637" lon="9.3517281"><ele>506.0</ele><time>2026-04-04T11:26:10.313Z</time></trkpt><trkpt lat="45.7350791" lon="9.351877"><ele>503.66666666666663</ele><time>2026-04-04T11:26:11.313Z</time></trkpt><trkpt lat="45.7350767" lon="9.3519856"><ele>501.3333333333333</ele><time>2026-04-04T11:26:12.313Z</time></trkpt><trkpt lat="45.7350854" lon="9.352078"><ele>499.0</ele><time>2026-04-04T11:26:13.313Z</time></trkpt><trkpt lat="45.7350745" lon="9.3522176"><ele>496.66666666666663</ele><time>2026-04-04T11:26:15.313Z</time></trkpt><trkpt lat="45.7350938" lon="9.3523292"><ele>494.3333333333333</ele><time>2026-04-04T11:26:17.313Z</time></trkpt><trkpt lat="45.7350919" lon="9.3524329"><ele>492.0</ele><time>2026-04-04T11:26:22.313Z</time></trkpt><trkpt lat="45.7350477" lon="9.3525174"><ele>490.8333333333333</ele><time>2026-04-04T11:26:50.313Z</time></trkpt><trkpt lat="45.7350211" lon="9.3526206"><ele>489.66666666666663</ele><time>2026-04-04T11:26:54.313Z</time></trkpt><trkpt lat="45.7350042" lon="9.3527317"><ele>488.5</ele><time>2026-04-04T11:26:57.313Z</time></trkpt><trkpt lat="45.7349828" lon="9.3528587"><ele>487.3333333333333</ele><time>2026-04-04T11:27:00.312Z</time></trkpt><trkpt lat="45.7349538" lon="9.3529835"><ele>486.16666666666663</ele><time>2026-04-04T11:27:03.312Z</time></trkpt><trkpt lat="45.7348878" lon="9.3530419"><ele>485.0</ele><time>2026-04-04T11:27:06.313Z</time></trkpt><trkpt lat="45.7348027" lon="9.3530357"><ele>484.99999999999994</ele><time>2026-04-04T11:27:09.313Z</time></trkpt><trkpt lat="45.7347113" lon="9.3530177"><ele>485.0</ele><time>2026-04-04T11:27:12.313Z</time></trkpt><trkpt lat="45.7346417" lon="9.3530069"><ele>485.0</ele><time>2026-04-04T11:27:14.313Z</time></trkpt><trkpt lat="45.7345687" lon="9.3529919"><ele>485.0</ele><time>2026-04-04T11:27:16.313Z</time></trkpt><trkpt lat="45.7345028" lon="9.3529659"><ele>484.99999999999994</ele><time>2026-04-04T11:27:18.312Z</time></trkpt><trkpt lat="45.7344261" lon="9.3529294"><ele>485.0</ele><time>2026-04-04T11:27:20.313Z</time></trkpt><trkpt lat="45.734358" lon="9.3529387"><ele>484.66666666666663</ele><time>2026-04-04T11:27:21.312Z</time></trkpt><trkpt lat="45.7342791" lon="9.352928"><ele>484.3333333333333</ele><time>2026-04-04T11:27:23.313Z</time></trkpt><trkpt lat="45.7342209" lon="9.3528912"><ele>484.0</ele><time>2026-04-04T11:27:25.312Z</time></trkpt><trkpt lat="45.7341311" lon="9.3528646"><ele>483.66666666666663</ele><time>2026-04-04T11:27:27.312Z</time></trkpt><trkpt lat="45.7340379" lon="9.3528461"><ele>483.3333333333333</ele><time>2026-04-04T11:27:30.313Z</time></trkpt><trkpt lat="45.7339529" lon="9.3528718"><ele>483.0</ele><time>2026-04-04T11:27:32.313Z</time></trkpt><trkpt lat="45.7338601" lon="9.3529035"><ele>483.0</ele><time>2026-04-04T11:27:34.312Z</time></trkpt><trkpt lat="45.7337756" lon="9.3529498"><ele>482.99999999999994</ele><time>2026-04-04T11:27:36.312Z</time></trkpt><trkpt lat="45.7337104" lon="9.3530192"><ele>482.99999999999994</ele><time>2026-04-04T11:27:38.313Z</time></trkpt><trkpt lat="45.733661" lon="9.3530756"><ele>483.0</ele><time>2026-04-04T11:27:40.313Z</time></trkpt><trkpt lat="45.7335292" lon="9.3531728"><ele>483.0</ele><time>2026-04-04T11:27:42.313Z</time></trkpt><trkpt lat="45.7334457" lon="9.3532255"><ele>478.59999999999997</ele><time>2026-04-04T11:27:44.313Z</time></trkpt><trkpt lat="45.7333734" lon="9.3533479"><ele>474.19999999999993</ele><time>2026-04-04T11:27:48.313Z</time></trkpt><trkpt lat="45.7332872" lon="9.3534119"><ele>469.8</ele><time>2026-04-04T11:27:51.313Z</time></trkpt><trkpt lat="45.733221" lon="9.3535014"><ele>465.4</ele><time>2026-04-04T11:27:53.313Z</time></trkpt><trkpt lat="45.7331798" lon="9.353574"><ele>461.0</ele><time>2026-04-04T11:27:54.313Z</time></trkpt><trkpt lat="45.7331169" lon="9.3536989"><ele>460.99999999999994</ele><time>2026-04-04T11:27:56.313Z</time></trkpt><trkpt lat="45.7330867" lon="9.3537976"><ele>461.0</ele><time>2026-04-04T11:27:58.313Z</time></trkpt><trkpt lat="45.7330609" lon="9.3539136"><ele>461.0</ele><time>2026-04-04T11:28:01.312Z</time></trkpt><trkpt lat="45.7330748" lon="9.3540216"><ele>461.0</ele><time>2026-04-04T11:28:03.312Z</time></trkpt><trkpt lat="45.7330609" lon="9.3541679"><ele>460.99999999999994</ele><time>2026-04-04T11:28:05.313Z</time></trkpt><trkpt lat="45.7330063" lon="9.3543035"><ele>461.0</ele><time>2026-04-04T11:28:07.313Z</time></trkpt><trkpt lat="45.7329291" lon="9.3544156"><ele>459.3333333333333</ele><time>2026-04-04T11:28:09.313Z</time></trkpt><trkpt lat="45.7328407" lon="9.3544888"><ele>457.66666666666663</ele><time>2026-04-04T11:28:11.312Z</time></trkpt><trkpt lat="45.7327994" lon="9.3545867"><ele>456.0</ele><time>2026-04-04T11:28:13.312Z</time></trkpt><trkpt lat="45.7327743" lon="9.354686"><ele>454.33333333333337</ele><time>2026-04-04T11:28:15.313Z</time></trkpt><trkpt lat="45.7327601" lon="9.3547932"><ele>452.6666666666667</ele><time>2026-04-04T11:28:18.313Z</time></trkpt><trkpt lat="45.7326783" lon="9.3547312"><ele>451.0</ele><time>2026-04-04T11:28:41.313Z</time></trkpt><trkpt lat="45.7326191" lon="9.3546784"><ele>449.6666666666667</ele><time>2026-04-04T11:28:43.313Z</time></trkpt><trkpt lat="45.7325618" lon="9.3546211"><ele>448.33333333333337</ele><time>2026-04-04T11:28:45.313Z</time></trkpt><trkpt lat="45.732485" lon="9.3545588"><ele>447.0</ele><time>2026-04-04T11:28:48.312Z</time></trkpt><trkpt lat="45.7324268" lon="9.354505"><ele>445.66666666666663</ele><time>2026-04-04T11:28:50.312Z</time></trkpt><trkpt lat="45.7323644" lon="9.3544669"><ele>444.3333333333333</ele><time>2026-04-04T11:28:52.313Z</time></trkpt><trkpt lat="45.7322819" lon="9.3544457"><ele>443.0</ele><time>2026-04-04T11:28:54.313Z</time></trkpt><trkpt lat="45.7322087" lon="9.35451"><ele>442.99999999999994</ele><time>2026-04-04T11:28:55.313Z</time></trkpt><trkpt lat="45.732128" lon="9.35453"><ele>443.0</ele><time>2026-04-04T11:28:56.313Z</time></trkpt><trkpt lat="45.7320707" lon="9.3546358"><ele>443.0</ele><time>2026-04-04T11:28:58.313Z</time></trkpt><trkpt lat="45.7320329" lon="9.3547426"><ele>443.0</ele><time>2026-04-04T11:28:59.313Z</time></trkpt><trkpt lat="45.7319847" lon="9.3548198"><ele>442.99999999999994</ele><time>2026-04-04T11:29:00.313Z</time></trkpt><trkpt lat="45.7319286" lon="9.354892"><ele>443.0</ele><time>2026-04-04T11:29:01.313Z</time></trkpt><trkpt lat="45.7318933" lon="9.3549692"><ele>441.66666666666663</ele><time>2026-04-04T11:29:02.313Z</time></trkpt><trkpt lat="45.7317914" lon="9.3549235"><ele>440.3333333333333</ele><time>2026-04-04T11:29:04.313Z</time></trkpt><trkpt lat="45.7317252" lon="9.3549131"><ele>439.0</ele><time>2026-04-04T11:29:05.313Z</time></trkpt><trkpt lat="45.7316397" lon="9.3548632"><ele>437.66666666666663</ele><time>2026-04-04T11:29:06.313Z</time></trkpt><trkpt lat="45.7315591" lon="9.3548101"><ele>436.3333333333333</ele><time>2026-04-04T11:29:07.312Z</time></trkpt><trkpt lat="45.7314991" lon="9.3547807"><ele>435.0</ele><time>2026-04-04T11:29:08.312Z</time></trkpt><trkpt lat="45.7314203" lon="9.3547594"><ele>435.0</ele><time>2026-04-04T11:29:09.313Z</time></trkpt><trkpt lat="45.731296" lon="9.3547044"><ele>435.0</ele><time>2026-04-04T11:29:11.313Z</time></trkpt><trkpt lat="45.7312235" lon="9.3546838"><ele>435.0</ele><time>2026-04-04T11:29:12.312Z</time></trkpt><trkpt lat="45.7311506" lon="9.3547539"><ele>435.0</ele><time>2026-04-04T11:29:13.313Z</time></trkpt><trkpt lat="45.7310845" lon="9.3547759"><ele>435.0</ele><time>2026-04-04T11:29:14.312Z</time></trkpt><trkpt lat="45.7310464" lon="9.354866"><ele>435.0</ele><time>2026-04-04T11:29:15.312Z</time></trkpt><trkpt lat="45.7309617" lon="9.3550254"><ele>435.6666666666667</ele><time>2026-04-04T11:29:17.313Z</time></trkpt><trkpt lat="45.7309188" lon="9.3550985"><ele>436.33333333333337</ele><time>2026-04-04T11:29:18.313Z</time></trkpt><trkpt lat="45.7308782" lon="9.355169"><ele>437.0</ele><time>2026-04-04T11:29:19.313Z</time></trkpt><trkpt lat="45.7308207" lon="9.355228"><ele>437.6666666666667</ele><time>2026-04-04T11:29:20.312Z</time></trkpt><trkpt lat="45.7307144" lon="9.3553491"><ele>438.33333333333337</ele><time>2026-04-04T11:29:22.313Z</time></trkpt><trkpt lat="45.7306577" lon="9.3554044"><ele>439.0</ele><time>2026-04-04T11:29:23.313Z</time></trkpt><trkpt lat="45.7305738" lon="9.3554724"><ele>439.0</ele><time>2026-04-04T11:29:24.312Z</time></trkpt><trkpt lat="45.7305132" lon="9.3555353"><ele>439.0</ele><time>2026-04-04T11:29:25.313Z</time></trkpt><trkpt lat="45.730461" lon="9.3556819"><ele>439.0</ele><time>2026-04-04T11:29:27.312Z</time></trkpt><trkpt lat="45.7304107" lon="9.3558211"><ele>439.0</ele><time>2026-04-04T11:29:29.313Z</time></trkpt><trkpt lat="45.730322" lon="9.355919"><ele>439.0</ele><time>2026-04-04T11:29:31.313Z</time></trkpt><trkpt lat="45.7302397" lon="9.3560037"><ele>440.2</ele><time>2026-04-04T11:29:33.313Z</time></trkpt><trkpt lat="45.730175" lon="9.3560769"><ele>441.4</ele><time>2026-04-04T11:29:35.313Z</time></trkpt><trkpt lat="45.730098" lon="9.3561362"><ele>442.6</ele><time>2026-04-04T11:29:37.313Z</time></trkpt><trkpt lat="45.7300117" lon="9.3562095"><ele>443.8</ele><time>2026-04-04T11:29:39.313Z</time></trkpt><trkpt lat="45.7299247" lon="9.3563202"><ele>445.0</ele><time>2026-04-04T11:29:41.313Z</time></trkpt><trkpt lat="45.7298258" lon="9.3564256"><ele>443.00000000000006</ele><time>2026-04-04T11:29:44.313Z</time></trkpt><trkpt lat="45.7297445" lon="9.3564961"><ele>441.0</ele><time>2026-04-04T11:29:46.313Z</time></trkpt><trkpt lat="45.7296755" lon="9.3565226"><ele>439.0</ele><time>2026-04-04T11:29:48.313Z</time></trkpt><trkpt lat="45.7296001" lon="9.3565371"><ele>437.0</ele><time>2026-04-04T11:29:51.313Z</time></trkpt><trkpt lat="45.7295315" lon="9.356588"><ele>435.00000000000006</ele><time>2026-04-04T11:29:54.313Z</time></trkpt><trkpt lat="45.729483" lon="9.3566486"><ele>433.0</ele><time>2026-04-04T11:29:56.313Z</time></trkpt><trkpt lat="45.7294349" lon="9.3567223"><ele>433.6666666666667</ele><time>2026-04-04T11:29:58.313Z</time></trkpt><trkpt lat="45.7293863" lon="9.3568074"><ele>434.33333333333337</ele><time>2026-04-04T11:30:00.313Z</time></trkpt><trkpt lat="45.7293491" lon="9.3568994"><ele>435.0</ele><time>2026-04-04T11:30:02.312Z</time></trkpt><trkpt lat="45.7293222" lon="9.3569851"><ele>435.66666666666663</ele><time>2026-04-04T11:30:04.312Z</time></trkpt><trkpt lat="45.7292918" lon="9.3570875"><ele>436.3333333333333</ele><time>2026-04-04T11:30:06.313Z</time></trkpt><trkpt lat="45.7292393" lon="9.3571784"><ele>437.0</ele><time>2026-04-04T11:30:08.312Z</time></trkpt><trkpt lat="45.7291877" lon="9.3572635"><ele>436.99999999999994</ele><time>2026-04-04T11:30:10.312Z</time></trkpt><trkpt lat="45.7291415" lon="9.357366"><ele>437.0</ele><time>2026-04-04T11:30:12.312Z</time></trkpt><trkpt lat="45.7291047" lon="9.357463"><ele>437.0</ele><time>2026-04-04T11:30:14.312Z</time></trkpt><trkpt lat="45.7291509" lon="9.3573939"><ele>437.0</ele><time>2026-04-04T11:30:16.313Z</time></trkpt><trkpt lat="45.7291295" lon="9.3574912"><ele>436.99999999999994</ele><time>2026-04-04T11:30:19.313Z</time></trkpt><trkpt lat="45.7290837" lon="9.3575974"><ele>437.0</ele><time>2026-04-04T11:30:22.313Z</time></trkpt><trkpt lat="45.7290297" lon="9.3576795"><ele>437.0</ele><time>2026-04-04T11:30:23.313Z</time></trkpt><trkpt lat="45.7289599" lon="9.3577994"><ele>437.0</ele><time>2026-04-04T11:30:24.313Z</time></trkpt><trkpt lat="45.7286924" lon="9.3580979"><ele>437.0</ele><time>2026-04-04T11:30:25.312Z</time></trkpt><trkpt lat="45.7286392" lon="9.3581549"><ele>437.20000000000005</ele><time>2026-04-04T11:30:26.312Z</time></trkpt><trkpt lat="45.728587" lon="9.3582083"><ele>437.40000000000003</ele><time>2026-04-04T11:30:27.313Z</time></trkpt><trkpt lat="45.7285302" lon="9.3583289"><ele>437.59999999999997</ele><time>2026-04-04T11:30:29.313Z</time></trkpt><trkpt lat="45.7284379" lon="9.3584513"><ele>437.79999999999995</ele><time>2026-04-04T11:30:31.312Z</time></trkpt><trkpt lat="45.7284077" lon="9.3585734"><ele>438.0</ele><time>2026-04-04T11:30:33.312Z</time></trkpt><trkpt lat="45.7283577" lon="9.3587013"><ele>438.0</ele><time>2026-04-04T11:30:35.313Z</time></trkpt><trkpt lat="45.728342" lon="9.3588453"><ele>438.0</ele><time>2026-04-04T11:30:37.313Z</time></trkpt><trkpt lat="45.7283748" lon="9.3589789"><ele>438.0</ele><time>2026-04-04T11:30:39.313Z</time></trkpt><trkpt lat="45.7283683" lon="9.3590964"><ele>438.0</ele><time>2026-04-04T11:30:41.313Z</time></trkpt><trkpt lat="45.7283869" lon="9.3592255"><ele>438.0</ele><time>2026-04-04T11:30:43.313Z</time></trkpt><trkpt lat="45.7284256" lon="9.359313"><ele>438.0</ele><time>2026-04-04T11:30:45.313Z</time></trkpt><trkpt lat="45.728479" lon="9.3594101"><ele>438.4</ele><time>2026-04-04T11:30:47.313Z</time></trkpt><trkpt lat="45.7285342" lon="9.3595193"><ele>438.79999999999995</ele><time>2026-04-04T11:30:49.313Z</time></trkpt><trkpt lat="45.7285693" lon="9.3596283"><ele>439.2</ele><time>2026-04-04T11:30:51.313Z</time></trkpt><trkpt lat="45.7286092" lon="9.3597537"><ele>439.6</ele><time>2026-04-04T11:30:53.313Z</time></trkpt><trkpt lat="45.7286434" lon="9.3598862"><ele>440.0</ele><time>2026-04-04T11:30:55.313Z</time></trkpt><trkpt lat="45.7286794" lon="9.3600053"><ele>441.0</ele><time>2026-04-04T11:30:57.313Z</time></trkpt><trkpt lat="45.728709" lon="9.3601346"><ele>442.0</ele><time>2026-04-04T11:30:59.313Z</time></trkpt><trkpt lat="45.728722" lon="9.3602868"><ele>443.0</ele><time>2026-04-04T11:31:02.313Z</time></trkpt><trkpt lat="45.728696" lon="9.3604121"><ele>444.0</ele><time>2026-04-04T11:31:04.313Z</time></trkpt><trkpt lat="45.7286653" lon="9.3605246"><ele>445.0</ele><time>2026-04-04T11:31:06.312Z</time></trkpt><trkpt lat="45.7286592" lon="9.3606368"><ele>445.00000000000006</ele><time>2026-04-04T11:31:08.313Z</time></trkpt><trkpt lat="45.728648" lon="9.3607654"><ele>445.0</ele><time>2026-04-04T11:31:10.313Z</time></trkpt><trkpt lat="45.7286163" lon="9.3608597"><ele>445.0</ele><time>2026-04-04T11:31:12.313Z</time></trkpt><trkpt lat="45.7285715" lon="9.3609684"><ele>445.0</ele><time>2026-04-04T11:31:14.312Z</time></trkpt><trkpt lat="45.728533" lon="9.3610827"><ele>445.00000000000006</ele><time>2026-04-04T11:31:16.313Z</time></trkpt><trkpt lat="45.7285118" lon="9.3611952"><ele>445.0</ele><time>2026-04-04T11:31:18.312Z</time></trkpt><trkpt lat="45.7285073" lon="9.3613094"><ele>439.8</ele><time>2026-04-04T11:31:20.313Z</time></trkpt><trkpt lat="45.7284859" lon="9.3614268"><ele>434.6</ele><time>2026-04-04T11:31:22.312Z</time></trkpt><trkpt lat="45.7284576" lon="9.3615528"><ele>429.4</ele><time>2026-04-04T11:31:24.313Z</time></trkpt><trkpt lat="45.7284553" lon="9.3616598"><ele>424.2</ele><time>2026-04-04T11:31:25.313Z</time></trkpt><trkpt lat="45.7285275" lon="9.3618784"><ele>419.0</ele><time>2026-04-04T11:31:26.313Z</time></trkpt><trkpt lat="45.7285171" lon="9.3620063"><ele>419.0</ele><time>2026-04-04T11:31:28.313Z</time></trkpt><trkpt lat="45.7285288" lon="9.3621359"><ele>419.0</ele><time>2026-04-04T11:31:30.313Z</time></trkpt><trkpt lat="45.7285714" lon="9.3622577"><ele>419.0</ele><time>2026-04-04T11:31:32.313Z</time></trkpt><trkpt lat="45.7285778" lon="9.3624182"><ele>419.0</ele><time>2026-04-04T11:31:34.313Z</time></trkpt><trkpt lat="45.7285343" lon="9.3625746"><ele>419.0</ele><time>2026-04-04T11:31:36.313Z</time></trkpt><trkpt lat="45.7284854" lon="9.3627275"><ele>416.4</ele><time>2026-04-04T11:31:38.313Z</time></trkpt><trkpt lat="45.7284704" lon="9.3628611"><ele>413.79999999999995</ele><time>2026-04-04T11:31:40.313Z</time></trkpt><trkpt lat="45.7284217" lon="9.3630097"><ele>411.20000000000005</ele><time>2026-04-04T11:31:42.313Z</time></trkpt><trkpt lat="45.7283968" lon="9.3630979"><ele>408.6</ele><time>2026-04-04T11:31:43.313Z</time></trkpt><trkpt lat="45.7283709" lon="9.3631867"><ele>406.0</ele><time>2026-04-04T11:31:44.312Z</time></trkpt><trkpt lat="45.7283472" lon="9.3633751"><ele>405.1666666666667</ele><time>2026-04-04T11:31:46.313Z</time></trkpt><trkpt lat="45.7283344" lon="9.3634713"><ele>404.33333333333337</ele><time>2026-04-04T11:31:47.313Z</time></trkpt><trkpt lat="45.7283308" lon="9.3635667"><ele>403.5</ele><time>2026-04-04T11:31:48.313Z</time></trkpt><trkpt lat="45.7282966" lon="9.3636968"><ele>402.66666666666663</ele><time>2026-04-04T11:31:50.707Z</time></trkpt><trkpt lat="45.7282605" lon="9.3638859"><ele>401.8333333333333</ele><time>2026-04-04T11:31:52.319Z</time></trkpt><trkpt lat="45.7282414" lon="9.363975"><ele>401.0</ele><time>2026-04-04T11:31:53.32Z</time></trkpt><trkpt lat="45.7281813" lon="9.364129"><ele>400.6</ele><time>2026-04-04T11:31:55.318Z</time></trkpt><trkpt lat="45.7281497" lon="9.3642188"><ele>400.20000000000005</ele><time>2026-04-04T11:31:56.318Z</time></trkpt><trkpt lat="45.7281082" lon="9.3644324"><ele>399.79999999999995</ele><time>2026-04-04T11:31:58.319Z</time></trkpt><trkpt lat="45.728081" lon="9.3645493"><ele>399.4</ele><time>2026-04-04T11:31:59.319Z</time></trkpt><trkpt lat="45.7280386" lon="9.3646329"><ele>399.0</ele><time>2026-04-04T11:32:00.319Z</time></trkpt><trkpt lat="45.7279929" lon="9.364716"><ele>399.6666666666667</ele><time>2026-04-04T11:32:01.318Z</time></trkpt><trkpt lat="45.7279491" lon="9.3647999"><ele>400.33333333333337</ele><time>2026-04-04T11:32:02.319Z</time></trkpt><trkpt lat="45.7278948" lon="9.3648801"><ele>401.0</ele><time>2026-04-04T11:32:03.319Z</time></trkpt><trkpt lat="45.7278545" lon="9.3649605"><ele>401.6666666666667</ele><time>2026-04-04T11:32:04.318Z</time></trkpt><trkpt lat="45.7278019" lon="9.3650992"><ele>402.33333333333337</ele><time>2026-04-04T11:32:06.319Z</time></trkpt><trkpt lat="45.7277458" lon="9.3652172"><ele>403.0</ele><time>2026-04-04T11:32:08.319Z</time></trkpt><trkpt lat="45.7276997" lon="9.3653145"><ele>398.4</ele><time>2026-04-04T11:32:10.319Z</time></trkpt><trkpt lat="45.7276485" lon="9.3654215"><ele>393.79999999999995</ele><time>2026-04-04T11:32:12.319Z</time></trkpt><trkpt lat="45.7276098" lon="9.3655558"><ele>389.2</ele><time>2026-04-04T11:32:14.319Z</time></trkpt><trkpt lat="45.727599" lon="9.3656598"><ele>384.6</ele><time>2026-04-04T11:32:16.319Z</time></trkpt><trkpt lat="45.7275865" lon="9.3658313"><ele>380.0</ele><time>2026-04-04T11:32:18.319Z</time></trkpt><trkpt lat="45.7275573" lon="9.3659703"><ele>380.0</ele><time>2026-04-04T11:32:20.319Z</time></trkpt><trkpt lat="45.7275236" lon="9.3661304"><ele>380.0</ele><time>2026-04-04T11:32:22.319Z</time></trkpt><trkpt lat="45.7274994" lon="9.3662206"><ele>380.0</ele><time>2026-04-04T11:32:23.318Z</time></trkpt><trkpt lat="45.7275158" lon="9.3663271"><ele>380.0</ele><time>2026-04-04T11:32:24.318Z</time></trkpt><trkpt lat="45.7275319" lon="9.3664385"><ele>380.0</ele><time>2026-04-04T11:32:25.318Z</time></trkpt><trkpt lat="45.7275748" lon="9.3665417"><ele>380.0</ele><time>2026-04-04T11:32:26.319Z</time></trkpt><trkpt lat="45.7275857" lon="9.3666517"><ele>380.5</ele><time>2026-04-04T11:32:27.318Z</time></trkpt><trkpt lat="45.7275904" lon="9.3667641"><ele>381.0</ele><time>2026-04-04T11:32:28.319Z</time></trkpt><trkpt lat="45.7275859" lon="9.3668617"><ele>381.5</ele><time>2026-04-04T11:32:29.318Z</time></trkpt><trkpt lat="45.727556" lon="9.366958"><ele>382.0</ele><time>2026-04-04T11:32:30.319Z</time></trkpt><trkpt lat="45.7275081" lon="9.3670343"><ele>382.5</ele><time>2026-04-04T11:32:31.319Z</time></trkpt><trkpt lat="45.7274244" lon="9.3671363"><ele>383.0</ele><time>2026-04-04T11:32:33.319Z</time></trkpt><trkpt lat="45.7273326" lon="9.3671765"><ele>383.0</ele><time>2026-04-04T11:32:35.319Z</time></trkpt><trkpt lat="45.727261" lon="9.3671937"><ele>383.0</ele><time>2026-04-04T11:32:37.318Z</time></trkpt><trkpt lat="45.7271636" lon="9.3672254"><ele>383.0</ele><time>2026-04-04T11:32:39.319Z</time></trkpt><trkpt lat="45.7270725" lon="9.3673072"><ele>383.0</ele><time>2026-04-04T11:32:41.319Z</time></trkpt><trkpt lat="45.7269884" lon="9.3674333"><ele>383.0</ele><time>2026-04-04T11:32:43.319Z</time></trkpt><trkpt lat="45.7269023" lon="9.3675422"><ele>381.4</ele><time>2026-04-04T11:32:45.319Z</time></trkpt><trkpt lat="45.7268706" lon="9.3676299"><ele>379.79999999999995</ele><time>2026-04-04T11:32:46.319Z</time></trkpt><trkpt lat="45.7267854" lon="9.3677418"><ele>378.2</ele><time>2026-04-04T11:32:48.319Z</time></trkpt><trkpt lat="45.7267064" lon="9.3678562"><ele>376.6</ele><time>2026-04-04T11:32:50.319Z</time></trkpt><trkpt lat="45.7266293" lon="9.3679393"><ele>375.0</ele><time>2026-04-04T11:32:52.319Z</time></trkpt><trkpt lat="45.7265496" lon="9.3680204"><ele>378.2</ele><time>2026-04-04T11:32:54.318Z</time></trkpt><trkpt lat="45.7264524" lon="9.3681044"><ele>381.4</ele><time>2026-04-04T11:32:56.319Z</time></trkpt><trkpt lat="45.7263733" lon="9.3682052"><ele>384.6</ele><time>2026-04-04T11:32:58.319Z</time></trkpt><trkpt lat="45.7263019" lon="9.3683016"><ele>387.8</ele><time>2026-04-04T11:33:00.319Z</time></trkpt><trkpt lat="45.7262708" lon="9.3683955"><ele>391.0</ele><time>2026-04-04T11:33:02.319Z</time></trkpt><trkpt lat="45.7263083" lon="9.3685469"><ele>391.0</ele><time>2026-04-04T11:33:04.319Z</time></trkpt><trkpt lat="45.7263327" lon="9.3686875"><ele>391.0</ele><time>2026-04-04T11:33:06.318Z</time></trkpt><trkpt lat="45.7264069" lon="9.3688116"><ele>391.0</ele><time>2026-04-04T11:33:08.319Z</time></trkpt><trkpt lat="45.726477" lon="9.3689583"><ele>391.0</ele><time>2026-04-04T11:33:10.318Z</time></trkpt><trkpt lat="45.7265467" lon="9.3690895"><ele>391.0</ele><time>2026-04-04T11:33:12.319Z</time></trkpt><trkpt lat="45.7265606" lon="9.3692393"><ele>391.0</ele><time>2026-04-04T11:33:14.318Z</time></trkpt><trkpt lat="45.7265576" lon="9.3693953"><ele>391.0</ele><time>2026-04-04T11:33:16.319Z</time></trkpt><trkpt lat="45.7265261" lon="9.369544"><ele>391.0</ele><time>2026-04-04T11:33:18.319Z</time></trkpt><trkpt lat="45.7264827" lon="9.3696794"><ele>391.0</ele><time>2026-04-04T11:33:20.318Z</time></trkpt><trkpt lat="45.7264153" lon="9.3697854"><ele>391.8</ele><time>2026-04-04T11:33:22.319Z</time></trkpt><trkpt lat="45.726321" lon="9.3698862"><ele>392.6</ele><time>2026-04-04T11:33:24.319Z</time></trkpt><trkpt lat="45.726269" lon="9.3700258"><ele>393.4</ele><time>2026-04-04T11:33:26.318Z</time></trkpt><trkpt lat="45.7262157" lon="9.3701878"><ele>394.2</ele><time>2026-04-04T11:33:28.319Z</time></trkpt><trkpt lat="45.7261854" lon="9.3702709"><ele>395.0</ele><time>2026-04-04T11:33:29.319Z</time></trkpt><trkpt lat="45.726134" lon="9.3703336"><ele>394.2</ele><time>2026-04-04T11:33:30.319Z</time></trkpt><trkpt lat="45.7260231" lon="9.3704035"><ele>393.4</ele><time>2026-04-04T11:33:32.319Z</time></trkpt><trkpt lat="45.7259126" lon="9.3704189"><ele>392.6</ele><time>2026-04-04T11:33:34.318Z</time></trkpt><trkpt lat="45.7258059" lon="9.3705031"><ele>391.8</ele><time>2026-04-04T11:33:36.319Z</time></trkpt><trkpt lat="45.7257357" lon="9.3705498"><ele>391.0</ele><time>2026-04-04T11:33:38.318Z</time></trkpt><trkpt lat="45.7256445" lon="9.3705944"><ele>391.0</ele><time>2026-04-04T11:33:40.319Z</time></trkpt><trkpt lat="45.7255308" lon="9.3706134"><ele>391.0</ele><time>2026-04-04T11:33:42.319Z</time></trkpt><trkpt lat="45.7254397" lon="9.3706877"><ele>391.0</ele><time>2026-04-04T11:33:44.319Z</time></trkpt><trkpt lat="45.7253943" lon="9.3708261"><ele>391.0</ele><time>2026-04-04T11:33:46.319Z</time></trkpt><trkpt lat="45.7253535" lon="9.3709543"><ele>391.0</ele><time>2026-04-04T11:33:48.319Z</time></trkpt><trkpt lat="45.7253401" lon="9.3710489"><ele>391.0</ele><time>2026-04-04T11:33:49.319Z</time></trkpt><trkpt lat="45.7253126" lon="9.3711945"><ele>391.0</ele><time>2026-04-04T11:33:51.318Z</time></trkpt><trkpt lat="45.7253348" lon="9.3712819"><ele>391.0</ele><time>2026-04-04T11:33:52.319Z</time></trkpt><trkpt lat="45.7253856" lon="9.3714149"><ele>391.0</ele><time>2026-04-04T11:33:54.319Z</time></trkpt><trkpt lat="45.7254034" lon="9.3715627"><ele>391.0</ele><time>2026-04-04T11:33:56.319Z</time></trkpt><trkpt lat="45.7254091" lon="9.3717064"><ele>392.20000000000005</ele><time>2026-04-04T11:33:58.318Z</time></trkpt><trkpt lat="45.7254364" lon="9.3718616"><ele>393.40000000000003</ele><time>2026-04-04T11:34:00.319Z</time></trkpt><trkpt lat="45.7254535" lon="9.3720083"><ele>394.6</ele><time>2026-04-04T11:34:02.319Z</time></trkpt><trkpt lat="45.725444" lon="9.3721513"><ele>395.8</ele><time>2026-04-04T11:34:04.319Z</time></trkpt><trkpt lat="45.7253813" lon="9.3722686"><ele>397.0</ele><time>2026-04-04T11:34:06.319Z</time></trkpt><trkpt lat="45.7253077" lon="9.3723807"><ele>392.8</ele><time>2026-04-04T11:34:08.319Z</time></trkpt><trkpt lat="45.7252202" lon="9.3724798"><ele>388.6</ele><time>2026-04-04T11:34:10.319Z</time></trkpt><trkpt lat="45.7251433" lon="9.372584"><ele>384.40000000000003</ele><time>2026-04-04T11:34:12.319Z</time></trkpt><trkpt lat="45.7250628" lon="9.3726979"><ele>380.20000000000005</ele><time>2026-04-04T11:34:14.319Z</time></trkpt><trkpt lat="45.7249887" lon="9.3728174"><ele>376.0</ele><time>2026-04-04T11:34:16.319Z</time></trkpt><trkpt lat="45.7249206" lon="9.3729308"><ele>376.0</ele><time>2026-04-04T11:34:18.319Z</time></trkpt><trkpt lat="45.7248269" lon="9.3730076"><ele>376.0</ele><time>2026-04-04T11:34:20.319Z</time></trkpt><trkpt lat="45.7247157" lon="9.3730606"><ele>376.0</ele><time>2026-04-04T11:34:22.319Z</time></trkpt><trkpt lat="45.7246016" lon="9.3731077"><ele>376.0</ele><time>2026-04-04T11:34:24.319Z</time></trkpt><trkpt lat="45.7244898" lon="9.3731352"><ele>377.20000000000005</ele><time>2026-04-04T11:34:26.319Z</time></trkpt><trkpt lat="45.7243835" lon="9.3731276"><ele>378.40000000000003</ele><time>2026-04-04T11:34:28.318Z</time></trkpt><trkpt lat="45.724278" lon="9.3730905"><ele>379.6</ele><time>2026-04-04T11:34:30.319Z</time></trkpt><trkpt lat="45.7241901" lon="9.3729937"><ele>380.8</ele><time>2026-04-04T11:34:32.319Z</time></trkpt><trkpt lat="45.7241002" lon="9.3729334"><ele>382.0</ele><time>2026-04-04T11:34:34.317Z</time></trkpt><trkpt lat="45.7240361" lon="9.3728855"><ele>379.16666666666663</ele><time>2026-04-04T11:34:35.319Z</time></trkpt><trkpt lat="45.7239876" lon="9.3728232"><ele>376.3333333333333</ele><time>2026-04-04T11:34:36.319Z</time></trkpt><trkpt lat="45.7239142" lon="9.3727917"><ele>373.5</ele><time>2026-04-04T11:34:37.319Z</time></trkpt><trkpt lat="45.7238538" lon="9.372759"><ele>370.6666666666667</ele><time>2026-04-04T11:34:38.319Z</time></trkpt><trkpt lat="45.7237888" lon="9.3727527"><ele>367.83333333333337</ele><time>2026-04-04T11:34:39.319Z</time></trkpt><trkpt lat="45.7236486" lon="9.372738"><ele>365.0</ele><time>2026-04-04T11:34:41.319Z</time></trkpt><trkpt lat="45.7235615" lon="9.3727407"><ele>364.8</ele><time>2026-04-04T11:34:42.319Z</time></trkpt><trkpt lat="45.7234775" lon="9.3727746"><ele>364.6</ele><time>2026-04-04T11:34:44.319Z</time></trkpt><trkpt lat="45.7234539" lon="9.372875"><ele>364.4</ele><time>2026-04-04T11:34:46.318Z</time></trkpt><trkpt lat="45.7233868" lon="9.3728936"><ele>364.2</ele><time>2026-04-04T11:34:51.319Z</time></trkpt><trkpt lat="45.7233406" lon="9.3727693"><ele>364.0</ele><time>2026-04-04T11:34:53.319Z</time></trkpt><trkpt lat="45.7233241" lon="9.3725909"><ele>364.0</ele><time>2026-04-04T11:34:55.319Z</time></trkpt><trkpt lat="45.7232975" lon="9.3724394"><ele>364.0</ele><time>2026-04-04T11:34:57.319Z</time></trkpt><trkpt lat="45.7232493" lon="9.3723597"><ele>364.0</ele><time>2026-04-04T11:34:58.319Z</time></trkpt><trkpt lat="45.7232094" lon="9.3722719"><ele>364.0</ele><time>2026-04-04T11:34:59.319Z</time></trkpt><trkpt lat="45.7231683" lon="9.3721795"><ele>364.0</ele><time>2026-04-04T11:35:00.319Z</time></trkpt><trkpt lat="45.7231276" lon="9.3720993"><ele>364.0</ele><time>2026-04-04T11:35:01.319Z</time></trkpt><trkpt lat="45.7230613" lon="9.3719659"><ele>362.16666666666663</ele><time>2026-04-04T11:35:03.319Z</time></trkpt><trkpt lat="45.7230178" lon="9.3718778"><ele>360.3333333333333</ele><time>2026-04-04T11:35:04.319Z</time></trkpt><trkpt lat="45.7229259" lon="9.3717548"><ele>358.5</ele><time>2026-04-04T11:35:06.318Z</time></trkpt><trkpt lat="45.7228713" lon="9.3716933"><ele>356.6666666666667</ele><time>2026-04-04T11:35:07.319Z</time></trkpt><trkpt lat="45.7228134" lon="9.3716386"><ele>354.83333333333337</ele><time>2026-04-04T11:35:08.319Z</time></trkpt><trkpt lat="45.7227587" lon="9.3715893"><ele>353.0</ele><time>2026-04-04T11:35:09.319Z</time></trkpt><trkpt lat="45.7226984" lon="9.3715474"><ele>352.4</ele><time>2026-04-04T11:35:10.319Z</time></trkpt><trkpt lat="45.7226353" lon="9.3715209"><ele>351.79999999999995</ele><time>2026-04-04T11:35:11.319Z</time></trkpt><trkpt lat="45.7225285" lon="9.3714675"><ele>351.2</ele><time>2026-04-04T11:35:13.319Z</time></trkpt><trkpt lat="45.72241" lon="9.371483"><ele>350.6</ele><time>2026-04-04T11:35:15.319Z</time></trkpt><trkpt lat="45.7223017" lon="9.3715394"><ele>350.0</ele><time>2026-04-04T11:35:17.319Z</time></trkpt><trkpt lat="45.7222224" lon="9.3715758"><ele>350.0</ele><time>2026-04-04T11:35:19.319Z</time></trkpt><trkpt lat="45.7221838" lon="9.3716817"><ele>350.0</ele><time>2026-04-04T11:35:21.319Z</time></trkpt><trkpt lat="45.7221891" lon="9.3718641"><ele>350.0</ele><time>2026-04-04T11:35:23.319Z</time></trkpt><trkpt lat="45.7221967" lon="9.372025"><ele>350.0</ele><time>2026-04-04T11:35:25.319Z</time></trkpt><trkpt lat="45.7222125" lon="9.3721163"><ele>350.0</ele><time>2026-04-04T11:35:26.318Z</time></trkpt><trkpt lat="45.7222631" lon="9.3722695"><ele>364.0</ele><time>2026-04-04T11:35:28.319Z</time></trkpt><trkpt lat="45.7232094" lon="9.3722719"><ele>361.79999999999995</ele><time>2026-04-04T11:34:59.319Z</time></trkpt><trkpt lat="45.7231683" lon="9.3721795"><ele>359.59999999999997</ele><time>2026-04-04T11:35:00.319Z</time></trkpt><trkpt lat="45.7231276" lon="9.3720993"><ele>357.4</ele><time>2026-04-04T11:35:01.319Z</time></trkpt><trkpt lat="45.7230613" lon="9.3719659"><ele>355.2</ele><time>2026-04-04T11:35:03.319Z</time></trkpt><trkpt lat="45.7230178" lon="9.3718778"><ele>353.0</ele><time>2026-04-04T11:35:04.319Z</time></trkpt><trkpt lat="45.7229259" lon="9.3717548"><ele>353.0</ele><time>2026-04-04T11:35:06.318Z</time></trkpt><trkpt lat="45.7228713" lon="9.3716933"><ele>353.0</ele><time>2026-04-04T11:35:07.319Z</time></trkpt><trkpt lat="45.7228134" lon="9.3716386"><ele>353.0</ele><time>2026-04-04T11:35:08.319Z</time></trkpt><trkpt lat="45.7227587" lon="9.3715893"><ele>353.0</ele><time>2026-04-04T11:35:09.319Z</time></trkpt><trkpt lat="45.7226984" lon="9.3715474"><ele>353.0</ele><time>2026-04-04T11:35:10.319Z</time></trkpt><trkpt lat="45.7226353" lon="9.3715209"><ele>353.0</ele><time>2026-04-04T11:35:11.319Z</time></trkpt><trkpt lat="45.7225285" lon="9.3714675"><ele>353.0</ele><time>2026-04-04T11:35:13.319Z</time></trkpt><trkpt lat="45.72241" lon="9.371483"><ele>352.4</ele><time>2026-04-04T11:35:15.319Z</time></trkpt><trkpt lat="45.7223017" lon="9.3715394"><ele>351.79999999999995</ele><time>2026-04-04T11:35:17.319Z</time></trkpt><trkpt lat="45.7222224" lon="9.3715758"><ele>351.2</ele><time>2026-04-04T11:35:19.319Z</time></trkpt><trkpt lat="45.7221838" lon="9.3716817"><ele>350.6</ele><time>2026-04-04T11:35:21.319Z</time></trkpt><trkpt lat="45.7221891" lon="9.3718641"><ele>350.0</ele><time>2026-04-04T11:35:23.319Z</time></trkpt><trkpt lat="45.7221967" lon="9.372025"><ele>350.0</ele><time>2026-04-04T11:35:25.319Z</time></trkpt><trkpt lat="45.7222125" lon="9.3721163"><ele>350.0</ele><time>2026-04-04T11:35:26.318Z</time></trkpt><trkpt lat="45.7222631" lon="9.3722695"><ele>350.0</ele><time>2026-04-04T11:35:28.319Z</time></trkpt><trkpt lat="45.7223205" lon="9.3724489"><ele>350.0</ele><time>2026-04-04T11:35:30.319Z</time></trkpt><trkpt lat="45.7223782" lon="9.3726004"><ele>350.0</ele><time>2026-04-04T11:35:32.318Z</time></trkpt><trkpt lat="45.7224164" lon="9.3726793"><ele>349.42857142857144</ele><time>2026-04-04T11:35:33.318Z</time></trkpt><trkpt lat="45.7224467" lon="9.3727609"><ele>348.8571428571429</ele><time>2026-04-04T11:35:34.319Z</time></trkpt><trkpt lat="45.7224858" lon="9.372841"><ele>348.2857142857143</ele><time>2026-04-04T11:35:35.319Z</time></trkpt><trkpt lat="45.7225247" lon="9.3729284"><ele>347.7142857142857</ele><time>2026-04-04T11:35:36.319Z</time></trkpt><trkpt lat="45.7225601" lon="9.3730051"><ele>347.14285714285717</ele><time>2026-04-04T11:35:37.318Z</time></trkpt><trkpt lat="45.7225891" lon="9.3730929"><ele>346.57142857142856</ele><time>2026-04-04T11:35:38.319Z</time></trkpt><trkpt lat="45.7226142" lon="9.3731848"><ele>346.0</ele><time>2026-04-04T11:35:39.319Z</time></trkpt><trkpt lat="45.7226255" lon="9.3733628"><ele>345.3333333333333</ele><time>2026-04-04T11:35:41.318Z</time></trkpt><trkpt lat="45.7226261" lon="9.3734717"><ele>344.66666666666663</ele><time>2026-04-04T11:35:42.319Z</time></trkpt><trkpt lat="45.7226075" lon="9.3735678"><ele>344.0</ele><time>2026-04-04T11:35:43.318Z</time></trkpt><trkpt lat="45.7225788" lon="9.3736586"><ele>343.3333333333333</ele><time>2026-04-04T11:35:44.319Z</time></trkpt><trkpt lat="45.7224974" lon="9.3737775"><ele>342.6666666666667</ele><time>2026-04-04T11:35:46.319Z</time></trkpt><trkpt lat="45.7224484" lon="9.3738356"><ele>342.0</ele><time>2026-04-04T11:35:47.318Z</time></trkpt><trkpt lat="45.7223902" lon="9.373871"><ele>343.40000000000003</ele><time>2026-04-04T11:35:48.319Z</time></trkpt><trkpt lat="45.7222771" lon="9.3739141"><ele>344.8</ele><time>2026-04-04T11:35:50.319Z</time></trkpt><trkpt lat="45.7221626" lon="9.3739332"><ele>346.2</ele><time>2026-04-04T11:35:52.319Z</time></trkpt><trkpt lat="45.7220555" lon="9.3739346"><ele>347.6</ele><time>2026-04-04T11:35:54.318Z</time></trkpt><trkpt lat="45.7219486" lon="9.3739289"><ele>349.0</ele><time>2026-04-04T11:35:56.319Z</time></trkpt><trkpt lat="45.7218563" lon="9.373924"><ele>349.0</ele><time>2026-04-04T11:35:58.319Z</time></trkpt><trkpt lat="45.7217725" lon="9.3739368"><ele>349.0</ele><time>2026-04-04T11:36:00.319Z</time></trkpt><trkpt lat="45.7217065" lon="9.3740322"><ele>349.0</ele><time>2026-04-04T11:36:02.319Z</time></trkpt><trkpt lat="45.7216431" lon="9.3740938"><ele>349.0</ele><time>2026-04-04T11:36:04.318Z</time></trkpt><trkpt lat="45.7215799" lon="9.3741817"><ele>349.0</ele><time>2026-04-04T11:36:06.319Z</time></trkpt><trkpt lat="45.721507" lon="9.3742473"><ele>349.0</ele><time>2026-04-04T11:36:08.319Z</time></trkpt><trkpt lat="45.7214493" lon="9.3743567"><ele>349.0</ele><time>2026-04-04T11:36:10.319Z</time></trkpt><trkpt lat="45.7213916" lon="9.3744847"><ele>349.0</ele><time>2026-04-04T11:36:12.319Z</time></trkpt><trkpt lat="45.721297" lon="9.3745637"><ele>349.0</ele><time>2026-04-04T11:36:14.319Z</time></trkpt><trkpt lat="45.7212391" lon="9.3746429"><ele>349.0</ele><time>2026-04-04T11:36:16.318Z</time></trkpt><trkpt lat="45.7211482" lon="9.3746984"><ele>349.0</ele><time>2026-04-04T11:36:18.319Z</time></trkpt><trkpt lat="45.7210634" lon="9.3748217"><ele>348.4</ele><time>2026-04-04T11:36:21.318Z</time></trkpt><trkpt lat="45.7209769" lon="9.3748939"><ele>347.79999999999995</ele><time>2026-04-04T11:36:23.318Z</time></trkpt><trkpt lat="45.7208905" lon="9.3748964"><ele>347.20000000000005</ele><time>2026-04-04T11:36:25.319Z</time></trkpt><trkpt lat="45.7207889" lon="9.3748412"><ele>346.6</ele><time>2026-04-04T11:36:27.319Z</time></trkpt><trkpt lat="45.7206725" lon="9.3748077"><ele>346.0</ele><time>2026-04-04T11:36:29.319Z</time></trkpt><trkpt lat="45.720543" lon="9.3747895"><ele>346.0</ele><time>2026-04-04T11:36:31.319Z</time></trkpt><trkpt lat="45.7204335" lon="9.37474"><ele>346.0</ele><time>2026-04-04T11:36:33.319Z</time></trkpt><trkpt lat="45.7203544" lon="9.3747239"><ele>346.0</ele><time>2026-04-04T11:36:34.319Z</time></trkpt><trkpt lat="45.7202826" lon="9.3747241"><ele>346.0</ele><time>2026-04-04T11:36:35.318Z</time></trkpt><trkpt lat="45.720195" lon="9.3747442"><ele>346.0</ele><time>2026-04-04T11:36:36.319Z</time></trkpt><trkpt lat="45.7200243" lon="9.3747807"><ele>345.0</ele><time>2026-04-04T11:36:38.319Z</time></trkpt><trkpt lat="45.7199376" lon="9.3748099"><ele>344.0</ele><time>2026-04-04T11:36:39.319Z</time></trkpt><trkpt lat="45.7198531" lon="9.3748273"><ele>343.0</ele><time>2026-04-04T11:36:40.319Z</time></trkpt><trkpt lat="45.7197805" lon="9.3748397"><ele>342.0</ele><time>2026-04-04T11:36:41.319Z</time></trkpt><trkpt lat="45.7197175" lon="9.3748605"><ele>341.0</ele><time>2026-04-04T11:36:42.319Z</time></trkpt><trkpt lat="45.7196441" lon="9.374886"><ele>340.0</ele><time>2026-04-04T11:36:43.318Z</time></trkpt><trkpt lat="45.7195461" lon="9.3748655"><ele>340.0</ele><time>2026-04-04T11:36:44.319Z</time></trkpt><trkpt lat="45.719463" lon="9.3748217"><ele>340.0</ele><time>2026-04-04T11:36:45.319Z</time></trkpt><trkpt lat="45.7193574" lon="9.3747735"><ele>340.0</ele><time>2026-04-04T11:36:46.318Z</time></trkpt><trkpt lat="45.7192859" lon="9.374734"><ele>340.0</ele><time>2026-04-04T11:36:47.318Z</time></trkpt><trkpt lat="45.71919" lon="9.3746717"><ele>340.0</ele><time>2026-04-04T11:36:48.319Z</time></trkpt><trkpt lat="45.7191238" lon="9.374604"><ele>338.8</ele><time>2026-04-04T11:36:49.319Z</time></trkpt><trkpt lat="45.719035" lon="9.3745615"><ele>337.6</ele><time>2026-04-04T11:36:50.319Z</time></trkpt><trkpt lat="45.71896" lon="9.3745371"><ele>336.4</ele><time>2026-04-04T11:36:51.319Z</time></trkpt><trkpt lat="45.7188745" lon="9.3744922"><ele>335.2</ele><time>2026-04-04T11:36:52.319Z</time></trkpt><trkpt lat="45.7187681" lon="9.3744663"><ele>334.0</ele><time>2026-04-04T11:36:53.318Z</time></trkpt><trkpt lat="45.7186803" lon="9.3744427"><ele>334.0</ele><time>2026-04-04T11:36:54.319Z</time></trkpt><trkpt lat="45.7186018" lon="9.3743944"><ele>334.0</ele><time>2026-04-04T11:36:55.318Z</time></trkpt><trkpt lat="45.7185261" lon="9.3744006"><ele>334.0</ele><time>2026-04-04T11:36:56.319Z</time></trkpt><trkpt lat="45.718434" lon="9.3743938"><ele>334.0</ele><time>2026-04-04T11:36:57.319Z</time></trkpt><trkpt lat="45.7183719" lon="9.3743781"><ele>334.0</ele><time>2026-04-04T11:36:58.319Z</time></trkpt><trkpt lat="45.718296" lon="9.3742288"><ele>334.0</ele><time>2026-04-04T11:37:00.319Z</time></trkpt><trkpt lat="45.718301" lon="9.3740524"><ele>331.0</ele><time>2026-04-04T11:37:02.319Z</time></trkpt><trkpt lat="45.7182782" lon="9.373965"><ele>328.0</ele><time>2026-04-04T11:37:03.319Z</time></trkpt><trkpt lat="45.7182167" lon="9.3738184"><ele>325.0</ele><time>2026-04-04T11:37:05.319Z</time></trkpt><trkpt lat="45.7181422" lon="9.3737763"><ele>322.0</ele><time>2026-04-04T11:37:06.318Z</time></trkpt><trkpt lat="45.7180562" lon="9.3737295"><ele>319.0</ele><time>2026-04-04T11:37:07.319Z</time></trkpt><trkpt lat="45.7179823" lon="9.3737026"><ele>316.0</ele><time>2026-04-04T11:37:08.319Z</time></trkpt><trkpt lat="45.7179019" lon="9.3736484"><ele>315.6</ele><time>2026-04-04T11:37:09.319Z</time></trkpt><trkpt lat="45.7178235" lon="9.3735791"><ele>315.20000000000005</ele><time>2026-04-04T11:37:10.319Z</time></trkpt><trkpt lat="45.7177411" lon="9.3735371"><ele>314.79999999999995</ele><time>2026-04-04T11:37:11.318Z</time></trkpt><trkpt lat="45.7176502" lon="9.3735166"><ele>314.4</ele><time>2026-04-04T11:37:12.318Z</time></trkpt><trkpt lat="45.7175681" lon="9.3734524"><ele>314.0</ele><time>2026-04-04T11:37:13.319Z</time></trkpt><trkpt lat="45.7174832" lon="9.3733836"><ele>312.1666666666667</ele><time>2026-04-04T11:37:14.319Z</time></trkpt><trkpt lat="45.7173893" lon="9.3732988"><ele>310.33333333333337</ele><time>2026-04-04T11:37:15.319Z</time></trkpt><trkpt lat="45.7173169" lon="9.373223"><ele>308.5</ele><time>2026-04-04T11:37:16.318Z</time></trkpt><trkpt lat="45.7172437" lon="9.3731473"><ele>306.6666666666667</ele><time>2026-04-04T11:37:17.319Z</time></trkpt><trkpt lat="45.7171843" lon="9.3731013"><ele>304.8333333333333</ele><time>2026-04-04T11:37:18.319Z</time></trkpt><trkpt lat="45.7171128" lon="9.3730652"><ele>303.0</ele><time>2026-04-04T11:37:19.318Z</time></trkpt><trkpt lat="45.7169906" lon="9.3731746"><ele>303.0</ele><time>2026-04-04T11:37:21.319Z</time></trkpt><trkpt lat="45.7169444" lon="9.3732488"><ele>303.0</ele><time>2026-04-04T11:37:22.319Z</time></trkpt><trkpt lat="45.7168938" lon="9.3733309"><ele>303.0</ele><time>2026-04-04T11:37:23.318Z</time></trkpt><trkpt lat="45.7168501" lon="9.3734256"><ele>303.0</ele><time>2026-04-04T11:37:24.319Z</time></trkpt><trkpt lat="45.7168083" lon="9.3734998"><ele>303.0</ele><time>2026-04-04T11:37:25.319Z</time></trkpt><trkpt lat="45.7167295" lon="9.3736596"><ele>303.0</ele><time>2026-04-04T11:37:27.319Z</time></trkpt><trkpt lat="45.718434" lon="9.3743938"><ele>305.2</ele><time>2026-04-04T11:36:57.319Z</time></trkpt><trkpt lat="45.7183719" lon="9.3743781"><ele>307.4</ele><time>2026-04-04T11:36:58.319Z</time></trkpt><trkpt lat="45.718296" lon="9.3742288"><ele>309.59999999999997</ele><time>2026-04-04T11:37:00.319Z</time></trkpt><trkpt lat="45.718301" lon="9.3740524"><ele>311.8</ele><time>2026-04-04T11:37:02.319Z</time></trkpt><trkpt lat="45.7182782" lon="9.373965"><ele>314.0</ele><time>2026-04-04T11:37:03.319Z</time></trkpt><trkpt lat="45.7182167" lon="9.3738184"><ele>314.0</ele><time>2026-04-04T11:37:05.319Z</time></trkpt><trkpt lat="45.7181422" lon="9.3737763"><ele>314.0</ele><time>2026-04-04T11:37:06.318Z</time></trkpt><trkpt lat="45.7180562" lon="9.3737295"><ele>314.0</ele><time>2026-04-04T11:37:07.319Z</time></trkpt><trkpt lat="45.7179823" lon="9.3737026"><ele>314.0</ele><time>2026-04-04T11:37:08.319Z</time></trkpt><trkpt lat="45.7179019" lon="9.3736484"><ele>314.0</ele><time>2026-04-04T11:37:09.319Z</time></trkpt><trkpt lat="45.7178235" lon="9.3735791"><ele>314.0</ele><time>2026-04-04T11:37:10.319Z</time></trkpt><trkpt lat="45.7177411" lon="9.3735371"><ele>311.8</ele><time>2026-04-04T11:37:11.318Z</time></trkpt><trkpt lat="45.7176502" lon="9.3735166"><ele>309.59999999999997</ele><time>2026-04-04T11:37:12.318Z</time></trkpt><trkpt lat="45.7175681" lon="9.3734524"><ele>307.4</ele><time>2026-04-04T11:37:13.319Z</time></trkpt><trkpt lat="45.7174832" lon="9.3733836"><ele>305.2</ele><time>2026-04-04T11:37:14.319Z</time></trkpt><trkpt lat="45.7173893" lon="9.3732988"><ele>303.0</ele><time>2026-04-04T11:37:15.319Z</time></trkpt><trkpt lat="45.7173169" lon="9.373223"><ele>303.0</ele><time>2026-04-04T11:37:16.318Z</time></trkpt><trkpt lat="45.7172437" lon="9.3731473"><ele>303.0</ele><time>2026-04-04T11:37:17.319Z</time></trkpt><trkpt lat="45.7171843" lon="9.3731013"><ele>303.0</ele><time>2026-04-04T11:37:18.319Z</time></trkpt><trkpt lat="45.7171128" lon="9.3730652"><ele>303.0</ele><time>2026-04-04T11:37:19.318Z</time></trkpt><trkpt lat="45.7169906" lon="9.3731746"><ele>303.0</ele><time>2026-04-04T11:37:21.319Z</time></trkpt><trkpt lat="45.7169444" lon="9.3732488"><ele>303.0</ele><time>2026-04-04T11:37:22.319Z</time></trkpt><trkpt lat="45.7168938" lon="9.3733309"><ele>302.0</ele><time>2026-04-04T11:37:23.318Z</time></trkpt><trkpt lat="45.7168501" lon="9.3734256"><ele>301.0</ele><time>2026-04-04T11:37:24.319Z</time></trkpt><trkpt lat="45.7168083" lon="9.3734998"><ele>300.0</ele><time>2026-04-04T11:37:25.319Z</time></trkpt><trkpt lat="45.7167295" lon="9.3736596"><ele>299.0</ele><time>2026-04-04T11:37:27.319Z</time></trkpt><trkpt lat="45.7166691" lon="9.3737221"><ele>298.0</ele><time>2026-04-04T11:37:28.318Z</time></trkpt><trkpt lat="45.7166062" lon="9.3737784"><ele>297.0</ele><time>2026-04-04T11:37:29.318Z</time></trkpt><trkpt lat="45.7165309" lon="9.3738179"><ele>297.0</ele><time>2026-04-04T11:37:30.319Z</time></trkpt><trkpt lat="45.716462" lon="9.3738484"><ele>297.0</ele><time>2026-04-04T11:37:31.319Z</time></trkpt><trkpt lat="45.7163953" lon="9.3738854"><ele>297.0</ele><time>2026-04-04T11:37:32.318Z</time></trkpt><trkpt lat="45.7163342" lon="9.3739271"><ele>297.0</ele><time>2026-04-04T11:37:33.319Z</time></trkpt><trkpt lat="45.716252" lon="9.3739536"><ele>297.0</ele><time>2026-04-04T11:37:34.318Z</time></trkpt><trkpt lat="45.7161316" lon="9.3740234"><ele>297.0</ele><time>2026-04-04T11:37:36.319Z</time></trkpt><trkpt lat="45.7160162" lon="9.3741086"><ele>296.6666666666667</ele><time>2026-04-04T11:37:38.319Z</time></trkpt><trkpt lat="45.7159482" lon="9.3741566"><ele>296.3333333333333</ele><time>2026-04-04T11:37:39.318Z</time></trkpt><trkpt lat="45.7158887" lon="9.3742087"><ele>296.0</ele><time>2026-04-04T11:37:40.319Z</time></trkpt><trkpt lat="45.7158306" lon="9.3742676"><ele>295.66666666666663</ele><time>2026-04-04T11:37:41.319Z</time></trkpt><trkpt lat="45.715772" lon="9.3743297"><ele>295.3333333333333</ele><time>2026-04-04T11:37:42.319Z</time></trkpt><trkpt lat="45.715685" lon="9.3744621"><ele>295.0</ele><time>2026-04-04T11:37:44.319Z</time></trkpt><trkpt lat="45.7156418" lon="9.3745432"><ele>295.0</ele><time>2026-04-04T11:37:45.319Z</time></trkpt><trkpt lat="45.7155894" lon="9.3747151"><ele>295.0</ele><time>2026-04-04T11:37:47.319Z</time></trkpt><trkpt lat="45.7155664" lon="9.3748012"><ele>295.0</ele><time>2026-04-04T11:37:48.319Z</time></trkpt><trkpt lat="45.7155366" lon="9.374896"><ele>295.0</ele><time>2026-04-04T11:37:49.319Z</time></trkpt><trkpt lat="45.7155141" lon="9.3749879"><ele>295.0</ele><time>2026-04-04T11:37:50.319Z</time></trkpt><trkpt lat="45.7154955" lon="9.3750834"><ele>295.0</ele><time>2026-04-04T11:37:51.318Z</time></trkpt><trkpt lat="45.7154759" lon="9.3751714"><ele>295.00000000000006</ele><time>2026-04-04T11:37:52.319Z</time></trkpt><trkpt lat="45.7154523" lon="9.3752662"><ele>295.0</ele><time>2026-04-04T11:37:53.319Z</time></trkpt><trkpt lat="45.7154225" lon="9.375364"><ele>295.0</ele><time>2026-04-04T11:37:54.319Z</time></trkpt><trkpt lat="45.7153951" lon="9.3754491"><ele>295.0</ele><time>2026-04-04T11:37:55.319Z</time></trkpt><trkpt lat="45.7153623" lon="9.3755391"><ele>295.0</ele><time>2026-04-04T11:37:56.319Z</time></trkpt><trkpt lat="45.7153304" lon="9.3756233"><ele>295.00000000000006</ele><time>2026-04-04T11:37:57.319Z</time></trkpt><trkpt lat="45.7152991" lon="9.3757051"><ele>295.0</ele><time>2026-04-04T11:37:58.319Z</time></trkpt><trkpt lat="45.7152658" lon="9.3758055"><ele>294.66666666666663</ele><time>2026-04-04T11:37:59.319Z</time></trkpt><trkpt lat="45.7152581" lon="9.3758971"><ele>294.3333333333333</ele><time>2026-04-04T11:38:00.319Z</time></trkpt><trkpt lat="45.7151915" lon="9.3760702"><ele>294.0</ele><time>2026-04-04T11:38:02.318Z</time></trkpt><trkpt lat="45.7151622" lon="9.3761668"><ele>293.6666666666667</ele><time>2026-04-04T11:38:03.318Z</time></trkpt><trkpt lat="45.7151334" lon="9.3762597"><ele>293.33333333333337</ele><time>2026-04-04T11:38:04.318Z</time></trkpt><trkpt lat="45.715105" lon="9.3763423"><ele>293.0</ele><time>2026-04-04T11:38:05.318Z</time></trkpt><trkpt lat="45.7150647" lon="9.376443"><ele>292.6666666666667</ele><time>2026-04-04T11:38:06.318Z</time></trkpt><trkpt lat="45.7150353" lon="9.3765303"><ele>292.33333333333337</ele><time>2026-04-04T11:38:07.319Z</time></trkpt><trkpt lat="45.7149987" lon="9.3766135"><ele>292.0</ele><time>2026-04-04T11:38:08.319Z</time></trkpt><trkpt lat="45.7149728" lon="9.3767018"><ele>291.6666666666667</ele><time>2026-04-04T11:38:09.319Z</time></trkpt><trkpt lat="45.7149513" lon="9.3768093"><ele>291.3333333333333</ele><time>2026-04-04T11:38:10.319Z</time></trkpt><trkpt lat="45.7149261" lon="9.3768996"><ele>291.0</ele><time>2026-04-04T11:38:11.318Z</time></trkpt><trkpt lat="45.7148714" lon="9.3770876"><ele>291.0</ele><time>2026-04-04T11:38:13.319Z</time></trkpt><trkpt lat="45.714843" lon="9.3771738"><ele>291.0</ele><time>2026-04-04T11:38:14.319Z</time></trkpt><trkpt lat="45.7148105" lon="9.3772608"><ele>291.0</ele><time>2026-04-04T11:38:15.318Z</time></trkpt><trkpt lat="45.7147803" lon="9.3773486"><ele>291.0</ele><time>2026-04-04T11:38:16.319Z</time></trkpt><trkpt lat="45.7147448" lon="9.377453"><ele>291.0</ele><time>2026-04-04T11:38:17.319Z</time></trkpt><trkpt lat="45.7147077" lon="9.3775502"><ele>291.0</ele><time>2026-04-04T11:38:18.319Z</time></trkpt><trkpt lat="45.7146796" lon="9.3776409"><ele>291.0</ele><time>2026-04-04T11:38:19.318Z</time></trkpt><trkpt lat="45.7146587" lon="9.3777302"><ele>291.0</ele><time>2026-04-04T11:38:20.318Z</time></trkpt><trkpt lat="45.714634" lon="9.3778167"><ele>291.0</ele><time>2026-04-04T11:38:21.319Z</time></trkpt><trkpt lat="45.7145711" lon="9.3779497"><ele>291.0</ele><time>2026-04-04T11:38:23.319Z</time></trkpt><trkpt lat="45.7145342" lon="9.3780477"><ele>291.0</ele><time>2026-04-04T11:38:24.319Z</time></trkpt><trkpt lat="45.714499" lon="9.378148"><ele>291.0</ele><time>2026-04-04T11:38:25.319Z</time></trkpt><trkpt lat="45.7144302" lon="9.3783015"><ele>291.1428571428571</ele><time>2026-04-04T11:38:27.319Z</time></trkpt><trkpt lat="45.7143971" lon="9.3784004"><ele>291.2857142857143</ele><time>2026-04-04T11:38:28.318Z</time></trkpt><trkpt lat="45.7143722" lon="9.3785011"><ele>291.42857142857144</ele><time>2026-04-04T11:38:29.318Z</time></trkpt><trkpt lat="45.7143464" lon="9.3785964"><ele>291.57142857142856</ele><time>2026-04-04T11:38:30.319Z</time></trkpt><trkpt lat="45.7143158" lon="9.3786897"><ele>291.7142857142857</ele><time>2026-04-04T11:38:31.319Z</time></trkpt><trkpt lat="45.7142991" lon="9.3787778"><ele>291.85714285714283</ele><time>2026-04-04T11:38:32.319Z</time></trkpt><trkpt lat="45.7142783" lon="9.3788758"><ele>292.0</ele><time>2026-04-04T11:38:33.319Z</time></trkpt><trkpt lat="45.7142508" lon="9.3789746"><ele>291.66666666666663</ele><time>2026-04-04T11:38:34.319Z</time></trkpt><trkpt lat="45.7142083" lon="9.3790877"><ele>291.3333333333333</ele><time>2026-04-04T11:38:35.319Z</time></trkpt><trkpt lat="45.7141691" lon="9.379187"><ele>291.0</ele><time>2026-04-04T11:38:36.319Z</time></trkpt><trkpt lat="45.7141525" lon="9.3792821"><ele>290.6666666666667</ele><time>2026-04-04T11:38:37.319Z</time></trkpt><trkpt lat="45.7141021" lon="9.3794393"><ele>290.33333333333337</ele><time>2026-04-04T11:38:39.318Z</time></trkpt><trkpt lat="45.7140717" lon="9.3795301"><ele>290.0</ele><time>2026-04-04T11:38:40.319Z</time></trkpt><trkpt lat="45.7140045" lon="9.3796651"><ele>290.33333333333337</ele><time>2026-04-04T11:38:42.317Z</time></trkpt><trkpt lat="45.7139716" lon="9.3797533"><ele>290.6666666666667</ele><time>2026-04-04T11:38:43.319Z</time></trkpt><trkpt lat="45.7139319" lon="9.3798634"><ele>291.0</ele><time>2026-04-04T11:38:44.319Z</time></trkpt><trkpt lat="45.7139054" lon="9.379955"><ele>291.3333333333333</ele><time>2026-04-04T11:38:45.319Z</time></trkpt><trkpt lat="45.7138475" lon="9.3800908"><ele>291.66666666666663</ele><time>2026-04-04T11:38:47.319Z</time></trkpt><trkpt lat="45.7138134" lon="9.3801786"><ele>292.0</ele><time>2026-04-04T11:38:48.319Z</time></trkpt><trkpt lat="45.7137668" lon="9.3803343"><ele>292.0</ele><time>2026-04-04T11:38:50.319Z</time></trkpt><trkpt lat="45.7137572" lon="9.3804288"><ele>292.0</ele><time>2026-04-04T11:38:51.319Z</time></trkpt><trkpt lat="45.7137228" lon="9.3805532"><ele>292.0</ele><time>2026-04-04T11:38:53.318Z</time></trkpt><trkpt lat="45.7136744" lon="9.3806926"><ele>292.0</ele><time>2026-04-04T11:38:55.319Z</time></trkpt><trkpt lat="45.7136266" lon="9.3807769"><ele>292.0</ele><time>2026-04-04T11:38:56.319Z</time></trkpt><trkpt lat="45.7135557" lon="9.3807735"><ele>292.0</ele><time>2026-04-04T11:38:57.319Z</time></trkpt><trkpt lat="45.7134404" lon="9.3808169"><ele>293.0</ele><time>2026-04-04T11:38:59.319Z</time></trkpt><trkpt lat="45.7133611" lon="9.3808493"><ele>294.0</ele><time>2026-04-04T11:39:01.318Z</time></trkpt><trkpt lat="45.7131351" lon="9.3809689"><ele>295.0</ele><time>2026-04-04T11:39:08.319Z</time></trkpt><trkpt lat="45.7130095" lon="9.3810195"><ele>295.0</ele><time>2026-04-04T11:39:10.319Z</time></trkpt><trkpt lat="45.7129296" lon="9.3810371"><ele>295.0</ele><time>2026-04-04T11:39:11.319Z</time></trkpt><trkpt lat="45.7128288" lon="9.3810497"><ele>295.0</ele><time>2026-04-04T11:39:13.319Z</time></trkpt><trkpt lat="45.7127651" lon="9.381056"><ele>295.0</ele><time>2026-04-04T11:39:14.319Z</time></trkpt><trkpt lat="45.7127064" lon="9.3810913"><ele>295.0</ele><time>2026-04-04T11:39:15.319Z</time></trkpt><trkpt lat="45.7126041" lon="9.3811432"><ele>295.0</ele><time>2026-04-04T11:39:17.319Z</time></trkpt><trkpt lat="45.7125312" lon="9.3811689"><ele>295.0</ele><time>2026-04-04T11:39:18.319Z</time></trkpt><trkpt lat="45.7124213" lon="9.3812245"><ele>295.0</ele><time>2026-04-04T11:39:20.319Z</time></trkpt><trkpt lat="45.7123418" lon="9.3812665"><ele>295.0</ele><time>2026-04-04T11:39:21.319Z</time></trkpt><trkpt lat="45.7122374" lon="9.3813538"><ele>295.0</ele><time>2026-04-04T11:39:23.319Z</time></trkpt><trkpt lat="45.7121805" lon="9.3814113"><ele>295.0</ele><time>2026-04-04T11:39:24.319Z</time></trkpt><trkpt lat="45.7121226" lon="9.3814646"><ele>295.5</ele><time>2026-04-04T11:39:25.319Z</time></trkpt><trkpt lat="45.7120718" lon="9.3815381"><ele>296.0</ele><time>2026-04-04T11:39:26.319Z</time></trkpt><trkpt lat="45.7120551" lon="9.3816374"><ele>296.5</ele><time>2026-04-04T11:39:27.318Z</time></trkpt><trkpt lat="45.7120037" lon="9.381704"><ele>297.0</ele><time>2026-04-04T11:39:28.319Z</time></trkpt><trkpt lat="45.7119348" lon="9.3817471"><ele>297.5</ele><time>2026-04-04T11:39:29.319Z</time></trkpt><trkpt lat="45.7118687" lon="9.3818587"><ele>298.0</ele><time>2026-04-04T11:39:31.319Z</time></trkpt><trkpt lat="45.7118106" lon="9.3819107"><ele>298.0</ele><time>2026-04-04T11:39:32.319Z</time></trkpt><trkpt lat="45.7117341" lon="9.3820436"><ele>298.0</ele><time>2026-04-04T11:39:34.318Z</time></trkpt><trkpt lat="45.711659" lon="9.3821755"><ele>298.0</ele><time>2026-04-04T11:39:36.319Z</time></trkpt><trkpt lat="45.7116787" lon="9.3822958"><ele>298.0</ele><time>2026-04-04T11:39:37.318Z</time></trkpt><trkpt lat="45.7116203" lon="9.382402"><ele>298.0</ele><time>2026-04-04T11:39:39.318Z</time></trkpt><trkpt lat="45.7115637" lon="9.3824504"><ele>298.0</ele><time>2026-04-04T11:39:40.319Z</time></trkpt><trkpt lat="45.7115214" lon="9.382533"><ele>298.0</ele><time>2026-04-04T11:39:41.319Z</time></trkpt><trkpt lat="45.7115008" lon="9.3826447"><ele>298.0</ele><time>2026-04-04T11:39:42.319Z</time></trkpt><trkpt lat="45.7114434" lon="9.3828027"><ele>298.0</ele><time>2026-04-04T11:39:44.319Z</time></trkpt><trkpt lat="45.7113873" lon="9.38295"><ele>298.0</ele><time>2026-04-04T11:39:46.319Z</time></trkpt><trkpt lat="45.7113379" lon="9.3830313"><ele>298.0</ele><time>2026-04-04T11:39:47.319Z</time></trkpt><trkpt lat="45.711251" lon="9.3831607"><ele>298.0</ele><time>2026-04-04T11:39:49.319Z</time></trkpt><trkpt lat="45.711255" lon="9.3832728"><ele>298.0</ele><time>2026-04-04T11:39:50.319Z</time></trkpt><trkpt lat="45.7111932" lon="9.3833656"><ele>298.0</ele><time>2026-04-04T11:39:52.319Z</time></trkpt><trkpt lat="45.7111193" lon="9.3834833"><ele>298.0</ele><time>2026-04-04T11:39:54.318Z</time></trkpt><trkpt lat="45.711049" lon="9.3835683"><ele>297.75</ele><time>2026-04-04T11:39:55.319Z</time></trkpt><trkpt lat="45.7109743" lon="9.3836952"><ele>297.5</ele><time>2026-04-04T11:39:57.318Z</time></trkpt><trkpt lat="45.7108895" lon="9.3838087"><ele>297.25</ele><time>2026-04-04T11:39:59.318Z</time></trkpt><trkpt lat="45.7108373" lon="9.3839421"><ele>297.0</ele><time>2026-04-04T11:40:01.319Z</time></trkpt><trkpt lat="45.7108064" lon="9.3841072"><ele>298.0</ele><time>2026-04-04T11:40:03.319Z</time></trkpt><trkpt lat="45.7107703" lon="9.3842453"><ele>299.0</ele><time>2026-04-04T11:40:05.318Z</time></trkpt><trkpt lat="45.7107376" lon="9.3843247"><ele>300.0</ele><time>2026-04-04T11:40:06.319Z</time></trkpt><trkpt lat="45.7106736" lon="9.3843997"><ele>301.0</ele><time>2026-04-04T11:40:07.318Z</time></trkpt><trkpt lat="45.7106215" lon="9.3845433"><ele>302.0</ele><time>2026-04-04T11:40:09.318Z</time></trkpt><trkpt lat="45.7105616" lon="9.3846697"><ele>302.0</ele><time>2026-04-04T11:40:11.319Z</time></trkpt><trkpt lat="45.7105282" lon="9.3847534"><ele>302.0</ele><time>2026-04-04T11:40:12.319Z</time></trkpt><trkpt lat="45.7104853" lon="9.3848491"><ele>302.0</ele><time>2026-04-04T11:40:13.319Z</time></trkpt><trkpt lat="45.7104064" lon="9.3849431"><ele>302.0</ele><time>2026-04-04T11:40:15.319Z</time></trkpt><trkpt lat="45.7103499" lon="9.3850691"><ele>302.0</ele><time>2026-04-04T11:40:17.318Z</time></trkpt><trkpt lat="45.7102863" lon="9.385125"><ele>302.0</ele><time>2026-04-04T11:40:18.319Z</time></trkpt><trkpt lat="45.7102348" lon="9.3851793"><ele>301.33333333333337</ele><time>2026-04-04T11:40:19.319Z</time></trkpt><trkpt lat="45.7102196" lon="9.385273"><ele>300.6666666666667</ele><time>2026-04-04T11:40:20.319Z</time></trkpt><trkpt lat="45.7101923" lon="9.3853789"><ele>300.0</ele><time>2026-04-04T11:40:21.319Z</time></trkpt><trkpt lat="45.7101695" lon="9.3854671"><ele>299.3333333333333</ele><time>2026-04-04T11:40:22.319Z</time></trkpt><trkpt lat="45.7101606" lon="9.3855661"><ele>298.66666666666663</ele><time>2026-04-04T11:40:23.319Z</time></trkpt><trkpt lat="45.7101694" lon="9.3856723"><ele>298.0</ele><time>2026-04-04T11:40:24.319Z</time></trkpt><trkpt lat="45.7102047" lon="9.3858094"><ele>298.4</ele><time>2026-04-04T11:40:26.319Z</time></trkpt><trkpt lat="45.7102518" lon="9.3858915"><ele>298.8</ele><time>2026-04-04T11:40:27.319Z</time></trkpt><trkpt lat="45.710328" lon="9.3860269"><ele>299.2</ele><time>2026-04-04T11:40:28.319Z</time></trkpt><trkpt lat="45.7103921" lon="9.386155"><ele>299.6</ele><time>2026-04-04T11:40:29.319Z</time></trkpt><trkpt lat="45.7104567" lon="9.3862978"><ele>300.0</ele><time>2026-04-04T11:40:30.318Z</time></trkpt><trkpt lat="45.7105019" lon="9.3864312"><ele>299.1666666666667</ele><time>2026-04-04T11:40:31.319Z</time></trkpt><trkpt lat="45.7105152" lon="9.3865764"><ele>298.3333333333333</ele><time>2026-04-04T11:40:32.319Z</time></trkpt><trkpt lat="45.7105471" lon="9.3867"><ele>297.5</ele><time>2026-04-04T11:40:33.319Z</time></trkpt><trkpt lat="45.710562" lon="9.3868193"><ele>296.66666666666663</ele><time>2026-04-04T11:40:34.319Z</time></trkpt><trkpt lat="45.7105681" lon="9.3869319"><ele>295.8333333333333</ele><time>2026-04-04T11:40:35.319Z</time></trkpt><trkpt lat="45.7105823" lon="9.3870408"><ele>295.0</ele><time>2026-04-04T11:40:36.319Z</time></trkpt><trkpt lat="45.7105919" lon="9.3871642"><ele>295.8</ele><time>2026-04-04T11:40:37.319Z</time></trkpt><trkpt lat="45.7105798" lon="9.3872533"><ele>296.6</ele><time>2026-04-04T11:40:38.319Z</time></trkpt><trkpt lat="45.7105617" lon="9.3873982"><ele>297.4</ele><time>2026-04-04T11:40:40.318Z</time></trkpt><trkpt lat="45.7105371" lon="9.3875682"><ele>298.2</ele><time>2026-04-04T11:40:42.319Z</time></trkpt><trkpt lat="45.7105672" lon="9.3877079"><ele>299.0</ele><time>2026-04-04T11:40:44.319Z</time></trkpt><trkpt lat="45.7106016" lon="9.387854"><ele>299.0</ele><time>2026-04-04T11:40:46.319Z</time></trkpt><trkpt lat="45.7106066" lon="9.3879637"><ele>299.0</ele><time>2026-04-04T11:40:48.319Z</time></trkpt><trkpt lat="45.7106522" lon="9.3880882"><ele>299.0</ele><time>2026-04-04T11:40:50.319Z</time></trkpt><trkpt lat="45.7106927" lon="9.3882034"><ele>299.0</ele><time>2026-04-04T11:40:52.319Z</time></trkpt><trkpt lat="45.7107456" lon="9.3882539"><ele>299.0</ele><time>2026-04-04T11:40:54.318Z</time></trkpt><trkpt lat="45.7107752" lon="9.3883609"><ele>299.0</ele><time>2026-04-04T11:40:56.319Z</time></trkpt><trkpt lat="45.7108263" lon="9.3884265"><ele>300.1666666666667</ele><time>2026-04-04T11:40:58.319Z</time></trkpt><trkpt lat="45.7108757" lon="9.388512"><ele>301.33333333333337</ele><time>2026-04-04T11:41:00.318Z</time></trkpt><trkpt lat="45.7108922" lon="9.3886149"><ele>302.5</ele><time>2026-04-04T11:41:02.319Z</time></trkpt><trkpt lat="45.7108999" lon="9.3887197"><ele>303.6666666666667</ele><time>2026-04-04T11:41:04.319Z</time></trkpt><trkpt lat="45.7109088" lon="9.388836"><ele>304.8333333333333</ele><time>2026-04-04T11:41:07.318Z</time></trkpt><trkpt lat="45.7108927" lon="9.3889638"><ele>306.0</ele><time>2026-04-04T11:41:10.319Z</time></trkpt><trkpt lat="45.7108514" lon="9.3890578"><ele>306.5</ele><time>2026-04-04T11:41:12.319Z</time></trkpt><trkpt lat="45.7108145" lon="9.3891766"><ele>307.0</ele><time>2026-04-04T11:41:14.319Z</time></trkpt><trkpt lat="45.7108014" lon="9.3892691"><ele>307.5</ele><time>2026-04-04T11:41:15.318Z</time></trkpt><trkpt lat="45.7107771" lon="9.3893527"><ele>308.0</ele><time>2026-04-04T11:41:16.319Z</time></trkpt><trkpt lat="45.710726" lon="9.3895093"><ele>308.5</ele><time>2026-04-04T11:41:18.319Z</time></trkpt><trkpt lat="45.710701" lon="9.3896289"><ele>309.0</ele><time>2026-04-04T11:41:20.319Z</time></trkpt><trkpt lat="45.7106581" lon="9.3897343"><ele>309.0</ele><time>2026-04-04T11:41:22.318Z</time></trkpt><trkpt lat="45.7106342" lon="9.3898202"><ele>309.0</ele><time>2026-04-04T11:41:24.319Z</time></trkpt><trkpt lat="45.7106007" lon="9.3899136"><ele>309.0</ele><time>2026-04-04T11:41:27.318Z</time></trkpt><trkpt lat="45.7105574" lon="9.3900246"><ele>309.0</ele><time>2026-04-04T11:41:28.319Z</time></trkpt><trkpt lat="45.7105147" lon="9.3901593"><ele>309.0</ele><time>2026-04-04T11:41:29.319Z</time></trkpt><trkpt lat="45.7104784" lon="9.3903057"><ele>309.0</ele><time>2026-04-04T11:41:30.319Z</time></trkpt><trkpt lat="45.7103919" lon="9.3906814"><ele>308.2</ele><time>2026-04-04T11:41:31.319Z</time></trkpt><trkpt lat="45.7103427" lon="9.3907883"><ele>307.4</ele><time>2026-04-04T11:41:32.319Z</time></trkpt><trkpt lat="45.7103188" lon="9.3909427"><ele>306.6</ele><time>2026-04-04T11:41:33.319Z</time></trkpt><trkpt lat="45.7102743" lon="9.391116"><ele>305.8</ele><time>2026-04-04T11:41:34.319Z</time></trkpt><trkpt lat="45.7102273" lon="9.3912195"><ele>305.0</ele><time>2026-04-04T11:41:35.319Z</time></trkpt><trkpt lat="45.7101587" lon="9.3913336"><ele>303.8</ele><time>2026-04-04T11:41:36.318Z</time></trkpt><trkpt lat="45.710082" lon="9.3914476"><ele>302.6</ele><time>2026-04-04T11:41:37.319Z</time></trkpt><trkpt lat="45.7100367" lon="9.3915492"><ele>301.4</ele><time>2026-04-04T11:41:38.318Z</time></trkpt><trkpt lat="45.7099703" lon="9.3916543"><ele>300.2</ele><time>2026-04-04T11:41:39.319Z</time></trkpt><trkpt lat="45.7099176" lon="9.3917723"><ele>299.0</ele><time>2026-04-04T11:41:40.319Z</time></trkpt><trkpt lat="45.7098717" lon="9.3919278"><ele>299.0</ele><time>2026-04-04T11:41:41.319Z</time></trkpt><trkpt lat="45.7098485" lon="9.3921152"><ele>299.0</ele><time>2026-04-04T11:41:42.318Z</time></trkpt><trkpt lat="45.7097941" lon="9.3922422"><ele>299.0</ele><time>2026-04-04T11:41:43.319Z</time></trkpt><trkpt lat="45.7097783" lon="9.3923997"><ele>299.0</ele><time>2026-04-04T11:41:44.318Z</time></trkpt><trkpt lat="45.7097543" lon="9.3925753"><ele>296.4</ele><time>2026-04-04T11:41:45.318Z</time></trkpt><trkpt lat="45.7097427" lon="9.3927341"><ele>293.79999999999995</ele><time>2026-04-04T11:41:46.319Z</time></trkpt><trkpt lat="45.7097108" lon="9.3928462"><ele>291.20000000000005</ele><time>2026-04-04T11:41:47.319Z</time></trkpt><trkpt lat="45.7097023" lon="9.3929713"><ele>288.6</ele><time>2026-04-04T11:41:48.319Z</time></trkpt><trkpt lat="45.7097348" lon="9.3931205"><ele>286.0</ele><time>2026-04-04T11:41:49.319Z</time></trkpt><trkpt lat="45.7097287" lon="9.3932203"><ele>285.16666666666663</ele><time>2026-04-04T11:41:50.319Z</time></trkpt><trkpt lat="45.7097355" lon="9.3933509"><ele>284.3333333333333</ele><time>2026-04-04T11:41:51.318Z</time></trkpt><trkpt lat="45.7097609" lon="9.3934643"><ele>283.5</ele><time>2026-04-04T11:41:52.319Z</time></trkpt><trkpt lat="45.7097867" lon="9.3935548"><ele>282.6666666666667</ele><time>2026-04-04T11:41:53.319Z</time></trkpt><trkpt lat="45.7097977" lon="9.3936541"><ele>281.83333333333337</ele><time>2026-04-04T11:41:54.318Z</time></trkpt><trkpt lat="45.7098114" lon="9.3937603"><ele>281.0</ele><time>2026-04-04T11:41:55.318Z</time></trkpt><trkpt lat="45.7098356" lon="9.3938727"><ele>280.83333333333337</ele><time>2026-04-04T11:41:56.319Z</time></trkpt><trkpt lat="45.7098583" lon="9.3940418"><ele>280.6666666666667</ele><time>2026-04-04T11:41:58.318Z</time></trkpt><trkpt lat="45.709866" lon="9.3941492"><ele>280.5</ele><time>2026-04-04T11:41:59.319Z</time></trkpt><trkpt lat="45.7098852" lon="9.3942364"><ele>280.3333333333333</ele><time>2026-04-04T11:42:00.319Z</time></trkpt><trkpt lat="45.7099006" lon="9.3943498"><ele>280.16666666666663</ele><time>2026-04-04T11:42:01.318Z</time></trkpt><trkpt lat="45.7099173" lon="9.394449"><ele>280.0</ele><time>2026-04-04T11:42:02.319Z</time></trkpt><trkpt lat="45.7099493" lon="9.3946276"><ele>280.0</ele><time>2026-04-04T11:42:04.319Z</time></trkpt><trkpt lat="45.7099752" lon="9.394718"><ele>280.0</ele><time>2026-04-04T11:42:05.318Z</time></trkpt><trkpt lat="45.7100417" lon="9.3948852"><ele>280.0</ele><time>2026-04-04T11:42:07.319Z</time></trkpt><trkpt lat="45.7100613" lon="9.3949972"><ele>280.0</ele><time>2026-04-04T11:42:08.319Z</time></trkpt><trkpt lat="45.7100817" lon="9.3950854"><ele>280.0</ele><time>2026-04-04T11:42:09.319Z</time></trkpt><trkpt lat="45.7101207" lon="9.3952425"><ele>280.0</ele><time>2026-04-04T11:42:11.319Z</time></trkpt><trkpt lat="45.7101402" lon="9.3953517"><ele>280.0</ele><time>2026-04-04T11:42:12.318Z</time></trkpt><trkpt lat="45.7101703" lon="9.3954586"><ele>280.0</ele><time>2026-04-04T11:42:13.318Z</time></trkpt><trkpt lat="45.7101731" lon="9.3955639"><ele>280.0</ele><time>2026-04-04T11:42:14.319Z</time></trkpt><trkpt lat="45.7102176" lon="9.3957255"><ele>280.0</ele><time>2026-04-04T11:42:16.319Z</time></trkpt><trkpt lat="45.7102074" lon="9.3959387"><ele>278.8333333333333</ele><time>2026-04-04T11:42:18.319Z</time></trkpt><trkpt lat="45.7102884" lon="9.3960168"><ele>277.66666666666663</ele><time>2026-04-04T11:42:19.319Z</time></trkpt><trkpt lat="45.7103347" lon="9.3960985"><ele>276.5</ele><time>2026-04-04T11:42:20.319Z</time></trkpt><trkpt lat="45.7103683" lon="9.396209"><ele>275.3333333333333</ele><time>2026-04-04T11:42:21.318Z</time></trkpt><trkpt lat="45.7104068" lon="9.3963144"><ele>274.1666666666667</ele><time>2026-04-04T11:42:22.319Z</time></trkpt><trkpt lat="45.7104391" lon="9.3964037"><ele>273.0</ele><time>2026-04-04T11:42:23.318Z</time></trkpt><trkpt lat="45.7104672" lon="9.3964892"><ele>273.0</ele><time>2026-04-04T11:42:24.318Z</time></trkpt><trkpt lat="45.7104758" lon="9.3965995"><ele>273.0</ele><time>2026-04-04T11:42:25.319Z</time></trkpt><trkpt lat="45.7105007" lon="9.3967359"><ele>273.0</ele><time>2026-04-04T11:42:26.318Z</time></trkpt><trkpt lat="45.7105285" lon="9.3968411"><ele>273.0</ele><time>2026-04-04T11:42:27.319Z</time></trkpt><trkpt lat="45.7105265" lon="9.3969578"><ele>273.0</ele><time>2026-04-04T11:42:28.319Z</time></trkpt><trkpt lat="45.710527" lon="9.3971007"><ele>273.0</ele><time>2026-04-04T11:42:29.319Z</time></trkpt><trkpt lat="45.7105254" lon="9.3972072"><ele>273.7142857142857</ele><time>2026-04-04T11:42:30.319Z</time></trkpt><trkpt lat="45.7104943" lon="9.3972919"><ele>274.42857142857144</ele><time>2026-04-04T11:42:31.319Z</time></trkpt><trkpt lat="45.7104818" lon="9.3973905"><ele>275.1428571428571</ele><time>2026-04-04T11:42:32.318Z</time></trkpt><trkpt lat="45.7104802" lon="9.3974841"><ele>275.8571428571429</ele><time>2026-04-04T11:42:33.318Z</time></trkpt><trkpt lat="45.7104843" lon="9.3975933"><ele>276.57142857142856</ele><time>2026-04-04T11:42:34.318Z</time></trkpt><trkpt lat="45.7104895" lon="9.3976942"><ele>277.2857142857143</ele><time>2026-04-04T11:42:35.319Z</time></trkpt><trkpt lat="45.7104775" lon="9.3977964"><ele>278.0</ele><time>2026-04-04T11:42:36.319Z</time></trkpt><trkpt lat="45.7104633" lon="9.3979086"><ele>279.1666666666667</ele><time>2026-04-04T11:42:37.319Z</time></trkpt><trkpt lat="45.7104469" lon="9.3980071"><ele>280.33333333333337</ele><time>2026-04-04T11:42:38.318Z</time></trkpt><trkpt lat="45.710397" lon="9.3981289"><ele>281.5</ele><time>2026-04-04T11:42:40.319Z</time></trkpt><trkpt lat="45.7103653" lon="9.398234"><ele>282.6666666666667</ele><time>2026-04-04T11:42:42.319Z</time></trkpt><trkpt lat="45.7103275" lon="9.3983578"><ele>283.8333333333333</ele><time>2026-04-04T11:42:44.318Z</time></trkpt><trkpt lat="45.7103359" lon="9.3984848"><ele>285.0</ele><time>2026-04-04T11:42:46.319Z</time></trkpt><trkpt lat="45.7103473" lon="9.3986214"><ele>285.0</ele><time>2026-04-04T11:42:48.319Z</time></trkpt><trkpt lat="45.710405" lon="9.3987003"><ele>285.0</ele><time>2026-04-04T11:42:50.319Z</time></trkpt><trkpt lat="45.7104664" lon="9.3988081"><ele>285.0</ele><time>2026-04-04T11:42:52.319Z</time></trkpt><trkpt lat="45.7105216" lon="9.3988956"><ele>285.0</ele><time>2026-04-04T11:42:54.319Z</time></trkpt><trkpt lat="45.7105559" lon="9.3990154"><ele>285.0</ele><time>2026-04-04T11:42:56.319Z</time></trkpt><trkpt lat="45.71055" lon="9.3991517"><ele>285.0</ele><time>2026-04-04T11:42:58.318Z</time></trkpt><trkpt lat="45.7104849" lon="9.3992903"><ele>284.75</ele><time>2026-04-04T11:43:00.318Z</time></trkpt><trkpt lat="45.7104201" lon="9.3994251"><ele>284.5</ele><time>2026-04-04T11:43:02.318Z</time></trkpt><trkpt lat="45.7103539" lon="9.3995571"><ele>284.25</ele><time>2026-04-04T11:43:04.318Z</time></trkpt><trkpt lat="45.7102407" lon="9.3997799"><ele>284.0</ele><time>2026-04-04T11:43:06.319Z</time></trkpt><trkpt lat="45.7101897" lon="9.3998599"><ele>284.0</ele><time>2026-04-04T11:43:07.319Z</time></trkpt><trkpt lat="45.7101498" lon="9.3999466"><ele>284.0</ele><time>2026-04-04T11:43:08.318Z</time></trkpt><trkpt lat="45.7101028" lon="9.4000217"><ele>284.0</ele><time>2026-04-04T11:43:09.319Z</time></trkpt><trkpt lat="45.7100551" lon="9.4001122"><ele>284.0</ele><time>2026-04-04T11:43:10.319Z</time></trkpt><trkpt lat="45.7100111" lon="9.4001977"><ele>284.0</ele><time>2026-04-04T11:43:11.319Z</time></trkpt><trkpt lat="45.7099704" lon="9.4002735"><ele>284.0</ele><time>2026-04-04T11:43:12.319Z</time></trkpt><trkpt lat="45.7099285" lon="9.4003482"><ele>284.0</ele><time>2026-04-04T11:43:13.319Z</time></trkpt><trkpt lat="45.7098559" lon="9.4004851"><ele>284.5</ele><time>2026-04-04T11:43:15.319Z</time></trkpt><trkpt lat="45.709802" lon="9.4006096"><ele>285.0</ele><time>2026-04-04T11:43:17.319Z</time></trkpt><trkpt lat="45.7097746" lon="9.400707"><ele>285.5</ele><time>2026-04-04T11:43:18.319Z</time></trkpt><trkpt lat="45.7097209" lon="9.4007808"><ele>286.0</ele><time>2026-04-04T11:43:19.319Z</time></trkpt><trkpt lat="45.7096438" lon="9.4008602"><ele>286.5</ele><time>2026-04-04T11:43:21.318Z</time></trkpt><trkpt lat="45.7095658" lon="9.4008859"><ele>287.0</ele><time>2026-04-04T11:43:23.319Z</time></trkpt><trkpt lat="45.7094855" lon="9.4009169"><ele>287.0</ele><time>2026-04-04T11:43:25.319Z</time></trkpt><trkpt lat="45.709419" lon="9.4009388"><ele>287.0</ele><time>2026-04-04T11:43:27.318Z</time></trkpt><trkpt lat="45.7093548" lon="9.4009823"><ele>287.0</ele><time>2026-04-04T11:43:29.319Z</time></trkpt><trkpt lat="45.7092908" lon="9.4010263"><ele>287.0</ele><time>2026-04-04T11:43:31.318Z</time></trkpt><trkpt lat="45.7092052" lon="9.4011001"><ele>287.0</ele><time>2026-04-04T11:43:34.319Z</time></trkpt><trkpt lat="45.7091398" lon="9.4011652"><ele>287.0</ele><time>2026-04-04T11:43:36.318Z</time></trkpt><trkpt lat="45.7090698" lon="9.4012171"><ele>286.83333333333337</ele><time>2026-04-04T11:43:39.319Z</time></trkpt><trkpt lat="45.7089889" lon="9.4012591"><ele>286.6666666666667</ele><time>2026-04-04T11:43:42.318Z</time></trkpt><trkpt lat="45.7089087" lon="9.4013117"><ele>286.5</ele><time>2026-04-04T11:43:44.318Z</time></trkpt><trkpt lat="45.7088552" lon="9.4013979"><ele>286.3333333333333</ele><time>2026-04-04T11:43:46.319Z</time></trkpt><trkpt lat="45.708836" lon="9.4014872"><ele>286.16666666666663</ele><time>2026-04-04T11:43:48.319Z</time></trkpt><trkpt lat="45.7088392" lon="9.401604"><ele>286.0</ele><time>2026-04-04T11:43:51.319Z</time></trkpt><trkpt lat="45.7088262" lon="9.4017118"><ele>287.3333333333333</ele><time>2026-04-04T11:43:54.319Z</time></trkpt><trkpt lat="45.7087972" lon="9.4018348"><ele>288.66666666666663</ele><time>2026-04-04T11:43:57.318Z</time></trkpt><trkpt lat="45.7087675" lon="9.4019377"><ele>290.0</ele><time>2026-04-04T11:44:04.332Z</time></trkpt><trkpt lat="45.7087234" lon="9.4020332"><ele>291.3333333333333</ele><time>2026-04-04T11:44:07.251Z</time></trkpt><trkpt lat="45.7086938" lon="9.4021333"><ele>292.6666666666667</ele><time>2026-04-04T11:44:10.151Z</time></trkpt><trkpt lat="45.7086739" lon="9.4022484"><ele>294.0</ele><time>2026-04-04T11:44:13.032Z</time></trkpt><trkpt lat="45.7086502" lon="9.4023554"><ele>295.0</ele><time>2026-04-04T11:44:15.879Z</time></trkpt><trkpt lat="45.7086303" lon="9.4024573"><ele>296.0</ele><time>2026-04-04T11:44:18.672Z</time></trkpt><trkpt lat="45.7086086" lon="9.402573"><ele>297.0</ele><time>2026-04-04T11:44:21.533Z</time></trkpt><trkpt lat="45.7085936" lon="9.4026704"><ele>298.0</ele><time>2026-04-04T11:44:24.354Z</time></trkpt><trkpt lat="45.7085666" lon="9.4027773"><ele>299.0</ele><time>2026-04-04T11:44:27.229Z</time></trkpt><trkpt lat="45.7085367" lon="9.4028768"><ele>300.0</ele><time>2026-04-04T11:44:30.112Z</time></trkpt><trkpt lat="45.7084931" lon="9.4029896"><ele>302.0</ele><time>2026-04-04T11:44:32.915Z</time></trkpt><trkpt lat="45.7084493" lon="9.4030928"><ele>304.0</ele><time>2026-04-04T11:44:35.732Z</time></trkpt><trkpt lat="45.7084084" lon="9.403213"><ele>306.0</ele><time>2026-04-04T11:44:39.319Z</time></trkpt><trkpt lat="45.7081641" lon="9.4035684"><ele>306.0</ele><time>2026-04-04T11:44:42.319Z</time></trkpt><trkpt lat="45.7081116" lon="9.4036388"><ele>306.0</ele><time>2026-04-04T11:44:44.319Z</time></trkpt><trkpt lat="45.7080497" lon="9.4037141"><ele>306.0</ele><time>2026-04-04T11:44:46.319Z</time></trkpt><trkpt lat="45.7079759" lon="9.4037862"><ele>306.0</ele><time>2026-04-04T11:44:48.319Z</time></trkpt><trkpt lat="45.7078949" lon="9.4038594"><ele>306.0</ele><time>2026-04-04T11:44:50.318Z</time></trkpt><trkpt lat="45.7078154" lon="9.4039461"><ele>306.0</ele><time>2026-04-04T11:44:52.318Z</time></trkpt><trkpt lat="45.7077413" lon="9.4040375"><ele>306.2</ele><time>2026-04-04T11:44:54.319Z</time></trkpt><trkpt lat="45.7076725" lon="9.4041402"><ele>306.40000000000003</ele><time>2026-04-04T11:44:56.319Z</time></trkpt><trkpt lat="45.7075843" lon="9.4042302"><ele>306.6</ele><time>2026-04-04T11:44:58.319Z</time></trkpt><trkpt lat="45.7075008" lon="9.4043213"><ele>306.8</ele><time>2026-04-04T11:45:00.319Z</time></trkpt><trkpt lat="45.707419" lon="9.4044242"><ele>307.0</ele><time>2026-04-04T11:45:02.318Z</time></trkpt><trkpt lat="45.7073306" lon="9.4045212"><ele>307.0</ele><time>2026-04-04T11:45:04.318Z</time></trkpt><trkpt lat="45.7072394" lon="9.4046199"><ele>307.0</ele><time>2026-04-04T11:45:06.319Z</time></trkpt><trkpt lat="45.707158" lon="9.4047255"><ele>307.0</ele><time>2026-04-04T11:45:08.319Z</time></trkpt><trkpt lat="45.7070806" lon="9.4048428"><ele>307.0</ele><time>2026-04-04T11:45:10.319Z</time></trkpt><trkpt lat="45.7070513" lon="9.4049247"><ele>307.0</ele><time>2026-04-04T11:45:11.318Z</time></trkpt><trkpt lat="45.7069917" lon="9.4050738"><ele>306.25</ele><time>2026-04-04T11:45:13.319Z</time></trkpt><trkpt lat="45.7068698" lon="9.4051968"><ele>305.5</ele><time>2026-04-04T11:45:14.318Z</time></trkpt><trkpt lat="45.7067937" lon="9.4053267"><ele>304.75</ele><time>2026-04-04T11:45:16.318Z</time></trkpt><trkpt lat="45.7067407" lon="9.405476"><ele>304.0</ele><time>2026-04-04T11:45:18.319Z</time></trkpt><trkpt lat="45.7066745" lon="9.4056088"><ele>304.0</ele><time>2026-04-04T11:45:20.319Z</time></trkpt><trkpt lat="45.7066502" lon="9.4057112"><ele>304.0</ele><time>2026-04-04T11:45:21.319Z</time></trkpt><trkpt lat="45.7065963" lon="9.4058663"><ele>304.0</ele><time>2026-04-04T11:45:23.319Z</time></trkpt><trkpt lat="45.7065642" lon="9.4060491"><ele>304.0</ele><time>2026-04-04T11:45:25.319Z</time></trkpt><trkpt lat="45.7064974" lon="9.4061938"><ele>304.0</ele><time>2026-04-04T11:45:27.319Z</time></trkpt><trkpt lat="45.7064378" lon="9.4063473"><ele>303.8</ele><time>2026-04-04T11:45:29.319Z</time></trkpt><trkpt lat="45.7063698" lon="9.4064786"><ele>303.59999999999997</ele><time>2026-04-04T11:45:31.318Z</time></trkpt><trkpt lat="45.7063376" lon="9.4065592"><ele>303.4</ele><time>2026-04-04T11:45:32.318Z</time></trkpt><trkpt lat="45.7062706" lon="9.4066636"><ele>303.2</ele><time>2026-04-04T11:45:34.319Z</time></trkpt><trkpt lat="45.7062204" lon="9.4067477"><ele>303.0</ele><time>2026-04-04T11:45:36.319Z</time></trkpt><trkpt lat="45.7062112" lon="9.4068964"><ele>303.0</ele><time>2026-04-04T11:45:38.318Z</time></trkpt><trkpt lat="45.7062087" lon="9.4070704"><ele>303.0</ele><time>2026-04-04T11:45:40.318Z</time></trkpt><trkpt lat="45.7062127" lon="9.4071827"><ele>303.0</ele><time>2026-04-04T11:45:41.319Z</time></trkpt><trkpt lat="45.7062014" lon="9.4073676"><ele>303.0</ele><time>2026-04-04T11:45:43.318Z</time></trkpt><trkpt lat="45.7062105" lon="9.4074792"><ele>303.0</ele><time>2026-04-04T11:45:44.318Z</time></trkpt><trkpt lat="45.7062124" lon="9.4075953"><ele>302.6666666666667</ele><time>2026-04-04T11:45:45.319Z</time></trkpt><trkpt lat="45.7062146" lon="9.4077186"><ele>302.3333333333333</ele><time>2026-04-04T11:45:46.319Z</time></trkpt><trkpt lat="45.7062204" lon="9.4078233"><ele>302.0</ele><time>2026-04-04T11:45:47.318Z</time></trkpt><trkpt lat="45.7062193" lon="9.4079558"><ele>301.66666666666663</ele><time>2026-04-04T11:45:48.319Z</time></trkpt><trkpt lat="45.7062262" lon="9.4080825"><ele>301.3333333333333</ele><time>2026-04-04T11:45:49.319Z</time></trkpt><trkpt lat="45.7062252" lon="9.4082276"><ele>301.0</ele><time>2026-04-04T11:45:50.318Z</time></trkpt><trkpt lat="45.7062279" lon="9.4083766"><ele>300.2</ele><time>2026-04-04T11:45:51.319Z</time></trkpt><trkpt lat="45.7062214" lon="9.4085262"><ele>299.40000000000003</ele><time>2026-04-04T11:45:52.319Z</time></trkpt><trkpt lat="45.7062186" lon="9.4086815"><ele>298.6</ele><time>2026-04-04T11:45:53.319Z</time></trkpt><trkpt lat="45.706212" lon="9.4088367"><ele>297.8</ele><time>2026-04-04T11:45:54.319Z</time></trkpt><trkpt lat="45.7062176" lon="9.4089534"><ele>297.0</ele><time>2026-04-04T11:45:55.318Z</time></trkpt><trkpt lat="45.7062464" lon="9.4090444"><ele>296.8333333333333</ele><time>2026-04-04T11:45:56.318Z</time></trkpt><trkpt lat="45.7062676" lon="9.4091532"><ele>296.6666666666667</ele><time>2026-04-04T11:45:57.319Z</time></trkpt><trkpt lat="45.7062816" lon="9.4092528"><ele>296.5</ele><time>2026-04-04T11:45:58.318Z</time></trkpt><trkpt lat="45.7062958" lon="9.4094093"><ele>296.33333333333337</ele><time>2026-04-04T11:46:00.318Z</time></trkpt><trkpt lat="45.7063288" lon="9.4095705"><ele>296.1666666666667</ele><time>2026-04-04T11:46:02.319Z</time></trkpt><trkpt lat="45.7063478" lon="9.4096574"><ele>296.0</ele><time>2026-04-04T11:46:03.319Z</time></trkpt><trkpt lat="45.7063764" lon="9.4097438"><ele>296.5</ele><time>2026-04-04T11:46:05.318Z</time></trkpt><trkpt lat="45.706362" lon="9.4098741"><ele>297.0</ele><time>2026-04-04T11:46:08.319Z</time></trkpt><trkpt lat="45.7063533" lon="9.4099655"><ele>297.5</ele><time>2026-04-04T11:46:10.319Z</time></trkpt><trkpt lat="45.7063229" lon="9.4100949"><ele>298.0</ele><time>2026-04-04T11:46:11.319Z</time></trkpt><trkpt lat="45.7062713" lon="9.4102498"><ele>298.5</ele><time>2026-04-04T11:46:13.318Z</time></trkpt><trkpt lat="45.7062249" lon="9.4103266"><ele>299.0</ele><time>2026-04-04T11:46:14.319Z</time></trkpt><trkpt lat="45.7061709" lon="9.4104727"><ele>299.0</ele><time>2026-04-04T11:46:16.318Z</time></trkpt><trkpt lat="45.7061399" lon="9.4105532"><ele>299.0</ele><time>2026-04-04T11:46:17.319Z</time></trkpt><trkpt lat="45.7061182" lon="9.4107298"><ele>299.0</ele><time>2026-04-04T11:46:19.318Z</time></trkpt><trkpt lat="45.7061119" lon="9.4108293"><ele>299.0</ele><time>2026-04-04T11:46:20.319Z</time></trkpt><trkpt lat="45.7060938" lon="9.4110141"><ele>299.0</ele><time>2026-04-04T11:46:22.318Z</time></trkpt><trkpt lat="45.7060734" lon="9.4111021"><ele>299.0</ele><time>2026-04-04T11:46:23.319Z</time></trkpt><trkpt lat="45.7060532" lon="9.4111961"><ele>299.0</ele><time>2026-04-04T11:46:24.319Z</time></trkpt><trkpt lat="45.7060346" lon="9.4113221"><ele>299.0</ele><time>2026-04-04T11:46:26.318Z</time></trkpt><trkpt lat="45.7060346" lon="9.4114328"><ele>299.0</ele><time>2026-04-04T11:46:28.318Z</time></trkpt><trkpt lat="45.7061175" lon="9.4115247"><ele>299.0</ele><time>2026-04-04T11:46:32.319Z</time></trkpt><trkpt lat="45.7061966" lon="9.4115151"><ele>299.0</ele><time>2026-04-04T11:46:34.319Z</time></trkpt><trkpt lat="45.7062834" lon="9.4114921"><ele>299.8</ele><time>2026-04-04T11:46:36.318Z</time></trkpt><trkpt lat="45.7063837" lon="9.4115044"><ele>300.59999999999997</ele><time>2026-04-04T11:46:38.319Z</time></trkpt><trkpt lat="45.7064863" lon="9.4115081"><ele>301.4</ele><time>2026-04-04T11:46:40.319Z</time></trkpt><trkpt lat="45.7065544" lon="9.4115448"><ele>302.2</ele><time>2026-04-04T11:46:41.319Z</time></trkpt><trkpt lat="45.7066503" lon="9.4115527"><ele>303.0</ele><time>2026-04-04T11:46:43.319Z</time></trkpt><trkpt lat="45.7067197" lon="9.4116018"><ele>303.0</ele><time>2026-04-04T11:46:45.319Z</time></trkpt><trkpt lat="45.706809" lon="9.4116552"><ele>303.0</ele><time>2026-04-04T11:46:47.319Z</time></trkpt><trkpt lat="45.7068966" lon="9.4117055"><ele>303.0</ele><time>2026-04-04T11:46:49.318Z</time></trkpt><trkpt lat="45.7069944" lon="9.4118082"><ele>303.0</ele><time>2026-04-04T11:46:51.319Z</time></trkpt><trkpt lat="45.7070898" lon="9.4118333"><ele>303.0</ele><time>2026-04-04T11:46:53.318Z</time></trkpt><trkpt lat="45.7071621" lon="9.4119094"><ele>303.2</ele><time>2026-04-04T11:46:55.319Z</time></trkpt><trkpt lat="45.7072437" lon="9.411984"><ele>303.4</ele><time>2026-04-04T11:46:57.319Z</time></trkpt><trkpt lat="45.7073216" lon="9.4120577"><ele>303.59999999999997</ele><time>2026-04-04T11:46:59.318Z</time></trkpt><trkpt lat="45.7074051" lon="9.4121061"><ele>303.8</ele><time>2026-04-04T11:47:01.319Z</time></trkpt><trkpt lat="45.7074891" lon="9.4121695"><ele>304.0</ele><time>2026-04-04T11:47:03.318Z</time></trkpt><trkpt lat="45.7075833" lon="9.4122669"><ele>304.66666666666663</ele><time>2026-04-04T11:47:05.319Z</time></trkpt><trkpt lat="45.7076325" lon="9.4123275"><ele>305.3333333333333</ele><time>2026-04-04T11:47:06.318Z</time></trkpt><trkpt lat="45.7077165" lon="9.4124193"><ele>306.0</ele><time>2026-04-04T11:47:08.318Z</time></trkpt><trkpt lat="45.7077851" lon="9.4124931"><ele>306.6666666666667</ele><time>2026-04-04T11:47:10.318Z</time></trkpt><trkpt lat="45.707839" lon="9.4125616"><ele>307.33333333333337</ele><time>2026-04-04T11:47:11.319Z</time></trkpt><trkpt lat="45.7079289" lon="9.412634"><ele>308.0</ele><time>2026-04-04T11:47:13.319Z</time></trkpt><trkpt lat="45.7079934" lon="9.4127022"><ele>308.2857142857143</ele><time>2026-04-04T11:47:16.318Z</time></trkpt><trkpt lat="45.708047" lon="9.4127617"><ele>308.57142857142856</ele><time>2026-04-04T11:47:18.318Z</time></trkpt><trkpt lat="45.7081093" lon="9.4127931"><ele>308.8571428571429</ele><time>2026-04-04T11:47:20.319Z</time></trkpt><trkpt lat="45.7081828" lon="9.4128442"><ele>309.1428571428571</ele><time>2026-04-04T11:47:22.319Z</time></trkpt><trkpt lat="45.7082436" lon="9.4128898"><ele>309.42857142857144</ele><time>2026-04-04T11:47:24.319Z</time></trkpt><trkpt lat="45.7083139" lon="9.4129106"><ele>309.7142857142857</ele><time>2026-04-04T11:47:26.318Z</time></trkpt><trkpt lat="45.7083919" lon="9.4129774"><ele>310.0</ele><time>2026-04-04T11:47:29.319Z</time></trkpt><trkpt lat="45.7084377" lon="9.4130765"><ele>310.57142857142856</ele><time>2026-04-04T11:47:31.319Z</time></trkpt><trkpt lat="45.7084733" lon="9.4131516"><ele>311.1428571428571</ele><time>2026-04-04T11:47:33.319Z</time></trkpt><trkpt lat="45.7085135" lon="9.4132328"><ele>311.71428571428567</ele><time>2026-04-04T11:47:35.319Z</time></trkpt><trkpt lat="45.7085605" lon="9.413336"><ele>312.2857142857143</ele><time>2026-04-04T11:47:37.319Z</time></trkpt><trkpt lat="45.7086166" lon="9.4134094"><ele>312.85714285714283</ele><time>2026-04-04T11:47:39.319Z</time></trkpt><trkpt lat="45.7086696" lon="9.4134778"><ele>313.4285714285714</ele><time>2026-04-04T11:47:41.319Z</time></trkpt><trkpt lat="45.7087162" lon="9.4135414"><ele>314.0</ele><time>2026-04-04T11:47:43.319Z</time></trkpt><trkpt lat="45.7087673" lon="9.4135978"><ele>314.0</ele><time>2026-04-04T11:47:45.319Z</time></trkpt><trkpt lat="45.7088134" lon="9.4136836"><ele>314.0</ele><time>2026-04-04T11:47:48.319Z</time></trkpt><trkpt lat="45.7088562" lon="9.4137576"><ele>314.0</ele><time>2026-04-04T11:47:50.319Z</time></trkpt><trkpt lat="45.7089236" lon="9.4138343"><ele>314.0</ele><time>2026-04-04T11:47:52.319Z</time></trkpt><trkpt lat="45.708979" lon="9.4138992"><ele>314.0</ele><time>2026-04-04T11:47:54.319Z</time></trkpt><trkpt lat="45.7090354" lon="9.4139677"><ele>314.0</ele><time>2026-04-04T11:47:56.319Z</time></trkpt><trkpt lat="45.7090937" lon="9.414038"><ele>314.6666666666667</ele><time>2026-04-04T11:47:58.319Z</time></trkpt><trkpt lat="45.7091514" lon="9.4141187"><ele>315.33333333333337</ele><time>2026-04-04T11:48:00.319Z</time></trkpt><trkpt lat="45.7092263" lon="9.4141923"><ele>316.0</ele><time>2026-04-04T11:48:03.319Z</time></trkpt><trkpt lat="45.7092775" lon="9.41428"><ele>316.6666666666667</ele><time>2026-04-04T11:48:05.319Z</time></trkpt><trkpt lat="45.7093299" lon="9.4143731"><ele>317.3333333333333</ele><time>2026-04-04T11:48:07.318Z</time></trkpt><trkpt lat="45.7093793" lon="9.4144772"><ele>318.0</ele><time>2026-04-04T11:48:09.319Z</time></trkpt><trkpt lat="45.7094193" lon="9.4145651"><ele>319.0</ele><time>2026-04-04T11:48:11.318Z</time></trkpt><trkpt lat="45.709474" lon="9.4146201"><ele>320.0</ele><time>2026-04-04T11:48:13.319Z</time></trkpt><trkpt lat="45.7095258" lon="9.4146756"><ele>321.0</ele><time>2026-04-04T11:48:15.319Z</time></trkpt><trkpt lat="45.7095765" lon="9.414736"><ele>322.0</ele><time>2026-04-04T11:48:17.319Z</time></trkpt><trkpt lat="45.7096341" lon="9.4147846"><ele>323.0</ele><time>2026-04-04T11:48:19.319Z</time></trkpt><trkpt lat="45.7096769" lon="9.4148513"><ele>324.0</ele><time>2026-04-04T11:48:21.318Z</time></trkpt><trkpt lat="45.7097264" lon="9.4149358"><ele>325.0</ele><time>2026-04-04T11:48:23.319Z</time></trkpt><trkpt lat="45.7097705" lon="9.4150232"><ele>325.0</ele><time>2026-04-04T11:48:25.318Z</time></trkpt><trkpt lat="45.7098333" lon="9.4150875"><ele>325.0</ele><time>2026-04-04T11:48:27.319Z</time></trkpt><trkpt lat="45.7098911" lon="9.4151634"><ele>325.0</ele><time>2026-04-04T11:48:29.318Z</time></trkpt><trkpt lat="45.7099182" lon="9.4152735"><ele>325.0</ele><time>2026-04-04T11:48:31.319Z</time></trkpt><trkpt lat="45.7099316" lon="9.4154321"><ele>325.0</ele><time>2026-04-04T11:48:33.319Z</time></trkpt><trkpt lat="45.7099196" lon="9.4155567"><ele>325.0</ele><time>2026-04-04T11:48:35.319Z</time></trkpt><trkpt lat="45.7098971" lon="9.415658"><ele>325.0</ele><time>2026-04-04T11:48:37.319Z</time></trkpt><trkpt lat="45.7098888" lon="9.4157753"><ele>325.0</ele><time>2026-04-04T11:48:39.318Z</time></trkpt><trkpt lat="45.7098782" lon="9.4158907"><ele>325.0</ele><time>2026-04-04T11:48:41.319Z</time></trkpt><trkpt lat="45.7098624" lon="9.4160041"><ele>325.0</ele><time>2026-04-04T11:48:43.319Z</time></trkpt><trkpt lat="45.7098525" lon="9.4161238"><ele>325.0</ele><time>2026-04-04T11:48:45.319Z</time></trkpt><trkpt lat="45.7098546" lon="9.416252"><ele>325.0</ele><time>2026-04-04T11:48:47.319Z</time></trkpt><trkpt lat="45.709837" lon="9.4164085"><ele>324.5</ele><time>2026-04-04T11:48:49.319Z</time></trkpt><trkpt lat="45.7098062" lon="9.4165758"><ele>324.0</ele><time>2026-04-04T11:48:51.319Z</time></trkpt><trkpt lat="45.7097708" lon="9.4167413"><ele>323.5</ele><time>2026-04-04T11:48:53.319Z</time></trkpt><trkpt lat="45.7096836" lon="9.4169845"><ele>323.0</ele><time>2026-04-04T11:48:55.319Z</time></trkpt><trkpt lat="45.7096666" lon="9.4171522"><ele>322.59999999999997</ele><time>2026-04-04T11:48:57.318Z</time></trkpt><trkpt lat="45.7096477" lon="9.4172478"><ele>322.2</ele><time>2026-04-04T11:48:58.319Z</time></trkpt><trkpt lat="45.7096327" lon="9.4173414"><ele>321.8</ele><time>2026-04-04T11:48:59.319Z</time></trkpt><trkpt lat="45.7096042" lon="9.4175052"><ele>321.4</ele><time>2026-04-04T11:49:01.319Z</time></trkpt><trkpt lat="45.7095854" lon="9.4176563"><ele>321.0</ele><time>2026-04-04T11:49:03.318Z</time></trkpt><trkpt lat="45.7095746" lon="9.4178289"><ele>321.0</ele><time>2026-04-04T11:49:05.318Z</time></trkpt><trkpt lat="45.7095491" lon="9.417981"><ele>321.0</ele><time>2026-04-04T11:49:07.319Z</time></trkpt><trkpt lat="45.7095401" lon="9.4180899"><ele>321.0</ele><time>2026-04-04T11:49:08.318Z</time></trkpt><trkpt lat="45.7095286" lon="9.4181821"><ele>321.0</ele><time>2026-04-04T11:49:09.319Z</time></trkpt><trkpt lat="45.7094844" lon="9.4183467"><ele>321.0</ele><time>2026-04-04T11:49:11.319Z</time></trkpt><trkpt lat="45.7094577" lon="9.4184313"><ele>321.0</ele><time>2026-04-04T11:49:12.319Z</time></trkpt><trkpt lat="45.7094295" lon="9.4186101"><ele>321.0</ele><time>2026-04-04T11:49:14.319Z</time></trkpt><trkpt lat="45.7094235" lon="9.4187319"><ele>321.0</ele><time>2026-04-04T11:49:16.319Z</time></trkpt><trkpt lat="45.7094212" lon="9.4188336"><ele>321.0</ele><time>2026-04-04T11:49:17.319Z</time></trkpt><trkpt lat="45.709423" lon="9.4189277"><ele>321.0</ele><time>2026-04-04T11:49:18.319Z</time></trkpt><trkpt lat="45.7094309" lon="9.4190384"><ele>321.0</ele><time>2026-04-04T11:49:19.319Z</time></trkpt><trkpt lat="45.7094516" lon="9.4192035"><ele>321.0</ele><time>2026-04-04T11:49:21.318Z</time></trkpt><trkpt lat="45.7094932" lon="9.4193457"><ele>320.8</ele><time>2026-04-04T11:49:23.319Z</time></trkpt><trkpt lat="45.7095442" lon="9.4194938"><ele>320.6</ele><time>2026-04-04T11:49:25.318Z</time></trkpt><trkpt lat="45.7095907" lon="9.4196356"><ele>320.4</ele><time>2026-04-04T11:49:27.318Z</time></trkpt><trkpt lat="45.709612" lon="9.4197381"><ele>320.2</ele><time>2026-04-04T11:49:28.319Z</time></trkpt><trkpt lat="45.709648" lon="9.4198916"><ele>320.0</ele><time>2026-04-04T11:49:30.319Z</time></trkpt><trkpt lat="45.7096592" lon="9.4199848"><ele>319.6</ele><time>2026-04-04T11:49:31.319Z</time></trkpt><trkpt lat="45.709669" lon="9.4201409"><ele>319.2</ele><time>2026-04-04T11:49:33.318Z</time></trkpt><trkpt lat="45.7096484" lon="9.4202273"><ele>318.8</ele><time>2026-04-04T11:49:34.319Z</time></trkpt><trkpt lat="45.7096126" lon="9.4203605"><ele>318.4</ele><time>2026-04-04T11:49:36.319Z</time></trkpt><trkpt lat="45.7095838" lon="9.4204562"><ele>318.0</ele><time>2026-04-04T11:49:38.319Z</time></trkpt><trkpt lat="45.7095441" lon="9.4205937"><ele>317.8</ele><time>2026-04-04T11:49:40.319Z</time></trkpt><trkpt lat="45.7095346" lon="9.4207064"><ele>317.6</ele><time>2026-04-04T11:49:41.319Z</time></trkpt><trkpt lat="45.7094733" lon="9.4208452"><ele>317.4</ele><time>2026-04-04T11:49:43.319Z</time></trkpt><trkpt lat="45.7094658" lon="9.4209736"><ele>317.2</ele><time>2026-04-04T11:49:45.319Z</time></trkpt><trkpt lat="45.7094449" lon="9.4211071"><ele>317.0</ele><time>2026-04-04T11:49:47.318Z</time></trkpt><trkpt lat="45.7094356" lon="9.4212547"><ele>317.5</ele><time>2026-04-04T11:49:49.319Z</time></trkpt><trkpt lat="45.7094246" lon="9.4213687"><ele>318.0</ele><time>2026-04-04T11:49:51.319Z</time></trkpt><trkpt lat="45.709425" lon="9.4214617"><ele>318.5</ele><time>2026-04-04T11:49:52.318Z</time></trkpt><trkpt lat="45.7093866" lon="9.4215431"><ele>319.0</ele><time>2026-04-04T11:49:53.318Z</time></trkpt><trkpt lat="45.7093561" lon="9.4216812"><ele>319.5</ele><time>2026-04-04T11:49:55.319Z</time></trkpt><trkpt lat="45.7093079" lon="9.4217618"><ele>320.0</ele><time>2026-04-04T11:49:56.319Z</time></trkpt><trkpt lat="45.7092383" lon="9.4218729"><ele>321.33333333333337</ele><time>2026-04-04T11:49:58.318Z</time></trkpt><trkpt lat="45.7091822" lon="9.4219464"><ele>322.6666666666667</ele><time>2026-04-04T11:50:00.319Z</time></trkpt><trkpt lat="45.7091308" lon="9.4220163"><ele>324.0</ele><time>2026-04-04T11:50:02.319Z</time></trkpt><trkpt lat="45.709097" lon="9.4221166"><ele>325.3333333333333</ele><time>2026-04-04T11:50:04.319Z</time></trkpt><trkpt lat="45.7090585" lon="9.4221936"><ele>326.66666666666663</ele><time>2026-04-04T11:50:06.319Z</time></trkpt><trkpt lat="45.7089695" lon="9.4222531"><ele>328.0</ele><time>2026-04-04T11:50:08.319Z</time></trkpt><trkpt lat="45.7089071" lon="9.4222715"><ele>328.0</ele><time>2026-04-04T11:50:09.319Z</time></trkpt><trkpt lat="45.7087963" lon="9.4222655"><ele>328.0</ele><time>2026-04-04T11:50:11.318Z</time></trkpt><trkpt lat="45.7086955" lon="9.4222392"><ele>328.0</ele><time>2026-04-04T11:50:13.319Z</time></trkpt><trkpt lat="45.7085932" lon="9.4221952"><ele>328.0</ele><time>2026-04-04T11:50:15.319Z</time></trkpt><trkpt lat="45.7084833" lon="9.4221626"><ele>328.0</ele><time>2026-04-04T11:50:17.318Z</time></trkpt><trkpt lat="45.7084189" lon="9.4221686"><ele>328.8333333333333</ele><time>2026-04-04T11:50:18.319Z</time></trkpt><trkpt lat="45.7083388" lon="9.422205"><ele>329.66666666666663</ele><time>2026-04-04T11:50:20.319Z</time></trkpt><trkpt lat="45.7082832" lon="9.4222555"><ele>330.5</ele><time>2026-04-04T11:50:22.319Z</time></trkpt><trkpt lat="45.7082213" lon="9.4223177"><ele>331.3333333333333</ele><time>2026-04-04T11:50:24.319Z</time></trkpt><trkpt lat="45.7081478" lon="9.4223983"><ele>332.1666666666667</ele><time>2026-04-04T11:50:26.319Z</time></trkpt><trkpt lat="45.7080603" lon="9.4224851"><ele>333.0</ele><time>2026-04-04T11:50:28.319Z</time></trkpt><trkpt lat="45.7079851" lon="9.4225723"><ele>333.0</ele><time>2026-04-04T11:50:30.319Z</time></trkpt><trkpt lat="45.7079173" lon="9.4226378"><ele>333.0</ele><time>2026-04-04T11:50:32.319Z</time></trkpt><trkpt lat="45.7078497" lon="9.4226816"><ele>333.0</ele><time>2026-04-04T11:50:34.318Z</time></trkpt><trkpt lat="45.7077742" lon="9.4227421"><ele>333.0</ele><time>2026-04-04T11:50:36.319Z</time></trkpt><trkpt lat="45.7077243" lon="9.4228137"><ele>333.0</ele><time>2026-04-04T11:50:38.319Z</time></trkpt><trkpt lat="45.7076743" lon="9.4229071"><ele>333.0</ele><time>2026-04-04T11:50:40.319Z</time></trkpt><trkpt lat="45.7076005" lon="9.423041"><ele>333.5</ele><time>2026-04-04T11:50:42.319Z</time></trkpt><trkpt lat="45.7075316" lon="9.4231781"><ele>334.0</ele><time>2026-04-04T11:50:44.318Z</time></trkpt><trkpt lat="45.7074753" lon="9.4232989"><ele>334.5</ele><time>2026-04-04T11:50:46.319Z</time></trkpt><trkpt lat="45.7074023" lon="9.4234397"><ele>335.0</ele><time>2026-04-04T11:50:48.319Z</time></trkpt><trkpt lat="45.7073554" lon="9.4236029"><ele>335.0</ele><time>2026-04-04T11:50:50.318Z</time></trkpt><trkpt lat="45.7072776" lon="9.423711"><ele>335.0</ele><time>2026-04-04T11:50:52.319Z</time></trkpt><trkpt lat="45.7072182" lon="9.4238235"><ele>335.0</ele><time>2026-04-04T11:50:54.319Z</time></trkpt><trkpt lat="45.7071742" lon="9.4239207"><ele>335.0</ele><time>2026-04-04T11:50:55.319Z</time></trkpt><trkpt lat="45.70713" lon="9.424031"><ele>335.0</ele><time>2026-04-04T11:50:56.318Z</time></trkpt><trkpt lat="45.7070926" lon="9.4241281"><ele>332.6666666666667</ele><time>2026-04-04T11:50:57.319Z</time></trkpt><trkpt lat="45.7069918" lon="9.4244843"><ele>330.3333333333333</ele><time>2026-04-04T11:50:58.319Z</time></trkpt><trkpt lat="45.7069373" lon="9.4246334"><ele>328.0</ele><time>2026-04-04T11:51:00.319Z</time></trkpt><trkpt lat="45.7069349" lon="9.4247604"><ele>327.4</ele><time>2026-04-04T11:51:02.319Z</time></trkpt><trkpt lat="45.7069904" lon="9.4248693"><ele>326.79999999999995</ele><time>2026-04-04T11:51:04.318Z</time></trkpt><trkpt lat="45.7070755" lon="9.4249547"><ele>326.2</ele><time>2026-04-04T11:51:06.318Z</time></trkpt><trkpt lat="45.7071494" lon="9.4250734"><ele>325.6</ele><time>2026-04-04T11:51:08.319Z</time></trkpt><trkpt lat="45.707186" lon="9.4251574"><ele>325.0</ele><time>2026-04-04T11:51:09.318Z</time></trkpt><trkpt lat="45.7072163" lon="9.4252916"><ele>325.0</ele><time>2026-04-04T11:51:11.319Z</time></trkpt><trkpt lat="45.7072313" lon="9.4253848"><ele>325.0</ele><time>2026-04-04T11:51:12.318Z</time></trkpt><trkpt lat="45.7072706" lon="9.4255487"><ele>325.0</ele><time>2026-04-04T11:51:14.319Z</time></trkpt><trkpt lat="45.7073383" lon="9.4256721"><ele>325.0</ele><time>2026-04-04T11:51:16.319Z</time></trkpt><trkpt lat="45.7074178" lon="9.4257984"><ele>325.0</ele><time>2026-04-04T11:51:18.319Z</time></trkpt><trkpt lat="45.7074621" lon="9.4258745"><ele>325.0</ele><time>2026-04-04T11:51:19.319Z</time></trkpt><trkpt lat="45.7075246" lon="9.4260091"><ele>325.0</ele><time>2026-04-04T11:51:21.319Z</time></trkpt><trkpt lat="45.7075457" lon="9.4261017"><ele>325.0</ele><time>2026-04-04T11:51:22.319Z</time></trkpt><trkpt lat="45.7075197" lon="9.426281"><ele>325.0</ele><time>2026-04-04T11:51:24.318Z</time></trkpt><trkpt lat="45.707491" lon="9.4263618"><ele>325.0</ele><time>2026-04-04T11:51:25.319Z</time></trkpt><trkpt lat="45.7074369" lon="9.4265148"><ele>325.0</ele><time>2026-04-04T11:51:27.319Z</time></trkpt><trkpt lat="45.7074218" lon="9.4266033"><ele>325.0</ele><time>2026-04-04T11:51:28.319Z</time></trkpt><trkpt lat="45.7074568" lon="9.4267012"><ele>325.0</ele><time>2026-04-04T11:51:29.319Z</time></trkpt><trkpt lat="45.7075097" lon="9.4268544"><ele>325.0</ele><time>2026-04-04T11:51:31.319Z</time></trkpt><trkpt lat="45.7075374" lon="9.4269414"><ele>325.0</ele><time>2026-04-04T11:51:32.318Z</time></trkpt><trkpt lat="45.7075648" lon="9.4270396"><ele>325.0</ele><time>2026-04-04T11:51:33.318Z</time></trkpt><trkpt lat="45.7075948" lon="9.4271307"><ele>325.3333333333333</ele><time>2026-04-04T11:51:34.319Z</time></trkpt><trkpt lat="45.7076169" lon="9.4272208"><ele>325.66666666666663</ele><time>2026-04-04T11:51:35.319Z</time></trkpt><trkpt lat="45.7076331" lon="9.4273348"><ele>326.0</ele><time>2026-04-04T11:51:36.319Z</time></trkpt><trkpt lat="45.7076669" lon="9.427476"><ele>326.3333333333333</ele><time>2026-04-04T11:51:37.319Z</time></trkpt><trkpt lat="45.7076504" lon="9.4275737"><ele>326.6666666666667</ele><time>2026-04-04T11:51:38.319Z</time></trkpt><trkpt lat="45.7075535" lon="9.4276561"><ele>327.0</ele><time>2026-04-04T11:51:40.319Z</time></trkpt><trkpt lat="45.7074486" lon="9.4277682"><ele>327.0</ele><time>2026-04-04T11:51:42.319Z</time></trkpt><trkpt lat="45.7073751" lon="9.4278623"><ele>327.0</ele><time>2026-04-04T11:51:44.319Z</time></trkpt><trkpt lat="45.7073253" lon="9.4279594"><ele>327.0</ele><time>2026-04-04T11:51:46.319Z</time></trkpt><trkpt lat="45.7074171" lon="9.4280399"><ele>327.0</ele><time>2026-04-04T11:51:49.318Z</time></trkpt><trkpt lat="45.7075195" lon="9.4280656"><ele>327.0</ele><time>2026-04-04T11:51:51.319Z</time></trkpt><trkpt lat="45.7076531" lon="9.4280842"><ele>327.1666666666667</ele><time>2026-04-04T11:51:53.318Z</time></trkpt><trkpt lat="45.7077606" lon="9.4281477"><ele>327.3333333333333</ele><time>2026-04-04T11:51:55.319Z</time></trkpt><trkpt lat="45.7077664" lon="9.4282548"><ele>327.5</ele><time>2026-04-04T11:51:56.319Z</time></trkpt><trkpt lat="45.7077676" lon="9.4283587"><ele>327.66666666666663</ele><time>2026-04-04T11:51:57.318Z</time></trkpt><trkpt lat="45.7077554" lon="9.4284618"><ele>327.8333333333333</ele><time>2026-04-04T11:51:58.319Z</time></trkpt><trkpt lat="45.7077321" lon="9.428562"><ele>328.0</ele><time>2026-04-04T11:51:59.319Z</time></trkpt><trkpt lat="45.7077126" lon="9.4286851"><ele>328.0</ele><time>2026-04-04T11:52:00.319Z</time></trkpt><trkpt lat="45.707693" lon="9.4288008"><ele>328.0</ele><time>2026-04-04T11:52:01.319Z</time></trkpt><trkpt lat="45.7076773" lon="9.4289407"><ele>328.0</ele><time>2026-04-04T11:52:02.319Z</time></trkpt><trkpt lat="45.7076641" lon="9.4290569"><ele>328.0</ele><time>2026-04-04T11:52:03.319Z</time></trkpt><trkpt lat="45.7076523" lon="9.429159"><ele>328.0</ele><time>2026-04-04T11:52:04.319Z</time></trkpt><trkpt lat="45.7076313" lon="9.4293185"><ele>327.2</ele><time>2026-04-04T11:52:06.319Z</time></trkpt><trkpt lat="45.7075723" lon="9.429425"><ele>326.4</ele><time>2026-04-04T11:52:08.319Z</time></trkpt><trkpt lat="45.7074963" lon="9.4294884"><ele>325.59999999999997</ele><time>2026-04-04T11:52:10.319Z</time></trkpt><trkpt lat="45.707428" lon="9.4295618"><ele>324.79999999999995</ele><time>2026-04-04T11:52:12.319Z</time></trkpt><trkpt lat="45.7073561" lon="9.4296317"><ele>324.0</ele><time>2026-04-04T11:52:14.319Z</time></trkpt><trkpt lat="45.7072943" lon="9.4297398"><ele>323.2</ele><time>2026-04-04T11:52:16.319Z</time></trkpt><trkpt lat="45.7072405" lon="9.4298405"><ele>322.4</ele><time>2026-04-04T11:52:18.318Z</time></trkpt><trkpt lat="45.7071391" lon="9.4299339"><ele>321.6</ele><time>2026-04-04T11:52:20.319Z</time></trkpt><trkpt lat="45.7070094" lon="9.43001"><ele>320.8</ele><time>2026-04-04T11:52:22.319Z</time></trkpt><trkpt lat="45.7069207" lon="9.4300556"><ele>320.0</ele><time>2026-04-04T11:52:24.319Z</time></trkpt><trkpt lat="45.7068498" lon="9.4301052"><ele>321.33333333333337</ele><time>2026-04-04T11:52:26.319Z</time></trkpt><trkpt lat="45.706781" lon="9.4301211"><ele>322.6666666666667</ele><time>2026-04-04T11:52:30.319Z</time></trkpt><trkpt lat="45.7067266" lon="9.4301685"><ele>324.0</ele><time>2026-04-04T11:52:33.318Z</time></trkpt><trkpt lat="45.7066651" lon="9.4302202"><ele>325.3333333333333</ele><time>2026-04-04T11:52:37.319Z</time></trkpt><trkpt lat="45.7065831" lon="9.4302426"><ele>326.66666666666663</ele><time>2026-04-04T11:52:41.319Z</time></trkpt><trkpt lat="45.7064932" lon="9.4302436"><ele>328.0</ele><time>2026-04-04T11:52:44.319Z</time></trkpt><trkpt lat="45.70642" lon="9.43027"><ele>328.0</ele><time>2026-04-04T11:52:46.318Z</time></trkpt><trkpt lat="45.7063441" lon="9.4303128"><ele>328.0</ele><time>2026-04-04T11:52:48.319Z</time></trkpt><trkpt lat="45.7062748" lon="9.4303766"><ele>328.0</ele><time>2026-04-04T11:52:50.319Z</time></trkpt><trkpt lat="45.7061997" lon="9.4304526"><ele>328.0</ele><time>2026-04-04T11:52:52.319Z</time></trkpt><trkpt lat="45.7060905" lon="9.4305543"><ele>328.0</ele><time>2026-04-04T11:52:54.319Z</time></trkpt><trkpt lat="45.7060004" lon="9.4306368"><ele>327.3333333333333</ele><time>2026-04-04T11:52:56.319Z</time></trkpt><trkpt lat="45.7059603" lon="9.4307194"><ele>326.66666666666663</ele><time>2026-04-04T11:52:58.318Z</time></trkpt><trkpt lat="45.7058978" lon="9.4307663"><ele>326.0</ele><time>2026-04-04T11:52:59.319Z</time></trkpt><trkpt lat="45.7058016" lon="9.4308466"><ele>325.3333333333333</ele><time>2026-04-04T11:53:00.318Z</time></trkpt><trkpt lat="45.7057511" lon="9.4309389"><ele>324.6666666666667</ele><time>2026-04-04T11:53:01.319Z</time></trkpt><trkpt lat="45.7056942" lon="9.4310035"><ele>324.0</ele><time>2026-04-04T11:53:02.318Z</time></trkpt><trkpt lat="45.705646" lon="9.4310711"><ele>324.0</ele><time>2026-04-04T11:53:03.318Z</time></trkpt><trkpt lat="45.7055717" lon="9.4312166"><ele>324.0</ele><time>2026-04-04T11:53:05.319Z</time></trkpt><trkpt lat="45.7055057" lon="9.4313509"><ele>324.0</ele><time>2026-04-04T11:53:07.319Z</time></trkpt><trkpt lat="45.7054553" lon="9.4314395"><ele>324.0</ele><time>2026-04-04T11:53:08.319Z</time></trkpt><trkpt lat="45.7054034" lon="9.4315145"><ele>324.0</ele><time>2026-04-04T11:53:09.319Z</time></trkpt><trkpt lat="45.705334" lon="9.4315749"><ele>323.7142857142857</ele><time>2026-04-04T11:53:10.319Z</time></trkpt><trkpt lat="45.7052771" lon="9.4316411"><ele>323.42857142857144</ele><time>2026-04-04T11:53:11.319Z</time></trkpt><trkpt lat="45.7052286" lon="9.4317087"><ele>323.1428571428571</ele><time>2026-04-04T11:53:12.319Z</time></trkpt><trkpt lat="45.7051844" lon="9.4317841"><ele>322.8571428571429</ele><time>2026-04-04T11:53:13.319Z</time></trkpt><trkpt lat="45.705122" lon="9.4318652"><ele>322.57142857142856</ele><time>2026-04-04T11:53:14.319Z</time></trkpt><trkpt lat="45.7050697" lon="9.4319335"><ele>322.2857142857143</ele><time>2026-04-04T11:53:15.319Z</time></trkpt><trkpt lat="45.7050216" lon="9.4319981"><ele>322.0</ele><time>2026-04-04T11:53:16.319Z</time></trkpt><trkpt lat="45.7049689" lon="9.4320649"><ele>322.0</ele><time>2026-04-04T11:53:17.319Z</time></trkpt><trkpt lat="45.7048851" lon="9.432125"><ele>322.0</ele><time>2026-04-04T11:53:18.319Z</time></trkpt><trkpt lat="45.7048025" lon="9.432187"><ele>322.0</ele><time>2026-04-04T11:53:19.319Z</time></trkpt><trkpt lat="45.7047509" lon="9.4322531"><ele>322.0</ele><time>2026-04-04T11:53:20.318Z</time></trkpt><trkpt lat="45.7046202" lon="9.4323351"><ele>322.0</ele><time>2026-04-04T11:53:22.318Z</time></trkpt><trkpt lat="45.7045368" lon="9.4323565"><ele>320.5</ele><time>2026-04-04T11:53:23.319Z</time></trkpt><trkpt lat="45.7044637" lon="9.4324111"><ele>319.0</ele><time>2026-04-04T11:53:24.319Z</time></trkpt><trkpt lat="45.7044107" lon="9.4324944"><ele>317.5</ele><time>2026-04-04T11:53:25.319Z</time></trkpt><trkpt lat="45.7043548" lon="9.4325452"><ele>316.0</ele><time>2026-04-04T11:53:26.318Z</time></trkpt><trkpt lat="45.7042804" lon="9.4325734"><ele>314.5</ele><time>2026-04-04T11:53:27.319Z</time></trkpt><trkpt lat="45.704159" lon="9.4325999"><ele>313.0</ele><time>2026-04-04T11:53:29.318Z</time></trkpt><trkpt lat="45.7040438" lon="9.4326514"><ele>312.5</ele><time>2026-04-04T11:53:31.318Z</time></trkpt><trkpt lat="45.7039737" lon="9.4326658"><ele>312.0</ele><time>2026-04-04T11:53:32.319Z</time></trkpt><trkpt lat="45.703866" lon="9.432706"><ele>311.5</ele><time>2026-04-04T11:53:34.319Z</time></trkpt><trkpt lat="45.7037915" lon="9.4327535"><ele>311.0</ele><time>2026-04-04T11:53:35.319Z</time></trkpt><trkpt lat="45.7037279" lon="9.4327908"><ele>310.5</ele><time>2026-04-04T11:53:36.319Z</time></trkpt><trkpt lat="45.7036381" lon="9.4328499"><ele>310.0</ele><time>2026-04-04T11:53:37.319Z</time></trkpt><trkpt lat="45.7035805" lon="9.4329013"><ele>309.6</ele><time>2026-04-04T11:53:38.319Z</time></trkpt><trkpt lat="45.7035157" lon="9.4329458"><ele>309.2</ele><time>2026-04-04T11:53:39.319Z</time></trkpt><trkpt lat="45.7034459" lon="9.4329867"><ele>308.8</ele><time>2026-04-04T11:53:40.319Z</time></trkpt><trkpt lat="45.7033809" lon="9.4330156"><ele>308.4</ele><time>2026-04-04T11:53:41.318Z</time></trkpt><trkpt lat="45.7032848" lon="9.4331152"><ele>308.0</ele><time>2026-04-04T11:53:43.319Z</time></trkpt><trkpt lat="45.7032015" lon="9.433264"><ele>307.5</ele><time>2026-04-04T11:53:45.318Z</time></trkpt><trkpt lat="45.7031385" lon="9.4334246"><ele>307.0</ele><time>2026-04-04T11:53:47.319Z</time></trkpt><trkpt lat="45.7030888" lon="9.4334962"><ele>306.5</ele><time>2026-04-04T11:53:48.319Z</time></trkpt><trkpt lat="45.7030143" lon="9.4336401"><ele>306.0</ele><time>2026-04-04T11:53:50.319Z</time></trkpt><trkpt lat="45.7029321" lon="9.4337779"><ele>306.2</ele><time>2026-04-04T11:53:52.319Z</time></trkpt><trkpt lat="45.7028536" lon="9.4338862"><ele>306.40000000000003</ele><time>2026-04-04T11:53:54.319Z</time></trkpt><trkpt lat="45.7028065" lon="9.4339522"><ele>306.6</ele><time>2026-04-04T11:53:55.319Z</time></trkpt><trkpt lat="45.702726" lon="9.4340768"><ele>306.8</ele><time>2026-04-04T11:53:57.319Z</time></trkpt><trkpt lat="45.7026509" lon="9.434213"><ele>307.0</ele><time>2026-04-04T11:53:59.319Z</time></trkpt><trkpt lat="45.7025813" lon="9.4343332"><ele>306.75</ele><time>2026-04-04T11:54:01.319Z</time></trkpt><trkpt lat="45.7024931" lon="9.4344551"><ele>306.5</ele><time>2026-04-04T11:54:03.319Z</time></trkpt><trkpt lat="45.7024203" lon="9.4345873"><ele>306.25</ele><time>2026-04-04T11:54:05.319Z</time></trkpt><trkpt lat="45.7023472" lon="9.4347222"><ele>306.0</ele><time>2026-04-04T11:54:07.318Z</time></trkpt><trkpt lat="45.7022822" lon="9.4348566"><ele>306.0</ele><time>2026-04-04T11:54:09.319Z</time></trkpt><trkpt lat="45.7022216" lon="9.4349987"><ele>306.0</ele><time>2026-04-04T11:54:11.319Z</time></trkpt><trkpt lat="45.7021676" lon="9.4351327"><ele>306.0</ele><time>2026-04-04T11:54:13.319Z</time></trkpt><trkpt lat="45.7021025" lon="9.4352809"><ele>306.0</ele><time>2026-04-04T11:54:15.318Z</time></trkpt><trkpt lat="45.702057" lon="9.4354311"><ele>306.0</ele><time>2026-04-04T11:54:17.319Z</time></trkpt><trkpt lat="45.7020223" lon="9.4355816"><ele>306.0</ele><time>2026-04-04T11:54:19.318Z</time></trkpt><trkpt lat="45.7019591" lon="9.4357212"><ele>306.0</ele><time>2026-04-04T11:54:21.319Z</time></trkpt><trkpt lat="45.7018926" lon="9.4358661"><ele>306.0</ele><time>2026-04-04T11:54:23.319Z</time></trkpt><trkpt lat="45.7018481" lon="9.4359396"><ele>306.0</ele><time>2026-04-04T11:54:24.318Z</time></trkpt><trkpt lat="45.7017898" lon="9.4359994"><ele>306.2</ele><time>2026-04-04T11:54:25.319Z</time></trkpt><trkpt lat="45.70172" lon="9.4361362"><ele>306.40000000000003</ele><time>2026-04-04T11:54:27.319Z</time></trkpt><trkpt lat="45.7016679" lon="9.4362755"><ele>306.6</ele><time>2026-04-04T11:54:29.319Z</time></trkpt><trkpt lat="45.7015826" lon="9.4364225"><ele>306.8</ele><time>2026-04-04T11:54:31.319Z</time></trkpt><trkpt lat="45.7015292" lon="9.4365118"><ele>307.0</ele><time>2026-04-04T11:54:32.319Z</time></trkpt><trkpt lat="45.7014472" lon="9.4366546"><ele>306.6</ele><time>2026-04-04T11:54:34.319Z</time></trkpt><trkpt lat="45.7014124" lon="9.4367419"><ele>306.2</ele><time>2026-04-04T11:54:35.319Z</time></trkpt><trkpt lat="45.701387" lon="9.4368405"><ele>305.8</ele><time>2026-04-04T11:54:36.319Z</time></trkpt><trkpt lat="45.7013425" lon="9.4370044"><ele>305.4</ele><time>2026-04-04T11:54:38.318Z</time></trkpt><trkpt lat="45.7013212" lon="9.4370977"><ele>305.0</ele><time>2026-04-04T11:54:39.319Z</time></trkpt><trkpt lat="45.7012452" lon="9.4372319"><ele>305.0</ele><time>2026-04-04T11:54:41.319Z</time></trkpt><trkpt lat="45.7011742" lon="9.4373756"><ele>305.0</ele><time>2026-04-04T11:54:43.319Z</time></trkpt><trkpt lat="45.7011328" lon="9.4374457"><ele>305.0</ele><time>2026-04-04T11:54:44.319Z</time></trkpt><trkpt lat="45.7010757" lon="9.4375919"><ele>305.0</ele><time>2026-04-04T11:54:46.319Z</time></trkpt><trkpt lat="45.7009982" lon="9.4376952"><ele>305.0</ele><time>2026-04-04T11:54:48.319Z</time></trkpt><trkpt lat="45.7008942" lon="9.4377526"><ele>304.8</ele><time>2026-04-04T11:54:50.319Z</time></trkpt><trkpt lat="45.7008305" lon="9.4377722"><ele>304.6</ele><time>2026-04-04T11:54:51.318Z</time></trkpt><trkpt lat="45.700714" lon="9.4377433"><ele>304.4</ele><time>2026-04-04T11:54:53.319Z</time></trkpt><trkpt lat="45.7006038" lon="9.4377677"><ele>304.2</ele><time>2026-04-04T11:54:55.318Z</time></trkpt><trkpt lat="45.7005015" lon="9.4377934"><ele>304.0</ele><time>2026-04-04T11:54:57.318Z</time></trkpt><trkpt lat="45.7003938" lon="9.4378061"><ele>304.0</ele><time>2026-04-04T11:54:59.319Z</time></trkpt><trkpt lat="45.7003233" lon="9.4378219"><ele>304.0</ele><time>2026-04-04T11:55:00.318Z</time></trkpt><trkpt lat="45.7002618" lon="9.4378475"><ele>304.0</ele><time>2026-04-04T11:55:01.319Z</time></trkpt><trkpt lat="45.7001584" lon="9.4379287"><ele>304.0</ele><time>2026-04-04T11:55:03.319Z</time></trkpt><trkpt lat="45.700045" lon="9.4380245"><ele>304.0</ele><time>2026-04-04T11:55:05.319Z</time></trkpt><trkpt lat="45.6999461" lon="9.4381052"><ele>304.66666666666663</ele><time>2026-04-04T11:55:07.318Z</time></trkpt><trkpt lat="45.6998701" lon="9.4381406"><ele>305.3333333333333</ele><time>2026-04-04T11:55:09.319Z</time></trkpt><trkpt lat="45.6998025" lon="9.4381454"><ele>306.0</ele><time>2026-04-04T11:55:10.318Z</time></trkpt><trkpt lat="45.6996986" lon="9.4381484"><ele>306.6666666666667</ele><time>2026-04-04T11:55:12.319Z</time></trkpt><trkpt lat="45.6996231" lon="9.4381856"><ele>307.33333333333337</ele><time>2026-04-04T11:55:14.319Z</time></trkpt><trkpt lat="45.6995633" lon="9.4382155"><ele>308.0</ele><time>2026-04-04T11:55:15.318Z</time></trkpt><trkpt lat="45.69946" lon="9.4382715"><ele>309.0</ele><time>2026-04-04T11:55:17.318Z</time></trkpt><trkpt lat="45.6993604" lon="9.4383539"><ele>310.0</ele><time>2026-04-04T11:55:19.319Z</time></trkpt><trkpt lat="45.6993049" lon="9.4383977"><ele>311.0</ele><time>2026-04-04T11:55:20.319Z</time></trkpt><trkpt lat="45.6992027" lon="9.4385049"><ele>312.0</ele><time>2026-04-04T11:55:22.318Z</time></trkpt><trkpt lat="45.6991104" lon="9.4386288"><ele>313.0</ele><time>2026-04-04T11:55:24.319Z</time></trkpt><trkpt lat="45.6990937" lon="9.4387315"><ele>312.0</ele><time>2026-04-04T11:55:25.319Z</time></trkpt><trkpt lat="45.6990564" lon="9.4388133"><ele>311.0</ele><time>2026-04-04T11:55:26.319Z</time></trkpt><trkpt lat="45.6989933" lon="9.4389535"><ele>310.0</ele><time>2026-04-04T11:55:28.318Z</time></trkpt><trkpt lat="45.6989559" lon="9.4390327"><ele>309.0</ele><time>2026-04-04T11:55:29.318Z</time></trkpt><trkpt lat="45.6988988" lon="9.4391074"><ele>308.0</ele><time>2026-04-04T11:55:30.319Z</time></trkpt><trkpt lat="45.698866" lon="9.4391987"><ele>307.0</ele><time>2026-04-04T11:55:31.319Z</time></trkpt><trkpt lat="45.6988369" lon="9.4392888"><ele>307.0</ele><time>2026-04-04T11:55:32.318Z</time></trkpt><trkpt lat="45.6988087" lon="9.4393923"><ele>307.0</ele><time>2026-04-04T11:55:33.319Z</time></trkpt><trkpt lat="45.6987597" lon="9.439454"><ele>307.0</ele><time>2026-04-04T11:55:34.318Z</time></trkpt><trkpt lat="45.6987012" lon="9.4395293"><ele>307.0</ele><time>2026-04-04T11:55:35.319Z</time></trkpt><trkpt lat="45.69865" lon="9.4396738"><ele>307.0</ele><time>2026-04-04T11:55:37.318Z</time></trkpt><trkpt lat="45.6985977" lon="9.4398421"><ele>308.6</ele><time>2026-04-04T11:55:39.319Z</time></trkpt><trkpt lat="45.6985434" lon="9.4399872"><ele>310.2</ele><time>2026-04-04T11:55:41.319Z</time></trkpt><trkpt lat="45.6985207" lon="9.4400723"><ele>311.8</ele><time>2026-04-04T11:55:42.319Z</time></trkpt><trkpt lat="45.6984523" lon="9.4401931"><ele>313.4</ele><time>2026-04-04T11:55:44.319Z</time></trkpt><trkpt lat="45.6984217" lon="9.4403381"><ele>315.0</ele><time>2026-04-04T11:55:46.318Z</time></trkpt><trkpt lat="45.6983697" lon="9.440433"><ele>315.0</ele><time>2026-04-04T11:55:48.319Z</time></trkpt><trkpt lat="45.6982498" lon="9.4404354"><ele>315.0</ele><time>2026-04-04T11:55:50.319Z</time></trkpt><trkpt lat="45.6981223" lon="9.4404602"><ele>315.0</ele><time>2026-04-04T11:55:52.319Z</time></trkpt><trkpt lat="45.6980124" lon="9.4404836"><ele>315.0</ele><time>2026-04-04T11:55:54.319Z</time></trkpt><trkpt lat="45.6978834" lon="9.4405125"><ele>314.0</ele><time>2026-04-04T11:55:56.318Z</time></trkpt><trkpt lat="45.6978193" lon="9.4405167"><ele>313.0</ele><time>2026-04-04T11:55:57.318Z</time></trkpt><trkpt lat="45.6977213" lon="9.4405624"><ele>312.0</ele><time>2026-04-04T11:55:58.318Z</time></trkpt><trkpt lat="45.6976433" lon="9.4405959"><ele>311.0</ele><time>2026-04-04T11:55:59.319Z</time></trkpt><trkpt lat="45.6975636" lon="9.4405942"><ele>310.0</ele><time>2026-04-04T11:56:00.319Z</time></trkpt><trkpt lat="45.6974946" lon="9.4406344"><ele>309.0</ele><time>2026-04-04T11:56:01.319Z</time></trkpt><trkpt lat="45.6973635" lon="9.4406238"><ele>308.2</ele><time>2026-04-04T11:56:03.319Z</time></trkpt><trkpt lat="45.6972738" lon="9.4406595"><ele>307.4</ele><time>2026-04-04T11:56:04.319Z</time></trkpt><trkpt lat="45.6971742" lon="9.4407031"><ele>306.6</ele><time>2026-04-04T11:56:05.319Z</time></trkpt><trkpt lat="45.6970968" lon="9.440733"><ele>305.8</ele><time>2026-04-04T11:56:06.319Z</time></trkpt><trkpt lat="45.6969914" lon="9.4407587"><ele>305.0</ele><time>2026-04-04T11:56:07.318Z</time></trkpt><trkpt lat="45.6969002" lon="9.4407801"><ele>303.5</ele><time>2026-04-04T11:56:08.319Z</time></trkpt><trkpt lat="45.6968204" lon="9.4407949"><ele>302.0</ele><time>2026-04-04T11:56:09.319Z</time></trkpt><trkpt lat="45.6967241" lon="9.4407981"><ele>300.5</ele><time>2026-04-04T11:56:10.318Z</time></trkpt><trkpt lat="45.6966404" lon="9.4408005"><ele>299.0</ele><time>2026-04-04T11:56:11.318Z</time></trkpt><trkpt lat="45.6965588" lon="9.440823"><ele>297.5</ele><time>2026-04-04T11:56:12.318Z</time></trkpt><trkpt lat="45.6964681" lon="9.4408173"><ele>296.0</ele><time>2026-04-04T11:56:13.319Z</time></trkpt><trkpt lat="45.6963853" lon="9.4408269"><ele>296.0</ele><time>2026-04-04T11:56:14.318Z</time></trkpt><trkpt lat="45.6962649" lon="9.4408475"><ele>296.0</ele><time>2026-04-04T11:56:15.319Z</time></trkpt><trkpt lat="45.6961736" lon="9.4408591"><ele>296.0</ele><time>2026-04-04T11:56:16.319Z</time></trkpt><trkpt lat="45.6960838" lon="9.4408726"><ele>296.0</ele><time>2026-04-04T11:56:17.319Z</time></trkpt><trkpt lat="45.6959898" lon="9.4408767"><ele>296.0</ele><time>2026-04-04T11:56:18.319Z</time></trkpt><trkpt lat="45.6958928" lon="9.4408836"><ele>295.2</ele><time>2026-04-04T11:56:19.318Z</time></trkpt><trkpt lat="45.6958063" lon="9.4408903"><ele>294.40000000000003</ele><time>2026-04-04T11:56:20.318Z</time></trkpt><trkpt lat="45.6957032" lon="9.4408729"><ele>293.6</ele><time>2026-04-04T11:56:21.319Z</time></trkpt><trkpt lat="45.6956022" lon="9.4408464"><ele>292.8</ele><time>2026-04-04T11:56:22.319Z</time></trkpt><trkpt lat="45.6954958" lon="9.4408361"><ele>292.0</ele><time>2026-04-04T11:56:23.319Z</time></trkpt><trkpt lat="45.6953944" lon="9.4408127"><ele>292.0</ele><time>2026-04-04T11:56:24.318Z</time></trkpt><trkpt lat="45.6953053" lon="9.4407776"><ele>292.0</ele><time>2026-04-04T11:56:25.319Z</time></trkpt><trkpt lat="45.6951962" lon="9.4407452"><ele>292.0</ele><time>2026-04-04T11:56:26.319Z</time></trkpt><trkpt lat="45.695095" lon="9.4407231"><ele>292.0</ele><time>2026-04-04T11:56:27.319Z</time></trkpt><trkpt lat="45.6950026" lon="9.4407244"><ele>292.0</ele><time>2026-04-04T11:56:28.319Z</time></trkpt><trkpt lat="45.6949146" lon="9.440735"><ele>290.8</ele><time>2026-04-04T11:56:29.318Z</time></trkpt><trkpt lat="45.6948241" lon="9.4407647"><ele>289.6</ele><time>2026-04-04T11:56:30.319Z</time></trkpt><trkpt lat="45.6947278" lon="9.4408223"><ele>288.40000000000003</ele><time>2026-04-04T11:56:31.318Z</time></trkpt><trkpt lat="45.6946443" lon="9.4408812"><ele>287.2</ele><time>2026-04-04T11:56:32.319Z</time></trkpt><trkpt lat="45.6945672" lon="9.4409306"><ele>286.0</ele><time>2026-04-04T11:56:33.319Z</time></trkpt><trkpt lat="45.6944872" lon="9.4409891"><ele>285.3333333333333</ele><time>2026-04-04T11:56:34.319Z</time></trkpt><trkpt lat="45.6944087" lon="9.4410354"><ele>284.66666666666663</ele><time>2026-04-04T11:56:35.319Z</time></trkpt><trkpt lat="45.6943322" lon="9.4410793"><ele>284.0</ele><time>2026-04-04T11:56:36.319Z</time></trkpt><trkpt lat="45.6942578" lon="9.4411204"><ele>283.3333333333333</ele><time>2026-04-04T11:56:37.319Z</time></trkpt><trkpt lat="45.6941919" lon="9.4411592"><ele>282.6666666666667</ele><time>2026-04-04T11:56:38.319Z</time></trkpt><trkpt lat="45.6941087" lon="9.4412017"><ele>282.0</ele><time>2026-04-04T11:56:39.319Z</time></trkpt><trkpt lat="45.6940075" lon="9.4412401"><ele>282.0</ele><time>2026-04-04T11:56:40.319Z</time></trkpt><trkpt lat="45.69393" lon="9.4412649"><ele>282.0</ele><time>2026-04-04T11:56:41.318Z</time></trkpt><trkpt lat="45.6938525" lon="9.4412946"><ele>282.0</ele><time>2026-04-04T11:56:42.319Z</time></trkpt><trkpt lat="45.6937817" lon="9.4413187"><ele>282.0</ele><time>2026-04-04T11:56:43.319Z</time></trkpt><trkpt lat="45.6937013" lon="9.4413602"><ele>282.0</ele><time>2026-04-04T11:56:44.318Z</time></trkpt><trkpt lat="45.6936219" lon="9.4413993"><ele>282.0</ele><time>2026-04-04T11:56:45.319Z</time></trkpt><trkpt lat="45.6935245" lon="9.4414402"><ele>281.8</ele><time>2026-04-04T11:56:46.319Z</time></trkpt><trkpt lat="45.6934406" lon="9.4414571"><ele>281.6</ele><time>2026-04-04T11:56:47.318Z</time></trkpt><trkpt lat="45.6933398" lon="9.4414881"><ele>281.40000000000003</ele><time>2026-04-04T11:56:48.319Z</time></trkpt><trkpt lat="45.6932425" lon="9.441521"><ele>281.2</ele><time>2026-04-04T11:56:49.319Z</time></trkpt><trkpt lat="45.6931662" lon="9.4415379"><ele>281.0</ele><time>2026-04-04T11:56:50.319Z</time></trkpt><trkpt lat="45.6930634" lon="9.4415624"><ele>281.0</ele><time>2026-04-04T11:56:51.319Z</time></trkpt><trkpt lat="45.6929571" lon="9.441587"><ele>281.0</ele><time>2026-04-04T11:56:52.318Z</time></trkpt><trkpt lat="45.6928754" lon="9.4416187"><ele>281.0</ele><time>2026-04-04T11:56:53.319Z</time></trkpt><trkpt lat="45.6927993" lon="9.4416489"><ele>281.0</ele><time>2026-04-04T11:56:54.319Z</time></trkpt><trkpt lat="45.6927249" lon="9.4416781"><ele>281.0</ele><time>2026-04-04T11:56:55.318Z</time></trkpt><trkpt lat="45.6926566" lon="9.4417021"><ele>281.0</ele><time>2026-04-04T11:56:56.319Z</time></trkpt><trkpt lat="45.6925886" lon="9.4417177"><ele>280.0</ele><time>2026-04-04T11:56:57.318Z</time></trkpt><trkpt lat="45.6925224" lon="9.4417231"><ele>279.0</ele><time>2026-04-04T11:56:58.319Z</time></trkpt><trkpt lat="45.6924097" lon="9.4417158"><ele>278.0</ele><time>2026-04-04T11:57:00.319Z</time></trkpt><trkpt lat="45.6923459" lon="9.441719"><ele>277.0</ele><time>2026-04-04T11:57:01.318Z</time></trkpt><trkpt lat="45.6922798" lon="9.4417079"><ele>276.0</ele><time>2026-04-04T11:57:02.319Z</time></trkpt><trkpt lat="45.6922016" lon="9.4416982"><ele>275.0</ele><time>2026-04-04T11:57:03.318Z</time></trkpt><trkpt lat="45.6921208" lon="9.4416959"><ele>275.0</ele><time>2026-04-04T11:57:04.318Z</time></trkpt><trkpt lat="45.6920273" lon="9.4417033"><ele>275.0</ele><time>2026-04-04T11:57:06.319Z</time></trkpt><trkpt lat="45.6918867" lon="9.441671"><ele>275.0</ele><time>2026-04-04T11:57:08.319Z</time></trkpt><trkpt lat="45.6918203" lon="9.4416676"><ele>275.0</ele><time>2026-04-04T11:57:09.319Z</time></trkpt><trkpt lat="45.6917524" lon="9.4416425"><ele>275.0</ele><time>2026-04-04T11:57:10.319Z</time></trkpt><trkpt lat="45.6916501" lon="9.4416347"><ele>274.6666666666667</ele><time>2026-04-04T11:57:12.319Z</time></trkpt><trkpt lat="45.6915895" lon="9.4416974"><ele>274.33333333333337</ele><time>2026-04-04T11:57:13.319Z</time></trkpt><trkpt lat="45.6915463" lon="9.4417731"><ele>274.0</ele><time>2026-04-04T11:57:14.318Z</time></trkpt><trkpt lat="45.6914991" lon="9.4418416"><ele>273.6666666666667</ele><time>2026-04-04T11:57:15.319Z</time></trkpt><trkpt lat="45.691419" lon="9.4419737"><ele>273.3333333333333</ele><time>2026-04-04T11:57:17.319Z</time></trkpt><trkpt lat="45.6913354" lon="9.4420535"><ele>273.0</ele><time>2026-04-04T11:57:19.319Z</time></trkpt><trkpt lat="45.6912678" lon="9.4420778"><ele>273.0</ele><time>2026-04-04T11:57:20.319Z</time></trkpt><trkpt lat="45.691196" lon="9.4421084"><ele>273.0</ele><time>2026-04-04T11:57:21.319Z</time></trkpt><trkpt lat="45.6910904" lon="9.4421278"><ele>273.0</ele><time>2026-04-04T11:57:25.319Z</time></trkpt><trkpt lat="45.6909714" lon="9.4421303"><ele>273.0</ele><time>2026-04-04T11:57:26.319Z</time></trkpt><trkpt lat="45.6908994" lon="9.4421815"><ele>273.0</ele><time>2026-04-04T11:57:27.318Z</time></trkpt><trkpt lat="45.6908467" lon="9.4422446"><ele>273.0</ele><time>2026-04-04T11:57:28.319Z</time></trkpt><trkpt lat="45.690762" lon="9.4422526"><ele>273.8333333333333</ele><time>2026-04-04T11:57:29.319Z</time></trkpt><trkpt lat="45.6906872" lon="9.44228"><ele>274.6666666666667</ele><time>2026-04-04T11:57:30.318Z</time></trkpt><trkpt lat="45.69057" lon="9.4423665"><ele>275.5</ele><time>2026-04-04T11:57:32.319Z</time></trkpt><trkpt lat="45.6905047" lon="9.4424069"><ele>276.33333333333337</ele><time>2026-04-04T11:57:33.318Z</time></trkpt><trkpt lat="45.6904417" lon="9.4424392"><ele>277.1666666666667</ele><time>2026-04-04T11:57:34.319Z</time></trkpt><trkpt lat="45.690362" lon="9.4424913"><ele>278.0</ele><time>2026-04-04T11:57:35.319Z</time></trkpt><trkpt lat="45.6902705" lon="9.4425263"><ele>277.1666666666667</ele><time>2026-04-04T11:57:36.319Z</time></trkpt><trkpt lat="45.6902115" lon="9.4425905"><ele>276.33333333333337</ele><time>2026-04-04T11:57:37.319Z</time></trkpt><trkpt lat="45.6901483" lon="9.4426328"><ele>275.5</ele><time>2026-04-04T11:57:38.319Z</time></trkpt><trkpt lat="45.6900962" lon="9.4426867"><ele>274.6666666666667</ele><time>2026-04-04T11:57:39.319Z</time></trkpt><trkpt lat="45.6900369" lon="9.4427273"><ele>273.8333333333333</ele><time>2026-04-04T11:57:40.319Z</time></trkpt><trkpt lat="45.6899342" lon="9.4428312"><ele>273.0</ele><time>2026-04-04T11:57:42.318Z</time></trkpt><trkpt lat="45.6898838" lon="9.4428908"><ele>273.0</ele><time>2026-04-04T11:57:43.319Z</time></trkpt><trkpt lat="45.6898264" lon="9.4429414"><ele>273.0</ele><time>2026-04-04T11:57:44.318Z</time></trkpt><trkpt lat="45.6897224" lon="9.4430421"><ele>273.0</ele><time>2026-04-04T11:57:46.319Z</time></trkpt><trkpt lat="45.6896664" lon="9.4430898"><ele>273.0</ele><time>2026-04-04T11:57:47.318Z</time></trkpt><trkpt lat="45.6895781" lon="9.4431412"><ele>273.0</ele><time>2026-04-04T11:57:48.319Z</time></trkpt><trkpt lat="45.68952" lon="9.4431916"><ele>273.0</ele><time>2026-04-04T11:57:49.318Z</time></trkpt><trkpt lat="45.6894691" lon="9.4432495"><ele>273.3333333333333</ele><time>2026-04-04T11:57:50.319Z</time></trkpt><trkpt lat="45.6894005" lon="9.4432946"><ele>273.6666666666667</ele><time>2026-04-04T11:57:51.319Z</time></trkpt><trkpt lat="45.6893298" lon="9.4433275"><ele>274.0</ele><time>2026-04-04T11:57:52.319Z</time></trkpt><trkpt lat="45.6892781" lon="9.4433994"><ele>274.33333333333337</ele><time>2026-04-04T11:57:53.318Z</time></trkpt><trkpt lat="45.6891605" lon="9.4435098"><ele>274.6666666666667</ele><time>2026-04-04T11:57:55.319Z</time></trkpt><trkpt lat="45.6891022" lon="9.443548"><ele>275.0</ele><time>2026-04-04T11:57:56.319Z</time></trkpt><trkpt lat="45.6890208" lon="9.4435966"><ele>275.0</ele><time>2026-04-04T11:57:57.318Z</time></trkpt><trkpt lat="45.6889028" lon="9.4436884"><ele>275.0</ele><time>2026-04-04T11:57:59.319Z</time></trkpt><trkpt lat="45.6887933" lon="9.4437849"><ele>275.0</ele><time>2026-04-04T11:58:01.318Z</time></trkpt><trkpt lat="45.6886718" lon="9.4438728"><ele>275.0</ele><time>2026-04-04T11:58:03.319Z</time></trkpt><trkpt lat="45.6886186" lon="9.4439268"><ele>275.1666666666667</ele><time>2026-04-04T11:58:04.318Z</time></trkpt><trkpt lat="45.6885568" lon="9.4439669"><ele>275.33333333333337</ele><time>2026-04-04T11:58:05.319Z</time></trkpt><trkpt lat="45.6885063" lon="9.4440323"><ele>275.5</ele><time>2026-04-04T11:58:06.319Z</time></trkpt><trkpt lat="45.6884325" lon="9.4440724"><ele>275.6666666666667</ele><time>2026-04-04T11:58:07.319Z</time></trkpt><trkpt lat="45.6883752" lon="9.4441283"><ele>275.8333333333333</ele><time>2026-04-04T11:58:08.319Z</time></trkpt><trkpt lat="45.6882737" lon="9.4442188"><ele>276.0</ele><time>2026-04-04T11:58:10.319Z</time></trkpt><trkpt lat="45.6882134" lon="9.4442768"><ele>276.0</ele><time>2026-04-04T11:58:11.318Z</time></trkpt><trkpt lat="45.6881577" lon="9.4443362"><ele>276.0</ele><time>2026-04-04T11:58:12.319Z</time></trkpt><trkpt lat="45.6881096" lon="9.4444044"><ele>276.0</ele><time>2026-04-04T11:58:13.319Z</time></trkpt><trkpt lat="45.6880168" lon="9.4445157"><ele>276.0</ele><time>2026-04-04T11:58:15.318Z</time></trkpt><trkpt lat="45.6879636" lon="9.4445752"><ele>276.0</ele><time>2026-04-04T11:58:16.319Z</time></trkpt><trkpt lat="45.6879107" lon="9.4446344"><ele>276.0</ele><time>2026-04-04T11:58:17.319Z</time></trkpt><trkpt lat="45.6877811" lon="9.444708"><ele>275.8</ele><time>2026-04-04T11:58:19.319Z</time></trkpt><trkpt lat="45.6876756" lon="9.4447912"><ele>275.6</ele><time>2026-04-04T11:58:21.319Z</time></trkpt><trkpt lat="45.6875528" lon="9.4448931"><ele>275.4</ele><time>2026-04-04T11:58:23.319Z</time></trkpt><trkpt lat="45.6874559" lon="9.4449668"><ele>275.2</ele><time>2026-04-04T11:58:25.318Z</time></trkpt><trkpt lat="45.6873883" lon="9.4450093"><ele>275.0</ele><time>2026-04-04T11:58:26.319Z</time></trkpt><trkpt lat="45.687243" lon="9.4450947"><ele>275.0</ele><time>2026-04-04T11:58:28.319Z</time></trkpt><trkpt lat="45.6871524" lon="9.4451054"><ele>275.0</ele><time>2026-04-04T11:58:30.319Z</time></trkpt><trkpt lat="45.6870851" lon="9.4451333"><ele>275.0</ele><time>2026-04-04T11:58:31.319Z</time></trkpt><trkpt lat="45.6870091" lon="9.4451285"><ele>275.0</ele><time>2026-04-04T11:58:32.318Z</time></trkpt><trkpt lat="45.6869341" lon="9.4451441"><ele>275.0</ele><time>2026-04-04T11:58:33.319Z</time></trkpt><trkpt lat="45.6868163" lon="9.4451509"><ele>275.0</ele><time>2026-04-04T11:58:35.319Z</time></trkpt><trkpt lat="45.6867173" lon="9.4451514"><ele>274.83333333333337</ele><time>2026-04-04T11:58:37.319Z</time></trkpt><trkpt lat="45.6866343" lon="9.4451529"><ele>274.6666666666667</ele><time>2026-04-04T11:58:38.319Z</time></trkpt><trkpt lat="45.6865432" lon="9.4451675"><ele>274.5</ele><time>2026-04-04T11:58:39.319Z</time></trkpt><trkpt lat="45.6864734" lon="9.4451915"><ele>274.3333333333333</ele><time>2026-04-04T11:58:40.318Z</time></trkpt><trkpt lat="45.6863986" lon="9.4451476"><ele>274.16666666666663</ele><time>2026-04-04T11:58:41.319Z</time></trkpt><trkpt lat="45.6863203" lon="9.4451345"><ele>274.0</ele><time>2026-04-04T11:58:42.319Z</time></trkpt><trkpt lat="45.686243" lon="9.4451296"><ele>274.0</ele><time>2026-04-04T11:58:43.319Z</time></trkpt><trkpt lat="45.6861697" lon="9.4451214"><ele>274.0</ele><time>2026-04-04T11:58:44.319Z</time></trkpt><trkpt lat="45.6860893" lon="9.4451183"><ele>274.0</ele><time>2026-04-04T11:58:45.319Z</time></trkpt><trkpt lat="45.6860173" lon="9.4450901"><ele>274.0</ele><time>2026-04-04T11:58:46.319Z</time></trkpt><trkpt lat="45.6859481" lon="9.4450624"><ele>274.0</ele><time>2026-04-04T11:58:47.318Z</time></trkpt><trkpt lat="45.6858741" lon="9.4450261"><ele>274.0</ele><time>2026-04-04T11:58:48.318Z</time></trkpt><trkpt lat="45.6857968" lon="9.445024"><ele>273.7142857142857</ele><time>2026-04-04T11:58:49.319Z</time></trkpt><trkpt lat="45.6857268" lon="9.4450172"><ele>273.42857142857144</ele><time>2026-04-04T11:58:50.318Z</time></trkpt><trkpt lat="45.6856611" lon="9.4450028"><ele>273.1428571428571</ele><time>2026-04-04T11:58:51.318Z</time></trkpt><trkpt lat="45.6855934" lon="9.4449908"><ele>272.8571428571429</ele><time>2026-04-04T11:58:52.319Z</time></trkpt><trkpt lat="45.6855173" lon="9.4449796"><ele>272.57142857142856</ele><time>2026-04-04T11:58:53.319Z</time></trkpt><trkpt lat="45.6854502" lon="9.444952"><ele>272.2857142857143</ele><time>2026-04-04T11:58:54.319Z</time></trkpt><trkpt lat="45.6853723" lon="9.4449095"><ele>272.0</ele><time>2026-04-04T11:58:55.319Z</time></trkpt><trkpt lat="45.6853013" lon="9.4448896"><ele>272.1666666666667</ele><time>2026-04-04T11:58:56.319Z</time></trkpt><trkpt lat="45.6852276" lon="9.4448558"><ele>272.33333333333337</ele><time>2026-04-04T11:58:57.319Z</time></trkpt><trkpt lat="45.6851463" lon="9.4448383"><ele>272.5</ele><time>2026-04-04T11:58:58.319Z</time></trkpt><trkpt lat="45.6850701" lon="9.4448182"><ele>272.6666666666667</ele><time>2026-04-04T11:58:59.319Z</time></trkpt><trkpt lat="45.6850011" lon="9.4447939"><ele>272.8333333333333</ele><time>2026-04-04T11:59:00.319Z</time></trkpt><trkpt lat="45.684918" lon="9.4447928"><ele>273.0</ele><time>2026-04-04T11:59:01.319Z</time></trkpt><trkpt lat="45.6848507" lon="9.4447718"><ele>273.0</ele><time>2026-04-04T11:59:02.319Z</time></trkpt><trkpt lat="45.6847758" lon="9.4447367"><ele>273.0</ele><time>2026-04-04T11:59:03.319Z</time></trkpt><trkpt lat="45.6847101" lon="9.4447034"><ele>273.0</ele><time>2026-04-04T11:59:04.318Z</time></trkpt><trkpt lat="45.6846428" lon="9.4446553"><ele>273.0</ele><time>2026-04-04T11:59:05.319Z</time></trkpt><trkpt lat="45.6845771" lon="9.4446222"><ele>273.0</ele><time>2026-04-04T11:59:06.318Z</time></trkpt><trkpt lat="45.6845117" lon="9.4445766"><ele>273.0</ele><time>2026-04-04T11:59:07.318Z</time></trkpt><trkpt lat="45.6844492" lon="9.4445536"><ele>273.0</ele><time>2026-04-04T11:59:08.319Z</time></trkpt><trkpt lat="45.6843877" lon="9.4445236"><ele>273.14285714285717</ele><time>2026-04-04T11:59:09.319Z</time></trkpt><trkpt lat="45.6843139" lon="9.4445152"><ele>273.2857142857143</ele><time>2026-04-04T11:59:10.319Z</time></trkpt><trkpt lat="45.6842408" lon="9.4445061"><ele>273.42857142857144</ele><time>2026-04-04T11:59:11.319Z</time></trkpt><trkpt lat="45.6841631" lon="9.444499"><ele>273.57142857142856</ele><time>2026-04-04T11:59:12.319Z</time></trkpt><trkpt lat="45.6840812" lon="9.4445014"><ele>273.7142857142857</ele><time>2026-04-04T11:59:13.319Z</time></trkpt><trkpt lat="45.6840146" lon="9.4444968"><ele>273.8571428571429</ele><time>2026-04-04T11:59:14.319Z</time></trkpt><trkpt lat="45.6839444" lon="9.4444789"><ele>274.0</ele><time>2026-04-04T11:59:15.319Z</time></trkpt><trkpt lat="45.6838582" lon="9.4445052"><ele>274.0</ele><time>2026-04-04T11:59:16.319Z</time></trkpt><trkpt lat="45.6837411" lon="9.4444896"><ele>274.0</ele><time>2026-04-04T11:59:18.319Z</time></trkpt><trkpt lat="45.6836188" lon="9.4445009"><ele>274.0</ele><time>2026-04-04T11:59:20.319Z</time></trkpt><trkpt lat="45.6834907" lon="9.4445118"><ele>274.0</ele><time>2026-04-04T11:59:22.319Z</time></trkpt><trkpt lat="45.6833859" lon="9.4445089"><ele>274.0</ele><time>2026-04-04T11:59:24.319Z</time></trkpt><trkpt lat="45.6833152" lon="9.4444913"><ele>274.0</ele><time>2026-04-04T11:59:25.319Z</time></trkpt><trkpt lat="45.6832088" lon="9.4444941"><ele>274.0</ele><time>2026-04-04T11:59:27.318Z</time></trkpt><trkpt lat="45.6831417" lon="9.444514"><ele>274.0</ele><time>2026-04-04T12:00:15.319Z</time></trkpt><trkpt lat="45.6830375" lon="9.4445302"><ele>274.0</ele><time>2026-04-04T12:00:17.319Z</time></trkpt><trkpt lat="45.6829726" lon="9.4445454"><ele>274.0</ele><time>2026-04-04T12:00:18.319Z</time></trkpt><trkpt lat="45.6828755" lon="9.4445754"><ele>274.0</ele><time>2026-04-04T12:00:20.319Z</time></trkpt><trkpt lat="45.6827864" lon="9.4445712"><ele>274.0</ele><time>2026-04-04T12:00:21.319Z</time></trkpt><trkpt lat="45.6827253" lon="9.4446043"><ele>274.0</ele><time>2026-04-04T12:00:22.319Z</time></trkpt><trkpt lat="45.6826194" lon="9.4445954"><ele>274.0</ele><time>2026-04-04T12:00:23.319Z</time></trkpt><trkpt lat="45.6824873" lon="9.4445617"><ele>274.0</ele><time>2026-04-04T12:00:24.319Z</time></trkpt><trkpt lat="45.6824141" lon="9.4445844"><ele>273.59999999999997</ele><time>2026-04-04T12:00:25.319Z</time></trkpt><trkpt lat="45.6822954" lon="9.4446038"><ele>273.2</ele><time>2026-04-04T12:00:27.319Z</time></trkpt><trkpt lat="45.6821491" lon="9.4446127"><ele>272.79999999999995</ele><time>2026-04-04T12:00:29.318Z</time></trkpt><trkpt lat="45.6820393" lon="9.4445864"><ele>272.4</ele><time>2026-04-04T12:00:30.319Z</time></trkpt><trkpt lat="45.6819759" lon="9.4445988"><ele>272.0</ele><time>2026-04-04T12:00:31.319Z</time></trkpt><trkpt lat="45.6818589" lon="9.4446424"><ele>272.0</ele><time>2026-04-04T12:00:33.319Z</time></trkpt><trkpt lat="45.681773" lon="9.4446667"><ele>272.0</ele><time>2026-04-04T12:00:35.319Z</time></trkpt><trkpt lat="45.6816533" lon="9.4446495"><ele>272.0</ele><time>2026-04-04T12:00:37.319Z</time></trkpt><trkpt lat="45.6815945" lon="9.4446849"><ele>272.0</ele><time>2026-04-04T12:00:38.319Z</time></trkpt><trkpt lat="45.6815105" lon="9.4446912"><ele>272.0</ele><time>2026-04-04T12:00:39.318Z</time></trkpt><trkpt lat="45.6814012" lon="9.4446102"><ele>272.0</ele><time>2026-04-04T12:00:41.319Z</time></trkpt><trkpt lat="45.6812513" lon="9.444601"><ele>272.0</ele><time>2026-04-04T12:00:43.319Z</time></trkpt><trkpt lat="45.6811893" lon="9.4446291"><ele>272.0</ele><time>2026-04-04T12:00:44.319Z</time></trkpt><trkpt lat="45.6811184" lon="9.4446628"><ele>272.0</ele><time>2026-04-04T12:00:45.319Z</time></trkpt><trkpt lat="45.6810265" lon="9.4446842"><ele>272.0</ele><time>2026-04-04T12:00:47.319Z</time></trkpt><trkpt lat="45.6808683" lon="9.4446471"><ele>272.2</ele><time>2026-04-04T12:00:49.319Z</time></trkpt><trkpt lat="45.6807664" lon="9.4445882"><ele>272.4</ele><time>2026-04-04T12:00:50.319Z</time></trkpt><trkpt lat="45.6806257" lon="9.4445545"><ele>272.6</ele><time>2026-04-04T12:00:51.319Z</time></trkpt><trkpt lat="45.6805553" lon="9.4445405"><ele>272.8</ele><time>2026-04-04T12:00:52.319Z</time></trkpt><trkpt lat="45.680499" lon="9.4444997"><ele>273.0</ele><time>2026-04-04T12:00:53.319Z</time></trkpt><trkpt lat="45.6803619" lon="9.4444933"><ele>273.0</ele><time>2026-04-04T12:00:55.319Z</time></trkpt><trkpt lat="45.6802937" lon="9.4444416"><ele>273.0</ele><time>2026-04-04T12:00:57.319Z</time></trkpt><trkpt lat="45.6801585" lon="9.4444535"><ele>273.0</ele><time>2026-04-04T12:00:59.319Z</time></trkpt><trkpt lat="45.6800489" lon="9.444423"><ele>273.0</ele><time>2026-04-04T12:01:01.319Z</time></trkpt><trkpt lat="45.6799102" lon="9.444358"><ele>272.5</ele><time>2026-04-04T12:01:03.318Z</time></trkpt><trkpt lat="45.6798081" lon="9.4442854"><ele>272.0</ele><time>2026-04-04T12:01:05.319Z</time></trkpt><trkpt lat="45.6797394" lon="9.444245"><ele>271.5</ele><time>2026-04-04T12:01:06.319Z</time></trkpt><trkpt lat="45.6796704" lon="9.4442328"><ele>271.0</ele><time>2026-04-04T12:01:07.318Z</time></trkpt><trkpt lat="45.6796089" lon="9.4442103"><ele>270.5</ele><time>2026-04-04T12:01:08.319Z</time></trkpt><trkpt lat="45.679542" lon="9.444192"><ele>270.0</ele><time>2026-04-04T12:01:09.319Z</time></trkpt><trkpt lat="45.6794674" lon="9.4441848"><ele>269.4</ele><time>2026-04-04T12:01:10.318Z</time></trkpt><trkpt lat="45.6793914" lon="9.4441738"><ele>268.8</ele><time>2026-04-04T12:01:11.319Z</time></trkpt><trkpt lat="45.6792478" lon="9.4441433"><ele>268.2</ele><time>2026-04-04T12:01:13.319Z</time></trkpt><trkpt lat="45.6791714" lon="9.4441357"><ele>267.6</ele><time>2026-04-04T12:01:14.318Z</time></trkpt><trkpt lat="45.6790994" lon="9.4441145"><ele>267.0</ele><time>2026-04-04T12:01:15.319Z</time></trkpt><trkpt lat="45.6789545" lon="9.4441036"><ele>267.00000000000006</ele><time>2026-04-04T12:01:17.319Z</time></trkpt><trkpt lat="45.6788753" lon="9.4440702"><ele>267.0</ele><time>2026-04-04T12:01:18.318Z</time></trkpt><trkpt lat="45.6788001" lon="9.4440648"><ele>267.0</ele><time>2026-04-04T12:01:19.319Z</time></trkpt><trkpt lat="45.6787297" lon="9.4440489"><ele>267.0</ele><time>2026-04-04T12:01:20.319Z</time></trkpt><trkpt lat="45.6786573" lon="9.4440261"><ele>267.0</ele><time>2026-04-04T12:01:21.319Z</time></trkpt><trkpt lat="45.6785769" lon="9.4440108"><ele>267.00000000000006</ele><time>2026-04-04T12:01:22.319Z</time></trkpt><trkpt lat="45.6785168" lon="9.4439835"><ele>267.0</ele><time>2026-04-04T12:01:23.319Z</time></trkpt><trkpt lat="45.6784365" lon="9.4439557"><ele>267.0</ele><time>2026-04-04T12:01:24.319Z</time></trkpt><trkpt lat="45.6783636" lon="9.443937"><ele>267.0</ele><time>2026-04-04T12:01:25.319Z</time></trkpt><trkpt lat="45.6782389" lon="9.4439101"><ele>267.0</ele><time>2026-04-04T12:01:27.319Z</time></trkpt><trkpt lat="45.6781539" lon="9.4438987"><ele>267.0</ele><time>2026-04-04T12:01:28.318Z</time></trkpt><trkpt lat="45.678082" lon="9.4438906"><ele>267.0</ele><time>2026-04-04T12:01:29.318Z</time></trkpt><trkpt lat="45.6780014" lon="9.4438787"><ele>267.0</ele><time>2026-04-04T12:01:30.319Z</time></trkpt><trkpt lat="45.6779212" lon="9.4438755"><ele>267.0</ele><time>2026-04-04T12:01:31.319Z</time></trkpt><trkpt lat="45.6778334" lon="9.4438543"><ele>267.0</ele><time>2026-04-04T12:01:32.318Z</time></trkpt><trkpt lat="45.6777532" lon="9.4438393"><ele>267.0</ele><time>2026-04-04T12:01:33.319Z</time></trkpt><trkpt lat="45.6776777" lon="9.4438305"><ele>267.0</ele><time>2026-04-04T12:01:34.318Z</time></trkpt><trkpt lat="45.6776058" lon="9.4438114"><ele>267.0</ele><time>2026-04-04T12:01:35.318Z</time></trkpt><trkpt lat="45.6775363" lon="9.4437959"><ele>267.0</ele><time>2026-04-04T12:01:36.319Z</time></trkpt><trkpt lat="45.6774461" lon="9.4437816"><ele>266.8333333333333</ele><time>2026-04-04T12:01:37.319Z</time></trkpt><trkpt lat="45.6773673" lon="9.4437633"><ele>266.6666666666667</ele><time>2026-04-04T12:01:38.318Z</time></trkpt><trkpt lat="45.677303" lon="9.4437515"><ele>266.5</ele><time>2026-04-04T12:01:39.319Z</time></trkpt><trkpt lat="45.6772276" lon="9.4437306"><ele>266.33333333333337</ele><time>2026-04-04T12:01:40.319Z</time></trkpt><trkpt lat="45.6771598" lon="9.4437239"><ele>266.1666666666667</ele><time>2026-04-04T12:01:41.319Z</time></trkpt><trkpt lat="45.6770921" lon="9.4436981"><ele>266.0</ele><time>2026-04-04T12:01:42.318Z</time></trkpt><trkpt lat="45.6769616" lon="9.4436655"><ele>265.83333333333337</ele><time>2026-04-04T12:01:44.319Z</time></trkpt><trkpt lat="45.6768845" lon="9.4436595"><ele>265.6666666666667</ele><time>2026-04-04T12:01:45.318Z</time></trkpt><trkpt lat="45.676814" lon="9.4436382"><ele>265.5</ele><time>2026-04-04T12:01:46.318Z</time></trkpt><trkpt lat="45.6767354" lon="9.4436037"><ele>265.3333333333333</ele><time>2026-04-04T12:01:47.319Z</time></trkpt><trkpt lat="45.6766273" lon="9.4435571"><ele>265.16666666666663</ele><time>2026-04-04T12:01:49.319Z</time></trkpt><trkpt lat="45.6765576" lon="9.4435219"><ele>265.0</ele><time>2026-04-04T12:01:50.319Z</time></trkpt><trkpt lat="45.676428" lon="9.4434991"><ele>265.0</ele><time>2026-04-04T12:01:52.319Z</time></trkpt><trkpt lat="45.6763401" lon="9.4434721"><ele>265.0</ele><time>2026-04-04T12:01:53.319Z</time></trkpt><trkpt lat="45.6762409" lon="9.443435"><ele>265.0</ele><time>2026-04-04T12:01:54.319Z</time></trkpt><trkpt lat="45.676114" lon="9.4434021"><ele>265.0</ele><time>2026-04-04T12:01:56.319Z</time></trkpt><trkpt lat="45.6760424" lon="9.4433847"><ele>265.0</ele><time>2026-04-04T12:01:57.319Z</time></trkpt><trkpt lat="45.6759636" lon="9.4433427"><ele>264.8</ele><time>2026-04-04T12:01:58.319Z</time></trkpt><trkpt lat="45.6758877" lon="9.4433175"><ele>264.6</ele><time>2026-04-04T12:01:59.319Z</time></trkpt><trkpt lat="45.6757692" lon="9.4432921"><ele>264.4</ele><time>2026-04-04T12:02:01.319Z</time></trkpt><trkpt lat="45.6756785" lon="9.4432478"><ele>264.2</ele><time>2026-04-04T12:02:02.319Z</time></trkpt><trkpt lat="45.6756087" lon="9.4432348"><ele>264.0</ele><time>2026-04-04T12:02:03.318Z</time></trkpt><trkpt lat="45.6755248" lon="9.4431946"><ele>264.0</ele><time>2026-04-04T12:02:04.318Z</time></trkpt><trkpt lat="45.6754527" lon="9.4431744"><ele>264.0</ele><time>2026-04-04T12:02:05.319Z</time></trkpt><trkpt lat="45.6753718" lon="9.4431233"><ele>264.0</ele><time>2026-04-04T12:02:06.319Z</time></trkpt><trkpt lat="45.6753029" lon="9.4430916"><ele>264.0</ele><time>2026-04-04T12:02:07.319Z</time></trkpt><trkpt lat="45.675228" lon="9.4430744"><ele>264.0</ele><time>2026-04-04T12:02:08.318Z</time></trkpt><trkpt lat="45.6751565" lon="9.4430511"><ele>264.0</ele><time>2026-04-04T12:02:09.319Z</time></trkpt><trkpt lat="45.6750821" lon="9.4430313"><ele>263.6666666666667</ele><time>2026-04-04T12:02:10.319Z</time></trkpt><trkpt lat="45.6750118" lon="9.4430069"><ele>263.3333333333333</ele><time>2026-04-04T12:02:11.319Z</time></trkpt><trkpt lat="45.6749383" lon="9.4429718"><ele>263.0</ele><time>2026-04-04T12:02:12.319Z</time></trkpt><trkpt lat="45.674857" lon="9.4429307"><ele>262.66666666666663</ele><time>2026-04-04T12:02:13.318Z</time></trkpt><trkpt lat="45.6747877" lon="9.4429011"><ele>262.3333333333333</ele><time>2026-04-04T12:02:14.319Z</time></trkpt><trkpt lat="45.6746981" lon="9.4428767"><ele>262.0</ele><time>2026-04-04T12:02:15.318Z</time></trkpt><trkpt lat="45.6746292" lon="9.4428531"><ele>261.8571428571429</ele><time>2026-04-04T12:02:16.319Z</time></trkpt><trkpt lat="45.6745573" lon="9.4428306"><ele>261.7142857142857</ele><time>2026-04-04T12:02:17.318Z</time></trkpt><trkpt lat="45.6744771" lon="9.442804"><ele>261.57142857142856</ele><time>2026-04-04T12:02:18.319Z</time></trkpt><trkpt lat="45.6744099" lon="9.4427802"><ele>261.42857142857144</ele><time>2026-04-04T12:02:19.319Z</time></trkpt><trkpt lat="45.6743362" lon="9.4427389"><ele>261.2857142857143</ele><time>2026-04-04T12:02:20.319Z</time></trkpt><trkpt lat="45.6742659" lon="9.4427227"><ele>261.14285714285717</ele><time>2026-04-04T12:02:21.319Z</time></trkpt><trkpt lat="45.6741989" lon="9.4427264"><ele>261.0</ele><time>2026-04-04T12:02:22.319Z</time></trkpt><trkpt lat="45.6741034" lon="9.442765"><ele>261.0</ele><time>2026-04-04T12:02:24.319Z</time></trkpt><trkpt lat="45.6740375" lon="9.4427186"><ele>261.0</ele><time>2026-04-04T12:02:26.319Z</time></trkpt><trkpt lat="45.6739503" lon="9.4426486"><ele>261.0</ele><time>2026-04-04T12:02:28.318Z</time></trkpt><trkpt lat="45.6738491" lon="9.4425453"><ele>261.0</ele><time>2026-04-04T12:02:30.319Z</time></trkpt><trkpt lat="45.6737888" lon="9.4424964"><ele>261.0</ele><time>2026-04-04T12:02:31.318Z</time></trkpt><trkpt lat="45.6737418" lon="9.4424357"><ele>261.0</ele><time>2026-04-04T12:02:32.319Z</time></trkpt><trkpt lat="45.6736527" lon="9.4423173"><ele>260.8</ele><time>2026-04-04T12:02:34.319Z</time></trkpt><trkpt lat="45.6735552" lon="9.4421749"><ele>260.6</ele><time>2026-04-04T12:02:36.319Z</time></trkpt><trkpt lat="45.6735008" lon="9.442099"><ele>260.4</ele><time>2026-04-04T12:02:37.318Z</time></trkpt><trkpt lat="45.6734509" lon="9.4420251"><ele>260.2</ele><time>2026-04-04T12:02:38.319Z</time></trkpt><trkpt lat="45.6733885" lon="9.4419317"><ele>260.0</ele><time>2026-04-04T12:02:39.319Z</time></trkpt><trkpt lat="45.6733391" lon="9.4418331"><ele>260.0</ele><time>2026-04-04T12:02:40.318Z</time></trkpt><trkpt lat="45.6732791" lon="9.4417244"><ele>260.0</ele><time>2026-04-04T12:02:41.319Z</time></trkpt><trkpt lat="45.673229" lon="9.4416314"><ele>260.0</ele><time>2026-04-04T12:02:42.319Z</time></trkpt><trkpt lat="45.673163" lon="9.441552"><ele>260.0</ele><time>2026-04-04T12:02:43.319Z</time></trkpt><trkpt lat="45.6731087" lon="9.4414618"><ele>260.0</ele><time>2026-04-04T12:02:44.319Z</time></trkpt><trkpt lat="45.6730679" lon="9.4413796"><ele>260.0</ele><time>2026-04-04T12:02:45.319Z</time></trkpt><trkpt lat="45.6730041" lon="9.4413124"><ele>259.4</ele><time>2026-04-04T12:02:46.319Z</time></trkpt><trkpt lat="45.6729344" lon="9.4411687"><ele>258.8</ele><time>2026-04-04T12:02:48.319Z</time></trkpt><trkpt lat="45.6728842" lon="9.4410389"><ele>258.2</ele><time>2026-04-04T12:02:50.319Z</time></trkpt><trkpt lat="45.6728439" lon="9.4409554"><ele>257.6</ele><time>2026-04-04T12:02:51.319Z</time></trkpt><trkpt lat="45.6727394" lon="9.4408811"><ele>257.0</ele><time>2026-04-04T12:02:53.318Z</time></trkpt><trkpt lat="45.6726317" lon="9.440803"><ele>257.0</ele><time>2026-04-04T12:02:55.318Z</time></trkpt><trkpt lat="45.6725713" lon="9.4407312"><ele>257.0</ele><time>2026-04-04T12:02:56.319Z</time></trkpt><trkpt lat="45.6724665" lon="9.4406232"><ele>257.0</ele><time>2026-04-04T12:02:58.318Z</time></trkpt><trkpt lat="45.6723993" lon="9.4405616"><ele>257.0</ele><time>2026-04-04T12:02:59.319Z</time></trkpt><trkpt lat="45.6723253" lon="9.4405109"><ele>257.0</ele><time>2026-04-04T12:03:00.319Z</time></trkpt><trkpt lat="45.6722379" lon="9.4404472"><ele>256.6666666666667</ele><time>2026-04-04T12:03:01.319Z</time></trkpt><trkpt lat="45.6721751" lon="9.4403834"><ele>256.33333333333337</ele><time>2026-04-04T12:03:02.319Z</time></trkpt><trkpt lat="45.6721023" lon="9.4403172"><ele>256.0</ele><time>2026-04-04T12:03:03.319Z</time></trkpt><trkpt lat="45.6720407" lon="9.4402501"><ele>255.66666666666669</ele><time>2026-04-04T12:03:04.319Z</time></trkpt><trkpt lat="45.6719741" lon="9.4401962"><ele>255.33333333333334</ele><time>2026-04-04T12:03:05.319Z</time></trkpt><trkpt lat="45.6719195" lon="9.4401435"><ele>255.0</ele><time>2026-04-04T12:03:06.318Z</time></trkpt><trkpt lat="45.6718594" lon="9.4400726"><ele>255.0</ele><time>2026-04-04T12:03:07.319Z</time></trkpt><trkpt lat="45.6717911" lon="9.4400184"><ele>255.0</ele><time>2026-04-04T12:03:08.318Z</time></trkpt><trkpt lat="45.6717279" lon="9.4399398"><ele>255.0</ele><time>2026-04-04T12:03:09.319Z</time></trkpt><trkpt lat="45.6716599" lon="9.4398894"><ele>255.0</ele><time>2026-04-04T12:03:10.319Z</time></trkpt><trkpt lat="45.6715538" lon="9.4397823"><ele>255.0</ele><time>2026-04-04T12:03:12.319Z</time></trkpt><trkpt lat="45.6714937" lon="9.4397272"><ele>255.0</ele><time>2026-04-04T12:03:13.319Z</time></trkpt><trkpt lat="45.6714324" lon="9.4396643"><ele>254.66666666666666</ele><time>2026-04-04T12:03:14.319Z</time></trkpt><trkpt lat="45.6713612" lon="9.4396104"><ele>254.33333333333331</ele><time>2026-04-04T12:03:15.319Z</time></trkpt><trkpt lat="45.671282" lon="9.4395776"><ele>254.0</ele><time>2026-04-04T12:03:16.318Z</time></trkpt><trkpt lat="45.6712208" lon="9.4395182"><ele>253.66666666666666</ele><time>2026-04-04T12:03:17.319Z</time></trkpt><trkpt lat="45.6711577" lon="9.4394504"><ele>253.33333333333331</ele><time>2026-04-04T12:03:18.318Z</time></trkpt><trkpt lat="45.6710848" lon="9.4393838"><ele>253.0</ele><time>2026-04-04T12:03:19.318Z</time></trkpt><trkpt lat="45.6710204" lon="9.4393323"><ele>252.99999999999997</ele><time>2026-04-04T12:03:20.318Z</time></trkpt><trkpt lat="45.6709495" lon="9.4392744"><ele>253.0</ele><time>2026-04-04T12:03:21.319Z</time></trkpt><trkpt lat="45.6708892" lon="9.4392004"><ele>253.0</ele><time>2026-04-04T12:03:22.319Z</time></trkpt><trkpt lat="45.6708284" lon="9.439128"><ele>253.0</ele><time>2026-04-04T12:03:23.318Z</time></trkpt><trkpt lat="45.6707618" lon="9.4390703"><ele>252.99999999999997</ele><time>2026-04-04T12:03:24.318Z</time></trkpt><trkpt lat="45.6706996" lon="9.4390065"><ele>253.0</ele><time>2026-04-04T12:03:25.318Z</time></trkpt><trkpt lat="45.6706401" lon="9.4389428"><ele>253.0</ele><time>2026-04-04T12:03:26.319Z</time></trkpt><trkpt lat="45.6705896" lon="9.4388796"><ele>253.0</ele><time>2026-04-04T12:03:27.319Z</time></trkpt><trkpt lat="45.6704795" lon="9.4387929"><ele>253.0</ele><time>2026-04-04T12:03:29.318Z</time></trkpt><trkpt lat="45.6704096" lon="9.4387377"><ele>253.0</ele><time>2026-04-04T12:03:30.318Z</time></trkpt><trkpt lat="45.6703261" lon="9.4386471"><ele>253.0</ele><time>2026-04-04T12:03:31.319Z</time></trkpt><trkpt lat="45.6702617" lon="9.4385705"><ele>252.49999999999997</ele><time>2026-04-04T12:03:32.319Z</time></trkpt><trkpt lat="45.6702024" lon="9.4384966"><ele>252.0</ele><time>2026-04-04T12:03:33.319Z</time></trkpt><trkpt lat="45.6701359" lon="9.4384398"><ele>251.5</ele><time>2026-04-04T12:03:34.319Z</time></trkpt><trkpt lat="45.6700763" lon="9.4383778"><ele>251.0</ele><time>2026-04-04T12:03:35.318Z</time></trkpt><trkpt lat="45.670019" lon="9.4383091"><ele>250.49999999999997</ele><time>2026-04-04T12:03:36.319Z</time></trkpt><trkpt lat="45.6699641" lon="9.438252"><ele>250.0</ele><time>2026-04-04T12:03:37.319Z</time></trkpt><trkpt lat="45.6699167" lon="9.4381637"><ele>250.0</ele><time>2026-04-04T12:03:38.319Z</time></trkpt><trkpt lat="45.6698695" lon="9.4380897"><ele>250.0</ele><time>2026-04-04T12:03:39.318Z</time></trkpt><trkpt lat="45.6698317" lon="9.4379927"><ele>250.0</ele><time>2026-04-04T12:03:40.319Z</time></trkpt><trkpt lat="45.6697659" lon="9.4378358"><ele>250.0</ele><time>2026-04-04T12:03:42.318Z</time></trkpt><trkpt lat="45.6696845" lon="9.4377899"><ele>250.0</ele><time>2026-04-04T12:03:44.319Z</time></trkpt><trkpt lat="45.6695965" lon="9.437842"><ele>249.8</ele><time>2026-04-04T12:03:46.319Z</time></trkpt><trkpt lat="45.6695126" lon="9.4378939"><ele>249.6</ele><time>2026-04-04T12:03:48.319Z</time></trkpt><trkpt lat="45.6694069" lon="9.4378258"><ele>249.39999999999998</ele><time>2026-04-04T12:03:50.319Z</time></trkpt><trkpt lat="45.6693186" lon="9.4377483"><ele>249.2</ele><time>2026-04-04T12:03:52.319Z</time></trkpt><trkpt lat="45.6692061" lon="9.4376541"><ele>249.0</ele><time>2026-04-04T12:03:54.319Z</time></trkpt><trkpt lat="45.6690926" lon="9.4375365"><ele>249.0</ele><time>2026-04-04T12:03:56.319Z</time></trkpt><trkpt lat="45.6690329" lon="9.4374785"><ele>248.99999999999997</ele><time>2026-04-04T12:03:57.319Z</time></trkpt><trkpt lat="45.6689803" lon="9.4374128"><ele>249.0</ele><time>2026-04-04T12:03:58.319Z</time></trkpt><trkpt lat="45.6689203" lon="9.4373471"><ele>249.0</ele><time>2026-04-04T12:03:59.319Z</time></trkpt><trkpt lat="45.6688559" lon="9.4372796"><ele>248.99999999999997</ele><time>2026-04-04T12:04:00.319Z</time></trkpt><trkpt lat="45.668803" lon="9.4372271"><ele>249.0</ele><time>2026-04-04T12:04:01.319Z</time></trkpt><trkpt lat="45.6687422" lon="9.4371736"><ele>249.0</ele><time>2026-04-04T12:04:02.319Z</time></trkpt><trkpt lat="45.6686773" lon="9.4371171"><ele>249.16666666666666</ele><time>2026-04-04T12:04:03.319Z</time></trkpt><trkpt lat="45.6686066" lon="9.4370583"><ele>249.33333333333331</ele><time>2026-04-04T12:04:04.318Z</time></trkpt><trkpt lat="45.6685305" lon="9.4369901"><ele>249.5</ele><time>2026-04-04T12:04:05.319Z</time></trkpt><trkpt lat="45.6684588" lon="9.4369874"><ele>249.66666666666666</ele><time>2026-04-04T12:04:06.319Z</time></trkpt><trkpt lat="45.6683915" lon="9.4369794"><ele>249.83333333333331</ele><time>2026-04-04T12:04:07.319Z</time></trkpt><trkpt lat="45.6683242" lon="9.4369312"><ele>250.0</ele><time>2026-04-04T12:04:08.319Z</time></trkpt><trkpt lat="45.668253" lon="9.4368907"><ele>250.0</ele><time>2026-04-04T12:04:09.319Z</time></trkpt><trkpt lat="45.6681894" lon="9.4368444"><ele>250.0</ele><time>2026-04-04T12:04:10.319Z</time></trkpt><trkpt lat="45.6681339" lon="9.4367767"><ele>250.0</ele><time>2026-04-04T12:04:11.319Z</time></trkpt><trkpt lat="45.668076" lon="9.4367228"><ele>250.0</ele><time>2026-04-04T12:04:12.318Z</time></trkpt><trkpt lat="45.6680168" lon="9.4366669"><ele>250.0</ele><time>2026-04-04T12:04:13.319Z</time></trkpt><trkpt lat="45.6679529" lon="9.4366041"><ele>250.0</ele><time>2026-04-04T12:04:14.319Z</time></trkpt><trkpt lat="45.6678971" lon="9.4365605"><ele>250.0</ele><time>2026-04-04T12:04:15.318Z</time></trkpt><trkpt lat="45.6678271" lon="9.436485"><ele>249.4</ele><time>2026-04-04T12:04:16.319Z</time></trkpt><trkpt lat="45.6677621" lon="9.4364096"><ele>248.8</ele><time>2026-04-04T12:04:17.318Z</time></trkpt><trkpt lat="45.6676981" lon="9.4363405"><ele>248.2</ele><time>2026-04-04T12:04:18.318Z</time></trkpt><trkpt lat="45.6676301" lon="9.4362784"><ele>247.6</ele><time>2026-04-04T12:04:19.319Z</time></trkpt><trkpt lat="45.6675168" lon="9.4361441"><ele>247.0</ele><time>2026-04-04T12:04:21.319Z</time></trkpt><trkpt lat="45.6674003" lon="9.4360318"><ele>246.8</ele><time>2026-04-04T12:04:23.319Z</time></trkpt><trkpt lat="45.6673333" lon="9.4359501"><ele>246.6</ele><time>2026-04-04T12:04:24.319Z</time></trkpt><trkpt lat="45.667271" lon="9.4358722"><ele>246.40000000000003</ele><time>2026-04-04T12:04:25.319Z</time></trkpt><trkpt lat="45.6672092" lon="9.4358118"><ele>246.20000000000002</ele><time>2026-04-04T12:04:26.318Z</time></trkpt><trkpt lat="45.6670859" lon="9.4357005"><ele>246.0</ele><time>2026-04-04T12:04:28.318Z</time></trkpt><trkpt lat="45.6670301" lon="9.4356277"><ele>246.0</ele><time>2026-04-04T12:04:29.319Z</time></trkpt><trkpt lat="45.6669679" lon="9.4355608"><ele>246.0</ele><time>2026-04-04T12:04:30.318Z</time></trkpt><trkpt lat="45.6669114" lon="9.4355183"><ele>246.0</ele><time>2026-04-04T12:04:31.318Z</time></trkpt><trkpt lat="45.666861" lon="9.4354503"><ele>246.0</ele><time>2026-04-04T12:04:32.319Z</time></trkpt><trkpt lat="45.6668093" lon="9.4353697"><ele>246.0</ele><time>2026-04-04T12:04:33.319Z</time></trkpt><trkpt lat="45.6667242" lon="9.4352619"><ele>246.0</ele><time>2026-04-04T12:04:35.319Z</time></trkpt><trkpt lat="45.66664" lon="9.4351455"><ele>245.5</ele><time>2026-04-04T12:04:37.318Z</time></trkpt><trkpt lat="45.6665504" lon="9.4350308"><ele>245.0</ele><time>2026-04-04T12:04:39.318Z</time></trkpt><trkpt lat="45.6664654" lon="9.4349153"><ele>244.5</ele><time>2026-04-04T12:04:41.319Z</time></trkpt><trkpt lat="45.6663742" lon="9.434798"><ele>244.0</ele><time>2026-04-04T12:04:43.319Z</time></trkpt><trkpt lat="45.6662954" lon="9.4346883"><ele>243.6</ele><time>2026-04-04T12:04:45.319Z</time></trkpt><trkpt lat="45.6662818" lon="9.4345465"><ele>243.2</ele><time>2026-04-04T12:04:47.318Z</time></trkpt><trkpt lat="45.6663325" lon="9.4343926"><ele>242.79999999999998</ele><time>2026-04-04T12:04:49.897Z</time></trkpt><trkpt lat="45.6663955" lon="9.4342265"><ele>242.39999999999998</ele><time>2026-04-04T12:04:51.401Z</time></trkpt><trkpt lat="45.6664227" lon="9.4341402"><ele>242.0</ele><time>2026-04-04T12:04:52.38Z</time></trkpt><trkpt lat="45.6664572" lon="9.4340484"><ele>242.00000000000003</ele><time>2026-04-04T12:04:53.395Z</time></trkpt><trkpt lat="45.6664792" lon="9.433962"><ele>242.0</ele><time>2026-04-04T12:04:54.38Z</time></trkpt><trkpt lat="45.6665072" lon="9.4338714"><ele>242.0</ele><time>2026-04-04T12:04:55.345Z</time></trkpt><trkpt lat="45.6665392" lon="9.4337784"><ele>242.0</ele><time>2026-04-04T12:04:56.348Z</time></trkpt><trkpt lat="45.6665724" lon="9.4336784"><ele>242.00000000000003</ele><time>2026-04-04T12:04:57.347Z</time></trkpt><trkpt lat="45.6666248" lon="9.4335057"><ele>242.0</ele><time>2026-04-04T12:04:59.344Z</time></trkpt><trkpt lat="45.6666582" lon="9.4334184"><ele>242.0</ele><time>2026-04-04T12:05:00.346Z</time></trkpt><trkpt lat="45.6666895" lon="9.4333388"><ele>241.99999999999997</ele><time>2026-04-04T12:05:01.338Z</time></trkpt><trkpt lat="45.666726" lon="9.4332618"><ele>242.0</ele><time>2026-04-04T12:05:02.344Z</time></trkpt><trkpt lat="45.6667592" lon="9.4331674"><ele>242.0</ele><time>2026-04-04T12:05:03.346Z</time></trkpt><trkpt lat="45.6667894" lon="9.4330858"><ele>241.99999999999997</ele><time>2026-04-04T12:05:04.348Z</time></trkpt><trkpt lat="45.666833" lon="9.4330024"><ele>242.0</ele><time>2026-04-04T12:05:05.348Z</time></trkpt><trkpt lat="45.6668579" lon="9.4329128"><ele>242.0</ele><time>2026-04-04T12:05:06.341Z</time></trkpt><trkpt lat="45.6669118" lon="9.4327641"><ele>242.2</ele><time>2026-04-04T12:05:08.379Z</time></trkpt><trkpt lat="45.6669452" lon="9.4326106"><ele>242.39999999999998</ele><time>2026-04-04T12:05:10.38Z</time></trkpt><trkpt lat="45.6669507" lon="9.4324503"><ele>242.60000000000002</ele><time>2026-04-04T12:05:12.38Z</time></trkpt><trkpt lat="45.6669372" lon="9.4323131"><ele>242.8</ele><time>2026-04-04T12:05:14.351Z</time></trkpt><trkpt lat="45.6668734" lon="9.432186"><ele>243.0</ele><time>2026-04-04T12:05:16.38Z</time></trkpt><trkpt lat="45.6668292" lon="9.4321218"><ele>242.60000000000002</ele><time>2026-04-04T12:05:17.349Z</time></trkpt><trkpt lat="45.6667534" lon="9.4320447"><ele>242.20000000000002</ele><time>2026-04-04T12:05:19.347Z</time></trkpt><trkpt lat="45.6666641" lon="9.4319609"><ele>241.8</ele><time>2026-04-04T12:05:21.38Z</time></trkpt><trkpt lat="45.6666019" lon="9.4318693"><ele>241.4</ele><time>2026-04-04T12:05:23.344Z</time></trkpt><trkpt lat="45.666528" lon="9.4317449"><ele>241.0</ele><time>2026-04-04T12:05:25.347Z</time></trkpt><trkpt lat="45.6664377" lon="9.4316212"><ele>240.99999999999997</ele><time>2026-04-04T12:05:27.346Z</time></trkpt><trkpt lat="45.6663888" lon="9.4315585"><ele>241.0</ele><time>2026-04-04T12:05:28.344Z</time></trkpt><trkpt lat="45.6663376" lon="9.4315053"><ele>241.0</ele><time>2026-04-04T12:05:29.35Z</time></trkpt><trkpt lat="45.6662592" lon="9.4313583"><ele>241.0</ele><time>2026-04-04T12:05:31.347Z</time></trkpt><trkpt lat="45.6662076" lon="9.4312801"><ele>240.99999999999997</ele><time>2026-04-04T12:05:32.343Z</time></trkpt><trkpt lat="45.6661516" lon="9.4312166"><ele>241.0</ele><time>2026-04-04T12:05:33.346Z</time></trkpt><trkpt lat="45.6660905" lon="9.4311851"><ele>241.14285714285717</ele><time>2026-04-04T12:05:34.346Z</time></trkpt><trkpt lat="45.6660306" lon="9.4311531"><ele>241.2857142857143</ele><time>2026-04-04T12:05:35.345Z</time></trkpt><trkpt lat="45.6659542" lon="9.4311182"><ele>241.42857142857144</ele><time>2026-04-04T12:05:36.349Z</time></trkpt><trkpt lat="45.6658981" lon="9.4310703"><ele>241.57142857142856</ele><time>2026-04-04T12:05:37.348Z</time></trkpt><trkpt lat="45.6658425" lon="9.4310223"><ele>241.7142857142857</ele><time>2026-04-04T12:05:38.346Z</time></trkpt><trkpt lat="45.6657836" lon="9.4309741"><ele>241.85714285714283</ele><time>2026-04-04T12:05:39.347Z</time></trkpt><trkpt lat="45.6657256" lon="9.4309203"><ele>242.0</ele><time>2026-04-04T12:05:40.346Z</time></trkpt><trkpt lat="45.6656706" lon="9.4308721"><ele>242.0</ele><time>2026-04-04T12:05:41.347Z</time></trkpt><trkpt lat="45.6656175" lon="9.4308035"><ele>241.99999999999997</ele><time>2026-04-04T12:05:42.349Z</time></trkpt><trkpt lat="45.6655627" lon="9.4307485"><ele>242.0</ele><time>2026-04-04T12:05:43.347Z</time></trkpt><trkpt lat="45.6655046" lon="9.4306911"><ele>242.0</ele><time>2026-04-04T12:05:44.35Z</time></trkpt><trkpt lat="45.6654488" lon="9.4306452"><ele>241.99999999999997</ele><time>2026-04-04T12:05:45.35Z</time></trkpt><trkpt lat="45.6653921" lon="9.4305921"><ele>242.0</ele><time>2026-04-04T12:05:46.349Z</time></trkpt><trkpt lat="45.6653333" lon="9.4305343"><ele>242.0</ele><time>2026-04-04T12:05:47.348Z</time></trkpt><trkpt lat="45.6652783" lon="9.4304826"><ele>241.83333333333334</ele><time>2026-04-04T12:05:48.347Z</time></trkpt><trkpt lat="45.6652239" lon="9.430421"><ele>241.66666666666669</ele><time>2026-04-04T12:05:49.345Z</time></trkpt><trkpt lat="45.665162" lon="9.4303641"><ele>241.5</ele><time>2026-04-04T12:05:50.346Z</time></trkpt><trkpt lat="45.6650971" lon="9.4303026"><ele>241.33333333333331</ele><time>2026-04-04T12:05:51.347Z</time></trkpt><trkpt lat="45.6650359" lon="9.4302441"><ele>241.16666666666666</ele><time>2026-04-04T12:05:52.34Z</time></trkpt><trkpt lat="45.6649795" lon="9.4301938"><ele>241.0</ele><time>2026-04-04T12:05:53.349Z</time></trkpt><trkpt lat="45.6648625" lon="9.4300946"><ele>241.0</ele><time>2026-04-04T12:05:55.348Z</time></trkpt><trkpt lat="45.6648061" lon="9.4300281"><ele>241.00000000000003</ele><time>2026-04-04T12:05:56.348Z</time></trkpt><trkpt lat="45.6647456" lon="9.4299701"><ele>241.0</ele><time>2026-04-04T12:05:57.348Z</time></trkpt><trkpt lat="45.6646936" lon="9.4299035"><ele>241.0</ele><time>2026-04-04T12:05:58.345Z</time></trkpt><trkpt lat="45.6646356" lon="9.4298531"><ele>241.00000000000003</ele><time>2026-04-04T12:05:59.348Z</time></trkpt><trkpt lat="45.6645807" lon="9.4297961"><ele>241.0</ele><time>2026-04-04T12:06:00.346Z</time></trkpt><trkpt lat="45.6645305" lon="9.4297391"><ele>241.0</ele><time>2026-04-04T12:06:01.35Z</time></trkpt><trkpt lat="45.6644744" lon="9.4296831"><ele>240.57142857142858</ele><time>2026-04-04T12:06:02.345Z</time></trkpt><trkpt lat="45.6644144" lon="9.4296224"><ele>240.14285714285717</ele><time>2026-04-04T12:06:03.339Z</time></trkpt><trkpt lat="45.6643527" lon="9.4295453"><ele>239.71428571428572</ele><time>2026-04-04T12:06:04.346Z</time></trkpt><trkpt lat="45.6642943" lon="9.4294865"><ele>239.28571428571428</ele><time>2026-04-04T12:06:05.348Z</time></trkpt><trkpt lat="45.6642275" lon="9.4294311"><ele>238.85714285714286</ele><time>2026-04-04T12:06:06.347Z</time></trkpt><trkpt lat="45.6641661" lon="9.4293669"><ele>238.42857142857144</ele><time>2026-04-04T12:06:07.344Z</time></trkpt><trkpt lat="45.6641098" lon="9.4293121"><ele>238.0</ele><time>2026-04-04T12:06:08.38Z</time></trkpt><trkpt lat="45.6640491" lon="9.4292557"><ele>237.99999999999997</ele><time>2026-04-04T12:06:09.349Z</time></trkpt><trkpt lat="45.663935" lon="9.4291501"><ele>238.0</ele><time>2026-04-04T12:06:11.35Z</time></trkpt><trkpt lat="45.6638645" lon="9.4290894"><ele>238.0</ele><time>2026-04-04T12:06:12.346Z</time></trkpt><trkpt lat="45.6637971" lon="9.429035"><ele>238.0</ele><time>2026-04-04T12:06:13.347Z</time></trkpt><trkpt lat="45.6637328" lon="9.4289693"><ele>237.99999999999997</ele><time>2026-04-04T12:06:14.346Z</time></trkpt><trkpt lat="45.6636731" lon="9.4289156"><ele>238.0</ele><time>2026-04-04T12:06:15.346Z</time></trkpt><trkpt lat="45.6636127" lon="9.4288572"><ele>238.14285714285714</ele><time>2026-04-04T12:06:16.345Z</time></trkpt><trkpt lat="45.6635485" lon="9.4288046"><ele>238.28571428571428</ele><time>2026-04-04T12:06:17.344Z</time></trkpt><trkpt lat="45.6634891" lon="9.4287553"><ele>238.42857142857144</ele><time>2026-04-04T12:06:18.346Z</time></trkpt><trkpt lat="45.6634271" lon="9.4286991"><ele>238.57142857142858</ele><time>2026-04-04T12:06:19.347Z</time></trkpt><trkpt lat="45.6633597" lon="9.4286669"><ele>238.71428571428572</ele><time>2026-04-04T12:06:20.346Z</time></trkpt><trkpt lat="45.6633007" lon="9.4286249"><ele>238.8571428571429</ele><time>2026-04-04T12:06:21.349Z</time></trkpt><trkpt lat="45.6632472" lon="9.4285729"><ele>239.00000000000003</ele><time>2026-04-04T12:06:22.346Z</time></trkpt><trkpt lat="45.6632052" lon="9.4285028"><ele>239.00000000000003</ele><time>2026-04-04T12:06:23.344Z</time></trkpt><trkpt lat="45.6631683" lon="9.4284059"><ele>239.0</ele><time>2026-04-04T12:06:24.346Z</time></trkpt><trkpt lat="45.6631518" lon="9.4283157"><ele>239.00000000000003</ele><time>2026-04-04T12:06:25.349Z</time></trkpt><trkpt lat="45.6631426" lon="9.4282065"><ele>239.00000000000003</ele><time>2026-04-04T12:06:26.347Z</time></trkpt><trkpt lat="45.6631463" lon="9.4280966"><ele>239.0</ele><time>2026-04-04T12:06:27.349Z</time></trkpt><trkpt lat="45.6631433" lon="9.4279909"><ele>239.00000000000003</ele><time>2026-04-04T12:06:28.347Z</time></trkpt><trkpt lat="45.6631437" lon="9.4278974"><ele>239.00000000000003</ele><time>2026-04-04T12:06:29.351Z</time></trkpt><trkpt lat="45.6631531" lon="9.4277979"><ele>239.2</ele><time>2026-04-04T12:06:30.349Z</time></trkpt><trkpt lat="45.6631568" lon="9.4276862"><ele>239.39999999999998</ele><time>2026-04-04T12:06:31.345Z</time></trkpt><trkpt lat="45.6631725" lon="9.4275725"><ele>239.6</ele><time>2026-04-04T12:06:32.347Z</time></trkpt><trkpt lat="45.6632003" lon="9.4273779"><ele>239.8</ele><time>2026-04-04T12:06:34.346Z</time></trkpt><trkpt lat="45.663216" lon="9.4272405"><ele>240.0</ele><time>2026-04-04T12:06:36.345Z</time></trkpt><trkpt lat="45.6632373" lon="9.4271238"><ele>240.4</ele><time>2026-04-04T12:06:38.35Z</time></trkpt><trkpt lat="45.6632412" lon="9.4269792"><ele>240.8</ele><time>2026-04-04T12:06:40.344Z</time></trkpt><trkpt lat="45.6631672" lon="9.4268567"><ele>241.2</ele><time>2026-04-04T12:06:42.351Z</time></trkpt><trkpt lat="45.6630536" lon="9.4267868"><ele>241.6</ele><time>2026-04-04T12:06:44.347Z</time></trkpt><trkpt lat="45.6629952" lon="9.4267525"><ele>242.0</ele><time>2026-04-04T12:06:45.344Z</time></trkpt><trkpt lat="45.6629413" lon="9.4266901"><ele>242.0</ele><time>2026-04-04T12:06:46.347Z</time></trkpt><trkpt lat="45.6628856" lon="9.4266471"><ele>241.99999999999997</ele><time>2026-04-04T12:06:47.346Z</time></trkpt><trkpt lat="45.6628302" lon="9.4265994"><ele>242.0</ele><time>2026-04-04T12:06:48.351Z</time></trkpt><trkpt lat="45.6627723" lon="9.426546"><ele>242.0</ele><time>2026-04-04T12:06:49.348Z</time></trkpt><trkpt lat="45.6627139" lon="9.4264909"><ele>241.99999999999997</ele><time>2026-04-04T12:06:50.346Z</time></trkpt><trkpt lat="45.6626483" lon="9.4264312"><ele>242.0</ele><time>2026-04-04T12:06:51.343Z</time></trkpt><trkpt lat="45.6625907" lon="9.4263643"><ele>242.0</ele><time>2026-04-04T12:06:52.353Z</time></trkpt><trkpt lat="45.6625305" lon="9.4263138"><ele>241.16666666666669</ele><time>2026-04-04T12:06:53.345Z</time></trkpt><trkpt lat="45.6624675" lon="9.4262614"><ele>240.33333333333334</ele><time>2026-04-04T12:06:54.35Z</time></trkpt><trkpt lat="45.6624091" lon="9.4262157"><ele>239.5</ele><time>2026-04-04T12:06:55.342Z</time></trkpt><trkpt lat="45.6623478" lon="9.4261562"><ele>238.66666666666669</ele><time>2026-04-04T12:06:56.344Z</time></trkpt><trkpt lat="45.6622938" lon="9.4260976"><ele>237.83333333333334</ele><time>2026-04-04T12:06:57.344Z</time></trkpt><trkpt lat="45.6622329" lon="9.4260424"><ele>237.0</ele><time>2026-04-04T12:06:58.346Z</time></trkpt><trkpt lat="45.6621257" lon="9.4259745"><ele>237.0</ele><time>2026-04-04T12:07:00.347Z</time></trkpt><trkpt lat="45.6620045" lon="9.4258501"><ele>237.0</ele><time>2026-04-04T12:07:02.352Z</time></trkpt><trkpt lat="45.6618789" lon="9.4257447"><ele>237.0</ele><time>2026-04-04T12:07:04.346Z</time></trkpt><trkpt lat="45.6618166" lon="9.4256996"><ele>237.0</ele><time>2026-04-04T12:07:05.341Z</time></trkpt><trkpt lat="45.6617079" lon="9.4256134"><ele>237.5</ele><time>2026-04-04T12:07:07.344Z</time></trkpt><trkpt lat="45.6616213" lon="9.4254971"><ele>238.0</ele><time>2026-04-04T12:07:09.343Z</time></trkpt><trkpt lat="45.6615417" lon="9.4254413"><ele>238.5</ele><time>2026-04-04T12:07:10.348Z</time></trkpt><trkpt lat="45.6614777" lon="9.4253729"><ele>239.0</ele><time>2026-04-04T12:07:11.343Z</time></trkpt><trkpt lat="45.661423" lon="9.4253198"><ele>239.5</ele><time>2026-04-04T12:07:12.341Z</time></trkpt><trkpt lat="45.6613636" lon="9.4252766"><ele>240.0</ele><time>2026-04-04T12:07:13.348Z</time></trkpt><trkpt lat="45.6612877" lon="9.4251924"><ele>240.0</ele><time>2026-04-04T12:07:14.351Z</time></trkpt><trkpt lat="45.6612169" lon="9.4250964"><ele>240.0</ele><time>2026-04-04T12:07:15.348Z</time></trkpt><trkpt lat="45.6611528" lon="9.4250458"><ele>240.0</ele><time>2026-04-04T12:07:16.344Z</time></trkpt><trkpt lat="45.661096" lon="9.424986"><ele>240.0</ele><time>2026-04-04T12:07:17.347Z</time></trkpt><trkpt lat="45.6610341" lon="9.4249342"><ele>240.0</ele><time>2026-04-04T12:07:18.347Z</time></trkpt><trkpt lat="45.6609775" lon="9.4248747"><ele>240.0</ele><time>2026-04-04T12:07:19.351Z</time></trkpt><trkpt lat="45.6609173" lon="9.4248073"><ele>240.14285714285717</ele><time>2026-04-04T12:07:20.349Z</time></trkpt><trkpt lat="45.6608566" lon="9.4247475"><ele>240.28571428571428</ele><time>2026-04-04T12:07:21.348Z</time></trkpt><trkpt lat="45.6607892" lon="9.4246906"><ele>240.42857142857144</ele><time>2026-04-04T12:07:22.348Z</time></trkpt><trkpt lat="45.6607294" lon="9.4246378"><ele>240.57142857142858</ele><time>2026-04-04T12:07:23.355Z</time></trkpt><trkpt lat="45.6606646" lon="9.4245798"><ele>240.71428571428572</ele><time>2026-04-04T12:07:24.351Z</time></trkpt><trkpt lat="45.6606094" lon="9.4245306"><ele>240.85714285714286</ele><time>2026-04-04T12:07:25.348Z</time></trkpt><trkpt lat="45.6605448" lon="9.4244744"><ele>241.0</ele><time>2026-04-04T12:07:26.348Z</time></trkpt><trkpt lat="45.6604829" lon="9.4244049"><ele>240.99999999999997</ele><time>2026-04-04T12:07:27.347Z</time></trkpt><trkpt lat="45.6604178" lon="9.4243319"><ele>241.0</ele><time>2026-04-04T12:07:28.347Z</time></trkpt><trkpt lat="45.6603529" lon="9.4242732"><ele>241.0</ele><time>2026-04-04T12:07:29.348Z</time></trkpt><trkpt lat="45.6602982" lon="9.4242269"><ele>241.0</ele><time>2026-04-04T12:07:30.347Z</time></trkpt><trkpt lat="45.660238" lon="9.4241736"><ele>240.99999999999997</ele><time>2026-04-04T12:07:31.35Z</time></trkpt><trkpt lat="45.6601786" lon="9.4241127"><ele>241.0</ele><time>2026-04-04T12:07:32.354Z</time></trkpt><trkpt lat="45.6601187" lon="9.4240233"><ele>240.83333333333331</ele><time>2026-04-04T12:07:33.349Z</time></trkpt><trkpt lat="45.6600598" lon="9.4239746"><ele>240.66666666666666</ele><time>2026-04-04T12:07:34.353Z</time></trkpt><trkpt lat="45.6599926" lon="9.4239111"><ele>240.5</ele><time>2026-04-04T12:07:35.344Z</time></trkpt><trkpt lat="45.6598738" lon="9.4238143"><ele>240.33333333333331</ele><time>2026-04-04T12:07:37.355Z</time></trkpt><trkpt lat="45.6598066" lon="9.4237646"><ele>240.16666666666666</ele><time>2026-04-04T12:07:38.35Z</time></trkpt><trkpt lat="45.6597448" lon="9.4237316"><ele>240.0</ele><time>2026-04-04T12:07:39.351Z</time></trkpt><trkpt lat="45.659679" lon="9.4237077"><ele>240.0</ele><time>2026-04-04T12:07:40.347Z</time></trkpt><trkpt lat="45.6595593" lon="9.4237334"><ele>240.0</ele><time>2026-04-04T12:07:42.342Z</time></trkpt><trkpt lat="45.659508" lon="9.4237885"><ele>240.0</ele><time>2026-04-04T12:07:43.347Z</time></trkpt><trkpt lat="45.6594538" lon="9.423847"><ele>240.0</ele><time>2026-04-04T12:07:44.353Z</time></trkpt><trkpt lat="45.6594027" lon="9.4239045"><ele>240.0</ele><time>2026-04-04T12:07:45.347Z</time></trkpt><trkpt lat="45.6593479" lon="9.4239617"><ele>240.0</ele><time>2026-04-04T12:07:46.346Z</time></trkpt><trkpt lat="45.6592426" lon="9.4240402"><ele>239.0</ele><time>2026-04-04T12:07:48.34Z</time></trkpt><trkpt lat="45.6591553" lon="9.4239664"><ele>238.0</ele><time>2026-04-04T12:07:50.345Z</time></trkpt><trkpt lat="45.6590803" lon="9.4238667"><ele>237.0</ele><time>2026-04-04T12:07:52.347Z</time></trkpt><trkpt lat="45.6590342" lon="9.4237977"><ele>236.0</ele><time>2026-04-04T12:07:53.344Z</time></trkpt><trkpt lat="45.6589175" lon="9.4236876"><ele>235.0</ele><time>2026-04-04T12:07:55.355Z</time></trkpt><trkpt lat="45.6588052" lon="9.4235913"><ele>235.0</ele><time>2026-04-04T12:07:57.341Z</time></trkpt><trkpt lat="45.6587446" lon="9.4235491"><ele>234.99999999999997</ele><time>2026-04-04T12:07:58.345Z</time></trkpt><trkpt lat="45.6586913" lon="9.4234957"><ele>235.0</ele><time>2026-04-04T12:07:59.345Z</time></trkpt><trkpt lat="45.6586271" lon="9.4234405"><ele>235.0</ele><time>2026-04-04T12:08:00.352Z</time></trkpt><trkpt lat="45.6585632" lon="9.4233942"><ele>234.99999999999997</ele><time>2026-04-04T12:08:01.351Z</time></trkpt><trkpt lat="45.6584913" lon="9.4233365"><ele>235.0</ele><time>2026-04-04T12:08:02.338Z</time></trkpt><trkpt lat="45.6584344" lon="9.4232696"><ele>235.0</ele><time>2026-04-04T12:08:03.361Z</time></trkpt><trkpt lat="45.6583775" lon="9.4232215"><ele>235.0</ele><time>2026-04-04T12:08:04.349Z</time></trkpt><trkpt lat="45.6583194" lon="9.4231705"><ele>235.0</ele><time>2026-04-04T12:08:05.346Z</time></trkpt><trkpt lat="45.6582548" lon="9.4231251"><ele>235.0</ele><time>2026-04-04T12:08:06.339Z</time></trkpt><trkpt lat="45.6581347" lon="9.4230559"><ele>235.0</ele><time>2026-04-04T12:08:08.347Z</time></trkpt><trkpt lat="45.6580575" lon="9.4230175"><ele>235.0</ele><time>2026-04-04T12:08:09.348Z</time></trkpt><trkpt lat="45.6579361" lon="9.4229733"><ele>234.83333333333331</ele><time>2026-04-04T12:08:11.351Z</time></trkpt><trkpt lat="45.6578695" lon="9.4229576"><ele>234.66666666666666</ele><time>2026-04-04T12:08:12.35Z</time></trkpt><trkpt lat="45.6577453" lon="9.4229565"><ele>234.5</ele><time>2026-04-04T12:08:14.348Z</time></trkpt><trkpt lat="45.6576667" lon="9.4229449"><ele>234.33333333333331</ele><time>2026-04-04T12:08:15.353Z</time></trkpt><trkpt lat="45.6575992" lon="9.4229474"><ele>234.16666666666666</ele><time>2026-04-04T12:08:16.356Z</time></trkpt><trkpt lat="45.6575327" lon="9.4229147"><ele>234.0</ele><time>2026-04-04T12:08:17.349Z</time></trkpt><trkpt lat="45.6574664" lon="9.4228905"><ele>234.6</ele><time>2026-04-04T12:08:18.346Z</time></trkpt><trkpt lat="45.6573951" lon="9.4228619"><ele>235.2</ele><time>2026-04-04T12:08:19.352Z</time></trkpt><trkpt lat="45.657266" lon="9.4228116"><ele>235.79999999999998</ele><time>2026-04-04T12:08:21.335Z</time></trkpt><trkpt lat="45.6571436" lon="9.4227744"><ele>236.39999999999998</ele><time>2026-04-04T12:08:23.347Z</time></trkpt><trkpt lat="45.6570768" lon="9.4227514"><ele>237.0</ele><time>2026-04-04T12:08:24.348Z</time></trkpt><trkpt lat="45.6569734" lon="9.4227187"><ele>236.83333333333334</ele><time>2026-04-04T12:08:26.348Z</time></trkpt><trkpt lat="45.6569115" lon="9.4226928"><ele>236.66666666666669</ele><time>2026-04-04T12:08:27.344Z</time></trkpt><trkpt lat="45.6568509" lon="9.422654"><ele>236.5</ele><time>2026-04-04T12:08:28.346Z</time></trkpt><trkpt lat="45.6567328" lon="9.4225954"><ele>236.33333333333334</ele><time>2026-04-04T12:08:30.347Z</time></trkpt><trkpt lat="45.6566508" lon="9.4225644"><ele>236.16666666666669</ele><time>2026-04-04T12:08:31.343Z</time></trkpt><trkpt lat="45.6565699" lon="9.4225402"><ele>236.0</ele><time>2026-04-04T12:08:32.349Z</time></trkpt><trkpt lat="45.6565085" lon="9.4224928"><ele>236.00000000000003</ele><time>2026-04-04T12:08:33.346Z</time></trkpt><trkpt lat="45.6564366" lon="9.4224535"><ele>236.0</ele><time>2026-04-04T12:08:34.345Z</time></trkpt><trkpt lat="45.6563769" lon="9.4224164"><ele>236.0</ele><time>2026-04-04T12:08:35.343Z</time></trkpt><trkpt lat="45.6563128" lon="9.4223835"><ele>236.0</ele><time>2026-04-04T12:08:36.345Z</time></trkpt><trkpt lat="45.6562461" lon="9.4223491"><ele>236.00000000000003</ele><time>2026-04-04T12:08:37.351Z</time></trkpt><trkpt lat="45.6561592" lon="9.4223199"><ele>236.0</ele><time>2026-04-04T12:08:38.351Z</time></trkpt><trkpt lat="45.656072" lon="9.4222766"><ele>235.83333333333334</ele><time>2026-04-04T12:08:39.346Z</time></trkpt><trkpt lat="45.6560114" lon="9.4222486"><ele>235.66666666666669</ele><time>2026-04-04T12:08:40.347Z</time></trkpt><trkpt lat="45.6559485" lon="9.4222156"><ele>235.5</ele><time>2026-04-04T12:08:41.347Z</time></trkpt><trkpt lat="45.6558275" lon="9.4221215"><ele>235.33333333333331</ele><time>2026-04-04T12:08:43.351Z</time></trkpt><trkpt lat="45.6557687" lon="9.4220738"><ele>235.16666666666666</ele><time>2026-04-04T12:08:44.347Z</time></trkpt><trkpt lat="45.6556985" lon="9.4220319"><ele>235.0</ele><time>2026-04-04T12:08:45.353Z</time></trkpt><trkpt lat="45.6556367" lon="9.4219828"><ele>235.2</ele><time>2026-04-04T12:08:46.346Z</time></trkpt><trkpt lat="45.6555763" lon="9.4219286"><ele>235.4</ele><time>2026-04-04T12:08:47.346Z</time></trkpt><trkpt lat="45.6554639" lon="9.4218384"><ele>235.60000000000002</ele><time>2026-04-04T12:08:49.348Z</time></trkpt><trkpt lat="45.6554047" lon="9.4217973"><ele>235.8</ele><time>2026-04-04T12:08:50.348Z</time></trkpt><trkpt lat="45.6552897" lon="9.4217377"><ele>236.0</ele><time>2026-04-04T12:08:52.348Z</time></trkpt><trkpt lat="45.6552048" lon="9.4217108"><ele>236.00000000000003</ele><time>2026-04-04T12:08:53.349Z</time></trkpt><trkpt lat="45.6551373" lon="9.4216831"><ele>236.0</ele><time>2026-04-04T12:08:54.344Z</time></trkpt><trkpt lat="45.6550611" lon="9.4216639"><ele>236.0</ele><time>2026-04-04T12:08:55.347Z</time></trkpt><trkpt lat="45.6549773" lon="9.4216544"><ele>236.0</ele><time>2026-04-04T12:08:56.346Z</time></trkpt><trkpt lat="45.654888" lon="9.421632"><ele>236.00000000000003</ele><time>2026-04-04T12:08:57.346Z</time></trkpt><trkpt lat="45.6548172" lon="9.4216205"><ele>236.0</ele><time>2026-04-04T12:08:58.346Z</time></trkpt><trkpt lat="45.6546945" lon="9.4216488"><ele>236.00000000000003</ele><time>2026-04-04T12:09:00.346Z</time></trkpt><trkpt lat="45.6545936" lon="9.4216372"><ele>236.0</ele><time>2026-04-04T12:09:02.347Z</time></trkpt><trkpt lat="45.6545269" lon="9.4216227"><ele>236.0</ele><time>2026-04-04T12:09:03.347Z</time></trkpt><trkpt lat="45.654455" lon="9.4216271"><ele>236.0</ele><time>2026-04-04T12:09:04.348Z</time></trkpt><trkpt lat="45.6543621" lon="9.4216512"><ele>236.00000000000003</ele><time>2026-04-04T12:09:05.354Z</time></trkpt><trkpt lat="45.6542722" lon="9.4216924"><ele>236.0</ele><time>2026-04-04T12:09:06.34Z</time></trkpt><trkpt lat="45.6542079" lon="9.4216941"><ele>235.83333333333334</ele><time>2026-04-04T12:09:07.345Z</time></trkpt><trkpt lat="45.6541181" lon="9.4217534"><ele>235.66666666666669</ele><time>2026-04-04T12:09:08.346Z</time></trkpt><trkpt lat="45.6540434" lon="9.421801"><ele>235.5</ele><time>2026-04-04T12:09:09.343Z</time></trkpt><trkpt lat="45.6539725" lon="9.421824"><ele>235.33333333333331</ele><time>2026-04-04T12:09:10.346Z</time></trkpt><trkpt lat="45.653865" lon="9.4218173"><ele>235.16666666666666</ele><time>2026-04-04T12:09:12.345Z</time></trkpt><trkpt lat="45.6538018" lon="9.4218219"><ele>235.0</ele><time>2026-04-04T12:09:13.347Z</time></trkpt><trkpt lat="45.6536974" lon="9.4218299"><ele>235.33333333333331</ele><time>2026-04-04T12:09:15.346Z</time></trkpt><trkpt lat="45.6535834" lon="9.4218516"><ele>235.66666666666666</ele><time>2026-04-04T12:09:17.344Z</time></trkpt><trkpt lat="45.6535147" lon="9.4218391"><ele>236.0</ele><time>2026-04-04T12:09:18.348Z</time></trkpt><trkpt lat="45.653409" lon="9.4218622"><ele>236.33333333333331</ele><time>2026-04-04T12:09:20.348Z</time></trkpt><trkpt lat="45.6533421" lon="9.4218545"><ele>236.66666666666666</ele><time>2026-04-04T12:09:21.349Z</time></trkpt><trkpt lat="45.6532557" lon="9.4218596"><ele>237.0</ele><time>2026-04-04T12:09:23.347Z</time></trkpt><trkpt lat="45.6531881" lon="9.4218728"><ele>237.0</ele><time>2026-04-04T12:09:24.337Z</time></trkpt><trkpt lat="45.653092" lon="9.4218576"><ele>237.0</ele><time>2026-04-04T12:09:26.348Z</time></trkpt><trkpt lat="45.6529738" lon="9.4218335"><ele>237.0</ele><time>2026-04-04T12:09:28.347Z</time></trkpt><trkpt lat="45.6529065" lon="9.4218207"><ele>237.0</ele><time>2026-04-04T12:09:29.349Z</time></trkpt><trkpt lat="45.6528308" lon="9.4218193"><ele>237.0</ele><time>2026-04-04T12:09:30.345Z</time></trkpt><trkpt lat="45.6527642" lon="9.421814"><ele>237.0</ele><time>2026-04-04T12:09:31.347Z</time></trkpt><trkpt lat="45.6526937" lon="9.4218131"><ele>237.16666666666666</ele><time>2026-04-04T12:09:32.344Z</time></trkpt><trkpt lat="45.6526098" lon="9.4218047"><ele>237.33333333333331</ele><time>2026-04-04T12:09:33.349Z</time></trkpt><trkpt lat="45.6525382" lon="9.4217823"><ele>237.5</ele><time>2026-04-04T12:09:34.347Z</time></trkpt><trkpt lat="45.6524735" lon="9.4217627"><ele>237.66666666666666</ele><time>2026-04-04T12:09:35.345Z</time></trkpt><trkpt lat="45.6524004" lon="9.4217381"><ele>237.83333333333331</ele><time>2026-04-04T12:09:36.347Z</time></trkpt><trkpt lat="45.6523167" lon="9.4217141"><ele>238.0</ele><time>2026-04-04T12:09:37.348Z</time></trkpt><trkpt lat="45.6522432" lon="9.4216778"><ele>238.0</ele><time>2026-04-04T12:09:38.346Z</time></trkpt><trkpt lat="45.6521666" lon="9.4216647"><ele>238.0</ele><time>2026-04-04T12:09:39.347Z</time></trkpt><trkpt lat="45.6520958" lon="9.4216449"><ele>238.0</ele><time>2026-04-04T12:09:40.345Z</time></trkpt><trkpt lat="45.6519707" lon="9.4215986"><ele>238.0</ele><time>2026-04-04T12:09:42.347Z</time></trkpt><trkpt lat="45.6518661" lon="9.4215455"><ele>238.0</ele><time>2026-04-04T12:09:44.345Z</time></trkpt><trkpt lat="45.6517713" lon="9.4215188"><ele>237.60000000000002</ele><time>2026-04-04T12:09:46.346Z</time></trkpt><trkpt lat="45.6517144" lon="9.4215829"><ele>237.20000000000002</ele><time>2026-04-04T12:09:48.339Z</time></trkpt><trkpt lat="45.6516912" lon="9.421687"><ele>236.8</ele><time>2026-04-04T12:09:50.346Z</time></trkpt><trkpt lat="45.6516642" lon="9.421828"><ele>236.4</ele><time>2026-04-04T12:09:52.347Z</time></trkpt><trkpt lat="45.6516282" lon="9.4219723"><ele>236.0</ele><time>2026-04-04T12:09:54.338Z</time></trkpt><trkpt lat="45.6516" lon="9.4221348"><ele>235.20000000000002</ele><time>2026-04-04T12:09:56.343Z</time></trkpt><trkpt lat="45.6515836" lon="9.4222854"><ele>234.40000000000003</ele><time>2026-04-04T12:09:58.346Z</time></trkpt><trkpt lat="45.651554" lon="9.4224615"><ele>233.6</ele><time>2026-04-04T12:10:00.38Z</time></trkpt><trkpt lat="45.6514816" lon="9.4224885"><ele>232.8</ele><time>2026-04-04T12:10:02.338Z</time></trkpt><trkpt lat="45.651398" lon="9.4224959"><ele>232.0</ele><time>2026-04-04T12:10:04.344Z</time></trkpt><trkpt lat="45.6513409" lon="9.4224568"><ele>232.0</ele><time>2026-04-04T12:10:06.339Z</time></trkpt><trkpt lat="45.6512435" lon="9.4224674"><ele>232.0</ele><time>2026-04-04T12:10:09.347Z</time></trkpt><trkpt lat="45.6511443" lon="9.4224498"><ele>232.0</ele><time>2026-04-04T12:10:11.346Z</time></trkpt><trkpt lat="45.6510618" lon="9.4224395"><ele>232.0</ele><time>2026-04-04T12:10:12.345Z</time></trkpt><trkpt lat="45.6509904" lon="9.4224226"><ele>232.0</ele><time>2026-04-04T12:10:13.347Z</time></trkpt><trkpt lat="45.6508603" lon="9.4223847"><ele>232.16666666666666</ele><time>2026-04-04T12:10:15.343Z</time></trkpt><trkpt lat="45.6507734" lon="9.4223613"><ele>232.33333333333331</ele><time>2026-04-04T12:10:16.345Z</time></trkpt><trkpt lat="45.6506985" lon="9.422343"><ele>232.5</ele><time>2026-04-04T12:10:17.344Z</time></trkpt><trkpt lat="45.6506358" lon="9.4223178"><ele>232.66666666666669</ele><time>2026-04-04T12:10:18.346Z</time></trkpt><trkpt lat="45.6505693" lon="9.4223173"><ele>232.83333333333334</ele><time>2026-04-04T12:10:19.347Z</time></trkpt><trkpt lat="45.6504979" lon="9.422327"><ele>233.0</ele><time>2026-04-04T12:10:20.345Z</time></trkpt><trkpt lat="45.6504115" lon="9.4223754"><ele>233.0</ele><time>2026-04-04T12:10:22.348Z</time></trkpt><trkpt lat="45.6503089" lon="9.4223954"><ele>233.0</ele><time>2026-04-04T12:10:24.339Z</time></trkpt><trkpt lat="45.6502129" lon="9.4224031"><ele>233.0</ele><time>2026-04-04T12:10:26.359Z</time></trkpt><trkpt lat="45.6500927" lon="9.4223957"><ele>233.0</ele><time>2026-04-04T12:10:28.343Z</time></trkpt><trkpt lat="45.6499762" lon="9.4223499"><ele>233.0</ele><time>2026-04-04T12:10:30.347Z</time></trkpt><trkpt lat="45.6499139" lon="9.4223311"><ele>233.16666666666669</ele><time>2026-04-04T12:10:31.35Z</time></trkpt><trkpt lat="45.6498039" lon="9.4222886"><ele>233.33333333333334</ele><time>2026-04-04T12:10:33.348Z</time></trkpt><trkpt lat="45.6497287" lon="9.4222749"><ele>233.5</ele><time>2026-04-04T12:10:34.343Z</time></trkpt><trkpt lat="45.6496616" lon="9.4222663"><ele>233.66666666666669</ele><time>2026-04-04T12:10:35.346Z</time></trkpt><trkpt lat="45.6495974" lon="9.4222613"><ele>233.83333333333334</ele><time>2026-04-04T12:10:36.348Z</time></trkpt><trkpt lat="45.6495283" lon="9.4222622"><ele>234.0</ele><time>2026-04-04T12:10:37.343Z</time></trkpt><trkpt lat="45.6494585" lon="9.4222566"><ele>233.71428571428572</ele><time>2026-04-04T12:10:38.35Z</time></trkpt><trkpt lat="45.6493928" lon="9.4222426"><ele>233.42857142857144</ele><time>2026-04-04T12:10:39.346Z</time></trkpt><trkpt lat="45.6493203" lon="9.4222275"><ele>233.14285714285717</ele><time>2026-04-04T12:10:40.35Z</time></trkpt><trkpt lat="45.6492565" lon="9.4222294"><ele>232.8571428571429</ele><time>2026-04-04T12:10:41.349Z</time></trkpt><trkpt lat="45.6491914" lon="9.4222138"><ele>232.57142857142858</ele><time>2026-04-04T12:10:42.349Z</time></trkpt><trkpt lat="45.649128" lon="9.4222061"><ele>232.28571428571433</ele><time>2026-04-04T12:10:43.347Z</time></trkpt><trkpt lat="45.649016" lon="9.4222438"><ele>232.00000000000003</ele><time>2026-04-04T12:10:45.349Z</time></trkpt><trkpt lat="45.6489736" lon="9.4223552"><ele>231.99999999999997</ele><time>2026-04-04T12:10:47.349Z</time></trkpt><trkpt lat="45.6489728" lon="9.422478"><ele>232.0</ele><time>2026-04-04T12:10:49.347Z</time></trkpt><trkpt lat="45.6489525" lon="9.4225986"><ele>232.0</ele><time>2026-04-04T12:10:51.339Z</time></trkpt><trkpt lat="45.6489559" lon="9.4227065"><ele>232.0</ele><time>2026-04-04T12:10:53.349Z</time></trkpt><trkpt lat="45.6489551" lon="9.4228196"><ele>231.99999999999997</ele><time>2026-04-04T12:10:55.337Z</time></trkpt><trkpt lat="45.6489533" lon="9.4229526"><ele>232.0</ele><time>2026-04-04T12:10:57.348Z</time></trkpt><trkpt lat="45.6489591" lon="9.423073"><ele>233.0</ele><time>2026-04-04T12:10:59.347Z</time></trkpt><trkpt lat="45.6489718" lon="9.4231948"><ele>234.0</ele><time>2026-04-04T12:11:01.339Z</time></trkpt><trkpt lat="45.6489503" lon="9.4233118"><ele>235.0</ele><time>2026-04-04T12:11:03.34Z</time></trkpt><trkpt lat="45.6488734" lon="9.423358"><ele>236.0</ele><time>2026-04-04T12:11:05.38Z</time></trkpt><trkpt lat="45.6487878" lon="9.423371"><ele>237.0</ele><time>2026-04-04T12:11:07.348Z</time></trkpt><trkpt lat="45.6486768" lon="9.4233798"><ele>237.0</ele><time>2026-04-04T12:11:09.349Z</time></trkpt><trkpt lat="45.6485651" lon="9.423383"><ele>237.0</ele><time>2026-04-04T12:11:11.346Z</time></trkpt><trkpt lat="45.6484539" lon="9.4233851"><ele>237.0</ele><time>2026-04-04T12:11:13.347Z</time></trkpt><trkpt lat="45.6483397" lon="9.4233948"><ele>237.0</ele><time>2026-04-04T12:11:15.346Z</time></trkpt><trkpt lat="45.6482188" lon="9.4234053"><ele>237.0</ele><time>2026-04-04T12:11:17.347Z</time></trkpt><trkpt lat="45.6480992" lon="9.4234115"><ele>237.0</ele><time>2026-04-04T12:11:19.347Z</time></trkpt><trkpt lat="45.6479875" lon="9.4234209"><ele>237.0</ele><time>2026-04-04T12:11:21.347Z</time></trkpt><trkpt lat="45.6478743" lon="9.4234318"><ele>237.0</ele><time>2026-04-04T12:11:23.345Z</time></trkpt><trkpt lat="45.6477578" lon="9.4234476"><ele>237.2</ele><time>2026-04-04T12:11:25.346Z</time></trkpt><trkpt lat="45.6476416" lon="9.4234564"><ele>237.39999999999998</ele><time>2026-04-04T12:11:27.345Z</time></trkpt><trkpt lat="45.6475279" lon="9.4234733"><ele>237.60000000000002</ele><time>2026-04-04T12:11:29.344Z</time></trkpt><trkpt lat="45.6474138" lon="9.4234781"><ele>237.8</ele><time>2026-04-04T12:11:31.346Z</time></trkpt><trkpt lat="45.6473176" lon="9.4234818"><ele>238.0</ele><time>2026-04-04T12:11:33.344Z</time></trkpt><trkpt lat="45.6472113" lon="9.4234583"><ele>238.0</ele><time>2026-04-04T12:11:35.348Z</time></trkpt><trkpt lat="45.6471029" lon="9.4234027"><ele>238.0</ele><time>2026-04-04T12:11:37.349Z</time></trkpt><trkpt lat="45.6470011" lon="9.4233475"><ele>238.0</ele><time>2026-04-04T12:11:39.346Z</time></trkpt><trkpt lat="45.6469461" lon="9.4232898"><ele>238.0</ele><time>2026-04-04T12:11:40.348Z</time></trkpt><trkpt lat="45.6468535" lon="9.4232066"><ele>238.0</ele><time>2026-04-04T12:11:42.341Z</time></trkpt><trkpt lat="45.6467461" lon="9.4231379"><ele>238.2</ele><time>2026-04-04T12:11:44.344Z</time></trkpt><trkpt lat="45.6466513" lon="9.4230635"><ele>238.4</ele><time>2026-04-04T12:11:46.344Z</time></trkpt><trkpt lat="45.6465498" lon="9.4229994"><ele>238.59999999999997</ele><time>2026-04-04T12:11:48.344Z</time></trkpt><trkpt lat="45.6464469" lon="9.4229174"><ele>238.79999999999998</ele><time>2026-04-04T12:11:50.348Z</time></trkpt><trkpt lat="45.6463589" lon="9.4228206"><ele>239.0</ele><time>2026-04-04T12:11:52.346Z</time></trkpt><trkpt lat="45.6463004" lon="9.4227591"><ele>239.2</ele><time>2026-04-04T12:11:53.344Z</time></trkpt><trkpt lat="45.6461893" lon="9.4226638"><ele>239.39999999999998</ele><time>2026-04-04T12:11:55.345Z</time></trkpt><trkpt lat="45.6460836" lon="9.422561"><ele>239.6</ele><time>2026-04-04T12:11:57.346Z</time></trkpt><trkpt lat="45.6459827" lon="9.4224814"><ele>239.8</ele><time>2026-04-04T12:11:59.345Z</time></trkpt><trkpt lat="45.6459258" lon="9.4224318"><ele>240.0</ele><time>2026-04-04T12:12:00.345Z</time></trkpt><trkpt lat="45.6458752" lon="9.4223769"><ele>240.0</ele><time>2026-04-04T12:12:01.344Z</time></trkpt><trkpt lat="45.6458217" lon="9.4223191"><ele>240.0</ele><time>2026-04-04T12:12:02.346Z</time></trkpt><trkpt lat="45.6457193" lon="9.422217"><ele>240.0</ele><time>2026-04-04T12:12:04.345Z</time></trkpt><trkpt lat="45.6456305" lon="9.4220992"><ele>240.0</ele><time>2026-04-04T12:12:06.344Z</time></trkpt><trkpt lat="45.6455845" lon="9.4220309"><ele>240.0</ele><time>2026-04-04T12:12:07.344Z</time></trkpt><trkpt lat="45.6455393" lon="9.4219584"><ele>240.0</ele><time>2026-04-04T12:12:08.336Z</time></trkpt><trkpt lat="45.645498" lon="9.4218807"><ele>239.4</ele><time>2026-04-04T12:12:09.345Z</time></trkpt><trkpt lat="45.6454609" lon="9.4217927"><ele>238.8</ele><time>2026-04-04T12:12:10.347Z</time></trkpt><trkpt lat="45.6453999" lon="9.4216276"><ele>238.2</ele><time>2026-04-04T12:12:12.345Z</time></trkpt><trkpt lat="45.6453397" lon="9.4214751"><ele>237.6</ele><time>2026-04-04T12:12:14.344Z</time></trkpt><trkpt lat="45.6453082" lon="9.4213875"><ele>237.0</ele><time>2026-04-04T12:12:15.345Z</time></trkpt><trkpt lat="45.6452741" lon="9.421299"><ele>237.0</ele><time>2026-04-04T12:12:16.344Z</time></trkpt><trkpt lat="45.6452456" lon="9.4212163"><ele>237.0</ele><time>2026-04-04T12:12:17.347Z</time></trkpt><trkpt lat="45.6452088" lon="9.4211189"><ele>237.0</ele><time>2026-04-04T12:12:18.346Z</time></trkpt><trkpt lat="45.6451755" lon="9.421017"><ele>237.0</ele><time>2026-04-04T12:12:19.346Z</time></trkpt><trkpt lat="45.645141" lon="9.4209203"><ele>237.0</ele><time>2026-04-04T12:12:20.345Z</time></trkpt><trkpt lat="45.6451043" lon="9.42082"><ele>237.0</ele><time>2026-04-04T12:12:21.347Z</time></trkpt><trkpt lat="45.6450599" lon="9.4207185"><ele>237.0</ele><time>2026-04-04T12:12:22.343Z</time></trkpt><trkpt lat="45.6450232" lon="9.4206353"><ele>237.0</ele><time>2026-04-04T12:12:23.346Z</time></trkpt><trkpt lat="45.644983" lon="9.4205294"><ele>237.0</ele><time>2026-04-04T12:12:24.347Z</time></trkpt><trkpt lat="45.6449432" lon="9.4204138"><ele>237.0</ele><time>2026-04-04T12:12:25.345Z</time></trkpt><trkpt lat="45.6449071" lon="9.4203147"><ele>237.0</ele><time>2026-04-04T12:12:26.343Z</time></trkpt><trkpt lat="45.6448687" lon="9.420215"><ele>237.0</ele><time>2026-04-04T12:12:27.348Z</time></trkpt><trkpt lat="45.6448203" lon="9.4201069"><ele>236.33333333333334</ele><time>2026-04-04T12:12:28.346Z</time></trkpt><trkpt lat="45.6447776" lon="9.4200023"><ele>235.66666666666669</ele><time>2026-04-04T12:12:29.348Z</time></trkpt><trkpt lat="45.6447352" lon="9.419897"><ele>235.0</ele><time>2026-04-04T12:12:30.347Z</time></trkpt><trkpt lat="45.6446942" lon="9.4197809"><ele>234.33333333333334</ele><time>2026-04-04T12:12:31.339Z</time></trkpt><trkpt lat="45.6446572" lon="9.4196742"><ele>233.66666666666669</ele><time>2026-04-04T12:12:32.342Z</time></trkpt><trkpt lat="45.6446242" lon="9.4195643"><ele>233.0</ele><time>2026-04-04T12:12:33.344Z</time></trkpt><trkpt lat="45.6445923" lon="9.4194642"><ele>232.50000000000003</ele><time>2026-04-04T12:12:34.344Z</time></trkpt><trkpt lat="45.6445567" lon="9.419352"><ele>232.0</ele><time>2026-04-04T12:12:35.347Z</time></trkpt><trkpt lat="45.6445229" lon="9.4192506"><ele>231.5</ele><time>2026-04-04T12:12:36.346Z</time></trkpt><trkpt lat="45.6444874" lon="9.419152"><ele>231.0</ele><time>2026-04-04T12:12:37.346Z</time></trkpt><trkpt lat="45.6444538" lon="9.4190527"><ele>230.50000000000003</ele><time>2026-04-04T12:12:38.346Z</time></trkpt><trkpt lat="45.6444121" lon="9.4189482"><ele>230.0</ele><time>2026-04-04T12:12:39.343Z</time></trkpt><trkpt lat="45.6443726" lon="9.4188449"><ele>229.66666666666669</ele><time>2026-04-04T12:12:40.343Z</time></trkpt><trkpt lat="45.6443427" lon="9.4187473"><ele>229.33333333333334</ele><time>2026-04-04T12:12:41.344Z</time></trkpt><trkpt lat="45.6443102" lon="9.4186445"><ele>229.0</ele><time>2026-04-04T12:12:42.345Z</time></trkpt><trkpt lat="45.644275" lon="9.4185533"><ele>228.66666666666669</ele><time>2026-04-04T12:12:43.344Z</time></trkpt><trkpt lat="45.6442453" lon="9.4184528"><ele>228.33333333333334</ele><time>2026-04-04T12:12:44.343Z</time></trkpt><trkpt lat="45.6442099" lon="9.4183554"><ele>228.0</ele><time>2026-04-04T12:12:45.341Z</time></trkpt><trkpt lat="45.6441735" lon="9.4182526"><ele>228.0</ele><time>2026-04-04T12:12:46.346Z</time></trkpt><trkpt lat="45.6441305" lon="9.4181607"><ele>228.0</ele><time>2026-04-04T12:12:47.346Z</time></trkpt><trkpt lat="45.6440757" lon="9.4180789"><ele>228.0</ele><time>2026-04-04T12:12:48.344Z</time></trkpt><trkpt lat="45.644016" lon="9.4180069"><ele>228.0</ele><time>2026-04-04T12:12:49.343Z</time></trkpt><trkpt lat="45.6439464" lon="9.4179485"><ele>228.0</ele><time>2026-04-04T12:12:50.346Z</time></trkpt><trkpt lat="45.6438696" lon="9.4178865"><ele>228.0</ele><time>2026-04-04T12:12:51.343Z</time></trkpt><trkpt lat="45.6437963" lon="9.4178284"><ele>228.16666666666666</ele><time>2026-04-04T12:12:52.347Z</time></trkpt><trkpt lat="45.6437313" lon="9.4177789"><ele>228.33333333333331</ele><time>2026-04-04T12:12:53.347Z</time></trkpt><trkpt lat="45.6436527" lon="9.4177304"><ele>228.5</ele><time>2026-04-04T12:12:54.344Z</time></trkpt><trkpt lat="45.6435813" lon="9.417684"><ele>228.66666666666666</ele><time>2026-04-04T12:12:55.345Z</time></trkpt><trkpt lat="45.6435047" lon="9.4176401"><ele>228.83333333333331</ele><time>2026-04-04T12:12:56.342Z</time></trkpt><trkpt lat="45.643428" lon="9.417593"><ele>229.0</ele><time>2026-04-04T12:12:57.347Z</time></trkpt><trkpt lat="45.6433456" lon="9.4175372"><ele>229.0</ele><time>2026-04-04T12:12:58.346Z</time></trkpt><trkpt lat="45.6432676" lon="9.4174748"><ele>228.99999999999997</ele><time>2026-04-04T12:12:59.348Z</time></trkpt><trkpt lat="45.6431755" lon="9.4174149"><ele>228.99999999999997</ele><time>2026-04-04T12:13:00.344Z</time></trkpt><trkpt lat="45.6430895" lon="9.4173596"><ele>229.0</ele><time>2026-04-04T12:13:01.343Z</time></trkpt><trkpt lat="45.6430068" lon="9.417314"><ele>229.0</ele><time>2026-04-04T12:13:02.346Z</time></trkpt><trkpt lat="45.6429266" lon="9.4172474"><ele>229.0</ele><time>2026-04-04T12:13:03.345Z</time></trkpt><trkpt lat="45.6428418" lon="9.4171916"><ele>228.99999999999997</ele><time>2026-04-04T12:13:04.342Z</time></trkpt><trkpt lat="45.6427554" lon="9.4171229"><ele>228.99999999999997</ele><time>2026-04-04T12:13:05.352Z</time></trkpt><trkpt lat="45.6426818" lon="9.4170642"><ele>229.0</ele><time>2026-04-04T12:13:06.34Z</time></trkpt><trkpt lat="45.6425985" lon="9.4170045"><ele>229.0</ele><time>2026-04-04T12:13:07.344Z</time></trkpt><trkpt lat="45.6424984" lon="9.416947"><ele>228.99999999999997</ele><time>2026-04-04T12:13:08.348Z</time></trkpt><trkpt lat="45.6424331" lon="9.4168793"><ele>229.0</ele><time>2026-04-04T12:13:09.341Z</time></trkpt><trkpt lat="45.6423498" lon="9.4168163"><ele>229.0</ele><time>2026-04-04T12:13:10.345Z</time></trkpt><trkpt lat="45.6422721" lon="9.4167674"><ele>229.0</ele><time>2026-04-04T12:13:11.347Z</time></trkpt><trkpt lat="45.6422002" lon="9.4167155"><ele>228.99999999999997</ele><time>2026-04-04T12:13:12.344Z</time></trkpt><trkpt lat="45.6421221" lon="9.4166627"><ele>229.0</ele><time>2026-04-04T12:13:13.344Z</time></trkpt><trkpt lat="45.6420432" lon="9.41661"><ele>228.99999999999997</ele><time>2026-04-04T12:13:14.344Z</time></trkpt><trkpt lat="45.6419668" lon="9.4165585"><ele>229.0</ele><time>2026-04-04T12:13:15.344Z</time></trkpt><trkpt lat="45.6418836" lon="9.4165061"><ele>229.0</ele><time>2026-04-04T12:13:16.346Z</time></trkpt><trkpt lat="45.6418013" lon="9.4164645"><ele>229.0</ele><time>2026-04-04T12:13:17.344Z</time></trkpt><trkpt lat="45.6417208" lon="9.4164226"><ele>228.99999999999997</ele><time>2026-04-04T12:13:18.347Z</time></trkpt><trkpt lat="45.641646" lon="9.416365"><ele>229.0</ele><time>2026-04-04T12:13:19.346Z</time></trkpt><trkpt lat="45.6415751" lon="9.4163176"><ele>228.99999999999997</ele><time>2026-04-04T12:13:20.345Z</time></trkpt><trkpt lat="45.6415059" lon="9.4162663"><ele>229.0</ele><time>2026-04-04T12:13:21.347Z</time></trkpt><trkpt lat="45.6414475" lon="9.4162323"><ele>229.0</ele><time>2026-04-04T12:13:22.345Z</time></trkpt><trkpt lat="45.6413468" lon="9.4162203"><ele>229.0</ele><time>2026-04-04T12:13:24.346Z</time></trkpt><trkpt lat="45.6412813" lon="9.4163462"><ele>228.99999999999997</ele><time>2026-04-04T12:13:26.35Z</time></trkpt><trkpt lat="45.6412349" lon="9.4164338"><ele>229.0</ele><time>2026-04-04T12:13:27.345Z</time></trkpt><trkpt lat="45.6412008" lon="9.4165118"><ele>229.0</ele><time>2026-04-04T12:13:28.344Z</time></trkpt><trkpt lat="45.6411768" lon="9.4165975"><ele>228.99999999999997</ele><time>2026-04-04T12:13:29.347Z</time></trkpt><trkpt lat="45.6411256" lon="9.4167642"><ele>228.99999999999997</ele><time>2026-04-04T12:13:31.346Z</time></trkpt><trkpt lat="45.6410655" lon="9.4169275"><ele>229.0</ele><time>2026-04-04T12:13:33.346Z</time></trkpt><trkpt lat="45.6410407" lon="9.4170165"><ele>229.0</ele><time>2026-04-04T12:13:34.345Z</time></trkpt><trkpt lat="45.6410162" lon="9.4171012"><ele>228.99999999999997</ele><time>2026-04-04T12:13:35.344Z</time></trkpt><trkpt lat="45.6409652" lon="9.417257"><ele>229.0</ele><time>2026-04-04T12:13:37.344Z</time></trkpt><trkpt lat="45.6409329" lon="9.4173467"><ele>229.0</ele><time>2026-04-04T12:13:38.345Z</time></trkpt><trkpt lat="45.6408968" lon="9.4174485"><ele>229.0</ele><time>2026-04-04T12:13:39.347Z</time></trkpt><trkpt lat="45.6408666" lon="9.4175298"><ele>228.99999999999997</ele><time>2026-04-04T12:13:40.345Z</time></trkpt><trkpt lat="45.6408366" lon="9.4176226"><ele>229.0</ele><time>2026-04-04T12:13:41.343Z</time></trkpt><trkpt lat="45.6407969" lon="9.4177111"><ele>229.0</ele><time>2026-04-04T12:13:42.344Z</time></trkpt><trkpt lat="45.6407564" lon="9.4177893"><ele>229.0</ele><time>2026-04-04T12:13:43.343Z</time></trkpt><trkpt lat="45.6407182" lon="9.4178734"><ele>229.0</ele><time>2026-04-04T12:13:44.346Z</time></trkpt><trkpt lat="45.6406656" lon="9.4179404"><ele>229.0</ele><time>2026-04-04T12:13:45.344Z</time></trkpt><trkpt lat="45.6406019" lon="9.4179888"><ele>229.0</ele><time>2026-04-04T12:13:46.345Z</time></trkpt><trkpt lat="45.6405483" lon="9.4180566"><ele>229.0</ele><time>2026-04-04T12:13:47.344Z</time></trkpt><trkpt lat="45.6404903" lon="9.4181024"><ele>229.0</ele><time>2026-04-04T12:13:48.34Z</time></trkpt><trkpt lat="45.6404236" lon="9.4181404"><ele>229.0</ele><time>2026-04-04T12:13:49.345Z</time></trkpt><trkpt lat="45.6403644" lon="9.4181714"><ele>228.99999999999997</ele><time>2026-04-04T12:13:50.344Z</time></trkpt><trkpt lat="45.6402923" lon="9.418198"><ele>228.99999999999997</ele><time>2026-04-04T12:13:51.343Z</time></trkpt><trkpt lat="45.6401611" lon="9.4182159"><ele>229.0</ele><time>2026-04-04T12:13:53.344Z</time></trkpt><trkpt lat="45.6400211" lon="9.4182002"><ele>229.0</ele><time>2026-04-04T12:13:55.345Z</time></trkpt><trkpt lat="45.6399444" lon="9.4181745"><ele>229.0</ele><time>2026-04-04T12:13:56.342Z</time></trkpt><trkpt lat="45.6398722" lon="9.4181638"><ele>229.0</ele><time>2026-04-04T12:13:57.339Z</time></trkpt><trkpt lat="45.6397979" lon="9.4181504"><ele>229.0</ele><time>2026-04-04T12:13:58.346Z</time></trkpt><trkpt lat="45.6397206" lon="9.4181445"><ele>229.0</ele><time>2026-04-04T12:13:59.345Z</time></trkpt><trkpt lat="45.6396451" lon="9.4181336"><ele>229.0</ele><time>2026-04-04T12:14:00.343Z</time></trkpt><trkpt lat="45.6395735" lon="9.4181195"><ele>229.0</ele><time>2026-04-04T12:14:01.344Z</time></trkpt><trkpt lat="45.6395119" lon="9.4180971"><ele>229.0</ele><time>2026-04-04T12:14:02.344Z</time></trkpt><trkpt lat="45.639432" lon="9.4180888"><ele>228.71428571428572</ele><time>2026-04-04T12:14:03.348Z</time></trkpt><trkpt lat="45.6393579" lon="9.4180786"><ele>228.42857142857144</ele><time>2026-04-04T12:14:04.346Z</time></trkpt><trkpt lat="45.6392778" lon="9.4180606"><ele>228.14285714285717</ele><time>2026-04-04T12:14:05.345Z</time></trkpt><trkpt lat="45.6392061" lon="9.4180577"><ele>227.85714285714286</ele><time>2026-04-04T12:14:06.345Z</time></trkpt><trkpt lat="45.6391346" lon="9.4180345"><ele>227.5714285714286</ele><time>2026-04-04T12:14:07.345Z</time></trkpt><trkpt lat="45.6390627" lon="9.4180237"><ele>227.2857142857143</ele><time>2026-04-04T12:14:08.344Z</time></trkpt><trkpt lat="45.6389929" lon="9.4180135"><ele>227.0</ele><time>2026-04-04T12:14:09.347Z</time></trkpt><trkpt lat="45.6389205" lon="9.4180001"><ele>227.00000000000003</ele><time>2026-04-04T12:14:10.344Z</time></trkpt><trkpt lat="45.638847" lon="9.4179744"><ele>227.0</ele><time>2026-04-04T12:14:11.343Z</time></trkpt><trkpt lat="45.6387823" lon="9.4179561"><ele>227.0</ele><time>2026-04-04T12:14:12.344Z</time></trkpt><trkpt lat="45.6387187" lon="9.4179492"><ele>227.0</ele><time>2026-04-04T12:14:13.345Z</time></trkpt><trkpt lat="45.6386181" lon="9.417917"><ele>227.00000000000003</ele><time>2026-04-04T12:14:15.347Z</time></trkpt><trkpt lat="45.6385316" lon="9.4179479"><ele>227.0</ele><time>2026-04-04T12:14:17.354Z</time></trkpt><trkpt lat="45.638421" lon="9.4180075"><ele>226.2</ele><time>2026-04-04T12:14:19.343Z</time></trkpt><trkpt lat="45.6382961" lon="9.4180525"><ele>225.39999999999998</ele><time>2026-04-04T12:14:21.345Z</time></trkpt><trkpt lat="45.6382298" lon="9.4180705"><ele>224.60000000000002</ele><time>2026-04-04T12:14:22.347Z</time></trkpt><trkpt lat="45.6381038" lon="9.4180671"><ele>223.8</ele><time>2026-04-04T12:14:24.345Z</time></trkpt><trkpt lat="45.6380356" lon="9.4180546"><ele>223.0</ele><time>2026-04-04T12:14:25.343Z</time></trkpt><trkpt lat="45.6379673" lon="9.4180396"><ele>223.0</ele><time>2026-04-04T12:14:26.342Z</time></trkpt><trkpt lat="45.6378881" lon="9.4180097"><ele>223.0</ele><time>2026-04-04T12:14:27.348Z</time></trkpt><trkpt lat="45.6377518" lon="9.4179421"><ele>223.0</ele><time>2026-04-04T12:14:29.345Z</time></trkpt><trkpt lat="45.6376225" lon="9.4179194"><ele>223.0</ele><time>2026-04-04T12:14:31.344Z</time></trkpt><trkpt lat="45.6375553" lon="9.4178902"><ele>223.0</ele><time>2026-04-04T12:14:32.343Z</time></trkpt><trkpt lat="45.6374959" lon="9.4178404"><ele>223.25</ele><time>2026-04-04T12:14:33.346Z</time></trkpt><trkpt lat="45.637439" lon="9.4177886"><ele>223.5</ele><time>2026-04-04T12:14:34.344Z</time></trkpt><trkpt lat="45.6373198" lon="9.4177408"><ele>223.75</ele><time>2026-04-04T12:14:36.344Z</time></trkpt><trkpt lat="45.6371911" lon="9.4178178"><ele>224.0</ele><time>2026-04-04T12:14:38.343Z</time></trkpt><trkpt lat="45.6370683" lon="9.4178493"><ele>224.00000000000003</ele><time>2026-04-04T12:14:40.345Z</time></trkpt><trkpt lat="45.6370004" lon="9.41783"><ele>224.0</ele><time>2026-04-04T12:14:41.344Z</time></trkpt><trkpt lat="45.6369406" lon="9.4177853"><ele>224.0</ele><time>2026-04-04T12:14:42.345Z</time></trkpt><trkpt lat="45.6368719" lon="9.4177492"><ele>224.0</ele><time>2026-04-04T12:14:43.344Z</time></trkpt><trkpt lat="45.6368048" lon="9.4177104"><ele>224.00000000000003</ele><time>2026-04-04T12:14:44.343Z</time></trkpt><trkpt lat="45.6366829" lon="9.4176361"><ele>224.0</ele><time>2026-04-04T12:14:46.345Z</time></trkpt><trkpt lat="45.6366242" lon="9.4175873"><ele>223.75</ele><time>2026-04-04T12:14:47.344Z</time></trkpt><trkpt lat="45.636511" lon="9.4175253"><ele>223.5</ele><time>2026-04-04T12:14:49.342Z</time></trkpt><trkpt lat="45.6363998" lon="9.4174762"><ele>223.25</ele><time>2026-04-04T12:14:51.344Z</time></trkpt><trkpt lat="45.6363007" lon="9.4175414"><ele>223.0</ele><time>2026-04-04T12:14:53.343Z</time></trkpt><trkpt lat="45.6362572" lon="9.4176757"><ele>223.0</ele><time>2026-04-04T12:14:55.346Z</time></trkpt><trkpt lat="45.6362048" lon="9.4177914"><ele>223.0</ele><time>2026-04-04T12:14:57.38Z</time></trkpt><trkpt lat="45.6361502" lon="9.4179357"><ele>223.0</ele><time>2026-04-04T12:14:59.38Z</time></trkpt><trkpt lat="45.636089" lon="9.4180786"><ele>223.0</ele><time>2026-04-04T12:15:01.348Z</time></trkpt><trkpt lat="45.6360227" lon="9.4182207"><ele>223.0</ele><time>2026-04-04T12:15:03.342Z</time></trkpt><trkpt lat="45.6359615" lon="9.4183617"><ele>223.4</ele><time>2026-04-04T12:15:05.346Z</time></trkpt><trkpt lat="45.6359266" lon="9.4184378"><ele>223.8</ele><time>2026-04-04T12:15:06.339Z</time></trkpt><trkpt lat="45.6358585" lon="9.418573"><ele>224.2</ele><time>2026-04-04T12:15:08.38Z</time></trkpt><trkpt lat="45.6358007" lon="9.4186635"><ele>224.6</ele><time>2026-04-04T12:15:10.345Z</time></trkpt><trkpt lat="45.6357587" lon="9.4187975"><ele>225.0</ele><time>2026-04-04T12:15:13.35Z</time></trkpt><trkpt lat="45.6357169" lon="9.4189124"><ele>225.33333333333334</ele><time>2026-04-04T12:15:15.346Z</time></trkpt><trkpt lat="45.6356685" lon="9.4190257"><ele>225.66666666666669</ele><time>2026-04-04T12:15:17.337Z</time></trkpt><trkpt lat="45.6356472" lon="9.41915"><ele>226.0</ele><time>2026-04-04T12:15:19.345Z</time></trkpt><trkpt lat="45.6356178" lon="9.4192518"><ele>226.33333333333334</ele><time>2026-04-04T12:15:21.348Z</time></trkpt><trkpt lat="45.6355962" lon="9.4193483"><ele>226.66666666666669</ele><time>2026-04-04T12:15:23.346Z</time></trkpt><trkpt lat="45.6355842" lon="9.4194479"><ele>227.0</ele><time>2026-04-04T12:15:25.348Z</time></trkpt><trkpt lat="45.6355242" lon="9.4195317"><ele>227.00000000000003</ele><time>2026-04-04T12:15:27.35Z</time></trkpt><trkpt lat="45.6354146" lon="9.4195182"><ele>227.0</ele><time>2026-04-04T12:15:29.349Z</time></trkpt><trkpt lat="45.6353585" lon="9.4194741"><ele>227.0</ele><time>2026-04-04T12:15:30.351Z</time></trkpt><trkpt lat="45.6352691" lon="9.4194035"><ele>227.0</ele><time>2026-04-04T12:15:32.345Z</time></trkpt><trkpt lat="45.6352003" lon="9.4193762"><ele>227.00000000000003</ele><time>2026-04-04T12:15:33.341Z</time></trkpt><trkpt lat="45.6351201" lon="9.4193533"><ele>227.0</ele><time>2026-04-04T12:15:34.345Z</time></trkpt><trkpt lat="45.6350455" lon="9.4193313"><ele>227.5</ele><time>2026-04-04T12:15:35.346Z</time></trkpt><trkpt lat="45.6349327" lon="9.4190796"><ele>228.0</ele><time>2026-04-04T12:15:36.337Z</time></trkpt><trkpt lat="45.6348693" lon="9.4190485"><ele>228.5</ele><time>2026-04-04T12:15:37.344Z</time></trkpt><trkpt lat="45.63474" lon="9.4189852"><ele>229.0</ele><time>2026-04-04T12:15:39.347Z</time></trkpt><trkpt lat="45.6346751" lon="9.4189237"><ele>229.0</ele><time>2026-04-04T12:15:40.344Z</time></trkpt><trkpt lat="45.6346127" lon="9.4188736"><ele>229.0</ele><time>2026-04-04T12:15:41.34Z</time></trkpt><trkpt lat="45.6345541" lon="9.4188011"><ele>229.0</ele><time>2026-04-04T12:15:42.343Z</time></trkpt><trkpt lat="45.6344861" lon="9.4187685"><ele>229.0</ele><time>2026-04-04T12:15:43.345Z</time></trkpt><trkpt lat="45.6344199" lon="9.418742"><ele>229.0</ele><time>2026-04-04T12:15:44.341Z</time></trkpt><trkpt lat="45.6343503" lon="9.4186994"><ele>229.0</ele><time>2026-04-04T12:15:45.344Z</time></trkpt><trkpt lat="45.6342695" lon="9.4186727"><ele>229.0</ele><time>2026-04-04T12:15:46.346Z</time></trkpt><trkpt lat="45.6342061" lon="9.4186515"><ele>228.28571428571428</ele><time>2026-04-04T12:15:47.344Z</time></trkpt><trkpt lat="45.6341359" lon="9.4186329"><ele>227.57142857142858</ele><time>2026-04-04T12:15:48.344Z</time></trkpt><trkpt lat="45.6340656" lon="9.4186033"><ele>226.85714285714286</ele><time>2026-04-04T12:15:49.343Z</time></trkpt><trkpt lat="45.6339936" lon="9.4185888"><ele>226.14285714285714</ele><time>2026-04-04T12:15:50.342Z</time></trkpt><trkpt lat="45.6339277" lon="9.4185766"><ele>225.42857142857144</ele><time>2026-04-04T12:15:51.345Z</time></trkpt><trkpt lat="45.633858" lon="9.4185621"><ele>224.71428571428572</ele><time>2026-04-04T12:15:52.343Z</time></trkpt><trkpt lat="45.6337918" lon="9.4185421"><ele>224.0</ele><time>2026-04-04T12:15:53.345Z</time></trkpt><trkpt lat="45.6336624" lon="9.4185038"><ele>223.79999999999998</ele><time>2026-04-04T12:15:55.344Z</time></trkpt><trkpt lat="45.6335993" lon="9.4184929"><ele>223.59999999999997</ele><time>2026-04-04T12:15:56.348Z</time></trkpt><trkpt lat="45.6334799" lon="9.4184558"><ele>223.4</ele><time>2026-04-04T12:15:58.344Z</time></trkpt><trkpt lat="45.6333652" lon="9.418428"><ele>223.2</ele><time>2026-04-04T12:16:00.346Z</time></trkpt><trkpt lat="45.6332497" lon="9.4183951"><ele>223.0</ele><time>2026-04-04T12:16:02.348Z</time></trkpt><trkpt lat="45.6331848" lon="9.4183794"><ele>223.0</ele><time>2026-04-04T12:16:03.346Z</time></trkpt><trkpt lat="45.6331212" lon="9.4183776"><ele>223.0</ele><time>2026-04-04T12:16:04.34Z</time></trkpt><trkpt lat="45.633053" lon="9.4183816"><ele>223.0</ele><time>2026-04-04T12:16:05.347Z</time></trkpt><trkpt lat="45.6329669" lon="9.4183682"><ele>223.0</ele><time>2026-04-04T12:16:07.348Z</time></trkpt><trkpt lat="45.6328727" lon="9.4183558"><ele>223.0</ele><time>2026-04-04T12:16:09.337Z</time></trkpt><trkpt lat="45.6328064" lon="9.4183461"><ele>223.0</ele><time>2026-04-04T12:16:10.345Z</time></trkpt><trkpt lat="45.6327412" lon="9.418322"><ele>223.0</ele><time>2026-04-04T12:16:11.348Z</time></trkpt><trkpt lat="45.6326714" lon="9.4182919"><ele>223.16666666666666</ele><time>2026-04-04T12:16:12.344Z</time></trkpt><trkpt lat="45.6325354" lon="9.4182844"><ele>223.33333333333331</ele><time>2026-04-04T12:16:14.347Z</time></trkpt><trkpt lat="45.6324682" lon="9.4182702"><ele>223.5</ele><time>2026-04-04T12:16:15.344Z</time></trkpt><trkpt lat="45.6324054" lon="9.4182578"><ele>223.66666666666669</ele><time>2026-04-04T12:16:16.345Z</time></trkpt><trkpt lat="45.6323324" lon="9.4182442"><ele>223.83333333333334</ele><time>2026-04-04T12:16:17.345Z</time></trkpt><trkpt lat="45.6322589" lon="9.418237"><ele>224.0</ele><time>2026-04-04T12:16:18.344Z</time></trkpt><trkpt lat="45.6321801" lon="9.4182217"><ele>224.0</ele><time>2026-04-04T12:16:19.348Z</time></trkpt><trkpt lat="45.632107" lon="9.4182085"><ele>224.0</ele><time>2026-04-04T12:16:20.345Z</time></trkpt><trkpt lat="45.632037" lon="9.4181901"><ele>224.0</ele><time>2026-04-04T12:16:21.343Z</time></trkpt><trkpt lat="45.6319626" lon="9.4181791"><ele>224.0</ele><time>2026-04-04T12:16:22.345Z</time></trkpt><trkpt lat="45.6318958" lon="9.4181704"><ele>224.0</ele><time>2026-04-04T12:16:23.343Z</time></trkpt><trkpt lat="45.6318304" lon="9.4181544"><ele>224.0</ele><time>2026-04-04T12:16:24.349Z</time></trkpt><trkpt lat="45.6317561" lon="9.4181395"><ele>224.0</ele><time>2026-04-04T12:16:25.348Z</time></trkpt><trkpt lat="45.6316922" lon="9.418126"><ele>223.83333333333334</ele><time>2026-04-04T12:16:26.346Z</time></trkpt><trkpt lat="45.6316189" lon="9.4181156"><ele>223.66666666666669</ele><time>2026-04-04T12:16:27.347Z</time></trkpt><trkpt lat="45.6315502" lon="9.4181022"><ele>223.5</ele><time>2026-04-04T12:16:28.348Z</time></trkpt><trkpt lat="45.6314517" lon="9.4180912"><ele>223.33333333333331</ele><time>2026-04-04T12:16:29.348Z</time></trkpt><trkpt lat="45.6313789" lon="9.4180798"><ele>223.16666666666666</ele><time>2026-04-04T12:16:30.344Z</time></trkpt><trkpt lat="45.6313024" lon="9.4180748"><ele>223.0</ele><time>2026-04-04T12:16:31.346Z</time></trkpt><trkpt lat="45.6312263" lon="9.4180509"><ele>223.0</ele><time>2026-04-04T12:16:32.343Z</time></trkpt><trkpt lat="45.6311565" lon="9.4180448"><ele>223.0</ele><time>2026-04-04T12:16:33.346Z</time></trkpt><trkpt lat="45.6310947" lon="9.4180187"><ele>223.0</ele><time>2026-04-04T12:16:34.346Z</time></trkpt><trkpt lat="45.6310134" lon="9.4180032"><ele>223.0</ele><time>2026-04-04T12:16:35.348Z</time></trkpt><trkpt lat="45.6309433" lon="9.4180033"><ele>223.0</ele><time>2026-04-04T12:16:36.344Z</time></trkpt><trkpt lat="45.6308614" lon="9.4179947"><ele>223.0</ele><time>2026-04-04T12:16:37.346Z</time></trkpt><trkpt lat="45.6307817" lon="9.4180042"><ele>223.0</ele><time>2026-04-04T12:16:38.347Z</time></trkpt><trkpt lat="45.630653" lon="9.4180175"><ele>223.33333333333331</ele><time>2026-04-04T12:16:40.343Z</time></trkpt><trkpt lat="45.6305849" lon="9.4180342"><ele>223.66666666666666</ele><time>2026-04-04T12:16:41.346Z</time></trkpt><trkpt lat="45.6305138" lon="9.4180492"><ele>224.0</ele><time>2026-04-04T12:16:42.352Z</time></trkpt><trkpt lat="45.6304142" lon="9.4180677"><ele>224.33333333333331</ele><time>2026-04-04T12:16:43.348Z</time></trkpt><trkpt lat="45.6303284" lon="9.4180824"><ele>224.66666666666666</ele><time>2026-04-04T12:16:44.346Z</time></trkpt><trkpt lat="45.6302629" lon="9.4180847"><ele>225.0</ele><time>2026-04-04T12:16:45.348Z</time></trkpt><trkpt lat="45.6301911" lon="9.4181109"><ele>224.2</ele><time>2026-04-04T12:16:46.343Z</time></trkpt><trkpt lat="45.6301133" lon="9.418123"><ele>223.4</ele><time>2026-04-04T12:16:47.347Z</time></trkpt><trkpt lat="45.6300035" lon="9.4181019"><ele>222.60000000000002</ele><time>2026-04-04T12:16:49.348Z</time></trkpt><trkpt lat="45.629923" lon="9.4180429"><ele>221.8</ele><time>2026-04-04T12:16:51.344Z</time></trkpt><trkpt lat="45.6298392" lon="9.4179877"><ele>221.0</ele><time>2026-04-04T12:16:53.348Z</time></trkpt><trkpt lat="45.6297527" lon="9.4180079"><ele>221.0</ele><time>2026-04-04T12:16:55.348Z</time></trkpt><trkpt lat="45.6296714" lon="9.4180879"><ele>221.0</ele><time>2026-04-04T12:16:57.341Z</time></trkpt><trkpt lat="45.6295663" lon="9.4181688"><ele>221.0</ele><time>2026-04-04T12:16:59.346Z</time></trkpt><trkpt lat="45.629444" lon="9.4181974"><ele>221.0</ele><time>2026-04-04T12:17:01.344Z</time></trkpt><trkpt lat="45.6293162" lon="9.4182265"><ele>220.71428571428572</ele><time>2026-04-04T12:17:03.345Z</time></trkpt><trkpt lat="45.6292481" lon="9.4182413"><ele>220.42857142857144</ele><time>2026-04-04T12:17:04.347Z</time></trkpt><trkpt lat="45.6291847" lon="9.418251"><ele>220.14285714285717</ele><time>2026-04-04T12:17:05.352Z</time></trkpt><trkpt lat="45.6291159" lon="9.4182591"><ele>219.85714285714286</ele><time>2026-04-04T12:17:06.338Z</time></trkpt><trkpt lat="45.6290474" lon="9.4182781"><ele>219.57142857142856</ele><time>2026-04-04T12:17:07.345Z</time></trkpt><trkpt lat="45.6289773" lon="9.4182887"><ele>219.2857142857143</ele><time>2026-04-04T12:17:08.345Z</time></trkpt><trkpt lat="45.628904" lon="9.4182945"><ele>219.0</ele><time>2026-04-04T12:17:09.344Z</time></trkpt><trkpt lat="45.6288272" lon="9.4183067"><ele>219.0</ele><time>2026-04-04T12:17:10.344Z</time></trkpt><trkpt lat="45.62876" lon="9.4183156"><ele>219.0</ele><time>2026-04-04T12:17:11.345Z</time></trkpt><trkpt lat="45.6286828" lon="9.418321"><ele>219.0</ele><time>2026-04-04T12:17:12.347Z</time></trkpt><trkpt lat="45.6286087" lon="9.4183278"><ele>219.0</ele><time>2026-04-04T12:17:13.343Z</time></trkpt><trkpt lat="45.6285311" lon="9.4183276"><ele>219.0</ele><time>2026-04-04T12:17:14.348Z</time></trkpt><trkpt lat="45.6284543" lon="9.4183295"><ele>219.0</ele><time>2026-04-04T12:17:15.346Z</time></trkpt><trkpt lat="45.6283775" lon="9.4183294"><ele>218.33333333333334</ele><time>2026-04-04T12:17:16.343Z</time></trkpt><trkpt lat="45.6282962" lon="9.4183267"><ele>217.66666666666669</ele><time>2026-04-04T12:17:17.345Z</time></trkpt><trkpt lat="45.6282269" lon="9.4183248"><ele>217.0</ele><time>2026-04-04T12:17:18.343Z</time></trkpt><trkpt lat="45.6281488" lon="9.418319"><ele>216.33333333333334</ele><time>2026-04-04T12:17:19.349Z</time></trkpt><trkpt lat="45.6280688" lon="9.418305"><ele>215.66666666666669</ele><time>2026-04-04T12:17:20.346Z</time></trkpt><trkpt lat="45.6280005" lon="9.4182952"><ele>215.0</ele><time>2026-04-04T12:17:21.345Z</time></trkpt><trkpt lat="45.6279217" lon="9.41828"><ele>215.00000000000003</ele><time>2026-04-04T12:17:22.346Z</time></trkpt><trkpt lat="45.6278433" lon="9.4182813"><ele>215.0</ele><time>2026-04-04T12:17:23.346Z</time></trkpt><trkpt lat="45.6277663" lon="9.4182769"><ele>215.0</ele><time>2026-04-04T12:17:24.345Z</time></trkpt><trkpt lat="45.6276861" lon="9.4182726"><ele>215.0</ele><time>2026-04-04T12:17:25.345Z</time></trkpt><trkpt lat="45.6276084" lon="9.4182698"><ele>215.00000000000003</ele><time>2026-04-04T12:17:26.344Z</time></trkpt><trkpt lat="45.6275318" lon="9.4182767"><ele>215.0</ele><time>2026-04-04T12:17:27.345Z</time></trkpt><trkpt lat="45.6274512" lon="9.4182625"><ele>215.00000000000003</ele><time>2026-04-04T12:17:28.346Z</time></trkpt><trkpt lat="45.6273847" lon="9.4182644"><ele>215.0</ele><time>2026-04-04T12:17:29.349Z</time></trkpt><trkpt lat="45.6273" lon="9.4182587"><ele>215.0</ele><time>2026-04-04T12:17:30.337Z</time></trkpt><trkpt lat="45.6272267" lon="9.4182498"><ele>215.0</ele><time>2026-04-04T12:17:31.343Z</time></trkpt><trkpt lat="45.6271465" lon="9.4182521"><ele>215.00000000000003</ele><time>2026-04-04T12:17:32.345Z</time></trkpt><trkpt lat="45.6270627" lon="9.4182463"><ele>215.0</ele><time>2026-04-04T12:17:33.341Z</time></trkpt><trkpt lat="45.6269814" lon="9.4182431"><ele>215.16666666666669</ele><time>2026-04-04T12:17:34.34Z</time></trkpt><trkpt lat="45.6269049" lon="9.4182416"><ele>215.33333333333334</ele><time>2026-04-04T12:17:35.341Z</time></trkpt><trkpt lat="45.6268286" lon="9.4182395"><ele>215.5</ele><time>2026-04-04T12:17:36.342Z</time></trkpt><trkpt lat="45.6267488" lon="9.4182306"><ele>215.66666666666669</ele><time>2026-04-04T12:17:37.342Z</time></trkpt><trkpt lat="45.6266718" lon="9.4182183"><ele>215.83333333333334</ele><time>2026-04-04T12:17:38.34Z</time></trkpt><trkpt lat="45.626586" lon="9.4182053"><ele>216.0</ele><time>2026-04-04T12:17:39.341Z</time></trkpt><trkpt lat="45.6265056" lon="9.4181952"><ele>216.0</ele><time>2026-04-04T12:17:40.341Z</time></trkpt><trkpt lat="45.6264223" lon="9.4181846"><ele>216.0</ele><time>2026-04-04T12:17:41.342Z</time></trkpt><trkpt lat="45.6263326" lon="9.4181761"><ele>216.0</ele><time>2026-04-04T12:17:42.343Z</time></trkpt><trkpt lat="45.6262535" lon="9.4181673"><ele>216.0</ele><time>2026-04-04T12:17:43.343Z</time></trkpt><trkpt lat="45.6261746" lon="9.4181591"><ele>216.0</ele><time>2026-04-04T12:17:44.343Z</time></trkpt><trkpt lat="45.6260945" lon="9.4181451"><ele>216.0</ele><time>2026-04-04T12:17:45.342Z</time></trkpt><trkpt lat="45.6260167" lon="9.4181323"><ele>215.66666666666666</ele><time>2026-04-04T12:17:46.341Z</time></trkpt><trkpt lat="45.6259376" lon="9.4181165"><ele>215.33333333333331</ele><time>2026-04-04T12:17:47.343Z</time></trkpt><trkpt lat="45.6258658" lon="9.4181055"><ele>215.0</ele><time>2026-04-04T12:17:48.343Z</time></trkpt><trkpt lat="45.625784" lon="9.4180993"><ele>214.66666666666666</ele><time>2026-04-04T12:17:49.341Z</time></trkpt><trkpt lat="45.6257012" lon="9.4180913"><ele>214.33333333333331</ele><time>2026-04-04T12:17:50.341Z</time></trkpt><trkpt lat="45.6256242" lon="9.4180767"><ele>214.0</ele><time>2026-04-04T12:17:51.341Z</time></trkpt><trkpt lat="45.6255477" lon="9.4180586"><ele>214.00000000000003</ele><time>2026-04-04T12:17:52.342Z</time></trkpt><trkpt lat="45.6254684" lon="9.4180384"><ele>214.0</ele><time>2026-04-04T12:17:53.342Z</time></trkpt><trkpt lat="45.6253992" lon="9.4180208"><ele>214.0</ele><time>2026-04-04T12:17:54.342Z</time></trkpt><trkpt lat="45.6253362" lon="9.4179787"><ele>214.0</ele><time>2026-04-04T12:17:55.341Z</time></trkpt><trkpt lat="45.6252827" lon="9.4179184"><ele>214.0</ele><time>2026-04-04T12:17:56.341Z</time></trkpt><trkpt lat="45.6252356" lon="9.4178567"><ele>214.00000000000003</ele><time>2026-04-04T12:17:57.343Z</time></trkpt><trkpt lat="45.6251882" lon="9.4177863"><ele>214.0</ele><time>2026-04-04T12:17:58.341Z</time></trkpt><trkpt lat="45.6251198" lon="9.4177033"><ele>213.83333333333331</ele><time>2026-04-04T12:18:00.342Z</time></trkpt><trkpt lat="45.6250597" lon="9.4176651"><ele>213.66666666666666</ele><time>2026-04-04T12:18:05.34Z</time></trkpt><trkpt lat="45.624954" lon="9.4176991"><ele>213.5</ele><time>2026-04-04T12:18:08.343Z</time></trkpt><trkpt lat="45.6248914" lon="9.4177499"><ele>213.33333333333331</ele><time>2026-04-04T12:18:09.343Z</time></trkpt><trkpt lat="45.6248178" lon="9.4178387"><ele>213.16666666666666</ele><time>2026-04-04T12:18:11.342Z</time></trkpt><trkpt lat="45.6247642" lon="9.4179409"><ele>213.0</ele><time>2026-04-04T12:18:13.343Z</time></trkpt><trkpt lat="45.6246848" lon="9.4179575"><ele>213.0</ele><time>2026-04-04T12:18:15.339Z</time></trkpt><trkpt lat="45.6246057" lon="9.4179636"><ele>213.0</ele><time>2026-04-04T12:18:17.348Z</time></trkpt><trkpt lat="45.6245021" lon="9.4179461"><ele>213.0</ele><time>2026-04-04T12:18:19.344Z</time></trkpt><trkpt lat="45.6243945" lon="9.4179449"><ele>213.0</ele><time>2026-04-04T12:18:21.344Z</time></trkpt><trkpt lat="45.6242914" lon="9.4179144"><ele>213.0</ele><time>2026-04-04T12:18:23.343Z</time></trkpt><trkpt lat="45.6241712" lon="9.4178595"><ele>213.60000000000002</ele><time>2026-04-04T12:18:25.344Z</time></trkpt><trkpt lat="45.6240591" lon="9.417853"><ele>214.20000000000002</ele><time>2026-04-04T12:18:27.346Z</time></trkpt><trkpt lat="45.623945" lon="9.4178406"><ele>214.8</ele><time>2026-04-04T12:18:29.343Z</time></trkpt><trkpt lat="45.6238157" lon="9.417814"><ele>215.4</ele><time>2026-04-04T12:18:31.346Z</time></trkpt><trkpt lat="45.6237401" lon="9.4177954"><ele>216.0</ele><time>2026-04-04T12:18:32.343Z</time></trkpt><trkpt lat="45.6236706" lon="9.4177752"><ele>215.8</ele><time>2026-04-04T12:18:33.343Z</time></trkpt><trkpt lat="45.6236075" lon="9.4177608"><ele>215.60000000000002</ele><time>2026-04-04T12:18:34.344Z</time></trkpt><trkpt lat="45.6234857" lon="9.41774"><ele>215.4</ele><time>2026-04-04T12:18:36.342Z</time></trkpt><trkpt lat="45.6233471" lon="9.4177115"><ele>215.2</ele><time>2026-04-04T12:18:38.344Z</time></trkpt><trkpt lat="45.6232707" lon="9.4177203"><ele>215.0</ele><time>2026-04-04T12:18:39.346Z</time></trkpt><trkpt lat="45.6232045" lon="9.4177167"><ele>215.0</ele><time>2026-04-04T12:18:40.346Z</time></trkpt><trkpt lat="45.6230858" lon="9.4177141"><ele>215.0</ele><time>2026-04-04T12:18:42.343Z</time></trkpt><trkpt lat="45.6229603" lon="9.4176658"><ele>215.0</ele><time>2026-04-04T12:18:44.342Z</time></trkpt><trkpt lat="45.622837" lon="9.4176516"><ele>215.0</ele><time>2026-04-04T12:18:46.346Z</time></trkpt><trkpt lat="45.6227018" lon="9.4176262"><ele>214.85714285714286</ele><time>2026-04-04T12:18:48.343Z</time></trkpt><trkpt lat="45.6226312" lon="9.4176263"><ele>214.71428571428572</ele><time>2026-04-04T12:18:49.341Z</time></trkpt><trkpt lat="45.622561" lon="9.4176435"><ele>214.57142857142858</ele><time>2026-04-04T12:18:50.341Z</time></trkpt><trkpt lat="45.6224962" lon="9.4176839"><ele>214.42857142857144</ele><time>2026-04-04T12:18:51.344Z</time></trkpt><trkpt lat="45.6224392" lon="9.4177254"><ele>214.28571428571428</ele><time>2026-04-04T12:18:52.344Z</time></trkpt><trkpt lat="45.6223756" lon="9.417841"><ele>214.14285714285717</ele><time>2026-04-04T12:18:54.343Z</time></trkpt><trkpt lat="45.6223376" lon="9.4179154"><ele>214.0</ele><time>2026-04-04T12:18:55.342Z</time></trkpt><trkpt lat="45.6222669" lon="9.4180191"><ele>214.0</ele><time>2026-04-04T12:18:57.343Z</time></trkpt><trkpt lat="45.6221788" lon="9.4180729"><ele>213.99999999999997</ele><time>2026-04-04T12:18:59.342Z</time></trkpt><trkpt lat="45.6220979" lon="9.4180826"><ele>213.99999999999997</ele><time>2026-04-04T12:19:01.342Z</time></trkpt><trkpt lat="45.6220348" lon="9.4180636"><ele>214.0</ele><time>2026-04-04T12:19:02.34Z</time></trkpt><trkpt lat="45.6218852" lon="9.4180931"><ele>214.0</ele><time>2026-04-04T12:19:04.344Z</time></trkpt><trkpt lat="45.6217935" lon="9.4180543"><ele>213.79999999999998</ele><time>2026-04-04T12:19:05.344Z</time></trkpt><trkpt lat="45.6216769" lon="9.4180665"><ele>213.59999999999997</ele><time>2026-04-04T12:19:07.345Z</time></trkpt><trkpt lat="45.6216063" lon="9.4180854"><ele>213.4</ele><time>2026-04-04T12:19:08.344Z</time></trkpt><trkpt lat="45.621491" lon="9.4181233"><ele>213.2</ele><time>2026-04-04T12:19:10.342Z</time></trkpt><trkpt lat="45.6214134" lon="9.4181618"><ele>213.0</ele><time>2026-04-04T12:19:11.342Z</time></trkpt><trkpt lat="45.6213184" lon="9.4181986"><ele>213.0</ele><time>2026-04-04T12:19:12.342Z</time></trkpt><trkpt lat="45.621243" lon="9.4182547"><ele>213.0</ele><time>2026-04-04T12:19:13.341Z</time></trkpt><trkpt lat="45.6211192" lon="9.4182719"><ele>213.0</ele><time>2026-04-04T12:19:15.344Z</time></trkpt><trkpt lat="45.6210471" lon="9.4182931"><ele>213.0</ele><time>2026-04-04T12:19:16.346Z</time></trkpt><trkpt lat="45.6209666" lon="9.418319"><ele>213.0</ele><time>2026-04-04T12:19:17.348Z</time></trkpt><trkpt lat="45.6208932" lon="9.4183334"><ele>213.0</ele><time>2026-04-04T12:19:18.346Z</time></trkpt><trkpt lat="45.6208216" lon="9.4183561"><ele>212.83333333333334</ele><time>2026-04-04T12:19:19.344Z</time></trkpt><trkpt lat="45.620754" lon="9.418381"><ele>212.66666666666669</ele><time>2026-04-04T12:19:20.346Z</time></trkpt><trkpt lat="45.6207005" lon="9.4184307"><ele>212.5</ele><time>2026-04-04T12:19:21.346Z</time></trkpt><trkpt lat="45.6206478" lon="9.4184976"><ele>212.33333333333334</ele><time>2026-04-04T12:19:22.346Z</time></trkpt><trkpt lat="45.6206554" lon="9.4186593"><ele>212.16666666666669</ele><time>2026-04-04T12:19:24.345Z</time></trkpt><trkpt lat="45.6206671" lon="9.4188282"><ele>212.0</ele><time>2026-04-04T12:19:26.346Z</time></trkpt><trkpt lat="45.6206628" lon="9.4189932"><ele>211.6</ele><time>2026-04-04T12:19:28.345Z</time></trkpt><trkpt lat="45.6206689" lon="9.4191517"><ele>211.2</ele><time>2026-04-04T12:19:30.343Z</time></trkpt><trkpt lat="45.6206812" lon="9.4192964"><ele>210.8</ele><time>2026-04-04T12:19:32.344Z</time></trkpt><trkpt lat="45.6206978" lon="9.419449"><ele>210.4</ele><time>2026-04-04T12:19:34.344Z</time></trkpt><trkpt lat="45.6207145" lon="9.4195972"><ele>210.0</ele><time>2026-04-04T12:19:36.342Z</time></trkpt><trkpt lat="45.6206835" lon="9.4197037"><ele>210.0</ele><time>2026-04-04T12:19:38.344Z</time></trkpt><trkpt lat="45.6206002" lon="9.4197293"><ele>210.0</ele><time>2026-04-04T12:19:40.344Z</time></trkpt><trkpt lat="45.6204898" lon="9.4197293"><ele>210.0</ele><time>2026-04-04T12:19:42.356Z</time></trkpt><trkpt lat="45.6204188" lon="9.4197342"><ele>210.0</ele><time>2026-04-04T12:19:43.348Z</time></trkpt><trkpt lat="45.6203398" lon="9.4197274"><ele>210.0</ele><time>2026-04-04T12:19:44.345Z</time></trkpt><trkpt lat="45.6202736" lon="9.4197288"><ele>210.0</ele><time>2026-04-04T12:19:45.348Z</time></trkpt><trkpt lat="45.6201489" lon="9.4197487"><ele>209.66666666666666</ele><time>2026-04-04T12:19:47.347Z</time></trkpt><trkpt lat="45.6200746" lon="9.4197379"><ele>209.33333333333331</ele><time>2026-04-04T12:19:48.343Z</time></trkpt><trkpt lat="45.6200019" lon="9.4197496"><ele>209.0</ele><time>2026-04-04T12:19:49.344Z</time></trkpt><trkpt lat="45.619937" lon="9.4197612"><ele>208.66666666666666</ele><time>2026-04-04T12:19:50.341Z</time></trkpt><trkpt lat="45.61987" lon="9.4197644"><ele>208.33333333333331</ele><time>2026-04-04T12:19:51.347Z</time></trkpt><trkpt lat="45.6197544" lon="9.4197928"><ele>208.0</ele><time>2026-04-04T12:19:53.347Z</time></trkpt><trkpt lat="45.6196894" lon="9.4199133"><ele>208.0</ele><time>2026-04-04T12:19:55.349Z</time></trkpt><trkpt lat="45.6196814" lon="9.420057"><ele>208.0</ele><time>2026-04-04T12:19:57.342Z</time></trkpt><trkpt lat="45.6196726" lon="9.4202131"><ele>208.0</ele><time>2026-04-04T12:19:59.347Z</time></trkpt><trkpt lat="45.6196661" lon="9.4203596"><ele>208.0</ele><time>2026-04-04T12:20:01.345Z</time></trkpt><trkpt lat="45.6196612" lon="9.4205068"><ele>208.0</ele><time>2026-04-04T12:20:03.345Z</time></trkpt><trkpt lat="45.6196572" lon="9.4206689"><ele>208.2</ele><time>2026-04-04T12:20:05.344Z</time></trkpt><trkpt lat="45.6196498" lon="9.4207621"><ele>208.4</ele><time>2026-04-04T12:20:06.346Z</time></trkpt><trkpt lat="45.6196474" lon="9.4209262"><ele>208.6</ele><time>2026-04-04T12:20:08.345Z</time></trkpt><trkpt lat="45.6196286" lon="9.4210997"><ele>208.79999999999998</ele><time>2026-04-04T12:20:10.346Z</time></trkpt><trkpt lat="45.6196262" lon="9.4212886"><ele>209.0</ele><time>2026-04-04T12:20:12.344Z</time></trkpt><trkpt lat="45.6196171" lon="9.4213804"><ele>209.2</ele><time>2026-04-04T12:20:13.346Z</time></trkpt><trkpt lat="45.6196104" lon="9.4215469"><ele>209.39999999999998</ele><time>2026-04-04T12:20:15.346Z</time></trkpt><trkpt lat="45.6196024" lon="9.4217239"><ele>209.6</ele><time>2026-04-04T12:20:17.346Z</time></trkpt><trkpt lat="45.6195997" lon="9.4218154"><ele>209.8</ele><time>2026-04-04T12:20:18.343Z</time></trkpt><trkpt lat="45.6195941" lon="9.4219322"><ele>210.0</ele><time>2026-04-04T12:20:19.348Z</time></trkpt><trkpt lat="45.6195689" lon="9.4220476"><ele>210.0</ele><time>2026-04-04T12:20:20.347Z</time></trkpt><trkpt lat="45.6195785" lon="9.4221743"><ele>210.0</ele><time>2026-04-04T12:20:22.346Z</time></trkpt><trkpt lat="45.6195747" lon="9.4223301"><ele>210.0</ele><time>2026-04-04T12:20:24.346Z</time></trkpt><trkpt lat="45.6195734" lon="9.4225233"><ele>210.0</ele><time>2026-04-04T12:20:26.347Z</time></trkpt><trkpt lat="45.6195606" lon="9.4227112"><ele>210.0</ele><time>2026-04-04T12:20:28.345Z</time></trkpt><trkpt lat="45.6195568" lon="9.4228676"><ele>210.0</ele><time>2026-04-04T12:20:30.343Z</time></trkpt><trkpt lat="45.6195424" lon="9.4230017"><ele>210.0</ele><time>2026-04-04T12:20:32.346Z</time></trkpt><trkpt lat="45.6194915" lon="9.423104"><ele>210.0</ele><time>2026-04-04T12:20:35.34Z</time></trkpt><trkpt lat="45.6194446" lon="9.4231833"><ele>210.0</ele><time>2026-04-04T12:20:37.349Z</time></trkpt><trkpt lat="45.6194192" lon="9.4232701"><ele>210.0</ele><time>2026-04-04T12:20:49.344Z</time></trkpt><trkpt lat="45.6194548" lon="9.4233557"><ele>210.0</ele><time>2026-04-04T12:20:51.343Z</time></trkpt><trkpt lat="45.6194892" lon="9.4234576"><ele>210.0</ele><time>2026-04-04T12:20:53.347Z</time></trkpt><trkpt lat="45.619535" lon="9.4235721"><ele>210.0</ele><time>2026-04-04T12:20:55.353Z</time></trkpt><trkpt lat="45.6195381" lon="9.4237194"><ele>210.0</ele><time>2026-04-04T12:20:57.348Z</time></trkpt><trkpt lat="45.6195382" lon="9.4238661"><ele>210.0</ele><time>2026-04-04T12:20:59.344Z</time></trkpt><trkpt lat="45.6195333" lon="9.424037"><ele>209.8</ele><time>2026-04-04T12:21:01.347Z</time></trkpt><trkpt lat="45.6195091" lon="9.4242047"><ele>209.6</ele><time>2026-04-04T12:21:03.345Z</time></trkpt><trkpt lat="45.6194956" lon="9.4243445"><ele>209.39999999999998</ele><time>2026-04-04T12:21:05.344Z</time></trkpt><trkpt lat="45.6195049" lon="9.4245284"><ele>209.2</ele><time>2026-04-04T12:21:07.349Z</time></trkpt><trkpt lat="45.6195005" lon="9.4246182"><ele>209.0</ele><time>2026-04-04T12:21:08.343Z</time></trkpt><trkpt lat="45.6194904" lon="9.4247754"><ele>209.0</ele><time>2026-04-04T12:21:10.345Z</time></trkpt><trkpt lat="45.6194778" lon="9.4248662"><ele>209.0</ele><time>2026-04-04T12:21:11.347Z</time></trkpt><trkpt lat="45.6194829" lon="9.4250265"><ele>209.0</ele><time>2026-04-04T12:21:13.342Z</time></trkpt><trkpt lat="45.6194738" lon="9.4251969"><ele>209.0</ele><time>2026-04-04T12:21:15.347Z</time></trkpt><trkpt lat="45.6194734" lon="9.4253577"><ele>209.0</ele><time>2026-04-04T12:21:17.347Z</time></trkpt><trkpt lat="45.6194655" lon="9.4254476"><ele>209.0</ele><time>2026-04-04T12:21:18.345Z</time></trkpt><trkpt lat="45.6194561" lon="9.4256083"><ele>209.0</ele><time>2026-04-04T12:21:20.345Z</time></trkpt><trkpt lat="45.619442" lon="9.4257831"><ele>209.0</ele><time>2026-04-04T12:21:22.348Z</time></trkpt><trkpt lat="45.6194257" lon="9.4259492"><ele>209.0</ele><time>2026-04-04T12:21:24.342Z</time></trkpt><trkpt lat="45.6194254" lon="9.4260451"><ele>209.0</ele><time>2026-04-04T12:21:25.349Z</time></trkpt><trkpt lat="45.6194228" lon="9.4261398"><ele>209.0</ele><time>2026-04-04T12:21:26.345Z</time></trkpt><trkpt lat="45.6194297" lon="9.4263079"><ele>209.0</ele><time>2026-04-04T12:21:28.345Z</time></trkpt><trkpt lat="45.6194487" lon="9.4264642"><ele>209.0</ele><time>2026-04-04T12:21:30.348Z</time></trkpt><trkpt lat="45.6194536" lon="9.4266421"><ele>209.0</ele><time>2026-04-04T12:21:32.346Z</time></trkpt><trkpt lat="45.6194459" lon="9.4267373"><ele>209.0</ele><time>2026-04-04T12:21:33.346Z</time></trkpt><trkpt lat="45.6194548" lon="9.4269116"><ele>209.0</ele><time>2026-04-04T12:21:35.347Z</time></trkpt><trkpt lat="45.6194772" lon="9.4270701"><ele>209.0</ele><time>2026-04-04T12:21:37.349Z</time></trkpt><trkpt lat="45.6194705" lon="9.4272287"><ele>209.0</ele><time>2026-04-04T12:21:39.348Z</time></trkpt><trkpt lat="45.6194452" lon="9.4273785"><ele>209.0</ele><time>2026-04-04T12:21:41.35Z</time></trkpt><trkpt lat="45.6194706" lon="9.4275019"><ele>209.0</ele><time>2026-04-04T12:21:43.349Z</time></trkpt><trkpt lat="45.6195258" lon="9.4275847"><ele>208.79999999999998</ele><time>2026-04-04T12:21:45.345Z</time></trkpt><trkpt lat="45.6195836" lon="9.4276944"><ele>208.6</ele><time>2026-04-04T12:21:47.347Z</time></trkpt><trkpt lat="45.6196402" lon="9.4278022"><ele>208.4</ele><time>2026-04-04T12:21:49.347Z</time></trkpt><trkpt lat="45.6196992" lon="9.4279048"><ele>208.2</ele><time>2026-04-04T12:21:51.348Z</time></trkpt><trkpt lat="45.6197688" lon="9.4280207"><ele>208.0</ele><time>2026-04-04T12:21:53.35Z</time></trkpt><trkpt lat="45.6198371" lon="9.4281512"><ele>208.0</ele><time>2026-04-04T12:21:55.35Z</time></trkpt><trkpt lat="45.6198631" lon="9.4282438"><ele>208.0</ele><time>2026-04-04T12:21:56.35Z</time></trkpt><trkpt lat="45.61991" lon="9.4283858"><ele>208.0</ele><time>2026-04-04T12:21:58.344Z</time></trkpt><trkpt lat="45.6199274" lon="9.4285709"><ele>208.0</ele><time>2026-04-04T12:22:00.343Z</time></trkpt><trkpt lat="45.6199074" lon="9.4287174"><ele>208.0</ele><time>2026-04-04T12:22:02.348Z</time></trkpt><trkpt lat="45.6198739" lon="9.428883"><ele>208.0</ele><time>2026-04-04T12:22:04.345Z</time></trkpt><trkpt lat="45.6198447" lon="9.4290462"><ele>208.0</ele><time>2026-04-04T12:22:06.348Z</time></trkpt><trkpt lat="45.6198141" lon="9.429216"><ele>208.0</ele><time>2026-04-04T12:22:08.358Z</time></trkpt><trkpt lat="45.6197748" lon="9.4293907"><ele>208.0</ele><time>2026-04-04T12:22:10.344Z</time></trkpt><trkpt lat="45.6197503" lon="9.42948"><ele>208.0</ele><time>2026-04-04T12:22:11.346Z</time></trkpt><trkpt lat="45.6197274" lon="9.4295693"><ele>208.0</ele><time>2026-04-04T12:22:12.342Z</time></trkpt><trkpt lat="45.6197091" lon="9.4296627"><ele>208.0</ele><time>2026-04-04T12:22:13.345Z</time></trkpt><trkpt lat="45.6196605" lon="9.4298209"><ele>208.0</ele><time>2026-04-04T12:22:15.343Z</time></trkpt><trkpt lat="45.6196177" lon="9.4299034"><ele>208.0</ele><time>2026-04-04T12:22:16.344Z</time></trkpt><trkpt lat="45.6195241" lon="9.4300394"><ele>208.0</ele><time>2026-04-04T12:22:18.346Z</time></trkpt><trkpt lat="45.619413" lon="9.4301356"><ele>208.0</ele><time>2026-04-04T12:22:20.338Z</time></trkpt><trkpt lat="45.61931" lon="9.4302243"><ele>208.0</ele><time>2026-04-04T12:22:22.347Z</time></trkpt><trkpt lat="45.6192507" lon="9.4302627"><ele>208.0</ele><time>2026-04-04T12:22:23.349Z</time></trkpt><trkpt lat="45.6191342" lon="9.4303339"><ele>208.0</ele><time>2026-04-04T12:22:25.343Z</time></trkpt><trkpt lat="45.6190186" lon="9.4303868"><ele>208.0</ele><time>2026-04-04T12:22:27.346Z</time></trkpt><trkpt lat="45.6189555" lon="9.4304091"><ele>207.99999999999997</ele><time>2026-04-04T12:22:28.345Z</time></trkpt><trkpt lat="45.6188883" lon="9.4304375"><ele>208.0</ele><time>2026-04-04T12:22:29.347Z</time></trkpt><trkpt lat="45.6187744" lon="9.4304863"><ele>208.0</ele><time>2026-04-04T12:22:31.343Z</time></trkpt><trkpt lat="45.6187047" lon="9.4305046"><ele>208.0</ele><time>2026-04-04T12:22:32.347Z</time></trkpt><trkpt lat="45.6186418" lon="9.4305316"><ele>207.99999999999997</ele><time>2026-04-04T12:22:33.339Z</time></trkpt><trkpt lat="45.6185726" lon="9.4305556"><ele>208.0</ele><time>2026-04-04T12:22:34.343Z</time></trkpt><trkpt lat="45.6185097" lon="9.4305773"><ele>208.0</ele><time>2026-04-04T12:22:35.344Z</time></trkpt><trkpt lat="45.6184437" lon="9.4305953"><ele>208.0</ele><time>2026-04-04T12:22:36.342Z</time></trkpt><trkpt lat="45.618383" lon="9.4306404"><ele>208.0</ele><time>2026-04-04T12:22:37.345Z</time></trkpt><trkpt lat="45.6183275" lon="9.4306857"><ele>208.0</ele><time>2026-04-04T12:22:38.344Z</time></trkpt><trkpt lat="45.618276" lon="9.4307485"><ele>208.0</ele><time>2026-04-04T12:22:39.344Z</time></trkpt><trkpt lat="45.6182333" lon="9.4308152"><ele>208.0</ele><time>2026-04-04T12:22:40.342Z</time></trkpt><trkpt lat="45.6181837" lon="9.4308869"><ele>208.0</ele><time>2026-04-04T12:22:41.343Z</time></trkpt><trkpt lat="45.6181436" lon="9.4309592"><ele>208.0</ele><time>2026-04-04T12:22:42.341Z</time></trkpt><trkpt lat="45.6181074" lon="9.4310341"><ele>208.0</ele><time>2026-04-04T12:22:43.346Z</time></trkpt><trkpt lat="45.6180453" lon="9.4311872"><ele>208.0</ele><time>2026-04-04T12:22:45.344Z</time></trkpt><trkpt lat="45.6179791" lon="9.431345"><ele>208.0</ele><time>2026-04-04T12:22:47.347Z</time></trkpt><trkpt lat="45.6179156" lon="9.4315051"><ele>208.0</ele><time>2026-04-04T12:22:49.348Z</time></trkpt><trkpt lat="45.6178863" lon="9.4315928"><ele>207.83333333333331</ele><time>2026-04-04T12:22:50.345Z</time></trkpt><trkpt lat="45.6178489" lon="9.4316845"><ele>207.66666666666666</ele><time>2026-04-04T12:22:51.344Z</time></trkpt><trkpt lat="45.6177911" lon="9.4318487"><ele>207.5</ele><time>2026-04-04T12:22:53.339Z</time></trkpt><trkpt lat="45.6177621" lon="9.4319331"><ele>207.33333333333331</ele><time>2026-04-04T12:22:54.347Z</time></trkpt><trkpt lat="45.617734" lon="9.4320239"><ele>207.16666666666666</ele><time>2026-04-04T12:22:55.349Z</time></trkpt><trkpt lat="45.6177068" lon="9.4321112"><ele>207.0</ele><time>2026-04-04T12:22:56.347Z</time></trkpt><trkpt lat="45.6176823" lon="9.4321943"><ele>206.8</ele><time>2026-04-04T12:22:57.346Z</time></trkpt><trkpt lat="45.6176223" lon="9.4323587"><ele>206.6</ele><time>2026-04-04T12:22:59.345Z</time></trkpt><trkpt lat="45.6175907" lon="9.432445"><ele>206.4</ele><time>2026-04-04T12:23:00.345Z</time></trkpt><trkpt lat="45.617553" lon="9.4325275"><ele>206.20000000000002</ele><time>2026-04-04T12:23:01.346Z</time></trkpt><trkpt lat="45.6174781" lon="9.4326711"><ele>206.0</ele><time>2026-04-04T12:23:03.346Z</time></trkpt><trkpt lat="45.6174361" lon="9.4327438"><ele>205.99999999999997</ele><time>2026-04-04T12:23:04.346Z</time></trkpt><trkpt lat="45.6173894" lon="9.4328185"><ele>206.0</ele><time>2026-04-04T12:23:05.348Z</time></trkpt><trkpt lat="45.6173422" lon="9.4328952"><ele>206.0</ele><time>2026-04-04T12:23:06.341Z</time></trkpt><trkpt lat="45.6173027" lon="9.4329659"><ele>206.0</ele><time>2026-04-04T12:23:07.346Z</time></trkpt><trkpt lat="45.6172552" lon="9.4330376"><ele>206.0</ele><time>2026-04-04T12:23:08.344Z</time></trkpt><trkpt lat="45.6172056" lon="9.4331258"><ele>205.99999999999997</ele><time>2026-04-04T12:23:09.347Z</time></trkpt><trkpt lat="45.6171652" lon="9.4332075"><ele>206.0</ele><time>2026-04-04T12:23:10.348Z</time></trkpt><trkpt lat="45.6171219" lon="9.4332796"><ele>205.99999999999997</ele><time>2026-04-04T12:23:11.347Z</time></trkpt><trkpt lat="45.6170786" lon="9.4333674"><ele>206.0</ele><time>2026-04-04T12:23:12.344Z</time></trkpt><trkpt lat="45.6170346" lon="9.4334368"><ele>206.0</ele><time>2026-04-04T12:23:13.347Z</time></trkpt><trkpt lat="45.6169874" lon="9.4335146"><ele>206.0</ele><time>2026-04-04T12:23:14.347Z</time></trkpt><trkpt lat="45.6169422" lon="9.4335833"><ele>206.0</ele><time>2026-04-04T12:23:15.348Z</time></trkpt><trkpt lat="45.6168973" lon="9.4336552"><ele>205.99999999999997</ele><time>2026-04-04T12:23:16.344Z</time></trkpt><trkpt lat="45.6168485" lon="9.4337272"><ele>206.0</ele><time>2026-04-04T12:23:17.345Z</time></trkpt><trkpt lat="45.6168034" lon="9.4337973"><ele>206.0</ele><time>2026-04-04T12:23:18.345Z</time></trkpt><trkpt lat="45.6167199" lon="9.4338845"><ele>206.0</ele><time>2026-04-04T12:23:20.345Z</time></trkpt><trkpt lat="45.6166029" lon="9.4339107"><ele>206.0</ele><time>2026-04-04T12:23:22.346Z</time></trkpt><trkpt lat="45.6165032" lon="9.4338411"><ele>206.0</ele><time>2026-04-04T12:23:24.347Z</time></trkpt><trkpt lat="45.6164613" lon="9.4337687"><ele>206.0</ele><time>2026-04-04T12:23:25.344Z</time></trkpt><trkpt lat="45.6163912" lon="9.4336358"><ele>205.83333333333334</ele><time>2026-04-04T12:23:27.345Z</time></trkpt><trkpt lat="45.6163547" lon="9.4335538"><ele>205.66666666666669</ele><time>2026-04-04T12:23:28.344Z</time></trkpt><trkpt lat="45.616326" lon="9.4334615"><ele>205.5</ele><time>2026-04-04T12:23:29.347Z</time></trkpt><trkpt lat="45.6163052" lon="9.4333708"><ele>205.33333333333331</ele><time>2026-04-04T12:23:30.344Z</time></trkpt><trkpt lat="45.6162843" lon="9.4332779"><ele>205.16666666666666</ele><time>2026-04-04T12:23:31.346Z</time></trkpt><trkpt lat="45.6162742" lon="9.4330978"><ele>205.0</ele><time>2026-04-04T12:23:33.346Z</time></trkpt><trkpt lat="45.6162606" lon="9.4329236"><ele>205.0</ele><time>2026-04-04T12:23:35.348Z</time></trkpt><trkpt lat="45.6162499" lon="9.4328215"><ele>205.0</ele><time>2026-04-04T12:23:36.345Z</time></trkpt><trkpt lat="45.6162312" lon="9.4326541"><ele>205.0</ele><time>2026-04-04T12:23:38.344Z</time></trkpt><trkpt lat="45.6162113" lon="9.4324895"><ele>205.0</ele><time>2026-04-04T12:23:40.349Z</time></trkpt><trkpt lat="45.6161988" lon="9.4323351"><ele>205.0</ele><time>2026-04-04T12:23:42.344Z</time></trkpt><trkpt lat="45.6161928" lon="9.4321823"><ele>204.99999999999997</ele><time>2026-04-04T12:23:44.344Z</time></trkpt><trkpt lat="45.6161747" lon="9.4320477"><ele>205.0</ele><time>2026-04-04T12:23:46.344Z</time></trkpt><trkpt lat="45.6161133" lon="9.4320058"><ele>205.0</ele><time>2026-04-04T12:23:48.338Z</time></trkpt><trkpt lat="45.6160436" lon="9.432001"><ele>205.0</ele><time>2026-04-04T12:23:50.347Z</time></trkpt><trkpt lat="45.6160092" lon="9.4320773"><ele>204.99999999999997</ele><time>2026-04-04T12:23:52.342Z</time></trkpt><trkpt lat="45.6159831" lon="9.4321735"><ele>205.0</ele><time>2026-04-04T12:23:54.338Z</time></trkpt><trkpt lat="45.6159687" lon="9.4322903"><ele>204.8</ele><time>2026-04-04T12:23:56.349Z</time></trkpt><trkpt lat="45.6159569" lon="9.4324564"><ele>204.6</ele><time>2026-04-04T12:23:58.348Z</time></trkpt><trkpt lat="45.6159288" lon="9.4325967"><ele>204.39999999999998</ele><time>2026-04-04T12:24:00.345Z</time></trkpt><trkpt lat="45.6159044" lon="9.4327068"><ele>204.2</ele><time>2026-04-04T12:24:02.339Z</time></trkpt><trkpt lat="45.6158263" lon="9.4328292"><ele>204.0</ele><time>2026-04-04T12:24:07.308Z</time></trkpt><trkpt lat="45.6157134" lon="9.4329749"><ele>204.0</ele><time>2026-04-04T12:24:09.307Z</time></trkpt><trkpt lat="45.6157507" lon="9.4330525"><ele>204.0</ele><time>2026-04-04T12:24:10.313Z</time></trkpt><trkpt lat="45.6157144" lon="9.4331321"><ele>204.0</ele><time>2026-04-04T12:24:11.316Z</time></trkpt><trkpt lat="45.6156611" lon="9.4332368"><ele>204.0</ele><time>2026-04-04T12:24:12.32Z</time></trkpt><trkpt lat="45.6156431" lon="9.433358"><ele>204.0</ele><time>2026-04-04T12:24:14.32Z</time></trkpt><trkpt lat="45.6156203" lon="9.4334706"><ele>204.0</ele><time>2026-04-04T12:24:16.319Z</time></trkpt><trkpt lat="45.6155492" lon="9.4334695"><ele>204.0</ele><time>2026-04-04T12:24:18.319Z</time></trkpt><trkpt lat="45.6154649" lon="9.4334225"><ele>204.0</ele><time>2026-04-04T12:24:20.32Z</time></trkpt><trkpt lat="45.6153716" lon="9.4333675"><ele>204.0</ele><time>2026-04-04T12:24:22.32Z</time></trkpt><trkpt lat="45.6152661" lon="9.4333313"><ele>204.0</ele><time>2026-04-04T12:24:24.319Z</time></trkpt><trkpt lat="45.6151533" lon="9.4332823"><ele>204.0</ele><time>2026-04-04T12:24:26.32Z</time></trkpt><trkpt lat="45.6150408" lon="9.4332326"><ele>204.14285714285714</ele><time>2026-04-04T12:24:28.32Z</time></trkpt><trkpt lat="45.6149802" lon="9.4332058"><ele>204.28571428571428</ele><time>2026-04-04T12:24:29.32Z</time></trkpt><trkpt lat="45.6149197" lon="9.4331773"><ele>204.42857142857144</ele><time>2026-04-04T12:24:30.32Z</time></trkpt><trkpt lat="45.6148591" lon="9.4331498"><ele>204.57142857142856</ele><time>2026-04-04T12:24:31.32Z</time></trkpt><trkpt lat="45.6147985" lon="9.4331196"><ele>204.7142857142857</ele><time>2026-04-04T12:24:32.32Z</time></trkpt><trkpt lat="45.6147342" lon="9.4330894"><ele>204.85714285714286</ele><time>2026-04-04T12:24:33.32Z</time></trkpt><trkpt lat="45.614671" lon="9.43306"><ele>205.0</ele><time>2026-04-04T12:24:34.319Z</time></trkpt><trkpt lat="45.6146062" lon="9.4330278"><ele>205.0</ele><time>2026-04-04T12:24:35.32Z</time></trkpt><trkpt lat="45.6145396" lon="9.4329948"><ele>205.0</ele><time>2026-04-04T12:24:36.32Z</time></trkpt><trkpt lat="45.6144778" lon="9.4329666"><ele>205.0</ele><time>2026-04-04T12:24:37.32Z</time></trkpt><trkpt lat="45.6144161" lon="9.4329331"><ele>205.0</ele><time>2026-04-04T12:24:38.319Z</time></trkpt><trkpt lat="45.6143563" lon="9.432902"><ele>205.0</ele><time>2026-04-04T12:24:39.32Z</time></trkpt><trkpt lat="45.6142945" lon="9.432871"><ele>205.0</ele><time>2026-04-04T12:24:40.319Z</time></trkpt><trkpt lat="45.6142327" lon="9.4328394"><ele>205.0</ele><time>2026-04-04T12:24:41.319Z</time></trkpt><trkpt lat="45.6141149" lon="9.4327944"><ele>204.5</ele><time>2026-04-04T12:24:43.319Z</time></trkpt><trkpt lat="45.6140038" lon="9.4327781"><ele>204.0</ele><time>2026-04-04T12:24:45.319Z</time></trkpt><trkpt lat="45.6139104" lon="9.432839"><ele>203.5</ele><time>2026-04-04T12:24:47.319Z</time></trkpt><trkpt lat="45.6138001" lon="9.4328815"><ele>203.0</ele><time>2026-04-04T12:24:49.319Z</time></trkpt><trkpt lat="45.6136751" lon="9.432846"><ele>203.0</ele><time>2026-04-04T12:24:51.32Z</time></trkpt><trkpt lat="45.6136127" lon="9.4328135"><ele>203.0</ele><time>2026-04-04T12:24:52.32Z</time></trkpt><trkpt lat="45.6135507" lon="9.4327802"><ele>203.0</ele><time>2026-04-04T12:24:53.32Z</time></trkpt><trkpt lat="45.6134894" lon="9.4327495"><ele>203.0</ele><time>2026-04-04T12:24:54.32Z</time></trkpt><trkpt lat="45.6134258" lon="9.4327045"><ele>203.0</ele><time>2026-04-04T12:24:55.32Z</time></trkpt><trkpt lat="45.6133647" lon="9.4326708"><ele>203.0</ele><time>2026-04-04T12:24:56.32Z</time></trkpt><trkpt lat="45.613303" lon="9.4326409"><ele>203.0</ele><time>2026-04-04T12:24:57.32Z</time></trkpt><trkpt lat="45.6132382" lon="9.4325976"><ele>203.0</ele><time>2026-04-04T12:24:58.32Z</time></trkpt><trkpt lat="45.6131231" lon="9.432535"><ele>203.0</ele><time>2026-04-04T12:25:00.319Z</time></trkpt><trkpt lat="45.613062" lon="9.4325037"><ele>203.0</ele><time>2026-04-04T12:25:01.32Z</time></trkpt><trkpt lat="45.6129988" lon="9.4324881"><ele>203.0</ele><time>2026-04-04T12:25:02.32Z</time></trkpt><trkpt lat="45.6128831" lon="9.432448"><ele>203.0</ele><time>2026-04-04T12:25:04.32Z</time></trkpt><trkpt lat="45.6127954" lon="9.4323358"><ele>203.0</ele><time>2026-04-04T12:25:06.32Z</time></trkpt><trkpt lat="45.6128006" lon="9.4321849"><ele>203.0</ele><time>2026-04-04T12:25:08.319Z</time></trkpt><trkpt lat="45.6128183" lon="9.4320185"><ele>203.0</ele><time>2026-04-04T12:25:10.32Z</time></trkpt><trkpt lat="45.6128437" lon="9.4318388"><ele>203.0</ele><time>2026-04-04T12:25:12.319Z</time></trkpt><trkpt lat="45.6128566" lon="9.4317505"><ele>203.0</ele><time>2026-04-04T12:25:13.32Z</time></trkpt><trkpt lat="45.6128621" lon="9.4316586"><ele>203.0</ele><time>2026-04-04T12:25:14.32Z</time></trkpt><trkpt lat="45.6128733" lon="9.4315677"><ele>203.0</ele><time>2026-04-04T12:25:15.32Z</time></trkpt><trkpt lat="45.6128822" lon="9.4314716"><ele>203.0</ele><time>2026-04-04T12:25:16.319Z</time></trkpt><trkpt lat="45.6128934" lon="9.4313786"><ele>203.0</ele><time>2026-04-04T12:25:17.32Z</time></trkpt><trkpt lat="45.6129041" lon="9.431282"><ele>203.0</ele><time>2026-04-04T12:25:18.32Z</time></trkpt><trkpt lat="45.6129124" lon="9.4311872"><ele>203.0</ele><time>2026-04-04T12:25:19.32Z</time></trkpt><trkpt lat="45.6129228" lon="9.4310922"><ele>203.0</ele><time>2026-04-04T12:25:20.319Z</time></trkpt><trkpt lat="45.6129386" lon="9.4309908"><ele>203.00000000000003</ele><time>2026-04-04T12:25:21.32Z</time></trkpt><trkpt lat="45.6129495" lon="9.4308955"><ele>203.0</ele><time>2026-04-04T12:25:22.32Z</time></trkpt><trkpt lat="45.612961" lon="9.4308034"><ele>203.0</ele><time>2026-04-04T12:25:23.319Z</time></trkpt><trkpt lat="45.6129828" lon="9.4306238"><ele>203.0</ele><time>2026-04-04T12:25:25.319Z</time></trkpt><trkpt lat="45.6129842" lon="9.4305283"><ele>203.00000000000003</ele><time>2026-04-04T12:25:26.32Z</time></trkpt><trkpt lat="45.6129941" lon="9.4304356"><ele>203.0</ele><time>2026-04-04T12:25:27.32Z</time></trkpt><trkpt lat="45.6129952" lon="9.4303366"><ele>202.83333333333334</ele><time>2026-04-04T12:25:28.32Z</time></trkpt><trkpt lat="45.6130036" lon="9.4302335"><ele>202.66666666666669</ele><time>2026-04-04T12:25:29.319Z</time></trkpt><trkpt lat="45.6130051" lon="9.4300564"><ele>202.5</ele><time>2026-04-04T12:25:31.319Z</time></trkpt><trkpt lat="45.6130085" lon="9.4299639"><ele>202.33333333333331</ele><time>2026-04-04T12:25:32.32Z</time></trkpt><trkpt lat="45.6130032" lon="9.4298736"><ele>202.16666666666666</ele><time>2026-04-04T12:25:33.32Z</time></trkpt><trkpt lat="45.6129871" lon="9.4297756"><ele>202.0</ele><time>2026-04-04T12:25:34.32Z</time></trkpt><trkpt lat="45.6129593" lon="9.4296852"><ele>201.99999999999997</ele><time>2026-04-04T12:25:35.32Z</time></trkpt><trkpt lat="45.6129221" lon="9.4296035"><ele>202.0</ele><time>2026-04-04T12:25:36.32Z</time></trkpt><trkpt lat="45.6128815" lon="9.4295273"><ele>202.0</ele><time>2026-04-04T12:25:37.32Z</time></trkpt><trkpt lat="45.6128375" lon="9.4294532"><ele>202.0</ele><time>2026-04-04T12:25:38.32Z</time></trkpt><trkpt lat="45.6127966" lon="9.4293803"><ele>201.99999999999997</ele><time>2026-04-04T12:25:39.32Z</time></trkpt><trkpt lat="45.6127716" lon="9.4292928"><ele>202.0</ele><time>2026-04-04T12:25:40.32Z</time></trkpt><trkpt lat="45.612766" lon="9.4291128"><ele>202.0</ele><time>2026-04-04T12:25:42.32Z</time></trkpt><trkpt lat="45.612781" lon="9.4290219"><ele>202.0</ele><time>2026-04-04T12:25:43.319Z</time></trkpt><trkpt lat="45.6127957" lon="9.4289329"><ele>202.0</ele><time>2026-04-04T12:25:44.32Z</time></trkpt><trkpt lat="45.6128135" lon="9.4288324"><ele>202.0</ele><time>2026-04-04T12:25:45.319Z</time></trkpt><trkpt lat="45.6128302" lon="9.4287398"><ele>202.0</ele><time>2026-04-04T12:25:46.32Z</time></trkpt><trkpt lat="45.6128529" lon="9.4286389"><ele>202.0</ele><time>2026-04-04T12:25:47.319Z</time></trkpt><trkpt lat="45.6128699" lon="9.4285436"><ele>202.0</ele><time>2026-04-04T12:25:48.32Z</time></trkpt><trkpt lat="45.6128876" lon="9.4284482"><ele>202.0</ele><time>2026-04-04T12:25:49.32Z</time></trkpt><trkpt lat="45.6129022" lon="9.4283502"><ele>202.0</ele><time>2026-04-04T12:25:50.319Z</time></trkpt><trkpt lat="45.6129223" lon="9.428248"><ele>202.0</ele><time>2026-04-04T12:25:51.32Z</time></trkpt><trkpt lat="45.612942" lon="9.4281427"><ele>202.0</ele><time>2026-04-04T12:25:52.319Z</time></trkpt><trkpt lat="45.6129588" lon="9.4280398"><ele>202.0</ele><time>2026-04-04T12:25:53.32Z</time></trkpt><trkpt lat="45.6129806" lon="9.4279468"><ele>202.0</ele><time>2026-04-04T12:25:54.32Z</time></trkpt><trkpt lat="45.6129986" lon="9.427841"><ele>202.0</ele><time>2026-04-04T12:25:55.32Z</time></trkpt><trkpt lat="45.6130149" lon="9.4277456"><ele>202.0</ele><time>2026-04-04T12:25:56.32Z</time></trkpt><trkpt lat="45.6130314" lon="9.4276493"><ele>202.0</ele><time>2026-04-04T12:25:57.319Z</time></trkpt><trkpt lat="45.6130511" lon="9.427556"><ele>202.0</ele><time>2026-04-04T12:25:58.32Z</time></trkpt><trkpt lat="45.613073" lon="9.4274594"><ele>202.0</ele><time>2026-04-04T12:25:59.32Z</time></trkpt><trkpt lat="45.6130878" lon="9.4273636"><ele>202.0</ele><time>2026-04-04T12:26:00.32Z</time></trkpt><trkpt lat="45.613104" lon="9.4272688"><ele>202.0</ele><time>2026-04-04T12:26:01.32Z</time></trkpt><trkpt lat="45.6131182" lon="9.4271784"><ele>202.0</ele><time>2026-04-04T12:26:02.32Z</time></trkpt><trkpt lat="45.6131307" lon="9.4270807"><ele>202.0</ele><time>2026-04-04T12:26:03.32Z</time></trkpt><trkpt lat="45.6131438" lon="9.4269856"><ele>202.0</ele><time>2026-04-04T12:26:04.319Z</time></trkpt><trkpt lat="45.6131399" lon="9.4268138"><ele>202.0</ele><time>2026-04-04T12:26:06.32Z</time></trkpt><trkpt lat="45.6130813" lon="9.4266732"><ele>202.0</ele><time>2026-04-04T12:26:08.32Z</time></trkpt><trkpt lat="45.6129738" lon="9.4266112"><ele>202.0</ele><time>2026-04-04T12:26:10.32Z</time></trkpt><trkpt lat="45.6128531" lon="9.4265832"><ele>201.99999999999997</ele><time>2026-04-04T12:26:12.319Z</time></trkpt><trkpt lat="45.6127892" lon="9.4265652"><ele>202.0</ele><time>2026-04-04T12:26:13.32Z</time></trkpt><trkpt lat="45.6127245" lon="9.4265449"><ele>202.0</ele><time>2026-04-04T12:26:14.32Z</time></trkpt><trkpt lat="45.6126025" lon="9.4264969"><ele>202.0</ele><time>2026-04-04T12:26:16.319Z</time></trkpt><trkpt lat="45.6125486" lon="9.4264454"><ele>201.99999999999997</ele><time>2026-04-04T12:26:17.32Z</time></trkpt><trkpt lat="45.6124492" lon="9.4263493"><ele>202.0</ele><time>2026-04-04T12:26:19.32Z</time></trkpt><trkpt lat="45.6123362" lon="9.4262782"><ele>201.2</ele><time>2026-04-04T12:26:21.32Z</time></trkpt><trkpt lat="45.6122752" lon="9.4262529"><ele>200.39999999999998</ele><time>2026-04-04T12:26:22.319Z</time></trkpt><trkpt lat="45.6121663" lon="9.4261939"><ele>199.60000000000002</ele><time>2026-04-04T12:26:24.32Z</time></trkpt><trkpt lat="45.6120544" lon="9.4261025"><ele>198.8</ele><time>2026-04-04T12:26:26.319Z</time></trkpt><trkpt lat="45.6119914" lon="9.4260654"><ele>198.0</ele><time>2026-04-04T12:26:27.32Z</time></trkpt><trkpt lat="45.6119212" lon="9.4260387"><ele>198.0</ele><time>2026-04-04T12:26:28.319Z</time></trkpt><trkpt lat="45.6118557" lon="9.4260271"><ele>198.0</ele><time>2026-04-04T12:26:29.32Z</time></trkpt><trkpt lat="45.6117903" lon="9.4260192"><ele>198.0</ele><time>2026-04-04T12:26:30.32Z</time></trkpt><trkpt lat="45.6117223" lon="9.4260057"><ele>198.0</ele><time>2026-04-04T12:26:31.319Z</time></trkpt><trkpt lat="45.6116555" lon="9.4259954"><ele>198.0</ele><time>2026-04-04T12:26:32.319Z</time></trkpt><trkpt lat="45.6115864" lon="9.4259971"><ele>198.0</ele><time>2026-04-04T12:26:33.32Z</time></trkpt><trkpt lat="45.6115213" lon="9.4259945"><ele>198.0</ele><time>2026-04-04T12:26:34.32Z</time></trkpt><trkpt lat="45.6114527" lon="9.4259844"><ele>198.0</ele><time>2026-04-04T12:26:35.32Z</time></trkpt><trkpt lat="45.6113381" lon="9.4259667"><ele>198.0</ele><time>2026-04-04T12:26:37.32Z</time></trkpt><trkpt lat="45.6112279" lon="9.4259371"><ele>198.0</ele><time>2026-04-04T12:26:39.32Z</time></trkpt><trkpt lat="45.6111148" lon="9.4258939"><ele>198.0</ele><time>2026-04-04T12:26:41.32Z</time></trkpt><trkpt lat="45.6110101" lon="9.4258498"><ele>197.85714285714286</ele><time>2026-04-04T12:26:43.32Z</time></trkpt><trkpt lat="45.6109517" lon="9.4258019"><ele>197.7142857142857</ele><time>2026-04-04T12:26:45.32Z</time></trkpt><trkpt lat="45.6108873" lon="9.4257766"><ele>197.57142857142856</ele><time>2026-04-04T12:26:50.32Z</time></trkpt><trkpt lat="45.6108469" lon="9.4256976"><ele>197.42857142857144</ele><time>2026-04-04T12:26:52.32Z</time></trkpt><trkpt lat="45.6108123" lon="9.4256039"><ele>197.28571428571428</ele><time>2026-04-04T12:26:54.32Z</time></trkpt><trkpt lat="45.610777" lon="9.4255184"><ele>197.14285714285714</ele><time>2026-04-04T12:26:56.32Z</time></trkpt><trkpt lat="45.6107134" lon="9.4254714"><ele>197.0</ele><time>2026-04-04T12:26:58.32Z</time></trkpt><trkpt lat="45.6106132" lon="9.4254577"><ele>197.0</ele><time>2026-04-04T12:27:01.32Z</time></trkpt><trkpt lat="45.610503" lon="9.4254445"><ele>197.0</ele><time>2026-04-04T12:27:03.32Z</time></trkpt><trkpt lat="45.6103968" lon="9.4254131"><ele>197.0</ele><time>2026-04-04T12:27:05.319Z</time></trkpt><trkpt lat="45.6103123" lon="9.425383"><ele>197.0</ele><time>2026-04-04T12:27:07.319Z</time></trkpt><trkpt lat="45.6102093" lon="9.4253311"><ele>197.0</ele><time>2026-04-04T12:27:09.32Z</time></trkpt><trkpt lat="45.610108" lon="9.4252901"><ele>197.0</ele><time>2026-04-04T12:27:11.32Z</time></trkpt><trkpt lat="45.6099968" lon="9.4252361"><ele>197.0</ele><time>2026-04-04T12:27:13.319Z</time></trkpt><trkpt lat="45.6098981" lon="9.4251981"><ele>197.0</ele><time>2026-04-04T12:27:15.32Z</time></trkpt><trkpt lat="45.6098009" lon="9.4251695"><ele>197.0</ele><time>2026-04-04T12:27:17.32Z</time></trkpt><trkpt lat="45.6097074" lon="9.4252051"><ele>197.0</ele><time>2026-04-04T12:27:19.32Z</time></trkpt><trkpt lat="45.6096602" lon="9.4252938"><ele>197.0</ele><time>2026-04-04T12:27:21.32Z</time></trkpt><trkpt lat="45.6095948" lon="9.4253896"><ele>197.0</ele><time>2026-04-04T12:27:23.32Z</time></trkpt><trkpt lat="45.6095634" lon="9.4255211"><ele>197.0</ele><time>2026-04-04T12:27:25.32Z</time></trkpt><trkpt lat="45.6095353" lon="9.4256547"><ele>197.0</ele><time>2026-04-04T12:27:27.32Z</time></trkpt><trkpt lat="45.6095256" lon="9.4257802"><ele>197.0</ele><time>2026-04-04T12:27:29.32Z</time></trkpt><trkpt lat="45.6095409" lon="9.4258988"><ele>197.83333333333334</ele><time>2026-04-04T12:27:31.319Z</time></trkpt><trkpt lat="45.6095922" lon="9.4259548"><ele>198.66666666666669</ele><time>2026-04-04T12:27:33.32Z</time></trkpt><trkpt lat="45.6096659" lon="9.4259768"><ele>199.5</ele><time>2026-04-04T12:27:36.32Z</time></trkpt><trkpt lat="45.6096395" lon="9.4261"><ele>200.33333333333331</ele><time>2026-04-04T12:28:18.32Z</time></trkpt><trkpt lat="45.6096476" lon="9.4262245"><ele>201.16666666666666</ele><time>2026-04-04T12:28:20.32Z</time></trkpt><trkpt lat="45.6096499" lon="9.4263486"><ele>202.0</ele><time>2026-04-04T12:28:22.32Z</time></trkpt><trkpt lat="45.6096507" lon="9.4264842"><ele>201.99999999999997</ele><time>2026-04-04T12:28:24.32Z</time></trkpt><trkpt lat="45.6096456" lon="9.4266141"><ele>202.0</ele><time>2026-04-04T12:28:26.32Z</time></trkpt><trkpt lat="45.6096475" lon="9.4267378"><ele>202.0</ele><time>2026-04-04T12:28:28.32Z</time></trkpt><trkpt lat="45.609638" lon="9.4268492"><ele>202.0</ele><time>2026-04-04T12:28:30.319Z</time></trkpt><trkpt lat="45.6096215" lon="9.4269604"><ele>201.99999999999997</ele><time>2026-04-04T12:28:32.32Z</time></trkpt><trkpt lat="45.6096365" lon="9.4270689"><ele>202.0</ele><time>2026-04-04T12:28:34.32Z</time></trkpt><trkpt lat="45.6096996" lon="9.4271254"><ele>202.0</ele><time>2026-04-04T12:28:37.319Z</time></trkpt><trkpt lat="45.6099233" lon="9.4272522"><ele>200.0</ele><time>2026-04-04T12:31:43.792Z</time></trkpt><trkpt lat="45.6099938" lon="9.4272063"><ele>200.0</ele><time>2026-04-04T12:31:59.314Z</time></trkpt><trkpt lat="45.6100074" lon="9.4271073"><ele>202.0</ele><time>2026-04-04T12:32:10.319Z</time></trkpt></trkseg></trk></gpx>